<?xml version="1.0" encoding="UTF-8" standalone="no" ?>
<gpx xmlns="http://www.topografix.com/GPX/1/1" xmlns:xsi="http://www.w3.org/2001/XMLSchema-instance" xsi:schemaLocation="http://www.topografix.com/GPX/1/1 http://www.topografix.com/GPX/1/1/gpx.xsd" version="1.1" creator="VisuGPX - https://www.visugpx.com">
  <metadata>
    <name>Les crêtes du Banchet</name>
    <desc><![CDATA[Tricotage sur les sentiers autour du col du Banchet. Aucune difficulté à part le passage le long de la route reliant St Marie D'Alvey à Novalaise. En plein virage sans visibilité. Préférer passer dans le pré au nord de la route, cela permet de relier les deux chemins en toute sécurité.

Juste avant la fromagerie en arrivant de Dullin, une chicane empêche de passer avec les chevaux, mais dans le pré au dessus de la chicane il y a une porte.
  ]]></desc>
  </metadata>
  <trk>
    <name><![CDATA[Hiking]]></name>
    <trkseg>
      <trkpt lat="45.55343" lon="5.74576">
        <ele>519.7</ele>
        <time>2019-10-27T09:29:06.000Z</time>
      </trkpt>
      <trkpt lat="45.55343" lon="5.74576">
        <ele>523</ele>
        <time>2019-10-27T09:29:07.000Z</time>
      </trkpt>
      <trkpt lat="45.55343" lon="5.74576">
        <ele>523</ele>
        <time>2019-10-27T09:29:08.000Z</time>
      </trkpt>
      <trkpt lat="45.55343" lon="5.74576">
        <ele>523</ele>
        <time>2019-10-27T09:29:09.000Z</time>
      </trkpt>
      <trkpt lat="45.55343" lon="5.74576">
        <ele>523</ele>
        <time>2019-10-27T09:29:10.000Z</time>
      </trkpt>
      <trkpt lat="45.55343" lon="5.74576">
        <ele>523</ele>
        <time>2019-10-27T09:29:11.000Z</time>
      </trkpt>
      <trkpt lat="45.55343" lon="5.74576">
        <ele>523</ele>
        <time>2019-10-27T09:29:12.000Z</time>
      </trkpt>
      <trkpt lat="45.55343" lon="5.74576">
        <ele>523</ele>
        <time>2019-10-27T09:29:13.000Z</time>
      </trkpt>
      <trkpt lat="45.55343" lon="5.74576">
        <ele>523</ele>
        <time>2019-10-27T09:29:14.000Z</time>
      </trkpt>
      <trkpt lat="45.55343" lon="5.74575">
        <ele>523</ele>
        <time>2019-10-27T09:29:15.000Z</time>
      </trkpt>
      <trkpt lat="45.55342" lon="5.74575">
        <ele>523</ele>
        <time>2019-10-27T09:29:16.000Z</time>
      </trkpt>
      <trkpt lat="45.55341" lon="5.74574">
        <ele>523</ele>
        <time>2019-10-27T09:29:17.000Z</time>
      </trkpt>
      <trkpt lat="45.55341" lon="5.74573">
        <ele>523</ele>
        <time>2019-10-27T09:29:18.000Z</time>
      </trkpt>
      <trkpt lat="45.5534" lon="5.74572">
        <ele>523</ele>
        <time>2019-10-27T09:29:19.000Z</time>
      </trkpt>
      <trkpt lat="45.55339" lon="5.74571">
        <ele>523</ele>
        <time>2019-10-27T09:29:20.000Z</time>
      </trkpt>
      <trkpt lat="45.55338" lon="5.74571">
        <ele>523</ele>
        <time>2019-10-27T09:29:21.000Z</time>
      </trkpt>
      <trkpt lat="45.55337" lon="5.7457">
        <ele>523</ele>
        <time>2019-10-27T09:29:22.000Z</time>
      </trkpt>
      <trkpt lat="45.55336" lon="5.74569">
        <ele>523</ele>
        <time>2019-10-27T09:29:23.000Z</time>
      </trkpt>
      <trkpt lat="45.55335" lon="5.74569">
        <ele>523</ele>
        <time>2019-10-27T09:29:24.000Z</time>
      </trkpt>
      <trkpt lat="45.55333" lon="5.74568">
        <ele>523</ele>
        <time>2019-10-27T09:29:25.000Z</time>
      </trkpt>
      <trkpt lat="45.55332" lon="5.74567">
        <ele>523</ele>
        <time>2019-10-27T09:29:26.000Z</time>
      </trkpt>
      <trkpt lat="45.55331" lon="5.74566">
        <ele>523</ele>
        <time>2019-10-27T09:29:27.000Z</time>
      </trkpt>
      <trkpt lat="45.5533" lon="5.74565">
        <ele>523</ele>
        <time>2019-10-27T09:29:28.000Z</time>
      </trkpt>
      <trkpt lat="45.55329" lon="5.74565">
        <ele>523</ele>
        <time>2019-10-27T09:29:29.000Z</time>
      </trkpt>
      <trkpt lat="45.55328" lon="5.74564">
        <ele>523</ele>
        <time>2019-10-27T09:29:30.000Z</time>
      </trkpt>
      <trkpt lat="45.55327" lon="5.74564">
        <ele>523</ele>
        <time>2019-10-27T09:29:31.000Z</time>
      </trkpt>
      <trkpt lat="45.55327" lon="5.74563">
        <ele>523</ele>
        <time>2019-10-27T09:29:32.000Z</time>
      </trkpt>
      <trkpt lat="45.55326" lon="5.74563">
        <ele>523</ele>
        <time>2019-10-27T09:29:33.000Z</time>
      </trkpt>
      <trkpt lat="45.55324" lon="5.74563">
        <ele>523</ele>
        <time>2019-10-27T09:29:34.000Z</time>
      </trkpt>
      <trkpt lat="45.55323" lon="5.74563">
        <ele>523</ele>
        <time>2019-10-27T09:29:35.000Z</time>
      </trkpt>
      <trkpt lat="45.55322" lon="5.74563">
        <ele>523</ele>
        <time>2019-10-27T09:29:36.000Z</time>
      </trkpt>
      <trkpt lat="45.55321" lon="5.74563">
        <ele>523</ele>
        <time>2019-10-27T09:29:37.000Z</time>
      </trkpt>
      <trkpt lat="45.5532" lon="5.74562">
        <ele>523</ele>
        <time>2019-10-27T09:29:38.000Z</time>
      </trkpt>
      <trkpt lat="45.5532" lon="5.74561">
        <ele>523</ele>
        <time>2019-10-27T09:29:39.000Z</time>
      </trkpt>
      <trkpt lat="45.5532" lon="5.74559">
        <ele>523</ele>
        <time>2019-10-27T09:29:40.000Z</time>
      </trkpt>
      <trkpt lat="45.5532" lon="5.74558">
        <ele>523</ele>
        <time>2019-10-27T09:29:41.000Z</time>
      </trkpt>
      <trkpt lat="45.5532" lon="5.74557">
        <ele>523</ele>
        <time>2019-10-27T09:29:42.000Z</time>
      </trkpt>
      <trkpt lat="45.5532" lon="5.74556">
        <ele>523</ele>
        <time>2019-10-27T09:29:43.000Z</time>
      </trkpt>
      <trkpt lat="45.55321" lon="5.74555">
        <ele>523.5</ele>
        <time>2019-10-27T09:29:44.000Z</time>
      </trkpt>
      <trkpt lat="45.55321" lon="5.74554">
        <ele>524</ele>
        <time>2019-10-27T09:29:45.000Z</time>
      </trkpt>
      <trkpt lat="45.55322" lon="5.74553">
        <ele>524</ele>
        <time>2019-10-27T09:29:46.000Z</time>
      </trkpt>
      <trkpt lat="45.55323" lon="5.74551">
        <ele>524</ele>
        <time>2019-10-27T09:29:47.000Z</time>
      </trkpt>
      <trkpt lat="45.55323" lon="5.7455">
        <ele>524</ele>
        <time>2019-10-27T09:29:48.000Z</time>
      </trkpt>
      <trkpt lat="45.55324" lon="5.74549">
        <ele>524</ele>
        <time>2019-10-27T09:29:49.000Z</time>
      </trkpt>
      <trkpt lat="45.55324" lon="5.74548">
        <ele>524</ele>
        <time>2019-10-27T09:29:50.000Z</time>
      </trkpt>
      <trkpt lat="45.55325" lon="5.74547">
        <ele>524</ele>
        <time>2019-10-27T09:29:51.000Z</time>
      </trkpt>
      <trkpt lat="45.55326" lon="5.74546">
        <ele>524</ele>
        <time>2019-10-27T09:29:52.000Z</time>
      </trkpt>
      <trkpt lat="45.55327" lon="5.74546">
        <ele>524</ele>
        <time>2019-10-27T09:29:53.000Z</time>
      </trkpt>
      <trkpt lat="45.55327" lon="5.74545">
        <ele>524</ele>
        <time>2019-10-27T09:29:54.000Z</time>
      </trkpt>
      <trkpt lat="45.55328" lon="5.74544">
        <ele>524</ele>
        <time>2019-10-27T09:29:55.000Z</time>
      </trkpt>
      <trkpt lat="45.55328" lon="5.74543">
        <ele>524</ele>
        <time>2019-10-27T09:29:56.000Z</time>
      </trkpt>
      <trkpt lat="45.55329" lon="5.74541">
        <ele>524</ele>
        <time>2019-10-27T09:29:57.000Z</time>
      </trkpt>
      <trkpt lat="45.55329" lon="5.7454">
        <ele>524.5</ele>
        <time>2019-10-27T09:29:58.000Z</time>
      </trkpt>
      <trkpt lat="45.5533" lon="5.74538">
        <ele>525</ele>
        <time>2019-10-27T09:29:59.000Z</time>
      </trkpt>
      <trkpt lat="45.5533" lon="5.74537">
        <ele>525</ele>
        <time>2019-10-27T09:30:00.000Z</time>
      </trkpt>
      <trkpt lat="45.55331" lon="5.74535">
        <ele>525</ele>
        <time>2019-10-27T09:30:01.000Z</time>
      </trkpt>
      <trkpt lat="45.55331" lon="5.74534">
        <ele>525</ele>
        <time>2019-10-27T09:30:02.000Z</time>
      </trkpt>
      <trkpt lat="45.55332" lon="5.74533">
        <ele>525</ele>
        <time>2019-10-27T09:30:03.000Z</time>
      </trkpt>
      <trkpt lat="45.55333" lon="5.74531">
        <ele>525</ele>
        <time>2019-10-27T09:30:04.000Z</time>
      </trkpt>
      <trkpt lat="45.55334" lon="5.7453">
        <ele>525</ele>
        <time>2019-10-27T09:30:05.000Z</time>
      </trkpt>
      <trkpt lat="45.55335" lon="5.74529">
        <ele>525</ele>
        <time>2019-10-27T09:30:06.000Z</time>
      </trkpt>
      <trkpt lat="45.55336" lon="5.74528">
        <ele>525</ele>
        <time>2019-10-27T09:30:07.000Z</time>
      </trkpt>
      <trkpt lat="45.55337" lon="5.74527">
        <ele>525</ele>
        <time>2019-10-27T09:30:08.000Z</time>
      </trkpt>
      <trkpt lat="45.55338" lon="5.74526">
        <ele>525</ele>
        <time>2019-10-27T09:30:09.000Z</time>
      </trkpt>
      <trkpt lat="45.55339" lon="5.74525">
        <ele>525</ele>
        <time>2019-10-27T09:30:10.000Z</time>
      </trkpt>
      <trkpt lat="45.55339" lon="5.74524">
        <ele>525</ele>
        <time>2019-10-27T09:30:11.000Z</time>
      </trkpt>
      <trkpt lat="45.5534" lon="5.74523">
        <ele>525</ele>
        <time>2019-10-27T09:30:12.000Z</time>
      </trkpt>
      <trkpt lat="45.55341" lon="5.74523">
        <ele>525</ele>
        <time>2019-10-27T09:30:13.000Z</time>
      </trkpt>
      <trkpt lat="45.55342" lon="5.74522">
        <ele>525</ele>
        <time>2019-10-27T09:30:14.000Z</time>
      </trkpt>
      <trkpt lat="45.55343" lon="5.74521">
        <ele>525</ele>
        <time>2019-10-27T09:30:15.000Z</time>
      </trkpt>
      <trkpt lat="45.55344" lon="5.74521">
        <ele>525</ele>
        <time>2019-10-27T09:30:16.000Z</time>
      </trkpt>
      <trkpt lat="45.55346" lon="5.74521">
        <ele>524.5</ele>
        <time>2019-10-27T09:30:17.000Z</time>
      </trkpt>
      <trkpt lat="45.55347" lon="5.74521">
        <ele>524</ele>
        <time>2019-10-27T09:30:18.000Z</time>
      </trkpt>
      <trkpt lat="45.55348" lon="5.74522">
        <ele>524</ele>
        <time>2019-10-27T09:30:19.000Z</time>
      </trkpt>
      <trkpt lat="45.55349" lon="5.74522">
        <ele>524</ele>
        <time>2019-10-27T09:30:20.000Z</time>
      </trkpt>
      <trkpt lat="45.5535" lon="5.74523">
        <ele>524</ele>
        <time>2019-10-27T09:30:21.000Z</time>
      </trkpt>
      <trkpt lat="45.55351" lon="5.74523">
        <ele>524</ele>
        <time>2019-10-27T09:30:22.000Z</time>
      </trkpt>
      <trkpt lat="45.55352" lon="5.74524">
        <ele>524</ele>
        <time>2019-10-27T09:30:23.000Z</time>
      </trkpt>
      <trkpt lat="45.55353" lon="5.74525">
        <ele>524</ele>
        <time>2019-10-27T09:30:24.000Z</time>
      </trkpt>
      <trkpt lat="45.55354" lon="5.74525">
        <ele>524</ele>
        <time>2019-10-27T09:30:25.000Z</time>
      </trkpt>
      <trkpt lat="45.55355" lon="5.74525">
        <ele>524</ele>
        <time>2019-10-27T09:30:26.000Z</time>
      </trkpt>
      <trkpt lat="45.55356" lon="5.74525">
        <ele>524</ele>
        <time>2019-10-27T09:30:27.000Z</time>
      </trkpt>
      <trkpt lat="45.55356" lon="5.74525">
        <ele>524</ele>
        <time>2019-10-27T09:30:28.000Z</time>
      </trkpt>
      <trkpt lat="45.55357" lon="5.74525">
        <ele>524</ele>
        <time>2019-10-27T09:30:29.000Z</time>
      </trkpt>
      <trkpt lat="45.55358" lon="5.74524">
        <ele>524</ele>
        <time>2019-10-27T09:30:30.000Z</time>
      </trkpt>
      <trkpt lat="45.55359" lon="5.74524">
        <ele>524</ele>
        <time>2019-10-27T09:30:31.000Z</time>
      </trkpt>
      <trkpt lat="45.5536" lon="5.74523">
        <ele>524</ele>
        <time>2019-10-27T09:30:32.000Z</time>
      </trkpt>
      <trkpt lat="45.55361" lon="5.74522">
        <ele>524</ele>
        <time>2019-10-27T09:30:33.000Z</time>
      </trkpt>
      <trkpt lat="45.55362" lon="5.74521">
        <ele>524</ele>
        <time>2019-10-27T09:30:34.000Z</time>
      </trkpt>
      <trkpt lat="45.55363" lon="5.7452">
        <ele>525</ele>
        <time>2019-10-27T09:30:35.000Z</time>
      </trkpt>
      <trkpt lat="45.55364" lon="5.7452">
        <ele>525</ele>
        <time>2019-10-27T09:30:36.000Z</time>
      </trkpt>
      <trkpt lat="45.55364" lon="5.74519">
        <ele>525</ele>
        <time>2019-10-27T09:30:37.000Z</time>
      </trkpt>
      <trkpt lat="45.55365" lon="5.74518">
        <ele>525</ele>
        <time>2019-10-27T09:30:38.000Z</time>
      </trkpt>
      <trkpt lat="45.55365" lon="5.74517">
        <ele>525</ele>
        <time>2019-10-27T09:30:39.000Z</time>
      </trkpt>
      <trkpt lat="45.55365" lon="5.74516">
        <ele>525</ele>
        <time>2019-10-27T09:30:40.000Z</time>
      </trkpt>
      <trkpt lat="45.55365" lon="5.74514">
        <ele>525</ele>
        <time>2019-10-27T09:30:41.000Z</time>
      </trkpt>
      <trkpt lat="45.55365" lon="5.74513">
        <ele>525.3</ele>
        <time>2019-10-27T09:30:42.000Z</time>
      </trkpt>
      <trkpt lat="45.55365" lon="5.74511">
        <ele>525.7</ele>
        <time>2019-10-27T09:30:43.000Z</time>
      </trkpt>
      <trkpt lat="45.55366" lon="5.7451">
        <ele>526</ele>
        <time>2019-10-27T09:30:44.000Z</time>
      </trkpt>
      <trkpt lat="45.55366" lon="5.74508">
        <ele>526</ele>
        <time>2019-10-27T09:30:45.000Z</time>
      </trkpt>
      <trkpt lat="45.55366" lon="5.74506">
        <ele>526</ele>
        <time>2019-10-27T09:30:46.000Z</time>
      </trkpt>
      <trkpt lat="45.55366" lon="5.74505">
        <ele>526</ele>
        <time>2019-10-27T09:30:47.000Z</time>
      </trkpt>
      <trkpt lat="45.55366" lon="5.74503">
        <ele>526</ele>
        <time>2019-10-27T09:30:48.000Z</time>
      </trkpt>
      <trkpt lat="45.55366" lon="5.74502">
        <ele>526</ele>
        <time>2019-10-27T09:30:49.000Z</time>
      </trkpt>
      <trkpt lat="45.55367" lon="5.745">
        <ele>526</ele>
        <time>2019-10-27T09:30:50.000Z</time>
      </trkpt>
      <trkpt lat="45.55367" lon="5.74499">
        <ele>526.5</ele>
        <time>2019-10-27T09:30:51.000Z</time>
      </trkpt>
      <trkpt lat="45.55367" lon="5.74498">
        <ele>527</ele>
        <time>2019-10-27T09:30:52.000Z</time>
      </trkpt>
      <trkpt lat="45.55367" lon="5.74496">
        <ele>527</ele>
        <time>2019-10-27T09:30:53.000Z</time>
      </trkpt>
      <trkpt lat="45.55367" lon="5.74494">
        <ele>527</ele>
        <time>2019-10-27T09:30:54.000Z</time>
      </trkpt>
      <trkpt lat="45.55367" lon="5.74493">
        <ele>527</ele>
        <time>2019-10-27T09:30:55.000Z</time>
      </trkpt>
      <trkpt lat="45.55367" lon="5.74492">
        <ele>527</ele>
        <time>2019-10-27T09:30:56.000Z</time>
      </trkpt>
      <trkpt lat="45.55367" lon="5.74492">
        <ele>527</ele>
        <time>2019-10-27T09:30:57.000Z</time>
      </trkpt>
      <trkpt lat="45.55367" lon="5.74492">
        <ele>527</ele>
        <time>2019-10-27T09:30:58.000Z</time>
      </trkpt>
      <trkpt lat="45.55367" lon="5.74492">
        <ele>527</ele>
        <time>2019-10-27T09:30:59.000Z</time>
      </trkpt>
      <trkpt lat="45.55367" lon="5.74492">
        <ele>527</ele>
        <time>2019-10-27T09:31:00.000Z</time>
      </trkpt>
      <trkpt lat="45.55367" lon="5.74491">
        <ele>527</ele>
        <time>2019-10-27T09:31:01.000Z</time>
      </trkpt>
      <trkpt lat="45.55367" lon="5.7449">
        <ele>527</ele>
        <time>2019-10-27T09:31:02.000Z</time>
      </trkpt>
      <trkpt lat="45.55367" lon="5.74489">
        <ele>527</ele>
        <time>2019-10-27T09:31:03.000Z</time>
      </trkpt>
      <trkpt lat="45.55367" lon="5.74488">
        <ele>528</ele>
        <time>2019-10-27T09:31:04.000Z</time>
      </trkpt>
      <trkpt lat="45.55366" lon="5.74486">
        <ele>528</ele>
        <time>2019-10-27T09:31:05.000Z</time>
      </trkpt>
      <trkpt lat="45.55366" lon="5.74484">
        <ele>528</ele>
        <time>2019-10-27T09:31:06.000Z</time>
      </trkpt>
      <trkpt lat="45.55366" lon="5.74483">
        <ele>528</ele>
        <time>2019-10-27T09:31:07.000Z</time>
      </trkpt>
      <trkpt lat="45.55365" lon="5.74481">
        <ele>528</ele>
        <time>2019-10-27T09:31:08.000Z</time>
      </trkpt>
      <trkpt lat="45.55365" lon="5.7448">
        <ele>528</ele>
        <time>2019-10-27T09:31:09.000Z</time>
      </trkpt>
      <trkpt lat="45.55365" lon="5.74479">
        <ele>529</ele>
        <time>2019-10-27T09:31:10.000Z</time>
      </trkpt>
      <trkpt lat="45.55364" lon="5.74478">
        <ele>529</ele>
        <time>2019-10-27T09:31:11.000Z</time>
      </trkpt>
      <trkpt lat="45.55364" lon="5.74476">
        <ele>529</ele>
        <time>2019-10-27T09:31:12.000Z</time>
      </trkpt>
      <trkpt lat="45.55364" lon="5.74475">
        <ele>529</ele>
        <time>2019-10-27T09:31:13.000Z</time>
      </trkpt>
      <trkpt lat="45.55363" lon="5.74473">
        <ele>529</ele>
        <time>2019-10-27T09:31:14.000Z</time>
      </trkpt>
      <trkpt lat="45.55363" lon="5.74471">
        <ele>529.3</ele>
        <time>2019-10-27T09:31:15.000Z</time>
      </trkpt>
      <trkpt lat="45.55363" lon="5.74469">
        <ele>529.7</ele>
        <time>2019-10-27T09:31:16.000Z</time>
      </trkpt>
      <trkpt lat="45.55362" lon="5.74468">
        <ele>530</ele>
        <time>2019-10-27T09:31:17.000Z</time>
      </trkpt>
      <trkpt lat="45.55362" lon="5.74466">
        <ele>530</ele>
        <time>2019-10-27T09:31:18.000Z</time>
      </trkpt>
      <trkpt lat="45.55361" lon="5.74464">
        <ele>530</ele>
        <time>2019-10-27T09:31:19.000Z</time>
      </trkpt>
      <trkpt lat="45.55361" lon="5.74463">
        <ele>530</ele>
        <time>2019-10-27T09:31:20.000Z</time>
      </trkpt>
      <trkpt lat="45.55361" lon="5.74461">
        <ele>530</ele>
        <time>2019-10-27T09:31:21.000Z</time>
      </trkpt>
      <trkpt lat="45.5536" lon="5.7446">
        <ele>530</ele>
        <time>2019-10-27T09:31:22.000Z</time>
      </trkpt>
      <trkpt lat="45.5536" lon="5.74458">
        <ele>530</ele>
        <time>2019-10-27T09:31:23.000Z</time>
      </trkpt>
      <trkpt lat="45.5536" lon="5.74457">
        <ele>530</ele>
        <time>2019-10-27T09:31:24.000Z</time>
      </trkpt>
      <trkpt lat="45.5536" lon="5.74455">
        <ele>530</ele>
        <time>2019-10-27T09:31:25.000Z</time>
      </trkpt>
      <trkpt lat="45.5536" lon="5.74454">
        <ele>531</ele>
        <time>2019-10-27T09:31:26.000Z</time>
      </trkpt>
      <trkpt lat="45.5536" lon="5.74452">
        <ele>531</ele>
        <time>2019-10-27T09:31:27.000Z</time>
      </trkpt>
      <trkpt lat="45.5536" lon="5.74451">
        <ele>531</ele>
        <time>2019-10-27T09:31:28.000Z</time>
      </trkpt>
      <trkpt lat="45.55359" lon="5.74449">
        <ele>531</ele>
        <time>2019-10-27T09:31:29.000Z</time>
      </trkpt>
      <trkpt lat="45.55359" lon="5.74447">
        <ele>531</ele>
        <time>2019-10-27T09:31:30.000Z</time>
      </trkpt>
      <trkpt lat="45.55359" lon="5.74446">
        <ele>531</ele>
        <time>2019-10-27T09:31:31.000Z</time>
      </trkpt>
      <trkpt lat="45.55359" lon="5.74444">
        <ele>532</ele>
        <time>2019-10-27T09:31:32.000Z</time>
      </trkpt>
      <trkpt lat="45.55358" lon="5.74442">
        <ele>532</ele>
        <time>2019-10-27T09:31:33.000Z</time>
      </trkpt>
      <trkpt lat="45.55358" lon="5.7444">
        <ele>532</ele>
        <time>2019-10-27T09:31:34.000Z</time>
      </trkpt>
      <trkpt lat="45.55357" lon="5.74438">
        <ele>532</ele>
        <time>2019-10-27T09:31:35.000Z</time>
      </trkpt>
      <trkpt lat="45.55357" lon="5.74437">
        <ele>532</ele>
        <time>2019-10-27T09:31:36.000Z</time>
      </trkpt>
      <trkpt lat="45.55357" lon="5.74435">
        <ele>532</ele>
        <time>2019-10-27T09:31:37.000Z</time>
      </trkpt>
      <trkpt lat="45.55356" lon="5.74434">
        <ele>532.5</ele>
        <time>2019-10-27T09:31:38.000Z</time>
      </trkpt>
      <trkpt lat="45.55356" lon="5.74433">
        <ele>533</ele>
        <time>2019-10-27T09:31:39.000Z</time>
      </trkpt>
      <trkpt lat="45.55355" lon="5.74431">
        <ele>533</ele>
        <time>2019-10-27T09:31:40.000Z</time>
      </trkpt>
      <trkpt lat="45.55355" lon="5.7443">
        <ele>533</ele>
        <time>2019-10-27T09:31:41.000Z</time>
      </trkpt>
      <trkpt lat="45.55355" lon="5.74429">
        <ele>533</ele>
        <time>2019-10-27T09:31:42.000Z</time>
      </trkpt>
      <trkpt lat="45.55355" lon="5.74428">
        <ele>533</ele>
        <time>2019-10-27T09:31:43.000Z</time>
      </trkpt>
      <trkpt lat="45.55355" lon="5.74426">
        <ele>533</ele>
        <time>2019-10-27T09:31:44.000Z</time>
      </trkpt>
      <trkpt lat="45.55355" lon="5.74425">
        <ele>533.3</ele>
        <time>2019-10-27T09:31:45.000Z</time>
      </trkpt>
      <trkpt lat="45.55355" lon="5.74424">
        <ele>533.7</ele>
        <time>2019-10-27T09:31:46.000Z</time>
      </trkpt>
      <trkpt lat="45.55355" lon="5.74423">
        <ele>534</ele>
        <time>2019-10-27T09:31:47.000Z</time>
      </trkpt>
      <trkpt lat="45.55355" lon="5.74422">
        <ele>534</ele>
        <time>2019-10-27T09:31:48.000Z</time>
      </trkpt>
      <trkpt lat="45.55355" lon="5.74421">
        <ele>534</ele>
        <time>2019-10-27T09:31:49.000Z</time>
      </trkpt>
      <trkpt lat="45.55354" lon="5.7442">
        <ele>534</ele>
        <time>2019-10-27T09:31:50.000Z</time>
      </trkpt>
      <trkpt lat="45.55354" lon="5.74418">
        <ele>534</ele>
        <time>2019-10-27T09:31:51.000Z</time>
      </trkpt>
      <trkpt lat="45.55354" lon="5.74417">
        <ele>534</ele>
        <time>2019-10-27T09:31:52.000Z</time>
      </trkpt>
      <trkpt lat="45.55353" lon="5.74416">
        <ele>534</ele>
        <time>2019-10-27T09:31:53.000Z</time>
      </trkpt>
      <trkpt lat="45.55353" lon="5.74415">
        <ele>534</ele>
        <time>2019-10-27T09:31:54.000Z</time>
      </trkpt>
      <trkpt lat="45.55353" lon="5.74415">
        <ele>534</ele>
        <time>2019-10-27T09:31:55.000Z</time>
      </trkpt>
      <trkpt lat="45.55352" lon="5.74415">
        <ele>534</ele>
        <time>2019-10-27T09:31:56.000Z</time>
      </trkpt>
      <trkpt lat="45.55352" lon="5.74415">
        <ele>534</ele>
        <time>2019-10-27T09:31:57.000Z</time>
      </trkpt>
      <trkpt lat="45.55352" lon="5.74415">
        <ele>534</ele>
        <time>2019-10-27T09:31:58.000Z</time>
      </trkpt>
      <trkpt lat="45.55351" lon="5.74415">
        <ele>534</ele>
        <time>2019-10-27T09:31:59.000Z</time>
      </trkpt>
      <trkpt lat="45.55351" lon="5.74415">
        <ele>534</ele>
        <time>2019-10-27T09:32:00.000Z</time>
      </trkpt>
      <trkpt lat="45.55351" lon="5.74415">
        <ele>534</ele>
        <time>2019-10-27T09:32:01.000Z</time>
      </trkpt>
      <trkpt lat="45.5535" lon="5.74415">
        <ele>534</ele>
        <time>2019-10-27T09:32:02.000Z</time>
      </trkpt>
      <trkpt lat="45.5535" lon="5.74415">
        <ele>534</ele>
        <time>2019-10-27T09:32:03.000Z</time>
      </trkpt>
      <trkpt lat="45.5535" lon="5.74415">
        <ele>534</ele>
        <time>2019-10-27T09:32:04.000Z</time>
      </trkpt>
      <trkpt lat="45.5535" lon="5.74415">
        <ele>534</ele>
        <time>2019-10-27T09:32:05.000Z</time>
      </trkpt>
      <trkpt lat="45.5535" lon="5.74415">
        <ele>534</ele>
        <time>2019-10-27T09:32:06.000Z</time>
      </trkpt>
      <trkpt lat="45.5535" lon="5.74415">
        <ele>534</ele>
        <time>2019-10-27T09:32:07.000Z</time>
      </trkpt>
      <trkpt lat="45.5535" lon="5.74415">
        <ele>534</ele>
        <time>2019-10-27T09:32:08.000Z</time>
      </trkpt>
      <trkpt lat="45.5535" lon="5.74415">
        <ele>534</ele>
        <time>2019-10-27T09:32:09.000Z</time>
      </trkpt>
      <trkpt lat="45.5535" lon="5.74415">
        <ele>534</ele>
        <time>2019-10-27T09:32:10.000Z</time>
      </trkpt>
      <trkpt lat="45.5535" lon="5.74415">
        <ele>534</ele>
        <time>2019-10-27T09:32:11.000Z</time>
      </trkpt>
      <trkpt lat="45.5535" lon="5.74415">
        <ele>534</ele>
        <time>2019-10-27T09:32:12.000Z</time>
      </trkpt>
      <trkpt lat="45.5535" lon="5.74415">
        <ele>534</ele>
        <time>2019-10-27T09:32:13.000Z</time>
      </trkpt>
      <trkpt lat="45.5535" lon="5.74415">
        <ele>534</ele>
        <time>2019-10-27T09:32:14.000Z</time>
      </trkpt>
      <trkpt lat="45.5535" lon="5.74415">
        <ele>534</ele>
        <time>2019-10-27T09:32:15.000Z</time>
      </trkpt>
      <trkpt lat="45.5535" lon="5.74415">
        <ele>534</ele>
        <time>2019-10-27T09:32:16.000Z</time>
      </trkpt>
      <trkpt lat="45.5535" lon="5.74415">
        <ele>534</ele>
        <time>2019-10-27T09:32:17.000Z</time>
      </trkpt>
      <trkpt lat="45.5535" lon="5.74415">
        <ele>534</ele>
        <time>2019-10-27T09:32:18.000Z</time>
      </trkpt>
      <trkpt lat="45.5535" lon="5.74415">
        <ele>534</ele>
        <time>2019-10-27T09:32:19.000Z</time>
      </trkpt>
      <trkpt lat="45.5535" lon="5.74415">
        <ele>534</ele>
        <time>2019-10-27T09:32:20.000Z</time>
      </trkpt>
      <trkpt lat="45.5535" lon="5.74415">
        <ele>534</ele>
        <time>2019-10-27T09:32:21.000Z</time>
      </trkpt>
      <trkpt lat="45.5535" lon="5.74415">
        <ele>534</ele>
        <time>2019-10-27T09:32:22.000Z</time>
      </trkpt>
      <trkpt lat="45.5535" lon="5.74415">
        <ele>534</ele>
        <time>2019-10-27T09:32:23.000Z</time>
      </trkpt>
      <trkpt lat="45.5535" lon="5.74415">
        <ele>534</ele>
        <time>2019-10-27T09:32:24.000Z</time>
      </trkpt>
      <trkpt lat="45.55351" lon="5.74414">
        <ele>534</ele>
        <time>2019-10-27T09:32:25.000Z</time>
      </trkpt>
      <trkpt lat="45.55351" lon="5.74414">
        <ele>534</ele>
        <time>2019-10-27T09:32:26.000Z</time>
      </trkpt>
      <trkpt lat="45.55352" lon="5.74413">
        <ele>534</ele>
        <time>2019-10-27T09:32:27.000Z</time>
      </trkpt>
      <trkpt lat="45.55353" lon="5.74412">
        <ele>534</ele>
        <time>2019-10-27T09:32:28.000Z</time>
      </trkpt>
      <trkpt lat="45.55354" lon="5.74412">
        <ele>534</ele>
        <time>2019-10-27T09:32:29.000Z</time>
      </trkpt>
      <trkpt lat="45.55354" lon="5.74411">
        <ele>534</ele>
        <time>2019-10-27T09:32:30.000Z</time>
      </trkpt>
      <trkpt lat="45.55354" lon="5.74411">
        <ele>534</ele>
        <time>2019-10-27T09:32:31.000Z</time>
      </trkpt>
      <trkpt lat="45.55354" lon="5.7441">
        <ele>534</ele>
        <time>2019-10-27T09:32:32.000Z</time>
      </trkpt>
      <trkpt lat="45.55354" lon="5.74409">
        <ele>534</ele>
        <time>2019-10-27T09:32:33.000Z</time>
      </trkpt>
      <trkpt lat="45.55355" lon="5.74408">
        <ele>534</ele>
        <time>2019-10-27T09:32:34.000Z</time>
      </trkpt>
      <trkpt lat="45.55355" lon="5.74406">
        <ele>534</ele>
        <time>2019-10-27T09:32:35.000Z</time>
      </trkpt>
      <trkpt lat="45.55356" lon="5.74405">
        <ele>534</ele>
        <time>2019-10-27T09:32:36.000Z</time>
      </trkpt>
      <trkpt lat="45.55356" lon="5.74403">
        <ele>534</ele>
        <time>2019-10-27T09:32:37.000Z</time>
      </trkpt>
      <trkpt lat="45.55358" lon="5.74402">
        <ele>534</ele>
        <time>2019-10-27T09:32:38.000Z</time>
      </trkpt>
      <trkpt lat="45.55359" lon="5.74401">
        <ele>534</ele>
        <time>2019-10-27T09:32:39.000Z</time>
      </trkpt>
      <trkpt lat="45.5536" lon="5.744">
        <ele>535</ele>
        <time>2019-10-27T09:32:40.000Z</time>
      </trkpt>
      <trkpt lat="45.55362" lon="5.74399">
        <ele>535</ele>
        <time>2019-10-27T09:32:41.000Z</time>
      </trkpt>
      <trkpt lat="45.55363" lon="5.74398">
        <ele>535</ele>
        <time>2019-10-27T09:32:42.000Z</time>
      </trkpt>
      <trkpt lat="45.55364" lon="5.74397">
        <ele>535</ele>
        <time>2019-10-27T09:32:43.000Z</time>
      </trkpt>
      <trkpt lat="45.55365" lon="5.74395">
        <ele>535</ele>
        <time>2019-10-27T09:32:44.000Z</time>
      </trkpt>
      <trkpt lat="45.55366" lon="5.74394">
        <ele>535</ele>
        <time>2019-10-27T09:32:45.000Z</time>
      </trkpt>
      <trkpt lat="45.55367" lon="5.74393">
        <ele>535</ele>
        <time>2019-10-27T09:32:46.000Z</time>
      </trkpt>
      <trkpt lat="45.55368" lon="5.74392">
        <ele>535</ele>
        <time>2019-10-27T09:32:47.000Z</time>
      </trkpt>
      <trkpt lat="45.55369" lon="5.74391">
        <ele>535</ele>
        <time>2019-10-27T09:32:48.000Z</time>
      </trkpt>
      <trkpt lat="45.5537" lon="5.7439">
        <ele>535</ele>
        <time>2019-10-27T09:32:49.000Z</time>
      </trkpt>
      <trkpt lat="45.55371" lon="5.7439">
        <ele>535</ele>
        <time>2019-10-27T09:32:50.000Z</time>
      </trkpt>
      <trkpt lat="45.55372" lon="5.74389">
        <ele>535</ele>
        <time>2019-10-27T09:32:51.000Z</time>
      </trkpt>
      <trkpt lat="45.55373" lon="5.74388">
        <ele>535</ele>
        <time>2019-10-27T09:32:52.000Z</time>
      </trkpt>
      <trkpt lat="45.55374" lon="5.74388">
        <ele>535</ele>
        <time>2019-10-27T09:32:53.000Z</time>
      </trkpt>
      <trkpt lat="45.55375" lon="5.74387">
        <ele>535</ele>
        <time>2019-10-27T09:32:54.000Z</time>
      </trkpt>
      <trkpt lat="45.55376" lon="5.74387">
        <ele>535</ele>
        <time>2019-10-27T09:32:55.000Z</time>
      </trkpt>
      <trkpt lat="45.55377" lon="5.74386">
        <ele>535</ele>
        <time>2019-10-27T09:32:56.000Z</time>
      </trkpt>
      <trkpt lat="45.55378" lon="5.74386">
        <ele>535</ele>
        <time>2019-10-27T09:32:57.000Z</time>
      </trkpt>
      <trkpt lat="45.55379" lon="5.74385">
        <ele>535</ele>
        <time>2019-10-27T09:32:58.000Z</time>
      </trkpt>
      <trkpt lat="45.55381" lon="5.74385">
        <ele>535</ele>
        <time>2019-10-27T09:32:59.000Z</time>
      </trkpt>
      <trkpt lat="45.55382" lon="5.74384">
        <ele>535</ele>
        <time>2019-10-27T09:33:00.000Z</time>
      </trkpt>
      <trkpt lat="45.55383" lon="5.74384">
        <ele>535</ele>
        <time>2019-10-27T09:33:01.000Z</time>
      </trkpt>
      <trkpt lat="45.55383" lon="5.74383">
        <ele>535</ele>
        <time>2019-10-27T09:33:02.000Z</time>
      </trkpt>
      <trkpt lat="45.55384" lon="5.74383">
        <ele>535</ele>
        <time>2019-10-27T09:33:03.000Z</time>
      </trkpt>
      <trkpt lat="45.55385" lon="5.74382">
        <ele>535</ele>
        <time>2019-10-27T09:33:04.000Z</time>
      </trkpt>
      <trkpt lat="45.55386" lon="5.74381">
        <ele>535</ele>
        <time>2019-10-27T09:33:05.000Z</time>
      </trkpt>
      <trkpt lat="45.55387" lon="5.74381">
        <ele>535</ele>
        <time>2019-10-27T09:33:06.000Z</time>
      </trkpt>
      <trkpt lat="45.55388" lon="5.7438">
        <ele>535</ele>
        <time>2019-10-27T09:33:07.000Z</time>
      </trkpt>
      <trkpt lat="45.55389" lon="5.74379">
        <ele>535</ele>
        <time>2019-10-27T09:33:08.000Z</time>
      </trkpt>
      <trkpt lat="45.5539" lon="5.74378">
        <ele>535</ele>
        <time>2019-10-27T09:33:09.000Z</time>
      </trkpt>
      <trkpt lat="45.55391" lon="5.74377">
        <ele>535</ele>
        <time>2019-10-27T09:33:10.000Z</time>
      </trkpt>
      <trkpt lat="45.55392" lon="5.74376">
        <ele>535</ele>
        <time>2019-10-27T09:33:11.000Z</time>
      </trkpt>
      <trkpt lat="45.55393" lon="5.74375">
        <ele>535</ele>
        <time>2019-10-27T09:33:12.000Z</time>
      </trkpt>
      <trkpt lat="45.55394" lon="5.74374">
        <ele>535</ele>
        <time>2019-10-27T09:33:13.000Z</time>
      </trkpt>
      <trkpt lat="45.55395" lon="5.74373">
        <ele>535.5</ele>
        <time>2019-10-27T09:33:14.000Z</time>
      </trkpt>
      <trkpt lat="45.55396" lon="5.74372">
        <ele>536</ele>
        <time>2019-10-27T09:33:15.000Z</time>
      </trkpt>
      <trkpt lat="45.55397" lon="5.74371">
        <ele>536</ele>
        <time>2019-10-27T09:33:16.000Z</time>
      </trkpt>
      <trkpt lat="45.55397" lon="5.7437">
        <ele>536</ele>
        <time>2019-10-27T09:33:17.000Z</time>
      </trkpt>
      <trkpt lat="45.55398" lon="5.74369">
        <ele>536</ele>
        <time>2019-10-27T09:33:18.000Z</time>
      </trkpt>
      <trkpt lat="45.55399" lon="5.74369">
        <ele>536</ele>
        <time>2019-10-27T09:33:19.000Z</time>
      </trkpt>
      <trkpt lat="45.55399" lon="5.74368">
        <ele>536</ele>
        <time>2019-10-27T09:33:20.000Z</time>
      </trkpt>
      <trkpt lat="45.554" lon="5.74367">
        <ele>536</ele>
        <time>2019-10-27T09:33:21.000Z</time>
      </trkpt>
      <trkpt lat="45.55401" lon="5.74366">
        <ele>536</ele>
        <time>2019-10-27T09:33:22.000Z</time>
      </trkpt>
      <trkpt lat="45.55402" lon="5.74365">
        <ele>536</ele>
        <time>2019-10-27T09:33:23.000Z</time>
      </trkpt>
      <trkpt lat="45.55402" lon="5.74364">
        <ele>536</ele>
        <time>2019-10-27T09:33:24.000Z</time>
      </trkpt>
      <trkpt lat="45.55403" lon="5.74363">
        <ele>536</ele>
        <time>2019-10-27T09:33:25.000Z</time>
      </trkpt>
      <trkpt lat="45.55404" lon="5.74362">
        <ele>536</ele>
        <time>2019-10-27T09:33:26.000Z</time>
      </trkpt>
      <trkpt lat="45.55405" lon="5.74361">
        <ele>536</ele>
        <time>2019-10-27T09:33:27.000Z</time>
      </trkpt>
      <trkpt lat="45.55406" lon="5.7436">
        <ele>536</ele>
        <time>2019-10-27T09:33:28.000Z</time>
      </trkpt>
      <trkpt lat="45.55407" lon="5.74359">
        <ele>536</ele>
        <time>2019-10-27T09:33:29.000Z</time>
      </trkpt>
      <trkpt lat="45.55408" lon="5.74358">
        <ele>536</ele>
        <time>2019-10-27T09:33:30.000Z</time>
      </trkpt>
      <trkpt lat="45.55409" lon="5.74357">
        <ele>536</ele>
        <time>2019-10-27T09:33:31.000Z</time>
      </trkpt>
      <trkpt lat="45.5541" lon="5.74356">
        <ele>536</ele>
        <time>2019-10-27T09:33:32.000Z</time>
      </trkpt>
      <trkpt lat="45.55411" lon="5.74355">
        <ele>536</ele>
        <time>2019-10-27T09:33:33.000Z</time>
      </trkpt>
      <trkpt lat="45.55412" lon="5.74355">
        <ele>536</ele>
        <time>2019-10-27T09:33:34.000Z</time>
      </trkpt>
      <trkpt lat="45.55413" lon="5.74354">
        <ele>536</ele>
        <time>2019-10-27T09:33:35.000Z</time>
      </trkpt>
      <trkpt lat="45.55414" lon="5.74353">
        <ele>536</ele>
        <time>2019-10-27T09:33:36.000Z</time>
      </trkpt>
      <trkpt lat="45.55415" lon="5.74352">
        <ele>536</ele>
        <time>2019-10-27T09:33:37.000Z</time>
      </trkpt>
      <trkpt lat="45.55416" lon="5.74351">
        <ele>536</ele>
        <time>2019-10-27T09:33:38.000Z</time>
      </trkpt>
      <trkpt lat="45.55416" lon="5.7435">
        <ele>536</ele>
        <time>2019-10-27T09:33:39.000Z</time>
      </trkpt>
      <trkpt lat="45.55417" lon="5.74349">
        <ele>536</ele>
        <time>2019-10-27T09:33:40.000Z</time>
      </trkpt>
      <trkpt lat="45.55417" lon="5.74347">
        <ele>536</ele>
        <time>2019-10-27T09:33:41.000Z</time>
      </trkpt>
      <trkpt lat="45.55418" lon="5.74346">
        <ele>536</ele>
        <time>2019-10-27T09:33:42.000Z</time>
      </trkpt>
      <trkpt lat="45.55419" lon="5.74345">
        <ele>536</ele>
        <time>2019-10-27T09:33:43.000Z</time>
      </trkpt>
      <trkpt lat="45.55419" lon="5.74344">
        <ele>536</ele>
        <time>2019-10-27T09:33:44.000Z</time>
      </trkpt>
      <trkpt lat="45.5542" lon="5.74343">
        <ele>536</ele>
        <time>2019-10-27T09:33:45.000Z</time>
      </trkpt>
      <trkpt lat="45.55421" lon="5.74342">
        <ele>536</ele>
        <time>2019-10-27T09:33:46.000Z</time>
      </trkpt>
      <trkpt lat="45.55422" lon="5.7434">
        <ele>536</ele>
        <time>2019-10-27T09:33:47.000Z</time>
      </trkpt>
      <trkpt lat="45.55423" lon="5.74339">
        <ele>536</ele>
        <time>2019-10-27T09:33:48.000Z</time>
      </trkpt>
      <trkpt lat="45.55423" lon="5.74338">
        <ele>536.3</ele>
        <time>2019-10-27T09:33:49.000Z</time>
      </trkpt>
      <trkpt lat="45.55424" lon="5.74337">
        <ele>536.7</ele>
        <time>2019-10-27T09:33:50.000Z</time>
      </trkpt>
      <trkpt lat="45.55425" lon="5.74336">
        <ele>537</ele>
        <time>2019-10-27T09:33:51.000Z</time>
      </trkpt>
      <trkpt lat="45.55425" lon="5.74335">
        <ele>537</ele>
        <time>2019-10-27T09:33:52.000Z</time>
      </trkpt>
      <trkpt lat="45.55426" lon="5.74334">
        <ele>537</ele>
        <time>2019-10-27T09:33:53.000Z</time>
      </trkpt>
      <trkpt lat="45.55426" lon="5.74333">
        <ele>537</ele>
        <time>2019-10-27T09:33:54.000Z</time>
      </trkpt>
      <trkpt lat="45.55427" lon="5.74332">
        <ele>537</ele>
        <time>2019-10-27T09:33:55.000Z</time>
      </trkpt>
      <trkpt lat="45.55428" lon="5.74331">
        <ele>537</ele>
        <time>2019-10-27T09:33:56.000Z</time>
      </trkpt>
      <trkpt lat="45.55429" lon="5.7433">
        <ele>537</ele>
        <time>2019-10-27T09:33:57.000Z</time>
      </trkpt>
      <trkpt lat="45.5543" lon="5.74329">
        <ele>537</ele>
        <time>2019-10-27T09:33:58.000Z</time>
      </trkpt>
      <trkpt lat="45.5543" lon="5.74328">
        <ele>537</ele>
        <time>2019-10-27T09:33:59.000Z</time>
      </trkpt>
      <trkpt lat="45.55431" lon="5.74326">
        <ele>537</ele>
        <time>2019-10-27T09:34:00.000Z</time>
      </trkpt>
      <trkpt lat="45.55431" lon="5.74325">
        <ele>537</ele>
        <time>2019-10-27T09:34:01.000Z</time>
      </trkpt>
      <trkpt lat="45.55432" lon="5.74324">
        <ele>537</ele>
        <time>2019-10-27T09:34:02.000Z</time>
      </trkpt>
      <trkpt lat="45.55432" lon="5.74323">
        <ele>537</ele>
        <time>2019-10-27T09:34:03.000Z</time>
      </trkpt>
      <trkpt lat="45.55432" lon="5.74322">
        <ele>537</ele>
        <time>2019-10-27T09:34:04.000Z</time>
      </trkpt>
      <trkpt lat="45.55433" lon="5.74321">
        <ele>537</ele>
        <time>2019-10-27T09:34:05.000Z</time>
      </trkpt>
      <trkpt lat="45.55434" lon="5.7432">
        <ele>537.5</ele>
        <time>2019-10-27T09:34:06.000Z</time>
      </trkpt>
      <trkpt lat="45.55434" lon="5.74319">
        <ele>538</ele>
        <time>2019-10-27T09:34:07.000Z</time>
      </trkpt>
      <trkpt lat="45.55435" lon="5.74317">
        <ele>538</ele>
        <time>2019-10-27T09:34:08.000Z</time>
      </trkpt>
      <trkpt lat="45.55436" lon="5.74316">
        <ele>538</ele>
        <time>2019-10-27T09:34:09.000Z</time>
      </trkpt>
      <trkpt lat="45.55436" lon="5.74315">
        <ele>538</ele>
        <time>2019-10-27T09:34:10.000Z</time>
      </trkpt>
      <trkpt lat="45.55437" lon="5.74313">
        <ele>538</ele>
        <time>2019-10-27T09:34:11.000Z</time>
      </trkpt>
      <trkpt lat="45.55438" lon="5.74312">
        <ele>538</ele>
        <time>2019-10-27T09:34:12.000Z</time>
      </trkpt>
      <trkpt lat="45.55439" lon="5.7431">
        <ele>538</ele>
        <time>2019-10-27T09:34:13.000Z</time>
      </trkpt>
      <trkpt lat="45.5544" lon="5.74309">
        <ele>538</ele>
        <time>2019-10-27T09:34:14.000Z</time>
      </trkpt>
      <trkpt lat="45.5544" lon="5.74308">
        <ele>538</ele>
        <time>2019-10-27T09:34:15.000Z</time>
      </trkpt>
      <trkpt lat="45.55441" lon="5.74306">
        <ele>538</ele>
        <time>2019-10-27T09:34:16.000Z</time>
      </trkpt>
      <trkpt lat="45.55442" lon="5.74305">
        <ele>538</ele>
        <time>2019-10-27T09:34:17.000Z</time>
      </trkpt>
      <trkpt lat="45.55442" lon="5.74304">
        <ele>539</ele>
        <time>2019-10-27T09:34:18.000Z</time>
      </trkpt>
      <trkpt lat="45.55443" lon="5.74303">
        <ele>539</ele>
        <time>2019-10-27T09:34:19.000Z</time>
      </trkpt>
      <trkpt lat="45.55444" lon="5.74302">
        <ele>539</ele>
        <time>2019-10-27T09:34:20.000Z</time>
      </trkpt>
      <trkpt lat="45.55444" lon="5.74301">
        <ele>539</ele>
        <time>2019-10-27T09:34:21.000Z</time>
      </trkpt>
      <trkpt lat="45.55445" lon="5.743">
        <ele>539</ele>
        <time>2019-10-27T09:34:22.000Z</time>
      </trkpt>
      <trkpt lat="45.55446" lon="5.74299">
        <ele>539</ele>
        <time>2019-10-27T09:34:23.000Z</time>
      </trkpt>
      <trkpt lat="45.55447" lon="5.74298">
        <ele>540</ele>
        <time>2019-10-27T09:34:24.000Z</time>
      </trkpt>
      <trkpt lat="45.55448" lon="5.74297">
        <ele>540</ele>
        <time>2019-10-27T09:34:25.000Z</time>
      </trkpt>
      <trkpt lat="45.55448" lon="5.74296">
        <ele>540</ele>
        <time>2019-10-27T09:34:26.000Z</time>
      </trkpt>
      <trkpt lat="45.55449" lon="5.74295">
        <ele>540</ele>
        <time>2019-10-27T09:34:27.000Z</time>
      </trkpt>
      <trkpt lat="45.5545" lon="5.74294">
        <ele>540</ele>
        <time>2019-10-27T09:34:28.000Z</time>
      </trkpt>
      <trkpt lat="45.55451" lon="5.74293">
        <ele>540</ele>
        <time>2019-10-27T09:34:29.000Z</time>
      </trkpt>
      <trkpt lat="45.55451" lon="5.74292">
        <ele>540</ele>
        <time>2019-10-27T09:34:30.000Z</time>
      </trkpt>
      <trkpt lat="45.55452" lon="5.74291">
        <ele>540.3</ele>
        <time>2019-10-27T09:34:31.000Z</time>
      </trkpt>
      <trkpt lat="45.55453" lon="5.7429">
        <ele>540.7</ele>
        <time>2019-10-27T09:34:32.000Z</time>
      </trkpt>
      <trkpt lat="45.55454" lon="5.7429">
        <ele>541</ele>
        <time>2019-10-27T09:34:33.000Z</time>
      </trkpt>
      <trkpt lat="45.55455" lon="5.74289">
        <ele>541</ele>
        <time>2019-10-27T09:34:34.000Z</time>
      </trkpt>
      <trkpt lat="45.55456" lon="5.74289">
        <ele>541</ele>
        <time>2019-10-27T09:34:35.000Z</time>
      </trkpt>
      <trkpt lat="45.55457" lon="5.74289">
        <ele>541</ele>
        <time>2019-10-27T09:34:36.000Z</time>
      </trkpt>
      <trkpt lat="45.55458" lon="5.74288">
        <ele>541</ele>
        <time>2019-10-27T09:34:37.000Z</time>
      </trkpt>
      <trkpt lat="45.55459" lon="5.74288">
        <ele>541</ele>
        <time>2019-10-27T09:34:38.000Z</time>
      </trkpt>
      <trkpt lat="45.5546" lon="5.74288">
        <ele>541.3</ele>
        <time>2019-10-27T09:34:39.000Z</time>
      </trkpt>
      <trkpt lat="45.55461" lon="5.74288">
        <ele>541.7</ele>
        <time>2019-10-27T09:34:40.000Z</time>
      </trkpt>
      <trkpt lat="45.55462" lon="5.74288">
        <ele>542</ele>
        <time>2019-10-27T09:34:41.000Z</time>
      </trkpt>
      <trkpt lat="45.55463" lon="5.74288">
        <ele>542</ele>
        <time>2019-10-27T09:34:42.000Z</time>
      </trkpt>
      <trkpt lat="45.55464" lon="5.74289">
        <ele>542</ele>
        <time>2019-10-27T09:34:43.000Z</time>
      </trkpt>
      <trkpt lat="45.55464" lon="5.74289">
        <ele>542</ele>
        <time>2019-10-27T09:34:44.000Z</time>
      </trkpt>
      <trkpt lat="45.55465" lon="5.7429">
        <ele>542</ele>
        <time>2019-10-27T09:34:45.000Z</time>
      </trkpt>
      <trkpt lat="45.55466" lon="5.7429">
        <ele>543</ele>
        <time>2019-10-27T09:34:46.000Z</time>
      </trkpt>
      <trkpt lat="45.55466" lon="5.74291">
        <ele>543</ele>
        <time>2019-10-27T09:34:47.000Z</time>
      </trkpt>
      <trkpt lat="45.55467" lon="5.74292">
        <ele>543</ele>
        <time>2019-10-27T09:34:48.000Z</time>
      </trkpt>
      <trkpt lat="45.55468" lon="5.74293">
        <ele>543</ele>
        <time>2019-10-27T09:34:49.000Z</time>
      </trkpt>
      <trkpt lat="45.55469" lon="5.74294">
        <ele>543</ele>
        <time>2019-10-27T09:34:50.000Z</time>
      </trkpt>
      <trkpt lat="45.55469" lon="5.74296">
        <ele>543</ele>
        <time>2019-10-27T09:34:51.000Z</time>
      </trkpt>
      <trkpt lat="45.55469" lon="5.74297">
        <ele>543</ele>
        <time>2019-10-27T09:34:52.000Z</time>
      </trkpt>
      <trkpt lat="45.55469" lon="5.74298">
        <ele>543</ele>
        <time>2019-10-27T09:34:53.000Z</time>
      </trkpt>
      <trkpt lat="45.5547" lon="5.743">
        <ele>543</ele>
        <time>2019-10-27T09:34:54.000Z</time>
      </trkpt>
      <trkpt lat="45.5547" lon="5.74301">
        <ele>543.3</ele>
        <time>2019-10-27T09:34:55.000Z</time>
      </trkpt>
      <trkpt lat="45.55471" lon="5.74302">
        <ele>543.7</ele>
        <time>2019-10-27T09:34:56.000Z</time>
      </trkpt>
      <trkpt lat="45.55472" lon="5.74303">
        <ele>544</ele>
        <time>2019-10-27T09:34:57.000Z</time>
      </trkpt>
      <trkpt lat="45.55473" lon="5.74304">
        <ele>544</ele>
        <time>2019-10-27T09:34:58.000Z</time>
      </trkpt>
      <trkpt lat="45.55473" lon="5.74306">
        <ele>544</ele>
        <time>2019-10-27T09:34:59.000Z</time>
      </trkpt>
      <trkpt lat="45.55474" lon="5.74307">
        <ele>544</ele>
        <time>2019-10-27T09:35:00.000Z</time>
      </trkpt>
      <trkpt lat="45.55475" lon="5.74308">
        <ele>544</ele>
        <time>2019-10-27T09:35:01.000Z</time>
      </trkpt>
      <trkpt lat="45.55476" lon="5.74309">
        <ele>544</ele>
        <time>2019-10-27T09:35:02.000Z</time>
      </trkpt>
      <trkpt lat="45.55477" lon="5.7431">
        <ele>544</ele>
        <time>2019-10-27T09:35:03.000Z</time>
      </trkpt>
      <trkpt lat="45.55478" lon="5.74311">
        <ele>544</ele>
        <time>2019-10-27T09:35:04.000Z</time>
      </trkpt>
      <trkpt lat="45.55478" lon="5.74312">
        <ele>544</ele>
        <time>2019-10-27T09:35:05.000Z</time>
      </trkpt>
      <trkpt lat="45.55479" lon="5.74313">
        <ele>544</ele>
        <time>2019-10-27T09:35:06.000Z</time>
      </trkpt>
      <trkpt lat="45.5548" lon="5.74313">
        <ele>544</ele>
        <time>2019-10-27T09:35:07.000Z</time>
      </trkpt>
      <trkpt lat="45.5548" lon="5.74314">
        <ele>544</ele>
        <time>2019-10-27T09:35:08.000Z</time>
      </trkpt>
      <trkpt lat="45.55481" lon="5.74315">
        <ele>544</ele>
        <time>2019-10-27T09:35:09.000Z</time>
      </trkpt>
      <trkpt lat="45.55481" lon="5.74315">
        <ele>544</ele>
        <time>2019-10-27T09:35:10.000Z</time>
      </trkpt>
      <trkpt lat="45.55482" lon="5.74315">
        <ele>544</ele>
        <time>2019-10-27T09:35:11.000Z</time>
      </trkpt>
      <trkpt lat="45.55483" lon="5.74315">
        <ele>544</ele>
        <time>2019-10-27T09:35:12.000Z</time>
      </trkpt>
      <trkpt lat="45.55483" lon="5.74316">
        <ele>544</ele>
        <time>2019-10-27T09:35:13.000Z</time>
      </trkpt>
      <trkpt lat="45.55484" lon="5.74316">
        <ele>544</ele>
        <time>2019-10-27T09:35:14.000Z</time>
      </trkpt>
      <trkpt lat="45.55485" lon="5.74316">
        <ele>544</ele>
        <time>2019-10-27T09:35:15.000Z</time>
      </trkpt>
      <trkpt lat="45.55486" lon="5.74316">
        <ele>543.5</ele>
        <time>2019-10-27T09:35:16.000Z</time>
      </trkpt>
      <trkpt lat="45.55487" lon="5.74316">
        <ele>543</ele>
        <time>2019-10-27T09:35:17.000Z</time>
      </trkpt>
      <trkpt lat="45.55488" lon="5.74317">
        <ele>543</ele>
        <time>2019-10-27T09:35:18.000Z</time>
      </trkpt>
      <trkpt lat="45.55489" lon="5.74317">
        <ele>543</ele>
        <time>2019-10-27T09:35:19.000Z</time>
      </trkpt>
      <trkpt lat="45.5549" lon="5.74318">
        <ele>543</ele>
        <time>2019-10-27T09:35:20.000Z</time>
      </trkpt>
      <trkpt lat="45.55491" lon="5.74318">
        <ele>543</ele>
        <time>2019-10-27T09:35:21.000Z</time>
      </trkpt>
      <trkpt lat="45.55492" lon="5.74319">
        <ele>543</ele>
        <time>2019-10-27T09:35:22.000Z</time>
      </trkpt>
      <trkpt lat="45.55494" lon="5.74319">
        <ele>543</ele>
        <time>2019-10-27T09:35:23.000Z</time>
      </trkpt>
      <trkpt lat="45.55495" lon="5.7432">
        <ele>543</ele>
        <time>2019-10-27T09:35:24.000Z</time>
      </trkpt>
      <trkpt lat="45.55496" lon="5.7432">
        <ele>543</ele>
        <time>2019-10-27T09:35:25.000Z</time>
      </trkpt>
      <trkpt lat="45.55497" lon="5.74321">
        <ele>543</ele>
        <time>2019-10-27T09:35:26.000Z</time>
      </trkpt>
      <trkpt lat="45.55498" lon="5.74321">
        <ele>543</ele>
        <time>2019-10-27T09:35:27.000Z</time>
      </trkpt>
      <trkpt lat="45.55499" lon="5.74321">
        <ele>543</ele>
        <time>2019-10-27T09:35:28.000Z</time>
      </trkpt>
      <trkpt lat="45.555" lon="5.74322">
        <ele>543</ele>
        <time>2019-10-27T09:35:29.000Z</time>
      </trkpt>
      <trkpt lat="45.55501" lon="5.74322">
        <ele>543</ele>
        <time>2019-10-27T09:35:30.000Z</time>
      </trkpt>
      <trkpt lat="45.55502" lon="5.74322">
        <ele>543</ele>
        <time>2019-10-27T09:35:31.000Z</time>
      </trkpt>
      <trkpt lat="45.55503" lon="5.74323">
        <ele>543</ele>
        <time>2019-10-27T09:35:32.000Z</time>
      </trkpt>
      <trkpt lat="45.55504" lon="5.74323">
        <ele>543</ele>
        <time>2019-10-27T09:35:33.000Z</time>
      </trkpt>
      <trkpt lat="45.55505" lon="5.74323">
        <ele>543</ele>
        <time>2019-10-27T09:35:34.000Z</time>
      </trkpt>
      <trkpt lat="45.55506" lon="5.74324">
        <ele>543.3</ele>
        <time>2019-10-27T09:35:35.000Z</time>
      </trkpt>
      <trkpt lat="45.55507" lon="5.74324">
        <ele>543.7</ele>
        <time>2019-10-27T09:35:36.000Z</time>
      </trkpt>
      <trkpt lat="45.55508" lon="5.74324">
        <ele>544</ele>
        <time>2019-10-27T09:35:37.000Z</time>
      </trkpt>
      <trkpt lat="45.55509" lon="5.74325">
        <ele>544</ele>
        <time>2019-10-27T09:35:38.000Z</time>
      </trkpt>
      <trkpt lat="45.5551" lon="5.74325">
        <ele>544</ele>
        <time>2019-10-27T09:35:39.000Z</time>
      </trkpt>
      <trkpt lat="45.55511" lon="5.74325">
        <ele>544</ele>
        <time>2019-10-27T09:35:40.000Z</time>
      </trkpt>
      <trkpt lat="45.55512" lon="5.74326">
        <ele>544</ele>
        <time>2019-10-27T09:35:41.000Z</time>
      </trkpt>
      <trkpt lat="45.55514" lon="5.74326">
        <ele>544</ele>
        <time>2019-10-27T09:35:42.000Z</time>
      </trkpt>
      <trkpt lat="45.55515" lon="5.74326">
        <ele>544</ele>
        <time>2019-10-27T09:35:43.000Z</time>
      </trkpt>
      <trkpt lat="45.55516" lon="5.74326">
        <ele>544</ele>
        <time>2019-10-27T09:35:44.000Z</time>
      </trkpt>
      <trkpt lat="45.55517" lon="5.74327">
        <ele>544</ele>
        <time>2019-10-27T09:35:45.000Z</time>
      </trkpt>
      <trkpt lat="45.55518" lon="5.74327">
        <ele>544</ele>
        <time>2019-10-27T09:35:46.000Z</time>
      </trkpt>
      <trkpt lat="45.55519" lon="5.74327">
        <ele>544</ele>
        <time>2019-10-27T09:35:47.000Z</time>
      </trkpt>
      <trkpt lat="45.55521" lon="5.74327">
        <ele>544</ele>
        <time>2019-10-27T09:35:48.000Z</time>
      </trkpt>
      <trkpt lat="45.55522" lon="5.74328">
        <ele>544</ele>
        <time>2019-10-27T09:35:49.000Z</time>
      </trkpt>
      <trkpt lat="45.55523" lon="5.74328">
        <ele>544</ele>
        <time>2019-10-27T09:35:50.000Z</time>
      </trkpt>
      <trkpt lat="45.55524" lon="5.74328">
        <ele>544</ele>
        <time>2019-10-27T09:35:51.000Z</time>
      </trkpt>
      <trkpt lat="45.55525" lon="5.74329">
        <ele>544</ele>
        <time>2019-10-27T09:35:52.000Z</time>
      </trkpt>
      <trkpt lat="45.55526" lon="5.74329">
        <ele>544</ele>
        <time>2019-10-27T09:35:53.000Z</time>
      </trkpt>
      <trkpt lat="45.55527" lon="5.7433">
        <ele>544</ele>
        <time>2019-10-27T09:35:54.000Z</time>
      </trkpt>
      <trkpt lat="45.55528" lon="5.7433">
        <ele>544</ele>
        <time>2019-10-27T09:35:55.000Z</time>
      </trkpt>
      <trkpt lat="45.5553" lon="5.74331">
        <ele>544</ele>
        <time>2019-10-27T09:35:56.000Z</time>
      </trkpt>
      <trkpt lat="45.55531" lon="5.74331">
        <ele>544</ele>
        <time>2019-10-27T09:35:57.000Z</time>
      </trkpt>
      <trkpt lat="45.55533" lon="5.74332">
        <ele>544</ele>
        <time>2019-10-27T09:35:58.000Z</time>
      </trkpt>
      <trkpt lat="45.55534" lon="5.74332">
        <ele>544</ele>
        <time>2019-10-27T09:35:59.000Z</time>
      </trkpt>
      <trkpt lat="45.55535" lon="5.74333">
        <ele>544</ele>
        <time>2019-10-27T09:36:00.000Z</time>
      </trkpt>
      <trkpt lat="45.55536" lon="5.74333">
        <ele>544</ele>
        <time>2019-10-27T09:36:01.000Z</time>
      </trkpt>
      <trkpt lat="45.55537" lon="5.74333">
        <ele>544</ele>
        <time>2019-10-27T09:36:02.000Z</time>
      </trkpt>
      <trkpt lat="45.55538" lon="5.74333">
        <ele>544</ele>
        <time>2019-10-27T09:36:03.000Z</time>
      </trkpt>
      <trkpt lat="45.55539" lon="5.74334">
        <ele>544</ele>
        <time>2019-10-27T09:36:04.000Z</time>
      </trkpt>
      <trkpt lat="45.5554" lon="5.74334">
        <ele>544</ele>
        <time>2019-10-27T09:36:05.000Z</time>
      </trkpt>
      <trkpt lat="45.55541" lon="5.74334">
        <ele>544</ele>
        <time>2019-10-27T09:36:06.000Z</time>
      </trkpt>
      <trkpt lat="45.55543" lon="5.74334">
        <ele>544</ele>
        <time>2019-10-27T09:36:07.000Z</time>
      </trkpt>
      <trkpt lat="45.55544" lon="5.74334">
        <ele>544</ele>
        <time>2019-10-27T09:36:08.000Z</time>
      </trkpt>
      <trkpt lat="45.55545" lon="5.74334">
        <ele>544</ele>
        <time>2019-10-27T09:36:09.000Z</time>
      </trkpt>
      <trkpt lat="45.55547" lon="5.74334">
        <ele>544</ele>
        <time>2019-10-27T09:36:10.000Z</time>
      </trkpt>
      <trkpt lat="45.55548" lon="5.74334">
        <ele>544</ele>
        <time>2019-10-27T09:36:11.000Z</time>
      </trkpt>
      <trkpt lat="45.55549" lon="5.74334">
        <ele>544</ele>
        <time>2019-10-27T09:36:12.000Z</time>
      </trkpt>
      <trkpt lat="45.5555" lon="5.74334">
        <ele>544</ele>
        <time>2019-10-27T09:36:13.000Z</time>
      </trkpt>
      <trkpt lat="45.55551" lon="5.74334">
        <ele>544</ele>
        <time>2019-10-27T09:36:14.000Z</time>
      </trkpt>
      <trkpt lat="45.55552" lon="5.74334">
        <ele>544</ele>
        <time>2019-10-27T09:36:15.000Z</time>
      </trkpt>
      <trkpt lat="45.55554" lon="5.74334">
        <ele>544</ele>
        <time>2019-10-27T09:36:16.000Z</time>
      </trkpt>
      <trkpt lat="45.55555" lon="5.74335">
        <ele>544</ele>
        <time>2019-10-27T09:36:17.000Z</time>
      </trkpt>
      <trkpt lat="45.55556" lon="5.74335">
        <ele>544</ele>
        <time>2019-10-27T09:36:18.000Z</time>
      </trkpt>
      <trkpt lat="45.55556" lon="5.74335">
        <ele>544</ele>
        <time>2019-10-27T09:36:19.000Z</time>
      </trkpt>
      <trkpt lat="45.55557" lon="5.74335">
        <ele>544</ele>
        <time>2019-10-27T09:36:20.000Z</time>
      </trkpt>
      <trkpt lat="45.55557" lon="5.74335">
        <ele>544</ele>
        <time>2019-10-27T09:36:21.000Z</time>
      </trkpt>
      <trkpt lat="45.55557" lon="5.74336">
        <ele>544</ele>
        <time>2019-10-27T09:36:22.000Z</time>
      </trkpt>
      <trkpt lat="45.55557" lon="5.74336">
        <ele>544</ele>
        <time>2019-10-27T09:36:23.000Z</time>
      </trkpt>
      <trkpt lat="45.55557" lon="5.74336">
        <ele>544</ele>
        <time>2019-10-27T09:36:24.000Z</time>
      </trkpt>
      <trkpt lat="45.55557" lon="5.74336">
        <ele>544</ele>
        <time>2019-10-27T09:36:25.000Z</time>
      </trkpt>
      <trkpt lat="45.55557" lon="5.74336">
        <ele>544</ele>
        <time>2019-10-27T09:36:26.000Z</time>
      </trkpt>
      <trkpt lat="45.55558" lon="5.74336">
        <ele>544</ele>
        <time>2019-10-27T09:36:27.000Z</time>
      </trkpt>
      <trkpt lat="45.55559" lon="5.74336">
        <ele>544</ele>
        <time>2019-10-27T09:36:28.000Z</time>
      </trkpt>
      <trkpt lat="45.5556" lon="5.74337">
        <ele>544</ele>
        <time>2019-10-27T09:36:29.000Z</time>
      </trkpt>
      <trkpt lat="45.55562" lon="5.74337">
        <ele>544</ele>
        <time>2019-10-27T09:36:30.000Z</time>
      </trkpt>
      <trkpt lat="45.55563" lon="5.74337">
        <ele>544</ele>
        <time>2019-10-27T09:36:31.000Z</time>
      </trkpt>
      <trkpt lat="45.55565" lon="5.74337">
        <ele>544</ele>
        <time>2019-10-27T09:36:32.000Z</time>
      </trkpt>
      <trkpt lat="45.55566" lon="5.74337">
        <ele>544.5</ele>
        <time>2019-10-27T09:36:33.000Z</time>
      </trkpt>
      <trkpt lat="45.55567" lon="5.74338">
        <ele>545</ele>
        <time>2019-10-27T09:36:34.000Z</time>
      </trkpt>
      <trkpt lat="45.55569" lon="5.74338">
        <ele>545</ele>
        <time>2019-10-27T09:36:35.000Z</time>
      </trkpt>
      <trkpt lat="45.5557" lon="5.74338">
        <ele>545</ele>
        <time>2019-10-27T09:36:36.000Z</time>
      </trkpt>
      <trkpt lat="45.55571" lon="5.74338">
        <ele>545</ele>
        <time>2019-10-27T09:36:37.000Z</time>
      </trkpt>
      <trkpt lat="45.55571" lon="5.74338">
        <ele>545</ele>
        <time>2019-10-27T09:36:38.000Z</time>
      </trkpt>
      <trkpt lat="45.55572" lon="5.74339">
        <ele>545</ele>
        <time>2019-10-27T09:36:39.000Z</time>
      </trkpt>
      <trkpt lat="45.55573" lon="5.74339">
        <ele>545</ele>
        <time>2019-10-27T09:36:40.000Z</time>
      </trkpt>
      <trkpt lat="45.55573" lon="5.74339">
        <ele>545</ele>
        <time>2019-10-27T09:36:41.000Z</time>
      </trkpt>
      <trkpt lat="45.55574" lon="5.74339">
        <ele>545</ele>
        <time>2019-10-27T09:36:42.000Z</time>
      </trkpt>
      <trkpt lat="45.55574" lon="5.74339">
        <ele>545</ele>
        <time>2019-10-27T09:36:43.000Z</time>
      </trkpt>
      <trkpt lat="45.55574" lon="5.74339">
        <ele>545</ele>
        <time>2019-10-27T09:36:44.000Z</time>
      </trkpt>
      <trkpt lat="45.55574" lon="5.74339">
        <ele>545</ele>
        <time>2019-10-27T09:36:45.000Z</time>
      </trkpt>
      <trkpt lat="45.55574" lon="5.74339">
        <ele>545</ele>
        <time>2019-10-27T09:36:46.000Z</time>
      </trkpt>
      <trkpt lat="45.55575" lon="5.74338">
        <ele>545</ele>
        <time>2019-10-27T09:36:47.000Z</time>
      </trkpt>
      <trkpt lat="45.55577" lon="5.74338">
        <ele>545</ele>
        <time>2019-10-27T09:36:48.000Z</time>
      </trkpt>
      <trkpt lat="45.55579" lon="5.74338">
        <ele>545</ele>
        <time>2019-10-27T09:36:49.000Z</time>
      </trkpt>
      <trkpt lat="45.5558" lon="5.74338">
        <ele>545</ele>
        <time>2019-10-27T09:36:50.000Z</time>
      </trkpt>
      <trkpt lat="45.5558" lon="5.74337">
        <ele>545</ele>
        <time>2019-10-27T09:36:51.000Z</time>
      </trkpt>
      <trkpt lat="45.55581" lon="5.74337">
        <ele>545</ele>
        <time>2019-10-27T09:36:52.000Z</time>
      </trkpt>
      <trkpt lat="45.55582" lon="5.74338">
        <ele>545</ele>
        <time>2019-10-27T09:36:53.000Z</time>
      </trkpt>
      <trkpt lat="45.55582" lon="5.74338">
        <ele>545</ele>
        <time>2019-10-27T09:36:54.000Z</time>
      </trkpt>
      <trkpt lat="45.55583" lon="5.74338">
        <ele>545</ele>
        <time>2019-10-27T09:36:55.000Z</time>
      </trkpt>
      <trkpt lat="45.55584" lon="5.74339">
        <ele>545</ele>
        <time>2019-10-27T09:36:56.000Z</time>
      </trkpt>
      <trkpt lat="45.55584" lon="5.74339">
        <ele>545</ele>
        <time>2019-10-27T09:36:57.000Z</time>
      </trkpt>
      <trkpt lat="45.55584" lon="5.74339">
        <ele>545</ele>
        <time>2019-10-27T09:36:58.000Z</time>
      </trkpt>
      <trkpt lat="45.55584" lon="5.74339">
        <ele>545</ele>
        <time>2019-10-27T09:36:59.000Z</time>
      </trkpt>
      <trkpt lat="45.55585" lon="5.7434">
        <ele>545</ele>
        <time>2019-10-27T09:37:00.000Z</time>
      </trkpt>
      <trkpt lat="45.55586" lon="5.7434">
        <ele>545</ele>
        <time>2019-10-27T09:37:01.000Z</time>
      </trkpt>
      <trkpt lat="45.55587" lon="5.74341">
        <ele>545</ele>
        <time>2019-10-27T09:37:02.000Z</time>
      </trkpt>
      <trkpt lat="45.55588" lon="5.74342">
        <ele>544.7</ele>
        <time>2019-10-27T09:37:03.000Z</time>
      </trkpt>
      <trkpt lat="45.55589" lon="5.74343">
        <ele>544.3</ele>
        <time>2019-10-27T09:37:04.000Z</time>
      </trkpt>
      <trkpt lat="45.55591" lon="5.74343">
        <ele>544</ele>
        <time>2019-10-27T09:37:05.000Z</time>
      </trkpt>
      <trkpt lat="45.55592" lon="5.74344">
        <ele>544</ele>
        <time>2019-10-27T09:37:06.000Z</time>
      </trkpt>
      <trkpt lat="45.55594" lon="5.74344">
        <ele>544</ele>
        <time>2019-10-27T09:37:07.000Z</time>
      </trkpt>
      <trkpt lat="45.55595" lon="5.74344">
        <ele>544</ele>
        <time>2019-10-27T09:37:08.000Z</time>
      </trkpt>
      <trkpt lat="45.55596" lon="5.74345">
        <ele>544</ele>
        <time>2019-10-27T09:37:09.000Z</time>
      </trkpt>
      <trkpt lat="45.55597" lon="5.74345">
        <ele>544</ele>
        <time>2019-10-27T09:37:10.000Z</time>
      </trkpt>
      <trkpt lat="45.55598" lon="5.74345">
        <ele>544</ele>
        <time>2019-10-27T09:37:11.000Z</time>
      </trkpt>
      <trkpt lat="45.556" lon="5.74346">
        <ele>544</ele>
        <time>2019-10-27T09:37:12.000Z</time>
      </trkpt>
      <trkpt lat="45.55601" lon="5.74346">
        <ele>544</ele>
        <time>2019-10-27T09:37:13.000Z</time>
      </trkpt>
      <trkpt lat="45.55602" lon="5.74346">
        <ele>544</ele>
        <time>2019-10-27T09:37:14.000Z</time>
      </trkpt>
      <trkpt lat="45.55603" lon="5.74347">
        <ele>543.7</ele>
        <time>2019-10-27T09:37:15.000Z</time>
      </trkpt>
      <trkpt lat="45.55604" lon="5.74347">
        <ele>543.3</ele>
        <time>2019-10-27T09:37:16.000Z</time>
      </trkpt>
      <trkpt lat="45.55606" lon="5.74347">
        <ele>543</ele>
        <time>2019-10-27T09:37:17.000Z</time>
      </trkpt>
      <trkpt lat="45.55607" lon="5.74348">
        <ele>543</ele>
        <time>2019-10-27T09:37:18.000Z</time>
      </trkpt>
      <trkpt lat="45.55608" lon="5.74348">
        <ele>543</ele>
        <time>2019-10-27T09:37:19.000Z</time>
      </trkpt>
      <trkpt lat="45.55609" lon="5.74349">
        <ele>543</ele>
        <time>2019-10-27T09:37:20.000Z</time>
      </trkpt>
      <trkpt lat="45.55609" lon="5.74349">
        <ele>543</ele>
        <time>2019-10-27T09:37:21.000Z</time>
      </trkpt>
      <trkpt lat="45.5561" lon="5.7435">
        <ele>543</ele>
        <time>2019-10-27T09:37:22.000Z</time>
      </trkpt>
      <trkpt lat="45.55611" lon="5.7435">
        <ele>542.5</ele>
        <time>2019-10-27T09:37:23.000Z</time>
      </trkpt>
      <trkpt lat="45.55612" lon="5.7435">
        <ele>542</ele>
        <time>2019-10-27T09:37:24.000Z</time>
      </trkpt>
      <trkpt lat="45.55613" lon="5.74351">
        <ele>542</ele>
        <time>2019-10-27T09:37:25.000Z</time>
      </trkpt>
      <trkpt lat="45.55614" lon="5.74351">
        <ele>542</ele>
        <time>2019-10-27T09:37:26.000Z</time>
      </trkpt>
      <trkpt lat="45.55616" lon="5.74351">
        <ele>542</ele>
        <time>2019-10-27T09:37:27.000Z</time>
      </trkpt>
      <trkpt lat="45.55617" lon="5.74352">
        <ele>542</ele>
        <time>2019-10-27T09:37:28.000Z</time>
      </trkpt>
      <trkpt lat="45.55619" lon="5.74352">
        <ele>542</ele>
        <time>2019-10-27T09:37:29.000Z</time>
      </trkpt>
      <trkpt lat="45.5562" lon="5.74353">
        <ele>541</ele>
        <time>2019-10-27T09:37:30.000Z</time>
      </trkpt>
      <trkpt lat="45.55621" lon="5.74354">
        <ele>541</ele>
        <time>2019-10-27T09:37:31.000Z</time>
      </trkpt>
      <trkpt lat="45.55622" lon="5.74355">
        <ele>541</ele>
        <time>2019-10-27T09:37:32.000Z</time>
      </trkpt>
      <trkpt lat="45.55623" lon="5.74355">
        <ele>541</ele>
        <time>2019-10-27T09:37:33.000Z</time>
      </trkpt>
      <trkpt lat="45.55625" lon="5.74356">
        <ele>541</ele>
        <time>2019-10-27T09:37:34.000Z</time>
      </trkpt>
      <trkpt lat="45.55626" lon="5.74357">
        <ele>541</ele>
        <time>2019-10-27T09:37:35.000Z</time>
      </trkpt>
      <trkpt lat="45.55627" lon="5.74358">
        <ele>541</ele>
        <time>2019-10-27T09:37:36.000Z</time>
      </trkpt>
      <trkpt lat="45.55628" lon="5.74358">
        <ele>541</ele>
        <time>2019-10-27T09:37:37.000Z</time>
      </trkpt>
      <trkpt lat="45.5563" lon="5.74358">
        <ele>541</ele>
        <time>2019-10-27T09:37:38.000Z</time>
      </trkpt>
      <trkpt lat="45.5563" lon="5.74359">
        <ele>541</ele>
        <time>2019-10-27T09:37:39.000Z</time>
      </trkpt>
      <trkpt lat="45.55631" lon="5.74359">
        <ele>541</ele>
        <time>2019-10-27T09:37:40.000Z</time>
      </trkpt>
      <trkpt lat="45.55631" lon="5.74359">
        <ele>541</ele>
        <time>2019-10-27T09:37:41.000Z</time>
      </trkpt>
      <trkpt lat="45.55632" lon="5.74359">
        <ele>541</ele>
        <time>2019-10-27T09:37:42.000Z</time>
      </trkpt>
      <trkpt lat="45.55632" lon="5.74359">
        <ele>541</ele>
        <time>2019-10-27T09:37:43.000Z</time>
      </trkpt>
      <trkpt lat="45.55632" lon="5.74359">
        <ele>541</ele>
        <time>2019-10-27T09:37:44.000Z</time>
      </trkpt>
      <trkpt lat="45.55632" lon="5.74359">
        <ele>541</ele>
        <time>2019-10-27T09:37:45.000Z</time>
      </trkpt>
      <trkpt lat="45.55632" lon="5.74359">
        <ele>541</ele>
        <time>2019-10-27T09:37:46.000Z</time>
      </trkpt>
      <trkpt lat="45.55632" lon="5.74359">
        <ele>541</ele>
        <time>2019-10-27T09:37:47.000Z</time>
      </trkpt>
      <trkpt lat="45.55633" lon="5.74359">
        <ele>541</ele>
        <time>2019-10-27T09:37:48.000Z</time>
      </trkpt>
      <trkpt lat="45.55633" lon="5.74359">
        <ele>541</ele>
        <time>2019-10-27T09:37:49.000Z</time>
      </trkpt>
      <trkpt lat="45.55634" lon="5.7436">
        <ele>541</ele>
        <time>2019-10-27T09:37:50.000Z</time>
      </trkpt>
      <trkpt lat="45.55634" lon="5.7436">
        <ele>541</ele>
        <time>2019-10-27T09:37:51.000Z</time>
      </trkpt>
      <trkpt lat="45.55634" lon="5.7436">
        <ele>541</ele>
        <time>2019-10-27T09:37:52.000Z</time>
      </trkpt>
      <trkpt lat="45.55634" lon="5.7436">
        <ele>541</ele>
        <time>2019-10-27T09:37:53.000Z</time>
      </trkpt>
      <trkpt lat="45.55634" lon="5.7436">
        <ele>541</ele>
        <time>2019-10-27T09:37:54.000Z</time>
      </trkpt>
      <trkpt lat="45.55634" lon="5.7436">
        <ele>541</ele>
        <time>2019-10-27T09:37:55.000Z</time>
      </trkpt>
      <trkpt lat="45.55634" lon="5.7436">
        <ele>541</ele>
        <time>2019-10-27T09:37:56.000Z</time>
      </trkpt>
      <trkpt lat="45.55634" lon="5.7436">
        <ele>541</ele>
        <time>2019-10-27T09:37:57.000Z</time>
      </trkpt>
      <trkpt lat="45.55634" lon="5.7436">
        <ele>541</ele>
        <time>2019-10-27T09:37:58.000Z</time>
      </trkpt>
      <trkpt lat="45.55634" lon="5.7436">
        <ele>541</ele>
        <time>2019-10-27T09:37:59.000Z</time>
      </trkpt>
      <trkpt lat="45.55634" lon="5.7436">
        <ele>541</ele>
        <time>2019-10-27T09:38:00.000Z</time>
      </trkpt>
      <trkpt lat="45.55635" lon="5.7436">
        <ele>541</ele>
        <time>2019-10-27T09:38:01.000Z</time>
      </trkpt>
      <trkpt lat="45.55635" lon="5.7436">
        <ele>541</ele>
        <time>2019-10-27T09:38:02.000Z</time>
      </trkpt>
      <trkpt lat="45.55636" lon="5.7436">
        <ele>541</ele>
        <time>2019-10-27T09:38:03.000Z</time>
      </trkpt>
      <trkpt lat="45.55637" lon="5.7436">
        <ele>541</ele>
        <time>2019-10-27T09:38:04.000Z</time>
      </trkpt>
      <trkpt lat="45.55638" lon="5.74361">
        <ele>540.7</ele>
        <time>2019-10-27T09:38:05.000Z</time>
      </trkpt>
      <trkpt lat="45.5564" lon="5.74361">
        <ele>540.3</ele>
        <time>2019-10-27T09:38:06.000Z</time>
      </trkpt>
      <trkpt lat="45.55641" lon="5.74362">
        <ele>540</ele>
        <time>2019-10-27T09:38:07.000Z</time>
      </trkpt>
      <trkpt lat="45.55643" lon="5.74362">
        <ele>540</ele>
        <time>2019-10-27T09:38:08.000Z</time>
      </trkpt>
      <trkpt lat="45.55644" lon="5.74363">
        <ele>540</ele>
        <time>2019-10-27T09:38:09.000Z</time>
      </trkpt>
      <trkpt lat="45.55645" lon="5.74363">
        <ele>540</ele>
        <time>2019-10-27T09:38:10.000Z</time>
      </trkpt>
      <trkpt lat="45.55646" lon="5.74364">
        <ele>540</ele>
        <time>2019-10-27T09:38:11.000Z</time>
      </trkpt>
      <trkpt lat="45.55647" lon="5.74364">
        <ele>540</ele>
        <time>2019-10-27T09:38:12.000Z</time>
      </trkpt>
      <trkpt lat="45.55648" lon="5.74365">
        <ele>540</ele>
        <time>2019-10-27T09:38:13.000Z</time>
      </trkpt>
      <trkpt lat="45.5565" lon="5.74365">
        <ele>540</ele>
        <time>2019-10-27T09:38:14.000Z</time>
      </trkpt>
      <trkpt lat="45.55651" lon="5.74366">
        <ele>540</ele>
        <time>2019-10-27T09:38:15.000Z</time>
      </trkpt>
      <trkpt lat="45.55652" lon="5.74367">
        <ele>540</ele>
        <time>2019-10-27T09:38:16.000Z</time>
      </trkpt>
      <trkpt lat="45.55653" lon="5.74367">
        <ele>540</ele>
        <time>2019-10-27T09:38:17.000Z</time>
      </trkpt>
      <trkpt lat="45.55654" lon="5.74368">
        <ele>540</ele>
        <time>2019-10-27T09:38:18.000Z</time>
      </trkpt>
      <trkpt lat="45.55655" lon="5.74368">
        <ele>540</ele>
        <time>2019-10-27T09:38:19.000Z</time>
      </trkpt>
      <trkpt lat="45.55656" lon="5.74369">
        <ele>540</ele>
        <time>2019-10-27T09:38:20.000Z</time>
      </trkpt>
      <trkpt lat="45.55658" lon="5.74369">
        <ele>540</ele>
        <time>2019-10-27T09:38:21.000Z</time>
      </trkpt>
      <trkpt lat="45.55659" lon="5.7437">
        <ele>540</ele>
        <time>2019-10-27T09:38:22.000Z</time>
      </trkpt>
      <trkpt lat="45.5566" lon="5.7437">
        <ele>540</ele>
        <time>2019-10-27T09:38:23.000Z</time>
      </trkpt>
      <trkpt lat="45.55661" lon="5.74371">
        <ele>540</ele>
        <time>2019-10-27T09:38:24.000Z</time>
      </trkpt>
      <trkpt lat="45.55662" lon="5.74371">
        <ele>540</ele>
        <time>2019-10-27T09:38:25.000Z</time>
      </trkpt>
      <trkpt lat="45.55663" lon="5.74372">
        <ele>540</ele>
        <time>2019-10-27T09:38:26.000Z</time>
      </trkpt>
      <trkpt lat="45.55665" lon="5.74372">
        <ele>540</ele>
        <time>2019-10-27T09:38:27.000Z</time>
      </trkpt>
      <trkpt lat="45.55666" lon="5.74373">
        <ele>540</ele>
        <time>2019-10-27T09:38:28.000Z</time>
      </trkpt>
      <trkpt lat="45.55667" lon="5.74374">
        <ele>540</ele>
        <time>2019-10-27T09:38:29.000Z</time>
      </trkpt>
      <trkpt lat="45.55668" lon="5.74374">
        <ele>540</ele>
        <time>2019-10-27T09:38:30.000Z</time>
      </trkpt>
      <trkpt lat="45.5567" lon="5.74375">
        <ele>540</ele>
        <time>2019-10-27T09:38:31.000Z</time>
      </trkpt>
      <trkpt lat="45.55671" lon="5.74375">
        <ele>540</ele>
        <time>2019-10-27T09:38:32.000Z</time>
      </trkpt>
      <trkpt lat="45.55672" lon="5.74376">
        <ele>540</ele>
        <time>2019-10-27T09:38:33.000Z</time>
      </trkpt>
      <trkpt lat="45.55674" lon="5.74377">
        <ele>540</ele>
        <time>2019-10-27T09:38:34.000Z</time>
      </trkpt>
      <trkpt lat="45.55675" lon="5.74378">
        <ele>540</ele>
        <time>2019-10-27T09:38:35.000Z</time>
      </trkpt>
      <trkpt lat="45.55676" lon="5.74378">
        <ele>540</ele>
        <time>2019-10-27T09:38:36.000Z</time>
      </trkpt>
      <trkpt lat="45.55677" lon="5.74379">
        <ele>540</ele>
        <time>2019-10-27T09:38:37.000Z</time>
      </trkpt>
      <trkpt lat="45.55678" lon="5.74379">
        <ele>540</ele>
        <time>2019-10-27T09:38:38.000Z</time>
      </trkpt>
      <trkpt lat="45.55679" lon="5.7438">
        <ele>540</ele>
        <time>2019-10-27T09:38:39.000Z</time>
      </trkpt>
      <trkpt lat="45.55681" lon="5.74381">
        <ele>540</ele>
        <time>2019-10-27T09:38:40.000Z</time>
      </trkpt>
      <trkpt lat="45.55682" lon="5.74381">
        <ele>540</ele>
        <time>2019-10-27T09:38:41.000Z</time>
      </trkpt>
      <trkpt lat="45.55683" lon="5.74382">
        <ele>540</ele>
        <time>2019-10-27T09:38:42.000Z</time>
      </trkpt>
      <trkpt lat="45.55684" lon="5.74383">
        <ele>540</ele>
        <time>2019-10-27T09:38:43.000Z</time>
      </trkpt>
      <trkpt lat="45.55685" lon="5.74383">
        <ele>540</ele>
        <time>2019-10-27T09:38:44.000Z</time>
      </trkpt>
      <trkpt lat="45.55686" lon="5.74384">
        <ele>540</ele>
        <time>2019-10-27T09:38:45.000Z</time>
      </trkpt>
      <trkpt lat="45.55687" lon="5.74384">
        <ele>540</ele>
        <time>2019-10-27T09:38:46.000Z</time>
      </trkpt>
      <trkpt lat="45.55688" lon="5.74385">
        <ele>540</ele>
        <time>2019-10-27T09:38:47.000Z</time>
      </trkpt>
      <trkpt lat="45.55688" lon="5.74385">
        <ele>540</ele>
        <time>2019-10-27T09:38:48.000Z</time>
      </trkpt>
      <trkpt lat="45.55689" lon="5.74386">
        <ele>540</ele>
        <time>2019-10-27T09:38:49.000Z</time>
      </trkpt>
      <trkpt lat="45.5569" lon="5.74386">
        <ele>540</ele>
        <time>2019-10-27T09:38:50.000Z</time>
      </trkpt>
      <trkpt lat="45.55691" lon="5.74386">
        <ele>540</ele>
        <time>2019-10-27T09:38:51.000Z</time>
      </trkpt>
      <trkpt lat="45.55692" lon="5.74387">
        <ele>540</ele>
        <time>2019-10-27T09:38:52.000Z</time>
      </trkpt>
      <trkpt lat="45.55693" lon="5.74387">
        <ele>540</ele>
        <time>2019-10-27T09:38:53.000Z</time>
      </trkpt>
      <trkpt lat="45.55693" lon="5.74388">
        <ele>540</ele>
        <time>2019-10-27T09:38:54.000Z</time>
      </trkpt>
      <trkpt lat="45.55694" lon="5.74388">
        <ele>540</ele>
        <time>2019-10-27T09:38:55.000Z</time>
      </trkpt>
      <trkpt lat="45.55695" lon="5.74388">
        <ele>540</ele>
        <time>2019-10-27T09:38:56.000Z</time>
      </trkpt>
      <trkpt lat="45.55697" lon="5.74389">
        <ele>540</ele>
        <time>2019-10-27T09:38:57.000Z</time>
      </trkpt>
      <trkpt lat="45.55698" lon="5.74389">
        <ele>540</ele>
        <time>2019-10-27T09:38:58.000Z</time>
      </trkpt>
      <trkpt lat="45.55699" lon="5.7439">
        <ele>540</ele>
        <time>2019-10-27T09:38:59.000Z</time>
      </trkpt>
      <trkpt lat="45.557" lon="5.7439">
        <ele>540</ele>
        <time>2019-10-27T09:39:00.000Z</time>
      </trkpt>
      <trkpt lat="45.55701" lon="5.74391">
        <ele>540</ele>
        <time>2019-10-27T09:39:01.000Z</time>
      </trkpt>
      <trkpt lat="45.55702" lon="5.74391">
        <ele>540</ele>
        <time>2019-10-27T09:39:02.000Z</time>
      </trkpt>
      <trkpt lat="45.55703" lon="5.74392">
        <ele>540</ele>
        <time>2019-10-27T09:39:03.000Z</time>
      </trkpt>
      <trkpt lat="45.55704" lon="5.74392">
        <ele>540</ele>
        <time>2019-10-27T09:39:04.000Z</time>
      </trkpt>
      <trkpt lat="45.55705" lon="5.74392">
        <ele>540</ele>
        <time>2019-10-27T09:39:05.000Z</time>
      </trkpt>
      <trkpt lat="45.55706" lon="5.74393">
        <ele>540</ele>
        <time>2019-10-27T09:39:06.000Z</time>
      </trkpt>
      <trkpt lat="45.55707" lon="5.74393">
        <ele>540</ele>
        <time>2019-10-27T09:39:07.000Z</time>
      </trkpt>
      <trkpt lat="45.55708" lon="5.74393">
        <ele>540</ele>
        <time>2019-10-27T09:39:08.000Z</time>
      </trkpt>
      <trkpt lat="45.5571" lon="5.74394">
        <ele>540</ele>
        <time>2019-10-27T09:39:09.000Z</time>
      </trkpt>
      <trkpt lat="45.55711" lon="5.74394">
        <ele>540</ele>
        <time>2019-10-27T09:39:10.000Z</time>
      </trkpt>
      <trkpt lat="45.55712" lon="5.74395">
        <ele>540</ele>
        <time>2019-10-27T09:39:11.000Z</time>
      </trkpt>
      <trkpt lat="45.55713" lon="5.74395">
        <ele>540</ele>
        <time>2019-10-27T09:39:12.000Z</time>
      </trkpt>
      <trkpt lat="45.55714" lon="5.74396">
        <ele>540</ele>
        <time>2019-10-27T09:39:13.000Z</time>
      </trkpt>
      <trkpt lat="45.55715" lon="5.74397">
        <ele>540</ele>
        <time>2019-10-27T09:39:14.000Z</time>
      </trkpt>
      <trkpt lat="45.55716" lon="5.74397">
        <ele>540</ele>
        <time>2019-10-27T09:39:15.000Z</time>
      </trkpt>
      <trkpt lat="45.55717" lon="5.74398">
        <ele>540</ele>
        <time>2019-10-27T09:39:16.000Z</time>
      </trkpt>
      <trkpt lat="45.55718" lon="5.74398">
        <ele>540</ele>
        <time>2019-10-27T09:39:17.000Z</time>
      </trkpt>
      <trkpt lat="45.55719" lon="5.74399">
        <ele>540</ele>
        <time>2019-10-27T09:39:18.000Z</time>
      </trkpt>
      <trkpt lat="45.55719" lon="5.744">
        <ele>540</ele>
        <time>2019-10-27T09:39:19.000Z</time>
      </trkpt>
      <trkpt lat="45.5572" lon="5.74401">
        <ele>540</ele>
        <time>2019-10-27T09:39:20.000Z</time>
      </trkpt>
      <trkpt lat="45.55721" lon="5.74402">
        <ele>540</ele>
        <time>2019-10-27T09:39:21.000Z</time>
      </trkpt>
      <trkpt lat="45.55721" lon="5.74402">
        <ele>540</ele>
        <time>2019-10-27T09:39:22.000Z</time>
      </trkpt>
      <trkpt lat="45.55721" lon="5.74403">
        <ele>540</ele>
        <time>2019-10-27T09:39:23.000Z</time>
      </trkpt>
      <trkpt lat="45.55721" lon="5.74403">
        <ele>540</ele>
        <time>2019-10-27T09:39:24.000Z</time>
      </trkpt>
      <trkpt lat="45.55721" lon="5.74403">
        <ele>540</ele>
        <time>2019-10-27T09:39:25.000Z</time>
      </trkpt>
      <trkpt lat="45.55721" lon="5.74403">
        <ele>540</ele>
        <time>2019-10-27T09:39:26.000Z</time>
      </trkpt>
      <trkpt lat="45.55721" lon="5.74403">
        <ele>540</ele>
        <time>2019-10-27T09:39:27.000Z</time>
      </trkpt>
      <trkpt lat="45.55721" lon="5.74403">
        <ele>540</ele>
        <time>2019-10-27T09:39:28.000Z</time>
      </trkpt>
      <trkpt lat="45.55721" lon="5.74403">
        <ele>540</ele>
        <time>2019-10-27T09:39:29.000Z</time>
      </trkpt>
      <trkpt lat="45.55721" lon="5.74403">
        <ele>540</ele>
        <time>2019-10-27T09:39:30.000Z</time>
      </trkpt>
      <trkpt lat="45.55721" lon="5.74403">
        <ele>540</ele>
        <time>2019-10-27T09:39:31.000Z</time>
      </trkpt>
      <trkpt lat="45.55721" lon="5.74403">
        <ele>540</ele>
        <time>2019-10-27T09:39:32.000Z</time>
      </trkpt>
      <trkpt lat="45.55722" lon="5.74403">
        <ele>540</ele>
        <time>2019-10-27T09:39:33.000Z</time>
      </trkpt>
      <trkpt lat="45.55722" lon="5.74403">
        <ele>540</ele>
        <time>2019-10-27T09:39:34.000Z</time>
      </trkpt>
      <trkpt lat="45.55722" lon="5.74404">
        <ele>540</ele>
        <time>2019-10-27T09:39:35.000Z</time>
      </trkpt>
      <trkpt lat="45.55722" lon="5.74404">
        <ele>540</ele>
        <time>2019-10-27T09:39:36.000Z</time>
      </trkpt>
      <trkpt lat="45.55722" lon="5.74404">
        <ele>540</ele>
        <time>2019-10-27T09:39:37.000Z</time>
      </trkpt>
      <trkpt lat="45.55722" lon="5.74404">
        <ele>540</ele>
        <time>2019-10-27T09:39:38.000Z</time>
      </trkpt>
      <trkpt lat="45.55722" lon="5.74404">
        <ele>540</ele>
        <time>2019-10-27T09:39:39.000Z</time>
      </trkpt>
      <trkpt lat="45.55722" lon="5.74404">
        <ele>540</ele>
        <time>2019-10-27T09:39:40.000Z</time>
      </trkpt>
      <trkpt lat="45.55722" lon="5.74404">
        <ele>540</ele>
        <time>2019-10-27T09:39:41.000Z</time>
      </trkpt>
      <trkpt lat="45.55722" lon="5.74404">
        <ele>540</ele>
        <time>2019-10-27T09:39:42.000Z</time>
      </trkpt>
      <trkpt lat="45.55722" lon="5.74404">
        <ele>540</ele>
        <time>2019-10-27T09:39:43.000Z</time>
      </trkpt>
      <trkpt lat="45.55722" lon="5.74404">
        <ele>540</ele>
        <time>2019-10-27T09:39:44.000Z</time>
      </trkpt>
      <trkpt lat="45.55722" lon="5.74404">
        <ele>540</ele>
        <time>2019-10-27T09:39:45.000Z</time>
      </trkpt>
      <trkpt lat="45.55722" lon="5.74404">
        <ele>540</ele>
        <time>2019-10-27T09:39:46.000Z</time>
      </trkpt>
      <trkpt lat="45.55722" lon="5.74404">
        <ele>540</ele>
        <time>2019-10-27T09:39:47.000Z</time>
      </trkpt>
      <trkpt lat="45.55722" lon="5.74404">
        <ele>540</ele>
        <time>2019-10-27T09:39:48.000Z</time>
      </trkpt>
      <trkpt lat="45.55722" lon="5.74404">
        <ele>540</ele>
        <time>2019-10-27T09:39:49.000Z</time>
      </trkpt>
      <trkpt lat="45.55722" lon="5.74404">
        <ele>540</ele>
        <time>2019-10-27T09:39:50.000Z</time>
      </trkpt>
      <trkpt lat="45.55722" lon="5.74404">
        <ele>540</ele>
        <time>2019-10-27T09:39:51.000Z</time>
      </trkpt>
      <trkpt lat="45.55722" lon="5.74404">
        <ele>540</ele>
        <time>2019-10-27T09:39:52.000Z</time>
      </trkpt>
      <trkpt lat="45.55722" lon="5.74404">
        <ele>540</ele>
        <time>2019-10-27T09:39:53.000Z</time>
      </trkpt>
      <trkpt lat="45.55722" lon="5.74404">
        <ele>540</ele>
        <time>2019-10-27T09:39:54.000Z</time>
      </trkpt>
      <trkpt lat="45.55722" lon="5.74404">
        <ele>540</ele>
        <time>2019-10-27T09:39:55.000Z</time>
      </trkpt>
      <trkpt lat="45.55722" lon="5.74404">
        <ele>540</ele>
        <time>2019-10-27T09:39:56.000Z</time>
      </trkpt>
      <trkpt lat="45.55722" lon="5.74404">
        <ele>540</ele>
        <time>2019-10-27T09:39:57.000Z</time>
      </trkpt>
      <trkpt lat="45.55722" lon="5.74404">
        <ele>540</ele>
        <time>2019-10-27T09:39:58.000Z</time>
      </trkpt>
      <trkpt lat="45.55722" lon="5.74404">
        <ele>540</ele>
        <time>2019-10-27T09:39:59.000Z</time>
      </trkpt>
      <trkpt lat="45.55722" lon="5.74404">
        <ele>540</ele>
        <time>2019-10-27T09:40:00.000Z</time>
      </trkpt>
      <trkpt lat="45.55722" lon="5.74404">
        <ele>540</ele>
        <time>2019-10-27T09:40:01.000Z</time>
      </trkpt>
      <trkpt lat="45.55722" lon="5.74404">
        <ele>540</ele>
        <time>2019-10-27T09:40:02.000Z</time>
      </trkpt>
      <trkpt lat="45.55722" lon="5.74404">
        <ele>540</ele>
        <time>2019-10-27T09:40:03.000Z</time>
      </trkpt>
      <trkpt lat="45.55722" lon="5.74404">
        <ele>540</ele>
        <time>2019-10-27T09:40:04.000Z</time>
      </trkpt>
      <trkpt lat="45.55722" lon="5.74404">
        <ele>540</ele>
        <time>2019-10-27T09:40:05.000Z</time>
      </trkpt>
      <trkpt lat="45.55722" lon="5.74404">
        <ele>540</ele>
        <time>2019-10-27T09:40:06.000Z</time>
      </trkpt>
      <trkpt lat="45.55722" lon="5.74404">
        <ele>540</ele>
        <time>2019-10-27T09:40:07.000Z</time>
      </trkpt>
      <trkpt lat="45.55722" lon="5.74404">
        <ele>540</ele>
        <time>2019-10-27T09:40:08.000Z</time>
      </trkpt>
      <trkpt lat="45.55722" lon="5.74404">
        <ele>540</ele>
        <time>2019-10-27T09:40:09.000Z</time>
      </trkpt>
      <trkpt lat="45.55722" lon="5.74404">
        <ele>540</ele>
        <time>2019-10-27T09:40:10.000Z</time>
      </trkpt>
      <trkpt lat="45.55722" lon="5.74404">
        <ele>540</ele>
        <time>2019-10-27T09:40:11.000Z</time>
      </trkpt>
      <trkpt lat="45.55722" lon="5.74404">
        <ele>540</ele>
        <time>2019-10-27T09:40:12.000Z</time>
      </trkpt>
      <trkpt lat="45.55722" lon="5.74404">
        <ele>540</ele>
        <time>2019-10-27T09:40:13.000Z</time>
      </trkpt>
      <trkpt lat="45.55722" lon="5.74404">
        <ele>540</ele>
        <time>2019-10-27T09:40:14.000Z</time>
      </trkpt>
      <trkpt lat="45.55722" lon="5.74404">
        <ele>540</ele>
        <time>2019-10-27T09:40:15.000Z</time>
      </trkpt>
      <trkpt lat="45.55722" lon="5.74404">
        <ele>540</ele>
        <time>2019-10-27T09:40:16.000Z</time>
      </trkpt>
      <trkpt lat="45.55722" lon="5.74404">
        <ele>540</ele>
        <time>2019-10-27T09:40:17.000Z</time>
      </trkpt>
      <trkpt lat="45.55722" lon="5.74404">
        <ele>540</ele>
        <time>2019-10-27T09:40:18.000Z</time>
      </trkpt>
      <trkpt lat="45.55722" lon="5.74404">
        <ele>540</ele>
        <time>2019-10-27T09:40:19.000Z</time>
      </trkpt>
      <trkpt lat="45.55722" lon="5.74404">
        <ele>540</ele>
        <time>2019-10-27T09:40:20.000Z</time>
      </trkpt>
      <trkpt lat="45.55722" lon="5.74404">
        <ele>540</ele>
        <time>2019-10-27T09:40:21.000Z</time>
      </trkpt>
      <trkpt lat="45.55722" lon="5.74404">
        <ele>540</ele>
        <time>2019-10-27T09:40:22.000Z</time>
      </trkpt>
      <trkpt lat="45.55722" lon="5.74404">
        <ele>540</ele>
        <time>2019-10-27T09:40:23.000Z</time>
      </trkpt>
      <trkpt lat="45.55722" lon="5.74404">
        <ele>540</ele>
        <time>2019-10-27T09:40:24.000Z</time>
      </trkpt>
      <trkpt lat="45.55722" lon="5.74404">
        <ele>540</ele>
        <time>2019-10-27T09:40:25.000Z</time>
      </trkpt>
      <trkpt lat="45.55722" lon="5.74404">
        <ele>540</ele>
        <time>2019-10-27T09:40:26.000Z</time>
      </trkpt>
      <trkpt lat="45.55722" lon="5.74404">
        <ele>540</ele>
        <time>2019-10-27T09:40:27.000Z</time>
      </trkpt>
      <trkpt lat="45.55722" lon="5.74404">
        <ele>540</ele>
        <time>2019-10-27T09:40:28.000Z</time>
      </trkpt>
      <trkpt lat="45.55722" lon="5.74404">
        <ele>540</ele>
        <time>2019-10-27T09:40:29.000Z</time>
      </trkpt>
      <trkpt lat="45.55722" lon="5.74404">
        <ele>540</ele>
        <time>2019-10-27T09:40:30.000Z</time>
      </trkpt>
      <trkpt lat="45.55722" lon="5.74404">
        <ele>540</ele>
        <time>2019-10-27T09:40:31.000Z</time>
      </trkpt>
      <trkpt lat="45.55722" lon="5.74404">
        <ele>540</ele>
        <time>2019-10-27T09:40:32.000Z</time>
      </trkpt>
      <trkpt lat="45.55722" lon="5.74404">
        <ele>540</ele>
        <time>2019-10-27T09:40:33.000Z</time>
      </trkpt>
      <trkpt lat="45.55722" lon="5.74404">
        <ele>540</ele>
        <time>2019-10-27T09:40:34.000Z</time>
      </trkpt>
      <trkpt lat="45.55722" lon="5.74404">
        <ele>540</ele>
        <time>2019-10-27T09:40:35.000Z</time>
      </trkpt>
      <trkpt lat="45.55722" lon="5.74404">
        <ele>540</ele>
        <time>2019-10-27T09:40:36.000Z</time>
      </trkpt>
      <trkpt lat="45.55722" lon="5.74404">
        <ele>540</ele>
        <time>2019-10-27T09:40:37.000Z</time>
      </trkpt>
      <trkpt lat="45.55722" lon="5.74404">
        <ele>540</ele>
        <time>2019-10-27T09:40:38.000Z</time>
      </trkpt>
      <trkpt lat="45.55722" lon="5.74404">
        <ele>540</ele>
        <time>2019-10-27T09:40:39.000Z</time>
      </trkpt>
      <trkpt lat="45.55722" lon="5.74404">
        <ele>540</ele>
        <time>2019-10-27T09:40:40.000Z</time>
      </trkpt>
      <trkpt lat="45.55722" lon="5.74404">
        <ele>540</ele>
        <time>2019-10-27T09:40:41.000Z</time>
      </trkpt>
      <trkpt lat="45.55722" lon="5.74404">
        <ele>540</ele>
        <time>2019-10-27T09:40:42.000Z</time>
      </trkpt>
      <trkpt lat="45.55722" lon="5.74404">
        <ele>540</ele>
        <time>2019-10-27T09:40:43.000Z</time>
      </trkpt>
      <trkpt lat="45.55722" lon="5.74404">
        <ele>540</ele>
        <time>2019-10-27T09:40:44.000Z</time>
      </trkpt>
      <trkpt lat="45.55722" lon="5.74404">
        <ele>540</ele>
        <time>2019-10-27T09:40:45.000Z</time>
      </trkpt>
      <trkpt lat="45.55722" lon="5.74404">
        <ele>540</ele>
        <time>2019-10-27T09:40:46.000Z</time>
      </trkpt>
      <trkpt lat="45.55722" lon="5.74404">
        <ele>540</ele>
        <time>2019-10-27T09:40:47.000Z</time>
      </trkpt>
      <trkpt lat="45.55722" lon="5.74404">
        <ele>540</ele>
        <time>2019-10-27T09:40:48.000Z</time>
      </trkpt>
      <trkpt lat="45.55722" lon="5.74404">
        <ele>540</ele>
        <time>2019-10-27T09:40:49.000Z</time>
      </trkpt>
      <trkpt lat="45.55722" lon="5.74404">
        <ele>540</ele>
        <time>2019-10-27T09:40:50.000Z</time>
      </trkpt>
      <trkpt lat="45.55722" lon="5.74404">
        <ele>540</ele>
        <time>2019-10-27T09:40:51.000Z</time>
      </trkpt>
      <trkpt lat="45.55722" lon="5.74404">
        <ele>540</ele>
        <time>2019-10-27T09:40:52.000Z</time>
      </trkpt>
      <trkpt lat="45.55722" lon="5.74404">
        <ele>540</ele>
        <time>2019-10-27T09:40:53.000Z</time>
      </trkpt>
      <trkpt lat="45.55722" lon="5.74404">
        <ele>540</ele>
        <time>2019-10-27T09:40:54.000Z</time>
      </trkpt>
      <trkpt lat="45.55722" lon="5.74404">
        <ele>540</ele>
        <time>2019-10-27T09:40:55.000Z</time>
      </trkpt>
      <trkpt lat="45.55722" lon="5.74404">
        <ele>540</ele>
        <time>2019-10-27T09:40:56.000Z</time>
      </trkpt>
      <trkpt lat="45.55722" lon="5.74404">
        <ele>540</ele>
        <time>2019-10-27T09:40:57.000Z</time>
      </trkpt>
      <trkpt lat="45.55722" lon="5.74404">
        <ele>540</ele>
        <time>2019-10-27T09:40:58.000Z</time>
      </trkpt>
      <trkpt lat="45.55722" lon="5.74404">
        <ele>540</ele>
        <time>2019-10-27T09:40:59.000Z</time>
      </trkpt>
      <trkpt lat="45.55722" lon="5.74404">
        <ele>540</ele>
        <time>2019-10-27T09:41:00.000Z</time>
      </trkpt>
      <trkpt lat="45.55722" lon="5.74404">
        <ele>540</ele>
        <time>2019-10-27T09:41:01.000Z</time>
      </trkpt>
      <trkpt lat="45.55722" lon="5.74404">
        <ele>540</ele>
        <time>2019-10-27T09:41:02.000Z</time>
      </trkpt>
      <trkpt lat="45.55722" lon="5.74404">
        <ele>540</ele>
        <time>2019-10-27T09:41:03.000Z</time>
      </trkpt>
      <trkpt lat="45.55722" lon="5.74404">
        <ele>540</ele>
        <time>2019-10-27T09:41:04.000Z</time>
      </trkpt>
      <trkpt lat="45.55722" lon="5.74404">
        <ele>540</ele>
        <time>2019-10-27T09:41:05.000Z</time>
      </trkpt>
      <trkpt lat="45.55722" lon="5.74404">
        <ele>540</ele>
        <time>2019-10-27T09:41:06.000Z</time>
      </trkpt>
      <trkpt lat="45.55722" lon="5.74404">
        <ele>540</ele>
        <time>2019-10-27T09:41:07.000Z</time>
      </trkpt>
      <trkpt lat="45.55722" lon="5.74404">
        <ele>540</ele>
        <time>2019-10-27T09:41:08.000Z</time>
      </trkpt>
      <trkpt lat="45.55722" lon="5.74404">
        <ele>540</ele>
        <time>2019-10-27T09:41:09.000Z</time>
      </trkpt>
      <trkpt lat="45.55722" lon="5.74404">
        <ele>540</ele>
        <time>2019-10-27T09:41:10.000Z</time>
      </trkpt>
      <trkpt lat="45.55722" lon="5.74404">
        <ele>540</ele>
        <time>2019-10-27T09:41:11.000Z</time>
      </trkpt>
      <trkpt lat="45.55722" lon="5.74404">
        <ele>540</ele>
        <time>2019-10-27T09:41:12.000Z</time>
      </trkpt>
      <trkpt lat="45.55722" lon="5.74404">
        <ele>540</ele>
        <time>2019-10-27T09:41:13.000Z</time>
      </trkpt>
      <trkpt lat="45.55722" lon="5.74404">
        <ele>540</ele>
        <time>2019-10-27T09:41:14.000Z</time>
      </trkpt>
      <trkpt lat="45.55722" lon="5.74404">
        <ele>540</ele>
        <time>2019-10-27T09:41:15.000Z</time>
      </trkpt>
      <trkpt lat="45.55722" lon="5.74404">
        <ele>540</ele>
        <time>2019-10-27T09:41:16.000Z</time>
      </trkpt>
      <trkpt lat="45.55722" lon="5.74404">
        <ele>540</ele>
        <time>2019-10-27T09:41:17.000Z</time>
      </trkpt>
      <trkpt lat="45.55722" lon="5.74404">
        <ele>540</ele>
        <time>2019-10-27T09:41:18.000Z</time>
      </trkpt>
      <trkpt lat="45.55722" lon="5.74404">
        <ele>540</ele>
        <time>2019-10-27T09:41:19.000Z</time>
      </trkpt>
      <trkpt lat="45.55722" lon="5.74404">
        <ele>540</ele>
        <time>2019-10-27T09:41:20.000Z</time>
      </trkpt>
      <trkpt lat="45.55722" lon="5.74404">
        <ele>540</ele>
        <time>2019-10-27T09:41:21.000Z</time>
      </trkpt>
      <trkpt lat="45.55722" lon="5.74404">
        <ele>540</ele>
        <time>2019-10-27T09:41:22.000Z</time>
      </trkpt>
      <trkpt lat="45.55722" lon="5.74404">
        <ele>540</ele>
        <time>2019-10-27T09:41:23.000Z</time>
      </trkpt>
      <trkpt lat="45.55722" lon="5.74404">
        <ele>540</ele>
        <time>2019-10-27T09:41:24.000Z</time>
      </trkpt>
      <trkpt lat="45.55722" lon="5.74404">
        <ele>540</ele>
        <time>2019-10-27T09:41:25.000Z</time>
      </trkpt>
      <trkpt lat="45.55722" lon="5.74404">
        <ele>540</ele>
        <time>2019-10-27T09:41:26.000Z</time>
      </trkpt>
      <trkpt lat="45.55722" lon="5.74404">
        <ele>540</ele>
        <time>2019-10-27T09:41:27.000Z</time>
      </trkpt>
      <trkpt lat="45.55722" lon="5.74404">
        <ele>540</ele>
        <time>2019-10-27T09:41:28.000Z</time>
      </trkpt>
      <trkpt lat="45.55722" lon="5.74404">
        <ele>540</ele>
        <time>2019-10-27T09:41:29.000Z</time>
      </trkpt>
      <trkpt lat="45.55722" lon="5.74404">
        <ele>540</ele>
        <time>2019-10-27T09:41:30.000Z</time>
      </trkpt>
      <trkpt lat="45.55722" lon="5.74404">
        <ele>540</ele>
        <time>2019-10-27T09:41:31.000Z</time>
      </trkpt>
      <trkpt lat="45.55722" lon="5.74404">
        <ele>540</ele>
        <time>2019-10-27T09:41:32.000Z</time>
      </trkpt>
      <trkpt lat="45.55722" lon="5.74404">
        <ele>540</ele>
        <time>2019-10-27T09:41:33.000Z</time>
      </trkpt>
      <trkpt lat="45.55722" lon="5.74404">
        <ele>540</ele>
        <time>2019-10-27T09:41:34.000Z</time>
      </trkpt>
      <trkpt lat="45.55722" lon="5.74404">
        <ele>540</ele>
        <time>2019-10-27T09:41:35.000Z</time>
      </trkpt>
      <trkpt lat="45.55722" lon="5.74404">
        <ele>540</ele>
        <time>2019-10-27T09:41:36.000Z</time>
      </trkpt>
      <trkpt lat="45.55722" lon="5.74404">
        <ele>540</ele>
        <time>2019-10-27T09:41:37.000Z</time>
      </trkpt>
      <trkpt lat="45.55722" lon="5.74404">
        <ele>540</ele>
        <time>2019-10-27T09:41:38.000Z</time>
      </trkpt>
      <trkpt lat="45.55722" lon="5.74404">
        <ele>540</ele>
        <time>2019-10-27T09:41:39.000Z</time>
      </trkpt>
      <trkpt lat="45.55722" lon="5.74404">
        <ele>540</ele>
        <time>2019-10-27T09:41:40.000Z</time>
      </trkpt>
      <trkpt lat="45.55722" lon="5.74404">
        <ele>540</ele>
        <time>2019-10-27T09:41:41.000Z</time>
      </trkpt>
      <trkpt lat="45.55722" lon="5.74404">
        <ele>540</ele>
        <time>2019-10-27T09:41:42.000Z</time>
      </trkpt>
      <trkpt lat="45.55722" lon="5.74404">
        <ele>540</ele>
        <time>2019-10-27T09:41:43.000Z</time>
      </trkpt>
      <trkpt lat="45.55722" lon="5.74404">
        <ele>540</ele>
        <time>2019-10-27T09:41:44.000Z</time>
      </trkpt>
      <trkpt lat="45.55722" lon="5.74404">
        <ele>540</ele>
        <time>2019-10-27T09:41:45.000Z</time>
      </trkpt>
      <trkpt lat="45.55722" lon="5.74404">
        <ele>540</ele>
        <time>2019-10-27T09:41:46.000Z</time>
      </trkpt>
      <trkpt lat="45.55722" lon="5.74404">
        <ele>540</ele>
        <time>2019-10-27T09:41:47.000Z</time>
      </trkpt>
      <trkpt lat="45.55722" lon="5.74404">
        <ele>540</ele>
        <time>2019-10-27T09:41:48.000Z</time>
      </trkpt>
      <trkpt lat="45.55722" lon="5.74404">
        <ele>540</ele>
        <time>2019-10-27T09:41:49.000Z</time>
      </trkpt>
      <trkpt lat="45.55722" lon="5.74404">
        <ele>540</ele>
        <time>2019-10-27T09:41:50.000Z</time>
      </trkpt>
      <trkpt lat="45.55722" lon="5.74404">
        <ele>540</ele>
        <time>2019-10-27T09:41:51.000Z</time>
      </trkpt>
      <trkpt lat="45.55722" lon="5.74405">
        <ele>540</ele>
        <time>2019-10-27T09:41:52.000Z</time>
      </trkpt>
      <trkpt lat="45.55722" lon="5.74405">
        <ele>540</ele>
        <time>2019-10-27T09:41:53.000Z</time>
      </trkpt>
      <trkpt lat="45.55722" lon="5.74405">
        <ele>540</ele>
        <time>2019-10-27T09:41:54.000Z</time>
      </trkpt>
      <trkpt lat="45.55722" lon="5.74405">
        <ele>540</ele>
        <time>2019-10-27T09:41:55.000Z</time>
      </trkpt>
      <trkpt lat="45.55722" lon="5.74405">
        <ele>540</ele>
        <time>2019-10-27T09:41:56.000Z</time>
      </trkpt>
      <trkpt lat="45.55722" lon="5.74405">
        <ele>540</ele>
        <time>2019-10-27T09:41:57.000Z</time>
      </trkpt>
      <trkpt lat="45.55722" lon="5.74405">
        <ele>540</ele>
        <time>2019-10-27T09:41:58.000Z</time>
      </trkpt>
      <trkpt lat="45.55722" lon="5.74405">
        <ele>540</ele>
        <time>2019-10-27T09:41:59.000Z</time>
      </trkpt>
      <trkpt lat="45.55722" lon="5.74405">
        <ele>540</ele>
        <time>2019-10-27T09:42:00.000Z</time>
      </trkpt>
      <trkpt lat="45.55722" lon="5.74405">
        <ele>540</ele>
        <time>2019-10-27T09:42:01.000Z</time>
      </trkpt>
      <trkpt lat="45.55722" lon="5.74405">
        <ele>540</ele>
        <time>2019-10-27T09:42:02.000Z</time>
      </trkpt>
      <trkpt lat="45.55723" lon="5.74405">
        <ele>540</ele>
        <time>2019-10-27T09:42:03.000Z</time>
      </trkpt>
      <trkpt lat="45.55723" lon="5.74405">
        <ele>540</ele>
        <time>2019-10-27T09:42:04.000Z</time>
      </trkpt>
      <trkpt lat="45.55723" lon="5.74405">
        <ele>540</ele>
        <time>2019-10-27T09:42:05.000Z</time>
      </trkpt>
      <trkpt lat="45.55723" lon="5.74405">
        <ele>540</ele>
        <time>2019-10-27T09:42:06.000Z</time>
      </trkpt>
      <trkpt lat="45.55723" lon="5.74405">
        <ele>540</ele>
        <time>2019-10-27T09:42:07.000Z</time>
      </trkpt>
      <trkpt lat="45.55723" lon="5.74405">
        <ele>540</ele>
        <time>2019-10-27T09:42:08.000Z</time>
      </trkpt>
      <trkpt lat="45.55723" lon="5.74405">
        <ele>540</ele>
        <time>2019-10-27T09:42:09.000Z</time>
      </trkpt>
      <trkpt lat="45.55724" lon="5.74405">
        <ele>540</ele>
        <time>2019-10-27T09:42:10.000Z</time>
      </trkpt>
      <trkpt lat="45.55724" lon="5.74405">
        <ele>540</ele>
        <time>2019-10-27T09:42:11.000Z</time>
      </trkpt>
      <trkpt lat="45.55724" lon="5.74405">
        <ele>540</ele>
        <time>2019-10-27T09:42:12.000Z</time>
      </trkpt>
      <trkpt lat="45.55724" lon="5.74405">
        <ele>540</ele>
        <time>2019-10-27T09:42:13.000Z</time>
      </trkpt>
      <trkpt lat="45.55724" lon="5.74405">
        <ele>540</ele>
        <time>2019-10-27T09:42:14.000Z</time>
      </trkpt>
      <trkpt lat="45.55724" lon="5.74405">
        <ele>540</ele>
        <time>2019-10-27T09:42:15.000Z</time>
      </trkpt>
      <trkpt lat="45.55724" lon="5.74405">
        <ele>540</ele>
        <time>2019-10-27T09:42:16.000Z</time>
      </trkpt>
      <trkpt lat="45.55724" lon="5.74405">
        <ele>540</ele>
        <time>2019-10-27T09:42:17.000Z</time>
      </trkpt>
      <trkpt lat="45.55724" lon="5.74405">
        <ele>540</ele>
        <time>2019-10-27T09:42:18.000Z</time>
      </trkpt>
      <trkpt lat="45.55724" lon="5.74405">
        <ele>540</ele>
        <time>2019-10-27T09:42:19.000Z</time>
      </trkpt>
      <trkpt lat="45.55724" lon="5.74405">
        <ele>540</ele>
        <time>2019-10-27T09:42:20.000Z</time>
      </trkpt>
      <trkpt lat="45.55724" lon="5.74405">
        <ele>540</ele>
        <time>2019-10-27T09:42:21.000Z</time>
      </trkpt>
      <trkpt lat="45.55724" lon="5.74405">
        <ele>540</ele>
        <time>2019-10-27T09:42:22.000Z</time>
      </trkpt>
      <trkpt lat="45.55724" lon="5.74405">
        <ele>540</ele>
        <time>2019-10-27T09:42:23.000Z</time>
      </trkpt>
      <trkpt lat="45.55725" lon="5.74405">
        <ele>540</ele>
        <time>2019-10-27T09:42:24.000Z</time>
      </trkpt>
      <trkpt lat="45.55725" lon="5.74405">
        <ele>540</ele>
        <time>2019-10-27T09:42:25.000Z</time>
      </trkpt>
      <trkpt lat="45.55725" lon="5.74405">
        <ele>540</ele>
        <time>2019-10-27T09:42:26.000Z</time>
      </trkpt>
      <trkpt lat="45.55725" lon="5.74404">
        <ele>540</ele>
        <time>2019-10-27T09:42:27.000Z</time>
      </trkpt>
      <trkpt lat="45.55725" lon="5.74404">
        <ele>540</ele>
        <time>2019-10-27T09:42:28.000Z</time>
      </trkpt>
      <trkpt lat="45.55726" lon="5.74404">
        <ele>540</ele>
        <time>2019-10-27T09:42:29.000Z</time>
      </trkpt>
      <trkpt lat="45.55726" lon="5.74404">
        <ele>540</ele>
        <time>2019-10-27T09:42:30.000Z</time>
      </trkpt>
      <trkpt lat="45.55726" lon="5.74403">
        <ele>540</ele>
        <time>2019-10-27T09:42:31.000Z</time>
      </trkpt>
      <trkpt lat="45.55727" lon="5.74403">
        <ele>540</ele>
        <time>2019-10-27T09:42:32.000Z</time>
      </trkpt>
      <trkpt lat="45.55727" lon="5.74403">
        <ele>540</ele>
        <time>2019-10-27T09:42:33.000Z</time>
      </trkpt>
      <trkpt lat="45.55727" lon="5.74403">
        <ele>540</ele>
        <time>2019-10-27T09:42:34.000Z</time>
      </trkpt>
      <trkpt lat="45.55727" lon="5.74403">
        <ele>540</ele>
        <time>2019-10-27T09:42:35.000Z</time>
      </trkpt>
      <trkpt lat="45.55727" lon="5.74403">
        <ele>540</ele>
        <time>2019-10-27T09:42:36.000Z</time>
      </trkpt>
      <trkpt lat="45.55727" lon="5.74403">
        <ele>540</ele>
        <time>2019-10-27T09:42:37.000Z</time>
      </trkpt>
      <trkpt lat="45.55727" lon="5.74403">
        <ele>540</ele>
        <time>2019-10-27T09:42:38.000Z</time>
      </trkpt>
      <trkpt lat="45.55727" lon="5.74403">
        <ele>540</ele>
        <time>2019-10-27T09:42:39.000Z</time>
      </trkpt>
      <trkpt lat="45.55727" lon="5.74403">
        <ele>540</ele>
        <time>2019-10-27T09:42:40.000Z</time>
      </trkpt>
      <trkpt lat="45.55728" lon="5.74402">
        <ele>540</ele>
        <time>2019-10-27T09:42:41.000Z</time>
      </trkpt>
      <trkpt lat="45.55728" lon="5.74402">
        <ele>540</ele>
        <time>2019-10-27T09:42:42.000Z</time>
      </trkpt>
      <trkpt lat="45.55728" lon="5.74402">
        <ele>540</ele>
        <time>2019-10-27T09:42:43.000Z</time>
      </trkpt>
      <trkpt lat="45.55728" lon="5.74402">
        <ele>540</ele>
        <time>2019-10-27T09:42:44.000Z</time>
      </trkpt>
      <trkpt lat="45.55729" lon="5.74402">
        <ele>540</ele>
        <time>2019-10-27T09:42:45.000Z</time>
      </trkpt>
      <trkpt lat="45.55729" lon="5.74402">
        <ele>540</ele>
        <time>2019-10-27T09:42:46.000Z</time>
      </trkpt>
      <trkpt lat="45.5573" lon="5.74402">
        <ele>540</ele>
        <time>2019-10-27T09:42:47.000Z</time>
      </trkpt>
      <trkpt lat="45.55731" lon="5.74402">
        <ele>540</ele>
        <time>2019-10-27T09:42:48.000Z</time>
      </trkpt>
      <trkpt lat="45.55732" lon="5.74403">
        <ele>539.7</ele>
        <time>2019-10-27T09:42:49.000Z</time>
      </trkpt>
      <trkpt lat="45.55733" lon="5.74403">
        <ele>539.3</ele>
        <time>2019-10-27T09:42:50.000Z</time>
      </trkpt>
      <trkpt lat="45.55734" lon="5.74403">
        <ele>539</ele>
        <time>2019-10-27T09:42:51.000Z</time>
      </trkpt>
      <trkpt lat="45.55735" lon="5.74404">
        <ele>539</ele>
        <time>2019-10-27T09:42:52.000Z</time>
      </trkpt>
      <trkpt lat="45.55736" lon="5.74404">
        <ele>539</ele>
        <time>2019-10-27T09:42:53.000Z</time>
      </trkpt>
      <trkpt lat="45.55737" lon="5.74404">
        <ele>539</ele>
        <time>2019-10-27T09:42:54.000Z</time>
      </trkpt>
      <trkpt lat="45.55738" lon="5.74405">
        <ele>539</ele>
        <time>2019-10-27T09:42:55.000Z</time>
      </trkpt>
      <trkpt lat="45.55739" lon="5.74405">
        <ele>539</ele>
        <time>2019-10-27T09:42:56.000Z</time>
      </trkpt>
      <trkpt lat="45.55741" lon="5.74405">
        <ele>539</ele>
        <time>2019-10-27T09:42:57.000Z</time>
      </trkpt>
      <trkpt lat="45.55742" lon="5.74405">
        <ele>539</ele>
        <time>2019-10-27T09:42:58.000Z</time>
      </trkpt>
      <trkpt lat="45.55743" lon="5.74406">
        <ele>539</ele>
        <time>2019-10-27T09:42:59.000Z</time>
      </trkpt>
      <trkpt lat="45.55744" lon="5.74406">
        <ele>539</ele>
        <time>2019-10-27T09:43:00.000Z</time>
      </trkpt>
      <trkpt lat="45.55745" lon="5.74406">
        <ele>539</ele>
        <time>2019-10-27T09:43:01.000Z</time>
      </trkpt>
      <trkpt lat="45.55746" lon="5.74407">
        <ele>538</ele>
        <time>2019-10-27T09:43:02.000Z</time>
      </trkpt>
      <trkpt lat="45.55748" lon="5.74407">
        <ele>538</ele>
        <time>2019-10-27T09:43:03.000Z</time>
      </trkpt>
      <trkpt lat="45.55749" lon="5.74407">
        <ele>538</ele>
        <time>2019-10-27T09:43:04.000Z</time>
      </trkpt>
      <trkpt lat="45.5575" lon="5.74407">
        <ele>538</ele>
        <time>2019-10-27T09:43:05.000Z</time>
      </trkpt>
      <trkpt lat="45.55751" lon="5.74407">
        <ele>538</ele>
        <time>2019-10-27T09:43:06.000Z</time>
      </trkpt>
      <trkpt lat="45.55752" lon="5.74407">
        <ele>538</ele>
        <time>2019-10-27T09:43:07.000Z</time>
      </trkpt>
      <trkpt lat="45.55754" lon="5.74407">
        <ele>538</ele>
        <time>2019-10-27T09:43:08.000Z</time>
      </trkpt>
      <trkpt lat="45.55755" lon="5.74407">
        <ele>538</ele>
        <time>2019-10-27T09:43:09.000Z</time>
      </trkpt>
      <trkpt lat="45.55756" lon="5.74407">
        <ele>538</ele>
        <time>2019-10-27T09:43:10.000Z</time>
      </trkpt>
      <trkpt lat="45.55758" lon="5.74407">
        <ele>538</ele>
        <time>2019-10-27T09:43:11.000Z</time>
      </trkpt>
      <trkpt lat="45.55759" lon="5.74407">
        <ele>538</ele>
        <time>2019-10-27T09:43:12.000Z</time>
      </trkpt>
      <trkpt lat="45.5576" lon="5.74408">
        <ele>538</ele>
        <time>2019-10-27T09:43:13.000Z</time>
      </trkpt>
      <trkpt lat="45.55761" lon="5.74408">
        <ele>537</ele>
        <time>2019-10-27T09:43:14.000Z</time>
      </trkpt>
      <trkpt lat="45.55762" lon="5.74408">
        <ele>537</ele>
        <time>2019-10-27T09:43:15.000Z</time>
      </trkpt>
      <trkpt lat="45.55764" lon="5.74408">
        <ele>537</ele>
        <time>2019-10-27T09:43:16.000Z</time>
      </trkpt>
      <trkpt lat="45.55765" lon="5.74408">
        <ele>537</ele>
        <time>2019-10-27T09:43:17.000Z</time>
      </trkpt>
      <trkpt lat="45.55766" lon="5.74408">
        <ele>537</ele>
        <time>2019-10-27T09:43:18.000Z</time>
      </trkpt>
      <trkpt lat="45.55767" lon="5.74408">
        <ele>537</ele>
        <time>2019-10-27T09:43:19.000Z</time>
      </trkpt>
      <trkpt lat="45.55768" lon="5.74408">
        <ele>537</ele>
        <time>2019-10-27T09:43:20.000Z</time>
      </trkpt>
      <trkpt lat="45.55769" lon="5.74408">
        <ele>536.7</ele>
        <time>2019-10-27T09:43:21.000Z</time>
      </trkpt>
      <trkpt lat="45.5577" lon="5.74408">
        <ele>536.3</ele>
        <time>2019-10-27T09:43:22.000Z</time>
      </trkpt>
      <trkpt lat="45.55771" lon="5.74408">
        <ele>536</ele>
        <time>2019-10-27T09:43:23.000Z</time>
      </trkpt>
      <trkpt lat="45.55773" lon="5.74408">
        <ele>536</ele>
        <time>2019-10-27T09:43:24.000Z</time>
      </trkpt>
      <trkpt lat="45.55774" lon="5.74408">
        <ele>536</ele>
        <time>2019-10-27T09:43:25.000Z</time>
      </trkpt>
      <trkpt lat="45.55775" lon="5.74408">
        <ele>536</ele>
        <time>2019-10-27T09:43:26.000Z</time>
      </trkpt>
      <trkpt lat="45.55776" lon="5.74408">
        <ele>536</ele>
        <time>2019-10-27T09:43:27.000Z</time>
      </trkpt>
      <trkpt lat="45.55777" lon="5.74408">
        <ele>536</ele>
        <time>2019-10-27T09:43:28.000Z</time>
      </trkpt>
      <trkpt lat="45.55778" lon="5.74408">
        <ele>536</ele>
        <time>2019-10-27T09:43:29.000Z</time>
      </trkpt>
      <trkpt lat="45.55779" lon="5.74408">
        <ele>536</ele>
        <time>2019-10-27T09:43:30.000Z</time>
      </trkpt>
      <trkpt lat="45.5578" lon="5.74408">
        <ele>536</ele>
        <time>2019-10-27T09:43:31.000Z</time>
      </trkpt>
      <trkpt lat="45.55782" lon="5.74408">
        <ele>535</ele>
        <time>2019-10-27T09:43:32.000Z</time>
      </trkpt>
      <trkpt lat="45.55783" lon="5.74408">
        <ele>535</ele>
        <time>2019-10-27T09:43:33.000Z</time>
      </trkpt>
      <trkpt lat="45.55784" lon="5.74408">
        <ele>535</ele>
        <time>2019-10-27T09:43:34.000Z</time>
      </trkpt>
      <trkpt lat="45.55785" lon="5.74408">
        <ele>535</ele>
        <time>2019-10-27T09:43:35.000Z</time>
      </trkpt>
      <trkpt lat="45.55786" lon="5.74408">
        <ele>535</ele>
        <time>2019-10-27T09:43:36.000Z</time>
      </trkpt>
      <trkpt lat="45.55787" lon="5.74408">
        <ele>535</ele>
        <time>2019-10-27T09:43:37.000Z</time>
      </trkpt>
      <trkpt lat="45.55788" lon="5.74408">
        <ele>535</ele>
        <time>2019-10-27T09:43:38.000Z</time>
      </trkpt>
      <trkpt lat="45.55789" lon="5.74408">
        <ele>535</ele>
        <time>2019-10-27T09:43:39.000Z</time>
      </trkpt>
      <trkpt lat="45.5579" lon="5.74408">
        <ele>535</ele>
        <time>2019-10-27T09:43:40.000Z</time>
      </trkpt>
      <trkpt lat="45.55791" lon="5.74409">
        <ele>535</ele>
        <time>2019-10-27T09:43:41.000Z</time>
      </trkpt>
      <trkpt lat="45.55793" lon="5.74409">
        <ele>535</ele>
        <time>2019-10-27T09:43:42.000Z</time>
      </trkpt>
      <trkpt lat="45.55794" lon="5.74409">
        <ele>535</ele>
        <time>2019-10-27T09:43:43.000Z</time>
      </trkpt>
      <trkpt lat="45.55795" lon="5.7441">
        <ele>535</ele>
        <time>2019-10-27T09:43:44.000Z</time>
      </trkpt>
      <trkpt lat="45.55796" lon="5.7441">
        <ele>535</ele>
        <time>2019-10-27T09:43:45.000Z</time>
      </trkpt>
      <trkpt lat="45.55797" lon="5.74411">
        <ele>535</ele>
        <time>2019-10-27T09:43:46.000Z</time>
      </trkpt>
      <trkpt lat="45.55798" lon="5.74411">
        <ele>535</ele>
        <time>2019-10-27T09:43:47.000Z</time>
      </trkpt>
      <trkpt lat="45.55799" lon="5.74411">
        <ele>535</ele>
        <time>2019-10-27T09:43:48.000Z</time>
      </trkpt>
      <trkpt lat="45.558" lon="5.74412">
        <ele>535</ele>
        <time>2019-10-27T09:43:49.000Z</time>
      </trkpt>
      <trkpt lat="45.55801" lon="5.74412">
        <ele>534.5</ele>
        <time>2019-10-27T09:43:50.000Z</time>
      </trkpt>
      <trkpt lat="45.55803" lon="5.74412">
        <ele>534</ele>
        <time>2019-10-27T09:43:51.000Z</time>
      </trkpt>
      <trkpt lat="45.55804" lon="5.74412">
        <ele>534</ele>
        <time>2019-10-27T09:43:52.000Z</time>
      </trkpt>
      <trkpt lat="45.55805" lon="5.74412">
        <ele>534</ele>
        <time>2019-10-27T09:43:53.000Z</time>
      </trkpt>
      <trkpt lat="45.55806" lon="5.74412">
        <ele>534</ele>
        <time>2019-10-27T09:43:54.000Z</time>
      </trkpt>
      <trkpt lat="45.55808" lon="5.74413">
        <ele>534</ele>
        <time>2019-10-27T09:43:55.000Z</time>
      </trkpt>
      <trkpt lat="45.55809" lon="5.74413">
        <ele>534</ele>
        <time>2019-10-27T09:43:56.000Z</time>
      </trkpt>
      <trkpt lat="45.5581" lon="5.74413">
        <ele>534</ele>
        <time>2019-10-27T09:43:57.000Z</time>
      </trkpt>
      <trkpt lat="45.55811" lon="5.74413">
        <ele>534</ele>
        <time>2019-10-27T09:43:58.000Z</time>
      </trkpt>
      <trkpt lat="45.55812" lon="5.74413">
        <ele>534</ele>
        <time>2019-10-27T09:43:59.000Z</time>
      </trkpt>
      <trkpt lat="45.55813" lon="5.74414">
        <ele>534</ele>
        <time>2019-10-27T09:44:00.000Z</time>
      </trkpt>
      <trkpt lat="45.55814" lon="5.74414">
        <ele>534</ele>
        <time>2019-10-27T09:44:01.000Z</time>
      </trkpt>
      <trkpt lat="45.55815" lon="5.74414">
        <ele>534</ele>
        <time>2019-10-27T09:44:02.000Z</time>
      </trkpt>
      <trkpt lat="45.55816" lon="5.74414">
        <ele>534</ele>
        <time>2019-10-27T09:44:03.000Z</time>
      </trkpt>
      <trkpt lat="45.55817" lon="5.74414">
        <ele>534</ele>
        <time>2019-10-27T09:44:04.000Z</time>
      </trkpt>
      <trkpt lat="45.55819" lon="5.74414">
        <ele>534</ele>
        <time>2019-10-27T09:44:05.000Z</time>
      </trkpt>
      <trkpt lat="45.5582" lon="5.74414">
        <ele>534</ele>
        <time>2019-10-27T09:44:06.000Z</time>
      </trkpt>
      <trkpt lat="45.55821" lon="5.74414">
        <ele>534</ele>
        <time>2019-10-27T09:44:07.000Z</time>
      </trkpt>
      <trkpt lat="45.55822" lon="5.74414">
        <ele>534</ele>
        <time>2019-10-27T09:44:08.000Z</time>
      </trkpt>
      <trkpt lat="45.55823" lon="5.74414">
        <ele>534</ele>
        <time>2019-10-27T09:44:09.000Z</time>
      </trkpt>
      <trkpt lat="45.55824" lon="5.74414">
        <ele>534</ele>
        <time>2019-10-27T09:44:10.000Z</time>
      </trkpt>
      <trkpt lat="45.55825" lon="5.74415">
        <ele>534</ele>
        <time>2019-10-27T09:44:11.000Z</time>
      </trkpt>
      <trkpt lat="45.55826" lon="5.74415">
        <ele>534</ele>
        <time>2019-10-27T09:44:12.000Z</time>
      </trkpt>
      <trkpt lat="45.55828" lon="5.74415">
        <ele>534</ele>
        <time>2019-10-27T09:44:13.000Z</time>
      </trkpt>
      <trkpt lat="45.55829" lon="5.74416">
        <ele>534</ele>
        <time>2019-10-27T09:44:14.000Z</time>
      </trkpt>
      <trkpt lat="45.5583" lon="5.74416">
        <ele>534</ele>
        <time>2019-10-27T09:44:15.000Z</time>
      </trkpt>
      <trkpt lat="45.55831" lon="5.74416">
        <ele>534</ele>
        <time>2019-10-27T09:44:16.000Z</time>
      </trkpt>
      <trkpt lat="45.55832" lon="5.74417">
        <ele>534</ele>
        <time>2019-10-27T09:44:17.000Z</time>
      </trkpt>
      <trkpt lat="45.55833" lon="5.74417">
        <ele>534</ele>
        <time>2019-10-27T09:44:18.000Z</time>
      </trkpt>
      <trkpt lat="45.55834" lon="5.74417">
        <ele>534</ele>
        <time>2019-10-27T09:44:19.000Z</time>
      </trkpt>
      <trkpt lat="45.55835" lon="5.74416">
        <ele>534</ele>
        <time>2019-10-27T09:44:20.000Z</time>
      </trkpt>
      <trkpt lat="45.55836" lon="5.74416">
        <ele>534</ele>
        <time>2019-10-27T09:44:21.000Z</time>
      </trkpt>
      <trkpt lat="45.55837" lon="5.74416">
        <ele>534</ele>
        <time>2019-10-27T09:44:22.000Z</time>
      </trkpt>
      <trkpt lat="45.55838" lon="5.74416">
        <ele>534</ele>
        <time>2019-10-27T09:44:23.000Z</time>
      </trkpt>
      <trkpt lat="45.55839" lon="5.74416">
        <ele>534</ele>
        <time>2019-10-27T09:44:24.000Z</time>
      </trkpt>
      <trkpt lat="45.5584" lon="5.74416">
        <ele>534</ele>
        <time>2019-10-27T09:44:25.000Z</time>
      </trkpt>
      <trkpt lat="45.55841" lon="5.74416">
        <ele>534</ele>
        <time>2019-10-27T09:44:26.000Z</time>
      </trkpt>
      <trkpt lat="45.55842" lon="5.74416">
        <ele>534</ele>
        <time>2019-10-27T09:44:27.000Z</time>
      </trkpt>
      <trkpt lat="45.55844" lon="5.74416">
        <ele>534</ele>
        <time>2019-10-27T09:44:28.000Z</time>
      </trkpt>
      <trkpt lat="45.55845" lon="5.74417">
        <ele>534</ele>
        <time>2019-10-27T09:44:29.000Z</time>
      </trkpt>
      <trkpt lat="45.55846" lon="5.74417">
        <ele>534</ele>
        <time>2019-10-27T09:44:30.000Z</time>
      </trkpt>
      <trkpt lat="45.55848" lon="5.74418">
        <ele>534</ele>
        <time>2019-10-27T09:44:31.000Z</time>
      </trkpt>
      <trkpt lat="45.55849" lon="5.74418">
        <ele>534</ele>
        <time>2019-10-27T09:44:32.000Z</time>
      </trkpt>
      <trkpt lat="45.5585" lon="5.74418">
        <ele>534</ele>
        <time>2019-10-27T09:44:33.000Z</time>
      </trkpt>
      <trkpt lat="45.55851" lon="5.74419">
        <ele>534</ele>
        <time>2019-10-27T09:44:34.000Z</time>
      </trkpt>
      <trkpt lat="45.55853" lon="5.74419">
        <ele>534</ele>
        <time>2019-10-27T09:44:35.000Z</time>
      </trkpt>
      <trkpt lat="45.55854" lon="5.74419">
        <ele>534</ele>
        <time>2019-10-27T09:44:36.000Z</time>
      </trkpt>
      <trkpt lat="45.55855" lon="5.74418">
        <ele>534</ele>
        <time>2019-10-27T09:44:37.000Z</time>
      </trkpt>
      <trkpt lat="45.55856" lon="5.74418">
        <ele>534</ele>
        <time>2019-10-27T09:44:38.000Z</time>
      </trkpt>
      <trkpt lat="45.55858" lon="5.74418">
        <ele>534</ele>
        <time>2019-10-27T09:44:39.000Z</time>
      </trkpt>
      <trkpt lat="45.55859" lon="5.74418">
        <ele>534</ele>
        <time>2019-10-27T09:44:40.000Z</time>
      </trkpt>
      <trkpt lat="45.5586" lon="5.74418">
        <ele>534</ele>
        <time>2019-10-27T09:44:41.000Z</time>
      </trkpt>
      <trkpt lat="45.55861" lon="5.74418">
        <ele>534</ele>
        <time>2019-10-27T09:44:42.000Z</time>
      </trkpt>
      <trkpt lat="45.55862" lon="5.74419">
        <ele>534</ele>
        <time>2019-10-27T09:44:43.000Z</time>
      </trkpt>
      <trkpt lat="45.55864" lon="5.74419">
        <ele>534</ele>
        <time>2019-10-27T09:44:44.000Z</time>
      </trkpt>
      <trkpt lat="45.55865" lon="5.74419">
        <ele>534</ele>
        <time>2019-10-27T09:44:45.000Z</time>
      </trkpt>
      <trkpt lat="45.55866" lon="5.7442">
        <ele>534</ele>
        <time>2019-10-27T09:44:46.000Z</time>
      </trkpt>
      <trkpt lat="45.55867" lon="5.7442">
        <ele>534</ele>
        <time>2019-10-27T09:44:47.000Z</time>
      </trkpt>
      <trkpt lat="45.55868" lon="5.7442">
        <ele>534</ele>
        <time>2019-10-27T09:44:48.000Z</time>
      </trkpt>
      <trkpt lat="45.55869" lon="5.74421">
        <ele>534.3</ele>
        <time>2019-10-27T09:44:49.000Z</time>
      </trkpt>
      <trkpt lat="45.5587" lon="5.74421">
        <ele>534.7</ele>
        <time>2019-10-27T09:44:50.000Z</time>
      </trkpt>
      <trkpt lat="45.55871" lon="5.74421">
        <ele>535</ele>
        <time>2019-10-27T09:44:51.000Z</time>
      </trkpt>
      <trkpt lat="45.55872" lon="5.74421">
        <ele>535</ele>
        <time>2019-10-27T09:44:52.000Z</time>
      </trkpt>
      <trkpt lat="45.55873" lon="5.74421">
        <ele>535</ele>
        <time>2019-10-27T09:44:53.000Z</time>
      </trkpt>
      <trkpt lat="45.55874" lon="5.74421">
        <ele>535</ele>
        <time>2019-10-27T09:44:54.000Z</time>
      </trkpt>
      <trkpt lat="45.55875" lon="5.74421">
        <ele>535</ele>
        <time>2019-10-27T09:44:55.000Z</time>
      </trkpt>
      <trkpt lat="45.55876" lon="5.74421">
        <ele>535</ele>
        <time>2019-10-27T09:44:56.000Z</time>
      </trkpt>
      <trkpt lat="45.55877" lon="5.74421">
        <ele>535</ele>
        <time>2019-10-27T09:44:57.000Z</time>
      </trkpt>
      <trkpt lat="45.55878" lon="5.74422">
        <ele>535</ele>
        <time>2019-10-27T09:44:58.000Z</time>
      </trkpt>
      <trkpt lat="45.55879" lon="5.74422">
        <ele>535</ele>
        <time>2019-10-27T09:44:59.000Z</time>
      </trkpt>
      <trkpt lat="45.55881" lon="5.74422">
        <ele>535</ele>
        <time>2019-10-27T09:45:00.000Z</time>
      </trkpt>
      <trkpt lat="45.55882" lon="5.74423">
        <ele>535</ele>
        <time>2019-10-27T09:45:01.000Z</time>
      </trkpt>
      <trkpt lat="45.55883" lon="5.74423">
        <ele>535</ele>
        <time>2019-10-27T09:45:02.000Z</time>
      </trkpt>
      <trkpt lat="45.55884" lon="5.74423">
        <ele>535</ele>
        <time>2019-10-27T09:45:03.000Z</time>
      </trkpt>
      <trkpt lat="45.55885" lon="5.74424">
        <ele>535</ele>
        <time>2019-10-27T09:45:04.000Z</time>
      </trkpt>
      <trkpt lat="45.55886" lon="5.74424">
        <ele>535</ele>
        <time>2019-10-27T09:45:05.000Z</time>
      </trkpt>
      <trkpt lat="45.55887" lon="5.74424">
        <ele>535</ele>
        <time>2019-10-27T09:45:06.000Z</time>
      </trkpt>
      <trkpt lat="45.55889" lon="5.74424">
        <ele>535</ele>
        <time>2019-10-27T09:45:07.000Z</time>
      </trkpt>
      <trkpt lat="45.5589" lon="5.74425">
        <ele>535</ele>
        <time>2019-10-27T09:45:08.000Z</time>
      </trkpt>
      <trkpt lat="45.55891" lon="5.74425">
        <ele>535</ele>
        <time>2019-10-27T09:45:09.000Z</time>
      </trkpt>
      <trkpt lat="45.55892" lon="5.74425">
        <ele>535</ele>
        <time>2019-10-27T09:45:10.000Z</time>
      </trkpt>
      <trkpt lat="45.55892" lon="5.74425">
        <ele>535</ele>
        <time>2019-10-27T09:45:11.000Z</time>
      </trkpt>
      <trkpt lat="45.55893" lon="5.74426">
        <ele>535</ele>
        <time>2019-10-27T09:45:12.000Z</time>
      </trkpt>
      <trkpt lat="45.55894" lon="5.74426">
        <ele>535</ele>
        <time>2019-10-27T09:45:13.000Z</time>
      </trkpt>
      <trkpt lat="45.55894" lon="5.74426">
        <ele>535</ele>
        <time>2019-10-27T09:45:14.000Z</time>
      </trkpt>
      <trkpt lat="45.55895" lon="5.74426">
        <ele>535</ele>
        <time>2019-10-27T09:45:15.000Z</time>
      </trkpt>
      <trkpt lat="45.55895" lon="5.74426">
        <ele>535</ele>
        <time>2019-10-27T09:45:16.000Z</time>
      </trkpt>
      <trkpt lat="45.55896" lon="5.74427">
        <ele>535</ele>
        <time>2019-10-27T09:45:17.000Z</time>
      </trkpt>
      <trkpt lat="45.55897" lon="5.74427">
        <ele>535</ele>
        <time>2019-10-27T09:45:18.000Z</time>
      </trkpt>
      <trkpt lat="45.55898" lon="5.74428">
        <ele>535</ele>
        <time>2019-10-27T09:45:19.000Z</time>
      </trkpt>
      <trkpt lat="45.55899" lon="5.74428">
        <ele>535</ele>
        <time>2019-10-27T09:45:20.000Z</time>
      </trkpt>
      <trkpt lat="45.559" lon="5.74429">
        <ele>535</ele>
        <time>2019-10-27T09:45:21.000Z</time>
      </trkpt>
      <trkpt lat="45.55901" lon="5.74429">
        <ele>535</ele>
        <time>2019-10-27T09:45:22.000Z</time>
      </trkpt>
      <trkpt lat="45.55902" lon="5.7443">
        <ele>535</ele>
        <time>2019-10-27T09:45:23.000Z</time>
      </trkpt>
      <trkpt lat="45.55903" lon="5.7443">
        <ele>535</ele>
        <time>2019-10-27T09:45:24.000Z</time>
      </trkpt>
      <trkpt lat="45.55904" lon="5.7443">
        <ele>535</ele>
        <time>2019-10-27T09:45:25.000Z</time>
      </trkpt>
      <trkpt lat="45.55905" lon="5.74431">
        <ele>535</ele>
        <time>2019-10-27T09:45:26.000Z</time>
      </trkpt>
      <trkpt lat="45.55907" lon="5.74431">
        <ele>535</ele>
        <time>2019-10-27T09:45:27.000Z</time>
      </trkpt>
      <trkpt lat="45.55908" lon="5.74432">
        <ele>535</ele>
        <time>2019-10-27T09:45:28.000Z</time>
      </trkpt>
      <trkpt lat="45.55909" lon="5.74433">
        <ele>535</ele>
        <time>2019-10-27T09:45:29.000Z</time>
      </trkpt>
      <trkpt lat="45.5591" lon="5.74434">
        <ele>535</ele>
        <time>2019-10-27T09:45:30.000Z</time>
      </trkpt>
      <trkpt lat="45.55911" lon="5.74435">
        <ele>535</ele>
        <time>2019-10-27T09:45:31.000Z</time>
      </trkpt>
      <trkpt lat="45.55912" lon="5.74435">
        <ele>535</ele>
        <time>2019-10-27T09:45:32.000Z</time>
      </trkpt>
      <trkpt lat="45.55914" lon="5.74436">
        <ele>535</ele>
        <time>2019-10-27T09:45:33.000Z</time>
      </trkpt>
      <trkpt lat="45.55915" lon="5.74436">
        <ele>535</ele>
        <time>2019-10-27T09:45:34.000Z</time>
      </trkpt>
      <trkpt lat="45.55916" lon="5.74436">
        <ele>535</ele>
        <time>2019-10-27T09:45:35.000Z</time>
      </trkpt>
      <trkpt lat="45.55917" lon="5.74437">
        <ele>535</ele>
        <time>2019-10-27T09:45:36.000Z</time>
      </trkpt>
      <trkpt lat="45.55918" lon="5.74437">
        <ele>535</ele>
        <time>2019-10-27T09:45:37.000Z</time>
      </trkpt>
      <trkpt lat="45.55919" lon="5.74437">
        <ele>535</ele>
        <time>2019-10-27T09:45:38.000Z</time>
      </trkpt>
      <trkpt lat="45.5592" lon="5.74438">
        <ele>535</ele>
        <time>2019-10-27T09:45:39.000Z</time>
      </trkpt>
      <trkpt lat="45.55921" lon="5.74438">
        <ele>535</ele>
        <time>2019-10-27T09:45:40.000Z</time>
      </trkpt>
      <trkpt lat="45.55922" lon="5.74439">
        <ele>535</ele>
        <time>2019-10-27T09:45:41.000Z</time>
      </trkpt>
      <trkpt lat="45.55923" lon="5.74439">
        <ele>535</ele>
        <time>2019-10-27T09:45:42.000Z</time>
      </trkpt>
      <trkpt lat="45.55925" lon="5.7444">
        <ele>535</ele>
        <time>2019-10-27T09:45:43.000Z</time>
      </trkpt>
      <trkpt lat="45.55926" lon="5.74441">
        <ele>535</ele>
        <time>2019-10-27T09:45:44.000Z</time>
      </trkpt>
      <trkpt lat="45.55927" lon="5.74441">
        <ele>535</ele>
        <time>2019-10-27T09:45:45.000Z</time>
      </trkpt>
      <trkpt lat="45.55928" lon="5.74442">
        <ele>535</ele>
        <time>2019-10-27T09:45:46.000Z</time>
      </trkpt>
      <trkpt lat="45.55929" lon="5.74442">
        <ele>535</ele>
        <time>2019-10-27T09:45:47.000Z</time>
      </trkpt>
      <trkpt lat="45.5593" lon="5.74443">
        <ele>535</ele>
        <time>2019-10-27T09:45:48.000Z</time>
      </trkpt>
      <trkpt lat="45.55931" lon="5.74443">
        <ele>535</ele>
        <time>2019-10-27T09:45:49.000Z</time>
      </trkpt>
      <trkpt lat="45.55932" lon="5.74444">
        <ele>535</ele>
        <time>2019-10-27T09:45:50.000Z</time>
      </trkpt>
      <trkpt lat="45.55933" lon="5.74445">
        <ele>535</ele>
        <time>2019-10-27T09:45:51.000Z</time>
      </trkpt>
      <trkpt lat="45.55934" lon="5.74445">
        <ele>536</ele>
        <time>2019-10-27T09:45:52.000Z</time>
      </trkpt>
      <trkpt lat="45.55935" lon="5.74446">
        <ele>536</ele>
        <time>2019-10-27T09:45:53.000Z</time>
      </trkpt>
      <trkpt lat="45.55936" lon="5.74447">
        <ele>536</ele>
        <time>2019-10-27T09:45:54.000Z</time>
      </trkpt>
      <trkpt lat="45.55936" lon="5.74447">
        <ele>536</ele>
        <time>2019-10-27T09:45:55.000Z</time>
      </trkpt>
      <trkpt lat="45.55937" lon="5.74448">
        <ele>536</ele>
        <time>2019-10-27T09:45:56.000Z</time>
      </trkpt>
      <trkpt lat="45.55938" lon="5.74448">
        <ele>536</ele>
        <time>2019-10-27T09:45:57.000Z</time>
      </trkpt>
      <trkpt lat="45.55939" lon="5.74449">
        <ele>536</ele>
        <time>2019-10-27T09:45:58.000Z</time>
      </trkpt>
      <trkpt lat="45.5594" lon="5.7445">
        <ele>536</ele>
        <time>2019-10-27T09:45:59.000Z</time>
      </trkpt>
      <trkpt lat="45.55941" lon="5.74451">
        <ele>536</ele>
        <time>2019-10-27T09:46:00.000Z</time>
      </trkpt>
      <trkpt lat="45.55942" lon="5.74452">
        <ele>536</ele>
        <time>2019-10-27T09:46:01.000Z</time>
      </trkpt>
      <trkpt lat="45.55943" lon="5.74453">
        <ele>536</ele>
        <time>2019-10-27T09:46:02.000Z</time>
      </trkpt>
      <trkpt lat="45.55945" lon="5.74454">
        <ele>536.3</ele>
        <time>2019-10-27T09:46:03.000Z</time>
      </trkpt>
      <trkpt lat="45.55946" lon="5.74455">
        <ele>536.7</ele>
        <time>2019-10-27T09:46:04.000Z</time>
      </trkpt>
      <trkpt lat="45.55947" lon="5.74456">
        <ele>537</ele>
        <time>2019-10-27T09:46:05.000Z</time>
      </trkpt>
      <trkpt lat="45.55948" lon="5.74456">
        <ele>537</ele>
        <time>2019-10-27T09:46:06.000Z</time>
      </trkpt>
      <trkpt lat="45.55949" lon="5.74457">
        <ele>537</ele>
        <time>2019-10-27T09:46:07.000Z</time>
      </trkpt>
      <trkpt lat="45.5595" lon="5.74457">
        <ele>537</ele>
        <time>2019-10-27T09:46:08.000Z</time>
      </trkpt>
      <trkpt lat="45.55951" lon="5.74458">
        <ele>537</ele>
        <time>2019-10-27T09:46:09.000Z</time>
      </trkpt>
      <trkpt lat="45.55952" lon="5.74458">
        <ele>537</ele>
        <time>2019-10-27T09:46:10.000Z</time>
      </trkpt>
      <trkpt lat="45.55953" lon="5.74459">
        <ele>537</ele>
        <time>2019-10-27T09:46:11.000Z</time>
      </trkpt>
      <trkpt lat="45.55954" lon="5.74459">
        <ele>538</ele>
        <time>2019-10-27T09:46:12.000Z</time>
      </trkpt>
      <trkpt lat="45.55955" lon="5.7446">
        <ele>538</ele>
        <time>2019-10-27T09:46:13.000Z</time>
      </trkpt>
      <trkpt lat="45.55956" lon="5.74461">
        <ele>538</ele>
        <time>2019-10-27T09:46:14.000Z</time>
      </trkpt>
      <trkpt lat="45.55957" lon="5.74461">
        <ele>538</ele>
        <time>2019-10-27T09:46:15.000Z</time>
      </trkpt>
      <trkpt lat="45.55957" lon="5.74462">
        <ele>538</ele>
        <time>2019-10-27T09:46:16.000Z</time>
      </trkpt>
      <trkpt lat="45.55958" lon="5.74462">
        <ele>538</ele>
        <time>2019-10-27T09:46:17.000Z</time>
      </trkpt>
      <trkpt lat="45.55959" lon="5.74462">
        <ele>538</ele>
        <time>2019-10-27T09:46:18.000Z</time>
      </trkpt>
      <trkpt lat="45.55959" lon="5.74463">
        <ele>538.3</ele>
        <time>2019-10-27T09:46:19.000Z</time>
      </trkpt>
      <trkpt lat="45.5596" lon="5.74463">
        <ele>538.7</ele>
        <time>2019-10-27T09:46:20.000Z</time>
      </trkpt>
      <trkpt lat="45.5596" lon="5.74463">
        <ele>539</ele>
        <time>2019-10-27T09:46:21.000Z</time>
      </trkpt>
      <trkpt lat="45.55961" lon="5.74463">
        <ele>539</ele>
        <time>2019-10-27T09:46:22.000Z</time>
      </trkpt>
      <trkpt lat="45.55961" lon="5.74464">
        <ele>539</ele>
        <time>2019-10-27T09:46:23.000Z</time>
      </trkpt>
      <trkpt lat="45.55961" lon="5.74464">
        <ele>539</ele>
        <time>2019-10-27T09:46:24.000Z</time>
      </trkpt>
      <trkpt lat="45.55961" lon="5.74464">
        <ele>539</ele>
        <time>2019-10-27T09:46:25.000Z</time>
      </trkpt>
      <trkpt lat="45.55961" lon="5.74464">
        <ele>539</ele>
        <time>2019-10-27T09:46:26.000Z</time>
      </trkpt>
      <trkpt lat="45.55961" lon="5.74464">
        <ele>539</ele>
        <time>2019-10-27T09:46:27.000Z</time>
      </trkpt>
      <trkpt lat="45.55961" lon="5.74464">
        <ele>539</ele>
        <time>2019-10-27T09:46:28.000Z</time>
      </trkpt>
      <trkpt lat="45.55962" lon="5.74464">
        <ele>539</ele>
        <time>2019-10-27T09:46:29.000Z</time>
      </trkpt>
      <trkpt lat="45.55963" lon="5.74464">
        <ele>539</ele>
        <time>2019-10-27T09:46:30.000Z</time>
      </trkpt>
      <trkpt lat="45.55964" lon="5.74465">
        <ele>539</ele>
        <time>2019-10-27T09:46:31.000Z</time>
      </trkpt>
      <trkpt lat="45.55964" lon="5.74466">
        <ele>539</ele>
        <time>2019-10-27T09:46:32.000Z</time>
      </trkpt>
      <trkpt lat="45.55965" lon="5.74466">
        <ele>539</ele>
        <time>2019-10-27T09:46:33.000Z</time>
      </trkpt>
      <trkpt lat="45.55966" lon="5.74467">
        <ele>539</ele>
        <time>2019-10-27T09:46:34.000Z</time>
      </trkpt>
      <trkpt lat="45.55967" lon="5.74467">
        <ele>539</ele>
        <time>2019-10-27T09:46:35.000Z</time>
      </trkpt>
      <trkpt lat="45.55968" lon="5.74468">
        <ele>540</ele>
        <time>2019-10-27T09:46:36.000Z</time>
      </trkpt>
      <trkpt lat="45.55968" lon="5.74468">
        <ele>540</ele>
        <time>2019-10-27T09:46:37.000Z</time>
      </trkpt>
      <trkpt lat="45.55969" lon="5.74469">
        <ele>540</ele>
        <time>2019-10-27T09:46:38.000Z</time>
      </trkpt>
      <trkpt lat="45.55969" lon="5.74469">
        <ele>540</ele>
        <time>2019-10-27T09:46:39.000Z</time>
      </trkpt>
      <trkpt lat="45.55969" lon="5.74469">
        <ele>540</ele>
        <time>2019-10-27T09:46:40.000Z</time>
      </trkpt>
      <trkpt lat="45.5597" lon="5.74469">
        <ele>540</ele>
        <time>2019-10-27T09:46:41.000Z</time>
      </trkpt>
      <trkpt lat="45.5597" lon="5.7447">
        <ele>540.5</ele>
        <time>2019-10-27T09:46:42.000Z</time>
      </trkpt>
      <trkpt lat="45.5597" lon="5.7447">
        <ele>541</ele>
        <time>2019-10-27T09:46:43.000Z</time>
      </trkpt>
      <trkpt lat="45.5597" lon="5.7447">
        <ele>541</ele>
        <time>2019-10-27T09:46:44.000Z</time>
      </trkpt>
      <trkpt lat="45.5597" lon="5.7447">
        <ele>541</ele>
        <time>2019-10-27T09:46:45.000Z</time>
      </trkpt>
      <trkpt lat="45.5597" lon="5.7447">
        <ele>541</ele>
        <time>2019-10-27T09:46:46.000Z</time>
      </trkpt>
      <trkpt lat="45.5597" lon="5.7447">
        <ele>541</ele>
        <time>2019-10-27T09:46:47.000Z</time>
      </trkpt>
      <trkpt lat="45.5597" lon="5.7447">
        <ele>541</ele>
        <time>2019-10-27T09:46:48.000Z</time>
      </trkpt>
      <trkpt lat="45.5597" lon="5.7447">
        <ele>541</ele>
        <time>2019-10-27T09:46:49.000Z</time>
      </trkpt>
      <trkpt lat="45.5597" lon="5.7447">
        <ele>541</ele>
        <time>2019-10-27T09:46:50.000Z</time>
      </trkpt>
      <trkpt lat="45.5597" lon="5.7447">
        <ele>541</ele>
        <time>2019-10-27T09:46:51.000Z</time>
      </trkpt>
      <trkpt lat="45.5597" lon="5.7447">
        <ele>541</ele>
        <time>2019-10-27T09:46:52.000Z</time>
      </trkpt>
      <trkpt lat="45.5597" lon="5.7447">
        <ele>541</ele>
        <time>2019-10-27T09:46:53.000Z</time>
      </trkpt>
      <trkpt lat="45.5597" lon="5.7447">
        <ele>541</ele>
        <time>2019-10-27T09:46:54.000Z</time>
      </trkpt>
      <trkpt lat="45.5597" lon="5.7447">
        <ele>541</ele>
        <time>2019-10-27T09:46:55.000Z</time>
      </trkpt>
      <trkpt lat="45.5597" lon="5.7447">
        <ele>541</ele>
        <time>2019-10-27T09:46:56.000Z</time>
      </trkpt>
      <trkpt lat="45.5597" lon="5.7447">
        <ele>541</ele>
        <time>2019-10-27T09:46:57.000Z</time>
      </trkpt>
      <trkpt lat="45.5597" lon="5.7447">
        <ele>541</ele>
        <time>2019-10-27T09:46:58.000Z</time>
      </trkpt>
      <trkpt lat="45.5597" lon="5.7447">
        <ele>541</ele>
        <time>2019-10-27T09:46:59.000Z</time>
      </trkpt>
      <trkpt lat="45.5597" lon="5.7447">
        <ele>541</ele>
        <time>2019-10-27T09:47:00.000Z</time>
      </trkpt>
      <trkpt lat="45.5597" lon="5.7447">
        <ele>541</ele>
        <time>2019-10-27T09:47:01.000Z</time>
      </trkpt>
      <trkpt lat="45.5597" lon="5.7447">
        <ele>541</ele>
        <time>2019-10-27T09:47:02.000Z</time>
      </trkpt>
      <trkpt lat="45.5597" lon="5.7447">
        <ele>541</ele>
        <time>2019-10-27T09:47:03.000Z</time>
      </trkpt>
      <trkpt lat="45.5597" lon="5.7447">
        <ele>541</ele>
        <time>2019-10-27T09:47:04.000Z</time>
      </trkpt>
      <trkpt lat="45.5597" lon="5.7447">
        <ele>541</ele>
        <time>2019-10-27T09:47:05.000Z</time>
      </trkpt>
      <trkpt lat="45.5597" lon="5.7447">
        <ele>541</ele>
        <time>2019-10-27T09:47:06.000Z</time>
      </trkpt>
      <trkpt lat="45.5597" lon="5.7447">
        <ele>541</ele>
        <time>2019-10-27T09:47:07.000Z</time>
      </trkpt>
      <trkpt lat="45.5597" lon="5.7447">
        <ele>541</ele>
        <time>2019-10-27T09:47:08.000Z</time>
      </trkpt>
      <trkpt lat="45.5597" lon="5.74471">
        <ele>541</ele>
        <time>2019-10-27T09:47:09.000Z</time>
      </trkpt>
      <trkpt lat="45.5597" lon="5.74471">
        <ele>541</ele>
        <time>2019-10-27T09:47:10.000Z</time>
      </trkpt>
      <trkpt lat="45.55971" lon="5.74471">
        <ele>541</ele>
        <time>2019-10-27T09:47:11.000Z</time>
      </trkpt>
      <trkpt lat="45.55971" lon="5.74472">
        <ele>541</ele>
        <time>2019-10-27T09:47:12.000Z</time>
      </trkpt>
      <trkpt lat="45.55971" lon="5.74472">
        <ele>541</ele>
        <time>2019-10-27T09:47:13.000Z</time>
      </trkpt>
      <trkpt lat="45.55972" lon="5.74472">
        <ele>541</ele>
        <time>2019-10-27T09:47:14.000Z</time>
      </trkpt>
      <trkpt lat="45.55972" lon="5.74473">
        <ele>541</ele>
        <time>2019-10-27T09:47:15.000Z</time>
      </trkpt>
      <trkpt lat="45.55972" lon="5.74473">
        <ele>541</ele>
        <time>2019-10-27T09:47:16.000Z</time>
      </trkpt>
      <trkpt lat="45.55972" lon="5.74473">
        <ele>541</ele>
        <time>2019-10-27T09:47:17.000Z</time>
      </trkpt>
      <trkpt lat="45.55972" lon="5.74474">
        <ele>541</ele>
        <time>2019-10-27T09:47:18.000Z</time>
      </trkpt>
      <trkpt lat="45.55972" lon="5.74474">
        <ele>541</ele>
        <time>2019-10-27T09:47:19.000Z</time>
      </trkpt>
      <trkpt lat="45.55972" lon="5.74474">
        <ele>541</ele>
        <time>2019-10-27T09:47:20.000Z</time>
      </trkpt>
      <trkpt lat="45.55972" lon="5.74474">
        <ele>541</ele>
        <time>2019-10-27T09:47:21.000Z</time>
      </trkpt>
      <trkpt lat="45.55972" lon="5.74474">
        <ele>541</ele>
        <time>2019-10-27T09:47:22.000Z</time>
      </trkpt>
      <trkpt lat="45.55972" lon="5.74474">
        <ele>541</ele>
        <time>2019-10-27T09:47:23.000Z</time>
      </trkpt>
      <trkpt lat="45.55972" lon="5.74474">
        <ele>541</ele>
        <time>2019-10-27T09:47:24.000Z</time>
      </trkpt>
      <trkpt lat="45.55973" lon="5.74474">
        <ele>541</ele>
        <time>2019-10-27T09:47:25.000Z</time>
      </trkpt>
      <trkpt lat="45.55973" lon="5.74474">
        <ele>541</ele>
        <time>2019-10-27T09:47:26.000Z</time>
      </trkpt>
      <trkpt lat="45.55973" lon="5.74474">
        <ele>541</ele>
        <time>2019-10-27T09:47:27.000Z</time>
      </trkpt>
      <trkpt lat="45.55973" lon="5.74474">
        <ele>541</ele>
        <time>2019-10-27T09:47:28.000Z</time>
      </trkpt>
      <trkpt lat="45.55973" lon="5.74474">
        <ele>541</ele>
        <time>2019-10-27T09:47:29.000Z</time>
      </trkpt>
      <trkpt lat="45.55973" lon="5.74474">
        <ele>541</ele>
        <time>2019-10-27T09:47:30.000Z</time>
      </trkpt>
      <trkpt lat="45.55973" lon="5.74474">
        <ele>541</ele>
        <time>2019-10-27T09:47:31.000Z</time>
      </trkpt>
      <trkpt lat="45.55973" lon="5.74474">
        <ele>541</ele>
        <time>2019-10-27T09:47:32.000Z</time>
      </trkpt>
      <trkpt lat="45.55973" lon="5.74474">
        <ele>541</ele>
        <time>2019-10-27T09:47:33.000Z</time>
      </trkpt>
      <trkpt lat="45.55973" lon="5.74474">
        <ele>541</ele>
        <time>2019-10-27T09:47:34.000Z</time>
      </trkpt>
      <trkpt lat="45.55973" lon="5.74474">
        <ele>541</ele>
        <time>2019-10-27T09:47:35.000Z</time>
      </trkpt>
      <trkpt lat="45.55973" lon="5.74474">
        <ele>541</ele>
        <time>2019-10-27T09:47:36.000Z</time>
      </trkpt>
      <trkpt lat="45.55973" lon="5.74474">
        <ele>541</ele>
        <time>2019-10-27T09:47:37.000Z</time>
      </trkpt>
      <trkpt lat="45.55973" lon="5.74474">
        <ele>541</ele>
        <time>2019-10-27T09:47:38.000Z</time>
      </trkpt>
      <trkpt lat="45.55973" lon="5.74474">
        <ele>541</ele>
        <time>2019-10-27T09:47:39.000Z</time>
      </trkpt>
      <trkpt lat="45.55973" lon="5.74474">
        <ele>541</ele>
        <time>2019-10-27T09:47:40.000Z</time>
      </trkpt>
      <trkpt lat="45.55973" lon="5.74474">
        <ele>541</ele>
        <time>2019-10-27T09:47:41.000Z</time>
      </trkpt>
      <trkpt lat="45.55973" lon="5.74474">
        <ele>541</ele>
        <time>2019-10-27T09:47:42.000Z</time>
      </trkpt>
      <trkpt lat="45.55973" lon="5.74474">
        <ele>541</ele>
        <time>2019-10-27T09:47:43.000Z</time>
      </trkpt>
      <trkpt lat="45.55973" lon="5.74474">
        <ele>541</ele>
        <time>2019-10-27T09:47:44.000Z</time>
      </trkpt>
      <trkpt lat="45.55973" lon="5.74474">
        <ele>541</ele>
        <time>2019-10-27T09:47:45.000Z</time>
      </trkpt>
      <trkpt lat="45.55973" lon="5.74474">
        <ele>541</ele>
        <time>2019-10-27T09:47:46.000Z</time>
      </trkpt>
      <trkpt lat="45.55973" lon="5.74474">
        <ele>541</ele>
        <time>2019-10-27T09:47:47.000Z</time>
      </trkpt>
      <trkpt lat="45.55973" lon="5.74474">
        <ele>541</ele>
        <time>2019-10-27T09:47:48.000Z</time>
      </trkpt>
      <trkpt lat="45.55973" lon="5.74474">
        <ele>541</ele>
        <time>2019-10-27T09:47:49.000Z</time>
      </trkpt>
      <trkpt lat="45.55973" lon="5.74474">
        <ele>541</ele>
        <time>2019-10-27T09:47:50.000Z</time>
      </trkpt>
      <trkpt lat="45.55973" lon="5.74474">
        <ele>541</ele>
        <time>2019-10-27T09:47:51.000Z</time>
      </trkpt>
      <trkpt lat="45.55973" lon="5.74474">
        <ele>541</ele>
        <time>2019-10-27T09:47:52.000Z</time>
      </trkpt>
      <trkpt lat="45.55973" lon="5.74474">
        <ele>541</ele>
        <time>2019-10-27T09:47:53.000Z</time>
      </trkpt>
      <trkpt lat="45.55973" lon="5.74474">
        <ele>541</ele>
        <time>2019-10-27T09:47:54.000Z</time>
      </trkpt>
      <trkpt lat="45.55973" lon="5.74474">
        <ele>541</ele>
        <time>2019-10-27T09:47:55.000Z</time>
      </trkpt>
      <trkpt lat="45.55973" lon="5.74474">
        <ele>541</ele>
        <time>2019-10-27T09:47:56.000Z</time>
      </trkpt>
      <trkpt lat="45.55973" lon="5.74474">
        <ele>541.3</ele>
        <time>2019-10-27T09:47:57.000Z</time>
      </trkpt>
      <trkpt lat="45.55973" lon="5.74474">
        <ele>541.7</ele>
        <time>2019-10-27T09:47:58.000Z</time>
      </trkpt>
      <trkpt lat="45.55973" lon="5.74474">
        <ele>542</ele>
        <time>2019-10-27T09:47:59.000Z</time>
      </trkpt>
      <trkpt lat="45.55973" lon="5.74474">
        <ele>542</ele>
        <time>2019-10-27T09:48:00.000Z</time>
      </trkpt>
      <trkpt lat="45.55973" lon="5.74474">
        <ele>542</ele>
        <time>2019-10-27T09:48:01.000Z</time>
      </trkpt>
      <trkpt lat="45.55973" lon="5.74474">
        <ele>542</ele>
        <time>2019-10-27T09:48:02.000Z</time>
      </trkpt>
      <trkpt lat="45.55973" lon="5.74474">
        <ele>542</ele>
        <time>2019-10-27T09:48:03.000Z</time>
      </trkpt>
      <trkpt lat="45.55973" lon="5.74473">
        <ele>542</ele>
        <time>2019-10-27T09:48:04.000Z</time>
      </trkpt>
      <trkpt lat="45.55973" lon="5.74473">
        <ele>542</ele>
        <time>2019-10-27T09:48:05.000Z</time>
      </trkpt>
      <trkpt lat="45.55973" lon="5.74474">
        <ele>541.5</ele>
        <time>2019-10-27T09:48:06.000Z</time>
      </trkpt>
      <trkpt lat="45.55973" lon="5.74474">
        <ele>541</ele>
        <time>2019-10-27T09:48:07.000Z</time>
      </trkpt>
      <trkpt lat="45.55973" lon="5.74474">
        <ele>541</ele>
        <time>2019-10-27T09:48:08.000Z</time>
      </trkpt>
      <trkpt lat="45.55973" lon="5.74474">
        <ele>541</ele>
        <time>2019-10-27T09:48:09.000Z</time>
      </trkpt>
      <trkpt lat="45.55972" lon="5.74474">
        <ele>541</ele>
        <time>2019-10-27T09:48:10.000Z</time>
      </trkpt>
      <trkpt lat="45.55972" lon="5.74474">
        <ele>541</ele>
        <time>2019-10-27T09:48:11.000Z</time>
      </trkpt>
      <trkpt lat="45.55972" lon="5.74474">
        <ele>541.5</ele>
        <time>2019-10-27T09:48:12.000Z</time>
      </trkpt>
      <trkpt lat="45.55972" lon="5.74474">
        <ele>542</ele>
        <time>2019-10-27T09:48:13.000Z</time>
      </trkpt>
      <trkpt lat="45.55972" lon="5.74474">
        <ele>542</ele>
        <time>2019-10-27T09:48:14.000Z</time>
      </trkpt>
      <trkpt lat="45.55972" lon="5.74474">
        <ele>542</ele>
        <time>2019-10-27T09:48:15.000Z</time>
      </trkpt>
      <trkpt lat="45.55972" lon="5.74474">
        <ele>542</ele>
        <time>2019-10-27T09:48:16.000Z</time>
      </trkpt>
      <trkpt lat="45.55972" lon="5.74474">
        <ele>542</ele>
        <time>2019-10-27T09:48:17.000Z</time>
      </trkpt>
      <trkpt lat="45.55972" lon="5.74474">
        <ele>542</ele>
        <time>2019-10-27T09:48:18.000Z</time>
      </trkpt>
      <trkpt lat="45.55972" lon="5.74474">
        <ele>542</ele>
        <time>2019-10-27T09:48:19.000Z</time>
      </trkpt>
      <trkpt lat="45.55972" lon="5.74474">
        <ele>542</ele>
        <time>2019-10-27T09:48:20.000Z</time>
      </trkpt>
      <trkpt lat="45.55972" lon="5.74474">
        <ele>542</ele>
        <time>2019-10-27T09:48:21.000Z</time>
      </trkpt>
      <trkpt lat="45.55972" lon="5.74474">
        <ele>542</ele>
        <time>2019-10-27T09:48:22.000Z</time>
      </trkpt>
      <trkpt lat="45.55972" lon="5.74474">
        <ele>542</ele>
        <time>2019-10-27T09:48:23.000Z</time>
      </trkpt>
      <trkpt lat="45.55972" lon="5.74474">
        <ele>542</ele>
        <time>2019-10-27T09:48:24.000Z</time>
      </trkpt>
      <trkpt lat="45.55972" lon="5.74474">
        <ele>542</ele>
        <time>2019-10-27T09:48:25.000Z</time>
      </trkpt>
      <trkpt lat="45.55973" lon="5.74474">
        <ele>542</ele>
        <time>2019-10-27T09:48:26.000Z</time>
      </trkpt>
      <trkpt lat="45.55973" lon="5.74474">
        <ele>542</ele>
        <time>2019-10-27T09:48:27.000Z</time>
      </trkpt>
      <trkpt lat="45.55973" lon="5.74474">
        <ele>542</ele>
        <time>2019-10-27T09:48:28.000Z</time>
      </trkpt>
      <trkpt lat="45.55973" lon="5.74474">
        <ele>542</ele>
        <time>2019-10-27T09:48:29.000Z</time>
      </trkpt>
      <trkpt lat="45.55973" lon="5.74474">
        <ele>542</ele>
        <time>2019-10-27T09:48:30.000Z</time>
      </trkpt>
      <trkpt lat="45.55973" lon="5.74475">
        <ele>542</ele>
        <time>2019-10-27T09:48:31.000Z</time>
      </trkpt>
      <trkpt lat="45.55973" lon="5.74475">
        <ele>542</ele>
        <time>2019-10-27T09:48:32.000Z</time>
      </trkpt>
      <trkpt lat="45.55973" lon="5.74475">
        <ele>542</ele>
        <time>2019-10-27T09:48:33.000Z</time>
      </trkpt>
      <trkpt lat="45.55973" lon="5.74476">
        <ele>542</ele>
        <time>2019-10-27T09:48:34.000Z</time>
      </trkpt>
      <trkpt lat="45.55973" lon="5.74476">
        <ele>542</ele>
        <time>2019-10-27T09:48:35.000Z</time>
      </trkpt>
      <trkpt lat="45.55973" lon="5.74476">
        <ele>542</ele>
        <time>2019-10-27T09:48:36.000Z</time>
      </trkpt>
      <trkpt lat="45.55973" lon="5.74477">
        <ele>542</ele>
        <time>2019-10-27T09:48:37.000Z</time>
      </trkpt>
      <trkpt lat="45.55973" lon="5.74477">
        <ele>542</ele>
        <time>2019-10-27T09:48:38.000Z</time>
      </trkpt>
      <trkpt lat="45.55973" lon="5.74477">
        <ele>542</ele>
        <time>2019-10-27T09:48:39.000Z</time>
      </trkpt>
      <trkpt lat="45.55973" lon="5.74477">
        <ele>542</ele>
        <time>2019-10-27T09:48:40.000Z</time>
      </trkpt>
      <trkpt lat="45.55973" lon="5.74477">
        <ele>542</ele>
        <time>2019-10-27T09:48:41.000Z</time>
      </trkpt>
      <trkpt lat="45.55973" lon="5.74477">
        <ele>542</ele>
        <time>2019-10-27T09:48:42.000Z</time>
      </trkpt>
      <trkpt lat="45.55973" lon="5.74477">
        <ele>542</ele>
        <time>2019-10-27T09:48:43.000Z</time>
      </trkpt>
      <trkpt lat="45.55973" lon="5.74477">
        <ele>542</ele>
        <time>2019-10-27T09:48:44.000Z</time>
      </trkpt>
      <trkpt lat="45.55973" lon="5.74477">
        <ele>542</ele>
        <time>2019-10-27T09:48:45.000Z</time>
      </trkpt>
      <trkpt lat="45.55973" lon="5.74477">
        <ele>542</ele>
        <time>2019-10-27T09:48:46.000Z</time>
      </trkpt>
      <trkpt lat="45.55974" lon="5.74477">
        <ele>542</ele>
        <time>2019-10-27T09:48:47.000Z</time>
      </trkpt>
      <trkpt lat="45.55974" lon="5.74477">
        <ele>542</ele>
        <time>2019-10-27T09:48:48.000Z</time>
      </trkpt>
      <trkpt lat="45.55975" lon="5.74478">
        <ele>542</ele>
        <time>2019-10-27T09:48:49.000Z</time>
      </trkpt>
      <trkpt lat="45.55976" lon="5.74478">
        <ele>542</ele>
        <time>2019-10-27T09:48:50.000Z</time>
      </trkpt>
      <trkpt lat="45.55977" lon="5.74478">
        <ele>542.3</ele>
        <time>2019-10-27T09:48:51.000Z</time>
      </trkpt>
      <trkpt lat="45.55977" lon="5.74478">
        <ele>542.7</ele>
        <time>2019-10-27T09:48:52.000Z</time>
      </trkpt>
      <trkpt lat="45.55978" lon="5.74478">
        <ele>543</ele>
        <time>2019-10-27T09:48:53.000Z</time>
      </trkpt>
      <trkpt lat="45.55979" lon="5.74479">
        <ele>543</ele>
        <time>2019-10-27T09:48:54.000Z</time>
      </trkpt>
      <trkpt lat="45.5598" lon="5.74479">
        <ele>543</ele>
        <time>2019-10-27T09:48:55.000Z</time>
      </trkpt>
      <trkpt lat="45.55981" lon="5.74479">
        <ele>543</ele>
        <time>2019-10-27T09:48:56.000Z</time>
      </trkpt>
      <trkpt lat="45.55982" lon="5.7448">
        <ele>543</ele>
        <time>2019-10-27T09:48:57.000Z</time>
      </trkpt>
      <trkpt lat="45.55983" lon="5.7448">
        <ele>543</ele>
        <time>2019-10-27T09:48:58.000Z</time>
      </trkpt>
      <trkpt lat="45.55984" lon="5.74481">
        <ele>543</ele>
        <time>2019-10-27T09:48:59.000Z</time>
      </trkpt>
      <trkpt lat="45.55985" lon="5.74481">
        <ele>543</ele>
        <time>2019-10-27T09:49:00.000Z</time>
      </trkpt>
      <trkpt lat="45.55986" lon="5.74482">
        <ele>543.3</ele>
        <time>2019-10-27T09:49:01.000Z</time>
      </trkpt>
      <trkpt lat="45.55987" lon="5.74483">
        <ele>543.7</ele>
        <time>2019-10-27T09:49:02.000Z</time>
      </trkpt>
      <trkpt lat="45.55988" lon="5.74483">
        <ele>544</ele>
        <time>2019-10-27T09:49:03.000Z</time>
      </trkpt>
      <trkpt lat="45.55989" lon="5.74484">
        <ele>544</ele>
        <time>2019-10-27T09:49:04.000Z</time>
      </trkpt>
      <trkpt lat="45.5599" lon="5.74485">
        <ele>544</ele>
        <time>2019-10-27T09:49:05.000Z</time>
      </trkpt>
      <trkpt lat="45.55991" lon="5.74486">
        <ele>544</ele>
        <time>2019-10-27T09:49:06.000Z</time>
      </trkpt>
      <trkpt lat="45.55992" lon="5.74486">
        <ele>544</ele>
        <time>2019-10-27T09:49:07.000Z</time>
      </trkpt>
      <trkpt lat="45.55993" lon="5.74487">
        <ele>544</ele>
        <time>2019-10-27T09:49:08.000Z</time>
      </trkpt>
      <trkpt lat="45.55994" lon="5.74487">
        <ele>544</ele>
        <time>2019-10-27T09:49:09.000Z</time>
      </trkpt>
      <trkpt lat="45.55995" lon="5.74488">
        <ele>544</ele>
        <time>2019-10-27T09:49:10.000Z</time>
      </trkpt>
      <trkpt lat="45.55996" lon="5.74488">
        <ele>544</ele>
        <time>2019-10-27T09:49:11.000Z</time>
      </trkpt>
      <trkpt lat="45.55997" lon="5.74488">
        <ele>544.5</ele>
        <time>2019-10-27T09:49:12.000Z</time>
      </trkpt>
      <trkpt lat="45.55998" lon="5.74488">
        <ele>545</ele>
        <time>2019-10-27T09:49:13.000Z</time>
      </trkpt>
      <trkpt lat="45.55999" lon="5.74488">
        <ele>545</ele>
        <time>2019-10-27T09:49:14.000Z</time>
      </trkpt>
      <trkpt lat="45.56" lon="5.74488">
        <ele>545</ele>
        <time>2019-10-27T09:49:15.000Z</time>
      </trkpt>
      <trkpt lat="45.56002" lon="5.74488">
        <ele>545</ele>
        <time>2019-10-27T09:49:16.000Z</time>
      </trkpt>
      <trkpt lat="45.56003" lon="5.74488">
        <ele>545</ele>
        <time>2019-10-27T09:49:17.000Z</time>
      </trkpt>
      <trkpt lat="45.56004" lon="5.74488">
        <ele>545</ele>
        <time>2019-10-27T09:49:18.000Z</time>
      </trkpt>
      <trkpt lat="45.56004" lon="5.74488">
        <ele>545</ele>
        <time>2019-10-27T09:49:19.000Z</time>
      </trkpt>
      <trkpt lat="45.56005" lon="5.74488">
        <ele>545</ele>
        <time>2019-10-27T09:49:20.000Z</time>
      </trkpt>
      <trkpt lat="45.56006" lon="5.74488">
        <ele>545</ele>
        <time>2019-10-27T09:49:21.000Z</time>
      </trkpt>
      <trkpt lat="45.56007" lon="5.74488">
        <ele>545</ele>
        <time>2019-10-27T09:49:22.000Z</time>
      </trkpt>
      <trkpt lat="45.56009" lon="5.74487">
        <ele>545</ele>
        <time>2019-10-27T09:49:23.000Z</time>
      </trkpt>
      <trkpt lat="45.56009" lon="5.74487">
        <ele>545</ele>
        <time>2019-10-27T09:49:24.000Z</time>
      </trkpt>
      <trkpt lat="45.5601" lon="5.74487">
        <ele>545</ele>
        <time>2019-10-27T09:49:25.000Z</time>
      </trkpt>
      <trkpt lat="45.56011" lon="5.74487">
        <ele>545</ele>
        <time>2019-10-27T09:49:26.000Z</time>
      </trkpt>
      <trkpt lat="45.56012" lon="5.74487">
        <ele>545</ele>
        <time>2019-10-27T09:49:27.000Z</time>
      </trkpt>
      <trkpt lat="45.56013" lon="5.74486">
        <ele>545</ele>
        <time>2019-10-27T09:49:28.000Z</time>
      </trkpt>
      <trkpt lat="45.56014" lon="5.74486">
        <ele>545</ele>
        <time>2019-10-27T09:49:29.000Z</time>
      </trkpt>
      <trkpt lat="45.56015" lon="5.74486">
        <ele>545.5</ele>
        <time>2019-10-27T09:49:30.000Z</time>
      </trkpt>
      <trkpt lat="45.56016" lon="5.74485">
        <ele>546</ele>
        <time>2019-10-27T09:49:31.000Z</time>
      </trkpt>
      <trkpt lat="45.56018" lon="5.74485">
        <ele>546</ele>
        <time>2019-10-27T09:49:32.000Z</time>
      </trkpt>
      <trkpt lat="45.56019" lon="5.74485">
        <ele>546</ele>
        <time>2019-10-27T09:49:33.000Z</time>
      </trkpt>
      <trkpt lat="45.5602" lon="5.74484">
        <ele>546</ele>
        <time>2019-10-27T09:49:34.000Z</time>
      </trkpt>
      <trkpt lat="45.56022" lon="5.74484">
        <ele>546</ele>
        <time>2019-10-27T09:49:35.000Z</time>
      </trkpt>
      <trkpt lat="45.56023" lon="5.74484">
        <ele>546</ele>
        <time>2019-10-27T09:49:36.000Z</time>
      </trkpt>
      <trkpt lat="45.56024" lon="5.74484">
        <ele>546</ele>
        <time>2019-10-27T09:49:37.000Z</time>
      </trkpt>
      <trkpt lat="45.56025" lon="5.74483">
        <ele>546</ele>
        <time>2019-10-27T09:49:38.000Z</time>
      </trkpt>
      <trkpt lat="45.56026" lon="5.74483">
        <ele>546</ele>
        <time>2019-10-27T09:49:39.000Z</time>
      </trkpt>
      <trkpt lat="45.56028" lon="5.74483">
        <ele>546</ele>
        <time>2019-10-27T09:49:40.000Z</time>
      </trkpt>
      <trkpt lat="45.56029" lon="5.74483">
        <ele>546</ele>
        <time>2019-10-27T09:49:41.000Z</time>
      </trkpt>
      <trkpt lat="45.5603" lon="5.74482">
        <ele>547</ele>
        <time>2019-10-27T09:49:42.000Z</time>
      </trkpt>
      <trkpt lat="45.56031" lon="5.74482">
        <ele>547</ele>
        <time>2019-10-27T09:49:43.000Z</time>
      </trkpt>
      <trkpt lat="45.56032" lon="5.74482">
        <ele>547</ele>
        <time>2019-10-27T09:49:44.000Z</time>
      </trkpt>
      <trkpt lat="45.56033" lon="5.74482">
        <ele>547</ele>
        <time>2019-10-27T09:49:45.000Z</time>
      </trkpt>
      <trkpt lat="45.56035" lon="5.74481">
        <ele>547</ele>
        <time>2019-10-27T09:49:46.000Z</time>
      </trkpt>
      <trkpt lat="45.56036" lon="5.74481">
        <ele>547</ele>
        <time>2019-10-27T09:49:47.000Z</time>
      </trkpt>
      <trkpt lat="45.56038" lon="5.74481">
        <ele>547</ele>
        <time>2019-10-27T09:49:48.000Z</time>
      </trkpt>
      <trkpt lat="45.56039" lon="5.74481">
        <ele>547</ele>
        <time>2019-10-27T09:49:49.000Z</time>
      </trkpt>
      <trkpt lat="45.56041" lon="5.74481">
        <ele>548</ele>
        <time>2019-10-27T09:49:50.000Z</time>
      </trkpt>
      <trkpt lat="45.5604" lon="5.74479">
        <ele>548</ele>
        <time>2019-10-27T09:49:51.000Z</time>
      </trkpt>
      <trkpt lat="45.5604" lon="5.74478">
        <ele>548</ele>
        <time>2019-10-27T09:49:52.000Z</time>
      </trkpt>
      <trkpt lat="45.56041" lon="5.74479">
        <ele>548</ele>
        <time>2019-10-27T09:49:53.000Z</time>
      </trkpt>
      <trkpt lat="45.56042" lon="5.74479">
        <ele>548</ele>
        <time>2019-10-27T09:49:54.000Z</time>
      </trkpt>
      <trkpt lat="45.56043" lon="5.74479">
        <ele>548</ele>
        <time>2019-10-27T09:49:55.000Z</time>
      </trkpt>
      <trkpt lat="45.56044" lon="5.74478">
        <ele>548</ele>
        <time>2019-10-27T09:49:56.000Z</time>
      </trkpt>
      <trkpt lat="45.56046" lon="5.74478">
        <ele>548</ele>
        <time>2019-10-27T09:49:57.000Z</time>
      </trkpt>
      <trkpt lat="45.56047" lon="5.74477">
        <ele>548</ele>
        <time>2019-10-27T09:49:58.000Z</time>
      </trkpt>
      <trkpt lat="45.56048" lon="5.74477">
        <ele>548</ele>
        <time>2019-10-27T09:49:59.000Z</time>
      </trkpt>
      <trkpt lat="45.56049" lon="5.74476">
        <ele>548</ele>
        <time>2019-10-27T09:50:00.000Z</time>
      </trkpt>
      <trkpt lat="45.56051" lon="5.74476">
        <ele>548</ele>
        <time>2019-10-27T09:50:01.000Z</time>
      </trkpt>
      <trkpt lat="45.56052" lon="5.74475">
        <ele>548.5</ele>
        <time>2019-10-27T09:50:02.000Z</time>
      </trkpt>
      <trkpt lat="45.56053" lon="5.74475">
        <ele>549</ele>
        <time>2019-10-27T09:50:03.000Z</time>
      </trkpt>
      <trkpt lat="45.56054" lon="5.74474">
        <ele>549</ele>
        <time>2019-10-27T09:50:04.000Z</time>
      </trkpt>
      <trkpt lat="45.56055" lon="5.74474">
        <ele>549</ele>
        <time>2019-10-27T09:50:05.000Z</time>
      </trkpt>
      <trkpt lat="45.56056" lon="5.74474">
        <ele>549</ele>
        <time>2019-10-27T09:50:06.000Z</time>
      </trkpt>
      <trkpt lat="45.56057" lon="5.74473">
        <ele>549</ele>
        <time>2019-10-27T09:50:07.000Z</time>
      </trkpt>
      <trkpt lat="45.56058" lon="5.74473">
        <ele>549</ele>
        <time>2019-10-27T09:50:08.000Z</time>
      </trkpt>
      <trkpt lat="45.5606" lon="5.74473">
        <ele>549</ele>
        <time>2019-10-27T09:50:09.000Z</time>
      </trkpt>
      <trkpt lat="45.56061" lon="5.74472">
        <ele>549</ele>
        <time>2019-10-27T09:50:10.000Z</time>
      </trkpt>
      <trkpt lat="45.56062" lon="5.74472">
        <ele>549</ele>
        <time>2019-10-27T09:50:11.000Z</time>
      </trkpt>
      <trkpt lat="45.56063" lon="5.74472">
        <ele>549</ele>
        <time>2019-10-27T09:50:12.000Z</time>
      </trkpt>
      <trkpt lat="45.56064" lon="5.74472">
        <ele>549</ele>
        <time>2019-10-27T09:50:13.000Z</time>
      </trkpt>
      <trkpt lat="45.56065" lon="5.74472">
        <ele>549</ele>
        <time>2019-10-27T09:50:14.000Z</time>
      </trkpt>
      <trkpt lat="45.56066" lon="5.74472">
        <ele>549</ele>
        <time>2019-10-27T09:50:15.000Z</time>
      </trkpt>
      <trkpt lat="45.56067" lon="5.74472">
        <ele>549.5</ele>
        <time>2019-10-27T09:50:16.000Z</time>
      </trkpt>
      <trkpt lat="45.56067" lon="5.74471">
        <ele>550</ele>
        <time>2019-10-27T09:50:17.000Z</time>
      </trkpt>
      <trkpt lat="45.56068" lon="5.74471">
        <ele>550</ele>
        <time>2019-10-27T09:50:18.000Z</time>
      </trkpt>
      <trkpt lat="45.56068" lon="5.74471">
        <ele>550</ele>
        <time>2019-10-27T09:50:19.000Z</time>
      </trkpt>
      <trkpt lat="45.56068" lon="5.74471">
        <ele>550</ele>
        <time>2019-10-27T09:50:20.000Z</time>
      </trkpt>
      <trkpt lat="45.56069" lon="5.74471">
        <ele>550</ele>
        <time>2019-10-27T09:50:21.000Z</time>
      </trkpt>
      <trkpt lat="45.56069" lon="5.74471">
        <ele>550</ele>
        <time>2019-10-27T09:50:22.000Z</time>
      </trkpt>
      <trkpt lat="45.56069" lon="5.74471">
        <ele>550</ele>
        <time>2019-10-27T09:50:23.000Z</time>
      </trkpt>
      <trkpt lat="45.56069" lon="5.74471">
        <ele>550</ele>
        <time>2019-10-27T09:50:24.000Z</time>
      </trkpt>
      <trkpt lat="45.56069" lon="5.74471">
        <ele>550</ele>
        <time>2019-10-27T09:50:25.000Z</time>
      </trkpt>
      <trkpt lat="45.56068" lon="5.74471">
        <ele>550</ele>
        <time>2019-10-27T09:50:26.000Z</time>
      </trkpt>
      <trkpt lat="45.56068" lon="5.74471">
        <ele>550</ele>
        <time>2019-10-27T09:50:27.000Z</time>
      </trkpt>
      <trkpt lat="45.56068" lon="5.74471">
        <ele>550</ele>
        <time>2019-10-27T09:50:28.000Z</time>
      </trkpt>
      <trkpt lat="45.56068" lon="5.74471">
        <ele>550</ele>
        <time>2019-10-27T09:50:29.000Z</time>
      </trkpt>
      <trkpt lat="45.56068" lon="5.74471">
        <ele>550</ele>
        <time>2019-10-27T09:50:30.000Z</time>
      </trkpt>
      <trkpt lat="45.56068" lon="5.74471">
        <ele>550</ele>
        <time>2019-10-27T09:50:31.000Z</time>
      </trkpt>
      <trkpt lat="45.56068" lon="5.74471">
        <ele>550</ele>
        <time>2019-10-27T09:50:32.000Z</time>
      </trkpt>
      <trkpt lat="45.56068" lon="5.74471">
        <ele>550</ele>
        <time>2019-10-27T09:50:33.000Z</time>
      </trkpt>
      <trkpt lat="45.56068" lon="5.74471">
        <ele>550</ele>
        <time>2019-10-27T09:50:34.000Z</time>
      </trkpt>
      <trkpt lat="45.56068" lon="5.74471">
        <ele>550</ele>
        <time>2019-10-27T09:50:35.000Z</time>
      </trkpt>
      <trkpt lat="45.56068" lon="5.74471">
        <ele>550</ele>
        <time>2019-10-27T09:50:36.000Z</time>
      </trkpt>
      <trkpt lat="45.56068" lon="5.74471">
        <ele>550</ele>
        <time>2019-10-27T09:50:37.000Z</time>
      </trkpt>
      <trkpt lat="45.56068" lon="5.74471">
        <ele>550</ele>
        <time>2019-10-27T09:50:38.000Z</time>
      </trkpt>
      <trkpt lat="45.56068" lon="5.74471">
        <ele>550</ele>
        <time>2019-10-27T09:50:39.000Z</time>
      </trkpt>
      <trkpt lat="45.56068" lon="5.74471">
        <ele>550</ele>
        <time>2019-10-27T09:50:40.000Z</time>
      </trkpt>
      <trkpt lat="45.56068" lon="5.74471">
        <ele>550</ele>
        <time>2019-10-27T09:50:41.000Z</time>
      </trkpt>
      <trkpt lat="45.56068" lon="5.74471">
        <ele>550</ele>
        <time>2019-10-27T09:50:42.000Z</time>
      </trkpt>
      <trkpt lat="45.56068" lon="5.74471">
        <ele>550</ele>
        <time>2019-10-27T09:50:43.000Z</time>
      </trkpt>
      <trkpt lat="45.56068" lon="5.74471">
        <ele>550</ele>
        <time>2019-10-27T09:50:44.000Z</time>
      </trkpt>
      <trkpt lat="45.56068" lon="5.74471">
        <ele>550</ele>
        <time>2019-10-27T09:50:45.000Z</time>
      </trkpt>
      <trkpt lat="45.56068" lon="5.74471">
        <ele>550</ele>
        <time>2019-10-27T09:50:46.000Z</time>
      </trkpt>
      <trkpt lat="45.56068" lon="5.74471">
        <ele>550</ele>
        <time>2019-10-27T09:50:47.000Z</time>
      </trkpt>
      <trkpt lat="45.56068" lon="5.74471">
        <ele>550</ele>
        <time>2019-10-27T09:50:48.000Z</time>
      </trkpt>
      <trkpt lat="45.56068" lon="5.74471">
        <ele>550</ele>
        <time>2019-10-27T09:50:49.000Z</time>
      </trkpt>
      <trkpt lat="45.56068" lon="5.74471">
        <ele>550</ele>
        <time>2019-10-27T09:50:50.000Z</time>
      </trkpt>
      <trkpt lat="45.56068" lon="5.74471">
        <ele>550</ele>
        <time>2019-10-27T09:50:51.000Z</time>
      </trkpt>
      <trkpt lat="45.56068" lon="5.74471">
        <ele>550</ele>
        <time>2019-10-27T09:50:52.000Z</time>
      </trkpt>
      <trkpt lat="45.56068" lon="5.74471">
        <ele>550</ele>
        <time>2019-10-27T09:50:53.000Z</time>
      </trkpt>
      <trkpt lat="45.56068" lon="5.74471">
        <ele>550</ele>
        <time>2019-10-27T09:50:54.000Z</time>
      </trkpt>
      <trkpt lat="45.56068" lon="5.74471">
        <ele>550</ele>
        <time>2019-10-27T09:50:55.000Z</time>
      </trkpt>
      <trkpt lat="45.56068" lon="5.74471">
        <ele>550</ele>
        <time>2019-10-27T09:50:56.000Z</time>
      </trkpt>
      <trkpt lat="45.56068" lon="5.74471">
        <ele>550</ele>
        <time>2019-10-27T09:50:57.000Z</time>
      </trkpt>
      <trkpt lat="45.56068" lon="5.74471">
        <ele>550</ele>
        <time>2019-10-27T09:50:58.000Z</time>
      </trkpt>
      <trkpt lat="45.56068" lon="5.74471">
        <ele>550</ele>
        <time>2019-10-27T09:50:59.000Z</time>
      </trkpt>
      <trkpt lat="45.56068" lon="5.74471">
        <ele>550</ele>
        <time>2019-10-27T09:51:00.000Z</time>
      </trkpt>
      <trkpt lat="45.56068" lon="5.74471">
        <ele>550</ele>
        <time>2019-10-27T09:51:01.000Z</time>
      </trkpt>
      <trkpt lat="45.56068" lon="5.74471">
        <ele>550</ele>
        <time>2019-10-27T09:51:02.000Z</time>
      </trkpt>
      <trkpt lat="45.56068" lon="5.74471">
        <ele>550</ele>
        <time>2019-10-27T09:51:03.000Z</time>
      </trkpt>
      <trkpt lat="45.56068" lon="5.74471">
        <ele>550</ele>
        <time>2019-10-27T09:51:04.000Z</time>
      </trkpt>
      <trkpt lat="45.56068" lon="5.74471">
        <ele>550</ele>
        <time>2019-10-27T09:51:05.000Z</time>
      </trkpt>
      <trkpt lat="45.56068" lon="5.74471">
        <ele>550</ele>
        <time>2019-10-27T09:51:06.000Z</time>
      </trkpt>
      <trkpt lat="45.56068" lon="5.74471">
        <ele>550</ele>
        <time>2019-10-27T09:51:07.000Z</time>
      </trkpt>
      <trkpt lat="45.56068" lon="5.74471">
        <ele>550</ele>
        <time>2019-10-27T09:51:08.000Z</time>
      </trkpt>
      <trkpt lat="45.56069" lon="5.74471">
        <ele>550</ele>
        <time>2019-10-27T09:51:09.000Z</time>
      </trkpt>
      <trkpt lat="45.56069" lon="5.74471">
        <ele>550</ele>
        <time>2019-10-27T09:51:10.000Z</time>
      </trkpt>
      <trkpt lat="45.56069" lon="5.74471">
        <ele>550</ele>
        <time>2019-10-27T09:51:11.000Z</time>
      </trkpt>
      <trkpt lat="45.56069" lon="5.74471">
        <ele>550</ele>
        <time>2019-10-27T09:51:12.000Z</time>
      </trkpt>
      <trkpt lat="45.56069" lon="5.74471">
        <ele>550</ele>
        <time>2019-10-27T09:51:13.000Z</time>
      </trkpt>
      <trkpt lat="45.56069" lon="5.74471">
        <ele>550</ele>
        <time>2019-10-27T09:51:14.000Z</time>
      </trkpt>
      <trkpt lat="45.56069" lon="5.74471">
        <ele>550</ele>
        <time>2019-10-27T09:51:15.000Z</time>
      </trkpt>
      <trkpt lat="45.56069" lon="5.74471">
        <ele>550</ele>
        <time>2019-10-27T09:51:16.000Z</time>
      </trkpt>
      <trkpt lat="45.56069" lon="5.7447">
        <ele>550</ele>
        <time>2019-10-27T09:51:17.000Z</time>
      </trkpt>
      <trkpt lat="45.56069" lon="5.7447">
        <ele>550</ele>
        <time>2019-10-27T09:51:18.000Z</time>
      </trkpt>
      <trkpt lat="45.56069" lon="5.74469">
        <ele>550</ele>
        <time>2019-10-27T09:51:19.000Z</time>
      </trkpt>
      <trkpt lat="45.5607" lon="5.74468">
        <ele>550.5</ele>
        <time>2019-10-27T09:51:20.000Z</time>
      </trkpt>
      <trkpt lat="45.56071" lon="5.74467">
        <ele>551</ele>
        <time>2019-10-27T09:51:21.000Z</time>
      </trkpt>
      <trkpt lat="45.56072" lon="5.74466">
        <ele>551</ele>
        <time>2019-10-27T09:51:22.000Z</time>
      </trkpt>
      <trkpt lat="45.56073" lon="5.74466">
        <ele>551</ele>
        <time>2019-10-27T09:51:23.000Z</time>
      </trkpt>
      <trkpt lat="45.56074" lon="5.74465">
        <ele>551</ele>
        <time>2019-10-27T09:51:24.000Z</time>
      </trkpt>
      <trkpt lat="45.56075" lon="5.74464">
        <ele>551</ele>
        <time>2019-10-27T09:51:25.000Z</time>
      </trkpt>
      <trkpt lat="45.56075" lon="5.74464">
        <ele>551</ele>
        <time>2019-10-27T09:51:26.000Z</time>
      </trkpt>
      <trkpt lat="45.56076" lon="5.74463">
        <ele>551</ele>
        <time>2019-10-27T09:51:27.000Z</time>
      </trkpt>
      <trkpt lat="45.56076" lon="5.74463">
        <ele>551</ele>
        <time>2019-10-27T09:51:28.000Z</time>
      </trkpt>
      <trkpt lat="45.56077" lon="5.74462">
        <ele>551</ele>
        <time>2019-10-27T09:51:29.000Z</time>
      </trkpt>
      <trkpt lat="45.56077" lon="5.74462">
        <ele>552</ele>
        <time>2019-10-27T09:51:30.000Z</time>
      </trkpt>
      <trkpt lat="45.56078" lon="5.74462">
        <ele>551.7</ele>
        <time>2019-10-27T09:51:31.000Z</time>
      </trkpt>
      <trkpt lat="45.56078" lon="5.74462">
        <ele>551.3</ele>
        <time>2019-10-27T09:51:32.000Z</time>
      </trkpt>
      <trkpt lat="45.56078" lon="5.74461">
        <ele>551</ele>
        <time>2019-10-27T09:51:33.000Z</time>
      </trkpt>
      <trkpt lat="45.56078" lon="5.74461">
        <ele>551.5</ele>
        <time>2019-10-27T09:51:34.000Z</time>
      </trkpt>
      <trkpt lat="45.56078" lon="5.74461">
        <ele>552</ele>
        <time>2019-10-27T09:51:35.000Z</time>
      </trkpt>
      <trkpt lat="45.56078" lon="5.74461">
        <ele>552</ele>
        <time>2019-10-27T09:51:36.000Z</time>
      </trkpt>
      <trkpt lat="45.56078" lon="5.74461">
        <ele>552</ele>
        <time>2019-10-27T09:51:37.000Z</time>
      </trkpt>
      <trkpt lat="45.56078" lon="5.74461">
        <ele>552</ele>
        <time>2019-10-27T09:51:38.000Z</time>
      </trkpt>
      <trkpt lat="45.56078" lon="5.74461">
        <ele>552</ele>
        <time>2019-10-27T09:51:39.000Z</time>
      </trkpt>
      <trkpt lat="45.56078" lon="5.74461">
        <ele>552</ele>
        <time>2019-10-27T09:51:40.000Z</time>
      </trkpt>
      <trkpt lat="45.56078" lon="5.74461">
        <ele>552</ele>
        <time>2019-10-27T09:51:41.000Z</time>
      </trkpt>
      <trkpt lat="45.56078" lon="5.74461">
        <ele>552</ele>
        <time>2019-10-27T09:51:42.000Z</time>
      </trkpt>
      <trkpt lat="45.56078" lon="5.74461">
        <ele>552</ele>
        <time>2019-10-27T09:51:43.000Z</time>
      </trkpt>
      <trkpt lat="45.56078" lon="5.74461">
        <ele>552</ele>
        <time>2019-10-27T09:51:44.000Z</time>
      </trkpt>
      <trkpt lat="45.56078" lon="5.74461">
        <ele>552</ele>
        <time>2019-10-27T09:51:45.000Z</time>
      </trkpt>
      <trkpt lat="45.56078" lon="5.74461">
        <ele>552</ele>
        <time>2019-10-27T09:51:46.000Z</time>
      </trkpt>
      <trkpt lat="45.56078" lon="5.74461">
        <ele>552</ele>
        <time>2019-10-27T09:51:47.000Z</time>
      </trkpt>
      <trkpt lat="45.56078" lon="5.7446">
        <ele>552</ele>
        <time>2019-10-27T09:51:48.000Z</time>
      </trkpt>
      <trkpt lat="45.56078" lon="5.7446">
        <ele>552</ele>
        <time>2019-10-27T09:51:49.000Z</time>
      </trkpt>
      <trkpt lat="45.56078" lon="5.7446">
        <ele>551.5</ele>
        <time>2019-10-27T09:51:50.000Z</time>
      </trkpt>
      <trkpt lat="45.56078" lon="5.7446">
        <ele>551</ele>
        <time>2019-10-27T09:51:51.000Z</time>
      </trkpt>
      <trkpt lat="45.56079" lon="5.7446">
        <ele>551.5</ele>
        <time>2019-10-27T09:51:52.000Z</time>
      </trkpt>
      <trkpt lat="45.56079" lon="5.7446">
        <ele>552</ele>
        <time>2019-10-27T09:51:53.000Z</time>
      </trkpt>
      <trkpt lat="45.56079" lon="5.7446">
        <ele>552</ele>
        <time>2019-10-27T09:51:54.000Z</time>
      </trkpt>
      <trkpt lat="45.56079" lon="5.7446">
        <ele>552</ele>
        <time>2019-10-27T09:51:55.000Z</time>
      </trkpt>
      <trkpt lat="45.56079" lon="5.7446">
        <ele>552</ele>
        <time>2019-10-27T09:51:56.000Z</time>
      </trkpt>
      <trkpt lat="45.56079" lon="5.7446">
        <ele>552</ele>
        <time>2019-10-27T09:51:57.000Z</time>
      </trkpt>
      <trkpt lat="45.56079" lon="5.7446">
        <ele>552</ele>
        <time>2019-10-27T09:51:58.000Z</time>
      </trkpt>
      <trkpt lat="45.56079" lon="5.7446">
        <ele>552</ele>
        <time>2019-10-27T09:51:59.000Z</time>
      </trkpt>
      <trkpt lat="45.56079" lon="5.7446">
        <ele>552</ele>
        <time>2019-10-27T09:52:00.000Z</time>
      </trkpt>
      <trkpt lat="45.56079" lon="5.7446">
        <ele>552</ele>
        <time>2019-10-27T09:52:01.000Z</time>
      </trkpt>
      <trkpt lat="45.56079" lon="5.7446">
        <ele>552</ele>
        <time>2019-10-27T09:52:02.000Z</time>
      </trkpt>
      <trkpt lat="45.56079" lon="5.7446">
        <ele>552</ele>
        <time>2019-10-27T09:52:03.000Z</time>
      </trkpt>
      <trkpt lat="45.56079" lon="5.7446">
        <ele>552</ele>
        <time>2019-10-27T09:52:04.000Z</time>
      </trkpt>
      <trkpt lat="45.56079" lon="5.7446">
        <ele>552</ele>
        <time>2019-10-27T09:52:05.000Z</time>
      </trkpt>
      <trkpt lat="45.56079" lon="5.7446">
        <ele>552</ele>
        <time>2019-10-27T09:52:06.000Z</time>
      </trkpt>
      <trkpt lat="45.56079" lon="5.7446">
        <ele>551.7</ele>
        <time>2019-10-27T09:52:07.000Z</time>
      </trkpt>
      <trkpt lat="45.56079" lon="5.7446">
        <ele>551.3</ele>
        <time>2019-10-27T09:52:08.000Z</time>
      </trkpt>
      <trkpt lat="45.5608" lon="5.7446">
        <ele>551</ele>
        <time>2019-10-27T09:52:09.000Z</time>
      </trkpt>
      <trkpt lat="45.5608" lon="5.7446">
        <ele>551</ele>
        <time>2019-10-27T09:52:10.000Z</time>
      </trkpt>
      <trkpt lat="45.56081" lon="5.7446">
        <ele>551</ele>
        <time>2019-10-27T09:52:11.000Z</time>
      </trkpt>
      <trkpt lat="45.56082" lon="5.7446">
        <ele>551</ele>
        <time>2019-10-27T09:52:12.000Z</time>
      </trkpt>
      <trkpt lat="45.56082" lon="5.7446">
        <ele>551</ele>
        <time>2019-10-27T09:52:13.000Z</time>
      </trkpt>
      <trkpt lat="45.56083" lon="5.7446">
        <ele>551</ele>
        <time>2019-10-27T09:52:14.000Z</time>
      </trkpt>
      <trkpt lat="45.56083" lon="5.7446">
        <ele>551</ele>
        <time>2019-10-27T09:52:15.000Z</time>
      </trkpt>
      <trkpt lat="45.56084" lon="5.7446">
        <ele>551</ele>
        <time>2019-10-27T09:52:16.000Z</time>
      </trkpt>
      <trkpt lat="45.56084" lon="5.7446">
        <ele>551</ele>
        <time>2019-10-27T09:52:17.000Z</time>
      </trkpt>
      <trkpt lat="45.56084" lon="5.7446">
        <ele>551</ele>
        <time>2019-10-27T09:52:18.000Z</time>
      </trkpt>
      <trkpt lat="45.56084" lon="5.7446">
        <ele>551</ele>
        <time>2019-10-27T09:52:19.000Z</time>
      </trkpt>
      <trkpt lat="45.56084" lon="5.7446">
        <ele>550.5</ele>
        <time>2019-10-27T09:52:20.000Z</time>
      </trkpt>
      <trkpt lat="45.56084" lon="5.7446">
        <ele>550</ele>
        <time>2019-10-27T09:52:21.000Z</time>
      </trkpt>
      <trkpt lat="45.56084" lon="5.7446">
        <ele>550</ele>
        <time>2019-10-27T09:52:22.000Z</time>
      </trkpt>
      <trkpt lat="45.56084" lon="5.7446">
        <ele>550</ele>
        <time>2019-10-27T09:52:23.000Z</time>
      </trkpt>
      <trkpt lat="45.56084" lon="5.7446">
        <ele>550</ele>
        <time>2019-10-27T09:52:24.000Z</time>
      </trkpt>
      <trkpt lat="45.56084" lon="5.7446">
        <ele>550</ele>
        <time>2019-10-27T09:52:25.000Z</time>
      </trkpt>
      <trkpt lat="45.56084" lon="5.7446">
        <ele>550</ele>
        <time>2019-10-27T09:52:26.000Z</time>
      </trkpt>
      <trkpt lat="45.56084" lon="5.7446">
        <ele>550</ele>
        <time>2019-10-27T09:52:27.000Z</time>
      </trkpt>
      <trkpt lat="45.56084" lon="5.7446">
        <ele>550</ele>
        <time>2019-10-27T09:52:28.000Z</time>
      </trkpt>
      <trkpt lat="45.56084" lon="5.7446">
        <ele>550</ele>
        <time>2019-10-27T09:52:29.000Z</time>
      </trkpt>
      <trkpt lat="45.56084" lon="5.7446">
        <ele>550</ele>
        <time>2019-10-27T09:52:30.000Z</time>
      </trkpt>
      <trkpt lat="45.56084" lon="5.7446">
        <ele>550</ele>
        <time>2019-10-27T09:52:31.000Z</time>
      </trkpt>
      <trkpt lat="45.56084" lon="5.7446">
        <ele>550</ele>
        <time>2019-10-27T09:52:32.000Z</time>
      </trkpt>
      <trkpt lat="45.56084" lon="5.7446">
        <ele>550</ele>
        <time>2019-10-27T09:52:33.000Z</time>
      </trkpt>
      <trkpt lat="45.56084" lon="5.7446">
        <ele>550</ele>
        <time>2019-10-27T09:52:34.000Z</time>
      </trkpt>
      <trkpt lat="45.56084" lon="5.7446">
        <ele>550</ele>
        <time>2019-10-27T09:52:35.000Z</time>
      </trkpt>
      <trkpt lat="45.56084" lon="5.7446">
        <ele>550</ele>
        <time>2019-10-27T09:52:36.000Z</time>
      </trkpt>
      <trkpt lat="45.56084" lon="5.7446">
        <ele>550</ele>
        <time>2019-10-27T09:52:37.000Z</time>
      </trkpt>
      <trkpt lat="45.56084" lon="5.7446">
        <ele>550</ele>
        <time>2019-10-27T09:52:38.000Z</time>
      </trkpt>
      <trkpt lat="45.56084" lon="5.7446">
        <ele>550</ele>
        <time>2019-10-27T09:52:39.000Z</time>
      </trkpt>
      <trkpt lat="45.56084" lon="5.7446">
        <ele>550</ele>
        <time>2019-10-27T09:52:40.000Z</time>
      </trkpt>
      <trkpt lat="45.56084" lon="5.7446">
        <ele>550</ele>
        <time>2019-10-27T09:52:41.000Z</time>
      </trkpt>
      <trkpt lat="45.56084" lon="5.7446">
        <ele>550</ele>
        <time>2019-10-27T09:52:42.000Z</time>
      </trkpt>
      <trkpt lat="45.56084" lon="5.7446">
        <ele>550</ele>
        <time>2019-10-27T09:52:43.000Z</time>
      </trkpt>
      <trkpt lat="45.56084" lon="5.7446">
        <ele>550</ele>
        <time>2019-10-27T09:52:44.000Z</time>
      </trkpt>
      <trkpt lat="45.56084" lon="5.7446">
        <ele>550</ele>
        <time>2019-10-27T09:52:45.000Z</time>
      </trkpt>
      <trkpt lat="45.56084" lon="5.7446">
        <ele>550</ele>
        <time>2019-10-27T09:52:46.000Z</time>
      </trkpt>
      <trkpt lat="45.56084" lon="5.7446">
        <ele>550</ele>
        <time>2019-10-27T09:52:47.000Z</time>
      </trkpt>
      <trkpt lat="45.56084" lon="5.7446">
        <ele>550</ele>
        <time>2019-10-27T09:52:48.000Z</time>
      </trkpt>
      <trkpt lat="45.56084" lon="5.7446">
        <ele>550</ele>
        <time>2019-10-27T09:52:49.000Z</time>
      </trkpt>
      <trkpt lat="45.56084" lon="5.7446">
        <ele>550</ele>
        <time>2019-10-27T09:52:50.000Z</time>
      </trkpt>
      <trkpt lat="45.56084" lon="5.7446">
        <ele>550</ele>
        <time>2019-10-27T09:52:51.000Z</time>
      </trkpt>
      <trkpt lat="45.56084" lon="5.7446">
        <ele>550</ele>
        <time>2019-10-27T09:52:52.000Z</time>
      </trkpt>
      <trkpt lat="45.56084" lon="5.7446">
        <ele>550</ele>
        <time>2019-10-27T09:52:53.000Z</time>
      </trkpt>
      <trkpt lat="45.56084" lon="5.7446">
        <ele>550</ele>
        <time>2019-10-27T09:52:54.000Z</time>
      </trkpt>
      <trkpt lat="45.56084" lon="5.7446">
        <ele>550</ele>
        <time>2019-10-27T09:52:55.000Z</time>
      </trkpt>
      <trkpt lat="45.56085" lon="5.7446">
        <ele>550</ele>
        <time>2019-10-27T09:52:56.000Z</time>
      </trkpt>
      <trkpt lat="45.56085" lon="5.7446">
        <ele>550</ele>
        <time>2019-10-27T09:52:57.000Z</time>
      </trkpt>
      <trkpt lat="45.56086" lon="5.7446">
        <ele>550</ele>
        <time>2019-10-27T09:52:58.000Z</time>
      </trkpt>
      <trkpt lat="45.56086" lon="5.74461">
        <ele>550</ele>
        <time>2019-10-27T09:52:59.000Z</time>
      </trkpt>
      <trkpt lat="45.56087" lon="5.74461">
        <ele>550</ele>
        <time>2019-10-27T09:53:00.000Z</time>
      </trkpt>
      <trkpt lat="45.56087" lon="5.74461">
        <ele>550</ele>
        <time>2019-10-27T09:53:01.000Z</time>
      </trkpt>
      <trkpt lat="45.56087" lon="5.74461">
        <ele>550</ele>
        <time>2019-10-27T09:53:02.000Z</time>
      </trkpt>
      <trkpt lat="45.56088" lon="5.74461">
        <ele>550</ele>
        <time>2019-10-27T09:53:03.000Z</time>
      </trkpt>
      <trkpt lat="45.56088" lon="5.74461">
        <ele>550</ele>
        <time>2019-10-27T09:53:04.000Z</time>
      </trkpt>
      <trkpt lat="45.56088" lon="5.7446">
        <ele>550</ele>
        <time>2019-10-27T09:53:05.000Z</time>
      </trkpt>
      <trkpt lat="45.56088" lon="5.7446">
        <ele>550</ele>
        <time>2019-10-27T09:53:06.000Z</time>
      </trkpt>
      <trkpt lat="45.56088" lon="5.7446">
        <ele>550</ele>
        <time>2019-10-27T09:53:07.000Z</time>
      </trkpt>
      <trkpt lat="45.56088" lon="5.7446">
        <ele>550</ele>
        <time>2019-10-27T09:53:08.000Z</time>
      </trkpt>
      <trkpt lat="45.56088" lon="5.7446">
        <ele>550</ele>
        <time>2019-10-27T09:53:09.000Z</time>
      </trkpt>
      <trkpt lat="45.56088" lon="5.7446">
        <ele>550</ele>
        <time>2019-10-27T09:53:10.000Z</time>
      </trkpt>
      <trkpt lat="45.56088" lon="5.7446">
        <ele>550</ele>
        <time>2019-10-27T09:53:11.000Z</time>
      </trkpt>
      <trkpt lat="45.56088" lon="5.7446">
        <ele>550</ele>
        <time>2019-10-27T09:53:12.000Z</time>
      </trkpt>
      <trkpt lat="45.56088" lon="5.7446">
        <ele>550</ele>
        <time>2019-10-27T09:53:13.000Z</time>
      </trkpt>
      <trkpt lat="45.56088" lon="5.7446">
        <ele>550</ele>
        <time>2019-10-27T09:53:14.000Z</time>
      </trkpt>
      <trkpt lat="45.56088" lon="5.7446">
        <ele>550</ele>
        <time>2019-10-27T09:53:15.000Z</time>
      </trkpt>
      <trkpt lat="45.56088" lon="5.7446">
        <ele>550</ele>
        <time>2019-10-27T09:53:16.000Z</time>
      </trkpt>
      <trkpt lat="45.56088" lon="5.7446">
        <ele>550</ele>
        <time>2019-10-27T09:53:17.000Z</time>
      </trkpt>
      <trkpt lat="45.56088" lon="5.7446">
        <ele>550</ele>
        <time>2019-10-27T09:53:18.000Z</time>
      </trkpt>
      <trkpt lat="45.56088" lon="5.7446">
        <ele>550</ele>
        <time>2019-10-27T09:53:19.000Z</time>
      </trkpt>
      <trkpt lat="45.56088" lon="5.7446">
        <ele>550</ele>
        <time>2019-10-27T09:53:20.000Z</time>
      </trkpt>
      <trkpt lat="45.56088" lon="5.7446">
        <ele>550</ele>
        <time>2019-10-27T09:53:21.000Z</time>
      </trkpt>
      <trkpt lat="45.56088" lon="5.7446">
        <ele>550</ele>
        <time>2019-10-27T09:53:22.000Z</time>
      </trkpt>
      <trkpt lat="45.56088" lon="5.7446">
        <ele>550</ele>
        <time>2019-10-27T09:53:23.000Z</time>
      </trkpt>
      <trkpt lat="45.56088" lon="5.7446">
        <ele>551</ele>
        <time>2019-10-27T09:53:24.000Z</time>
      </trkpt>
      <trkpt lat="45.56088" lon="5.7446">
        <ele>550</ele>
        <time>2019-10-27T09:53:25.000Z</time>
      </trkpt>
      <trkpt lat="45.56088" lon="5.7446">
        <ele>550</ele>
        <time>2019-10-27T09:53:26.000Z</time>
      </trkpt>
      <trkpt lat="45.56088" lon="5.7446">
        <ele>550</ele>
        <time>2019-10-27T09:53:27.000Z</time>
      </trkpt>
      <trkpt lat="45.56088" lon="5.7446">
        <ele>550</ele>
        <time>2019-10-27T09:53:28.000Z</time>
      </trkpt>
      <trkpt lat="45.56088" lon="5.7446">
        <ele>550</ele>
        <time>2019-10-27T09:53:29.000Z</time>
      </trkpt>
      <trkpt lat="45.56088" lon="5.7446">
        <ele>550</ele>
        <time>2019-10-27T09:53:30.000Z</time>
      </trkpt>
      <trkpt lat="45.56088" lon="5.7446">
        <ele>550</ele>
        <time>2019-10-27T09:53:31.000Z</time>
      </trkpt>
      <trkpt lat="45.56088" lon="5.7446">
        <ele>550</ele>
        <time>2019-10-27T09:53:32.000Z</time>
      </trkpt>
      <trkpt lat="45.56088" lon="5.7446">
        <ele>550</ele>
        <time>2019-10-27T09:53:33.000Z</time>
      </trkpt>
      <trkpt lat="45.56088" lon="5.7446">
        <ele>550</ele>
        <time>2019-10-27T09:53:34.000Z</time>
      </trkpt>
      <trkpt lat="45.56088" lon="5.7446">
        <ele>550</ele>
        <time>2019-10-27T09:53:35.000Z</time>
      </trkpt>
      <trkpt lat="45.56088" lon="5.7446">
        <ele>550</ele>
        <time>2019-10-27T09:53:36.000Z</time>
      </trkpt>
      <trkpt lat="45.56088" lon="5.7446">
        <ele>550</ele>
        <time>2019-10-27T09:53:37.000Z</time>
      </trkpt>
      <trkpt lat="45.56088" lon="5.7446">
        <ele>550</ele>
        <time>2019-10-27T09:53:38.000Z</time>
      </trkpt>
      <trkpt lat="45.56088" lon="5.7446">
        <ele>550</ele>
        <time>2019-10-27T09:53:39.000Z</time>
      </trkpt>
      <trkpt lat="45.56088" lon="5.7446">
        <ele>550</ele>
        <time>2019-10-27T09:53:40.000Z</time>
      </trkpt>
      <trkpt lat="45.56088" lon="5.7446">
        <ele>550</ele>
        <time>2019-10-27T09:53:41.000Z</time>
      </trkpt>
      <trkpt lat="45.56088" lon="5.7446">
        <ele>550</ele>
        <time>2019-10-27T09:53:42.000Z</time>
      </trkpt>
      <trkpt lat="45.56088" lon="5.7446">
        <ele>550</ele>
        <time>2019-10-27T09:53:43.000Z</time>
      </trkpt>
      <trkpt lat="45.56088" lon="5.7446">
        <ele>550</ele>
        <time>2019-10-27T09:53:44.000Z</time>
      </trkpt>
      <trkpt lat="45.56088" lon="5.7446">
        <ele>550</ele>
        <time>2019-10-27T09:53:45.000Z</time>
      </trkpt>
      <trkpt lat="45.56088" lon="5.7446">
        <ele>550</ele>
        <time>2019-10-27T09:53:46.000Z</time>
      </trkpt>
      <trkpt lat="45.56088" lon="5.7446">
        <ele>550</ele>
        <time>2019-10-27T09:53:47.000Z</time>
      </trkpt>
      <trkpt lat="45.56088" lon="5.7446">
        <ele>550</ele>
        <time>2019-10-27T09:53:48.000Z</time>
      </trkpt>
      <trkpt lat="45.56088" lon="5.7446">
        <ele>550</ele>
        <time>2019-10-27T09:53:49.000Z</time>
      </trkpt>
      <trkpt lat="45.56088" lon="5.7446">
        <ele>550</ele>
        <time>2019-10-27T09:53:50.000Z</time>
      </trkpt>
      <trkpt lat="45.56088" lon="5.7446">
        <ele>550</ele>
        <time>2019-10-27T09:53:51.000Z</time>
      </trkpt>
      <trkpt lat="45.56088" lon="5.7446">
        <ele>550</ele>
        <time>2019-10-27T09:53:52.000Z</time>
      </trkpt>
      <trkpt lat="45.56088" lon="5.7446">
        <ele>550</ele>
        <time>2019-10-27T09:53:53.000Z</time>
      </trkpt>
      <trkpt lat="45.56089" lon="5.74459">
        <ele>550</ele>
        <time>2019-10-27T09:53:54.000Z</time>
      </trkpt>
      <trkpt lat="45.56089" lon="5.74458">
        <ele>550</ele>
        <time>2019-10-27T09:53:55.000Z</time>
      </trkpt>
      <trkpt lat="45.5609" lon="5.74457">
        <ele>550</ele>
        <time>2019-10-27T09:53:56.000Z</time>
      </trkpt>
      <trkpt lat="45.5609" lon="5.74456">
        <ele>550</ele>
        <time>2019-10-27T09:53:57.000Z</time>
      </trkpt>
      <trkpt lat="45.56091" lon="5.74455">
        <ele>549.5</ele>
        <time>2019-10-27T09:53:58.000Z</time>
      </trkpt>
      <trkpt lat="45.56091" lon="5.74454">
        <ele>549</ele>
        <time>2019-10-27T09:53:59.000Z</time>
      </trkpt>
      <trkpt lat="45.56091" lon="5.74453">
        <ele>549</ele>
        <time>2019-10-27T09:54:00.000Z</time>
      </trkpt>
      <trkpt lat="45.56092" lon="5.74452">
        <ele>549</ele>
        <time>2019-10-27T09:54:01.000Z</time>
      </trkpt>
      <trkpt lat="45.56092" lon="5.74452">
        <ele>549</ele>
        <time>2019-10-27T09:54:02.000Z</time>
      </trkpt>
      <trkpt lat="45.56092" lon="5.74451">
        <ele>549</ele>
        <time>2019-10-27T09:54:03.000Z</time>
      </trkpt>
      <trkpt lat="45.56092" lon="5.7445">
        <ele>548.5</ele>
        <time>2019-10-27T09:54:04.000Z</time>
      </trkpt>
      <trkpt lat="45.56092" lon="5.74449">
        <ele>548</ele>
        <time>2019-10-27T09:54:05.000Z</time>
      </trkpt>
      <trkpt lat="45.56092" lon="5.74447">
        <ele>548</ele>
        <time>2019-10-27T09:54:06.000Z</time>
      </trkpt>
      <trkpt lat="45.56093" lon="5.74446">
        <ele>548</ele>
        <time>2019-10-27T09:54:07.000Z</time>
      </trkpt>
      <trkpt lat="45.56093" lon="5.74444">
        <ele>547.5</ele>
        <time>2019-10-27T09:54:08.000Z</time>
      </trkpt>
      <trkpt lat="45.56093" lon="5.74443">
        <ele>547</ele>
        <time>2019-10-27T09:54:09.000Z</time>
      </trkpt>
      <trkpt lat="45.56093" lon="5.74441">
        <ele>547</ele>
        <time>2019-10-27T09:54:10.000Z</time>
      </trkpt>
      <trkpt lat="45.56094" lon="5.7444">
        <ele>547</ele>
        <time>2019-10-27T09:54:11.000Z</time>
      </trkpt>
      <trkpt lat="45.56094" lon="5.74438">
        <ele>547</ele>
        <time>2019-10-27T09:54:12.000Z</time>
      </trkpt>
      <trkpt lat="45.56095" lon="5.74437">
        <ele>547</ele>
        <time>2019-10-27T09:54:13.000Z</time>
      </trkpt>
      <trkpt lat="45.56095" lon="5.74435">
        <ele>546</ele>
        <time>2019-10-27T09:54:14.000Z</time>
      </trkpt>
      <trkpt lat="45.56096" lon="5.74434">
        <ele>546</ele>
        <time>2019-10-27T09:54:15.000Z</time>
      </trkpt>
      <trkpt lat="45.56096" lon="5.74433">
        <ele>546</ele>
        <time>2019-10-27T09:54:16.000Z</time>
      </trkpt>
      <trkpt lat="45.56096" lon="5.74432">
        <ele>546</ele>
        <time>2019-10-27T09:54:17.000Z</time>
      </trkpt>
      <trkpt lat="45.56097" lon="5.74431">
        <ele>546</ele>
        <time>2019-10-27T09:54:18.000Z</time>
      </trkpt>
      <trkpt lat="45.56097" lon="5.7443">
        <ele>546</ele>
        <time>2019-10-27T09:54:19.000Z</time>
      </trkpt>
      <trkpt lat="45.56098" lon="5.74429">
        <ele>546</ele>
        <time>2019-10-27T09:54:20.000Z</time>
      </trkpt>
      <trkpt lat="45.56099" lon="5.74428">
        <ele>546</ele>
        <time>2019-10-27T09:54:21.000Z</time>
      </trkpt>
      <trkpt lat="45.561" lon="5.74427">
        <ele>545.5</ele>
        <time>2019-10-27T09:54:22.000Z</time>
      </trkpt>
      <trkpt lat="45.56101" lon="5.74425">
        <ele>545</ele>
        <time>2019-10-27T09:54:23.000Z</time>
      </trkpt>
      <trkpt lat="45.56102" lon="5.74424">
        <ele>545</ele>
        <time>2019-10-27T09:54:24.000Z</time>
      </trkpt>
      <trkpt lat="45.56102" lon="5.74422">
        <ele>545</ele>
        <time>2019-10-27T09:54:25.000Z</time>
      </trkpt>
      <trkpt lat="45.56103" lon="5.7442">
        <ele>545</ele>
        <time>2019-10-27T09:54:26.000Z</time>
      </trkpt>
      <trkpt lat="45.56104" lon="5.74419">
        <ele>545</ele>
        <time>2019-10-27T09:54:27.000Z</time>
      </trkpt>
      <trkpt lat="45.56104" lon="5.74418">
        <ele>545</ele>
        <time>2019-10-27T09:54:28.000Z</time>
      </trkpt>
      <trkpt lat="45.56105" lon="5.74417">
        <ele>545</ele>
        <time>2019-10-27T09:54:29.000Z</time>
      </trkpt>
      <trkpt lat="45.56105" lon="5.74416">
        <ele>545</ele>
        <time>2019-10-27T09:54:30.000Z</time>
      </trkpt>
      <trkpt lat="45.56105" lon="5.74416">
        <ele>545</ele>
        <time>2019-10-27T09:54:31.000Z</time>
      </trkpt>
      <trkpt lat="45.56105" lon="5.74415">
        <ele>545</ele>
        <time>2019-10-27T09:54:32.000Z</time>
      </trkpt>
      <trkpt lat="45.56106" lon="5.74415">
        <ele>545</ele>
        <time>2019-10-27T09:54:33.000Z</time>
      </trkpt>
      <trkpt lat="45.56106" lon="5.74414">
        <ele>545</ele>
        <time>2019-10-27T09:54:34.000Z</time>
      </trkpt>
      <trkpt lat="45.56107" lon="5.74413">
        <ele>545</ele>
        <time>2019-10-27T09:54:35.000Z</time>
      </trkpt>
      <trkpt lat="45.56107" lon="5.74412">
        <ele>545</ele>
        <time>2019-10-27T09:54:36.000Z</time>
      </trkpt>
      <trkpt lat="45.56108" lon="5.74411">
        <ele>545</ele>
        <time>2019-10-27T09:54:37.000Z</time>
      </trkpt>
      <trkpt lat="45.5611" lon="5.7441">
        <ele>545</ele>
        <time>2019-10-27T09:54:38.000Z</time>
      </trkpt>
      <trkpt lat="45.56111" lon="5.74409">
        <ele>545</ele>
        <time>2019-10-27T09:54:39.000Z</time>
      </trkpt>
      <trkpt lat="45.56112" lon="5.74408">
        <ele>545</ele>
        <time>2019-10-27T09:54:40.000Z</time>
      </trkpt>
      <trkpt lat="45.56113" lon="5.74408">
        <ele>545</ele>
        <time>2019-10-27T09:54:41.000Z</time>
      </trkpt>
      <trkpt lat="45.56114" lon="5.74407">
        <ele>545</ele>
        <time>2019-10-27T09:54:42.000Z</time>
      </trkpt>
      <trkpt lat="45.56115" lon="5.74407">
        <ele>545</ele>
        <time>2019-10-27T09:54:43.000Z</time>
      </trkpt>
      <trkpt lat="45.56116" lon="5.74406">
        <ele>545</ele>
        <time>2019-10-27T09:54:44.000Z</time>
      </trkpt>
      <trkpt lat="45.56117" lon="5.74405">
        <ele>545</ele>
        <time>2019-10-27T09:54:45.000Z</time>
      </trkpt>
      <trkpt lat="45.56118" lon="5.74404">
        <ele>545</ele>
        <time>2019-10-27T09:54:46.000Z</time>
      </trkpt>
      <trkpt lat="45.56119" lon="5.74404">
        <ele>545</ele>
        <time>2019-10-27T09:54:47.000Z</time>
      </trkpt>
      <trkpt lat="45.56121" lon="5.74403">
        <ele>545</ele>
        <time>2019-10-27T09:54:48.000Z</time>
      </trkpt>
      <trkpt lat="45.56122" lon="5.74403">
        <ele>545</ele>
        <time>2019-10-27T09:54:49.000Z</time>
      </trkpt>
      <trkpt lat="45.56123" lon="5.74403">
        <ele>545</ele>
        <time>2019-10-27T09:54:50.000Z</time>
      </trkpt>
      <trkpt lat="45.56125" lon="5.74402">
        <ele>545</ele>
        <time>2019-10-27T09:54:51.000Z</time>
      </trkpt>
      <trkpt lat="45.56127" lon="5.74402">
        <ele>545</ele>
        <time>2019-10-27T09:54:52.000Z</time>
      </trkpt>
      <trkpt lat="45.56128" lon="5.74401">
        <ele>545</ele>
        <time>2019-10-27T09:54:53.000Z</time>
      </trkpt>
      <trkpt lat="45.5613" lon="5.74401">
        <ele>545</ele>
        <time>2019-10-27T09:54:54.000Z</time>
      </trkpt>
      <trkpt lat="45.56131" lon="5.74401">
        <ele>545</ele>
        <time>2019-10-27T09:54:55.000Z</time>
      </trkpt>
      <trkpt lat="45.56132" lon="5.744">
        <ele>545</ele>
        <time>2019-10-27T09:54:56.000Z</time>
      </trkpt>
      <trkpt lat="45.56133" lon="5.744">
        <ele>545</ele>
        <time>2019-10-27T09:54:57.000Z</time>
      </trkpt>
      <trkpt lat="45.56135" lon="5.74401">
        <ele>544</ele>
        <time>2019-10-27T09:54:58.000Z</time>
      </trkpt>
      <trkpt lat="45.56136" lon="5.74401">
        <ele>544</ele>
        <time>2019-10-27T09:54:59.000Z</time>
      </trkpt>
      <trkpt lat="45.56137" lon="5.74401">
        <ele>544</ele>
        <time>2019-10-27T09:55:00.000Z</time>
      </trkpt>
      <trkpt lat="45.56139" lon="5.74401">
        <ele>544</ele>
        <time>2019-10-27T09:55:01.000Z</time>
      </trkpt>
      <trkpt lat="45.5614" lon="5.74401">
        <ele>544</ele>
        <time>2019-10-27T09:55:02.000Z</time>
      </trkpt>
      <trkpt lat="45.56141" lon="5.74401">
        <ele>544</ele>
        <time>2019-10-27T09:55:03.000Z</time>
      </trkpt>
      <trkpt lat="45.56142" lon="5.74401">
        <ele>544</ele>
        <time>2019-10-27T09:55:04.000Z</time>
      </trkpt>
      <trkpt lat="45.56143" lon="5.74401">
        <ele>544</ele>
        <time>2019-10-27T09:55:05.000Z</time>
      </trkpt>
      <trkpt lat="45.56144" lon="5.74402">
        <ele>544</ele>
        <time>2019-10-27T09:55:06.000Z</time>
      </trkpt>
      <trkpt lat="45.56145" lon="5.74402">
        <ele>544</ele>
        <time>2019-10-27T09:55:07.000Z</time>
      </trkpt>
      <trkpt lat="45.56146" lon="5.74402">
        <ele>544</ele>
        <time>2019-10-27T09:55:08.000Z</time>
      </trkpt>
      <trkpt lat="45.56147" lon="5.74403">
        <ele>544</ele>
        <time>2019-10-27T09:55:09.000Z</time>
      </trkpt>
      <trkpt lat="45.56148" lon="5.74403">
        <ele>544</ele>
        <time>2019-10-27T09:55:10.000Z</time>
      </trkpt>
      <trkpt lat="45.56149" lon="5.74403">
        <ele>544</ele>
        <time>2019-10-27T09:55:11.000Z</time>
      </trkpt>
      <trkpt lat="45.5615" lon="5.74404">
        <ele>544</ele>
        <time>2019-10-27T09:55:12.000Z</time>
      </trkpt>
      <trkpt lat="45.56152" lon="5.74404">
        <ele>544</ele>
        <time>2019-10-27T09:55:13.000Z</time>
      </trkpt>
      <trkpt lat="45.56153" lon="5.74404">
        <ele>544</ele>
        <time>2019-10-27T09:55:14.000Z</time>
      </trkpt>
      <trkpt lat="45.56154" lon="5.74404">
        <ele>544</ele>
        <time>2019-10-27T09:55:15.000Z</time>
      </trkpt>
      <trkpt lat="45.56155" lon="5.74404">
        <ele>544</ele>
        <time>2019-10-27T09:55:16.000Z</time>
      </trkpt>
      <trkpt lat="45.56156" lon="5.74405">
        <ele>544</ele>
        <time>2019-10-27T09:55:17.000Z</time>
      </trkpt>
      <trkpt lat="45.56158" lon="5.74405">
        <ele>544</ele>
        <time>2019-10-27T09:55:18.000Z</time>
      </trkpt>
      <trkpt lat="45.56159" lon="5.74405">
        <ele>544</ele>
        <time>2019-10-27T09:55:19.000Z</time>
      </trkpt>
      <trkpt lat="45.5616" lon="5.74405">
        <ele>544</ele>
        <time>2019-10-27T09:55:20.000Z</time>
      </trkpt>
      <trkpt lat="45.56161" lon="5.74405">
        <ele>544</ele>
        <time>2019-10-27T09:55:21.000Z</time>
      </trkpt>
      <trkpt lat="45.56162" lon="5.74405">
        <ele>544</ele>
        <time>2019-10-27T09:55:22.000Z</time>
      </trkpt>
      <trkpt lat="45.56163" lon="5.74405">
        <ele>544</ele>
        <time>2019-10-27T09:55:23.000Z</time>
      </trkpt>
      <trkpt lat="45.56165" lon="5.74405">
        <ele>544</ele>
        <time>2019-10-27T09:55:24.000Z</time>
      </trkpt>
      <trkpt lat="45.56166" lon="5.74405">
        <ele>544</ele>
        <time>2019-10-27T09:55:25.000Z</time>
      </trkpt>
      <trkpt lat="45.56166" lon="5.74406">
        <ele>544</ele>
        <time>2019-10-27T09:55:26.000Z</time>
      </trkpt>
      <trkpt lat="45.56167" lon="5.74406">
        <ele>544</ele>
        <time>2019-10-27T09:55:27.000Z</time>
      </trkpt>
      <trkpt lat="45.56168" lon="5.74406">
        <ele>544.5</ele>
        <time>2019-10-27T09:55:28.000Z</time>
      </trkpt>
      <trkpt lat="45.56168" lon="5.74406">
        <ele>545</ele>
        <time>2019-10-27T09:55:29.000Z</time>
      </trkpt>
      <trkpt lat="45.56169" lon="5.74406">
        <ele>545</ele>
        <time>2019-10-27T09:55:30.000Z</time>
      </trkpt>
      <trkpt lat="45.56169" lon="5.74406">
        <ele>545</ele>
        <time>2019-10-27T09:55:31.000Z</time>
      </trkpt>
      <trkpt lat="45.56169" lon="5.74406">
        <ele>545</ele>
        <time>2019-10-27T09:55:32.000Z</time>
      </trkpt>
      <trkpt lat="45.5617" lon="5.74406">
        <ele>545</ele>
        <time>2019-10-27T09:55:33.000Z</time>
      </trkpt>
      <trkpt lat="45.5617" lon="5.74406">
        <ele>545</ele>
        <time>2019-10-27T09:55:34.000Z</time>
      </trkpt>
      <trkpt lat="45.5617" lon="5.74406">
        <ele>545</ele>
        <time>2019-10-27T09:55:35.000Z</time>
      </trkpt>
      <trkpt lat="45.5617" lon="5.74406">
        <ele>545</ele>
        <time>2019-10-27T09:55:36.000Z</time>
      </trkpt>
      <trkpt lat="45.5617" lon="5.74406">
        <ele>545</ele>
        <time>2019-10-27T09:55:37.000Z</time>
      </trkpt>
      <trkpt lat="45.5617" lon="5.74406">
        <ele>545</ele>
        <time>2019-10-27T09:55:38.000Z</time>
      </trkpt>
      <trkpt lat="45.5617" lon="5.74406">
        <ele>545</ele>
        <time>2019-10-27T09:55:39.000Z</time>
      </trkpt>
      <trkpt lat="45.5617" lon="5.74406">
        <ele>545</ele>
        <time>2019-10-27T09:55:40.000Z</time>
      </trkpt>
      <trkpt lat="45.5617" lon="5.74406">
        <ele>545</ele>
        <time>2019-10-27T09:55:41.000Z</time>
      </trkpt>
      <trkpt lat="45.5617" lon="5.74406">
        <ele>545</ele>
        <time>2019-10-27T09:55:42.000Z</time>
      </trkpt>
      <trkpt lat="45.5617" lon="5.74406">
        <ele>545</ele>
        <time>2019-10-27T09:55:43.000Z</time>
      </trkpt>
      <trkpt lat="45.5617" lon="5.74406">
        <ele>545</ele>
        <time>2019-10-27T09:55:44.000Z</time>
      </trkpt>
      <trkpt lat="45.5617" lon="5.74406">
        <ele>545</ele>
        <time>2019-10-27T09:55:45.000Z</time>
      </trkpt>
      <trkpt lat="45.5617" lon="5.74406">
        <ele>545</ele>
        <time>2019-10-27T09:55:46.000Z</time>
      </trkpt>
      <trkpt lat="45.5617" lon="5.74406">
        <ele>545</ele>
        <time>2019-10-27T09:55:47.000Z</time>
      </trkpt>
      <trkpt lat="45.5617" lon="5.74406">
        <ele>545</ele>
        <time>2019-10-27T09:55:48.000Z</time>
      </trkpt>
      <trkpt lat="45.5617" lon="5.74406">
        <ele>545</ele>
        <time>2019-10-27T09:55:49.000Z</time>
      </trkpt>
      <trkpt lat="45.5617" lon="5.74406">
        <ele>545</ele>
        <time>2019-10-27T09:55:50.000Z</time>
      </trkpt>
      <trkpt lat="45.5617" lon="5.74406">
        <ele>545</ele>
        <time>2019-10-27T09:55:51.000Z</time>
      </trkpt>
      <trkpt lat="45.5617" lon="5.74406">
        <ele>545</ele>
        <time>2019-10-27T09:55:52.000Z</time>
      </trkpt>
      <trkpt lat="45.5617" lon="5.74406">
        <ele>545</ele>
        <time>2019-10-27T09:55:53.000Z</time>
      </trkpt>
      <trkpt lat="45.5617" lon="5.74406">
        <ele>545</ele>
        <time>2019-10-27T09:55:54.000Z</time>
      </trkpt>
      <trkpt lat="45.5617" lon="5.74406">
        <ele>545</ele>
        <time>2019-10-27T09:55:55.000Z</time>
      </trkpt>
      <trkpt lat="45.5617" lon="5.74406">
        <ele>545</ele>
        <time>2019-10-27T09:55:56.000Z</time>
      </trkpt>
      <trkpt lat="45.5617" lon="5.74406">
        <ele>545</ele>
        <time>2019-10-27T09:55:57.000Z</time>
      </trkpt>
      <trkpt lat="45.5617" lon="5.74406">
        <ele>545</ele>
        <time>2019-10-27T09:55:58.000Z</time>
      </trkpt>
      <trkpt lat="45.5617" lon="5.74406">
        <ele>545</ele>
        <time>2019-10-27T09:55:59.000Z</time>
      </trkpt>
      <trkpt lat="45.5617" lon="5.74406">
        <ele>545</ele>
        <time>2019-10-27T09:56:00.000Z</time>
      </trkpt>
      <trkpt lat="45.5617" lon="5.74406">
        <ele>545</ele>
        <time>2019-10-27T09:56:01.000Z</time>
      </trkpt>
      <trkpt lat="45.5617" lon="5.74406">
        <ele>545</ele>
        <time>2019-10-27T09:56:02.000Z</time>
      </trkpt>
      <trkpt lat="45.5617" lon="5.74406">
        <ele>545</ele>
        <time>2019-10-27T09:56:03.000Z</time>
      </trkpt>
      <trkpt lat="45.5617" lon="5.74406">
        <ele>545</ele>
        <time>2019-10-27T09:56:04.000Z</time>
      </trkpt>
      <trkpt lat="45.5617" lon="5.74406">
        <ele>545</ele>
        <time>2019-10-27T09:56:05.000Z</time>
      </trkpt>
      <trkpt lat="45.5617" lon="5.74406">
        <ele>545</ele>
        <time>2019-10-27T09:56:06.000Z</time>
      </trkpt>
      <trkpt lat="45.5617" lon="5.74406">
        <ele>545</ele>
        <time>2019-10-27T09:56:07.000Z</time>
      </trkpt>
      <trkpt lat="45.5617" lon="5.74406">
        <ele>545</ele>
        <time>2019-10-27T09:56:08.000Z</time>
      </trkpt>
      <trkpt lat="45.5617" lon="5.74406">
        <ele>545</ele>
        <time>2019-10-27T09:56:09.000Z</time>
      </trkpt>
      <trkpt lat="45.5617" lon="5.74406">
        <ele>545</ele>
        <time>2019-10-27T09:56:10.000Z</time>
      </trkpt>
      <trkpt lat="45.5617" lon="5.74406">
        <ele>545</ele>
        <time>2019-10-27T09:56:11.000Z</time>
      </trkpt>
      <trkpt lat="45.5617" lon="5.74406">
        <ele>545</ele>
        <time>2019-10-27T09:56:12.000Z</time>
      </trkpt>
      <trkpt lat="45.5617" lon="5.74406">
        <ele>545</ele>
        <time>2019-10-27T09:56:13.000Z</time>
      </trkpt>
      <trkpt lat="45.5617" lon="5.74406">
        <ele>545</ele>
        <time>2019-10-27T09:56:14.000Z</time>
      </trkpt>
      <trkpt lat="45.5617" lon="5.74406">
        <ele>545</ele>
        <time>2019-10-27T09:56:15.000Z</time>
      </trkpt>
      <trkpt lat="45.5617" lon="5.74406">
        <ele>545</ele>
        <time>2019-10-27T09:56:16.000Z</time>
      </trkpt>
      <trkpt lat="45.5617" lon="5.74406">
        <ele>545</ele>
        <time>2019-10-27T09:56:17.000Z</time>
      </trkpt>
      <trkpt lat="45.5617" lon="5.74406">
        <ele>545</ele>
        <time>2019-10-27T09:56:18.000Z</time>
      </trkpt>
      <trkpt lat="45.5617" lon="5.74406">
        <ele>545</ele>
        <time>2019-10-27T09:56:19.000Z</time>
      </trkpt>
      <trkpt lat="45.5617" lon="5.74406">
        <ele>545</ele>
        <time>2019-10-27T09:56:20.000Z</time>
      </trkpt>
      <trkpt lat="45.5617" lon="5.74406">
        <ele>545</ele>
        <time>2019-10-27T09:56:21.000Z</time>
      </trkpt>
      <trkpt lat="45.5617" lon="5.74406">
        <ele>545</ele>
        <time>2019-10-27T09:56:22.000Z</time>
      </trkpt>
      <trkpt lat="45.5617" lon="5.74406">
        <ele>545</ele>
        <time>2019-10-27T09:56:23.000Z</time>
      </trkpt>
      <trkpt lat="45.5617" lon="5.74406">
        <ele>545</ele>
        <time>2019-10-27T09:56:24.000Z</time>
      </trkpt>
      <trkpt lat="45.5617" lon="5.74406">
        <ele>545</ele>
        <time>2019-10-27T09:56:25.000Z</time>
      </trkpt>
      <trkpt lat="45.5617" lon="5.74406">
        <ele>545</ele>
        <time>2019-10-27T09:56:26.000Z</time>
      </trkpt>
      <trkpt lat="45.5617" lon="5.74406">
        <ele>545</ele>
        <time>2019-10-27T09:56:27.000Z</time>
      </trkpt>
      <trkpt lat="45.5617" lon="5.74406">
        <ele>545</ele>
        <time>2019-10-27T09:56:28.000Z</time>
      </trkpt>
      <trkpt lat="45.5617" lon="5.74406">
        <ele>545</ele>
        <time>2019-10-27T09:56:29.000Z</time>
      </trkpt>
      <trkpt lat="45.5617" lon="5.74406">
        <ele>545</ele>
        <time>2019-10-27T09:56:30.000Z</time>
      </trkpt>
      <trkpt lat="45.5617" lon="5.74406">
        <ele>545</ele>
        <time>2019-10-27T09:56:31.000Z</time>
      </trkpt>
      <trkpt lat="45.5617" lon="5.74406">
        <ele>544</ele>
        <time>2019-10-27T09:56:32.000Z</time>
      </trkpt>
      <trkpt lat="45.5617" lon="5.74406">
        <ele>544</ele>
        <time>2019-10-27T09:56:33.000Z</time>
      </trkpt>
      <trkpt lat="45.5617" lon="5.74406">
        <ele>544</ele>
        <time>2019-10-27T09:56:34.000Z</time>
      </trkpt>
      <trkpt lat="45.5617" lon="5.74406">
        <ele>544</ele>
        <time>2019-10-27T09:56:35.000Z</time>
      </trkpt>
      <trkpt lat="45.5617" lon="5.74406">
        <ele>544</ele>
        <time>2019-10-27T09:56:36.000Z</time>
      </trkpt>
      <trkpt lat="45.5617" lon="5.74406">
        <ele>544</ele>
        <time>2019-10-27T09:56:37.000Z</time>
      </trkpt>
      <trkpt lat="45.5617" lon="5.74406">
        <ele>544</ele>
        <time>2019-10-27T09:56:38.000Z</time>
      </trkpt>
      <trkpt lat="45.5617" lon="5.74406">
        <ele>544.3</ele>
        <time>2019-10-27T09:56:39.000Z</time>
      </trkpt>
      <trkpt lat="45.5617" lon="5.74406">
        <ele>544.7</ele>
        <time>2019-10-27T09:56:40.000Z</time>
      </trkpt>
      <trkpt lat="45.5617" lon="5.74406">
        <ele>545</ele>
        <time>2019-10-27T09:56:41.000Z</time>
      </trkpt>
      <trkpt lat="45.5617" lon="5.74406">
        <ele>544</ele>
        <time>2019-10-27T09:56:42.000Z</time>
      </trkpt>
      <trkpt lat="45.5617" lon="5.74406">
        <ele>544</ele>
        <time>2019-10-27T09:56:43.000Z</time>
      </trkpt>
      <trkpt lat="45.5617" lon="5.74406">
        <ele>544</ele>
        <time>2019-10-27T09:56:44.000Z</time>
      </trkpt>
      <trkpt lat="45.5617" lon="5.74406">
        <ele>544</ele>
        <time>2019-10-27T09:56:45.000Z</time>
      </trkpt>
      <trkpt lat="45.5617" lon="5.74406">
        <ele>544.5</ele>
        <time>2019-10-27T09:56:46.000Z</time>
      </trkpt>
      <trkpt lat="45.5617" lon="5.74406">
        <ele>545</ele>
        <time>2019-10-27T09:56:47.000Z</time>
      </trkpt>
      <trkpt lat="45.5617" lon="5.74406">
        <ele>545</ele>
        <time>2019-10-27T09:56:48.000Z</time>
      </trkpt>
      <trkpt lat="45.5617" lon="5.74406">
        <ele>545</ele>
        <time>2019-10-27T09:56:49.000Z</time>
      </trkpt>
      <trkpt lat="45.5617" lon="5.74406">
        <ele>545</ele>
        <time>2019-10-27T09:56:50.000Z</time>
      </trkpt>
      <trkpt lat="45.5617" lon="5.74406">
        <ele>545</ele>
        <time>2019-10-27T09:56:51.000Z</time>
      </trkpt>
      <trkpt lat="45.5617" lon="5.74406">
        <ele>545</ele>
        <time>2019-10-27T09:56:52.000Z</time>
      </trkpt>
      <trkpt lat="45.5617" lon="5.74406">
        <ele>544.7</ele>
        <time>2019-10-27T09:56:53.000Z</time>
      </trkpt>
      <trkpt lat="45.5617" lon="5.74406">
        <ele>544.3</ele>
        <time>2019-10-27T09:56:54.000Z</time>
      </trkpt>
      <trkpt lat="45.5617" lon="5.74406">
        <ele>544</ele>
        <time>2019-10-27T09:56:55.000Z</time>
      </trkpt>
      <trkpt lat="45.5617" lon="5.74406">
        <ele>544.5</ele>
        <time>2019-10-27T09:56:56.000Z</time>
      </trkpt>
      <trkpt lat="45.5617" lon="5.74406">
        <ele>545</ele>
        <time>2019-10-27T09:56:57.000Z</time>
      </trkpt>
      <trkpt lat="45.5617" lon="5.74406">
        <ele>544.5</ele>
        <time>2019-10-27T09:56:58.000Z</time>
      </trkpt>
      <trkpt lat="45.5617" lon="5.74406">
        <ele>544</ele>
        <time>2019-10-27T09:56:59.000Z</time>
      </trkpt>
      <trkpt lat="45.5617" lon="5.74406">
        <ele>544.5</ele>
        <time>2019-10-27T09:57:00.000Z</time>
      </trkpt>
      <trkpt lat="45.5617" lon="5.74406">
        <ele>545</ele>
        <time>2019-10-27T09:57:01.000Z</time>
      </trkpt>
      <trkpt lat="45.5617" lon="5.74406">
        <ele>545</ele>
        <time>2019-10-27T09:57:02.000Z</time>
      </trkpt>
      <trkpt lat="45.5617" lon="5.74406">
        <ele>545</ele>
        <time>2019-10-27T09:57:03.000Z</time>
      </trkpt>
      <trkpt lat="45.5617" lon="5.74406">
        <ele>545</ele>
        <time>2019-10-27T09:57:04.000Z</time>
      </trkpt>
      <trkpt lat="45.5617" lon="5.74406">
        <ele>544.7</ele>
        <time>2019-10-27T09:57:05.000Z</time>
      </trkpt>
      <trkpt lat="45.5617" lon="5.74406">
        <ele>544.3</ele>
        <time>2019-10-27T09:57:06.000Z</time>
      </trkpt>
      <trkpt lat="45.5617" lon="5.74406">
        <ele>544</ele>
        <time>2019-10-27T09:57:07.000Z</time>
      </trkpt>
      <trkpt lat="45.5617" lon="5.74406">
        <ele>544</ele>
        <time>2019-10-27T09:57:08.000Z</time>
      </trkpt>
      <trkpt lat="45.5617" lon="5.74406">
        <ele>544</ele>
        <time>2019-10-27T09:57:09.000Z</time>
      </trkpt>
      <trkpt lat="45.5617" lon="5.74406">
        <ele>544</ele>
        <time>2019-10-27T09:57:10.000Z</time>
      </trkpt>
      <trkpt lat="45.5617" lon="5.74406">
        <ele>544</ele>
        <time>2019-10-27T09:57:11.000Z</time>
      </trkpt>
      <trkpt lat="45.5617" lon="5.74406">
        <ele>544.5</ele>
        <time>2019-10-27T09:57:12.000Z</time>
      </trkpt>
      <trkpt lat="45.5617" lon="5.74406">
        <ele>545</ele>
        <time>2019-10-27T09:57:13.000Z</time>
      </trkpt>
      <trkpt lat="45.5617" lon="5.74406">
        <ele>545</ele>
        <time>2019-10-27T09:57:14.000Z</time>
      </trkpt>
      <trkpt lat="45.5617" lon="5.74406">
        <ele>545</ele>
        <time>2019-10-27T09:57:15.000Z</time>
      </trkpt>
      <trkpt lat="45.5617" lon="5.74406">
        <ele>545</ele>
        <time>2019-10-27T09:57:16.000Z</time>
      </trkpt>
      <trkpt lat="45.5617" lon="5.74406">
        <ele>545</ele>
        <time>2019-10-27T09:57:17.000Z</time>
      </trkpt>
      <trkpt lat="45.5617" lon="5.74406">
        <ele>545</ele>
        <time>2019-10-27T09:57:18.000Z</time>
      </trkpt>
      <trkpt lat="45.5617" lon="5.74406">
        <ele>545</ele>
        <time>2019-10-27T09:57:19.000Z</time>
      </trkpt>
      <trkpt lat="45.5617" lon="5.74406">
        <ele>545</ele>
        <time>2019-10-27T09:57:20.000Z</time>
      </trkpt>
      <trkpt lat="45.5617" lon="5.74406">
        <ele>545</ele>
        <time>2019-10-27T09:57:21.000Z</time>
      </trkpt>
      <trkpt lat="45.5617" lon="5.74406">
        <ele>545</ele>
        <time>2019-10-27T09:57:22.000Z</time>
      </trkpt>
      <trkpt lat="45.5617" lon="5.74406">
        <ele>545</ele>
        <time>2019-10-27T09:57:23.000Z</time>
      </trkpt>
      <trkpt lat="45.5617" lon="5.74406">
        <ele>545</ele>
        <time>2019-10-27T09:57:24.000Z</time>
      </trkpt>
      <trkpt lat="45.5617" lon="5.74406">
        <ele>545</ele>
        <time>2019-10-27T09:57:25.000Z</time>
      </trkpt>
      <trkpt lat="45.5617" lon="5.74406">
        <ele>545</ele>
        <time>2019-10-27T09:57:26.000Z</time>
      </trkpt>
      <trkpt lat="45.5617" lon="5.74406">
        <ele>545</ele>
        <time>2019-10-27T09:57:27.000Z</time>
      </trkpt>
      <trkpt lat="45.5617" lon="5.74406">
        <ele>545</ele>
        <time>2019-10-27T09:57:28.000Z</time>
      </trkpt>
      <trkpt lat="45.5617" lon="5.74406">
        <ele>545</ele>
        <time>2019-10-27T09:57:29.000Z</time>
      </trkpt>
      <trkpt lat="45.5617" lon="5.74406">
        <ele>545</ele>
        <time>2019-10-27T09:57:30.000Z</time>
      </trkpt>
      <trkpt lat="45.5617" lon="5.74406">
        <ele>545</ele>
        <time>2019-10-27T09:57:31.000Z</time>
      </trkpt>
      <trkpt lat="45.5617" lon="5.74406">
        <ele>545</ele>
        <time>2019-10-27T09:57:32.000Z</time>
      </trkpt>
      <trkpt lat="45.5617" lon="5.74406">
        <ele>545</ele>
        <time>2019-10-27T09:57:33.000Z</time>
      </trkpt>
      <trkpt lat="45.5617" lon="5.74406">
        <ele>545</ele>
        <time>2019-10-27T09:57:34.000Z</time>
      </trkpt>
      <trkpt lat="45.5617" lon="5.74406">
        <ele>545</ele>
        <time>2019-10-27T09:57:35.000Z</time>
      </trkpt>
      <trkpt lat="45.5617" lon="5.74406">
        <ele>545</ele>
        <time>2019-10-27T09:57:36.000Z</time>
      </trkpt>
      <trkpt lat="45.5617" lon="5.74406">
        <ele>545</ele>
        <time>2019-10-27T09:57:37.000Z</time>
      </trkpt>
      <trkpt lat="45.5617" lon="5.74406">
        <ele>545</ele>
        <time>2019-10-27T09:57:38.000Z</time>
      </trkpt>
      <trkpt lat="45.5617" lon="5.74406">
        <ele>545</ele>
        <time>2019-10-27T09:57:39.000Z</time>
      </trkpt>
      <trkpt lat="45.5617" lon="5.74406">
        <ele>545</ele>
        <time>2019-10-27T09:57:40.000Z</time>
      </trkpt>
      <trkpt lat="45.5617" lon="5.74406">
        <ele>545</ele>
        <time>2019-10-27T09:57:41.000Z</time>
      </trkpt>
      <trkpt lat="45.5617" lon="5.74406">
        <ele>545</ele>
        <time>2019-10-27T09:57:42.000Z</time>
      </trkpt>
      <trkpt lat="45.5617" lon="5.74406">
        <ele>545</ele>
        <time>2019-10-27T09:57:43.000Z</time>
      </trkpt>
      <trkpt lat="45.5617" lon="5.74406">
        <ele>545</ele>
        <time>2019-10-27T09:57:44.000Z</time>
      </trkpt>
      <trkpt lat="45.5617" lon="5.74406">
        <ele>545</ele>
        <time>2019-10-27T09:57:45.000Z</time>
      </trkpt>
      <trkpt lat="45.5617" lon="5.74406">
        <ele>545</ele>
        <time>2019-10-27T09:57:46.000Z</time>
      </trkpt>
      <trkpt lat="45.5617" lon="5.74406">
        <ele>545</ele>
        <time>2019-10-27T09:57:47.000Z</time>
      </trkpt>
      <trkpt lat="45.5617" lon="5.74406">
        <ele>545</ele>
        <time>2019-10-27T09:57:48.000Z</time>
      </trkpt>
      <trkpt lat="45.5617" lon="5.74406">
        <ele>545</ele>
        <time>2019-10-27T09:57:49.000Z</time>
      </trkpt>
      <trkpt lat="45.5617" lon="5.74406">
        <ele>545</ele>
        <time>2019-10-27T09:57:50.000Z</time>
      </trkpt>
      <trkpt lat="45.5617" lon="5.74406">
        <ele>545</ele>
        <time>2019-10-27T09:57:51.000Z</time>
      </trkpt>
      <trkpt lat="45.5617" lon="5.74406">
        <ele>545</ele>
        <time>2019-10-27T09:57:52.000Z</time>
      </trkpt>
      <trkpt lat="45.5617" lon="5.74406">
        <ele>545</ele>
        <time>2019-10-27T09:57:53.000Z</time>
      </trkpt>
      <trkpt lat="45.5617" lon="5.74406">
        <ele>545</ele>
        <time>2019-10-27T09:57:54.000Z</time>
      </trkpt>
      <trkpt lat="45.5617" lon="5.74406">
        <ele>545</ele>
        <time>2019-10-27T09:57:55.000Z</time>
      </trkpt>
      <trkpt lat="45.5617" lon="5.74406">
        <ele>545</ele>
        <time>2019-10-27T09:57:56.000Z</time>
      </trkpt>
      <trkpt lat="45.5617" lon="5.74406">
        <ele>545</ele>
        <time>2019-10-27T09:57:57.000Z</time>
      </trkpt>
      <trkpt lat="45.5617" lon="5.74406">
        <ele>545</ele>
        <time>2019-10-27T09:57:58.000Z</time>
      </trkpt>
      <trkpt lat="45.5617" lon="5.74406">
        <ele>545</ele>
        <time>2019-10-27T09:57:59.000Z</time>
      </trkpt>
      <trkpt lat="45.5617" lon="5.74406">
        <ele>545</ele>
        <time>2019-10-27T09:58:00.000Z</time>
      </trkpt>
      <trkpt lat="45.5617" lon="5.74406">
        <ele>545</ele>
        <time>2019-10-27T09:58:01.000Z</time>
      </trkpt>
      <trkpt lat="45.5617" lon="5.74406">
        <ele>545</ele>
        <time>2019-10-27T09:58:02.000Z</time>
      </trkpt>
      <trkpt lat="45.5617" lon="5.74406">
        <ele>545</ele>
        <time>2019-10-27T09:58:03.000Z</time>
      </trkpt>
      <trkpt lat="45.5617" lon="5.74406">
        <ele>545</ele>
        <time>2019-10-27T09:58:04.000Z</time>
      </trkpt>
      <trkpt lat="45.5617" lon="5.74406">
        <ele>545</ele>
        <time>2019-10-27T09:58:05.000Z</time>
      </trkpt>
      <trkpt lat="45.5617" lon="5.74406">
        <ele>545</ele>
        <time>2019-10-27T09:58:06.000Z</time>
      </trkpt>
      <trkpt lat="45.5617" lon="5.74406">
        <ele>545</ele>
        <time>2019-10-27T09:58:07.000Z</time>
      </trkpt>
      <trkpt lat="45.5617" lon="5.74406">
        <ele>545</ele>
        <time>2019-10-27T09:58:08.000Z</time>
      </trkpt>
      <trkpt lat="45.5617" lon="5.74406">
        <ele>545</ele>
        <time>2019-10-27T09:58:09.000Z</time>
      </trkpt>
      <trkpt lat="45.5617" lon="5.74406">
        <ele>545</ele>
        <time>2019-10-27T09:58:10.000Z</time>
      </trkpt>
      <trkpt lat="45.5617" lon="5.74406">
        <ele>545</ele>
        <time>2019-10-27T09:58:11.000Z</time>
      </trkpt>
      <trkpt lat="45.5617" lon="5.74406">
        <ele>545</ele>
        <time>2019-10-27T09:58:12.000Z</time>
      </trkpt>
      <trkpt lat="45.5617" lon="5.74406">
        <ele>545</ele>
        <time>2019-10-27T09:58:13.000Z</time>
      </trkpt>
      <trkpt lat="45.5617" lon="5.74406">
        <ele>545</ele>
        <time>2019-10-27T09:58:14.000Z</time>
      </trkpt>
      <trkpt lat="45.5617" lon="5.74406">
        <ele>545</ele>
        <time>2019-10-27T09:58:15.000Z</time>
      </trkpt>
      <trkpt lat="45.5617" lon="5.74406">
        <ele>545</ele>
        <time>2019-10-27T09:58:16.000Z</time>
      </trkpt>
      <trkpt lat="45.5617" lon="5.74406">
        <ele>545</ele>
        <time>2019-10-27T09:58:17.000Z</time>
      </trkpt>
      <trkpt lat="45.5617" lon="5.74406">
        <ele>545</ele>
        <time>2019-10-27T09:58:18.000Z</time>
      </trkpt>
      <trkpt lat="45.5617" lon="5.74406">
        <ele>545</ele>
        <time>2019-10-27T09:58:19.000Z</time>
      </trkpt>
      <trkpt lat="45.5617" lon="5.74406">
        <ele>545</ele>
        <time>2019-10-27T09:58:20.000Z</time>
      </trkpt>
      <trkpt lat="45.5617" lon="5.74406">
        <ele>545</ele>
        <time>2019-10-27T09:58:21.000Z</time>
      </trkpt>
      <trkpt lat="45.5617" lon="5.74406">
        <ele>545</ele>
        <time>2019-10-27T09:58:22.000Z</time>
      </trkpt>
      <trkpt lat="45.5617" lon="5.74406">
        <ele>545</ele>
        <time>2019-10-27T09:58:23.000Z</time>
      </trkpt>
      <trkpt lat="45.5617" lon="5.74406">
        <ele>545</ele>
        <time>2019-10-27T09:58:24.000Z</time>
      </trkpt>
      <trkpt lat="45.5617" lon="5.74406">
        <ele>545</ele>
        <time>2019-10-27T09:58:25.000Z</time>
      </trkpt>
      <trkpt lat="45.5617" lon="5.74406">
        <ele>545</ele>
        <time>2019-10-27T09:58:26.000Z</time>
      </trkpt>
      <trkpt lat="45.5617" lon="5.74406">
        <ele>545</ele>
        <time>2019-10-27T09:58:27.000Z</time>
      </trkpt>
      <trkpt lat="45.5617" lon="5.74406">
        <ele>545</ele>
        <time>2019-10-27T09:58:28.000Z</time>
      </trkpt>
      <trkpt lat="45.5617" lon="5.74406">
        <ele>545</ele>
        <time>2019-10-27T09:58:29.000Z</time>
      </trkpt>
      <trkpt lat="45.5617" lon="5.74406">
        <ele>545</ele>
        <time>2019-10-27T09:58:30.000Z</time>
      </trkpt>
      <trkpt lat="45.5617" lon="5.74406">
        <ele>545</ele>
        <time>2019-10-27T09:58:31.000Z</time>
      </trkpt>
      <trkpt lat="45.56169" lon="5.74405">
        <ele>545</ele>
        <time>2019-10-27T09:58:32.000Z</time>
      </trkpt>
      <trkpt lat="45.56169" lon="5.74405">
        <ele>545</ele>
        <time>2019-10-27T09:58:33.000Z</time>
      </trkpt>
      <trkpt lat="45.56168" lon="5.74404">
        <ele>545</ele>
        <time>2019-10-27T09:58:34.000Z</time>
      </trkpt>
      <trkpt lat="45.56168" lon="5.74403">
        <ele>545</ele>
        <time>2019-10-27T09:58:35.000Z</time>
      </trkpt>
      <trkpt lat="45.56168" lon="5.74403">
        <ele>545</ele>
        <time>2019-10-27T09:58:36.000Z</time>
      </trkpt>
      <trkpt lat="45.56168" lon="5.74403">
        <ele>545</ele>
        <time>2019-10-27T09:58:37.000Z</time>
      </trkpt>
      <trkpt lat="45.56168" lon="5.74403">
        <ele>545</ele>
        <time>2019-10-27T09:58:38.000Z</time>
      </trkpt>
      <trkpt lat="45.56168" lon="5.74403">
        <ele>545</ele>
        <time>2019-10-27T09:58:39.000Z</time>
      </trkpt>
      <trkpt lat="45.56168" lon="5.74403">
        <ele>545</ele>
        <time>2019-10-27T09:58:40.000Z</time>
      </trkpt>
      <trkpt lat="45.56168" lon="5.74403">
        <ele>545</ele>
        <time>2019-10-27T09:58:41.000Z</time>
      </trkpt>
      <trkpt lat="45.56168" lon="5.74403">
        <ele>545</ele>
        <time>2019-10-27T09:58:42.000Z</time>
      </trkpt>
      <trkpt lat="45.56168" lon="5.74403">
        <ele>545</ele>
        <time>2019-10-27T09:58:43.000Z</time>
      </trkpt>
      <trkpt lat="45.56168" lon="5.74403">
        <ele>545</ele>
        <time>2019-10-27T09:58:44.000Z</time>
      </trkpt>
      <trkpt lat="45.56168" lon="5.74403">
        <ele>545</ele>
        <time>2019-10-27T09:58:45.000Z</time>
      </trkpt>
      <trkpt lat="45.56168" lon="5.74403">
        <ele>545</ele>
        <time>2019-10-27T09:58:46.000Z</time>
      </trkpt>
      <trkpt lat="45.56168" lon="5.74403">
        <ele>545</ele>
        <time>2019-10-27T09:58:47.000Z</time>
      </trkpt>
      <trkpt lat="45.56168" lon="5.74403">
        <ele>545</ele>
        <time>2019-10-27T09:58:48.000Z</time>
      </trkpt>
      <trkpt lat="45.56168" lon="5.74403">
        <ele>545</ele>
        <time>2019-10-27T09:58:49.000Z</time>
      </trkpt>
      <trkpt lat="45.56168" lon="5.74403">
        <ele>545</ele>
        <time>2019-10-27T09:58:50.000Z</time>
      </trkpt>
      <trkpt lat="45.56168" lon="5.74403">
        <ele>545</ele>
        <time>2019-10-27T09:58:51.000Z</time>
      </trkpt>
      <trkpt lat="45.56168" lon="5.74403">
        <ele>545</ele>
        <time>2019-10-27T09:58:52.000Z</time>
      </trkpt>
      <trkpt lat="45.56168" lon="5.74403">
        <ele>545</ele>
        <time>2019-10-27T09:58:53.000Z</time>
      </trkpt>
      <trkpt lat="45.56168" lon="5.74403">
        <ele>545</ele>
        <time>2019-10-27T09:58:54.000Z</time>
      </trkpt>
      <trkpt lat="45.56168" lon="5.74403">
        <ele>545</ele>
        <time>2019-10-27T09:58:55.000Z</time>
      </trkpt>
      <trkpt lat="45.56168" lon="5.74403">
        <ele>545</ele>
        <time>2019-10-27T09:58:56.000Z</time>
      </trkpt>
      <trkpt lat="45.56168" lon="5.74403">
        <ele>545</ele>
        <time>2019-10-27T09:58:57.000Z</time>
      </trkpt>
      <trkpt lat="45.56168" lon="5.74403">
        <ele>545</ele>
        <time>2019-10-27T09:58:58.000Z</time>
      </trkpt>
      <trkpt lat="45.56168" lon="5.74403">
        <ele>545</ele>
        <time>2019-10-27T09:58:59.000Z</time>
      </trkpt>
      <trkpt lat="45.56168" lon="5.74403">
        <ele>545</ele>
        <time>2019-10-27T09:59:00.000Z</time>
      </trkpt>
      <trkpt lat="45.56168" lon="5.74403">
        <ele>545</ele>
        <time>2019-10-27T09:59:01.000Z</time>
      </trkpt>
      <trkpt lat="45.56168" lon="5.74403">
        <ele>545</ele>
        <time>2019-10-27T09:59:02.000Z</time>
      </trkpt>
      <trkpt lat="45.56168" lon="5.74403">
        <ele>545</ele>
        <time>2019-10-27T09:59:03.000Z</time>
      </trkpt>
      <trkpt lat="45.56168" lon="5.74403">
        <ele>544</ele>
        <time>2019-10-27T09:59:04.000Z</time>
      </trkpt>
      <trkpt lat="45.56168" lon="5.74403">
        <ele>544</ele>
        <time>2019-10-27T09:59:05.000Z</time>
      </trkpt>
      <trkpt lat="45.56168" lon="5.74403">
        <ele>544</ele>
        <time>2019-10-27T09:59:06.000Z</time>
      </trkpt>
      <trkpt lat="45.56168" lon="5.74403">
        <ele>544</ele>
        <time>2019-10-27T09:59:07.000Z</time>
      </trkpt>
      <trkpt lat="45.56168" lon="5.74403">
        <ele>544.5</ele>
        <time>2019-10-27T09:59:08.000Z</time>
      </trkpt>
      <trkpt lat="45.56168" lon="5.74403">
        <ele>545</ele>
        <time>2019-10-27T09:59:09.000Z</time>
      </trkpt>
      <trkpt lat="45.56168" lon="5.74404">
        <ele>545</ele>
        <time>2019-10-27T09:59:10.000Z</time>
      </trkpt>
      <trkpt lat="45.56168" lon="5.74404">
        <ele>545</ele>
        <time>2019-10-27T09:59:11.000Z</time>
      </trkpt>
      <trkpt lat="45.56169" lon="5.74405">
        <ele>545</ele>
        <time>2019-10-27T09:59:12.000Z</time>
      </trkpt>
      <trkpt lat="45.56169" lon="5.74406">
        <ele>545</ele>
        <time>2019-10-27T09:59:13.000Z</time>
      </trkpt>
      <trkpt lat="45.56169" lon="5.74407">
        <ele>545</ele>
        <time>2019-10-27T09:59:14.000Z</time>
      </trkpt>
      <trkpt lat="45.56169" lon="5.74407">
        <ele>545</ele>
        <time>2019-10-27T09:59:15.000Z</time>
      </trkpt>
      <trkpt lat="45.56169" lon="5.74407">
        <ele>544.5</ele>
        <time>2019-10-27T09:59:16.000Z</time>
      </trkpt>
      <trkpt lat="45.56169" lon="5.74408">
        <ele>544</ele>
        <time>2019-10-27T09:59:17.000Z</time>
      </trkpt>
      <trkpt lat="45.56169" lon="5.74408">
        <ele>544.5</ele>
        <time>2019-10-27T09:59:18.000Z</time>
      </trkpt>
      <trkpt lat="45.56169" lon="5.74408">
        <ele>545</ele>
        <time>2019-10-27T09:59:19.000Z</time>
      </trkpt>
      <trkpt lat="45.56169" lon="5.74408">
        <ele>545</ele>
        <time>2019-10-27T09:59:20.000Z</time>
      </trkpt>
      <trkpt lat="45.56169" lon="5.74408">
        <ele>545</ele>
        <time>2019-10-27T09:59:21.000Z</time>
      </trkpt>
      <trkpt lat="45.56169" lon="5.74408">
        <ele>545</ele>
        <time>2019-10-27T09:59:22.000Z</time>
      </trkpt>
      <trkpt lat="45.56169" lon="5.74408">
        <ele>545</ele>
        <time>2019-10-27T09:59:23.000Z</time>
      </trkpt>
      <trkpt lat="45.56169" lon="5.74408">
        <ele>545</ele>
        <time>2019-10-27T09:59:24.000Z</time>
      </trkpt>
      <trkpt lat="45.56169" lon="5.74408">
        <ele>545</ele>
        <time>2019-10-27T09:59:25.000Z</time>
      </trkpt>
      <trkpt lat="45.56169" lon="5.74408">
        <ele>545</ele>
        <time>2019-10-27T09:59:26.000Z</time>
      </trkpt>
      <trkpt lat="45.56169" lon="5.74408">
        <ele>545</ele>
        <time>2019-10-27T09:59:27.000Z</time>
      </trkpt>
      <trkpt lat="45.56169" lon="5.74408">
        <ele>545</ele>
        <time>2019-10-27T09:59:28.000Z</time>
      </trkpt>
      <trkpt lat="45.56169" lon="5.74408">
        <ele>545</ele>
        <time>2019-10-27T09:59:29.000Z</time>
      </trkpt>
      <trkpt lat="45.56169" lon="5.74408">
        <ele>544.5</ele>
        <time>2019-10-27T09:59:30.000Z</time>
      </trkpt>
      <trkpt lat="45.56169" lon="5.74408">
        <ele>544</ele>
        <time>2019-10-27T09:59:31.000Z</time>
      </trkpt>
      <trkpt lat="45.56169" lon="5.74408">
        <ele>544.5</ele>
        <time>2019-10-27T09:59:32.000Z</time>
      </trkpt>
      <trkpt lat="45.56169" lon="5.74408">
        <ele>545</ele>
        <time>2019-10-27T09:59:33.000Z</time>
      </trkpt>
      <trkpt lat="45.56169" lon="5.74408">
        <ele>545</ele>
        <time>2019-10-27T09:59:34.000Z</time>
      </trkpt>
      <trkpt lat="45.56169" lon="5.74408">
        <ele>545</ele>
        <time>2019-10-27T09:59:35.000Z</time>
      </trkpt>
      <trkpt lat="45.56169" lon="5.74408">
        <ele>545</ele>
        <time>2019-10-27T09:59:36.000Z</time>
      </trkpt>
      <trkpt lat="45.56169" lon="5.74408">
        <ele>545</ele>
        <time>2019-10-27T09:59:37.000Z</time>
      </trkpt>
      <trkpt lat="45.56169" lon="5.74408">
        <ele>545</ele>
        <time>2019-10-27T09:59:38.000Z</time>
      </trkpt>
      <trkpt lat="45.56169" lon="5.74408">
        <ele>545</ele>
        <time>2019-10-27T09:59:39.000Z</time>
      </trkpt>
      <trkpt lat="45.56169" lon="5.74408">
        <ele>544.5</ele>
        <time>2019-10-27T09:59:40.000Z</time>
      </trkpt>
      <trkpt lat="45.56169" lon="5.74408">
        <ele>544</ele>
        <time>2019-10-27T09:59:41.000Z</time>
      </trkpt>
      <trkpt lat="45.56169" lon="5.74408">
        <ele>544</ele>
        <time>2019-10-27T09:59:42.000Z</time>
      </trkpt>
      <trkpt lat="45.56169" lon="5.74408">
        <ele>544</ele>
        <time>2019-10-27T09:59:43.000Z</time>
      </trkpt>
      <trkpt lat="45.56169" lon="5.74408">
        <ele>544</ele>
        <time>2019-10-27T09:59:44.000Z</time>
      </trkpt>
      <trkpt lat="45.56169" lon="5.74408">
        <ele>544</ele>
        <time>2019-10-27T09:59:45.000Z</time>
      </trkpt>
      <trkpt lat="45.56169" lon="5.74408">
        <ele>544.5</ele>
        <time>2019-10-27T09:59:46.000Z</time>
      </trkpt>
      <trkpt lat="45.56169" lon="5.74408">
        <ele>545</ele>
        <time>2019-10-27T09:59:47.000Z</time>
      </trkpt>
      <trkpt lat="45.56169" lon="5.74408">
        <ele>545</ele>
        <time>2019-10-27T09:59:48.000Z</time>
      </trkpt>
      <trkpt lat="45.56169" lon="5.74408">
        <ele>545</ele>
        <time>2019-10-27T09:59:49.000Z</time>
      </trkpt>
      <trkpt lat="45.56169" lon="5.74408">
        <ele>545</ele>
        <time>2019-10-27T09:59:50.000Z</time>
      </trkpt>
      <trkpt lat="45.56169" lon="5.74408">
        <ele>545</ele>
        <time>2019-10-27T09:59:51.000Z</time>
      </trkpt>
      <trkpt lat="45.56169" lon="5.74408">
        <ele>545</ele>
        <time>2019-10-27T09:59:52.000Z</time>
      </trkpt>
      <trkpt lat="45.56169" lon="5.74408">
        <ele>545</ele>
        <time>2019-10-27T09:59:53.000Z</time>
      </trkpt>
      <trkpt lat="45.56169" lon="5.74408">
        <ele>545</ele>
        <time>2019-10-27T09:59:54.000Z</time>
      </trkpt>
      <trkpt lat="45.56169" lon="5.74408">
        <ele>545</ele>
        <time>2019-10-27T09:59:55.000Z</time>
      </trkpt>
      <trkpt lat="45.56169" lon="5.74408">
        <ele>545</ele>
        <time>2019-10-27T09:59:56.000Z</time>
      </trkpt>
      <trkpt lat="45.56169" lon="5.74407">
        <ele>545</ele>
        <time>2019-10-27T09:59:57.000Z</time>
      </trkpt>
      <trkpt lat="45.56169" lon="5.74407">
        <ele>545</ele>
        <time>2019-10-27T09:59:58.000Z</time>
      </trkpt>
      <trkpt lat="45.56169" lon="5.74407">
        <ele>545</ele>
        <time>2019-10-27T09:59:59.000Z</time>
      </trkpt>
      <trkpt lat="45.56169" lon="5.74407">
        <ele>545</ele>
        <time>2019-10-27T10:00:00.000Z</time>
      </trkpt>
      <trkpt lat="45.56169" lon="5.74407">
        <ele>545</ele>
        <time>2019-10-27T10:00:01.000Z</time>
      </trkpt>
      <trkpt lat="45.56169" lon="5.74407">
        <ele>545</ele>
        <time>2019-10-27T10:00:02.000Z</time>
      </trkpt>
      <trkpt lat="45.56169" lon="5.74407">
        <ele>545</ele>
        <time>2019-10-27T10:00:03.000Z</time>
      </trkpt>
      <trkpt lat="45.56169" lon="5.74407">
        <ele>545</ele>
        <time>2019-10-27T10:00:04.000Z</time>
      </trkpt>
      <trkpt lat="45.56169" lon="5.74407">
        <ele>545</ele>
        <time>2019-10-27T10:00:05.000Z</time>
      </trkpt>
      <trkpt lat="45.56169" lon="5.74407">
        <ele>545</ele>
        <time>2019-10-27T10:00:06.000Z</time>
      </trkpt>
      <trkpt lat="45.56169" lon="5.74407">
        <ele>545</ele>
        <time>2019-10-27T10:00:07.000Z</time>
      </trkpt>
      <trkpt lat="45.56169" lon="5.74407">
        <ele>545</ele>
        <time>2019-10-27T10:00:08.000Z</time>
      </trkpt>
      <trkpt lat="45.56169" lon="5.74407">
        <ele>545</ele>
        <time>2019-10-27T10:00:09.000Z</time>
      </trkpt>
      <trkpt lat="45.56169" lon="5.74407">
        <ele>544</ele>
        <time>2019-10-27T10:00:10.000Z</time>
      </trkpt>
      <trkpt lat="45.56169" lon="5.74407">
        <ele>544.3</ele>
        <time>2019-10-27T10:00:11.000Z</time>
      </trkpt>
      <trkpt lat="45.56169" lon="5.74407">
        <ele>544.7</ele>
        <time>2019-10-27T10:00:12.000Z</time>
      </trkpt>
      <trkpt lat="45.56169" lon="5.74407">
        <ele>545</ele>
        <time>2019-10-27T10:00:13.000Z</time>
      </trkpt>
      <trkpt lat="45.56169" lon="5.74407">
        <ele>545</ele>
        <time>2019-10-27T10:00:14.000Z</time>
      </trkpt>
      <trkpt lat="45.56169" lon="5.74407">
        <ele>545</ele>
        <time>2019-10-27T10:00:15.000Z</time>
      </trkpt>
      <trkpt lat="45.56169" lon="5.74407">
        <ele>545</ele>
        <time>2019-10-27T10:00:16.000Z</time>
      </trkpt>
      <trkpt lat="45.56169" lon="5.74407">
        <ele>545</ele>
        <time>2019-10-27T10:00:17.000Z</time>
      </trkpt>
      <trkpt lat="45.56169" lon="5.74407">
        <ele>544</ele>
        <time>2019-10-27T10:00:18.000Z</time>
      </trkpt>
      <trkpt lat="45.56169" lon="5.74407">
        <ele>544.3</ele>
        <time>2019-10-27T10:00:19.000Z</time>
      </trkpt>
      <trkpt lat="45.56169" lon="5.74407">
        <ele>544.7</ele>
        <time>2019-10-27T10:00:20.000Z</time>
      </trkpt>
      <trkpt lat="45.56169" lon="5.74407">
        <ele>545</ele>
        <time>2019-10-27T10:00:21.000Z</time>
      </trkpt>
      <trkpt lat="45.56169" lon="5.74407">
        <ele>545</ele>
        <time>2019-10-27T10:00:22.000Z</time>
      </trkpt>
      <trkpt lat="45.56169" lon="5.74407">
        <ele>545</ele>
        <time>2019-10-27T10:00:23.000Z</time>
      </trkpt>
      <trkpt lat="45.56169" lon="5.74407">
        <ele>545</ele>
        <time>2019-10-27T10:00:24.000Z</time>
      </trkpt>
      <trkpt lat="45.56169" lon="5.74407">
        <ele>545</ele>
        <time>2019-10-27T10:00:25.000Z</time>
      </trkpt>
      <trkpt lat="45.56169" lon="5.74407">
        <ele>545</ele>
        <time>2019-10-27T10:00:26.000Z</time>
      </trkpt>
      <trkpt lat="45.56169" lon="5.74407">
        <ele>545</ele>
        <time>2019-10-27T10:00:27.000Z</time>
      </trkpt>
      <trkpt lat="45.56169" lon="5.74407">
        <ele>545</ele>
        <time>2019-10-27T10:00:28.000Z</time>
      </trkpt>
      <trkpt lat="45.56169" lon="5.74407">
        <ele>545</ele>
        <time>2019-10-27T10:00:29.000Z</time>
      </trkpt>
      <trkpt lat="45.56169" lon="5.74407">
        <ele>545</ele>
        <time>2019-10-27T10:00:30.000Z</time>
      </trkpt>
      <trkpt lat="45.56169" lon="5.74407">
        <ele>545</ele>
        <time>2019-10-27T10:00:31.000Z</time>
      </trkpt>
      <trkpt lat="45.56169" lon="5.74407">
        <ele>545</ele>
        <time>2019-10-27T10:00:32.000Z</time>
      </trkpt>
      <trkpt lat="45.56169" lon="5.74407">
        <ele>545</ele>
        <time>2019-10-27T10:00:33.000Z</time>
      </trkpt>
      <trkpt lat="45.56169" lon="5.74407">
        <ele>544.5</ele>
        <time>2019-10-27T10:00:34.000Z</time>
      </trkpt>
      <trkpt lat="45.56169" lon="5.74407">
        <ele>544</ele>
        <time>2019-10-27T10:00:35.000Z</time>
      </trkpt>
      <trkpt lat="45.56169" lon="5.74407">
        <ele>544.5</ele>
        <time>2019-10-27T10:00:36.000Z</time>
      </trkpt>
      <trkpt lat="45.56169" lon="5.74407">
        <ele>545</ele>
        <time>2019-10-27T10:00:37.000Z</time>
      </trkpt>
      <trkpt lat="45.56169" lon="5.74407">
        <ele>545</ele>
        <time>2019-10-27T10:00:38.000Z</time>
      </trkpt>
      <trkpt lat="45.56169" lon="5.74407">
        <ele>545</ele>
        <time>2019-10-27T10:00:39.000Z</time>
      </trkpt>
      <trkpt lat="45.56169" lon="5.74407">
        <ele>545</ele>
        <time>2019-10-27T10:00:40.000Z</time>
      </trkpt>
      <trkpt lat="45.56169" lon="5.74407">
        <ele>545</ele>
        <time>2019-10-27T10:00:41.000Z</time>
      </trkpt>
      <trkpt lat="45.56169" lon="5.74406">
        <ele>545</ele>
        <time>2019-10-27T10:00:42.000Z</time>
      </trkpt>
      <trkpt lat="45.56169" lon="5.74406">
        <ele>545</ele>
        <time>2019-10-27T10:00:43.000Z</time>
      </trkpt>
      <trkpt lat="45.56169" lon="5.74406">
        <ele>545</ele>
        <time>2019-10-27T10:00:44.000Z</time>
      </trkpt>
      <trkpt lat="45.56169" lon="5.74405">
        <ele>545</ele>
        <time>2019-10-27T10:00:45.000Z</time>
      </trkpt>
      <trkpt lat="45.56169" lon="5.74405">
        <ele>545</ele>
        <time>2019-10-27T10:00:46.000Z</time>
      </trkpt>
      <trkpt lat="45.56169" lon="5.74404">
        <ele>545</ele>
        <time>2019-10-27T10:00:47.000Z</time>
      </trkpt>
      <trkpt lat="45.56169" lon="5.74404">
        <ele>545</ele>
        <time>2019-10-27T10:00:48.000Z</time>
      </trkpt>
      <trkpt lat="45.56169" lon="5.74404">
        <ele>545</ele>
        <time>2019-10-27T10:00:49.000Z</time>
      </trkpt>
      <trkpt lat="45.56169" lon="5.74404">
        <ele>545</ele>
        <time>2019-10-27T10:00:50.000Z</time>
      </trkpt>
      <trkpt lat="45.56169" lon="5.74404">
        <ele>545</ele>
        <time>2019-10-27T10:00:51.000Z</time>
      </trkpt>
      <trkpt lat="45.56169" lon="5.74404">
        <ele>545</ele>
        <time>2019-10-27T10:00:52.000Z</time>
      </trkpt>
      <trkpt lat="45.56169" lon="5.74404">
        <ele>545</ele>
        <time>2019-10-27T10:00:53.000Z</time>
      </trkpt>
      <trkpt lat="45.56169" lon="5.74404">
        <ele>545</ele>
        <time>2019-10-27T10:00:54.000Z</time>
      </trkpt>
      <trkpt lat="45.56169" lon="5.74404">
        <ele>545</ele>
        <time>2019-10-27T10:00:55.000Z</time>
      </trkpt>
      <trkpt lat="45.56169" lon="5.74404">
        <ele>545</ele>
        <time>2019-10-27T10:00:56.000Z</time>
      </trkpt>
      <trkpt lat="45.56169" lon="5.74404">
        <ele>545</ele>
        <time>2019-10-27T10:00:57.000Z</time>
      </trkpt>
      <trkpt lat="45.56169" lon="5.74404">
        <ele>545</ele>
        <time>2019-10-27T10:00:58.000Z</time>
      </trkpt>
      <trkpt lat="45.56169" lon="5.74404">
        <ele>545</ele>
        <time>2019-10-27T10:00:59.000Z</time>
      </trkpt>
      <trkpt lat="45.56169" lon="5.74404">
        <ele>545</ele>
        <time>2019-10-27T10:01:00.000Z</time>
      </trkpt>
      <trkpt lat="45.56169" lon="5.74404">
        <ele>545</ele>
        <time>2019-10-27T10:01:01.000Z</time>
      </trkpt>
      <trkpt lat="45.56169" lon="5.74404">
        <ele>545</ele>
        <time>2019-10-27T10:01:02.000Z</time>
      </trkpt>
      <trkpt lat="45.56169" lon="5.74404">
        <ele>545</ele>
        <time>2019-10-27T10:01:03.000Z</time>
      </trkpt>
      <trkpt lat="45.56169" lon="5.74404">
        <ele>545</ele>
        <time>2019-10-27T10:01:04.000Z</time>
      </trkpt>
      <trkpt lat="45.56169" lon="5.74404">
        <ele>545</ele>
        <time>2019-10-27T10:01:05.000Z</time>
      </trkpt>
      <trkpt lat="45.56169" lon="5.74404">
        <ele>545</ele>
        <time>2019-10-27T10:01:06.000Z</time>
      </trkpt>
      <trkpt lat="45.56169" lon="5.74404">
        <ele>545</ele>
        <time>2019-10-27T10:01:07.000Z</time>
      </trkpt>
      <trkpt lat="45.56169" lon="5.74404">
        <ele>545</ele>
        <time>2019-10-27T10:01:08.000Z</time>
      </trkpt>
      <trkpt lat="45.56169" lon="5.74404">
        <ele>545</ele>
        <time>2019-10-27T10:01:09.000Z</time>
      </trkpt>
      <trkpt lat="45.56169" lon="5.74404">
        <ele>545</ele>
        <time>2019-10-27T10:01:10.000Z</time>
      </trkpt>
      <trkpt lat="45.56169" lon="5.74404">
        <ele>545</ele>
        <time>2019-10-27T10:01:11.000Z</time>
      </trkpt>
      <trkpt lat="45.56169" lon="5.74404">
        <ele>545</ele>
        <time>2019-10-27T10:01:12.000Z</time>
      </trkpt>
      <trkpt lat="45.56169" lon="5.74404">
        <ele>545</ele>
        <time>2019-10-27T10:01:13.000Z</time>
      </trkpt>
      <trkpt lat="45.56169" lon="5.74404">
        <ele>545</ele>
        <time>2019-10-27T10:01:14.000Z</time>
      </trkpt>
      <trkpt lat="45.56169" lon="5.74404">
        <ele>545</ele>
        <time>2019-10-27T10:01:15.000Z</time>
      </trkpt>
      <trkpt lat="45.56169" lon="5.74404">
        <ele>545</ele>
        <time>2019-10-27T10:01:16.000Z</time>
      </trkpt>
      <trkpt lat="45.56169" lon="5.74404">
        <ele>545</ele>
        <time>2019-10-27T10:01:17.000Z</time>
      </trkpt>
      <trkpt lat="45.56169" lon="5.74404">
        <ele>545</ele>
        <time>2019-10-27T10:01:18.000Z</time>
      </trkpt>
      <trkpt lat="45.56169" lon="5.74404">
        <ele>545</ele>
        <time>2019-10-27T10:01:19.000Z</time>
      </trkpt>
      <trkpt lat="45.56169" lon="5.74404">
        <ele>545</ele>
        <time>2019-10-27T10:01:20.000Z</time>
      </trkpt>
      <trkpt lat="45.56169" lon="5.74404">
        <ele>545</ele>
        <time>2019-10-27T10:01:21.000Z</time>
      </trkpt>
      <trkpt lat="45.56169" lon="5.74404">
        <ele>545</ele>
        <time>2019-10-27T10:01:22.000Z</time>
      </trkpt>
      <trkpt lat="45.56169" lon="5.74404">
        <ele>545</ele>
        <time>2019-10-27T10:01:23.000Z</time>
      </trkpt>
      <trkpt lat="45.56169" lon="5.74404">
        <ele>545</ele>
        <time>2019-10-27T10:01:24.000Z</time>
      </trkpt>
      <trkpt lat="45.56169" lon="5.74404">
        <ele>545</ele>
        <time>2019-10-27T10:01:25.000Z</time>
      </trkpt>
      <trkpt lat="45.56169" lon="5.74404">
        <ele>545</ele>
        <time>2019-10-27T10:01:26.000Z</time>
      </trkpt>
      <trkpt lat="45.56169" lon="5.74404">
        <ele>545</ele>
        <time>2019-10-27T10:01:27.000Z</time>
      </trkpt>
      <trkpt lat="45.56169" lon="5.74404">
        <ele>545</ele>
        <time>2019-10-27T10:01:28.000Z</time>
      </trkpt>
      <trkpt lat="45.56169" lon="5.74404">
        <ele>545</ele>
        <time>2019-10-27T10:01:29.000Z</time>
      </trkpt>
      <trkpt lat="45.56169" lon="5.74404">
        <ele>545</ele>
        <time>2019-10-27T10:01:30.000Z</time>
      </trkpt>
      <trkpt lat="45.56169" lon="5.74404">
        <ele>545</ele>
        <time>2019-10-27T10:01:31.000Z</time>
      </trkpt>
      <trkpt lat="45.56169" lon="5.74404">
        <ele>545</ele>
        <time>2019-10-27T10:01:32.000Z</time>
      </trkpt>
      <trkpt lat="45.56169" lon="5.74404">
        <ele>545</ele>
        <time>2019-10-27T10:01:33.000Z</time>
      </trkpt>
      <trkpt lat="45.56169" lon="5.74404">
        <ele>545</ele>
        <time>2019-10-27T10:01:34.000Z</time>
      </trkpt>
      <trkpt lat="45.56169" lon="5.74404">
        <ele>545</ele>
        <time>2019-10-27T10:01:35.000Z</time>
      </trkpt>
      <trkpt lat="45.56169" lon="5.74404">
        <ele>545</ele>
        <time>2019-10-27T10:01:36.000Z</time>
      </trkpt>
      <trkpt lat="45.56169" lon="5.74404">
        <ele>545</ele>
        <time>2019-10-27T10:01:37.000Z</time>
      </trkpt>
      <trkpt lat="45.56169" lon="5.74404">
        <ele>545</ele>
        <time>2019-10-27T10:01:38.000Z</time>
      </trkpt>
      <trkpt lat="45.56169" lon="5.74404">
        <ele>545</ele>
        <time>2019-10-27T10:01:39.000Z</time>
      </trkpt>
      <trkpt lat="45.56169" lon="5.74404">
        <ele>545</ele>
        <time>2019-10-27T10:01:40.000Z</time>
      </trkpt>
      <trkpt lat="45.56169" lon="5.74404">
        <ele>545</ele>
        <time>2019-10-27T10:01:41.000Z</time>
      </trkpt>
      <trkpt lat="45.56169" lon="5.74404">
        <ele>545</ele>
        <time>2019-10-27T10:01:42.000Z</time>
      </trkpt>
      <trkpt lat="45.56169" lon="5.74404">
        <ele>545</ele>
        <time>2019-10-27T10:01:43.000Z</time>
      </trkpt>
      <trkpt lat="45.56169" lon="5.74404">
        <ele>545</ele>
        <time>2019-10-27T10:01:44.000Z</time>
      </trkpt>
      <trkpt lat="45.56169" lon="5.74404">
        <ele>545</ele>
        <time>2019-10-27T10:01:45.000Z</time>
      </trkpt>
      <trkpt lat="45.56169" lon="5.74404">
        <ele>545</ele>
        <time>2019-10-27T10:01:46.000Z</time>
      </trkpt>
      <trkpt lat="45.56169" lon="5.74404">
        <ele>545</ele>
        <time>2019-10-27T10:01:47.000Z</time>
      </trkpt>
      <trkpt lat="45.56169" lon="5.74404">
        <ele>545</ele>
        <time>2019-10-27T10:01:48.000Z</time>
      </trkpt>
      <trkpt lat="45.56169" lon="5.74404">
        <ele>545</ele>
        <time>2019-10-27T10:01:49.000Z</time>
      </trkpt>
      <trkpt lat="45.56169" lon="5.74404">
        <ele>545</ele>
        <time>2019-10-27T10:01:50.000Z</time>
      </trkpt>
      <trkpt lat="45.56169" lon="5.74404">
        <ele>545</ele>
        <time>2019-10-27T10:01:51.000Z</time>
      </trkpt>
      <trkpt lat="45.56169" lon="5.74404">
        <ele>545</ele>
        <time>2019-10-27T10:01:52.000Z</time>
      </trkpt>
      <trkpt lat="45.56169" lon="5.74404">
        <ele>545</ele>
        <time>2019-10-27T10:01:53.000Z</time>
      </trkpt>
      <trkpt lat="45.56169" lon="5.74404">
        <ele>545</ele>
        <time>2019-10-27T10:01:54.000Z</time>
      </trkpt>
      <trkpt lat="45.56169" lon="5.74404">
        <ele>545</ele>
        <time>2019-10-27T10:01:55.000Z</time>
      </trkpt>
      <trkpt lat="45.56169" lon="5.74404">
        <ele>545</ele>
        <time>2019-10-27T10:01:56.000Z</time>
      </trkpt>
      <trkpt lat="45.56169" lon="5.74404">
        <ele>545</ele>
        <time>2019-10-27T10:01:57.000Z</time>
      </trkpt>
      <trkpt lat="45.56169" lon="5.74404">
        <ele>545</ele>
        <time>2019-10-27T10:01:58.000Z</time>
      </trkpt>
      <trkpt lat="45.56169" lon="5.74404">
        <ele>545</ele>
        <time>2019-10-27T10:01:59.000Z</time>
      </trkpt>
      <trkpt lat="45.56169" lon="5.74404">
        <ele>545</ele>
        <time>2019-10-27T10:02:00.000Z</time>
      </trkpt>
      <trkpt lat="45.56169" lon="5.74404">
        <ele>545</ele>
        <time>2019-10-27T10:02:01.000Z</time>
      </trkpt>
      <trkpt lat="45.56169" lon="5.74404">
        <ele>545</ele>
        <time>2019-10-27T10:02:02.000Z</time>
      </trkpt>
      <trkpt lat="45.56169" lon="5.74404">
        <ele>545</ele>
        <time>2019-10-27T10:02:03.000Z</time>
      </trkpt>
      <trkpt lat="45.56169" lon="5.74404">
        <ele>545</ele>
        <time>2019-10-27T10:02:04.000Z</time>
      </trkpt>
      <trkpt lat="45.56169" lon="5.74404">
        <ele>545</ele>
        <time>2019-10-27T10:02:05.000Z</time>
      </trkpt>
      <trkpt lat="45.56169" lon="5.74404">
        <ele>545</ele>
        <time>2019-10-27T10:02:06.000Z</time>
      </trkpt>
      <trkpt lat="45.56169" lon="5.74404">
        <ele>545</ele>
        <time>2019-10-27T10:02:07.000Z</time>
      </trkpt>
      <trkpt lat="45.56169" lon="5.74404">
        <ele>545</ele>
        <time>2019-10-27T10:02:08.000Z</time>
      </trkpt>
      <trkpt lat="45.56169" lon="5.74404">
        <ele>545</ele>
        <time>2019-10-27T10:02:09.000Z</time>
      </trkpt>
      <trkpt lat="45.56169" lon="5.74404">
        <ele>545</ele>
        <time>2019-10-27T10:02:10.000Z</time>
      </trkpt>
      <trkpt lat="45.56169" lon="5.74404">
        <ele>545</ele>
        <time>2019-10-27T10:02:11.000Z</time>
      </trkpt>
      <trkpt lat="45.56169" lon="5.74404">
        <ele>545</ele>
        <time>2019-10-27T10:02:12.000Z</time>
      </trkpt>
      <trkpt lat="45.56169" lon="5.74404">
        <ele>545</ele>
        <time>2019-10-27T10:02:13.000Z</time>
      </trkpt>
      <trkpt lat="45.56169" lon="5.74404">
        <ele>545</ele>
        <time>2019-10-27T10:02:14.000Z</time>
      </trkpt>
      <trkpt lat="45.56169" lon="5.74404">
        <ele>545</ele>
        <time>2019-10-27T10:02:15.000Z</time>
      </trkpt>
      <trkpt lat="45.56169" lon="5.74404">
        <ele>545</ele>
        <time>2019-10-27T10:02:16.000Z</time>
      </trkpt>
      <trkpt lat="45.56169" lon="5.74404">
        <ele>545</ele>
        <time>2019-10-27T10:02:17.000Z</time>
      </trkpt>
      <trkpt lat="45.56169" lon="5.74404">
        <ele>545</ele>
        <time>2019-10-27T10:02:18.000Z</time>
      </trkpt>
      <trkpt lat="45.56169" lon="5.74404">
        <ele>545</ele>
        <time>2019-10-27T10:02:19.000Z</time>
      </trkpt>
      <trkpt lat="45.56168" lon="5.74404">
        <ele>545</ele>
        <time>2019-10-27T10:02:20.000Z</time>
      </trkpt>
      <trkpt lat="45.56168" lon="5.74405">
        <ele>545</ele>
        <time>2019-10-27T10:02:21.000Z</time>
      </trkpt>
      <trkpt lat="45.56168" lon="5.74405">
        <ele>545</ele>
        <time>2019-10-27T10:02:22.000Z</time>
      </trkpt>
      <trkpt lat="45.56168" lon="5.74406">
        <ele>545</ele>
        <time>2019-10-27T10:02:23.000Z</time>
      </trkpt>
      <trkpt lat="45.56168" lon="5.74406">
        <ele>545</ele>
        <time>2019-10-27T10:02:24.000Z</time>
      </trkpt>
      <trkpt lat="45.56168" lon="5.74406">
        <ele>545</ele>
        <time>2019-10-27T10:02:25.000Z</time>
      </trkpt>
      <trkpt lat="45.56168" lon="5.74406">
        <ele>545</ele>
        <time>2019-10-27T10:02:26.000Z</time>
      </trkpt>
      <trkpt lat="45.56168" lon="5.74407">
        <ele>545</ele>
        <time>2019-10-27T10:02:27.000Z</time>
      </trkpt>
      <trkpt lat="45.56168" lon="5.74407">
        <ele>545</ele>
        <time>2019-10-27T10:02:28.000Z</time>
      </trkpt>
      <trkpt lat="45.56168" lon="5.74407">
        <ele>545</ele>
        <time>2019-10-27T10:02:29.000Z</time>
      </trkpt>
      <trkpt lat="45.56168" lon="5.74407">
        <ele>545</ele>
        <time>2019-10-27T10:02:30.000Z</time>
      </trkpt>
      <trkpt lat="45.56168" lon="5.74407">
        <ele>545</ele>
        <time>2019-10-27T10:02:31.000Z</time>
      </trkpt>
      <trkpt lat="45.56168" lon="5.74407">
        <ele>545</ele>
        <time>2019-10-27T10:02:32.000Z</time>
      </trkpt>
      <trkpt lat="45.56168" lon="5.74407">
        <ele>545</ele>
        <time>2019-10-27T10:02:33.000Z</time>
      </trkpt>
      <trkpt lat="45.56168" lon="5.74407">
        <ele>545</ele>
        <time>2019-10-27T10:02:34.000Z</time>
      </trkpt>
      <trkpt lat="45.56168" lon="5.74407">
        <ele>545</ele>
        <time>2019-10-27T10:02:35.000Z</time>
      </trkpt>
      <trkpt lat="45.56168" lon="5.74407">
        <ele>545</ele>
        <time>2019-10-27T10:02:36.000Z</time>
      </trkpt>
      <trkpt lat="45.56167" lon="5.74407">
        <ele>545</ele>
        <time>2019-10-27T10:02:37.000Z</time>
      </trkpt>
      <trkpt lat="45.56167" lon="5.74407">
        <ele>545</ele>
        <time>2019-10-27T10:02:38.000Z</time>
      </trkpt>
      <trkpt lat="45.56167" lon="5.74407">
        <ele>545</ele>
        <time>2019-10-27T10:02:39.000Z</time>
      </trkpt>
      <trkpt lat="45.56167" lon="5.74407">
        <ele>545</ele>
        <time>2019-10-27T10:02:40.000Z</time>
      </trkpt>
      <trkpt lat="45.56167" lon="5.74407">
        <ele>545</ele>
        <time>2019-10-27T10:02:41.000Z</time>
      </trkpt>
      <trkpt lat="45.56167" lon="5.74407">
        <ele>545</ele>
        <time>2019-10-27T10:02:42.000Z</time>
      </trkpt>
      <trkpt lat="45.56167" lon="5.74407">
        <ele>545</ele>
        <time>2019-10-27T10:02:43.000Z</time>
      </trkpt>
      <trkpt lat="45.56167" lon="5.74407">
        <ele>545</ele>
        <time>2019-10-27T10:02:44.000Z</time>
      </trkpt>
      <trkpt lat="45.56167" lon="5.74407">
        <ele>545</ele>
        <time>2019-10-27T10:02:45.000Z</time>
      </trkpt>
      <trkpt lat="45.56167" lon="5.74407">
        <ele>545</ele>
        <time>2019-10-27T10:02:46.000Z</time>
      </trkpt>
      <trkpt lat="45.56167" lon="5.74407">
        <ele>545</ele>
        <time>2019-10-27T10:02:47.000Z</time>
      </trkpt>
      <trkpt lat="45.56167" lon="5.74407">
        <ele>545</ele>
        <time>2019-10-27T10:02:48.000Z</time>
      </trkpt>
      <trkpt lat="45.56167" lon="5.74407">
        <ele>545</ele>
        <time>2019-10-27T10:02:49.000Z</time>
      </trkpt>
      <trkpt lat="45.56167" lon="5.74407">
        <ele>545</ele>
        <time>2019-10-27T10:02:50.000Z</time>
      </trkpt>
      <trkpt lat="45.56167" lon="5.74407">
        <ele>545</ele>
        <time>2019-10-27T10:02:51.000Z</time>
      </trkpt>
      <trkpt lat="45.56167" lon="5.74407">
        <ele>545</ele>
        <time>2019-10-27T10:02:52.000Z</time>
      </trkpt>
      <trkpt lat="45.56167" lon="5.74407">
        <ele>545</ele>
        <time>2019-10-27T10:02:53.000Z</time>
      </trkpt>
      <trkpt lat="45.56167" lon="5.74407">
        <ele>545</ele>
        <time>2019-10-27T10:02:54.000Z</time>
      </trkpt>
      <trkpt lat="45.56167" lon="5.74407">
        <ele>545</ele>
        <time>2019-10-27T10:02:55.000Z</time>
      </trkpt>
      <trkpt lat="45.56167" lon="5.74408">
        <ele>545</ele>
        <time>2019-10-27T10:02:56.000Z</time>
      </trkpt>
      <trkpt lat="45.56167" lon="5.74408">
        <ele>545</ele>
        <time>2019-10-27T10:02:57.000Z</time>
      </trkpt>
      <trkpt lat="45.56167" lon="5.74408">
        <ele>545</ele>
        <time>2019-10-27T10:02:58.000Z</time>
      </trkpt>
      <trkpt lat="45.56167" lon="5.74408">
        <ele>545</ele>
        <time>2019-10-27T10:02:59.000Z</time>
      </trkpt>
      <trkpt lat="45.56167" lon="5.74408">
        <ele>545</ele>
        <time>2019-10-27T10:03:00.000Z</time>
      </trkpt>
      <trkpt lat="45.56167" lon="5.74408">
        <ele>545</ele>
        <time>2019-10-27T10:03:01.000Z</time>
      </trkpt>
      <trkpt lat="45.56167" lon="5.74408">
        <ele>545</ele>
        <time>2019-10-27T10:03:02.000Z</time>
      </trkpt>
      <trkpt lat="45.56167" lon="5.74408">
        <ele>545</ele>
        <time>2019-10-27T10:03:03.000Z</time>
      </trkpt>
      <trkpt lat="45.56167" lon="5.74408">
        <ele>545</ele>
        <time>2019-10-27T10:03:04.000Z</time>
      </trkpt>
      <trkpt lat="45.56167" lon="5.74408">
        <ele>545</ele>
        <time>2019-10-27T10:03:05.000Z</time>
      </trkpt>
      <trkpt lat="45.56167" lon="5.74408">
        <ele>545</ele>
        <time>2019-10-27T10:03:06.000Z</time>
      </trkpt>
      <trkpt lat="45.56167" lon="5.74408">
        <ele>545</ele>
        <time>2019-10-27T10:03:07.000Z</time>
      </trkpt>
      <trkpt lat="45.56166" lon="5.74408">
        <ele>545</ele>
        <time>2019-10-27T10:03:08.000Z</time>
      </trkpt>
      <trkpt lat="45.56166" lon="5.74408">
        <ele>545</ele>
        <time>2019-10-27T10:03:09.000Z</time>
      </trkpt>
      <trkpt lat="45.56166" lon="5.74408">
        <ele>545</ele>
        <time>2019-10-27T10:03:10.000Z</time>
      </trkpt>
      <trkpt lat="45.56166" lon="5.74408">
        <ele>545</ele>
        <time>2019-10-27T10:03:11.000Z</time>
      </trkpt>
      <trkpt lat="45.56166" lon="5.74408">
        <ele>545</ele>
        <time>2019-10-27T10:03:12.000Z</time>
      </trkpt>
      <trkpt lat="45.56166" lon="5.74408">
        <ele>545</ele>
        <time>2019-10-27T10:03:13.000Z</time>
      </trkpt>
      <trkpt lat="45.56166" lon="5.74408">
        <ele>545</ele>
        <time>2019-10-27T10:03:14.000Z</time>
      </trkpt>
      <trkpt lat="45.56166" lon="5.74408">
        <ele>545</ele>
        <time>2019-10-27T10:03:15.000Z</time>
      </trkpt>
      <trkpt lat="45.56166" lon="5.74408">
        <ele>545</ele>
        <time>2019-10-27T10:03:16.000Z</time>
      </trkpt>
      <trkpt lat="45.56166" lon="5.74408">
        <ele>545</ele>
        <time>2019-10-27T10:03:17.000Z</time>
      </trkpt>
      <trkpt lat="45.56166" lon="5.74408">
        <ele>545</ele>
        <time>2019-10-27T10:03:18.000Z</time>
      </trkpt>
      <trkpt lat="45.56166" lon="5.74408">
        <ele>545</ele>
        <time>2019-10-27T10:03:19.000Z</time>
      </trkpt>
      <trkpt lat="45.56166" lon="5.74408">
        <ele>545</ele>
        <time>2019-10-27T10:03:20.000Z</time>
      </trkpt>
      <trkpt lat="45.56166" lon="5.74408">
        <ele>545</ele>
        <time>2019-10-27T10:03:21.000Z</time>
      </trkpt>
      <trkpt lat="45.56166" lon="5.74408">
        <ele>545</ele>
        <time>2019-10-27T10:03:22.000Z</time>
      </trkpt>
      <trkpt lat="45.56166" lon="5.74408">
        <ele>545</ele>
        <time>2019-10-27T10:03:23.000Z</time>
      </trkpt>
      <trkpt lat="45.56166" lon="5.74408">
        <ele>545</ele>
        <time>2019-10-27T10:03:24.000Z</time>
      </trkpt>
      <trkpt lat="45.56166" lon="5.74408">
        <ele>545</ele>
        <time>2019-10-27T10:03:25.000Z</time>
      </trkpt>
      <trkpt lat="45.56166" lon="5.74408">
        <ele>545</ele>
        <time>2019-10-27T10:03:26.000Z</time>
      </trkpt>
      <trkpt lat="45.56166" lon="5.74408">
        <ele>545</ele>
        <time>2019-10-27T10:03:27.000Z</time>
      </trkpt>
      <trkpt lat="45.56166" lon="5.74408">
        <ele>545</ele>
        <time>2019-10-27T10:03:28.000Z</time>
      </trkpt>
      <trkpt lat="45.56166" lon="5.74408">
        <ele>545</ele>
        <time>2019-10-27T10:03:29.000Z</time>
      </trkpt>
      <trkpt lat="45.56166" lon="5.74408">
        <ele>545</ele>
        <time>2019-10-27T10:03:30.000Z</time>
      </trkpt>
      <trkpt lat="45.56166" lon="5.74408">
        <ele>545</ele>
        <time>2019-10-27T10:03:31.000Z</time>
      </trkpt>
      <trkpt lat="45.56166" lon="5.74408">
        <ele>545.5</ele>
        <time>2019-10-27T10:03:32.000Z</time>
      </trkpt>
      <trkpt lat="45.56166" lon="5.74408">
        <ele>546</ele>
        <time>2019-10-27T10:03:33.000Z</time>
      </trkpt>
      <trkpt lat="45.56166" lon="5.74408">
        <ele>546</ele>
        <time>2019-10-27T10:03:34.000Z</time>
      </trkpt>
      <trkpt lat="45.56166" lon="5.74408">
        <ele>546</ele>
        <time>2019-10-27T10:03:35.000Z</time>
      </trkpt>
      <trkpt lat="45.56166" lon="5.74408">
        <ele>545.5</ele>
        <time>2019-10-27T10:03:36.000Z</time>
      </trkpt>
      <trkpt lat="45.56166" lon="5.74408">
        <ele>545</ele>
        <time>2019-10-27T10:03:37.000Z</time>
      </trkpt>
      <trkpt lat="45.56166" lon="5.74408">
        <ele>545.5</ele>
        <time>2019-10-27T10:03:38.000Z</time>
      </trkpt>
      <trkpt lat="45.56166" lon="5.74408">
        <ele>546</ele>
        <time>2019-10-27T10:03:39.000Z</time>
      </trkpt>
      <trkpt lat="45.56166" lon="5.74408">
        <ele>546</ele>
        <time>2019-10-27T10:03:40.000Z</time>
      </trkpt>
      <trkpt lat="45.56166" lon="5.74408">
        <ele>545.7</ele>
        <time>2019-10-27T10:03:41.000Z</time>
      </trkpt>
      <trkpt lat="45.56166" lon="5.74408">
        <ele>545.3</ele>
        <time>2019-10-27T10:03:42.000Z</time>
      </trkpt>
      <trkpt lat="45.56166" lon="5.74408">
        <ele>545</ele>
        <time>2019-10-27T10:03:43.000Z</time>
      </trkpt>
      <trkpt lat="45.56166" lon="5.74408">
        <ele>545</ele>
        <time>2019-10-27T10:03:44.000Z</time>
      </trkpt>
      <trkpt lat="45.56166" lon="5.74408">
        <ele>545</ele>
        <time>2019-10-27T10:03:45.000Z</time>
      </trkpt>
      <trkpt lat="45.56166" lon="5.74408">
        <ele>545.5</ele>
        <time>2019-10-27T10:03:46.000Z</time>
      </trkpt>
      <trkpt lat="45.56166" lon="5.74408">
        <ele>546</ele>
        <time>2019-10-27T10:03:47.000Z</time>
      </trkpt>
      <trkpt lat="45.56166" lon="5.74408">
        <ele>545.5</ele>
        <time>2019-10-27T10:03:48.000Z</time>
      </trkpt>
      <trkpt lat="45.56166" lon="5.74408">
        <ele>545</ele>
        <time>2019-10-27T10:03:49.000Z</time>
      </trkpt>
      <trkpt lat="45.56166" lon="5.74408">
        <ele>545</ele>
        <time>2019-10-27T10:03:50.000Z</time>
      </trkpt>
      <trkpt lat="45.56166" lon="5.74408">
        <ele>545</ele>
        <time>2019-10-27T10:03:51.000Z</time>
      </trkpt>
      <trkpt lat="45.56166" lon="5.74408">
        <ele>545.5</ele>
        <time>2019-10-27T10:03:52.000Z</time>
      </trkpt>
      <trkpt lat="45.56166" lon="5.74408">
        <ele>546</ele>
        <time>2019-10-27T10:03:53.000Z</time>
      </trkpt>
      <trkpt lat="45.56166" lon="5.74408">
        <ele>546</ele>
        <time>2019-10-27T10:03:54.000Z</time>
      </trkpt>
      <trkpt lat="45.56166" lon="5.74408">
        <ele>546</ele>
        <time>2019-10-27T10:03:55.000Z</time>
      </trkpt>
      <trkpt lat="45.56166" lon="5.74408">
        <ele>546</ele>
        <time>2019-10-27T10:03:56.000Z</time>
      </trkpt>
      <trkpt lat="45.56166" lon="5.74408">
        <ele>546</ele>
        <time>2019-10-27T10:03:57.000Z</time>
      </trkpt>
      <trkpt lat="45.56166" lon="5.74408">
        <ele>546</ele>
        <time>2019-10-27T10:03:58.000Z</time>
      </trkpt>
      <trkpt lat="45.56166" lon="5.74408">
        <ele>546</ele>
        <time>2019-10-27T10:03:59.000Z</time>
      </trkpt>
      <trkpt lat="45.56166" lon="5.74408">
        <ele>546</ele>
        <time>2019-10-27T10:04:00.000Z</time>
      </trkpt>
      <trkpt lat="45.56166" lon="5.74408">
        <ele>546</ele>
        <time>2019-10-27T10:04:01.000Z</time>
      </trkpt>
      <trkpt lat="45.56166" lon="5.74408">
        <ele>546</ele>
        <time>2019-10-27T10:04:02.000Z</time>
      </trkpt>
      <trkpt lat="45.56166" lon="5.74408">
        <ele>546</ele>
        <time>2019-10-27T10:04:03.000Z</time>
      </trkpt>
      <trkpt lat="45.56166" lon="5.74408">
        <ele>546</ele>
        <time>2019-10-27T10:04:04.000Z</time>
      </trkpt>
      <trkpt lat="45.56166" lon="5.74408">
        <ele>546</ele>
        <time>2019-10-27T10:04:05.000Z</time>
      </trkpt>
      <trkpt lat="45.56166" lon="5.74408">
        <ele>546</ele>
        <time>2019-10-27T10:04:06.000Z</time>
      </trkpt>
      <trkpt lat="45.56166" lon="5.74408">
        <ele>546</ele>
        <time>2019-10-27T10:04:07.000Z</time>
      </trkpt>
      <trkpt lat="45.56166" lon="5.74408">
        <ele>546</ele>
        <time>2019-10-27T10:04:08.000Z</time>
      </trkpt>
      <trkpt lat="45.56166" lon="5.74408">
        <ele>546</ele>
        <time>2019-10-27T10:04:09.000Z</time>
      </trkpt>
      <trkpt lat="45.56166" lon="5.74408">
        <ele>546</ele>
        <time>2019-10-27T10:04:10.000Z</time>
      </trkpt>
      <trkpt lat="45.56166" lon="5.74408">
        <ele>546</ele>
        <time>2019-10-27T10:04:11.000Z</time>
      </trkpt>
      <trkpt lat="45.56166" lon="5.74408">
        <ele>546</ele>
        <time>2019-10-27T10:04:12.000Z</time>
      </trkpt>
      <trkpt lat="45.56166" lon="5.74408">
        <ele>546</ele>
        <time>2019-10-27T10:04:13.000Z</time>
      </trkpt>
      <trkpt lat="45.56166" lon="5.74408">
        <ele>546</ele>
        <time>2019-10-27T10:04:14.000Z</time>
      </trkpt>
      <trkpt lat="45.56166" lon="5.74408">
        <ele>546</ele>
        <time>2019-10-27T10:04:15.000Z</time>
      </trkpt>
      <trkpt lat="45.56166" lon="5.74408">
        <ele>546</ele>
        <time>2019-10-27T10:04:16.000Z</time>
      </trkpt>
      <trkpt lat="45.56166" lon="5.74408">
        <ele>546</ele>
        <time>2019-10-27T10:04:17.000Z</time>
      </trkpt>
      <trkpt lat="45.56166" lon="5.74408">
        <ele>546</ele>
        <time>2019-10-27T10:04:18.000Z</time>
      </trkpt>
      <trkpt lat="45.56166" lon="5.74408">
        <ele>546</ele>
        <time>2019-10-27T10:04:19.000Z</time>
      </trkpt>
      <trkpt lat="45.56166" lon="5.74408">
        <ele>546</ele>
        <time>2019-10-27T10:04:20.000Z</time>
      </trkpt>
      <trkpt lat="45.56166" lon="5.74408">
        <ele>546</ele>
        <time>2019-10-27T10:04:21.000Z</time>
      </trkpt>
      <trkpt lat="45.56166" lon="5.74408">
        <ele>546</ele>
        <time>2019-10-27T10:04:22.000Z</time>
      </trkpt>
      <trkpt lat="45.56167" lon="5.74408">
        <ele>546</ele>
        <time>2019-10-27T10:04:23.000Z</time>
      </trkpt>
      <trkpt lat="45.56167" lon="5.74409">
        <ele>546</ele>
        <time>2019-10-27T10:04:24.000Z</time>
      </trkpt>
      <trkpt lat="45.56167" lon="5.74409">
        <ele>546</ele>
        <time>2019-10-27T10:04:25.000Z</time>
      </trkpt>
      <trkpt lat="45.56167" lon="5.7441">
        <ele>546</ele>
        <time>2019-10-27T10:04:26.000Z</time>
      </trkpt>
      <trkpt lat="45.56167" lon="5.7441">
        <ele>546</ele>
        <time>2019-10-27T10:04:27.000Z</time>
      </trkpt>
      <trkpt lat="45.56167" lon="5.7441">
        <ele>546</ele>
        <time>2019-10-27T10:04:28.000Z</time>
      </trkpt>
      <trkpt lat="45.56168" lon="5.7441">
        <ele>546</ele>
        <time>2019-10-27T10:04:29.000Z</time>
      </trkpt>
      <trkpt lat="45.56168" lon="5.7441">
        <ele>546</ele>
        <time>2019-10-27T10:04:30.000Z</time>
      </trkpt>
      <trkpt lat="45.56168" lon="5.7441">
        <ele>546</ele>
        <time>2019-10-27T10:04:31.000Z</time>
      </trkpt>
      <trkpt lat="45.56168" lon="5.7441">
        <ele>546</ele>
        <time>2019-10-27T10:04:32.000Z</time>
      </trkpt>
      <trkpt lat="45.56168" lon="5.7441">
        <ele>546</ele>
        <time>2019-10-27T10:04:33.000Z</time>
      </trkpt>
      <trkpt lat="45.56168" lon="5.7441">
        <ele>546</ele>
        <time>2019-10-27T10:04:34.000Z</time>
      </trkpt>
      <trkpt lat="45.56169" lon="5.7441">
        <ele>546</ele>
        <time>2019-10-27T10:04:35.000Z</time>
      </trkpt>
      <trkpt lat="45.56169" lon="5.7441">
        <ele>546</ele>
        <time>2019-10-27T10:04:36.000Z</time>
      </trkpt>
      <trkpt lat="45.56169" lon="5.7441">
        <ele>546</ele>
        <time>2019-10-27T10:04:37.000Z</time>
      </trkpt>
      <trkpt lat="45.56169" lon="5.7441">
        <ele>546</ele>
        <time>2019-10-27T10:04:38.000Z</time>
      </trkpt>
      <trkpt lat="45.56169" lon="5.7441">
        <ele>546</ele>
        <time>2019-10-27T10:04:39.000Z</time>
      </trkpt>
      <trkpt lat="45.56169" lon="5.7441">
        <ele>546</ele>
        <time>2019-10-27T10:04:40.000Z</time>
      </trkpt>
      <trkpt lat="45.56169" lon="5.7441">
        <ele>546</ele>
        <time>2019-10-27T10:04:41.000Z</time>
      </trkpt>
      <trkpt lat="45.56169" lon="5.7441">
        <ele>546</ele>
        <time>2019-10-27T10:04:42.000Z</time>
      </trkpt>
      <trkpt lat="45.56169" lon="5.74411">
        <ele>546</ele>
        <time>2019-10-27T10:04:43.000Z</time>
      </trkpt>
      <trkpt lat="45.56169" lon="5.74411">
        <ele>546</ele>
        <time>2019-10-27T10:04:44.000Z</time>
      </trkpt>
      <trkpt lat="45.56169" lon="5.74411">
        <ele>546</ele>
        <time>2019-10-27T10:04:45.000Z</time>
      </trkpt>
      <trkpt lat="45.56169" lon="5.74411">
        <ele>546</ele>
        <time>2019-10-27T10:04:46.000Z</time>
      </trkpt>
      <trkpt lat="45.56169" lon="5.74411">
        <ele>546</ele>
        <time>2019-10-27T10:04:47.000Z</time>
      </trkpt>
      <trkpt lat="45.56169" lon="5.74411">
        <ele>546</ele>
        <time>2019-10-27T10:04:48.000Z</time>
      </trkpt>
      <trkpt lat="45.56169" lon="5.74411">
        <ele>546</ele>
        <time>2019-10-27T10:04:49.000Z</time>
      </trkpt>
      <trkpt lat="45.56169" lon="5.74411">
        <ele>546</ele>
        <time>2019-10-27T10:04:50.000Z</time>
      </trkpt>
      <trkpt lat="45.56169" lon="5.74411">
        <ele>546</ele>
        <time>2019-10-27T10:04:51.000Z</time>
      </trkpt>
      <trkpt lat="45.56169" lon="5.74411">
        <ele>546</ele>
        <time>2019-10-27T10:04:52.000Z</time>
      </trkpt>
      <trkpt lat="45.56169" lon="5.74411">
        <ele>546</ele>
        <time>2019-10-27T10:04:53.000Z</time>
      </trkpt>
      <trkpt lat="45.56169" lon="5.74411">
        <ele>546</ele>
        <time>2019-10-27T10:04:54.000Z</time>
      </trkpt>
      <trkpt lat="45.56169" lon="5.74411">
        <ele>546</ele>
        <time>2019-10-27T10:04:55.000Z</time>
      </trkpt>
      <trkpt lat="45.56169" lon="5.74411">
        <ele>546</ele>
        <time>2019-10-27T10:04:56.000Z</time>
      </trkpt>
      <trkpt lat="45.56169" lon="5.74411">
        <ele>546</ele>
        <time>2019-10-27T10:04:57.000Z</time>
      </trkpt>
      <trkpt lat="45.56169" lon="5.74411">
        <ele>546</ele>
        <time>2019-10-27T10:04:58.000Z</time>
      </trkpt>
      <trkpt lat="45.56169" lon="5.74411">
        <ele>546</ele>
        <time>2019-10-27T10:04:59.000Z</time>
      </trkpt>
      <trkpt lat="45.56169" lon="5.74411">
        <ele>546</ele>
        <time>2019-10-27T10:05:00.000Z</time>
      </trkpt>
      <trkpt lat="45.56169" lon="5.74411">
        <ele>546</ele>
        <time>2019-10-27T10:05:01.000Z</time>
      </trkpt>
      <trkpt lat="45.56169" lon="5.74411">
        <ele>546</ele>
        <time>2019-10-27T10:05:02.000Z</time>
      </trkpt>
      <trkpt lat="45.56169" lon="5.74412">
        <ele>546</ele>
        <time>2019-10-27T10:05:03.000Z</time>
      </trkpt>
      <trkpt lat="45.56169" lon="5.74412">
        <ele>546</ele>
        <time>2019-10-27T10:05:04.000Z</time>
      </trkpt>
      <trkpt lat="45.56169" lon="5.74412">
        <ele>546</ele>
        <time>2019-10-27T10:05:05.000Z</time>
      </trkpt>
      <trkpt lat="45.56169" lon="5.74412">
        <ele>546</ele>
        <time>2019-10-27T10:05:06.000Z</time>
      </trkpt>
      <trkpt lat="45.56169" lon="5.74412">
        <ele>546</ele>
        <time>2019-10-27T10:05:07.000Z</time>
      </trkpt>
      <trkpt lat="45.56169" lon="5.74412">
        <ele>546</ele>
        <time>2019-10-27T10:05:08.000Z</time>
      </trkpt>
      <trkpt lat="45.56169" lon="5.74412">
        <ele>546</ele>
        <time>2019-10-27T10:05:09.000Z</time>
      </trkpt>
      <trkpt lat="45.56169" lon="5.74412">
        <ele>546</ele>
        <time>2019-10-27T10:05:10.000Z</time>
      </trkpt>
      <trkpt lat="45.56169" lon="5.74412">
        <ele>546</ele>
        <time>2019-10-27T10:05:11.000Z</time>
      </trkpt>
      <trkpt lat="45.56169" lon="5.74412">
        <ele>546</ele>
        <time>2019-10-27T10:05:12.000Z</time>
      </trkpt>
      <trkpt lat="45.56169" lon="5.74412">
        <ele>546</ele>
        <time>2019-10-27T10:05:13.000Z</time>
      </trkpt>
      <trkpt lat="45.56169" lon="5.74412">
        <ele>546</ele>
        <time>2019-10-27T10:05:14.000Z</time>
      </trkpt>
      <trkpt lat="45.56169" lon="5.74412">
        <ele>546</ele>
        <time>2019-10-27T10:05:15.000Z</time>
      </trkpt>
      <trkpt lat="45.56169" lon="5.74412">
        <ele>546</ele>
        <time>2019-10-27T10:05:16.000Z</time>
      </trkpt>
      <trkpt lat="45.56169" lon="5.74412">
        <ele>546</ele>
        <time>2019-10-27T10:05:17.000Z</time>
      </trkpt>
      <trkpt lat="45.56169" lon="5.74413">
        <ele>546</ele>
        <time>2019-10-27T10:05:18.000Z</time>
      </trkpt>
      <trkpt lat="45.56169" lon="5.74413">
        <ele>546</ele>
        <time>2019-10-27T10:05:19.000Z</time>
      </trkpt>
      <trkpt lat="45.56169" lon="5.74413">
        <ele>546</ele>
        <time>2019-10-27T10:05:20.000Z</time>
      </trkpt>
      <trkpt lat="45.56169" lon="5.74413">
        <ele>546</ele>
        <time>2019-10-27T10:05:21.000Z</time>
      </trkpt>
      <trkpt lat="45.56169" lon="5.74412">
        <ele>546</ele>
        <time>2019-10-27T10:05:22.000Z</time>
      </trkpt>
      <trkpt lat="45.56169" lon="5.74412">
        <ele>546</ele>
        <time>2019-10-27T10:05:23.000Z</time>
      </trkpt>
      <trkpt lat="45.56169" lon="5.74412">
        <ele>546</ele>
        <time>2019-10-27T10:05:24.000Z</time>
      </trkpt>
      <trkpt lat="45.56169" lon="5.74412">
        <ele>546</ele>
        <time>2019-10-27T10:05:25.000Z</time>
      </trkpt>
      <trkpt lat="45.5617" lon="5.74412">
        <ele>546</ele>
        <time>2019-10-27T10:05:26.000Z</time>
      </trkpt>
      <trkpt lat="45.5617" lon="5.74412">
        <ele>546</ele>
        <time>2019-10-27T10:05:27.000Z</time>
      </trkpt>
      <trkpt lat="45.5617" lon="5.74412">
        <ele>546</ele>
        <time>2019-10-27T10:05:28.000Z</time>
      </trkpt>
      <trkpt lat="45.5617" lon="5.74412">
        <ele>546</ele>
        <time>2019-10-27T10:05:29.000Z</time>
      </trkpt>
      <trkpt lat="45.5617" lon="5.74412">
        <ele>546</ele>
        <time>2019-10-27T10:05:30.000Z</time>
      </trkpt>
      <trkpt lat="45.5617" lon="5.74412">
        <ele>546</ele>
        <time>2019-10-27T10:05:31.000Z</time>
      </trkpt>
      <trkpt lat="45.5617" lon="5.74412">
        <ele>546</ele>
        <time>2019-10-27T10:05:32.000Z</time>
      </trkpt>
      <trkpt lat="45.5617" lon="5.74412">
        <ele>546</ele>
        <time>2019-10-27T10:05:33.000Z</time>
      </trkpt>
      <trkpt lat="45.5617" lon="5.74412">
        <ele>546</ele>
        <time>2019-10-27T10:05:34.000Z</time>
      </trkpt>
      <trkpt lat="45.5617" lon="5.74412">
        <ele>546</ele>
        <time>2019-10-27T10:05:35.000Z</time>
      </trkpt>
      <trkpt lat="45.5617" lon="5.74412">
        <ele>546</ele>
        <time>2019-10-27T10:05:36.000Z</time>
      </trkpt>
      <trkpt lat="45.5617" lon="5.74412">
        <ele>546</ele>
        <time>2019-10-27T10:05:37.000Z</time>
      </trkpt>
      <trkpt lat="45.5617" lon="5.74412">
        <ele>546</ele>
        <time>2019-10-27T10:05:38.000Z</time>
      </trkpt>
      <trkpt lat="45.5617" lon="5.74412">
        <ele>546</ele>
        <time>2019-10-27T10:05:39.000Z</time>
      </trkpt>
      <trkpt lat="45.5617" lon="5.74412">
        <ele>546</ele>
        <time>2019-10-27T10:05:40.000Z</time>
      </trkpt>
      <trkpt lat="45.5617" lon="5.74412">
        <ele>546</ele>
        <time>2019-10-27T10:05:41.000Z</time>
      </trkpt>
      <trkpt lat="45.5617" lon="5.74412">
        <ele>546</ele>
        <time>2019-10-27T10:05:42.000Z</time>
      </trkpt>
      <trkpt lat="45.5617" lon="5.74412">
        <ele>546</ele>
        <time>2019-10-27T10:05:43.000Z</time>
      </trkpt>
      <trkpt lat="45.5617" lon="5.74412">
        <ele>546</ele>
        <time>2019-10-27T10:05:44.000Z</time>
      </trkpt>
      <trkpt lat="45.5617" lon="5.74412">
        <ele>546</ele>
        <time>2019-10-27T10:05:45.000Z</time>
      </trkpt>
      <trkpt lat="45.5617" lon="5.74412">
        <ele>546</ele>
        <time>2019-10-27T10:05:46.000Z</time>
      </trkpt>
      <trkpt lat="45.5617" lon="5.74412">
        <ele>546</ele>
        <time>2019-10-27T10:05:47.000Z</time>
      </trkpt>
      <trkpt lat="45.5617" lon="5.74412">
        <ele>546</ele>
        <time>2019-10-27T10:05:48.000Z</time>
      </trkpt>
      <trkpt lat="45.5617" lon="5.74412">
        <ele>546</ele>
        <time>2019-10-27T10:05:49.000Z</time>
      </trkpt>
      <trkpt lat="45.5617" lon="5.74412">
        <ele>546</ele>
        <time>2019-10-27T10:05:50.000Z</time>
      </trkpt>
      <trkpt lat="45.5617" lon="5.74412">
        <ele>546</ele>
        <time>2019-10-27T10:05:51.000Z</time>
      </trkpt>
      <trkpt lat="45.5617" lon="5.74412">
        <ele>546</ele>
        <time>2019-10-27T10:05:52.000Z</time>
      </trkpt>
      <trkpt lat="45.5617" lon="5.74412">
        <ele>546</ele>
        <time>2019-10-27T10:05:53.000Z</time>
      </trkpt>
      <trkpt lat="45.5617" lon="5.74412">
        <ele>546</ele>
        <time>2019-10-27T10:05:54.000Z</time>
      </trkpt>
      <trkpt lat="45.5617" lon="5.74412">
        <ele>546</ele>
        <time>2019-10-27T10:05:55.000Z</time>
      </trkpt>
      <trkpt lat="45.5617" lon="5.74412">
        <ele>546</ele>
        <time>2019-10-27T10:05:56.000Z</time>
      </trkpt>
      <trkpt lat="45.5617" lon="5.74412">
        <ele>546</ele>
        <time>2019-10-27T10:05:57.000Z</time>
      </trkpt>
      <trkpt lat="45.5617" lon="5.74412">
        <ele>546</ele>
        <time>2019-10-27T10:05:58.000Z</time>
      </trkpt>
      <trkpt lat="45.5617" lon="5.74412">
        <ele>546</ele>
        <time>2019-10-27T10:05:59.000Z</time>
      </trkpt>
      <trkpt lat="45.5617" lon="5.74412">
        <ele>546</ele>
        <time>2019-10-27T10:06:00.000Z</time>
      </trkpt>
      <trkpt lat="45.5617" lon="5.74412">
        <ele>546</ele>
        <time>2019-10-27T10:06:01.000Z</time>
      </trkpt>
      <trkpt lat="45.5617" lon="5.74411">
        <ele>546</ele>
        <time>2019-10-27T10:06:02.000Z</time>
      </trkpt>
      <trkpt lat="45.5617" lon="5.74411">
        <ele>546</ele>
        <time>2019-10-27T10:06:03.000Z</time>
      </trkpt>
      <trkpt lat="45.5617" lon="5.74411">
        <ele>546</ele>
        <time>2019-10-27T10:06:04.000Z</time>
      </trkpt>
      <trkpt lat="45.5617" lon="5.74411">
        <ele>546</ele>
        <time>2019-10-27T10:06:05.000Z</time>
      </trkpt>
      <trkpt lat="45.5617" lon="5.74411">
        <ele>546</ele>
        <time>2019-10-27T10:06:06.000Z</time>
      </trkpt>
      <trkpt lat="45.5617" lon="5.74411">
        <ele>546</ele>
        <time>2019-10-27T10:06:07.000Z</time>
      </trkpt>
      <trkpt lat="45.5617" lon="5.74411">
        <ele>546</ele>
        <time>2019-10-27T10:06:08.000Z</time>
      </trkpt>
      <trkpt lat="45.5617" lon="5.74411">
        <ele>546</ele>
        <time>2019-10-27T10:06:09.000Z</time>
      </trkpt>
      <trkpt lat="45.5617" lon="5.74411">
        <ele>546</ele>
        <time>2019-10-27T10:06:10.000Z</time>
      </trkpt>
      <trkpt lat="45.5617" lon="5.74411">
        <ele>546</ele>
        <time>2019-10-27T10:06:11.000Z</time>
      </trkpt>
      <trkpt lat="45.5617" lon="5.74411">
        <ele>546</ele>
        <time>2019-10-27T10:06:12.000Z</time>
      </trkpt>
      <trkpt lat="45.5617" lon="5.74411">
        <ele>546</ele>
        <time>2019-10-27T10:06:13.000Z</time>
      </trkpt>
      <trkpt lat="45.5617" lon="5.74411">
        <ele>546</ele>
        <time>2019-10-27T10:06:14.000Z</time>
      </trkpt>
      <trkpt lat="45.5617" lon="5.74411">
        <ele>546</ele>
        <time>2019-10-27T10:06:15.000Z</time>
      </trkpt>
      <trkpt lat="45.5617" lon="5.74411">
        <ele>546</ele>
        <time>2019-10-27T10:06:16.000Z</time>
      </trkpt>
      <trkpt lat="45.5617" lon="5.74411">
        <ele>546</ele>
        <time>2019-10-27T10:06:17.000Z</time>
      </trkpt>
      <trkpt lat="45.5617" lon="5.74411">
        <ele>546</ele>
        <time>2019-10-27T10:06:18.000Z</time>
      </trkpt>
      <trkpt lat="45.5617" lon="5.74411">
        <ele>546</ele>
        <time>2019-10-27T10:06:19.000Z</time>
      </trkpt>
      <trkpt lat="45.5617" lon="5.74411">
        <ele>546</ele>
        <time>2019-10-27T10:06:20.000Z</time>
      </trkpt>
      <trkpt lat="45.5617" lon="5.74411">
        <ele>546</ele>
        <time>2019-10-27T10:06:21.000Z</time>
      </trkpt>
      <trkpt lat="45.5617" lon="5.74411">
        <ele>546</ele>
        <time>2019-10-27T10:06:22.000Z</time>
      </trkpt>
      <trkpt lat="45.5617" lon="5.74411">
        <ele>546</ele>
        <time>2019-10-27T10:06:23.000Z</time>
      </trkpt>
      <trkpt lat="45.5617" lon="5.74411">
        <ele>546</ele>
        <time>2019-10-27T10:06:24.000Z</time>
      </trkpt>
      <trkpt lat="45.5617" lon="5.74411">
        <ele>546</ele>
        <time>2019-10-27T10:06:25.000Z</time>
      </trkpt>
      <trkpt lat="45.5617" lon="5.74411">
        <ele>546</ele>
        <time>2019-10-27T10:06:26.000Z</time>
      </trkpt>
      <trkpt lat="45.5617" lon="5.74411">
        <ele>546</ele>
        <time>2019-10-27T10:06:27.000Z</time>
      </trkpt>
      <trkpt lat="45.5617" lon="5.74411">
        <ele>546</ele>
        <time>2019-10-27T10:06:28.000Z</time>
      </trkpt>
      <trkpt lat="45.5617" lon="5.74411">
        <ele>546</ele>
        <time>2019-10-27T10:06:29.000Z</time>
      </trkpt>
      <trkpt lat="45.5617" lon="5.74411">
        <ele>546</ele>
        <time>2019-10-27T10:06:30.000Z</time>
      </trkpt>
      <trkpt lat="45.5617" lon="5.74411">
        <ele>546</ele>
        <time>2019-10-27T10:06:31.000Z</time>
      </trkpt>
      <trkpt lat="45.5617" lon="5.74411">
        <ele>546</ele>
        <time>2019-10-27T10:06:32.000Z</time>
      </trkpt>
      <trkpt lat="45.5617" lon="5.74411">
        <ele>546</ele>
        <time>2019-10-27T10:06:33.000Z</time>
      </trkpt>
      <trkpt lat="45.5617" lon="5.74411">
        <ele>546</ele>
        <time>2019-10-27T10:06:34.000Z</time>
      </trkpt>
      <trkpt lat="45.5617" lon="5.74411">
        <ele>546</ele>
        <time>2019-10-27T10:06:35.000Z</time>
      </trkpt>
      <trkpt lat="45.5617" lon="5.74411">
        <ele>546</ele>
        <time>2019-10-27T10:06:36.000Z</time>
      </trkpt>
      <trkpt lat="45.5617" lon="5.74411">
        <ele>546</ele>
        <time>2019-10-27T10:06:37.000Z</time>
      </trkpt>
      <trkpt lat="45.5617" lon="5.74411">
        <ele>546</ele>
        <time>2019-10-27T10:06:38.000Z</time>
      </trkpt>
      <trkpt lat="45.5617" lon="5.74411">
        <ele>546</ele>
        <time>2019-10-27T10:06:39.000Z</time>
      </trkpt>
      <trkpt lat="45.5617" lon="5.74411">
        <ele>546</ele>
        <time>2019-10-27T10:06:40.000Z</time>
      </trkpt>
      <trkpt lat="45.5617" lon="5.74411">
        <ele>546</ele>
        <time>2019-10-27T10:06:41.000Z</time>
      </trkpt>
      <trkpt lat="45.5617" lon="5.74411">
        <ele>546</ele>
        <time>2019-10-27T10:06:42.000Z</time>
      </trkpt>
      <trkpt lat="45.5617" lon="5.74411">
        <ele>546</ele>
        <time>2019-10-27T10:06:43.000Z</time>
      </trkpt>
      <trkpt lat="45.5617" lon="5.74411">
        <ele>546</ele>
        <time>2019-10-27T10:06:44.000Z</time>
      </trkpt>
      <trkpt lat="45.5617" lon="5.74411">
        <ele>546</ele>
        <time>2019-10-27T10:06:45.000Z</time>
      </trkpt>
      <trkpt lat="45.5617" lon="5.74411">
        <ele>546</ele>
        <time>2019-10-27T10:06:46.000Z</time>
      </trkpt>
      <trkpt lat="45.5617" lon="5.74411">
        <ele>546</ele>
        <time>2019-10-27T10:06:47.000Z</time>
      </trkpt>
      <trkpt lat="45.5617" lon="5.74411">
        <ele>547</ele>
        <time>2019-10-27T10:06:48.000Z</time>
      </trkpt>
      <trkpt lat="45.5617" lon="5.74411">
        <ele>546.7</ele>
        <time>2019-10-27T10:06:49.000Z</time>
      </trkpt>
      <trkpt lat="45.5617" lon="5.74411">
        <ele>546.3</ele>
        <time>2019-10-27T10:06:50.000Z</time>
      </trkpt>
      <trkpt lat="45.5617" lon="5.74411">
        <ele>546</ele>
        <time>2019-10-27T10:06:51.000Z</time>
      </trkpt>
      <trkpt lat="45.5617" lon="5.74411">
        <ele>546</ele>
        <time>2019-10-27T10:06:52.000Z</time>
      </trkpt>
      <trkpt lat="45.5617" lon="5.74411">
        <ele>546</ele>
        <time>2019-10-27T10:06:53.000Z</time>
      </trkpt>
      <trkpt lat="45.5617" lon="5.74411">
        <ele>546</ele>
        <time>2019-10-27T10:06:54.000Z</time>
      </trkpt>
      <trkpt lat="45.5617" lon="5.74411">
        <ele>546</ele>
        <time>2019-10-27T10:06:55.000Z</time>
      </trkpt>
      <trkpt lat="45.5617" lon="5.74411">
        <ele>546.5</ele>
        <time>2019-10-27T10:06:56.000Z</time>
      </trkpt>
      <trkpt lat="45.5617" lon="5.74411">
        <ele>547</ele>
        <time>2019-10-27T10:06:57.000Z</time>
      </trkpt>
      <trkpt lat="45.5617" lon="5.74411">
        <ele>546</ele>
        <time>2019-10-27T10:06:58.000Z</time>
      </trkpt>
      <trkpt lat="45.5617" lon="5.74411">
        <ele>546</ele>
        <time>2019-10-27T10:06:59.000Z</time>
      </trkpt>
      <trkpt lat="45.5617" lon="5.74411">
        <ele>546</ele>
        <time>2019-10-27T10:07:00.000Z</time>
      </trkpt>
      <trkpt lat="45.5617" lon="5.74411">
        <ele>546</ele>
        <time>2019-10-27T10:07:01.000Z</time>
      </trkpt>
      <trkpt lat="45.5617" lon="5.74411">
        <ele>547</ele>
        <time>2019-10-27T10:07:02.000Z</time>
      </trkpt>
      <trkpt lat="45.5617" lon="5.74411">
        <ele>547</ele>
        <time>2019-10-27T10:07:03.000Z</time>
      </trkpt>
      <trkpt lat="45.5617" lon="5.74411">
        <ele>547</ele>
        <time>2019-10-27T10:07:04.000Z</time>
      </trkpt>
      <trkpt lat="45.5617" lon="5.74411">
        <ele>547</ele>
        <time>2019-10-27T10:07:05.000Z</time>
      </trkpt>
      <trkpt lat="45.5617" lon="5.74411">
        <ele>547</ele>
        <time>2019-10-27T10:07:06.000Z</time>
      </trkpt>
      <trkpt lat="45.5617" lon="5.74411">
        <ele>547</ele>
        <time>2019-10-27T10:07:07.000Z</time>
      </trkpt>
      <trkpt lat="45.5617" lon="5.74411">
        <ele>547</ele>
        <time>2019-10-27T10:07:08.000Z</time>
      </trkpt>
      <trkpt lat="45.5617" lon="5.74411">
        <ele>547</ele>
        <time>2019-10-27T10:07:09.000Z</time>
      </trkpt>
      <trkpt lat="45.5617" lon="5.74411">
        <ele>547</ele>
        <time>2019-10-27T10:07:10.000Z</time>
      </trkpt>
      <trkpt lat="45.5617" lon="5.74411">
        <ele>547</ele>
        <time>2019-10-27T10:07:11.000Z</time>
      </trkpt>
      <trkpt lat="45.5617" lon="5.74411">
        <ele>547</ele>
        <time>2019-10-27T10:07:12.000Z</time>
      </trkpt>
      <trkpt lat="45.5617" lon="5.74411">
        <ele>547</ele>
        <time>2019-10-27T10:07:13.000Z</time>
      </trkpt>
      <trkpt lat="45.5617" lon="5.74411">
        <ele>547</ele>
        <time>2019-10-27T10:07:14.000Z</time>
      </trkpt>
      <trkpt lat="45.5617" lon="5.74411">
        <ele>547</ele>
        <time>2019-10-27T10:07:15.000Z</time>
      </trkpt>
      <trkpt lat="45.5617" lon="5.74411">
        <ele>547</ele>
        <time>2019-10-27T10:07:16.000Z</time>
      </trkpt>
      <trkpt lat="45.5617" lon="5.74411">
        <ele>547</ele>
        <time>2019-10-27T10:07:17.000Z</time>
      </trkpt>
      <trkpt lat="45.5617" lon="5.74411">
        <ele>547</ele>
        <time>2019-10-27T10:07:18.000Z</time>
      </trkpt>
      <trkpt lat="45.5617" lon="5.74411">
        <ele>547</ele>
        <time>2019-10-27T10:07:19.000Z</time>
      </trkpt>
      <trkpt lat="45.5617" lon="5.74411">
        <ele>547</ele>
        <time>2019-10-27T10:07:20.000Z</time>
      </trkpt>
      <trkpt lat="45.5617" lon="5.74411">
        <ele>547</ele>
        <time>2019-10-27T10:07:21.000Z</time>
      </trkpt>
      <trkpt lat="45.5617" lon="5.74411">
        <ele>547</ele>
        <time>2019-10-27T10:07:22.000Z</time>
      </trkpt>
      <trkpt lat="45.5617" lon="5.74411">
        <ele>547</ele>
        <time>2019-10-27T10:07:23.000Z</time>
      </trkpt>
      <trkpt lat="45.5617" lon="5.74411">
        <ele>547</ele>
        <time>2019-10-27T10:07:24.000Z</time>
      </trkpt>
      <trkpt lat="45.5617" lon="5.74411">
        <ele>547</ele>
        <time>2019-10-27T10:07:25.000Z</time>
      </trkpt>
      <trkpt lat="45.5617" lon="5.74411">
        <ele>547</ele>
        <time>2019-10-27T10:07:26.000Z</time>
      </trkpt>
      <trkpt lat="45.5617" lon="5.74411">
        <ele>547</ele>
        <time>2019-10-27T10:07:27.000Z</time>
      </trkpt>
      <trkpt lat="45.5617" lon="5.74411">
        <ele>547</ele>
        <time>2019-10-27T10:07:28.000Z</time>
      </trkpt>
      <trkpt lat="45.5617" lon="5.74411">
        <ele>547</ele>
        <time>2019-10-27T10:07:29.000Z</time>
      </trkpt>
      <trkpt lat="45.5617" lon="5.74411">
        <ele>547</ele>
        <time>2019-10-27T10:07:30.000Z</time>
      </trkpt>
      <trkpt lat="45.5617" lon="5.74411">
        <ele>547</ele>
        <time>2019-10-27T10:07:31.000Z</time>
      </trkpt>
      <trkpt lat="45.5617" lon="5.74411">
        <ele>547</ele>
        <time>2019-10-27T10:07:32.000Z</time>
      </trkpt>
      <trkpt lat="45.5617" lon="5.74411">
        <ele>547</ele>
        <time>2019-10-27T10:07:33.000Z</time>
      </trkpt>
      <trkpt lat="45.5617" lon="5.74411">
        <ele>547</ele>
        <time>2019-10-27T10:07:34.000Z</time>
      </trkpt>
      <trkpt lat="45.5617" lon="5.74411">
        <ele>547</ele>
        <time>2019-10-27T10:07:35.000Z</time>
      </trkpt>
      <trkpt lat="45.5617" lon="5.74411">
        <ele>547</ele>
        <time>2019-10-27T10:07:36.000Z</time>
      </trkpt>
      <trkpt lat="45.5617" lon="5.74411">
        <ele>547</ele>
        <time>2019-10-27T10:07:37.000Z</time>
      </trkpt>
      <trkpt lat="45.5617" lon="5.74411">
        <ele>547</ele>
        <time>2019-10-27T10:07:38.000Z</time>
      </trkpt>
      <trkpt lat="45.5617" lon="5.74411">
        <ele>547</ele>
        <time>2019-10-27T10:07:39.000Z</time>
      </trkpt>
      <trkpt lat="45.5617" lon="5.74411">
        <ele>547</ele>
        <time>2019-10-27T10:07:40.000Z</time>
      </trkpt>
      <trkpt lat="45.5617" lon="5.74411">
        <ele>547</ele>
        <time>2019-10-27T10:07:41.000Z</time>
      </trkpt>
      <trkpt lat="45.5617" lon="5.74411">
        <ele>547</ele>
        <time>2019-10-27T10:07:42.000Z</time>
      </trkpt>
      <trkpt lat="45.5617" lon="5.74411">
        <ele>547</ele>
        <time>2019-10-27T10:07:43.000Z</time>
      </trkpt>
      <trkpt lat="45.56171" lon="5.74411">
        <ele>547</ele>
        <time>2019-10-27T10:07:44.000Z</time>
      </trkpt>
      <trkpt lat="45.56171" lon="5.74411">
        <ele>547</ele>
        <time>2019-10-27T10:07:45.000Z</time>
      </trkpt>
      <trkpt lat="45.56171" lon="5.74411">
        <ele>547</ele>
        <time>2019-10-27T10:07:46.000Z</time>
      </trkpt>
      <trkpt lat="45.56171" lon="5.74411">
        <ele>547</ele>
        <time>2019-10-27T10:07:47.000Z</time>
      </trkpt>
      <trkpt lat="45.56171" lon="5.74411">
        <ele>547</ele>
        <time>2019-10-27T10:07:48.000Z</time>
      </trkpt>
      <trkpt lat="45.56171" lon="5.74411">
        <ele>547</ele>
        <time>2019-10-27T10:07:49.000Z</time>
      </trkpt>
      <trkpt lat="45.56171" lon="5.74411">
        <ele>547</ele>
        <time>2019-10-27T10:07:50.000Z</time>
      </trkpt>
      <trkpt lat="45.56171" lon="5.74411">
        <ele>547</ele>
        <time>2019-10-27T10:07:51.000Z</time>
      </trkpt>
      <trkpt lat="45.56171" lon="5.74411">
        <ele>547</ele>
        <time>2019-10-27T10:07:52.000Z</time>
      </trkpt>
      <trkpt lat="45.56171" lon="5.74411">
        <ele>547</ele>
        <time>2019-10-27T10:07:53.000Z</time>
      </trkpt>
      <trkpt lat="45.56171" lon="5.74411">
        <ele>547</ele>
        <time>2019-10-27T10:07:54.000Z</time>
      </trkpt>
      <trkpt lat="45.56171" lon="5.74411">
        <ele>547</ele>
        <time>2019-10-27T10:07:55.000Z</time>
      </trkpt>
      <trkpt lat="45.56171" lon="5.74411">
        <ele>547</ele>
        <time>2019-10-27T10:07:56.000Z</time>
      </trkpt>
      <trkpt lat="45.56171" lon="5.74411">
        <ele>547</ele>
        <time>2019-10-27T10:07:57.000Z</time>
      </trkpt>
      <trkpt lat="45.56171" lon="5.74411">
        <ele>547</ele>
        <time>2019-10-27T10:07:58.000Z</time>
      </trkpt>
      <trkpt lat="45.56171" lon="5.74411">
        <ele>547</ele>
        <time>2019-10-27T10:07:59.000Z</time>
      </trkpt>
      <trkpt lat="45.56171" lon="5.74411">
        <ele>547</ele>
        <time>2019-10-27T10:08:00.000Z</time>
      </trkpt>
      <trkpt lat="45.56171" lon="5.74411">
        <ele>547</ele>
        <time>2019-10-27T10:08:01.000Z</time>
      </trkpt>
      <trkpt lat="45.56171" lon="5.74411">
        <ele>547</ele>
        <time>2019-10-27T10:08:02.000Z</time>
      </trkpt>
      <trkpt lat="45.56171" lon="5.74411">
        <ele>547</ele>
        <time>2019-10-27T10:08:03.000Z</time>
      </trkpt>
      <trkpt lat="45.56171" lon="5.74411">
        <ele>547</ele>
        <time>2019-10-27T10:08:04.000Z</time>
      </trkpt>
      <trkpt lat="45.56171" lon="5.74411">
        <ele>547</ele>
        <time>2019-10-27T10:08:05.000Z</time>
      </trkpt>
      <trkpt lat="45.56171" lon="5.74411">
        <ele>547</ele>
        <time>2019-10-27T10:08:06.000Z</time>
      </trkpt>
      <trkpt lat="45.56171" lon="5.74411">
        <ele>547</ele>
        <time>2019-10-27T10:08:07.000Z</time>
      </trkpt>
      <trkpt lat="45.56171" lon="5.74411">
        <ele>547</ele>
        <time>2019-10-27T10:08:08.000Z</time>
      </trkpt>
      <trkpt lat="45.56171" lon="5.74411">
        <ele>547</ele>
        <time>2019-10-27T10:08:09.000Z</time>
      </trkpt>
      <trkpt lat="45.56171" lon="5.74411">
        <ele>547</ele>
        <time>2019-10-27T10:08:10.000Z</time>
      </trkpt>
      <trkpt lat="45.56171" lon="5.74411">
        <ele>547</ele>
        <time>2019-10-27T10:08:11.000Z</time>
      </trkpt>
      <trkpt lat="45.56171" lon="5.74411">
        <ele>547</ele>
        <time>2019-10-27T10:08:12.000Z</time>
      </trkpt>
      <trkpt lat="45.56171" lon="5.74411">
        <ele>547</ele>
        <time>2019-10-27T10:08:13.000Z</time>
      </trkpt>
      <trkpt lat="45.56171" lon="5.74411">
        <ele>547</ele>
        <time>2019-10-27T10:08:14.000Z</time>
      </trkpt>
      <trkpt lat="45.56171" lon="5.74411">
        <ele>547</ele>
        <time>2019-10-27T10:08:15.000Z</time>
      </trkpt>
      <trkpt lat="45.56171" lon="5.74411">
        <ele>547</ele>
        <time>2019-10-27T10:08:16.000Z</time>
      </trkpt>
      <trkpt lat="45.56171" lon="5.74411">
        <ele>547</ele>
        <time>2019-10-27T10:08:17.000Z</time>
      </trkpt>
      <trkpt lat="45.56171" lon="5.74411">
        <ele>548</ele>
        <time>2019-10-27T10:08:18.000Z</time>
      </trkpt>
      <trkpt lat="45.56171" lon="5.74411">
        <ele>547.5</ele>
        <time>2019-10-27T10:08:19.000Z</time>
      </trkpt>
      <trkpt lat="45.56171" lon="5.74411">
        <ele>547</ele>
        <time>2019-10-27T10:08:20.000Z</time>
      </trkpt>
      <trkpt lat="45.56171" lon="5.74411">
        <ele>547.5</ele>
        <time>2019-10-27T10:08:21.000Z</time>
      </trkpt>
      <trkpt lat="45.56171" lon="5.74411">
        <ele>548</ele>
        <time>2019-10-27T10:08:22.000Z</time>
      </trkpt>
      <trkpt lat="45.56171" lon="5.74411">
        <ele>548</ele>
        <time>2019-10-27T10:08:23.000Z</time>
      </trkpt>
      <trkpt lat="45.56171" lon="5.74411">
        <ele>548</ele>
        <time>2019-10-27T10:08:24.000Z</time>
      </trkpt>
      <trkpt lat="45.56171" lon="5.74411">
        <ele>548</ele>
        <time>2019-10-27T10:08:25.000Z</time>
      </trkpt>
      <trkpt lat="45.56171" lon="5.74411">
        <ele>548</ele>
        <time>2019-10-27T10:08:26.000Z</time>
      </trkpt>
      <trkpt lat="45.56171" lon="5.74411">
        <ele>547.7</ele>
        <time>2019-10-27T10:08:27.000Z</time>
      </trkpt>
      <trkpt lat="45.56171" lon="5.74411">
        <ele>547.3</ele>
        <time>2019-10-27T10:08:28.000Z</time>
      </trkpt>
      <trkpt lat="45.56171" lon="5.74411">
        <ele>547</ele>
        <time>2019-10-27T10:08:29.000Z</time>
      </trkpt>
      <trkpt lat="45.56171" lon="5.74411">
        <ele>548</ele>
        <time>2019-10-27T10:08:30.000Z</time>
      </trkpt>
      <trkpt lat="45.56171" lon="5.74411">
        <ele>548</ele>
        <time>2019-10-27T10:08:31.000Z</time>
      </trkpt>
      <trkpt lat="45.56171" lon="5.74411">
        <ele>548</ele>
        <time>2019-10-27T10:08:32.000Z</time>
      </trkpt>
      <trkpt lat="45.56171" lon="5.74411">
        <ele>548</ele>
        <time>2019-10-27T10:08:33.000Z</time>
      </trkpt>
      <trkpt lat="45.56171" lon="5.74411">
        <ele>548</ele>
        <time>2019-10-27T10:08:34.000Z</time>
      </trkpt>
      <trkpt lat="45.56171" lon="5.74411">
        <ele>548</ele>
        <time>2019-10-27T10:08:35.000Z</time>
      </trkpt>
      <trkpt lat="45.56171" lon="5.74411">
        <ele>548</ele>
        <time>2019-10-27T10:08:36.000Z</time>
      </trkpt>
      <trkpt lat="45.56171" lon="5.74411">
        <ele>548</ele>
        <time>2019-10-27T10:08:37.000Z</time>
      </trkpt>
      <trkpt lat="45.56171" lon="5.74411">
        <ele>548</ele>
        <time>2019-10-27T10:08:38.000Z</time>
      </trkpt>
      <trkpt lat="45.56171" lon="5.74411">
        <ele>548</ele>
        <time>2019-10-27T10:08:39.000Z</time>
      </trkpt>
      <trkpt lat="45.56171" lon="5.74411">
        <ele>548</ele>
        <time>2019-10-27T10:08:40.000Z</time>
      </trkpt>
      <trkpt lat="45.56171" lon="5.74411">
        <ele>548</ele>
        <time>2019-10-27T10:08:41.000Z</time>
      </trkpt>
      <trkpt lat="45.56171" lon="5.74411">
        <ele>548</ele>
        <time>2019-10-27T10:08:42.000Z</time>
      </trkpt>
      <trkpt lat="45.56171" lon="5.74411">
        <ele>548</ele>
        <time>2019-10-27T10:08:43.000Z</time>
      </trkpt>
      <trkpt lat="45.56171" lon="5.74411">
        <ele>548</ele>
        <time>2019-10-27T10:08:44.000Z</time>
      </trkpt>
      <trkpt lat="45.56171" lon="5.74411">
        <ele>548</ele>
        <time>2019-10-27T10:08:45.000Z</time>
      </trkpt>
      <trkpt lat="45.56171" lon="5.74411">
        <ele>548</ele>
        <time>2019-10-27T10:08:46.000Z</time>
      </trkpt>
      <trkpt lat="45.56171" lon="5.74411">
        <ele>548</ele>
        <time>2019-10-27T10:08:47.000Z</time>
      </trkpt>
      <trkpt lat="45.56171" lon="5.74411">
        <ele>548</ele>
        <time>2019-10-27T10:08:48.000Z</time>
      </trkpt>
      <trkpt lat="45.56171" lon="5.74411">
        <ele>548</ele>
        <time>2019-10-27T10:08:49.000Z</time>
      </trkpt>
      <trkpt lat="45.56171" lon="5.74411">
        <ele>548</ele>
        <time>2019-10-27T10:08:50.000Z</time>
      </trkpt>
      <trkpt lat="45.56171" lon="5.74411">
        <ele>548</ele>
        <time>2019-10-27T10:08:51.000Z</time>
      </trkpt>
      <trkpt lat="45.56171" lon="5.74411">
        <ele>548</ele>
        <time>2019-10-27T10:08:52.000Z</time>
      </trkpt>
      <trkpt lat="45.56171" lon="5.74411">
        <ele>548</ele>
        <time>2019-10-27T10:08:53.000Z</time>
      </trkpt>
      <trkpt lat="45.56171" lon="5.74411">
        <ele>548</ele>
        <time>2019-10-27T10:08:54.000Z</time>
      </trkpt>
      <trkpt lat="45.56171" lon="5.74411">
        <ele>548</ele>
        <time>2019-10-27T10:08:55.000Z</time>
      </trkpt>
      <trkpt lat="45.56171" lon="5.74411">
        <ele>548</ele>
        <time>2019-10-27T10:08:56.000Z</time>
      </trkpt>
      <trkpt lat="45.56171" lon="5.74411">
        <ele>548</ele>
        <time>2019-10-27T10:08:57.000Z</time>
      </trkpt>
      <trkpt lat="45.56171" lon="5.74411">
        <ele>548</ele>
        <time>2019-10-27T10:08:58.000Z</time>
      </trkpt>
      <trkpt lat="45.56171" lon="5.74411">
        <ele>548</ele>
        <time>2019-10-27T10:08:59.000Z</time>
      </trkpt>
      <trkpt lat="45.56171" lon="5.74411">
        <ele>548</ele>
        <time>2019-10-27T10:09:00.000Z</time>
      </trkpt>
      <trkpt lat="45.56171" lon="5.74411">
        <ele>548</ele>
        <time>2019-10-27T10:09:01.000Z</time>
      </trkpt>
      <trkpt lat="45.56171" lon="5.74411">
        <ele>548</ele>
        <time>2019-10-27T10:09:02.000Z</time>
      </trkpt>
      <trkpt lat="45.56171" lon="5.74411">
        <ele>548</ele>
        <time>2019-10-27T10:09:03.000Z</time>
      </trkpt>
      <trkpt lat="45.56171" lon="5.74411">
        <ele>548</ele>
        <time>2019-10-27T10:09:04.000Z</time>
      </trkpt>
      <trkpt lat="45.56171" lon="5.74411">
        <ele>548</ele>
        <time>2019-10-27T10:09:05.000Z</time>
      </trkpt>
      <trkpt lat="45.56171" lon="5.74412">
        <ele>548</ele>
        <time>2019-10-27T10:09:06.000Z</time>
      </trkpt>
      <trkpt lat="45.56172" lon="5.74412">
        <ele>548</ele>
        <time>2019-10-27T10:09:07.000Z</time>
      </trkpt>
      <trkpt lat="45.56172" lon="5.74412">
        <ele>548</ele>
        <time>2019-10-27T10:09:08.000Z</time>
      </trkpt>
      <trkpt lat="45.56172" lon="5.74412">
        <ele>548</ele>
        <time>2019-10-27T10:09:09.000Z</time>
      </trkpt>
      <trkpt lat="45.56172" lon="5.74412">
        <ele>548</ele>
        <time>2019-10-27T10:09:10.000Z</time>
      </trkpt>
      <trkpt lat="45.56172" lon="5.74412">
        <ele>548</ele>
        <time>2019-10-27T10:09:11.000Z</time>
      </trkpt>
      <trkpt lat="45.56172" lon="5.74412">
        <ele>548</ele>
        <time>2019-10-27T10:09:12.000Z</time>
      </trkpt>
      <trkpt lat="45.56172" lon="5.74412">
        <ele>548</ele>
        <time>2019-10-27T10:09:13.000Z</time>
      </trkpt>
      <trkpt lat="45.56172" lon="5.74412">
        <ele>548</ele>
        <time>2019-10-27T10:09:14.000Z</time>
      </trkpt>
      <trkpt lat="45.56172" lon="5.74412">
        <ele>548</ele>
        <time>2019-10-27T10:09:15.000Z</time>
      </trkpt>
      <trkpt lat="45.56172" lon="5.74412">
        <ele>548</ele>
        <time>2019-10-27T10:09:16.000Z</time>
      </trkpt>
      <trkpt lat="45.56172" lon="5.74412">
        <ele>548</ele>
        <time>2019-10-27T10:09:17.000Z</time>
      </trkpt>
      <trkpt lat="45.56172" lon="5.74412">
        <ele>548</ele>
        <time>2019-10-27T10:09:18.000Z</time>
      </trkpt>
      <trkpt lat="45.56172" lon="5.74412">
        <ele>548</ele>
        <time>2019-10-27T10:09:19.000Z</time>
      </trkpt>
      <trkpt lat="45.56172" lon="5.74412">
        <ele>548</ele>
        <time>2019-10-27T10:09:20.000Z</time>
      </trkpt>
      <trkpt lat="45.56172" lon="5.74412">
        <ele>548</ele>
        <time>2019-10-27T10:09:21.000Z</time>
      </trkpt>
      <trkpt lat="45.56172" lon="5.74412">
        <ele>548</ele>
        <time>2019-10-27T10:09:22.000Z</time>
      </trkpt>
      <trkpt lat="45.56172" lon="5.74412">
        <ele>548</ele>
        <time>2019-10-27T10:09:23.000Z</time>
      </trkpt>
      <trkpt lat="45.56172" lon="5.74412">
        <ele>548</ele>
        <time>2019-10-27T10:09:24.000Z</time>
      </trkpt>
      <trkpt lat="45.56172" lon="5.74412">
        <ele>548</ele>
        <time>2019-10-27T10:09:25.000Z</time>
      </trkpt>
      <trkpt lat="45.56172" lon="5.74412">
        <ele>548</ele>
        <time>2019-10-27T10:09:26.000Z</time>
      </trkpt>
      <trkpt lat="45.56172" lon="5.74412">
        <ele>548</ele>
        <time>2019-10-27T10:09:27.000Z</time>
      </trkpt>
      <trkpt lat="45.56172" lon="5.74412">
        <ele>548</ele>
        <time>2019-10-27T10:09:28.000Z</time>
      </trkpt>
      <trkpt lat="45.56172" lon="5.74412">
        <ele>548</ele>
        <time>2019-10-27T10:09:29.000Z</time>
      </trkpt>
      <trkpt lat="45.56172" lon="5.74412">
        <ele>548</ele>
        <time>2019-10-27T10:09:30.000Z</time>
      </trkpt>
      <trkpt lat="45.56172" lon="5.74412">
        <ele>548</ele>
        <time>2019-10-27T10:09:31.000Z</time>
      </trkpt>
      <trkpt lat="45.56172" lon="5.74412">
        <ele>548</ele>
        <time>2019-10-27T10:09:32.000Z</time>
      </trkpt>
      <trkpt lat="45.56172" lon="5.74412">
        <ele>548</ele>
        <time>2019-10-27T10:09:33.000Z</time>
      </trkpt>
      <trkpt lat="45.56172" lon="5.74412">
        <ele>548</ele>
        <time>2019-10-27T10:09:34.000Z</time>
      </trkpt>
      <trkpt lat="45.56172" lon="5.74412">
        <ele>548</ele>
        <time>2019-10-27T10:09:35.000Z</time>
      </trkpt>
      <trkpt lat="45.56172" lon="5.74412">
        <ele>548</ele>
        <time>2019-10-27T10:09:36.000Z</time>
      </trkpt>
      <trkpt lat="45.56172" lon="5.74412">
        <ele>548</ele>
        <time>2019-10-27T10:09:37.000Z</time>
      </trkpt>
      <trkpt lat="45.56172" lon="5.74412">
        <ele>548</ele>
        <time>2019-10-27T10:09:38.000Z</time>
      </trkpt>
      <trkpt lat="45.56172" lon="5.74412">
        <ele>548</ele>
        <time>2019-10-27T10:09:39.000Z</time>
      </trkpt>
      <trkpt lat="45.56172" lon="5.74412">
        <ele>548</ele>
        <time>2019-10-27T10:09:40.000Z</time>
      </trkpt>
      <trkpt lat="45.56172" lon="5.74412">
        <ele>548</ele>
        <time>2019-10-27T10:09:41.000Z</time>
      </trkpt>
      <trkpt lat="45.56172" lon="5.74412">
        <ele>548</ele>
        <time>2019-10-27T10:09:42.000Z</time>
      </trkpt>
      <trkpt lat="45.56172" lon="5.74412">
        <ele>548</ele>
        <time>2019-10-27T10:09:43.000Z</time>
      </trkpt>
      <trkpt lat="45.56172" lon="5.74412">
        <ele>548</ele>
        <time>2019-10-27T10:09:44.000Z</time>
      </trkpt>
      <trkpt lat="45.56172" lon="5.74412">
        <ele>548</ele>
        <time>2019-10-27T10:09:45.000Z</time>
      </trkpt>
      <trkpt lat="45.56172" lon="5.74412">
        <ele>548</ele>
        <time>2019-10-27T10:09:46.000Z</time>
      </trkpt>
      <trkpt lat="45.56172" lon="5.74412">
        <ele>548</ele>
        <time>2019-10-27T10:09:47.000Z</time>
      </trkpt>
      <trkpt lat="45.56172" lon="5.74412">
        <ele>548</ele>
        <time>2019-10-27T10:09:48.000Z</time>
      </trkpt>
      <trkpt lat="45.56172" lon="5.74412">
        <ele>548</ele>
        <time>2019-10-27T10:09:49.000Z</time>
      </trkpt>
      <trkpt lat="45.56172" lon="5.74412">
        <ele>548</ele>
        <time>2019-10-27T10:09:50.000Z</time>
      </trkpt>
      <trkpt lat="45.56172" lon="5.74412">
        <ele>548</ele>
        <time>2019-10-27T10:09:51.000Z</time>
      </trkpt>
      <trkpt lat="45.56172" lon="5.74412">
        <ele>548</ele>
        <time>2019-10-27T10:09:52.000Z</time>
      </trkpt>
      <trkpt lat="45.56172" lon="5.74412">
        <ele>548</ele>
        <time>2019-10-27T10:09:53.000Z</time>
      </trkpt>
      <trkpt lat="45.56172" lon="5.74412">
        <ele>548</ele>
        <time>2019-10-27T10:09:54.000Z</time>
      </trkpt>
      <trkpt lat="45.56172" lon="5.74412">
        <ele>548</ele>
        <time>2019-10-27T10:09:55.000Z</time>
      </trkpt>
      <trkpt lat="45.56172" lon="5.74412">
        <ele>548</ele>
        <time>2019-10-27T10:09:56.000Z</time>
      </trkpt>
      <trkpt lat="45.56172" lon="5.74412">
        <ele>548</ele>
        <time>2019-10-27T10:09:57.000Z</time>
      </trkpt>
      <trkpt lat="45.56172" lon="5.74412">
        <ele>548</ele>
        <time>2019-10-27T10:09:58.000Z</time>
      </trkpt>
      <trkpt lat="45.56172" lon="5.74412">
        <ele>548</ele>
        <time>2019-10-27T10:09:59.000Z</time>
      </trkpt>
      <trkpt lat="45.56172" lon="5.74412">
        <ele>548</ele>
        <time>2019-10-27T10:10:00.000Z</time>
      </trkpt>
      <trkpt lat="45.56172" lon="5.74412">
        <ele>548</ele>
        <time>2019-10-27T10:10:01.000Z</time>
      </trkpt>
      <trkpt lat="45.56172" lon="5.74412">
        <ele>548</ele>
        <time>2019-10-27T10:10:02.000Z</time>
      </trkpt>
      <trkpt lat="45.56172" lon="5.74412">
        <ele>548</ele>
        <time>2019-10-27T10:10:03.000Z</time>
      </trkpt>
      <trkpt lat="45.56172" lon="5.74412">
        <ele>548</ele>
        <time>2019-10-27T10:10:04.000Z</time>
      </trkpt>
      <trkpt lat="45.56172" lon="5.74412">
        <ele>548</ele>
        <time>2019-10-27T10:10:05.000Z</time>
      </trkpt>
      <trkpt lat="45.56172" lon="5.74412">
        <ele>548</ele>
        <time>2019-10-27T10:10:06.000Z</time>
      </trkpt>
      <trkpt lat="45.56172" lon="5.74412">
        <ele>548</ele>
        <time>2019-10-27T10:10:07.000Z</time>
      </trkpt>
      <trkpt lat="45.56172" lon="5.74412">
        <ele>548</ele>
        <time>2019-10-27T10:10:08.000Z</time>
      </trkpt>
      <trkpt lat="45.56172" lon="5.74412">
        <ele>548</ele>
        <time>2019-10-27T10:10:09.000Z</time>
      </trkpt>
      <trkpt lat="45.56172" lon="5.74412">
        <ele>548</ele>
        <time>2019-10-27T10:10:10.000Z</time>
      </trkpt>
      <trkpt lat="45.56172" lon="5.74412">
        <ele>548</ele>
        <time>2019-10-27T10:10:11.000Z</time>
      </trkpt>
      <trkpt lat="45.56172" lon="5.74412">
        <ele>548</ele>
        <time>2019-10-27T10:10:12.000Z</time>
      </trkpt>
      <trkpt lat="45.56172" lon="5.74412">
        <ele>548</ele>
        <time>2019-10-27T10:10:13.000Z</time>
      </trkpt>
      <trkpt lat="45.56172" lon="5.74412">
        <ele>548</ele>
        <time>2019-10-27T10:10:14.000Z</time>
      </trkpt>
      <trkpt lat="45.56172" lon="5.74412">
        <ele>548</ele>
        <time>2019-10-27T10:10:15.000Z</time>
      </trkpt>
      <trkpt lat="45.56172" lon="5.74412">
        <ele>548</ele>
        <time>2019-10-27T10:10:16.000Z</time>
      </trkpt>
      <trkpt lat="45.56172" lon="5.74412">
        <ele>548</ele>
        <time>2019-10-27T10:10:17.000Z</time>
      </trkpt>
      <trkpt lat="45.56172" lon="5.74412">
        <ele>548</ele>
        <time>2019-10-27T10:10:18.000Z</time>
      </trkpt>
      <trkpt lat="45.56172" lon="5.74412">
        <ele>548</ele>
        <time>2019-10-27T10:10:19.000Z</time>
      </trkpt>
      <trkpt lat="45.56172" lon="5.74412">
        <ele>548</ele>
        <time>2019-10-27T10:10:20.000Z</time>
      </trkpt>
      <trkpt lat="45.56172" lon="5.74412">
        <ele>548</ele>
        <time>2019-10-27T10:10:21.000Z</time>
      </trkpt>
      <trkpt lat="45.56172" lon="5.74412">
        <ele>548</ele>
        <time>2019-10-27T10:10:22.000Z</time>
      </trkpt>
      <trkpt lat="45.56172" lon="5.74412">
        <ele>548</ele>
        <time>2019-10-27T10:10:23.000Z</time>
      </trkpt>
      <trkpt lat="45.56172" lon="5.74412">
        <ele>548</ele>
        <time>2019-10-27T10:10:24.000Z</time>
      </trkpt>
      <trkpt lat="45.56172" lon="5.74412">
        <ele>548</ele>
        <time>2019-10-27T10:10:25.000Z</time>
      </trkpt>
      <trkpt lat="45.56172" lon="5.74412">
        <ele>548</ele>
        <time>2019-10-27T10:10:26.000Z</time>
      </trkpt>
      <trkpt lat="45.56172" lon="5.74412">
        <ele>548</ele>
        <time>2019-10-27T10:10:27.000Z</time>
      </trkpt>
      <trkpt lat="45.56172" lon="5.74412">
        <ele>548</ele>
        <time>2019-10-27T10:10:28.000Z</time>
      </trkpt>
      <trkpt lat="45.56172" lon="5.74412">
        <ele>548</ele>
        <time>2019-10-27T10:10:29.000Z</time>
      </trkpt>
      <trkpt lat="45.56172" lon="5.74412">
        <ele>548</ele>
        <time>2019-10-27T10:10:30.000Z</time>
      </trkpt>
      <trkpt lat="45.56172" lon="5.74412">
        <ele>548</ele>
        <time>2019-10-27T10:10:31.000Z</time>
      </trkpt>
      <trkpt lat="45.56172" lon="5.74412">
        <ele>548</ele>
        <time>2019-10-27T10:10:32.000Z</time>
      </trkpt>
      <trkpt lat="45.56172" lon="5.74412">
        <ele>548</ele>
        <time>2019-10-27T10:10:33.000Z</time>
      </trkpt>
      <trkpt lat="45.56172" lon="5.74412">
        <ele>548</ele>
        <time>2019-10-27T10:10:34.000Z</time>
      </trkpt>
      <trkpt lat="45.56172" lon="5.74412">
        <ele>548</ele>
        <time>2019-10-27T10:10:35.000Z</time>
      </trkpt>
      <trkpt lat="45.56172" lon="5.74412">
        <ele>548</ele>
        <time>2019-10-27T10:10:36.000Z</time>
      </trkpt>
      <trkpt lat="45.56172" lon="5.74412">
        <ele>548</ele>
        <time>2019-10-27T10:10:37.000Z</time>
      </trkpt>
      <trkpt lat="45.56172" lon="5.74412">
        <ele>548</ele>
        <time>2019-10-27T10:10:38.000Z</time>
      </trkpt>
      <trkpt lat="45.56171" lon="5.74412">
        <ele>548</ele>
        <time>2019-10-27T10:10:39.000Z</time>
      </trkpt>
      <trkpt lat="45.56171" lon="5.74412">
        <ele>548</ele>
        <time>2019-10-27T10:10:40.000Z</time>
      </trkpt>
      <trkpt lat="45.56171" lon="5.74411">
        <ele>548</ele>
        <time>2019-10-27T10:10:41.000Z</time>
      </trkpt>
      <trkpt lat="45.56171" lon="5.74411">
        <ele>548</ele>
        <time>2019-10-27T10:10:42.000Z</time>
      </trkpt>
      <trkpt lat="45.56171" lon="5.74411">
        <ele>548</ele>
        <time>2019-10-27T10:10:43.000Z</time>
      </trkpt>
      <trkpt lat="45.56171" lon="5.74411">
        <ele>548</ele>
        <time>2019-10-27T10:10:44.000Z</time>
      </trkpt>
      <trkpt lat="45.56171" lon="5.74411">
        <ele>548</ele>
        <time>2019-10-27T10:10:45.000Z</time>
      </trkpt>
      <trkpt lat="45.56171" lon="5.74411">
        <ele>548</ele>
        <time>2019-10-27T10:10:46.000Z</time>
      </trkpt>
      <trkpt lat="45.56171" lon="5.74411">
        <ele>548</ele>
        <time>2019-10-27T10:10:47.000Z</time>
      </trkpt>
      <trkpt lat="45.56171" lon="5.7441">
        <ele>548</ele>
        <time>2019-10-27T10:10:48.000Z</time>
      </trkpt>
      <trkpt lat="45.56171" lon="5.7441">
        <ele>548</ele>
        <time>2019-10-27T10:10:49.000Z</time>
      </trkpt>
      <trkpt lat="45.5617" lon="5.7441">
        <ele>548</ele>
        <time>2019-10-27T10:10:50.000Z</time>
      </trkpt>
      <trkpt lat="45.5617" lon="5.7441">
        <ele>548</ele>
        <time>2019-10-27T10:10:51.000Z</time>
      </trkpt>
      <trkpt lat="45.5617" lon="5.7441">
        <ele>548</ele>
        <time>2019-10-27T10:10:52.000Z</time>
      </trkpt>
      <trkpt lat="45.5617" lon="5.7441">
        <ele>547.5</ele>
        <time>2019-10-27T10:10:53.000Z</time>
      </trkpt>
      <trkpt lat="45.5617" lon="5.7441">
        <ele>547</ele>
        <time>2019-10-27T10:10:54.000Z</time>
      </trkpt>
      <trkpt lat="45.5617" lon="5.7441">
        <ele>547</ele>
        <time>2019-10-27T10:10:55.000Z</time>
      </trkpt>
      <trkpt lat="45.5617" lon="5.7441">
        <ele>547</ele>
        <time>2019-10-27T10:10:56.000Z</time>
      </trkpt>
      <trkpt lat="45.5617" lon="5.7441">
        <ele>547.3</ele>
        <time>2019-10-27T10:10:57.000Z</time>
      </trkpt>
      <trkpt lat="45.5617" lon="5.7441">
        <ele>547.7</ele>
        <time>2019-10-27T10:10:58.000Z</time>
      </trkpt>
      <trkpt lat="45.5617" lon="5.7441">
        <ele>548</ele>
        <time>2019-10-27T10:10:59.000Z</time>
      </trkpt>
      <trkpt lat="45.5617" lon="5.7441">
        <ele>548</ele>
        <time>2019-10-27T10:11:00.000Z</time>
      </trkpt>
      <trkpt lat="45.5617" lon="5.7441">
        <ele>548</ele>
        <time>2019-10-27T10:11:01.000Z</time>
      </trkpt>
      <trkpt lat="45.5617" lon="5.7441">
        <ele>548</ele>
        <time>2019-10-27T10:11:02.000Z</time>
      </trkpt>
      <trkpt lat="45.5617" lon="5.7441">
        <ele>548</ele>
        <time>2019-10-27T10:11:03.000Z</time>
      </trkpt>
      <trkpt lat="45.5617" lon="5.74409">
        <ele>548</ele>
        <time>2019-10-27T10:11:04.000Z</time>
      </trkpt>
      <trkpt lat="45.5617" lon="5.74409">
        <ele>548</ele>
        <time>2019-10-27T10:11:05.000Z</time>
      </trkpt>
      <trkpt lat="45.5617" lon="5.74409">
        <ele>548</ele>
        <time>2019-10-27T10:11:06.000Z</time>
      </trkpt>
      <trkpt lat="45.5617" lon="5.74409">
        <ele>548</ele>
        <time>2019-10-27T10:11:07.000Z</time>
      </trkpt>
      <trkpt lat="45.56171" lon="5.74409">
        <ele>548</ele>
        <time>2019-10-27T10:11:08.000Z</time>
      </trkpt>
      <trkpt lat="45.56171" lon="5.7441">
        <ele>548</ele>
        <time>2019-10-27T10:11:09.000Z</time>
      </trkpt>
      <trkpt lat="45.56171" lon="5.7441">
        <ele>548</ele>
        <time>2019-10-27T10:11:10.000Z</time>
      </trkpt>
      <trkpt lat="45.56171" lon="5.7441">
        <ele>548</ele>
        <time>2019-10-27T10:11:11.000Z</time>
      </trkpt>
      <trkpt lat="45.56171" lon="5.7441">
        <ele>548</ele>
        <time>2019-10-27T10:11:12.000Z</time>
      </trkpt>
      <trkpt lat="45.56171" lon="5.7441">
        <ele>548</ele>
        <time>2019-10-27T10:11:13.000Z</time>
      </trkpt>
      <trkpt lat="45.56171" lon="5.7441">
        <ele>548</ele>
        <time>2019-10-27T10:11:14.000Z</time>
      </trkpt>
      <trkpt lat="45.56171" lon="5.7441">
        <ele>548</ele>
        <time>2019-10-27T10:11:15.000Z</time>
      </trkpt>
      <trkpt lat="45.56171" lon="5.7441">
        <ele>548</ele>
        <time>2019-10-27T10:11:16.000Z</time>
      </trkpt>
      <trkpt lat="45.56171" lon="5.7441">
        <ele>548</ele>
        <time>2019-10-27T10:11:17.000Z</time>
      </trkpt>
      <trkpt lat="45.56171" lon="5.7441">
        <ele>548</ele>
        <time>2019-10-27T10:11:18.000Z</time>
      </trkpt>
      <trkpt lat="45.56171" lon="5.7441">
        <ele>548</ele>
        <time>2019-10-27T10:11:19.000Z</time>
      </trkpt>
      <trkpt lat="45.56171" lon="5.7441">
        <ele>548</ele>
        <time>2019-10-27T10:11:20.000Z</time>
      </trkpt>
      <trkpt lat="45.56171" lon="5.7441">
        <ele>548</ele>
        <time>2019-10-27T10:11:21.000Z</time>
      </trkpt>
      <trkpt lat="45.56171" lon="5.7441">
        <ele>548</ele>
        <time>2019-10-27T10:11:22.000Z</time>
      </trkpt>
      <trkpt lat="45.56171" lon="5.7441">
        <ele>548</ele>
        <time>2019-10-27T10:11:23.000Z</time>
      </trkpt>
      <trkpt lat="45.56171" lon="5.7441">
        <ele>548</ele>
        <time>2019-10-27T10:11:24.000Z</time>
      </trkpt>
      <trkpt lat="45.56171" lon="5.7441">
        <ele>548</ele>
        <time>2019-10-27T10:11:25.000Z</time>
      </trkpt>
      <trkpt lat="45.56171" lon="5.7441">
        <ele>548</ele>
        <time>2019-10-27T10:11:26.000Z</time>
      </trkpt>
      <trkpt lat="45.56171" lon="5.7441">
        <ele>547.5</ele>
        <time>2019-10-27T10:11:27.000Z</time>
      </trkpt>
      <trkpt lat="45.56171" lon="5.7441">
        <ele>547</ele>
        <time>2019-10-27T10:11:28.000Z</time>
      </trkpt>
      <trkpt lat="45.56171" lon="5.7441">
        <ele>547</ele>
        <time>2019-10-27T10:11:29.000Z</time>
      </trkpt>
      <trkpt lat="45.56171" lon="5.7441">
        <ele>547</ele>
        <time>2019-10-27T10:11:30.000Z</time>
      </trkpt>
      <trkpt lat="45.56171" lon="5.7441">
        <ele>547</ele>
        <time>2019-10-27T10:11:31.000Z</time>
      </trkpt>
      <trkpt lat="45.56171" lon="5.7441">
        <ele>548</ele>
        <time>2019-10-27T10:11:32.000Z</time>
      </trkpt>
      <trkpt lat="45.56171" lon="5.7441">
        <ele>548</ele>
        <time>2019-10-27T10:11:33.000Z</time>
      </trkpt>
      <trkpt lat="45.56171" lon="5.7441">
        <ele>548</ele>
        <time>2019-10-27T10:11:34.000Z</time>
      </trkpt>
      <trkpt lat="45.56171" lon="5.7441">
        <ele>548</ele>
        <time>2019-10-27T10:11:35.000Z</time>
      </trkpt>
      <trkpt lat="45.56171" lon="5.7441">
        <ele>547.5</ele>
        <time>2019-10-27T10:11:36.000Z</time>
      </trkpt>
      <trkpt lat="45.56171" lon="5.7441">
        <ele>547</ele>
        <time>2019-10-27T10:11:37.000Z</time>
      </trkpt>
      <trkpt lat="45.56171" lon="5.7441">
        <ele>547</ele>
        <time>2019-10-27T10:11:38.000Z</time>
      </trkpt>
      <trkpt lat="45.56171" lon="5.7441">
        <ele>547</ele>
        <time>2019-10-27T10:11:39.000Z</time>
      </trkpt>
      <trkpt lat="45.56171" lon="5.7441">
        <ele>547.5</ele>
        <time>2019-10-27T10:11:40.000Z</time>
      </trkpt>
      <trkpt lat="45.56171" lon="5.7441">
        <ele>548</ele>
        <time>2019-10-27T10:11:41.000Z</time>
      </trkpt>
      <trkpt lat="45.56171" lon="5.7441">
        <ele>548</ele>
        <time>2019-10-27T10:11:42.000Z</time>
      </trkpt>
      <trkpt lat="45.56171" lon="5.7441">
        <ele>547.7</ele>
        <time>2019-10-27T10:11:43.000Z</time>
      </trkpt>
      <trkpt lat="45.56171" lon="5.7441">
        <ele>547.3</ele>
        <time>2019-10-27T10:11:44.000Z</time>
      </trkpt>
      <trkpt lat="45.56171" lon="5.7441">
        <ele>547</ele>
        <time>2019-10-27T10:11:45.000Z</time>
      </trkpt>
      <trkpt lat="45.56171" lon="5.7441">
        <ele>547</ele>
        <time>2019-10-27T10:11:46.000Z</time>
      </trkpt>
      <trkpt lat="45.56171" lon="5.7441">
        <ele>547</ele>
        <time>2019-10-27T10:11:47.000Z</time>
      </trkpt>
      <trkpt lat="45.56171" lon="5.7441">
        <ele>547</ele>
        <time>2019-10-27T10:11:48.000Z</time>
      </trkpt>
      <trkpt lat="45.56171" lon="5.7441">
        <ele>547.5</ele>
        <time>2019-10-27T10:11:49.000Z</time>
      </trkpt>
      <trkpt lat="45.56171" lon="5.7441">
        <ele>548</ele>
        <time>2019-10-27T10:11:50.000Z</time>
      </trkpt>
      <trkpt lat="45.56171" lon="5.7441">
        <ele>548</ele>
        <time>2019-10-27T10:11:51.000Z</time>
      </trkpt>
      <trkpt lat="45.56171" lon="5.7441">
        <ele>548</ele>
        <time>2019-10-27T10:11:52.000Z</time>
      </trkpt>
      <trkpt lat="45.56171" lon="5.7441">
        <ele>548</ele>
        <time>2019-10-27T10:11:53.000Z</time>
      </trkpt>
      <trkpt lat="45.56171" lon="5.7441">
        <ele>548</ele>
        <time>2019-10-27T10:11:54.000Z</time>
      </trkpt>
      <trkpt lat="45.56171" lon="5.7441">
        <ele>548</ele>
        <time>2019-10-27T10:11:55.000Z</time>
      </trkpt>
      <trkpt lat="45.56171" lon="5.7441">
        <ele>548</ele>
        <time>2019-10-27T10:11:56.000Z</time>
      </trkpt>
      <trkpt lat="45.56172" lon="5.7441">
        <ele>548</ele>
        <time>2019-10-27T10:11:57.000Z</time>
      </trkpt>
      <trkpt lat="45.56172" lon="5.7441">
        <ele>547</ele>
        <time>2019-10-27T10:11:58.000Z</time>
      </trkpt>
      <trkpt lat="45.56172" lon="5.7441">
        <ele>547</ele>
        <time>2019-10-27T10:11:59.000Z</time>
      </trkpt>
      <trkpt lat="45.56172" lon="5.7441">
        <ele>547</ele>
        <time>2019-10-27T10:12:00.000Z</time>
      </trkpt>
      <trkpt lat="45.56172" lon="5.7441">
        <ele>547</ele>
        <time>2019-10-27T10:12:01.000Z</time>
      </trkpt>
      <trkpt lat="45.56172" lon="5.7441">
        <ele>547</ele>
        <time>2019-10-27T10:12:02.000Z</time>
      </trkpt>
      <trkpt lat="45.56172" lon="5.7441">
        <ele>547</ele>
        <time>2019-10-27T10:12:03.000Z</time>
      </trkpt>
      <trkpt lat="45.56172" lon="5.7441">
        <ele>547</ele>
        <time>2019-10-27T10:12:04.000Z</time>
      </trkpt>
      <trkpt lat="45.56172" lon="5.7441">
        <ele>547</ele>
        <time>2019-10-27T10:12:05.000Z</time>
      </trkpt>
      <trkpt lat="45.56172" lon="5.7441">
        <ele>547</ele>
        <time>2019-10-27T10:12:06.000Z</time>
      </trkpt>
      <trkpt lat="45.56172" lon="5.74409">
        <ele>547</ele>
        <time>2019-10-27T10:12:07.000Z</time>
      </trkpt>
      <trkpt lat="45.56172" lon="5.74409">
        <ele>547</ele>
        <time>2019-10-27T10:12:08.000Z</time>
      </trkpt>
      <trkpt lat="45.56172" lon="5.74409">
        <ele>547</ele>
        <time>2019-10-27T10:12:09.000Z</time>
      </trkpt>
      <trkpt lat="45.56172" lon="5.74409">
        <ele>547</ele>
        <time>2019-10-27T10:12:10.000Z</time>
      </trkpt>
      <trkpt lat="45.56172" lon="5.74409">
        <ele>547</ele>
        <time>2019-10-27T10:12:11.000Z</time>
      </trkpt>
      <trkpt lat="45.56172" lon="5.74409">
        <ele>547</ele>
        <time>2019-10-27T10:12:12.000Z</time>
      </trkpt>
      <trkpt lat="45.56172" lon="5.74409">
        <ele>547</ele>
        <time>2019-10-27T10:12:13.000Z</time>
      </trkpt>
      <trkpt lat="45.56172" lon="5.74409">
        <ele>547</ele>
        <time>2019-10-27T10:12:14.000Z</time>
      </trkpt>
      <trkpt lat="45.56172" lon="5.74409">
        <ele>547</ele>
        <time>2019-10-27T10:12:15.000Z</time>
      </trkpt>
      <trkpt lat="45.56172" lon="5.74409">
        <ele>547</ele>
        <time>2019-10-27T10:12:16.000Z</time>
      </trkpt>
      <trkpt lat="45.56172" lon="5.74409">
        <ele>547</ele>
        <time>2019-10-27T10:12:17.000Z</time>
      </trkpt>
      <trkpt lat="45.56172" lon="5.74409">
        <ele>547</ele>
        <time>2019-10-27T10:12:18.000Z</time>
      </trkpt>
      <trkpt lat="45.56172" lon="5.74409">
        <ele>547</ele>
        <time>2019-10-27T10:12:19.000Z</time>
      </trkpt>
      <trkpt lat="45.56172" lon="5.74409">
        <ele>547</ele>
        <time>2019-10-27T10:12:20.000Z</time>
      </trkpt>
      <trkpt lat="45.56172" lon="5.74409">
        <ele>547</ele>
        <time>2019-10-27T10:12:21.000Z</time>
      </trkpt>
      <trkpt lat="45.56172" lon="5.74409">
        <ele>547</ele>
        <time>2019-10-27T10:12:22.000Z</time>
      </trkpt>
      <trkpt lat="45.56172" lon="5.74409">
        <ele>547</ele>
        <time>2019-10-27T10:12:23.000Z</time>
      </trkpt>
      <trkpt lat="45.56172" lon="5.74409">
        <ele>547</ele>
        <time>2019-10-27T10:12:24.000Z</time>
      </trkpt>
      <trkpt lat="45.56172" lon="5.74409">
        <ele>547</ele>
        <time>2019-10-27T10:12:25.000Z</time>
      </trkpt>
      <trkpt lat="45.56172" lon="5.74409">
        <ele>547</ele>
        <time>2019-10-27T10:12:26.000Z</time>
      </trkpt>
      <trkpt lat="45.56172" lon="5.74409">
        <ele>547</ele>
        <time>2019-10-27T10:12:27.000Z</time>
      </trkpt>
      <trkpt lat="45.56172" lon="5.74409">
        <ele>547</ele>
        <time>2019-10-27T10:12:28.000Z</time>
      </trkpt>
      <trkpt lat="45.56172" lon="5.74409">
        <ele>547</ele>
        <time>2019-10-27T10:12:29.000Z</time>
      </trkpt>
      <trkpt lat="45.56172" lon="5.74409">
        <ele>547</ele>
        <time>2019-10-27T10:12:30.000Z</time>
      </trkpt>
      <trkpt lat="45.56172" lon="5.74409">
        <ele>547</ele>
        <time>2019-10-27T10:12:31.000Z</time>
      </trkpt>
      <trkpt lat="45.56172" lon="5.74409">
        <ele>547</ele>
        <time>2019-10-27T10:12:32.000Z</time>
      </trkpt>
      <trkpt lat="45.56172" lon="5.74409">
        <ele>547</ele>
        <time>2019-10-27T10:12:33.000Z</time>
      </trkpt>
      <trkpt lat="45.56172" lon="5.74409">
        <ele>547</ele>
        <time>2019-10-27T10:12:34.000Z</time>
      </trkpt>
      <trkpt lat="45.56172" lon="5.74409">
        <ele>547</ele>
        <time>2019-10-27T10:12:35.000Z</time>
      </trkpt>
      <trkpt lat="45.56172" lon="5.74409">
        <ele>547</ele>
        <time>2019-10-27T10:12:36.000Z</time>
      </trkpt>
      <trkpt lat="45.56172" lon="5.74409">
        <ele>547</ele>
        <time>2019-10-27T10:12:37.000Z</time>
      </trkpt>
      <trkpt lat="45.56172" lon="5.74409">
        <ele>547</ele>
        <time>2019-10-27T10:12:38.000Z</time>
      </trkpt>
      <trkpt lat="45.56172" lon="5.74409">
        <ele>547</ele>
        <time>2019-10-27T10:12:39.000Z</time>
      </trkpt>
      <trkpt lat="45.56172" lon="5.74409">
        <ele>547</ele>
        <time>2019-10-27T10:12:40.000Z</time>
      </trkpt>
      <trkpt lat="45.56172" lon="5.74409">
        <ele>547</ele>
        <time>2019-10-27T10:12:41.000Z</time>
      </trkpt>
      <trkpt lat="45.56172" lon="5.74409">
        <ele>547</ele>
        <time>2019-10-27T10:12:42.000Z</time>
      </trkpt>
      <trkpt lat="45.56172" lon="5.74409">
        <ele>547</ele>
        <time>2019-10-27T10:12:43.000Z</time>
      </trkpt>
      <trkpt lat="45.56172" lon="5.74409">
        <ele>547</ele>
        <time>2019-10-27T10:12:44.000Z</time>
      </trkpt>
      <trkpt lat="45.56172" lon="5.74409">
        <ele>547</ele>
        <time>2019-10-27T10:12:45.000Z</time>
      </trkpt>
      <trkpt lat="45.56172" lon="5.74409">
        <ele>547</ele>
        <time>2019-10-27T10:12:46.000Z</time>
      </trkpt>
      <trkpt lat="45.56172" lon="5.74409">
        <ele>547</ele>
        <time>2019-10-27T10:12:47.000Z</time>
      </trkpt>
      <trkpt lat="45.56172" lon="5.74409">
        <ele>547</ele>
        <time>2019-10-27T10:12:48.000Z</time>
      </trkpt>
      <trkpt lat="45.56172" lon="5.74409">
        <ele>547</ele>
        <time>2019-10-27T10:12:49.000Z</time>
      </trkpt>
      <trkpt lat="45.56172" lon="5.74409">
        <ele>547</ele>
        <time>2019-10-27T10:12:50.000Z</time>
      </trkpt>
      <trkpt lat="45.56172" lon="5.74409">
        <ele>547</ele>
        <time>2019-10-27T10:12:51.000Z</time>
      </trkpt>
      <trkpt lat="45.56172" lon="5.74409">
        <ele>547</ele>
        <time>2019-10-27T10:12:52.000Z</time>
      </trkpt>
      <trkpt lat="45.56172" lon="5.7441">
        <ele>547</ele>
        <time>2019-10-27T10:12:53.000Z</time>
      </trkpt>
      <trkpt lat="45.56172" lon="5.7441">
        <ele>547</ele>
        <time>2019-10-27T10:12:54.000Z</time>
      </trkpt>
      <trkpt lat="45.56172" lon="5.7441">
        <ele>547</ele>
        <time>2019-10-27T10:12:55.000Z</time>
      </trkpt>
      <trkpt lat="45.56172" lon="5.7441">
        <ele>547</ele>
        <time>2019-10-27T10:12:56.000Z</time>
      </trkpt>
      <trkpt lat="45.56172" lon="5.74411">
        <ele>547</ele>
        <time>2019-10-27T10:12:57.000Z</time>
      </trkpt>
      <trkpt lat="45.56172" lon="5.74411">
        <ele>547</ele>
        <time>2019-10-27T10:12:58.000Z</time>
      </trkpt>
      <trkpt lat="45.56172" lon="5.74411">
        <ele>547</ele>
        <time>2019-10-27T10:12:59.000Z</time>
      </trkpt>
      <trkpt lat="45.56172" lon="5.74411">
        <ele>547</ele>
        <time>2019-10-27T10:13:00.000Z</time>
      </trkpt>
      <trkpt lat="45.56172" lon="5.74411">
        <ele>547</ele>
        <time>2019-10-27T10:13:01.000Z</time>
      </trkpt>
      <trkpt lat="45.56172" lon="5.74411">
        <ele>547</ele>
        <time>2019-10-27T10:13:02.000Z</time>
      </trkpt>
      <trkpt lat="45.56172" lon="5.74411">
        <ele>547</ele>
        <time>2019-10-27T10:13:03.000Z</time>
      </trkpt>
      <trkpt lat="45.56172" lon="5.74411">
        <ele>547</ele>
        <time>2019-10-27T10:13:04.000Z</time>
      </trkpt>
      <trkpt lat="45.56172" lon="5.74411">
        <ele>547</ele>
        <time>2019-10-27T10:13:05.000Z</time>
      </trkpt>
      <trkpt lat="45.56172" lon="5.74411">
        <ele>547</ele>
        <time>2019-10-27T10:13:06.000Z</time>
      </trkpt>
      <trkpt lat="45.56172" lon="5.74411">
        <ele>547</ele>
        <time>2019-10-27T10:13:07.000Z</time>
      </trkpt>
      <trkpt lat="45.56172" lon="5.74411">
        <ele>547</ele>
        <time>2019-10-27T10:13:08.000Z</time>
      </trkpt>
      <trkpt lat="45.56172" lon="5.74411">
        <ele>547</ele>
        <time>2019-10-27T10:13:09.000Z</time>
      </trkpt>
      <trkpt lat="45.56172" lon="5.74411">
        <ele>547</ele>
        <time>2019-10-27T10:13:10.000Z</time>
      </trkpt>
      <trkpt lat="45.56172" lon="5.74411">
        <ele>547</ele>
        <time>2019-10-27T10:13:11.000Z</time>
      </trkpt>
      <trkpt lat="45.56172" lon="5.74411">
        <ele>547</ele>
        <time>2019-10-27T10:13:12.000Z</time>
      </trkpt>
      <trkpt lat="45.56172" lon="5.74411">
        <ele>547</ele>
        <time>2019-10-27T10:13:13.000Z</time>
      </trkpt>
      <trkpt lat="45.56172" lon="5.74411">
        <ele>547</ele>
        <time>2019-10-27T10:13:14.000Z</time>
      </trkpt>
      <trkpt lat="45.56172" lon="5.74411">
        <ele>547</ele>
        <time>2019-10-27T10:13:15.000Z</time>
      </trkpt>
      <trkpt lat="45.56172" lon="5.74411">
        <ele>547</ele>
        <time>2019-10-27T10:13:16.000Z</time>
      </trkpt>
      <trkpt lat="45.56172" lon="5.74411">
        <ele>547</ele>
        <time>2019-10-27T10:13:17.000Z</time>
      </trkpt>
      <trkpt lat="45.56172" lon="5.74411">
        <ele>547</ele>
        <time>2019-10-27T10:13:18.000Z</time>
      </trkpt>
      <trkpt lat="45.56172" lon="5.74411">
        <ele>547</ele>
        <time>2019-10-27T10:13:19.000Z</time>
      </trkpt>
      <trkpt lat="45.56172" lon="5.74411">
        <ele>547</ele>
        <time>2019-10-27T10:13:20.000Z</time>
      </trkpt>
      <trkpt lat="45.56172" lon="5.74411">
        <ele>547</ele>
        <time>2019-10-27T10:13:21.000Z</time>
      </trkpt>
      <trkpt lat="45.56172" lon="5.74411">
        <ele>547</ele>
        <time>2019-10-27T10:13:22.000Z</time>
      </trkpt>
      <trkpt lat="45.56172" lon="5.74411">
        <ele>547</ele>
        <time>2019-10-27T10:13:23.000Z</time>
      </trkpt>
      <trkpt lat="45.56172" lon="5.74411">
        <ele>547</ele>
        <time>2019-10-27T10:13:24.000Z</time>
      </trkpt>
      <trkpt lat="45.56172" lon="5.74411">
        <ele>547</ele>
        <time>2019-10-27T10:13:25.000Z</time>
      </trkpt>
      <trkpt lat="45.56172" lon="5.74411">
        <ele>547</ele>
        <time>2019-10-27T10:13:26.000Z</time>
      </trkpt>
      <trkpt lat="45.56172" lon="5.74411">
        <ele>547</ele>
        <time>2019-10-27T10:13:27.000Z</time>
      </trkpt>
      <trkpt lat="45.56172" lon="5.74411">
        <ele>547</ele>
        <time>2019-10-27T10:13:28.000Z</time>
      </trkpt>
      <trkpt lat="45.56172" lon="5.74411">
        <ele>547</ele>
        <time>2019-10-27T10:13:29.000Z</time>
      </trkpt>
      <trkpt lat="45.56172" lon="5.74411">
        <ele>547</ele>
        <time>2019-10-27T10:13:30.000Z</time>
      </trkpt>
      <trkpt lat="45.56172" lon="5.74411">
        <ele>547</ele>
        <time>2019-10-27T10:13:31.000Z</time>
      </trkpt>
      <trkpt lat="45.56172" lon="5.74411">
        <ele>547</ele>
        <time>2019-10-27T10:13:32.000Z</time>
      </trkpt>
      <trkpt lat="45.56172" lon="5.74411">
        <ele>547</ele>
        <time>2019-10-27T10:13:33.000Z</time>
      </trkpt>
      <trkpt lat="45.56172" lon="5.74411">
        <ele>547</ele>
        <time>2019-10-27T10:13:34.000Z</time>
      </trkpt>
      <trkpt lat="45.56172" lon="5.74411">
        <ele>547</ele>
        <time>2019-10-27T10:13:35.000Z</time>
      </trkpt>
      <trkpt lat="45.56172" lon="5.74411">
        <ele>547</ele>
        <time>2019-10-27T10:13:36.000Z</time>
      </trkpt>
      <trkpt lat="45.56172" lon="5.74411">
        <ele>547</ele>
        <time>2019-10-27T10:13:37.000Z</time>
      </trkpt>
      <trkpt lat="45.56172" lon="5.74411">
        <ele>547</ele>
        <time>2019-10-27T10:13:38.000Z</time>
      </trkpt>
      <trkpt lat="45.56172" lon="5.74411">
        <ele>547</ele>
        <time>2019-10-27T10:13:39.000Z</time>
      </trkpt>
      <trkpt lat="45.56172" lon="5.74411">
        <ele>548</ele>
        <time>2019-10-27T10:13:40.000Z</time>
      </trkpt>
      <trkpt lat="45.56172" lon="5.74411">
        <ele>548</ele>
        <time>2019-10-27T10:13:41.000Z</time>
      </trkpt>
      <trkpt lat="45.56172" lon="5.74411">
        <ele>548</ele>
        <time>2019-10-27T10:13:42.000Z</time>
      </trkpt>
      <trkpt lat="45.56172" lon="5.74411">
        <ele>548</ele>
        <time>2019-10-27T10:13:43.000Z</time>
      </trkpt>
      <trkpt lat="45.56172" lon="5.74411">
        <ele>548</ele>
        <time>2019-10-27T10:13:44.000Z</time>
      </trkpt>
      <trkpt lat="45.56172" lon="5.74411">
        <ele>548</ele>
        <time>2019-10-27T10:13:45.000Z</time>
      </trkpt>
      <trkpt lat="45.56172" lon="5.74411">
        <ele>547</ele>
        <time>2019-10-27T10:13:46.000Z</time>
      </trkpt>
      <trkpt lat="45.56172" lon="5.74411">
        <ele>547</ele>
        <time>2019-10-27T10:13:47.000Z</time>
      </trkpt>
      <trkpt lat="45.56172" lon="5.74411">
        <ele>547</ele>
        <time>2019-10-27T10:13:48.000Z</time>
      </trkpt>
      <trkpt lat="45.56172" lon="5.74411">
        <ele>547</ele>
        <time>2019-10-27T10:13:49.000Z</time>
      </trkpt>
      <trkpt lat="45.56172" lon="5.74411">
        <ele>547.5</ele>
        <time>2019-10-27T10:13:50.000Z</time>
      </trkpt>
      <trkpt lat="45.56172" lon="5.74411">
        <ele>548</ele>
        <time>2019-10-27T10:13:51.000Z</time>
      </trkpt>
      <trkpt lat="45.56172" lon="5.74411">
        <ele>547</ele>
        <time>2019-10-27T10:13:52.000Z</time>
      </trkpt>
      <trkpt lat="45.56172" lon="5.74411">
        <ele>547</ele>
        <time>2019-10-27T10:13:53.000Z</time>
      </trkpt>
      <trkpt lat="45.56172" lon="5.74411">
        <ele>547</ele>
        <time>2019-10-27T10:13:54.000Z</time>
      </trkpt>
      <trkpt lat="45.56172" lon="5.74411">
        <ele>547.5</ele>
        <time>2019-10-27T10:13:55.000Z</time>
      </trkpt>
      <trkpt lat="45.56172" lon="5.74411">
        <ele>548</ele>
        <time>2019-10-27T10:13:56.000Z</time>
      </trkpt>
      <trkpt lat="45.56172" lon="5.74411">
        <ele>547.7</ele>
        <time>2019-10-27T10:13:57.000Z</time>
      </trkpt>
      <trkpt lat="45.56172" lon="5.74411">
        <ele>547.3</ele>
        <time>2019-10-27T10:13:58.000Z</time>
      </trkpt>
      <trkpt lat="45.56172" lon="5.74411">
        <ele>547</ele>
        <time>2019-10-27T10:13:59.000Z</time>
      </trkpt>
      <trkpt lat="45.56172" lon="5.74411">
        <ele>547</ele>
        <time>2019-10-27T10:14:00.000Z</time>
      </trkpt>
      <trkpt lat="45.56172" lon="5.74411">
        <ele>547</ele>
        <time>2019-10-27T10:14:01.000Z</time>
      </trkpt>
      <trkpt lat="45.56172" lon="5.74411">
        <ele>547.5</ele>
        <time>2019-10-27T10:14:02.000Z</time>
      </trkpt>
      <trkpt lat="45.56172" lon="5.74411">
        <ele>548</ele>
        <time>2019-10-27T10:14:03.000Z</time>
      </trkpt>
      <trkpt lat="45.56172" lon="5.74411">
        <ele>547.5</ele>
        <time>2019-10-27T10:14:04.000Z</time>
      </trkpt>
      <trkpt lat="45.56172" lon="5.74411">
        <ele>547</ele>
        <time>2019-10-27T10:14:05.000Z</time>
      </trkpt>
      <trkpt lat="45.56172" lon="5.74411">
        <ele>548</ele>
        <time>2019-10-27T10:14:06.000Z</time>
      </trkpt>
      <trkpt lat="45.56172" lon="5.74411">
        <ele>548</ele>
        <time>2019-10-27T10:14:07.000Z</time>
      </trkpt>
      <trkpt lat="45.56172" lon="5.74411">
        <ele>548</ele>
        <time>2019-10-27T10:14:08.000Z</time>
      </trkpt>
      <trkpt lat="45.56172" lon="5.74411">
        <ele>548</ele>
        <time>2019-10-27T10:14:09.000Z</time>
      </trkpt>
      <trkpt lat="45.56172" lon="5.74411">
        <ele>548</ele>
        <time>2019-10-27T10:14:10.000Z</time>
      </trkpt>
      <trkpt lat="45.56172" lon="5.74411">
        <ele>548</ele>
        <time>2019-10-27T10:14:11.000Z</time>
      </trkpt>
      <trkpt lat="45.56172" lon="5.74411">
        <ele>548</ele>
        <time>2019-10-27T10:14:12.000Z</time>
      </trkpt>
      <trkpt lat="45.56172" lon="5.74411">
        <ele>548</ele>
        <time>2019-10-27T10:14:13.000Z</time>
      </trkpt>
      <trkpt lat="45.56172" lon="5.74411">
        <ele>548</ele>
        <time>2019-10-27T10:14:14.000Z</time>
      </trkpt>
      <trkpt lat="45.56172" lon="5.74411">
        <ele>548</ele>
        <time>2019-10-27T10:14:15.000Z</time>
      </trkpt>
      <trkpt lat="45.56172" lon="5.74411">
        <ele>548</ele>
        <time>2019-10-27T10:14:16.000Z</time>
      </trkpt>
      <trkpt lat="45.56172" lon="5.74411">
        <ele>548</ele>
        <time>2019-10-27T10:14:17.000Z</time>
      </trkpt>
      <trkpt lat="45.56172" lon="5.74411">
        <ele>548</ele>
        <time>2019-10-27T10:14:18.000Z</time>
      </trkpt>
      <trkpt lat="45.56172" lon="5.74411">
        <ele>548</ele>
        <time>2019-10-27T10:14:19.000Z</time>
      </trkpt>
      <trkpt lat="45.56172" lon="5.74411">
        <ele>548</ele>
        <time>2019-10-27T10:14:20.000Z</time>
      </trkpt>
      <trkpt lat="45.56172" lon="5.74411">
        <ele>548</ele>
        <time>2019-10-27T10:14:21.000Z</time>
      </trkpt>
      <trkpt lat="45.56172" lon="5.74411">
        <ele>548</ele>
        <time>2019-10-27T10:14:22.000Z</time>
      </trkpt>
      <trkpt lat="45.56172" lon="5.74411">
        <ele>548</ele>
        <time>2019-10-27T10:14:23.000Z</time>
      </trkpt>
      <trkpt lat="45.56172" lon="5.74411">
        <ele>548</ele>
        <time>2019-10-27T10:14:24.000Z</time>
      </trkpt>
      <trkpt lat="45.56172" lon="5.74411">
        <ele>548</ele>
        <time>2019-10-27T10:14:25.000Z</time>
      </trkpt>
      <trkpt lat="45.56172" lon="5.74411">
        <ele>548</ele>
        <time>2019-10-27T10:14:26.000Z</time>
      </trkpt>
      <trkpt lat="45.56172" lon="5.74411">
        <ele>548</ele>
        <time>2019-10-27T10:14:27.000Z</time>
      </trkpt>
      <trkpt lat="45.56172" lon="5.74411">
        <ele>548</ele>
        <time>2019-10-27T10:14:28.000Z</time>
      </trkpt>
      <trkpt lat="45.56172" lon="5.74412">
        <ele>548</ele>
        <time>2019-10-27T10:14:29.000Z</time>
      </trkpt>
      <trkpt lat="45.56172" lon="5.74412">
        <ele>548</ele>
        <time>2019-10-27T10:14:30.000Z</time>
      </trkpt>
      <trkpt lat="45.56172" lon="5.74412">
        <ele>548</ele>
        <time>2019-10-27T10:14:31.000Z</time>
      </trkpt>
      <trkpt lat="45.56172" lon="5.74412">
        <ele>548</ele>
        <time>2019-10-27T10:14:32.000Z</time>
      </trkpt>
      <trkpt lat="45.56172" lon="5.74412">
        <ele>548</ele>
        <time>2019-10-27T10:14:33.000Z</time>
      </trkpt>
      <trkpt lat="45.56172" lon="5.74412">
        <ele>548</ele>
        <time>2019-10-27T10:14:34.000Z</time>
      </trkpt>
      <trkpt lat="45.56172" lon="5.74412">
        <ele>548</ele>
        <time>2019-10-27T10:14:35.000Z</time>
      </trkpt>
      <trkpt lat="45.56172" lon="5.74412">
        <ele>548</ele>
        <time>2019-10-27T10:14:36.000Z</time>
      </trkpt>
      <trkpt lat="45.56172" lon="5.74412">
        <ele>548</ele>
        <time>2019-10-27T10:14:37.000Z</time>
      </trkpt>
      <trkpt lat="45.56172" lon="5.74413">
        <ele>548</ele>
        <time>2019-10-27T10:14:38.000Z</time>
      </trkpt>
      <trkpt lat="45.56172" lon="5.74413">
        <ele>548</ele>
        <time>2019-10-27T10:14:39.000Z</time>
      </trkpt>
      <trkpt lat="45.56172" lon="5.74413">
        <ele>548</ele>
        <time>2019-10-27T10:14:40.000Z</time>
      </trkpt>
      <trkpt lat="45.56172" lon="5.74413">
        <ele>548</ele>
        <time>2019-10-27T10:14:41.000Z</time>
      </trkpt>
      <trkpt lat="45.56172" lon="5.74413">
        <ele>548</ele>
        <time>2019-10-27T10:14:42.000Z</time>
      </trkpt>
      <trkpt lat="45.56172" lon="5.74413">
        <ele>548</ele>
        <time>2019-10-27T10:14:43.000Z</time>
      </trkpt>
      <trkpt lat="45.56172" lon="5.74413">
        <ele>548</ele>
        <time>2019-10-27T10:14:44.000Z</time>
      </trkpt>
      <trkpt lat="45.56172" lon="5.74413">
        <ele>548</ele>
        <time>2019-10-27T10:14:45.000Z</time>
      </trkpt>
      <trkpt lat="45.56172" lon="5.74413">
        <ele>548</ele>
        <time>2019-10-27T10:14:46.000Z</time>
      </trkpt>
      <trkpt lat="45.56172" lon="5.74413">
        <ele>548</ele>
        <time>2019-10-27T10:14:47.000Z</time>
      </trkpt>
      <trkpt lat="45.56172" lon="5.74413">
        <ele>548</ele>
        <time>2019-10-27T10:14:48.000Z</time>
      </trkpt>
      <trkpt lat="45.56172" lon="5.74413">
        <ele>548</ele>
        <time>2019-10-27T10:14:49.000Z</time>
      </trkpt>
      <trkpt lat="45.56172" lon="5.74413">
        <ele>548</ele>
        <time>2019-10-27T10:14:50.000Z</time>
      </trkpt>
      <trkpt lat="45.56172" lon="5.74413">
        <ele>548</ele>
        <time>2019-10-27T10:14:51.000Z</time>
      </trkpt>
      <trkpt lat="45.56172" lon="5.74413">
        <ele>548</ele>
        <time>2019-10-27T10:14:52.000Z</time>
      </trkpt>
      <trkpt lat="45.56172" lon="5.74414">
        <ele>548</ele>
        <time>2019-10-27T10:14:53.000Z</time>
      </trkpt>
      <trkpt lat="45.56172" lon="5.74414">
        <ele>548</ele>
        <time>2019-10-27T10:14:54.000Z</time>
      </trkpt>
      <trkpt lat="45.56172" lon="5.74414">
        <ele>548</ele>
        <time>2019-10-27T10:14:55.000Z</time>
      </trkpt>
      <trkpt lat="45.56172" lon="5.74414">
        <ele>548</ele>
        <time>2019-10-27T10:14:56.000Z</time>
      </trkpt>
      <trkpt lat="45.56172" lon="5.74414">
        <ele>548</ele>
        <time>2019-10-27T10:14:57.000Z</time>
      </trkpt>
      <trkpt lat="45.56172" lon="5.74414">
        <ele>548</ele>
        <time>2019-10-27T10:14:58.000Z</time>
      </trkpt>
      <trkpt lat="45.56172" lon="5.74415">
        <ele>548</ele>
        <time>2019-10-27T10:14:59.000Z</time>
      </trkpt>
      <trkpt lat="45.56172" lon="5.74415">
        <ele>548</ele>
        <time>2019-10-27T10:15:00.000Z</time>
      </trkpt>
      <trkpt lat="45.56172" lon="5.74415">
        <ele>548</ele>
        <time>2019-10-27T10:15:01.000Z</time>
      </trkpt>
      <trkpt lat="45.56172" lon="5.74415">
        <ele>548</ele>
        <time>2019-10-27T10:15:02.000Z</time>
      </trkpt>
      <trkpt lat="45.56172" lon="5.74415">
        <ele>548</ele>
        <time>2019-10-27T10:15:03.000Z</time>
      </trkpt>
      <trkpt lat="45.56172" lon="5.74415">
        <ele>548</ele>
        <time>2019-10-27T10:15:04.000Z</time>
      </trkpt>
      <trkpt lat="45.56172" lon="5.74415">
        <ele>548</ele>
        <time>2019-10-27T10:15:05.000Z</time>
      </trkpt>
      <trkpt lat="45.56172" lon="5.74415">
        <ele>548</ele>
        <time>2019-10-27T10:15:06.000Z</time>
      </trkpt>
      <trkpt lat="45.56172" lon="5.74415">
        <ele>548</ele>
        <time>2019-10-27T10:15:07.000Z</time>
      </trkpt>
      <trkpt lat="45.56172" lon="5.74415">
        <ele>548</ele>
        <time>2019-10-27T10:15:08.000Z</time>
      </trkpt>
      <trkpt lat="45.56172" lon="5.74415">
        <ele>548</ele>
        <time>2019-10-27T10:15:09.000Z</time>
      </trkpt>
      <trkpt lat="45.56172" lon="5.74415">
        <ele>548</ele>
        <time>2019-10-27T10:15:10.000Z</time>
      </trkpt>
      <trkpt lat="45.56172" lon="5.74415">
        <ele>548</ele>
        <time>2019-10-27T10:15:11.000Z</time>
      </trkpt>
      <trkpt lat="45.56172" lon="5.74415">
        <ele>548</ele>
        <time>2019-10-27T10:15:12.000Z</time>
      </trkpt>
      <trkpt lat="45.56172" lon="5.74415">
        <ele>548</ele>
        <time>2019-10-27T10:15:13.000Z</time>
      </trkpt>
      <trkpt lat="45.56172" lon="5.74415">
        <ele>548</ele>
        <time>2019-10-27T10:15:14.000Z</time>
      </trkpt>
      <trkpt lat="45.56172" lon="5.74415">
        <ele>548</ele>
        <time>2019-10-27T10:15:15.000Z</time>
      </trkpt>
      <trkpt lat="45.56172" lon="5.74415">
        <ele>548</ele>
        <time>2019-10-27T10:15:16.000Z</time>
      </trkpt>
      <trkpt lat="45.56172" lon="5.74415">
        <ele>548</ele>
        <time>2019-10-27T10:15:17.000Z</time>
      </trkpt>
      <trkpt lat="45.56172" lon="5.74415">
        <ele>548</ele>
        <time>2019-10-27T10:15:18.000Z</time>
      </trkpt>
      <trkpt lat="45.56172" lon="5.74415">
        <ele>548</ele>
        <time>2019-10-27T10:15:19.000Z</time>
      </trkpt>
      <trkpt lat="45.56172" lon="5.74415">
        <ele>548</ele>
        <time>2019-10-27T10:15:20.000Z</time>
      </trkpt>
      <trkpt lat="45.56172" lon="5.74415">
        <ele>548</ele>
        <time>2019-10-27T10:15:21.000Z</time>
      </trkpt>
      <trkpt lat="45.56172" lon="5.74415">
        <ele>548</ele>
        <time>2019-10-27T10:15:22.000Z</time>
      </trkpt>
      <trkpt lat="45.56172" lon="5.74415">
        <ele>548</ele>
        <time>2019-10-27T10:15:23.000Z</time>
      </trkpt>
      <trkpt lat="45.56172" lon="5.74415">
        <ele>548</ele>
        <time>2019-10-27T10:15:24.000Z</time>
      </trkpt>
      <trkpt lat="45.56172" lon="5.74415">
        <ele>548</ele>
        <time>2019-10-27T10:15:25.000Z</time>
      </trkpt>
      <trkpt lat="45.56172" lon="5.74415">
        <ele>548</ele>
        <time>2019-10-27T10:15:26.000Z</time>
      </trkpt>
      <trkpt lat="45.56172" lon="5.74415">
        <ele>548</ele>
        <time>2019-10-27T10:15:27.000Z</time>
      </trkpt>
      <trkpt lat="45.56172" lon="5.74415">
        <ele>548</ele>
        <time>2019-10-27T10:15:28.000Z</time>
      </trkpt>
      <trkpt lat="45.56172" lon="5.74415">
        <ele>548</ele>
        <time>2019-10-27T10:15:29.000Z</time>
      </trkpt>
      <trkpt lat="45.56172" lon="5.74415">
        <ele>548</ele>
        <time>2019-10-27T10:15:30.000Z</time>
      </trkpt>
      <trkpt lat="45.56172" lon="5.74415">
        <ele>548</ele>
        <time>2019-10-27T10:15:31.000Z</time>
      </trkpt>
      <trkpt lat="45.56172" lon="5.74415">
        <ele>548</ele>
        <time>2019-10-27T10:15:32.000Z</time>
      </trkpt>
      <trkpt lat="45.56172" lon="5.74415">
        <ele>548</ele>
        <time>2019-10-27T10:15:33.000Z</time>
      </trkpt>
      <trkpt lat="45.56172" lon="5.74415">
        <ele>548</ele>
        <time>2019-10-27T10:15:34.000Z</time>
      </trkpt>
      <trkpt lat="45.56172" lon="5.74415">
        <ele>548</ele>
        <time>2019-10-27T10:15:35.000Z</time>
      </trkpt>
      <trkpt lat="45.56172" lon="5.74415">
        <ele>548</ele>
        <time>2019-10-27T10:15:36.000Z</time>
      </trkpt>
      <trkpt lat="45.56172" lon="5.74415">
        <ele>548</ele>
        <time>2019-10-27T10:15:37.000Z</time>
      </trkpt>
      <trkpt lat="45.56172" lon="5.74415">
        <ele>548</ele>
        <time>2019-10-27T10:15:38.000Z</time>
      </trkpt>
      <trkpt lat="45.56172" lon="5.74415">
        <ele>548</ele>
        <time>2019-10-27T10:15:39.000Z</time>
      </trkpt>
      <trkpt lat="45.56171" lon="5.74416">
        <ele>548</ele>
        <time>2019-10-27T10:15:40.000Z</time>
      </trkpt>
      <trkpt lat="45.56171" lon="5.74416">
        <ele>548</ele>
        <time>2019-10-27T10:15:41.000Z</time>
      </trkpt>
      <trkpt lat="45.56171" lon="5.74417">
        <ele>548</ele>
        <time>2019-10-27T10:15:42.000Z</time>
      </trkpt>
      <trkpt lat="45.5617" lon="5.74417">
        <ele>548</ele>
        <time>2019-10-27T10:15:43.000Z</time>
      </trkpt>
      <trkpt lat="45.5617" lon="5.74417">
        <ele>548</ele>
        <time>2019-10-27T10:15:44.000Z</time>
      </trkpt>
      <trkpt lat="45.5617" lon="5.74418">
        <ele>548</ele>
        <time>2019-10-27T10:15:45.000Z</time>
      </trkpt>
      <trkpt lat="45.56169" lon="5.74418">
        <ele>548</ele>
        <time>2019-10-27T10:15:46.000Z</time>
      </trkpt>
      <trkpt lat="45.56169" lon="5.74418">
        <ele>548</ele>
        <time>2019-10-27T10:15:47.000Z</time>
      </trkpt>
      <trkpt lat="45.56169" lon="5.74418">
        <ele>548</ele>
        <time>2019-10-27T10:15:48.000Z</time>
      </trkpt>
      <trkpt lat="45.56169" lon="5.74418">
        <ele>548</ele>
        <time>2019-10-27T10:15:49.000Z</time>
      </trkpt>
      <trkpt lat="45.56169" lon="5.74418">
        <ele>548</ele>
        <time>2019-10-27T10:15:50.000Z</time>
      </trkpt>
      <trkpt lat="45.56168" lon="5.74418">
        <ele>548</ele>
        <time>2019-10-27T10:15:51.000Z</time>
      </trkpt>
      <trkpt lat="45.56167" lon="5.74418">
        <ele>548</ele>
        <time>2019-10-27T10:15:52.000Z</time>
      </trkpt>
      <trkpt lat="45.56165" lon="5.74417">
        <ele>548</ele>
        <time>2019-10-27T10:15:53.000Z</time>
      </trkpt>
      <trkpt lat="45.56164" lon="5.74417">
        <ele>548</ele>
        <time>2019-10-27T10:15:54.000Z</time>
      </trkpt>
      <trkpt lat="45.56164" lon="5.74416">
        <ele>548</ele>
        <time>2019-10-27T10:15:55.000Z</time>
      </trkpt>
      <trkpt lat="45.56163" lon="5.74415">
        <ele>548</ele>
        <time>2019-10-27T10:15:56.000Z</time>
      </trkpt>
      <trkpt lat="45.56162" lon="5.74414">
        <ele>548</ele>
        <time>2019-10-27T10:15:57.000Z</time>
      </trkpt>
      <trkpt lat="45.56161" lon="5.74413">
        <ele>548</ele>
        <time>2019-10-27T10:15:58.000Z</time>
      </trkpt>
      <trkpt lat="45.5616" lon="5.74412">
        <ele>548</ele>
        <time>2019-10-27T10:15:59.000Z</time>
      </trkpt>
      <trkpt lat="45.56159" lon="5.74412">
        <ele>548</ele>
        <time>2019-10-27T10:16:00.000Z</time>
      </trkpt>
      <trkpt lat="45.56158" lon="5.74412">
        <ele>548</ele>
        <time>2019-10-27T10:16:01.000Z</time>
      </trkpt>
      <trkpt lat="45.56157" lon="5.74412">
        <ele>548</ele>
        <time>2019-10-27T10:16:02.000Z</time>
      </trkpt>
      <trkpt lat="45.56155" lon="5.74411">
        <ele>548</ele>
        <time>2019-10-27T10:16:03.000Z</time>
      </trkpt>
      <trkpt lat="45.56154" lon="5.74411">
        <ele>548</ele>
        <time>2019-10-27T10:16:04.000Z</time>
      </trkpt>
      <trkpt lat="45.56153" lon="5.74411">
        <ele>548</ele>
        <time>2019-10-27T10:16:05.000Z</time>
      </trkpt>
      <trkpt lat="45.56152" lon="5.74411">
        <ele>548</ele>
        <time>2019-10-27T10:16:06.000Z</time>
      </trkpt>
      <trkpt lat="45.5615" lon="5.74412">
        <ele>548</ele>
        <time>2019-10-27T10:16:07.000Z</time>
      </trkpt>
      <trkpt lat="45.56149" lon="5.74412">
        <ele>548</ele>
        <time>2019-10-27T10:16:08.000Z</time>
      </trkpt>
      <trkpt lat="45.56147" lon="5.74413">
        <ele>548</ele>
        <time>2019-10-27T10:16:09.000Z</time>
      </trkpt>
      <trkpt lat="45.56146" lon="5.74414">
        <ele>548</ele>
        <time>2019-10-27T10:16:10.000Z</time>
      </trkpt>
      <trkpt lat="45.56144" lon="5.74414">
        <ele>548</ele>
        <time>2019-10-27T10:16:11.000Z</time>
      </trkpt>
      <trkpt lat="45.56142" lon="5.74414">
        <ele>548</ele>
        <time>2019-10-27T10:16:12.000Z</time>
      </trkpt>
      <trkpt lat="45.56141" lon="5.74414">
        <ele>548</ele>
        <time>2019-10-27T10:16:13.000Z</time>
      </trkpt>
      <trkpt lat="45.56141" lon="5.74413">
        <ele>548</ele>
        <time>2019-10-27T10:16:14.000Z</time>
      </trkpt>
      <trkpt lat="45.56139" lon="5.74413">
        <ele>548</ele>
        <time>2019-10-27T10:16:15.000Z</time>
      </trkpt>
      <trkpt lat="45.56138" lon="5.74412">
        <ele>548</ele>
        <time>2019-10-27T10:16:16.000Z</time>
      </trkpt>
      <trkpt lat="45.56137" lon="5.74412">
        <ele>548</ele>
        <time>2019-10-27T10:16:17.000Z</time>
      </trkpt>
      <trkpt lat="45.56136" lon="5.74411">
        <ele>548</ele>
        <time>2019-10-27T10:16:18.000Z</time>
      </trkpt>
      <trkpt lat="45.56136" lon="5.7441">
        <ele>548</ele>
        <time>2019-10-27T10:16:19.000Z</time>
      </trkpt>
      <trkpt lat="45.56135" lon="5.74409">
        <ele>548</ele>
        <time>2019-10-27T10:16:20.000Z</time>
      </trkpt>
      <trkpt lat="45.56135" lon="5.74409">
        <ele>548</ele>
        <time>2019-10-27T10:16:21.000Z</time>
      </trkpt>
      <trkpt lat="45.56135" lon="5.74408">
        <ele>548</ele>
        <time>2019-10-27T10:16:22.000Z</time>
      </trkpt>
      <trkpt lat="45.56135" lon="5.74408">
        <ele>548</ele>
        <time>2019-10-27T10:16:23.000Z</time>
      </trkpt>
      <trkpt lat="45.56135" lon="5.74408">
        <ele>548</ele>
        <time>2019-10-27T10:16:24.000Z</time>
      </trkpt>
      <trkpt lat="45.56135" lon="5.74408">
        <ele>548</ele>
        <time>2019-10-27T10:16:25.000Z</time>
      </trkpt>
      <trkpt lat="45.56135" lon="5.74408">
        <ele>548</ele>
        <time>2019-10-27T10:16:26.000Z</time>
      </trkpt>
      <trkpt lat="45.56135" lon="5.74408">
        <ele>548</ele>
        <time>2019-10-27T10:16:27.000Z</time>
      </trkpt>
      <trkpt lat="45.56135" lon="5.74407">
        <ele>548</ele>
        <time>2019-10-27T10:16:28.000Z</time>
      </trkpt>
      <trkpt lat="45.56135" lon="5.74406">
        <ele>548</ele>
        <time>2019-10-27T10:16:29.000Z</time>
      </trkpt>
      <trkpt lat="45.56135" lon="5.74404">
        <ele>548</ele>
        <time>2019-10-27T10:16:30.000Z</time>
      </trkpt>
      <trkpt lat="45.56135" lon="5.74403">
        <ele>548</ele>
        <time>2019-10-27T10:16:31.000Z</time>
      </trkpt>
      <trkpt lat="45.56135" lon="5.74402">
        <ele>549</ele>
        <time>2019-10-27T10:16:32.000Z</time>
      </trkpt>
      <trkpt lat="45.56135" lon="5.744">
        <ele>549</ele>
        <time>2019-10-27T10:16:33.000Z</time>
      </trkpt>
      <trkpt lat="45.56136" lon="5.74399">
        <ele>549</ele>
        <time>2019-10-27T10:16:34.000Z</time>
      </trkpt>
      <trkpt lat="45.56137" lon="5.74398">
        <ele>549</ele>
        <time>2019-10-27T10:16:35.000Z</time>
      </trkpt>
      <trkpt lat="45.56137" lon="5.74397">
        <ele>549</ele>
        <time>2019-10-27T10:16:36.000Z</time>
      </trkpt>
      <trkpt lat="45.56138" lon="5.74396">
        <ele>549</ele>
        <time>2019-10-27T10:16:37.000Z</time>
      </trkpt>
      <trkpt lat="45.56139" lon="5.74395">
        <ele>549</ele>
        <time>2019-10-27T10:16:38.000Z</time>
      </trkpt>
      <trkpt lat="45.5614" lon="5.74394">
        <ele>549.3</ele>
        <time>2019-10-27T10:16:39.000Z</time>
      </trkpt>
      <trkpt lat="45.56141" lon="5.74394">
        <ele>549.7</ele>
        <time>2019-10-27T10:16:40.000Z</time>
      </trkpt>
      <trkpt lat="45.56142" lon="5.74393">
        <ele>550</ele>
        <time>2019-10-27T10:16:41.000Z</time>
      </trkpt>
      <trkpt lat="45.56143" lon="5.74393">
        <ele>550</ele>
        <time>2019-10-27T10:16:42.000Z</time>
      </trkpt>
      <trkpt lat="45.56144" lon="5.74393">
        <ele>550</ele>
        <time>2019-10-27T10:16:43.000Z</time>
      </trkpt>
      <trkpt lat="45.56145" lon="5.74393">
        <ele>550</ele>
        <time>2019-10-27T10:16:44.000Z</time>
      </trkpt>
      <trkpt lat="45.56146" lon="5.74393">
        <ele>550</ele>
        <time>2019-10-27T10:16:45.000Z</time>
      </trkpt>
      <trkpt lat="45.56147" lon="5.74394">
        <ele>550</ele>
        <time>2019-10-27T10:16:46.000Z</time>
      </trkpt>
      <trkpt lat="45.56148" lon="5.74394">
        <ele>550</ele>
        <time>2019-10-27T10:16:47.000Z</time>
      </trkpt>
      <trkpt lat="45.56149" lon="5.74394">
        <ele>550</ele>
        <time>2019-10-27T10:16:48.000Z</time>
      </trkpt>
      <trkpt lat="45.5615" lon="5.74394">
        <ele>550</ele>
        <time>2019-10-27T10:16:49.000Z</time>
      </trkpt>
      <trkpt lat="45.56151" lon="5.74394">
        <ele>550</ele>
        <time>2019-10-27T10:16:50.000Z</time>
      </trkpt>
      <trkpt lat="45.56152" lon="5.74393">
        <ele>550</ele>
        <time>2019-10-27T10:16:51.000Z</time>
      </trkpt>
      <trkpt lat="45.56153" lon="5.74392">
        <ele>550</ele>
        <time>2019-10-27T10:16:52.000Z</time>
      </trkpt>
      <trkpt lat="45.56154" lon="5.74391">
        <ele>550</ele>
        <time>2019-10-27T10:16:53.000Z</time>
      </trkpt>
      <trkpt lat="45.56155" lon="5.7439">
        <ele>550</ele>
        <time>2019-10-27T10:16:54.000Z</time>
      </trkpt>
      <trkpt lat="45.56156" lon="5.7439">
        <ele>550</ele>
        <time>2019-10-27T10:16:55.000Z</time>
      </trkpt>
      <trkpt lat="45.56157" lon="5.74389">
        <ele>551</ele>
        <time>2019-10-27T10:16:56.000Z</time>
      </trkpt>
      <trkpt lat="45.56158" lon="5.74389">
        <ele>551</ele>
        <time>2019-10-27T10:16:57.000Z</time>
      </trkpt>
      <trkpt lat="45.5616" lon="5.74388">
        <ele>551</ele>
        <time>2019-10-27T10:16:58.000Z</time>
      </trkpt>
      <trkpt lat="45.56161" lon="5.74388">
        <ele>551</ele>
        <time>2019-10-27T10:16:59.000Z</time>
      </trkpt>
      <trkpt lat="45.56162" lon="5.74387">
        <ele>551</ele>
        <time>2019-10-27T10:17:00.000Z</time>
      </trkpt>
      <trkpt lat="45.56163" lon="5.74386">
        <ele>551</ele>
        <time>2019-10-27T10:17:01.000Z</time>
      </trkpt>
      <trkpt lat="45.56164" lon="5.74386">
        <ele>551</ele>
        <time>2019-10-27T10:17:02.000Z</time>
      </trkpt>
      <trkpt lat="45.56165" lon="5.74385">
        <ele>551</ele>
        <time>2019-10-27T10:17:03.000Z</time>
      </trkpt>
      <trkpt lat="45.56166" lon="5.74385">
        <ele>551</ele>
        <time>2019-10-27T10:17:04.000Z</time>
      </trkpt>
      <trkpt lat="45.56167" lon="5.74385">
        <ele>551</ele>
        <time>2019-10-27T10:17:05.000Z</time>
      </trkpt>
      <trkpt lat="45.56169" lon="5.74386">
        <ele>551</ele>
        <time>2019-10-27T10:17:06.000Z</time>
      </trkpt>
      <trkpt lat="45.5617" lon="5.74386">
        <ele>551</ele>
        <time>2019-10-27T10:17:07.000Z</time>
      </trkpt>
      <trkpt lat="45.56172" lon="5.74386">
        <ele>551</ele>
        <time>2019-10-27T10:17:08.000Z</time>
      </trkpt>
      <trkpt lat="45.56173" lon="5.74386">
        <ele>551</ele>
        <time>2019-10-27T10:17:09.000Z</time>
      </trkpt>
      <trkpt lat="45.56174" lon="5.74386">
        <ele>552</ele>
        <time>2019-10-27T10:17:10.000Z</time>
      </trkpt>
      <trkpt lat="45.56176" lon="5.74386">
        <ele>552</ele>
        <time>2019-10-27T10:17:11.000Z</time>
      </trkpt>
      <trkpt lat="45.56177" lon="5.74386">
        <ele>552</ele>
        <time>2019-10-27T10:17:12.000Z</time>
      </trkpt>
      <trkpt lat="45.56178" lon="5.74386">
        <ele>552</ele>
        <time>2019-10-27T10:17:13.000Z</time>
      </trkpt>
      <trkpt lat="45.56179" lon="5.74386">
        <ele>552</ele>
        <time>2019-10-27T10:17:14.000Z</time>
      </trkpt>
      <trkpt lat="45.56181" lon="5.74386">
        <ele>552</ele>
        <time>2019-10-27T10:17:15.000Z</time>
      </trkpt>
      <trkpt lat="45.56182" lon="5.74386">
        <ele>552</ele>
        <time>2019-10-27T10:17:16.000Z</time>
      </trkpt>
      <trkpt lat="45.56183" lon="5.74386">
        <ele>552</ele>
        <time>2019-10-27T10:17:17.000Z</time>
      </trkpt>
      <trkpt lat="45.56185" lon="5.74386">
        <ele>552</ele>
        <time>2019-10-27T10:17:18.000Z</time>
      </trkpt>
      <trkpt lat="45.56186" lon="5.74386">
        <ele>552</ele>
        <time>2019-10-27T10:17:19.000Z</time>
      </trkpt>
      <trkpt lat="45.56187" lon="5.74386">
        <ele>552</ele>
        <time>2019-10-27T10:17:20.000Z</time>
      </trkpt>
      <trkpt lat="45.56188" lon="5.74386">
        <ele>552</ele>
        <time>2019-10-27T10:17:21.000Z</time>
      </trkpt>
      <trkpt lat="45.56189" lon="5.74386">
        <ele>552</ele>
        <time>2019-10-27T10:17:22.000Z</time>
      </trkpt>
      <trkpt lat="45.5619" lon="5.74385">
        <ele>552</ele>
        <time>2019-10-27T10:17:23.000Z</time>
      </trkpt>
      <trkpt lat="45.5619" lon="5.74383">
        <ele>552</ele>
        <time>2019-10-27T10:17:24.000Z</time>
      </trkpt>
      <trkpt lat="45.5619" lon="5.74382">
        <ele>552</ele>
        <time>2019-10-27T10:17:25.000Z</time>
      </trkpt>
      <trkpt lat="45.56191" lon="5.74381">
        <ele>552</ele>
        <time>2019-10-27T10:17:26.000Z</time>
      </trkpt>
      <trkpt lat="45.56192" lon="5.7438">
        <ele>552</ele>
        <time>2019-10-27T10:17:27.000Z</time>
      </trkpt>
      <trkpt lat="45.56194" lon="5.7438">
        <ele>552</ele>
        <time>2019-10-27T10:17:28.000Z</time>
      </trkpt>
      <trkpt lat="45.56195" lon="5.74381">
        <ele>552</ele>
        <time>2019-10-27T10:17:29.000Z</time>
      </trkpt>
      <trkpt lat="45.56197" lon="5.74381">
        <ele>552</ele>
        <time>2019-10-27T10:17:30.000Z</time>
      </trkpt>
      <trkpt lat="45.56198" lon="5.74381">
        <ele>552</ele>
        <time>2019-10-27T10:17:31.000Z</time>
      </trkpt>
      <trkpt lat="45.56199" lon="5.74381">
        <ele>552</ele>
        <time>2019-10-27T10:17:32.000Z</time>
      </trkpt>
      <trkpt lat="45.56201" lon="5.74382">
        <ele>552.3</ele>
        <time>2019-10-27T10:17:33.000Z</time>
      </trkpt>
      <trkpt lat="45.56202" lon="5.74382">
        <ele>552.7</ele>
        <time>2019-10-27T10:17:34.000Z</time>
      </trkpt>
      <trkpt lat="45.56203" lon="5.74382">
        <ele>553</ele>
        <time>2019-10-27T10:17:35.000Z</time>
      </trkpt>
      <trkpt lat="45.56204" lon="5.74382">
        <ele>553</ele>
        <time>2019-10-27T10:17:36.000Z</time>
      </trkpt>
      <trkpt lat="45.56206" lon="5.74382">
        <ele>553</ele>
        <time>2019-10-27T10:17:37.000Z</time>
      </trkpt>
      <trkpt lat="45.56207" lon="5.74382">
        <ele>553</ele>
        <time>2019-10-27T10:17:38.000Z</time>
      </trkpt>
      <trkpt lat="45.56208" lon="5.74382">
        <ele>553</ele>
        <time>2019-10-27T10:17:39.000Z</time>
      </trkpt>
      <trkpt lat="45.56208" lon="5.74382">
        <ele>553</ele>
        <time>2019-10-27T10:17:40.000Z</time>
      </trkpt>
      <trkpt lat="45.56209" lon="5.74381">
        <ele>553</ele>
        <time>2019-10-27T10:17:41.000Z</time>
      </trkpt>
      <trkpt lat="45.5621" lon="5.7438">
        <ele>553</ele>
        <time>2019-10-27T10:17:42.000Z</time>
      </trkpt>
      <trkpt lat="45.5621" lon="5.7438">
        <ele>553</ele>
        <time>2019-10-27T10:17:43.000Z</time>
      </trkpt>
      <trkpt lat="45.56211" lon="5.74379">
        <ele>553</ele>
        <time>2019-10-27T10:17:44.000Z</time>
      </trkpt>
      <trkpt lat="45.56211" lon="5.74378">
        <ele>553</ele>
        <time>2019-10-27T10:17:45.000Z</time>
      </trkpt>
      <trkpt lat="45.56212" lon="5.74378">
        <ele>553</ele>
        <time>2019-10-27T10:17:46.000Z</time>
      </trkpt>
      <trkpt lat="45.56212" lon="5.74377">
        <ele>553</ele>
        <time>2019-10-27T10:17:47.000Z</time>
      </trkpt>
      <trkpt lat="45.56213" lon="5.74376">
        <ele>553</ele>
        <time>2019-10-27T10:17:48.000Z</time>
      </trkpt>
      <trkpt lat="45.56213" lon="5.74376">
        <ele>553</ele>
        <time>2019-10-27T10:17:49.000Z</time>
      </trkpt>
      <trkpt lat="45.56214" lon="5.74375">
        <ele>553</ele>
        <time>2019-10-27T10:17:50.000Z</time>
      </trkpt>
      <trkpt lat="45.56214" lon="5.74375">
        <ele>553</ele>
        <time>2019-10-27T10:17:51.000Z</time>
      </trkpt>
      <trkpt lat="45.56215" lon="5.74374">
        <ele>553</ele>
        <time>2019-10-27T10:17:52.000Z</time>
      </trkpt>
      <trkpt lat="45.56216" lon="5.74374">
        <ele>553</ele>
        <time>2019-10-27T10:17:53.000Z</time>
      </trkpt>
      <trkpt lat="45.56217" lon="5.74374">
        <ele>553</ele>
        <time>2019-10-27T10:17:54.000Z</time>
      </trkpt>
      <trkpt lat="45.56218" lon="5.74373">
        <ele>553</ele>
        <time>2019-10-27T10:17:55.000Z</time>
      </trkpt>
      <trkpt lat="45.56219" lon="5.74373">
        <ele>553</ele>
        <time>2019-10-27T10:17:56.000Z</time>
      </trkpt>
      <trkpt lat="45.5622" lon="5.74373">
        <ele>553.3</ele>
        <time>2019-10-27T10:17:57.000Z</time>
      </trkpt>
      <trkpt lat="45.56221" lon="5.74373">
        <ele>553.7</ele>
        <time>2019-10-27T10:17:58.000Z</time>
      </trkpt>
      <trkpt lat="45.56223" lon="5.74372">
        <ele>554</ele>
        <time>2019-10-27T10:17:59.000Z</time>
      </trkpt>
      <trkpt lat="45.56224" lon="5.74372">
        <ele>554</ele>
        <time>2019-10-27T10:18:00.000Z</time>
      </trkpt>
      <trkpt lat="45.56225" lon="5.74372">
        <ele>554</ele>
        <time>2019-10-27T10:18:01.000Z</time>
      </trkpt>
      <trkpt lat="45.56226" lon="5.74371">
        <ele>554</ele>
        <time>2019-10-27T10:18:02.000Z</time>
      </trkpt>
      <trkpt lat="45.56228" lon="5.74371">
        <ele>554</ele>
        <time>2019-10-27T10:18:03.000Z</time>
      </trkpt>
      <trkpt lat="45.56229" lon="5.74371">
        <ele>554</ele>
        <time>2019-10-27T10:18:04.000Z</time>
      </trkpt>
      <trkpt lat="45.5623" lon="5.74371">
        <ele>554</ele>
        <time>2019-10-27T10:18:05.000Z</time>
      </trkpt>
      <trkpt lat="45.56231" lon="5.74371">
        <ele>554</ele>
        <time>2019-10-27T10:18:06.000Z</time>
      </trkpt>
      <trkpt lat="45.56232" lon="5.74371">
        <ele>554</ele>
        <time>2019-10-27T10:18:07.000Z</time>
      </trkpt>
      <trkpt lat="45.56233" lon="5.74371">
        <ele>554</ele>
        <time>2019-10-27T10:18:08.000Z</time>
      </trkpt>
      <trkpt lat="45.56234" lon="5.74371">
        <ele>554</ele>
        <time>2019-10-27T10:18:09.000Z</time>
      </trkpt>
      <trkpt lat="45.56235" lon="5.74371">
        <ele>554</ele>
        <time>2019-10-27T10:18:10.000Z</time>
      </trkpt>
      <trkpt lat="45.56236" lon="5.7437">
        <ele>554</ele>
        <time>2019-10-27T10:18:11.000Z</time>
      </trkpt>
      <trkpt lat="45.56238" lon="5.7437">
        <ele>554</ele>
        <time>2019-10-27T10:18:12.000Z</time>
      </trkpt>
      <trkpt lat="45.56239" lon="5.7437">
        <ele>554</ele>
        <time>2019-10-27T10:18:13.000Z</time>
      </trkpt>
      <trkpt lat="45.5624" lon="5.7437">
        <ele>554</ele>
        <time>2019-10-27T10:18:14.000Z</time>
      </trkpt>
      <trkpt lat="45.56241" lon="5.7437">
        <ele>554.3</ele>
        <time>2019-10-27T10:18:15.000Z</time>
      </trkpt>
      <trkpt lat="45.56243" lon="5.7437">
        <ele>554.7</ele>
        <time>2019-10-27T10:18:16.000Z</time>
      </trkpt>
      <trkpt lat="45.56244" lon="5.7437">
        <ele>555</ele>
        <time>2019-10-27T10:18:17.000Z</time>
      </trkpt>
      <trkpt lat="45.56245" lon="5.7437">
        <ele>555</ele>
        <time>2019-10-27T10:18:18.000Z</time>
      </trkpt>
      <trkpt lat="45.56246" lon="5.7437">
        <ele>555</ele>
        <time>2019-10-27T10:18:19.000Z</time>
      </trkpt>
      <trkpt lat="45.56248" lon="5.7437">
        <ele>555</ele>
        <time>2019-10-27T10:18:20.000Z</time>
      </trkpt>
      <trkpt lat="45.56249" lon="5.7437">
        <ele>555</ele>
        <time>2019-10-27T10:18:21.000Z</time>
      </trkpt>
      <trkpt lat="45.5625" lon="5.7437">
        <ele>555</ele>
        <time>2019-10-27T10:18:22.000Z</time>
      </trkpt>
      <trkpt lat="45.56251" lon="5.7437">
        <ele>555</ele>
        <time>2019-10-27T10:18:23.000Z</time>
      </trkpt>
      <trkpt lat="45.56252" lon="5.7437">
        <ele>555</ele>
        <time>2019-10-27T10:18:24.000Z</time>
      </trkpt>
      <trkpt lat="45.56253" lon="5.74369">
        <ele>555</ele>
        <time>2019-10-27T10:18:25.000Z</time>
      </trkpt>
      <trkpt lat="45.56254" lon="5.74369">
        <ele>555</ele>
        <time>2019-10-27T10:18:26.000Z</time>
      </trkpt>
      <trkpt lat="45.56255" lon="5.74368">
        <ele>555</ele>
        <time>2019-10-27T10:18:27.000Z</time>
      </trkpt>
      <trkpt lat="45.56256" lon="5.74367">
        <ele>555</ele>
        <time>2019-10-27T10:18:28.000Z</time>
      </trkpt>
      <trkpt lat="45.56257" lon="5.74367">
        <ele>555.3</ele>
        <time>2019-10-27T10:18:29.000Z</time>
      </trkpt>
      <trkpt lat="45.56258" lon="5.74366">
        <ele>555.7</ele>
        <time>2019-10-27T10:18:30.000Z</time>
      </trkpt>
      <trkpt lat="45.56259" lon="5.74366">
        <ele>556</ele>
        <time>2019-10-27T10:18:31.000Z</time>
      </trkpt>
      <trkpt lat="45.5626" lon="5.74366">
        <ele>556</ele>
        <time>2019-10-27T10:18:32.000Z</time>
      </trkpt>
      <trkpt lat="45.56261" lon="5.74366">
        <ele>556</ele>
        <time>2019-10-27T10:18:33.000Z</time>
      </trkpt>
      <trkpt lat="45.56262" lon="5.74367">
        <ele>556</ele>
        <time>2019-10-27T10:18:34.000Z</time>
      </trkpt>
      <trkpt lat="45.56263" lon="5.74367">
        <ele>556</ele>
        <time>2019-10-27T10:18:35.000Z</time>
      </trkpt>
      <trkpt lat="45.56265" lon="5.74367">
        <ele>556</ele>
        <time>2019-10-27T10:18:36.000Z</time>
      </trkpt>
      <trkpt lat="45.56266" lon="5.74367">
        <ele>556</ele>
        <time>2019-10-27T10:18:37.000Z</time>
      </trkpt>
      <trkpt lat="45.56267" lon="5.74367">
        <ele>556</ele>
        <time>2019-10-27T10:18:38.000Z</time>
      </trkpt>
      <trkpt lat="45.56268" lon="5.74367">
        <ele>556</ele>
        <time>2019-10-27T10:18:39.000Z</time>
      </trkpt>
      <trkpt lat="45.56269" lon="5.74368">
        <ele>556</ele>
        <time>2019-10-27T10:18:40.000Z</time>
      </trkpt>
      <trkpt lat="45.56271" lon="5.74368">
        <ele>556</ele>
        <time>2019-10-27T10:18:41.000Z</time>
      </trkpt>
      <trkpt lat="45.56272" lon="5.74368">
        <ele>556</ele>
        <time>2019-10-27T10:18:42.000Z</time>
      </trkpt>
      <trkpt lat="45.56273" lon="5.74369">
        <ele>556</ele>
        <time>2019-10-27T10:18:43.000Z</time>
      </trkpt>
      <trkpt lat="45.56274" lon="5.74369">
        <ele>556</ele>
        <time>2019-10-27T10:18:44.000Z</time>
      </trkpt>
      <trkpt lat="45.56275" lon="5.7437">
        <ele>556</ele>
        <time>2019-10-27T10:18:45.000Z</time>
      </trkpt>
      <trkpt lat="45.56276" lon="5.7437">
        <ele>556</ele>
        <time>2019-10-27T10:18:46.000Z</time>
      </trkpt>
      <trkpt lat="45.56278" lon="5.74371">
        <ele>556.5</ele>
        <time>2019-10-27T10:18:47.000Z</time>
      </trkpt>
      <trkpt lat="45.56279" lon="5.74372">
        <ele>557</ele>
        <time>2019-10-27T10:18:48.000Z</time>
      </trkpt>
      <trkpt lat="45.56281" lon="5.74373">
        <ele>557</ele>
        <time>2019-10-27T10:18:49.000Z</time>
      </trkpt>
      <trkpt lat="45.56282" lon="5.74374">
        <ele>557</ele>
        <time>2019-10-27T10:18:50.000Z</time>
      </trkpt>
      <trkpt lat="45.56283" lon="5.74375">
        <ele>557</ele>
        <time>2019-10-27T10:18:51.000Z</time>
      </trkpt>
      <trkpt lat="45.56284" lon="5.74375">
        <ele>557</ele>
        <time>2019-10-27T10:18:52.000Z</time>
      </trkpt>
      <trkpt lat="45.56285" lon="5.74376">
        <ele>557</ele>
        <time>2019-10-27T10:18:53.000Z</time>
      </trkpt>
      <trkpt lat="45.56286" lon="5.74377">
        <ele>557</ele>
        <time>2019-10-27T10:18:54.000Z</time>
      </trkpt>
      <trkpt lat="45.56287" lon="5.74378">
        <ele>557</ele>
        <time>2019-10-27T10:18:55.000Z</time>
      </trkpt>
      <trkpt lat="45.56288" lon="5.74379">
        <ele>557</ele>
        <time>2019-10-27T10:18:56.000Z</time>
      </trkpt>
      <trkpt lat="45.56289" lon="5.7438">
        <ele>557</ele>
        <time>2019-10-27T10:18:57.000Z</time>
      </trkpt>
      <trkpt lat="45.56289" lon="5.74381">
        <ele>557</ele>
        <time>2019-10-27T10:18:58.000Z</time>
      </trkpt>
      <trkpt lat="45.5629" lon="5.74382">
        <ele>557</ele>
        <time>2019-10-27T10:18:59.000Z</time>
      </trkpt>
      <trkpt lat="45.56291" lon="5.74383">
        <ele>557</ele>
        <time>2019-10-27T10:19:00.000Z</time>
      </trkpt>
      <trkpt lat="45.56292" lon="5.74384">
        <ele>557</ele>
        <time>2019-10-27T10:19:01.000Z</time>
      </trkpt>
      <trkpt lat="45.56292" lon="5.74385">
        <ele>557</ele>
        <time>2019-10-27T10:19:02.000Z</time>
      </trkpt>
      <trkpt lat="45.56293" lon="5.74387">
        <ele>557</ele>
        <time>2019-10-27T10:19:03.000Z</time>
      </trkpt>
      <trkpt lat="45.56294" lon="5.74388">
        <ele>557</ele>
        <time>2019-10-27T10:19:04.000Z</time>
      </trkpt>
      <trkpt lat="45.56294" lon="5.74389">
        <ele>557</ele>
        <time>2019-10-27T10:19:05.000Z</time>
      </trkpt>
      <trkpt lat="45.56295" lon="5.7439">
        <ele>557</ele>
        <time>2019-10-27T10:19:06.000Z</time>
      </trkpt>
      <trkpt lat="45.56296" lon="5.74391">
        <ele>557</ele>
        <time>2019-10-27T10:19:07.000Z</time>
      </trkpt>
      <trkpt lat="45.56297" lon="5.74392">
        <ele>558</ele>
        <time>2019-10-27T10:19:08.000Z</time>
      </trkpt>
      <trkpt lat="45.56298" lon="5.74394">
        <ele>558</ele>
        <time>2019-10-27T10:19:09.000Z</time>
      </trkpt>
      <trkpt lat="45.56298" lon="5.74395">
        <ele>558</ele>
        <time>2019-10-27T10:19:10.000Z</time>
      </trkpt>
      <trkpt lat="45.56299" lon="5.74396">
        <ele>558</ele>
        <time>2019-10-27T10:19:11.000Z</time>
      </trkpt>
      <trkpt lat="45.563" lon="5.74398">
        <ele>558</ele>
        <time>2019-10-27T10:19:12.000Z</time>
      </trkpt>
      <trkpt lat="45.563" lon="5.74399">
        <ele>558</ele>
        <time>2019-10-27T10:19:13.000Z</time>
      </trkpt>
      <trkpt lat="45.56301" lon="5.74401">
        <ele>558</ele>
        <time>2019-10-27T10:19:14.000Z</time>
      </trkpt>
      <trkpt lat="45.56301" lon="5.74402">
        <ele>558</ele>
        <time>2019-10-27T10:19:15.000Z</time>
      </trkpt>
      <trkpt lat="45.56302" lon="5.74404">
        <ele>558</ele>
        <time>2019-10-27T10:19:16.000Z</time>
      </trkpt>
      <trkpt lat="45.56302" lon="5.74405">
        <ele>558</ele>
        <time>2019-10-27T10:19:17.000Z</time>
      </trkpt>
      <trkpt lat="45.56303" lon="5.74406">
        <ele>558</ele>
        <time>2019-10-27T10:19:18.000Z</time>
      </trkpt>
      <trkpt lat="45.56303" lon="5.74408">
        <ele>558</ele>
        <time>2019-10-27T10:19:19.000Z</time>
      </trkpt>
      <trkpt lat="45.56304" lon="5.74409">
        <ele>558</ele>
        <time>2019-10-27T10:19:20.000Z</time>
      </trkpt>
      <trkpt lat="45.56304" lon="5.7441">
        <ele>558.5</ele>
        <time>2019-10-27T10:19:21.000Z</time>
      </trkpt>
      <trkpt lat="45.56305" lon="5.74412">
        <ele>559</ele>
        <time>2019-10-27T10:19:22.000Z</time>
      </trkpt>
      <trkpt lat="45.56305" lon="5.74413">
        <ele>559</ele>
        <time>2019-10-27T10:19:23.000Z</time>
      </trkpt>
      <trkpt lat="45.56306" lon="5.74414">
        <ele>559</ele>
        <time>2019-10-27T10:19:24.000Z</time>
      </trkpt>
      <trkpt lat="45.56307" lon="5.74416">
        <ele>559</ele>
        <time>2019-10-27T10:19:25.000Z</time>
      </trkpt>
      <trkpt lat="45.56307" lon="5.74417">
        <ele>559</ele>
        <time>2019-10-27T10:19:26.000Z</time>
      </trkpt>
      <trkpt lat="45.56308" lon="5.74418">
        <ele>559</ele>
        <time>2019-10-27T10:19:27.000Z</time>
      </trkpt>
      <trkpt lat="45.56309" lon="5.7442">
        <ele>559</ele>
        <time>2019-10-27T10:19:28.000Z</time>
      </trkpt>
      <trkpt lat="45.5631" lon="5.74421">
        <ele>559</ele>
        <time>2019-10-27T10:19:29.000Z</time>
      </trkpt>
      <trkpt lat="45.5631" lon="5.74422">
        <ele>559</ele>
        <time>2019-10-27T10:19:30.000Z</time>
      </trkpt>
      <trkpt lat="45.56311" lon="5.74423">
        <ele>559</ele>
        <time>2019-10-27T10:19:31.000Z</time>
      </trkpt>
      <trkpt lat="45.56311" lon="5.74424">
        <ele>559</ele>
        <time>2019-10-27T10:19:32.000Z</time>
      </trkpt>
      <trkpt lat="45.56312" lon="5.74425">
        <ele>559</ele>
        <time>2019-10-27T10:19:33.000Z</time>
      </trkpt>
      <trkpt lat="45.56312" lon="5.74426">
        <ele>559</ele>
        <time>2019-10-27T10:19:34.000Z</time>
      </trkpt>
      <trkpt lat="45.56312" lon="5.74427">
        <ele>559</ele>
        <time>2019-10-27T10:19:35.000Z</time>
      </trkpt>
      <trkpt lat="45.56313" lon="5.74428">
        <ele>559</ele>
        <time>2019-10-27T10:19:36.000Z</time>
      </trkpt>
      <trkpt lat="45.56313" lon="5.74429">
        <ele>559</ele>
        <time>2019-10-27T10:19:37.000Z</time>
      </trkpt>
      <trkpt lat="45.56313" lon="5.74429">
        <ele>560</ele>
        <time>2019-10-27T10:19:38.000Z</time>
      </trkpt>
      <trkpt lat="45.56314" lon="5.7443">
        <ele>560</ele>
        <time>2019-10-27T10:19:39.000Z</time>
      </trkpt>
      <trkpt lat="45.56314" lon="5.74431">
        <ele>560</ele>
        <time>2019-10-27T10:19:40.000Z</time>
      </trkpt>
      <trkpt lat="45.56314" lon="5.74432">
        <ele>560</ele>
        <time>2019-10-27T10:19:41.000Z</time>
      </trkpt>
      <trkpt lat="45.56315" lon="5.74433">
        <ele>560</ele>
        <time>2019-10-27T10:19:42.000Z</time>
      </trkpt>
      <trkpt lat="45.56316" lon="5.74435">
        <ele>560</ele>
        <time>2019-10-27T10:19:43.000Z</time>
      </trkpt>
      <trkpt lat="45.56316" lon="5.74436">
        <ele>560</ele>
        <time>2019-10-27T10:19:44.000Z</time>
      </trkpt>
      <trkpt lat="45.56317" lon="5.74437">
        <ele>560</ele>
        <time>2019-10-27T10:19:45.000Z</time>
      </trkpt>
      <trkpt lat="45.56318" lon="5.74439">
        <ele>560</ele>
        <time>2019-10-27T10:19:46.000Z</time>
      </trkpt>
      <trkpt lat="45.56319" lon="5.74441">
        <ele>560</ele>
        <time>2019-10-27T10:19:47.000Z</time>
      </trkpt>
      <trkpt lat="45.5632" lon="5.74442">
        <ele>560</ele>
        <time>2019-10-27T10:19:48.000Z</time>
      </trkpt>
      <trkpt lat="45.56321" lon="5.74444">
        <ele>560</ele>
        <time>2019-10-27T10:19:49.000Z</time>
      </trkpt>
      <trkpt lat="45.56322" lon="5.74445">
        <ele>560</ele>
        <time>2019-10-27T10:19:50.000Z</time>
      </trkpt>
      <trkpt lat="45.56322" lon="5.74447">
        <ele>560</ele>
        <time>2019-10-27T10:19:51.000Z</time>
      </trkpt>
      <trkpt lat="45.56323" lon="5.74448">
        <ele>560</ele>
        <time>2019-10-27T10:19:52.000Z</time>
      </trkpt>
      <trkpt lat="45.56324" lon="5.7445">
        <ele>560</ele>
        <time>2019-10-27T10:19:53.000Z</time>
      </trkpt>
      <trkpt lat="45.56325" lon="5.74451">
        <ele>560</ele>
        <time>2019-10-27T10:19:54.000Z</time>
      </trkpt>
      <trkpt lat="45.56325" lon="5.74452">
        <ele>560</ele>
        <time>2019-10-27T10:19:55.000Z</time>
      </trkpt>
      <trkpt lat="45.56326" lon="5.74454">
        <ele>560</ele>
        <time>2019-10-27T10:19:56.000Z</time>
      </trkpt>
      <trkpt lat="45.56327" lon="5.74455">
        <ele>560.3</ele>
        <time>2019-10-27T10:19:57.000Z</time>
      </trkpt>
      <trkpt lat="45.56327" lon="5.74456">
        <ele>560.7</ele>
        <time>2019-10-27T10:19:58.000Z</time>
      </trkpt>
      <trkpt lat="45.56328" lon="5.74458">
        <ele>561</ele>
        <time>2019-10-27T10:19:59.000Z</time>
      </trkpt>
      <trkpt lat="45.56328" lon="5.74459">
        <ele>561</ele>
        <time>2019-10-27T10:20:00.000Z</time>
      </trkpt>
      <trkpt lat="45.56329" lon="5.7446">
        <ele>561</ele>
        <time>2019-10-27T10:20:01.000Z</time>
      </trkpt>
      <trkpt lat="45.56329" lon="5.74461">
        <ele>561</ele>
        <time>2019-10-27T10:20:02.000Z</time>
      </trkpt>
      <trkpt lat="45.5633" lon="5.74463">
        <ele>561</ele>
        <time>2019-10-27T10:20:03.000Z</time>
      </trkpt>
      <trkpt lat="45.56331" lon="5.74464">
        <ele>561</ele>
        <time>2019-10-27T10:20:04.000Z</time>
      </trkpt>
      <trkpt lat="45.56331" lon="5.74465">
        <ele>561</ele>
        <time>2019-10-27T10:20:05.000Z</time>
      </trkpt>
      <trkpt lat="45.56331" lon="5.74466">
        <ele>561</ele>
        <time>2019-10-27T10:20:06.000Z</time>
      </trkpt>
      <trkpt lat="45.56332" lon="5.74467">
        <ele>561</ele>
        <time>2019-10-27T10:20:07.000Z</time>
      </trkpt>
      <trkpt lat="45.56332" lon="5.74469">
        <ele>561</ele>
        <time>2019-10-27T10:20:08.000Z</time>
      </trkpt>
      <trkpt lat="45.56333" lon="5.7447">
        <ele>561</ele>
        <time>2019-10-27T10:20:09.000Z</time>
      </trkpt>
      <trkpt lat="45.56333" lon="5.74471">
        <ele>561</ele>
        <time>2019-10-27T10:20:10.000Z</time>
      </trkpt>
      <trkpt lat="45.56334" lon="5.74473">
        <ele>561</ele>
        <time>2019-10-27T10:20:11.000Z</time>
      </trkpt>
      <trkpt lat="45.56334" lon="5.74474">
        <ele>561</ele>
        <time>2019-10-27T10:20:12.000Z</time>
      </trkpt>
      <trkpt lat="45.56335" lon="5.74474">
        <ele>561</ele>
        <time>2019-10-27T10:20:13.000Z</time>
      </trkpt>
      <trkpt lat="45.56336" lon="5.74474">
        <ele>562</ele>
        <time>2019-10-27T10:20:14.000Z</time>
      </trkpt>
      <trkpt lat="45.56336" lon="5.74473">
        <ele>562</ele>
        <time>2019-10-27T10:20:15.000Z</time>
      </trkpt>
      <trkpt lat="45.56337" lon="5.74472">
        <ele>562</ele>
        <time>2019-10-27T10:20:16.000Z</time>
      </trkpt>
      <trkpt lat="45.56338" lon="5.74472">
        <ele>562</ele>
        <time>2019-10-27T10:20:17.000Z</time>
      </trkpt>
      <trkpt lat="45.56339" lon="5.74471">
        <ele>562</ele>
        <time>2019-10-27T10:20:18.000Z</time>
      </trkpt>
      <trkpt lat="45.5634" lon="5.7447">
        <ele>562</ele>
        <time>2019-10-27T10:20:19.000Z</time>
      </trkpt>
      <trkpt lat="45.56341" lon="5.7447">
        <ele>562</ele>
        <time>2019-10-27T10:20:20.000Z</time>
      </trkpt>
      <trkpt lat="45.56342" lon="5.74469">
        <ele>562</ele>
        <time>2019-10-27T10:20:21.000Z</time>
      </trkpt>
      <trkpt lat="45.56343" lon="5.74468">
        <ele>562</ele>
        <time>2019-10-27T10:20:22.000Z</time>
      </trkpt>
      <trkpt lat="45.56344" lon="5.74468">
        <ele>562.3</ele>
        <time>2019-10-27T10:20:23.000Z</time>
      </trkpt>
      <trkpt lat="45.56345" lon="5.74467">
        <ele>562.7</ele>
        <time>2019-10-27T10:20:24.000Z</time>
      </trkpt>
      <trkpt lat="45.56346" lon="5.74466">
        <ele>563</ele>
        <time>2019-10-27T10:20:25.000Z</time>
      </trkpt>
      <trkpt lat="45.56347" lon="5.74465">
        <ele>563</ele>
        <time>2019-10-27T10:20:26.000Z</time>
      </trkpt>
      <trkpt lat="45.56347" lon="5.74464">
        <ele>563</ele>
        <time>2019-10-27T10:20:27.000Z</time>
      </trkpt>
      <trkpt lat="45.56348" lon="5.74463">
        <ele>563</ele>
        <time>2019-10-27T10:20:28.000Z</time>
      </trkpt>
      <trkpt lat="45.56349" lon="5.74462">
        <ele>563</ele>
        <time>2019-10-27T10:20:29.000Z</time>
      </trkpt>
      <trkpt lat="45.56349" lon="5.74461">
        <ele>564</ele>
        <time>2019-10-27T10:20:30.000Z</time>
      </trkpt>
      <trkpt lat="45.5635" lon="5.7446">
        <ele>564</ele>
        <time>2019-10-27T10:20:31.000Z</time>
      </trkpt>
      <trkpt lat="45.5635" lon="5.74459">
        <ele>564</ele>
        <time>2019-10-27T10:20:32.000Z</time>
      </trkpt>
      <trkpt lat="45.56351" lon="5.74458">
        <ele>564</ele>
        <time>2019-10-27T10:20:33.000Z</time>
      </trkpt>
      <trkpt lat="45.56351" lon="5.74456">
        <ele>564</ele>
        <time>2019-10-27T10:20:34.000Z</time>
      </trkpt>
      <trkpt lat="45.56352" lon="5.74455">
        <ele>564</ele>
        <time>2019-10-27T10:20:35.000Z</time>
      </trkpt>
      <trkpt lat="45.56352" lon="5.74454">
        <ele>564</ele>
        <time>2019-10-27T10:20:36.000Z</time>
      </trkpt>
      <trkpt lat="45.56353" lon="5.74454">
        <ele>564.5</ele>
        <time>2019-10-27T10:20:37.000Z</time>
      </trkpt>
      <trkpt lat="45.56354" lon="5.74453">
        <ele>565</ele>
        <time>2019-10-27T10:20:38.000Z</time>
      </trkpt>
      <trkpt lat="45.56354" lon="5.74453">
        <ele>565</ele>
        <time>2019-10-27T10:20:39.000Z</time>
      </trkpt>
      <trkpt lat="45.56355" lon="5.74453">
        <ele>565</ele>
        <time>2019-10-27T10:20:40.000Z</time>
      </trkpt>
      <trkpt lat="45.56355" lon="5.74453">
        <ele>565</ele>
        <time>2019-10-27T10:20:41.000Z</time>
      </trkpt>
      <trkpt lat="45.56356" lon="5.74452">
        <ele>565</ele>
        <time>2019-10-27T10:20:42.000Z</time>
      </trkpt>
      <trkpt lat="45.56356" lon="5.74452">
        <ele>565</ele>
        <time>2019-10-27T10:20:43.000Z</time>
      </trkpt>
      <trkpt lat="45.56356" lon="5.74451">
        <ele>565</ele>
        <time>2019-10-27T10:20:44.000Z</time>
      </trkpt>
      <trkpt lat="45.56356" lon="5.74451">
        <ele>565</ele>
        <time>2019-10-27T10:20:45.000Z</time>
      </trkpt>
      <trkpt lat="45.56356" lon="5.7445">
        <ele>565</ele>
        <time>2019-10-27T10:20:46.000Z</time>
      </trkpt>
      <trkpt lat="45.56356" lon="5.74449">
        <ele>565</ele>
        <time>2019-10-27T10:20:47.000Z</time>
      </trkpt>
      <trkpt lat="45.56356" lon="5.74448">
        <ele>565</ele>
        <time>2019-10-27T10:20:48.000Z</time>
      </trkpt>
      <trkpt lat="45.56356" lon="5.74447">
        <ele>565</ele>
        <time>2019-10-27T10:20:49.000Z</time>
      </trkpt>
      <trkpt lat="45.56357" lon="5.74446">
        <ele>566</ele>
        <time>2019-10-27T10:20:50.000Z</time>
      </trkpt>
      <trkpt lat="45.56357" lon="5.74445">
        <ele>566</ele>
        <time>2019-10-27T10:20:51.000Z</time>
      </trkpt>
      <trkpt lat="45.56358" lon="5.74444">
        <ele>566</ele>
        <time>2019-10-27T10:20:52.000Z</time>
      </trkpt>
      <trkpt lat="45.56359" lon="5.74442">
        <ele>566</ele>
        <time>2019-10-27T10:20:53.000Z</time>
      </trkpt>
      <trkpt lat="45.56359" lon="5.74441">
        <ele>566</ele>
        <time>2019-10-27T10:20:54.000Z</time>
      </trkpt>
      <trkpt lat="45.5636" lon="5.74439">
        <ele>566</ele>
        <time>2019-10-27T10:20:55.000Z</time>
      </trkpt>
      <trkpt lat="45.5636" lon="5.74438">
        <ele>566</ele>
        <time>2019-10-27T10:20:56.000Z</time>
      </trkpt>
      <trkpt lat="45.56361" lon="5.74436">
        <ele>566</ele>
        <time>2019-10-27T10:20:57.000Z</time>
      </trkpt>
      <trkpt lat="45.56361" lon="5.74435">
        <ele>567</ele>
        <time>2019-10-27T10:20:58.000Z</time>
      </trkpt>
      <trkpt lat="45.56362" lon="5.74433">
        <ele>567</ele>
        <time>2019-10-27T10:20:59.000Z</time>
      </trkpt>
      <trkpt lat="45.56363" lon="5.74432">
        <ele>567</ele>
        <time>2019-10-27T10:21:00.000Z</time>
      </trkpt>
      <trkpt lat="45.56363" lon="5.74431">
        <ele>567</ele>
        <time>2019-10-27T10:21:01.000Z</time>
      </trkpt>
      <trkpt lat="45.56364" lon="5.7443">
        <ele>567</ele>
        <time>2019-10-27T10:21:02.000Z</time>
      </trkpt>
      <trkpt lat="45.56365" lon="5.74428">
        <ele>567</ele>
        <time>2019-10-27T10:21:03.000Z</time>
      </trkpt>
      <trkpt lat="45.56366" lon="5.74427">
        <ele>567</ele>
        <time>2019-10-27T10:21:04.000Z</time>
      </trkpt>
      <trkpt lat="45.56367" lon="5.74426">
        <ele>567.3</ele>
        <time>2019-10-27T10:21:05.000Z</time>
      </trkpt>
      <trkpt lat="45.56367" lon="5.74425">
        <ele>567.7</ele>
        <time>2019-10-27T10:21:06.000Z</time>
      </trkpt>
      <trkpt lat="45.56368" lon="5.74424">
        <ele>568</ele>
        <time>2019-10-27T10:21:07.000Z</time>
      </trkpt>
      <trkpt lat="45.56368" lon="5.74422">
        <ele>568</ele>
        <time>2019-10-27T10:21:08.000Z</time>
      </trkpt>
      <trkpt lat="45.56369" lon="5.74421">
        <ele>568</ele>
        <time>2019-10-27T10:21:09.000Z</time>
      </trkpt>
      <trkpt lat="45.56369" lon="5.74419">
        <ele>568</ele>
        <time>2019-10-27T10:21:10.000Z</time>
      </trkpt>
      <trkpt lat="45.5637" lon="5.74418">
        <ele>568</ele>
        <time>2019-10-27T10:21:11.000Z</time>
      </trkpt>
      <trkpt lat="45.5637" lon="5.74417">
        <ele>568</ele>
        <time>2019-10-27T10:21:12.000Z</time>
      </trkpt>
      <trkpt lat="45.56371" lon="5.74415">
        <ele>568.5</ele>
        <time>2019-10-27T10:21:13.000Z</time>
      </trkpt>
      <trkpt lat="45.56372" lon="5.74414">
        <ele>569</ele>
        <time>2019-10-27T10:21:14.000Z</time>
      </trkpt>
      <trkpt lat="45.56373" lon="5.74413">
        <ele>569</ele>
        <time>2019-10-27T10:21:15.000Z</time>
      </trkpt>
      <trkpt lat="45.56373" lon="5.74412">
        <ele>569</ele>
        <time>2019-10-27T10:21:16.000Z</time>
      </trkpt>
      <trkpt lat="45.56374" lon="5.7441">
        <ele>569</ele>
        <time>2019-10-27T10:21:17.000Z</time>
      </trkpt>
      <trkpt lat="45.56375" lon="5.74409">
        <ele>569</ele>
        <time>2019-10-27T10:21:18.000Z</time>
      </trkpt>
      <trkpt lat="45.56376" lon="5.74408">
        <ele>569</ele>
        <time>2019-10-27T10:21:19.000Z</time>
      </trkpt>
      <trkpt lat="45.56377" lon="5.74407">
        <ele>569</ele>
        <time>2019-10-27T10:21:20.000Z</time>
      </trkpt>
      <trkpt lat="45.56377" lon="5.74406">
        <ele>569</ele>
        <time>2019-10-27T10:21:21.000Z</time>
      </trkpt>
      <trkpt lat="45.56378" lon="5.74405">
        <ele>570</ele>
        <time>2019-10-27T10:21:22.000Z</time>
      </trkpt>
      <trkpt lat="45.56378" lon="5.74404">
        <ele>570</ele>
        <time>2019-10-27T10:21:23.000Z</time>
      </trkpt>
      <trkpt lat="45.56379" lon="5.74403">
        <ele>570</ele>
        <time>2019-10-27T10:21:24.000Z</time>
      </trkpt>
      <trkpt lat="45.5638" lon="5.74402">
        <ele>570</ele>
        <time>2019-10-27T10:21:25.000Z</time>
      </trkpt>
      <trkpt lat="45.5638" lon="5.744">
        <ele>570</ele>
        <time>2019-10-27T10:21:26.000Z</time>
      </trkpt>
      <trkpt lat="45.56381" lon="5.74399">
        <ele>570</ele>
        <time>2019-10-27T10:21:27.000Z</time>
      </trkpt>
      <trkpt lat="45.56382" lon="5.74397">
        <ele>570</ele>
        <time>2019-10-27T10:21:28.000Z</time>
      </trkpt>
      <trkpt lat="45.56383" lon="5.74396">
        <ele>570.3</ele>
        <time>2019-10-27T10:21:29.000Z</time>
      </trkpt>
      <trkpt lat="45.56383" lon="5.74394">
        <ele>570.7</ele>
        <time>2019-10-27T10:21:30.000Z</time>
      </trkpt>
      <trkpt lat="45.56384" lon="5.74393">
        <ele>571</ele>
        <time>2019-10-27T10:21:31.000Z</time>
      </trkpt>
      <trkpt lat="45.56385" lon="5.74391">
        <ele>571</ele>
        <time>2019-10-27T10:21:32.000Z</time>
      </trkpt>
      <trkpt lat="45.56385" lon="5.7439">
        <ele>571</ele>
        <time>2019-10-27T10:21:33.000Z</time>
      </trkpt>
      <trkpt lat="45.56386" lon="5.74389">
        <ele>571</ele>
        <time>2019-10-27T10:21:34.000Z</time>
      </trkpt>
      <trkpt lat="45.56387" lon="5.74388">
        <ele>571.5</ele>
        <time>2019-10-27T10:21:35.000Z</time>
      </trkpt>
      <trkpt lat="45.56387" lon="5.74387">
        <ele>572</ele>
        <time>2019-10-27T10:21:36.000Z</time>
      </trkpt>
      <trkpt lat="45.56388" lon="5.74386">
        <ele>572</ele>
        <time>2019-10-27T10:21:37.000Z</time>
      </trkpt>
      <trkpt lat="45.56388" lon="5.74385">
        <ele>572</ele>
        <time>2019-10-27T10:21:38.000Z</time>
      </trkpt>
      <trkpt lat="45.56388" lon="5.74384">
        <ele>572</ele>
        <time>2019-10-27T10:21:39.000Z</time>
      </trkpt>
      <trkpt lat="45.56389" lon="5.74383">
        <ele>573</ele>
        <time>2019-10-27T10:21:40.000Z</time>
      </trkpt>
      <trkpt lat="45.5639" lon="5.74382">
        <ele>573</ele>
        <time>2019-10-27T10:21:41.000Z</time>
      </trkpt>
      <trkpt lat="45.56391" lon="5.74381">
        <ele>573</ele>
        <time>2019-10-27T10:21:42.000Z</time>
      </trkpt>
      <trkpt lat="45.56392" lon="5.7438">
        <ele>573</ele>
        <time>2019-10-27T10:21:43.000Z</time>
      </trkpt>
      <trkpt lat="45.56393" lon="5.7438">
        <ele>573</ele>
        <time>2019-10-27T10:21:44.000Z</time>
      </trkpt>
      <trkpt lat="45.56394" lon="5.74379">
        <ele>573.5</ele>
        <time>2019-10-27T10:21:45.000Z</time>
      </trkpt>
      <trkpt lat="45.56395" lon="5.74378">
        <ele>574</ele>
        <time>2019-10-27T10:21:46.000Z</time>
      </trkpt>
      <trkpt lat="45.56396" lon="5.74378">
        <ele>574</ele>
        <time>2019-10-27T10:21:47.000Z</time>
      </trkpt>
      <trkpt lat="45.56397" lon="5.74377">
        <ele>574</ele>
        <time>2019-10-27T10:21:48.000Z</time>
      </trkpt>
      <trkpt lat="45.56398" lon="5.74377">
        <ele>574</ele>
        <time>2019-10-27T10:21:49.000Z</time>
      </trkpt>
      <trkpt lat="45.56399" lon="5.74376">
        <ele>574</ele>
        <time>2019-10-27T10:21:50.000Z</time>
      </trkpt>
      <trkpt lat="45.564" lon="5.74376">
        <ele>574.3</ele>
        <time>2019-10-27T10:21:51.000Z</time>
      </trkpt>
      <trkpt lat="45.56401" lon="5.74375">
        <ele>574.7</ele>
        <time>2019-10-27T10:21:52.000Z</time>
      </trkpt>
      <trkpt lat="45.56402" lon="5.74375">
        <ele>575</ele>
        <time>2019-10-27T10:21:53.000Z</time>
      </trkpt>
      <trkpt lat="45.56403" lon="5.74374">
        <ele>575</ele>
        <time>2019-10-27T10:21:54.000Z</time>
      </trkpt>
      <trkpt lat="45.56404" lon="5.74374">
        <ele>575</ele>
        <time>2019-10-27T10:21:55.000Z</time>
      </trkpt>
      <trkpt lat="45.56404" lon="5.74373">
        <ele>575</ele>
        <time>2019-10-27T10:21:56.000Z</time>
      </trkpt>
      <trkpt lat="45.56405" lon="5.74373">
        <ele>575</ele>
        <time>2019-10-27T10:21:57.000Z</time>
      </trkpt>
      <trkpt lat="45.56406" lon="5.74372">
        <ele>576</ele>
        <time>2019-10-27T10:21:58.000Z</time>
      </trkpt>
      <trkpt lat="45.56407" lon="5.74371">
        <ele>576</ele>
        <time>2019-10-27T10:21:59.000Z</time>
      </trkpt>
      <trkpt lat="45.56408" lon="5.74371">
        <ele>576</ele>
        <time>2019-10-27T10:22:00.000Z</time>
      </trkpt>
      <trkpt lat="45.5641" lon="5.7437">
        <ele>576</ele>
        <time>2019-10-27T10:22:01.000Z</time>
      </trkpt>
      <trkpt lat="45.56411" lon="5.7437">
        <ele>576</ele>
        <time>2019-10-27T10:22:02.000Z</time>
      </trkpt>
      <trkpt lat="45.56412" lon="5.7437">
        <ele>576</ele>
        <time>2019-10-27T10:22:03.000Z</time>
      </trkpt>
      <trkpt lat="45.56413" lon="5.74369">
        <ele>576</ele>
        <time>2019-10-27T10:22:04.000Z</time>
      </trkpt>
      <trkpt lat="45.56414" lon="5.74369">
        <ele>576</ele>
        <time>2019-10-27T10:22:05.000Z</time>
      </trkpt>
      <trkpt lat="45.56415" lon="5.74369">
        <ele>576</ele>
        <time>2019-10-27T10:22:06.000Z</time>
      </trkpt>
      <trkpt lat="45.56416" lon="5.74369">
        <ele>576</ele>
        <time>2019-10-27T10:22:07.000Z</time>
      </trkpt>
      <trkpt lat="45.56417" lon="5.74368">
        <ele>576</ele>
        <time>2019-10-27T10:22:08.000Z</time>
      </trkpt>
      <trkpt lat="45.56418" lon="5.74368">
        <ele>576</ele>
        <time>2019-10-27T10:22:09.000Z</time>
      </trkpt>
      <trkpt lat="45.56419" lon="5.74368">
        <ele>576</ele>
        <time>2019-10-27T10:22:10.000Z</time>
      </trkpt>
      <trkpt lat="45.5642" lon="5.74367">
        <ele>576</ele>
        <time>2019-10-27T10:22:11.000Z</time>
      </trkpt>
      <trkpt lat="45.56421" lon="5.74367">
        <ele>576</ele>
        <time>2019-10-27T10:22:12.000Z</time>
      </trkpt>
      <trkpt lat="45.56422" lon="5.74366">
        <ele>576.5</ele>
        <time>2019-10-27T10:22:13.000Z</time>
      </trkpt>
      <trkpt lat="45.56423" lon="5.74366">
        <ele>577</ele>
        <time>2019-10-27T10:22:14.000Z</time>
      </trkpt>
      <trkpt lat="45.56424" lon="5.74366">
        <ele>577</ele>
        <time>2019-10-27T10:22:15.000Z</time>
      </trkpt>
      <trkpt lat="45.56425" lon="5.74365">
        <ele>577</ele>
        <time>2019-10-27T10:22:16.000Z</time>
      </trkpt>
      <trkpt lat="45.56427" lon="5.74365">
        <ele>577</ele>
        <time>2019-10-27T10:22:17.000Z</time>
      </trkpt>
      <trkpt lat="45.56428" lon="5.74365">
        <ele>577</ele>
        <time>2019-10-27T10:22:18.000Z</time>
      </trkpt>
      <trkpt lat="45.56429" lon="5.74364">
        <ele>577</ele>
        <time>2019-10-27T10:22:19.000Z</time>
      </trkpt>
      <trkpt lat="45.5643" lon="5.74364">
        <ele>577</ele>
        <time>2019-10-27T10:22:20.000Z</time>
      </trkpt>
      <trkpt lat="45.56431" lon="5.74364">
        <ele>577</ele>
        <time>2019-10-27T10:22:21.000Z</time>
      </trkpt>
      <trkpt lat="45.56432" lon="5.74364">
        <ele>577</ele>
        <time>2019-10-27T10:22:22.000Z</time>
      </trkpt>
      <trkpt lat="45.56434" lon="5.74364">
        <ele>577</ele>
        <time>2019-10-27T10:22:23.000Z</time>
      </trkpt>
      <trkpt lat="45.56435" lon="5.74363">
        <ele>577</ele>
        <time>2019-10-27T10:22:24.000Z</time>
      </trkpt>
      <trkpt lat="45.56437" lon="5.74363">
        <ele>577</ele>
        <time>2019-10-27T10:22:25.000Z</time>
      </trkpt>
      <trkpt lat="45.56438" lon="5.74362">
        <ele>577</ele>
        <time>2019-10-27T10:22:26.000Z</time>
      </trkpt>
      <trkpt lat="45.56439" lon="5.74361">
        <ele>577</ele>
        <time>2019-10-27T10:22:27.000Z</time>
      </trkpt>
      <trkpt lat="45.56441" lon="5.74361">
        <ele>577</ele>
        <time>2019-10-27T10:22:28.000Z</time>
      </trkpt>
      <trkpt lat="45.56441" lon="5.74361">
        <ele>577</ele>
        <time>2019-10-27T10:22:29.000Z</time>
      </trkpt>
      <trkpt lat="45.56442" lon="5.7436">
        <ele>577</ele>
        <time>2019-10-27T10:22:30.000Z</time>
      </trkpt>
      <trkpt lat="45.56442" lon="5.7436">
        <ele>577.3</ele>
        <time>2019-10-27T10:22:31.000Z</time>
      </trkpt>
      <trkpt lat="45.56443" lon="5.7436">
        <ele>577.7</ele>
        <time>2019-10-27T10:22:32.000Z</time>
      </trkpt>
      <trkpt lat="45.56443" lon="5.7436">
        <ele>578</ele>
        <time>2019-10-27T10:22:33.000Z</time>
      </trkpt>
      <trkpt lat="45.56444" lon="5.7436">
        <ele>578</ele>
        <time>2019-10-27T10:22:34.000Z</time>
      </trkpt>
      <trkpt lat="45.56445" lon="5.7436">
        <ele>578</ele>
        <time>2019-10-27T10:22:35.000Z</time>
      </trkpt>
      <trkpt lat="45.56446" lon="5.7436">
        <ele>578</ele>
        <time>2019-10-27T10:22:36.000Z</time>
      </trkpt>
      <trkpt lat="45.56447" lon="5.7436">
        <ele>578</ele>
        <time>2019-10-27T10:22:37.000Z</time>
      </trkpt>
      <trkpt lat="45.56447" lon="5.74359">
        <ele>578</ele>
        <time>2019-10-27T10:22:38.000Z</time>
      </trkpt>
      <trkpt lat="45.56448" lon="5.74359">
        <ele>578</ele>
        <time>2019-10-27T10:22:39.000Z</time>
      </trkpt>
      <trkpt lat="45.56449" lon="5.74358">
        <ele>578</ele>
        <time>2019-10-27T10:22:40.000Z</time>
      </trkpt>
      <trkpt lat="45.5645" lon="5.74358">
        <ele>578</ele>
        <time>2019-10-27T10:22:41.000Z</time>
      </trkpt>
      <trkpt lat="45.56451" lon="5.74357">
        <ele>578</ele>
        <time>2019-10-27T10:22:42.000Z</time>
      </trkpt>
      <trkpt lat="45.56453" lon="5.74357">
        <ele>578</ele>
        <time>2019-10-27T10:22:43.000Z</time>
      </trkpt>
      <trkpt lat="45.56454" lon="5.74357">
        <ele>578</ele>
        <time>2019-10-27T10:22:44.000Z</time>
      </trkpt>
      <trkpt lat="45.56455" lon="5.74357">
        <ele>578</ele>
        <time>2019-10-27T10:22:45.000Z</time>
      </trkpt>
      <trkpt lat="45.56456" lon="5.74356">
        <ele>578</ele>
        <time>2019-10-27T10:22:46.000Z</time>
      </trkpt>
      <trkpt lat="45.56457" lon="5.74356">
        <ele>578</ele>
        <time>2019-10-27T10:22:47.000Z</time>
      </trkpt>
      <trkpt lat="45.56458" lon="5.74355">
        <ele>578</ele>
        <time>2019-10-27T10:22:48.000Z</time>
      </trkpt>
      <trkpt lat="45.56459" lon="5.74354">
        <ele>578</ele>
        <time>2019-10-27T10:22:49.000Z</time>
      </trkpt>
      <trkpt lat="45.56459" lon="5.74352">
        <ele>578</ele>
        <time>2019-10-27T10:22:50.000Z</time>
      </trkpt>
      <trkpt lat="45.56459" lon="5.74351">
        <ele>578</ele>
        <time>2019-10-27T10:22:51.000Z</time>
      </trkpt>
      <trkpt lat="45.56459" lon="5.7435">
        <ele>578.5</ele>
        <time>2019-10-27T10:22:52.000Z</time>
      </trkpt>
      <trkpt lat="45.56459" lon="5.74348">
        <ele>579</ele>
        <time>2019-10-27T10:22:53.000Z</time>
      </trkpt>
      <trkpt lat="45.56459" lon="5.74346">
        <ele>579</ele>
        <time>2019-10-27T10:22:54.000Z</time>
      </trkpt>
      <trkpt lat="45.56459" lon="5.74345">
        <ele>579</ele>
        <time>2019-10-27T10:22:55.000Z</time>
      </trkpt>
      <trkpt lat="45.56458" lon="5.74343">
        <ele>579</ele>
        <time>2019-10-27T10:22:56.000Z</time>
      </trkpt>
      <trkpt lat="45.56458" lon="5.74342">
        <ele>579</ele>
        <time>2019-10-27T10:22:57.000Z</time>
      </trkpt>
      <trkpt lat="45.56457" lon="5.7434">
        <ele>579</ele>
        <time>2019-10-27T10:22:58.000Z</time>
      </trkpt>
      <trkpt lat="45.56457" lon="5.74339">
        <ele>579</ele>
        <time>2019-10-27T10:22:59.000Z</time>
      </trkpt>
      <trkpt lat="45.56457" lon="5.74338">
        <ele>579</ele>
        <time>2019-10-27T10:23:00.000Z</time>
      </trkpt>
      <trkpt lat="45.56457" lon="5.74336">
        <ele>579</ele>
        <time>2019-10-27T10:23:01.000Z</time>
      </trkpt>
      <trkpt lat="45.56458" lon="5.74335">
        <ele>579</ele>
        <time>2019-10-27T10:23:02.000Z</time>
      </trkpt>
      <trkpt lat="45.56459" lon="5.74333">
        <ele>579.5</ele>
        <time>2019-10-27T10:23:03.000Z</time>
      </trkpt>
      <trkpt lat="45.56459" lon="5.74332">
        <ele>580</ele>
        <time>2019-10-27T10:23:04.000Z</time>
      </trkpt>
      <trkpt lat="45.5646" lon="5.74331">
        <ele>580</ele>
        <time>2019-10-27T10:23:05.000Z</time>
      </trkpt>
      <trkpt lat="45.56461" lon="5.7433">
        <ele>580</ele>
        <time>2019-10-27T10:23:06.000Z</time>
      </trkpt>
      <trkpt lat="45.56462" lon="5.74329">
        <ele>580</ele>
        <time>2019-10-27T10:23:07.000Z</time>
      </trkpt>
      <trkpt lat="45.56463" lon="5.74328">
        <ele>580</ele>
        <time>2019-10-27T10:23:08.000Z</time>
      </trkpt>
      <trkpt lat="45.56464" lon="5.74328">
        <ele>580</ele>
        <time>2019-10-27T10:23:09.000Z</time>
      </trkpt>
      <trkpt lat="45.56465" lon="5.74327">
        <ele>580</ele>
        <time>2019-10-27T10:23:10.000Z</time>
      </trkpt>
      <trkpt lat="45.56466" lon="5.74327">
        <ele>580</ele>
        <time>2019-10-27T10:23:11.000Z</time>
      </trkpt>
      <trkpt lat="45.56468" lon="5.74326">
        <ele>580</ele>
        <time>2019-10-27T10:23:12.000Z</time>
      </trkpt>
      <trkpt lat="45.56469" lon="5.74326">
        <ele>580</ele>
        <time>2019-10-27T10:23:13.000Z</time>
      </trkpt>
      <trkpt lat="45.5647" lon="5.74325">
        <ele>580</ele>
        <time>2019-10-27T10:23:14.000Z</time>
      </trkpt>
      <trkpt lat="45.56471" lon="5.74324">
        <ele>580</ele>
        <time>2019-10-27T10:23:15.000Z</time>
      </trkpt>
      <trkpt lat="45.56472" lon="5.74324">
        <ele>580</ele>
        <time>2019-10-27T10:23:16.000Z</time>
      </trkpt>
      <trkpt lat="45.56472" lon="5.74323">
        <ele>580</ele>
        <time>2019-10-27T10:23:17.000Z</time>
      </trkpt>
      <trkpt lat="45.56473" lon="5.74322">
        <ele>580</ele>
        <time>2019-10-27T10:23:18.000Z</time>
      </trkpt>
      <trkpt lat="45.56474" lon="5.74321">
        <ele>580</ele>
        <time>2019-10-27T10:23:19.000Z</time>
      </trkpt>
      <trkpt lat="45.56474" lon="5.74319">
        <ele>580</ele>
        <time>2019-10-27T10:23:20.000Z</time>
      </trkpt>
      <trkpt lat="45.56475" lon="5.74318">
        <ele>580</ele>
        <time>2019-10-27T10:23:21.000Z</time>
      </trkpt>
      <trkpt lat="45.56475" lon="5.74317">
        <ele>580</ele>
        <time>2019-10-27T10:23:22.000Z</time>
      </trkpt>
      <trkpt lat="45.56475" lon="5.74316">
        <ele>580</ele>
        <time>2019-10-27T10:23:23.000Z</time>
      </trkpt>
      <trkpt lat="45.56475" lon="5.74314">
        <ele>580</ele>
        <time>2019-10-27T10:23:24.000Z</time>
      </trkpt>
      <trkpt lat="45.56475" lon="5.74313">
        <ele>580</ele>
        <time>2019-10-27T10:23:25.000Z</time>
      </trkpt>
      <trkpt lat="45.56475" lon="5.74311">
        <ele>580</ele>
        <time>2019-10-27T10:23:26.000Z</time>
      </trkpt>
      <trkpt lat="45.56475" lon="5.7431">
        <ele>580</ele>
        <time>2019-10-27T10:23:27.000Z</time>
      </trkpt>
      <trkpt lat="45.56475" lon="5.74308">
        <ele>580</ele>
        <time>2019-10-27T10:23:28.000Z</time>
      </trkpt>
      <trkpt lat="45.56475" lon="5.74307">
        <ele>580</ele>
        <time>2019-10-27T10:23:29.000Z</time>
      </trkpt>
      <trkpt lat="45.56475" lon="5.74305">
        <ele>580</ele>
        <time>2019-10-27T10:23:30.000Z</time>
      </trkpt>
      <trkpt lat="45.56475" lon="5.74304">
        <ele>580.5</ele>
        <time>2019-10-27T10:23:31.000Z</time>
      </trkpt>
      <trkpt lat="45.56475" lon="5.74302">
        <ele>581</ele>
        <time>2019-10-27T10:23:32.000Z</time>
      </trkpt>
      <trkpt lat="45.56474" lon="5.74301">
        <ele>581</ele>
        <time>2019-10-27T10:23:33.000Z</time>
      </trkpt>
      <trkpt lat="45.56474" lon="5.743">
        <ele>581</ele>
        <time>2019-10-27T10:23:34.000Z</time>
      </trkpt>
      <trkpt lat="45.56474" lon="5.74298">
        <ele>581</ele>
        <time>2019-10-27T10:23:35.000Z</time>
      </trkpt>
      <trkpt lat="45.56473" lon="5.74297">
        <ele>581</ele>
        <time>2019-10-27T10:23:36.000Z</time>
      </trkpt>
      <trkpt lat="45.56473" lon="5.74296">
        <ele>581</ele>
        <time>2019-10-27T10:23:37.000Z</time>
      </trkpt>
      <trkpt lat="45.56473" lon="5.74294">
        <ele>581</ele>
        <time>2019-10-27T10:23:38.000Z</time>
      </trkpt>
      <trkpt lat="45.56473" lon="5.74293">
        <ele>581</ele>
        <time>2019-10-27T10:23:39.000Z</time>
      </trkpt>
      <trkpt lat="45.56472" lon="5.74292">
        <ele>581</ele>
        <time>2019-10-27T10:23:40.000Z</time>
      </trkpt>
      <trkpt lat="45.56472" lon="5.74291">
        <ele>581</ele>
        <time>2019-10-27T10:23:41.000Z</time>
      </trkpt>
      <trkpt lat="45.56472" lon="5.7429">
        <ele>581</ele>
        <time>2019-10-27T10:23:42.000Z</time>
      </trkpt>
      <trkpt lat="45.56472" lon="5.74288">
        <ele>581</ele>
        <time>2019-10-27T10:23:43.000Z</time>
      </trkpt>
      <trkpt lat="45.56472" lon="5.74287">
        <ele>581</ele>
        <time>2019-10-27T10:23:44.000Z</time>
      </trkpt>
      <trkpt lat="45.56471" lon="5.74286">
        <ele>581</ele>
        <time>2019-10-27T10:23:45.000Z</time>
      </trkpt>
      <trkpt lat="45.56471" lon="5.74285">
        <ele>581</ele>
        <time>2019-10-27T10:23:46.000Z</time>
      </trkpt>
      <trkpt lat="45.56471" lon="5.74284">
        <ele>582</ele>
        <time>2019-10-27T10:23:47.000Z</time>
      </trkpt>
      <trkpt lat="45.56471" lon="5.74283">
        <ele>582</ele>
        <time>2019-10-27T10:23:48.000Z</time>
      </trkpt>
      <trkpt lat="45.56471" lon="5.74281">
        <ele>582</ele>
        <time>2019-10-27T10:23:49.000Z</time>
      </trkpt>
      <trkpt lat="45.56471" lon="5.7428">
        <ele>582</ele>
        <time>2019-10-27T10:23:50.000Z</time>
      </trkpt>
      <trkpt lat="45.56471" lon="5.74279">
        <ele>582</ele>
        <time>2019-10-27T10:23:51.000Z</time>
      </trkpt>
      <trkpt lat="45.56471" lon="5.74278">
        <ele>582</ele>
        <time>2019-10-27T10:23:52.000Z</time>
      </trkpt>
      <trkpt lat="45.56471" lon="5.74277">
        <ele>582</ele>
        <time>2019-10-27T10:23:53.000Z</time>
      </trkpt>
      <trkpt lat="45.56471" lon="5.74276">
        <ele>582</ele>
        <time>2019-10-27T10:23:54.000Z</time>
      </trkpt>
      <trkpt lat="45.5647" lon="5.74274">
        <ele>582</ele>
        <time>2019-10-27T10:23:55.000Z</time>
      </trkpt>
      <trkpt lat="45.5647" lon="5.74273">
        <ele>582</ele>
        <time>2019-10-27T10:23:56.000Z</time>
      </trkpt>
      <trkpt lat="45.5647" lon="5.74271">
        <ele>582</ele>
        <time>2019-10-27T10:23:57.000Z</time>
      </trkpt>
      <trkpt lat="45.56469" lon="5.74269">
        <ele>582</ele>
        <time>2019-10-27T10:23:58.000Z</time>
      </trkpt>
      <trkpt lat="45.56468" lon="5.74268">
        <ele>582</ele>
        <time>2019-10-27T10:23:59.000Z</time>
      </trkpt>
      <trkpt lat="45.56468" lon="5.74267">
        <ele>582</ele>
        <time>2019-10-27T10:24:00.000Z</time>
      </trkpt>
      <trkpt lat="45.56467" lon="5.74266">
        <ele>582</ele>
        <time>2019-10-27T10:24:01.000Z</time>
      </trkpt>
      <trkpt lat="45.56466" lon="5.74264">
        <ele>582</ele>
        <time>2019-10-27T10:24:02.000Z</time>
      </trkpt>
      <trkpt lat="45.56466" lon="5.74263">
        <ele>582</ele>
        <time>2019-10-27T10:24:03.000Z</time>
      </trkpt>
      <trkpt lat="45.56465" lon="5.74262">
        <ele>582</ele>
        <time>2019-10-27T10:24:04.000Z</time>
      </trkpt>
      <trkpt lat="45.56464" lon="5.7426">
        <ele>582</ele>
        <time>2019-10-27T10:24:05.000Z</time>
      </trkpt>
      <trkpt lat="45.56464" lon="5.74258">
        <ele>582</ele>
        <time>2019-10-27T10:24:06.000Z</time>
      </trkpt>
      <trkpt lat="45.56463" lon="5.74256">
        <ele>582</ele>
        <time>2019-10-27T10:24:07.000Z</time>
      </trkpt>
      <trkpt lat="45.56463" lon="5.74254">
        <ele>582</ele>
        <time>2019-10-27T10:24:08.000Z</time>
      </trkpt>
      <trkpt lat="45.56463" lon="5.74252">
        <ele>582</ele>
        <time>2019-10-27T10:24:09.000Z</time>
      </trkpt>
      <trkpt lat="45.56463" lon="5.7425">
        <ele>582</ele>
        <time>2019-10-27T10:24:10.000Z</time>
      </trkpt>
      <trkpt lat="45.56463" lon="5.74249">
        <ele>582</ele>
        <time>2019-10-27T10:24:11.000Z</time>
      </trkpt>
      <trkpt lat="45.56463" lon="5.74248">
        <ele>582</ele>
        <time>2019-10-27T10:24:12.000Z</time>
      </trkpt>
      <trkpt lat="45.56463" lon="5.74246">
        <ele>582</ele>
        <time>2019-10-27T10:24:13.000Z</time>
      </trkpt>
      <trkpt lat="45.56463" lon="5.74245">
        <ele>582</ele>
        <time>2019-10-27T10:24:14.000Z</time>
      </trkpt>
      <trkpt lat="45.56463" lon="5.74244">
        <ele>582</ele>
        <time>2019-10-27T10:24:15.000Z</time>
      </trkpt>
      <trkpt lat="45.56463" lon="5.74243">
        <ele>582</ele>
        <time>2019-10-27T10:24:16.000Z</time>
      </trkpt>
      <trkpt lat="45.56463" lon="5.74242">
        <ele>583</ele>
        <time>2019-10-27T10:24:17.000Z</time>
      </trkpt>
      <trkpt lat="45.56463" lon="5.74241">
        <ele>583</ele>
        <time>2019-10-27T10:24:18.000Z</time>
      </trkpt>
      <trkpt lat="45.56462" lon="5.74239">
        <ele>583</ele>
        <time>2019-10-27T10:24:19.000Z</time>
      </trkpt>
      <trkpt lat="45.56462" lon="5.74238">
        <ele>583</ele>
        <time>2019-10-27T10:24:20.000Z</time>
      </trkpt>
      <trkpt lat="45.56462" lon="5.74236">
        <ele>583</ele>
        <time>2019-10-27T10:24:21.000Z</time>
      </trkpt>
      <trkpt lat="45.56462" lon="5.74234">
        <ele>583</ele>
        <time>2019-10-27T10:24:22.000Z</time>
      </trkpt>
      <trkpt lat="45.56461" lon="5.74232">
        <ele>583</ele>
        <time>2019-10-27T10:24:23.000Z</time>
      </trkpt>
      <trkpt lat="45.56461" lon="5.7423">
        <ele>583</ele>
        <time>2019-10-27T10:24:24.000Z</time>
      </trkpt>
      <trkpt lat="45.56461" lon="5.74228">
        <ele>583</ele>
        <time>2019-10-27T10:24:25.000Z</time>
      </trkpt>
      <trkpt lat="45.5646" lon="5.74227">
        <ele>583</ele>
        <time>2019-10-27T10:24:26.000Z</time>
      </trkpt>
      <trkpt lat="45.5646" lon="5.74226">
        <ele>583</ele>
        <time>2019-10-27T10:24:27.000Z</time>
      </trkpt>
      <trkpt lat="45.5646" lon="5.74224">
        <ele>583</ele>
        <time>2019-10-27T10:24:28.000Z</time>
      </trkpt>
      <trkpt lat="45.5646" lon="5.74223">
        <ele>583</ele>
        <time>2019-10-27T10:24:29.000Z</time>
      </trkpt>
      <trkpt lat="45.5646" lon="5.74222">
        <ele>583</ele>
        <time>2019-10-27T10:24:30.000Z</time>
      </trkpt>
      <trkpt lat="45.5646" lon="5.7422">
        <ele>583</ele>
        <time>2019-10-27T10:24:31.000Z</time>
      </trkpt>
      <trkpt lat="45.5646" lon="5.74219">
        <ele>583</ele>
        <time>2019-10-27T10:24:32.000Z</time>
      </trkpt>
      <trkpt lat="45.5646" lon="5.74218">
        <ele>583</ele>
        <time>2019-10-27T10:24:33.000Z</time>
      </trkpt>
      <trkpt lat="45.56459" lon="5.74216">
        <ele>583</ele>
        <time>2019-10-27T10:24:34.000Z</time>
      </trkpt>
      <trkpt lat="45.56459" lon="5.74214">
        <ele>583</ele>
        <time>2019-10-27T10:24:35.000Z</time>
      </trkpt>
      <trkpt lat="45.56459" lon="5.74213">
        <ele>583</ele>
        <time>2019-10-27T10:24:36.000Z</time>
      </trkpt>
      <trkpt lat="45.56459" lon="5.74211">
        <ele>583</ele>
        <time>2019-10-27T10:24:37.000Z</time>
      </trkpt>
      <trkpt lat="45.56458" lon="5.7421">
        <ele>583</ele>
        <time>2019-10-27T10:24:38.000Z</time>
      </trkpt>
      <trkpt lat="45.56458" lon="5.74208">
        <ele>583</ele>
        <time>2019-10-27T10:24:39.000Z</time>
      </trkpt>
      <trkpt lat="45.56458" lon="5.74206">
        <ele>583</ele>
        <time>2019-10-27T10:24:40.000Z</time>
      </trkpt>
      <trkpt lat="45.56457" lon="5.74205">
        <ele>583</ele>
        <time>2019-10-27T10:24:41.000Z</time>
      </trkpt>
      <trkpt lat="45.56457" lon="5.74203">
        <ele>583</ele>
        <time>2019-10-27T10:24:42.000Z</time>
      </trkpt>
      <trkpt lat="45.56457" lon="5.74201">
        <ele>583</ele>
        <time>2019-10-27T10:24:43.000Z</time>
      </trkpt>
      <trkpt lat="45.56456" lon="5.74199">
        <ele>583</ele>
        <time>2019-10-27T10:24:44.000Z</time>
      </trkpt>
      <trkpt lat="45.56456" lon="5.74197">
        <ele>583</ele>
        <time>2019-10-27T10:24:45.000Z</time>
      </trkpt>
      <trkpt lat="45.56456" lon="5.74196">
        <ele>583</ele>
        <time>2019-10-27T10:24:46.000Z</time>
      </trkpt>
      <trkpt lat="45.56456" lon="5.74194">
        <ele>583</ele>
        <time>2019-10-27T10:24:47.000Z</time>
      </trkpt>
      <trkpt lat="45.56455" lon="5.74192">
        <ele>583</ele>
        <time>2019-10-27T10:24:48.000Z</time>
      </trkpt>
      <trkpt lat="45.56455" lon="5.74191">
        <ele>583</ele>
        <time>2019-10-27T10:24:49.000Z</time>
      </trkpt>
      <trkpt lat="45.56455" lon="5.74189">
        <ele>583.3</ele>
        <time>2019-10-27T10:24:50.000Z</time>
      </trkpt>
      <trkpt lat="45.56455" lon="5.74188">
        <ele>583.7</ele>
        <time>2019-10-27T10:24:51.000Z</time>
      </trkpt>
      <trkpt lat="45.56454" lon="5.74187">
        <ele>584</ele>
        <time>2019-10-27T10:24:52.000Z</time>
      </trkpt>
      <trkpt lat="45.56454" lon="5.74186">
        <ele>584</ele>
        <time>2019-10-27T10:24:53.000Z</time>
      </trkpt>
      <trkpt lat="45.56454" lon="5.74185">
        <ele>584</ele>
        <time>2019-10-27T10:24:54.000Z</time>
      </trkpt>
      <trkpt lat="45.56454" lon="5.74184">
        <ele>584</ele>
        <time>2019-10-27T10:24:55.000Z</time>
      </trkpt>
      <trkpt lat="45.56453" lon="5.74182">
        <ele>584</ele>
        <time>2019-10-27T10:24:56.000Z</time>
      </trkpt>
      <trkpt lat="45.56453" lon="5.74181">
        <ele>584</ele>
        <time>2019-10-27T10:24:57.000Z</time>
      </trkpt>
      <trkpt lat="45.56453" lon="5.7418">
        <ele>584</ele>
        <time>2019-10-27T10:24:58.000Z</time>
      </trkpt>
      <trkpt lat="45.56453" lon="5.74178">
        <ele>584</ele>
        <time>2019-10-27T10:24:59.000Z</time>
      </trkpt>
      <trkpt lat="45.56452" lon="5.74177">
        <ele>584</ele>
        <time>2019-10-27T10:25:00.000Z</time>
      </trkpt>
      <trkpt lat="45.56452" lon="5.74176">
        <ele>584</ele>
        <time>2019-10-27T10:25:01.000Z</time>
      </trkpt>
      <trkpt lat="45.56452" lon="5.74176">
        <ele>584</ele>
        <time>2019-10-27T10:25:02.000Z</time>
      </trkpt>
      <trkpt lat="45.56452" lon="5.74176">
        <ele>585</ele>
        <time>2019-10-27T10:25:03.000Z</time>
      </trkpt>
      <trkpt lat="45.56452" lon="5.74175">
        <ele>585</ele>
        <time>2019-10-27T10:25:04.000Z</time>
      </trkpt>
      <trkpt lat="45.56452" lon="5.74174">
        <ele>585</ele>
        <time>2019-10-27T10:25:05.000Z</time>
      </trkpt>
      <trkpt lat="45.56452" lon="5.74173">
        <ele>585</ele>
        <time>2019-10-27T10:25:06.000Z</time>
      </trkpt>
      <trkpt lat="45.56451" lon="5.74172">
        <ele>585</ele>
        <time>2019-10-27T10:25:07.000Z</time>
      </trkpt>
      <trkpt lat="45.56451" lon="5.74171">
        <ele>585</ele>
        <time>2019-10-27T10:25:08.000Z</time>
      </trkpt>
      <trkpt lat="45.56451" lon="5.74171">
        <ele>585</ele>
        <time>2019-10-27T10:25:09.000Z</time>
      </trkpt>
      <trkpt lat="45.56451" lon="5.7417">
        <ele>585</ele>
        <time>2019-10-27T10:25:10.000Z</time>
      </trkpt>
      <trkpt lat="45.56451" lon="5.7417">
        <ele>585</ele>
        <time>2019-10-27T10:25:11.000Z</time>
      </trkpt>
      <trkpt lat="45.56451" lon="5.7417">
        <ele>585</ele>
        <time>2019-10-27T10:25:12.000Z</time>
      </trkpt>
      <trkpt lat="45.56451" lon="5.7417">
        <ele>585</ele>
        <time>2019-10-27T10:25:13.000Z</time>
      </trkpt>
      <trkpt lat="45.56451" lon="5.7417">
        <ele>585</ele>
        <time>2019-10-27T10:25:14.000Z</time>
      </trkpt>
      <trkpt lat="45.56451" lon="5.74169">
        <ele>585</ele>
        <time>2019-10-27T10:25:15.000Z</time>
      </trkpt>
      <trkpt lat="45.56451" lon="5.74169">
        <ele>585</ele>
        <time>2019-10-27T10:25:16.000Z</time>
      </trkpt>
      <trkpt lat="45.56451" lon="5.74169">
        <ele>585</ele>
        <time>2019-10-27T10:25:17.000Z</time>
      </trkpt>
      <trkpt lat="45.56451" lon="5.74169">
        <ele>585</ele>
        <time>2019-10-27T10:25:18.000Z</time>
      </trkpt>
      <trkpt lat="45.56451" lon="5.74169">
        <ele>585</ele>
        <time>2019-10-27T10:25:19.000Z</time>
      </trkpt>
      <trkpt lat="45.56451" lon="5.74169">
        <ele>585</ele>
        <time>2019-10-27T10:25:20.000Z</time>
      </trkpt>
      <trkpt lat="45.56451" lon="5.74169">
        <ele>585</ele>
        <time>2019-10-27T10:25:21.000Z</time>
      </trkpt>
      <trkpt lat="45.56451" lon="5.74169">
        <ele>585.3</ele>
        <time>2019-10-27T10:25:22.000Z</time>
      </trkpt>
      <trkpt lat="45.56451" lon="5.74169">
        <ele>585.7</ele>
        <time>2019-10-27T10:25:23.000Z</time>
      </trkpt>
      <trkpt lat="45.56451" lon="5.74169">
        <ele>586</ele>
        <time>2019-10-27T10:25:24.000Z</time>
      </trkpt>
      <trkpt lat="45.56451" lon="5.74169">
        <ele>586</ele>
        <time>2019-10-27T10:25:25.000Z</time>
      </trkpt>
      <trkpt lat="45.56451" lon="5.74169">
        <ele>585.5</ele>
        <time>2019-10-27T10:25:26.000Z</time>
      </trkpt>
      <trkpt lat="45.56451" lon="5.74169">
        <ele>585</ele>
        <time>2019-10-27T10:25:27.000Z</time>
      </trkpt>
      <trkpt lat="45.56451" lon="5.74169">
        <ele>585</ele>
        <time>2019-10-27T10:25:28.000Z</time>
      </trkpt>
      <trkpt lat="45.56451" lon="5.74169">
        <ele>585</ele>
        <time>2019-10-27T10:25:29.000Z</time>
      </trkpt>
      <trkpt lat="45.56451" lon="5.74169">
        <ele>585</ele>
        <time>2019-10-27T10:25:30.000Z</time>
      </trkpt>
      <trkpt lat="45.56451" lon="5.74169">
        <ele>585</ele>
        <time>2019-10-27T10:25:31.000Z</time>
      </trkpt>
      <trkpt lat="45.56451" lon="5.74169">
        <ele>585</ele>
        <time>2019-10-27T10:25:32.000Z</time>
      </trkpt>
      <trkpt lat="45.56451" lon="5.74169">
        <ele>585</ele>
        <time>2019-10-27T10:25:33.000Z</time>
      </trkpt>
      <trkpt lat="45.56451" lon="5.74169">
        <ele>585</ele>
        <time>2019-10-27T10:25:34.000Z</time>
      </trkpt>
      <trkpt lat="45.56451" lon="5.74169">
        <ele>585</ele>
        <time>2019-10-27T10:25:35.000Z</time>
      </trkpt>
      <trkpt lat="45.56451" lon="5.74169">
        <ele>585</ele>
        <time>2019-10-27T10:25:36.000Z</time>
      </trkpt>
      <trkpt lat="45.56451" lon="5.74169">
        <ele>585</ele>
        <time>2019-10-27T10:25:37.000Z</time>
      </trkpt>
      <trkpt lat="45.56451" lon="5.74169">
        <ele>585</ele>
        <time>2019-10-27T10:25:38.000Z</time>
      </trkpt>
      <trkpt lat="45.56451" lon="5.74169">
        <ele>585</ele>
        <time>2019-10-27T10:25:39.000Z</time>
      </trkpt>
      <trkpt lat="45.56451" lon="5.74169">
        <ele>585</ele>
        <time>2019-10-27T10:25:40.000Z</time>
      </trkpt>
      <trkpt lat="45.56451" lon="5.74169">
        <ele>585</ele>
        <time>2019-10-27T10:25:41.000Z</time>
      </trkpt>
      <trkpt lat="45.56451" lon="5.74169">
        <ele>585</ele>
        <time>2019-10-27T10:25:42.000Z</time>
      </trkpt>
      <trkpt lat="45.56451" lon="5.74169">
        <ele>585</ele>
        <time>2019-10-27T10:25:43.000Z</time>
      </trkpt>
      <trkpt lat="45.56451" lon="5.74169">
        <ele>585</ele>
        <time>2019-10-27T10:25:44.000Z</time>
      </trkpt>
      <trkpt lat="45.56451" lon="5.74169">
        <ele>585</ele>
        <time>2019-10-27T10:25:45.000Z</time>
      </trkpt>
      <trkpt lat="45.56451" lon="5.74169">
        <ele>585</ele>
        <time>2019-10-27T10:25:46.000Z</time>
      </trkpt>
      <trkpt lat="45.56451" lon="5.74169">
        <ele>585</ele>
        <time>2019-10-27T10:25:47.000Z</time>
      </trkpt>
      <trkpt lat="45.56451" lon="5.74169">
        <ele>585</ele>
        <time>2019-10-27T10:25:48.000Z</time>
      </trkpt>
      <trkpt lat="45.56451" lon="5.74169">
        <ele>585</ele>
        <time>2019-10-27T10:25:49.000Z</time>
      </trkpt>
      <trkpt lat="45.56451" lon="5.74169">
        <ele>585</ele>
        <time>2019-10-27T10:25:50.000Z</time>
      </trkpt>
      <trkpt lat="45.56451" lon="5.74169">
        <ele>585</ele>
        <time>2019-10-27T10:25:51.000Z</time>
      </trkpt>
      <trkpt lat="45.56451" lon="5.74168">
        <ele>585</ele>
        <time>2019-10-27T10:25:52.000Z</time>
      </trkpt>
      <trkpt lat="45.56451" lon="5.74168">
        <ele>585</ele>
        <time>2019-10-27T10:25:53.000Z</time>
      </trkpt>
      <trkpt lat="45.5645" lon="5.74166">
        <ele>585.3</ele>
        <time>2019-10-27T10:25:54.000Z</time>
      </trkpt>
      <trkpt lat="45.5645" lon="5.74165">
        <ele>585.7</ele>
        <time>2019-10-27T10:25:55.000Z</time>
      </trkpt>
      <trkpt lat="45.5645" lon="5.74163">
        <ele>586</ele>
        <time>2019-10-27T10:25:56.000Z</time>
      </trkpt>
      <trkpt lat="45.5645" lon="5.74161">
        <ele>586</ele>
        <time>2019-10-27T10:25:57.000Z</time>
      </trkpt>
      <trkpt lat="45.5645" lon="5.74159">
        <ele>586</ele>
        <time>2019-10-27T10:25:58.000Z</time>
      </trkpt>
      <trkpt lat="45.5645" lon="5.74157">
        <ele>586</ele>
        <time>2019-10-27T10:25:59.000Z</time>
      </trkpt>
      <trkpt lat="45.56449" lon="5.74156">
        <ele>586</ele>
        <time>2019-10-27T10:26:00.000Z</time>
      </trkpt>
      <trkpt lat="45.56449" lon="5.74154">
        <ele>586</ele>
        <time>2019-10-27T10:26:01.000Z</time>
      </trkpt>
      <trkpt lat="45.56448" lon="5.74152">
        <ele>586.5</ele>
        <time>2019-10-27T10:26:02.000Z</time>
      </trkpt>
      <trkpt lat="45.56448" lon="5.74151">
        <ele>587</ele>
        <time>2019-10-27T10:26:03.000Z</time>
      </trkpt>
      <trkpt lat="45.56448" lon="5.7415">
        <ele>587</ele>
        <time>2019-10-27T10:26:04.000Z</time>
      </trkpt>
      <trkpt lat="45.56447" lon="5.74148">
        <ele>587</ele>
        <time>2019-10-27T10:26:05.000Z</time>
      </trkpt>
      <trkpt lat="45.56447" lon="5.74147">
        <ele>587</ele>
        <time>2019-10-27T10:26:06.000Z</time>
      </trkpt>
      <trkpt lat="45.56446" lon="5.74146">
        <ele>587</ele>
        <time>2019-10-27T10:26:07.000Z</time>
      </trkpt>
      <trkpt lat="45.56446" lon="5.74145">
        <ele>587.5</ele>
        <time>2019-10-27T10:26:08.000Z</time>
      </trkpt>
      <trkpt lat="45.56446" lon="5.74144">
        <ele>588</ele>
        <time>2019-10-27T10:26:09.000Z</time>
      </trkpt>
      <trkpt lat="45.56446" lon="5.74143">
        <ele>588</ele>
        <time>2019-10-27T10:26:10.000Z</time>
      </trkpt>
      <trkpt lat="45.56446" lon="5.74142">
        <ele>588</ele>
        <time>2019-10-27T10:26:11.000Z</time>
      </trkpt>
      <trkpt lat="45.56445" lon="5.74141">
        <ele>588</ele>
        <time>2019-10-27T10:26:12.000Z</time>
      </trkpt>
      <trkpt lat="45.56445" lon="5.74139">
        <ele>588</ele>
        <time>2019-10-27T10:26:13.000Z</time>
      </trkpt>
      <trkpt lat="45.56445" lon="5.74137">
        <ele>588</ele>
        <time>2019-10-27T10:26:14.000Z</time>
      </trkpt>
      <trkpt lat="45.56445" lon="5.74135">
        <ele>589</ele>
        <time>2019-10-27T10:26:15.000Z</time>
      </trkpt>
      <trkpt lat="45.56445" lon="5.74134">
        <ele>589</ele>
        <time>2019-10-27T10:26:16.000Z</time>
      </trkpt>
      <trkpt lat="45.56444" lon="5.74132">
        <ele>589</ele>
        <time>2019-10-27T10:26:17.000Z</time>
      </trkpt>
      <trkpt lat="45.56444" lon="5.74131">
        <ele>589</ele>
        <time>2019-10-27T10:26:18.000Z</time>
      </trkpt>
      <trkpt lat="45.56444" lon="5.74131">
        <ele>589</ele>
        <time>2019-10-27T10:26:19.000Z</time>
      </trkpt>
      <trkpt lat="45.56444" lon="5.7413">
        <ele>589.3</ele>
        <time>2019-10-27T10:26:20.000Z</time>
      </trkpt>
      <trkpt lat="45.56444" lon="5.7413">
        <ele>589.7</ele>
        <time>2019-10-27T10:26:21.000Z</time>
      </trkpt>
      <trkpt lat="45.56444" lon="5.7413">
        <ele>590</ele>
        <time>2019-10-27T10:26:22.000Z</time>
      </trkpt>
      <trkpt lat="45.56444" lon="5.7413">
        <ele>590</ele>
        <time>2019-10-27T10:26:23.000Z</time>
      </trkpt>
      <trkpt lat="45.56444" lon="5.7413">
        <ele>590</ele>
        <time>2019-10-27T10:26:24.000Z</time>
      </trkpt>
      <trkpt lat="45.56444" lon="5.7413">
        <ele>590</ele>
        <time>2019-10-27T10:26:25.000Z</time>
      </trkpt>
      <trkpt lat="45.56444" lon="5.7413">
        <ele>590</ele>
        <time>2019-10-27T10:26:26.000Z</time>
      </trkpt>
      <trkpt lat="45.56444" lon="5.7413">
        <ele>590</ele>
        <time>2019-10-27T10:26:27.000Z</time>
      </trkpt>
      <trkpt lat="45.56444" lon="5.74129">
        <ele>590</ele>
        <time>2019-10-27T10:26:28.000Z</time>
      </trkpt>
      <trkpt lat="45.56444" lon="5.74129">
        <ele>590</ele>
        <time>2019-10-27T10:26:29.000Z</time>
      </trkpt>
      <trkpt lat="45.56444" lon="5.74129">
        <ele>590</ele>
        <time>2019-10-27T10:26:30.000Z</time>
      </trkpt>
      <trkpt lat="45.56444" lon="5.74128">
        <ele>590</ele>
        <time>2019-10-27T10:26:31.000Z</time>
      </trkpt>
      <trkpt lat="45.56444" lon="5.74128">
        <ele>590</ele>
        <time>2019-10-27T10:26:32.000Z</time>
      </trkpt>
      <trkpt lat="45.56444" lon="5.74127">
        <ele>590</ele>
        <time>2019-10-27T10:26:33.000Z</time>
      </trkpt>
      <trkpt lat="45.56443" lon="5.74125">
        <ele>590.3</ele>
        <time>2019-10-27T10:26:34.000Z</time>
      </trkpt>
      <trkpt lat="45.56443" lon="5.74124">
        <ele>590.7</ele>
        <time>2019-10-27T10:26:35.000Z</time>
      </trkpt>
      <trkpt lat="45.56443" lon="5.74122">
        <ele>591</ele>
        <time>2019-10-27T10:26:36.000Z</time>
      </trkpt>
      <trkpt lat="45.56443" lon="5.74121">
        <ele>591</ele>
        <time>2019-10-27T10:26:37.000Z</time>
      </trkpt>
      <trkpt lat="45.56442" lon="5.74119">
        <ele>591</ele>
        <time>2019-10-27T10:26:38.000Z</time>
      </trkpt>
      <trkpt lat="45.56442" lon="5.74118">
        <ele>591</ele>
        <time>2019-10-27T10:26:39.000Z</time>
      </trkpt>
      <trkpt lat="45.56441" lon="5.74116">
        <ele>591</ele>
        <time>2019-10-27T10:26:40.000Z</time>
      </trkpt>
      <trkpt lat="45.56441" lon="5.74114">
        <ele>592</ele>
        <time>2019-10-27T10:26:41.000Z</time>
      </trkpt>
      <trkpt lat="45.56441" lon="5.74112">
        <ele>592</ele>
        <time>2019-10-27T10:26:42.000Z</time>
      </trkpt>
      <trkpt lat="45.56441" lon="5.74111">
        <ele>592</ele>
        <time>2019-10-27T10:26:43.000Z</time>
      </trkpt>
      <trkpt lat="45.56441" lon="5.74109">
        <ele>592</ele>
        <time>2019-10-27T10:26:44.000Z</time>
      </trkpt>
      <trkpt lat="45.56441" lon="5.74107">
        <ele>593</ele>
        <time>2019-10-27T10:26:45.000Z</time>
      </trkpt>
      <trkpt lat="45.56442" lon="5.74106">
        <ele>593</ele>
        <time>2019-10-27T10:26:46.000Z</time>
      </trkpt>
      <trkpt lat="45.56442" lon="5.74105">
        <ele>593</ele>
        <time>2019-10-27T10:26:47.000Z</time>
      </trkpt>
      <trkpt lat="45.56442" lon="5.74103">
        <ele>593</ele>
        <time>2019-10-27T10:26:48.000Z</time>
      </trkpt>
      <trkpt lat="45.56442" lon="5.74102">
        <ele>593</ele>
        <time>2019-10-27T10:26:49.000Z</time>
      </trkpt>
      <trkpt lat="45.56442" lon="5.74101">
        <ele>593.3</ele>
        <time>2019-10-27T10:26:50.000Z</time>
      </trkpt>
      <trkpt lat="45.56442" lon="5.741">
        <ele>593.7</ele>
        <time>2019-10-27T10:26:51.000Z</time>
      </trkpt>
      <trkpt lat="45.56442" lon="5.74099">
        <ele>594</ele>
        <time>2019-10-27T10:26:52.000Z</time>
      </trkpt>
      <trkpt lat="45.56442" lon="5.74098">
        <ele>594</ele>
        <time>2019-10-27T10:26:53.000Z</time>
      </trkpt>
      <trkpt lat="45.56442" lon="5.74098">
        <ele>594.3</ele>
        <time>2019-10-27T10:26:54.000Z</time>
      </trkpt>
      <trkpt lat="45.56442" lon="5.74097">
        <ele>594.7</ele>
        <time>2019-10-27T10:26:55.000Z</time>
      </trkpt>
      <trkpt lat="45.56441" lon="5.74096">
        <ele>595</ele>
        <time>2019-10-27T10:26:56.000Z</time>
      </trkpt>
      <trkpt lat="45.56441" lon="5.74096">
        <ele>595</ele>
        <time>2019-10-27T10:26:57.000Z</time>
      </trkpt>
      <trkpt lat="45.56441" lon="5.74095">
        <ele>595</ele>
        <time>2019-10-27T10:26:58.000Z</time>
      </trkpt>
      <trkpt lat="45.5644" lon="5.74095">
        <ele>595</ele>
        <time>2019-10-27T10:26:59.000Z</time>
      </trkpt>
      <trkpt lat="45.5644" lon="5.74094">
        <ele>595</ele>
        <time>2019-10-27T10:27:00.000Z</time>
      </trkpt>
      <trkpt lat="45.56439" lon="5.74094">
        <ele>595</ele>
        <time>2019-10-27T10:27:01.000Z</time>
      </trkpt>
      <trkpt lat="45.56439" lon="5.74093">
        <ele>595</ele>
        <time>2019-10-27T10:27:02.000Z</time>
      </trkpt>
      <trkpt lat="45.56438" lon="5.74092">
        <ele>595</ele>
        <time>2019-10-27T10:27:03.000Z</time>
      </trkpt>
      <trkpt lat="45.56438" lon="5.74091">
        <ele>595</ele>
        <time>2019-10-27T10:27:04.000Z</time>
      </trkpt>
      <trkpt lat="45.56438" lon="5.7409">
        <ele>595</ele>
        <time>2019-10-27T10:27:05.000Z</time>
      </trkpt>
      <trkpt lat="45.56437" lon="5.74089">
        <ele>595.3</ele>
        <time>2019-10-27T10:27:06.000Z</time>
      </trkpt>
      <trkpt lat="45.56437" lon="5.74088">
        <ele>595.7</ele>
        <time>2019-10-27T10:27:07.000Z</time>
      </trkpt>
      <trkpt lat="45.56437" lon="5.74087">
        <ele>596</ele>
        <time>2019-10-27T10:27:08.000Z</time>
      </trkpt>
      <trkpt lat="45.56437" lon="5.74085">
        <ele>596</ele>
        <time>2019-10-27T10:27:09.000Z</time>
      </trkpt>
      <trkpt lat="45.56437" lon="5.74083">
        <ele>596.5</ele>
        <time>2019-10-27T10:27:10.000Z</time>
      </trkpt>
      <trkpt lat="45.56437" lon="5.74082">
        <ele>597</ele>
        <time>2019-10-27T10:27:11.000Z</time>
      </trkpt>
      <trkpt lat="45.56437" lon="5.7408">
        <ele>597</ele>
        <time>2019-10-27T10:27:12.000Z</time>
      </trkpt>
      <trkpt lat="45.56437" lon="5.74078">
        <ele>597</ele>
        <time>2019-10-27T10:27:13.000Z</time>
      </trkpt>
      <trkpt lat="45.56437" lon="5.74076">
        <ele>597</ele>
        <time>2019-10-27T10:27:14.000Z</time>
      </trkpt>
      <trkpt lat="45.56437" lon="5.74074">
        <ele>597</ele>
        <time>2019-10-27T10:27:15.000Z</time>
      </trkpt>
      <trkpt lat="45.56437" lon="5.74072">
        <ele>597</ele>
        <time>2019-10-27T10:27:16.000Z</time>
      </trkpt>
      <trkpt lat="45.56436" lon="5.7407">
        <ele>598</ele>
        <time>2019-10-27T10:27:17.000Z</time>
      </trkpt>
      <trkpt lat="45.56436" lon="5.74069">
        <ele>598</ele>
        <time>2019-10-27T10:27:18.000Z</time>
      </trkpt>
      <trkpt lat="45.56436" lon="5.74067">
        <ele>598</ele>
        <time>2019-10-27T10:27:19.000Z</time>
      </trkpt>
      <trkpt lat="45.56436" lon="5.74066">
        <ele>598</ele>
        <time>2019-10-27T10:27:20.000Z</time>
      </trkpt>
      <trkpt lat="45.56436" lon="5.74065">
        <ele>599</ele>
        <time>2019-10-27T10:27:21.000Z</time>
      </trkpt>
      <trkpt lat="45.56435" lon="5.74064">
        <ele>599</ele>
        <time>2019-10-27T10:27:22.000Z</time>
      </trkpt>
      <trkpt lat="45.56435" lon="5.74062">
        <ele>599</ele>
        <time>2019-10-27T10:27:23.000Z</time>
      </trkpt>
      <trkpt lat="45.56435" lon="5.74061">
        <ele>599</ele>
        <time>2019-10-27T10:27:24.000Z</time>
      </trkpt>
      <trkpt lat="45.56434" lon="5.7406">
        <ele>599</ele>
        <time>2019-10-27T10:27:25.000Z</time>
      </trkpt>
      <trkpt lat="45.56434" lon="5.74058">
        <ele>599</ele>
        <time>2019-10-27T10:27:26.000Z</time>
      </trkpt>
      <trkpt lat="45.56434" lon="5.74057">
        <ele>600</ele>
        <time>2019-10-27T10:27:27.000Z</time>
      </trkpt>
      <trkpt lat="45.56434" lon="5.74055">
        <ele>600</ele>
        <time>2019-10-27T10:27:28.000Z</time>
      </trkpt>
      <trkpt lat="45.56434" lon="5.74054">
        <ele>600</ele>
        <time>2019-10-27T10:27:29.000Z</time>
      </trkpt>
      <trkpt lat="45.56433" lon="5.74052">
        <ele>600</ele>
        <time>2019-10-27T10:27:30.000Z</time>
      </trkpt>
      <trkpt lat="45.56433" lon="5.74051">
        <ele>600</ele>
        <time>2019-10-27T10:27:31.000Z</time>
      </trkpt>
      <trkpt lat="45.56433" lon="5.74049">
        <ele>600</ele>
        <time>2019-10-27T10:27:32.000Z</time>
      </trkpt>
      <trkpt lat="45.56433" lon="5.74048">
        <ele>600</ele>
        <time>2019-10-27T10:27:33.000Z</time>
      </trkpt>
      <trkpt lat="45.56434" lon="5.74047">
        <ele>600.3</ele>
        <time>2019-10-27T10:27:34.000Z</time>
      </trkpt>
      <trkpt lat="45.56434" lon="5.74046">
        <ele>600.7</ele>
        <time>2019-10-27T10:27:35.000Z</time>
      </trkpt>
      <trkpt lat="45.56434" lon="5.74045">
        <ele>601</ele>
        <time>2019-10-27T10:27:36.000Z</time>
      </trkpt>
      <trkpt lat="45.56434" lon="5.74044">
        <ele>601</ele>
        <time>2019-10-27T10:27:37.000Z</time>
      </trkpt>
      <trkpt lat="45.56435" lon="5.74043">
        <ele>601</ele>
        <time>2019-10-27T10:27:38.000Z</time>
      </trkpt>
      <trkpt lat="45.56435" lon="5.74042">
        <ele>601</ele>
        <time>2019-10-27T10:27:39.000Z</time>
      </trkpt>
      <trkpt lat="45.56435" lon="5.74041">
        <ele>601.3</ele>
        <time>2019-10-27T10:27:40.000Z</time>
      </trkpt>
      <trkpt lat="45.56435" lon="5.7404">
        <ele>601.7</ele>
        <time>2019-10-27T10:27:41.000Z</time>
      </trkpt>
      <trkpt lat="45.56435" lon="5.74038">
        <ele>602</ele>
        <time>2019-10-27T10:27:42.000Z</time>
      </trkpt>
      <trkpt lat="45.56435" lon="5.74037">
        <ele>602</ele>
        <time>2019-10-27T10:27:43.000Z</time>
      </trkpt>
      <trkpt lat="45.56435" lon="5.74035">
        <ele>602</ele>
        <time>2019-10-27T10:27:44.000Z</time>
      </trkpt>
      <trkpt lat="45.56435" lon="5.74033">
        <ele>602</ele>
        <time>2019-10-27T10:27:45.000Z</time>
      </trkpt>
      <trkpt lat="45.56435" lon="5.74031">
        <ele>602</ele>
        <time>2019-10-27T10:27:46.000Z</time>
      </trkpt>
      <trkpt lat="45.56435" lon="5.74029">
        <ele>602</ele>
        <time>2019-10-27T10:27:47.000Z</time>
      </trkpt>
      <trkpt lat="45.56435" lon="5.74027">
        <ele>602</ele>
        <time>2019-10-27T10:27:48.000Z</time>
      </trkpt>
      <trkpt lat="45.56436" lon="5.74026">
        <ele>603</ele>
        <time>2019-10-27T10:27:49.000Z</time>
      </trkpt>
      <trkpt lat="45.56436" lon="5.74024">
        <ele>603</ele>
        <time>2019-10-27T10:27:50.000Z</time>
      </trkpt>
      <trkpt lat="45.56436" lon="5.74022">
        <ele>603</ele>
        <time>2019-10-27T10:27:51.000Z</time>
      </trkpt>
      <trkpt lat="45.56437" lon="5.74021">
        <ele>603</ele>
        <time>2019-10-27T10:27:52.000Z</time>
      </trkpt>
      <trkpt lat="45.56437" lon="5.74019">
        <ele>603.5</ele>
        <time>2019-10-27T10:27:53.000Z</time>
      </trkpt>
      <trkpt lat="45.56438" lon="5.74018">
        <ele>604</ele>
        <time>2019-10-27T10:27:54.000Z</time>
      </trkpt>
      <trkpt lat="45.56438" lon="5.74017">
        <ele>604</ele>
        <time>2019-10-27T10:27:55.000Z</time>
      </trkpt>
      <trkpt lat="45.56438" lon="5.74015">
        <ele>604</ele>
        <time>2019-10-27T10:27:56.000Z</time>
      </trkpt>
      <trkpt lat="45.56439" lon="5.74014">
        <ele>604</ele>
        <time>2019-10-27T10:27:57.000Z</time>
      </trkpt>
      <trkpt lat="45.56439" lon="5.74012">
        <ele>604</ele>
        <time>2019-10-27T10:27:58.000Z</time>
      </trkpt>
      <trkpt lat="45.56439" lon="5.74011">
        <ele>604.5</ele>
        <time>2019-10-27T10:27:59.000Z</time>
      </trkpt>
      <trkpt lat="45.56439" lon="5.7401">
        <ele>605</ele>
        <time>2019-10-27T10:28:00.000Z</time>
      </trkpt>
      <trkpt lat="45.56439" lon="5.7401">
        <ele>605</ele>
        <time>2019-10-27T10:28:01.000Z</time>
      </trkpt>
      <trkpt lat="45.56439" lon="5.74009">
        <ele>605</ele>
        <time>2019-10-27T10:28:02.000Z</time>
      </trkpt>
      <trkpt lat="45.56439" lon="5.74009">
        <ele>605</ele>
        <time>2019-10-27T10:28:03.000Z</time>
      </trkpt>
      <trkpt lat="45.56439" lon="5.74009">
        <ele>605</ele>
        <time>2019-10-27T10:28:04.000Z</time>
      </trkpt>
      <trkpt lat="45.56439" lon="5.74009">
        <ele>605</ele>
        <time>2019-10-27T10:28:05.000Z</time>
      </trkpt>
      <trkpt lat="45.56439" lon="5.74009">
        <ele>605</ele>
        <time>2019-10-27T10:28:06.000Z</time>
      </trkpt>
      <trkpt lat="45.56439" lon="5.74009">
        <ele>605</ele>
        <time>2019-10-27T10:28:07.000Z</time>
      </trkpt>
      <trkpt lat="45.56439" lon="5.74008">
        <ele>605</ele>
        <time>2019-10-27T10:28:08.000Z</time>
      </trkpt>
      <trkpt lat="45.56439" lon="5.74008">
        <ele>605</ele>
        <time>2019-10-27T10:28:09.000Z</time>
      </trkpt>
      <trkpt lat="45.56439" lon="5.74008">
        <ele>605</ele>
        <time>2019-10-27T10:28:10.000Z</time>
      </trkpt>
      <trkpt lat="45.56439" lon="5.74008">
        <ele>605</ele>
        <time>2019-10-27T10:28:11.000Z</time>
      </trkpt>
      <trkpt lat="45.56439" lon="5.74008">
        <ele>605</ele>
        <time>2019-10-27T10:28:12.000Z</time>
      </trkpt>
      <trkpt lat="45.56439" lon="5.74008">
        <ele>605</ele>
        <time>2019-10-27T10:28:13.000Z</time>
      </trkpt>
      <trkpt lat="45.56439" lon="5.74008">
        <ele>605</ele>
        <time>2019-10-27T10:28:14.000Z</time>
      </trkpt>
      <trkpt lat="45.56439" lon="5.74008">
        <ele>605</ele>
        <time>2019-10-27T10:28:15.000Z</time>
      </trkpt>
      <trkpt lat="45.56439" lon="5.74008">
        <ele>605</ele>
        <time>2019-10-27T10:28:16.000Z</time>
      </trkpt>
      <trkpt lat="45.56439" lon="5.74008">
        <ele>605</ele>
        <time>2019-10-27T10:28:17.000Z</time>
      </trkpt>
      <trkpt lat="45.56439" lon="5.74008">
        <ele>605</ele>
        <time>2019-10-27T10:28:18.000Z</time>
      </trkpt>
      <trkpt lat="45.56439" lon="5.74008">
        <ele>605</ele>
        <time>2019-10-27T10:28:19.000Z</time>
      </trkpt>
      <trkpt lat="45.56439" lon="5.74008">
        <ele>605</ele>
        <time>2019-10-27T10:28:20.000Z</time>
      </trkpt>
      <trkpt lat="45.56439" lon="5.74008">
        <ele>605</ele>
        <time>2019-10-27T10:28:21.000Z</time>
      </trkpt>
      <trkpt lat="45.56438" lon="5.74008">
        <ele>605</ele>
        <time>2019-10-27T10:28:22.000Z</time>
      </trkpt>
      <trkpt lat="45.56438" lon="5.74008">
        <ele>605</ele>
        <time>2019-10-27T10:28:23.000Z</time>
      </trkpt>
      <trkpt lat="45.56438" lon="5.74008">
        <ele>605</ele>
        <time>2019-10-27T10:28:24.000Z</time>
      </trkpt>
      <trkpt lat="45.56438" lon="5.74008">
        <ele>605</ele>
        <time>2019-10-27T10:28:25.000Z</time>
      </trkpt>
      <trkpt lat="45.56438" lon="5.74008">
        <ele>605</ele>
        <time>2019-10-27T10:28:26.000Z</time>
      </trkpt>
      <trkpt lat="45.56438" lon="5.74008">
        <ele>605</ele>
        <time>2019-10-27T10:28:27.000Z</time>
      </trkpt>
      <trkpt lat="45.56438" lon="5.74008">
        <ele>605</ele>
        <time>2019-10-27T10:28:28.000Z</time>
      </trkpt>
      <trkpt lat="45.56438" lon="5.74008">
        <ele>605</ele>
        <time>2019-10-27T10:28:29.000Z</time>
      </trkpt>
      <trkpt lat="45.56438" lon="5.74007">
        <ele>605</ele>
        <time>2019-10-27T10:28:30.000Z</time>
      </trkpt>
      <trkpt lat="45.56437" lon="5.74007">
        <ele>605</ele>
        <time>2019-10-27T10:28:31.000Z</time>
      </trkpt>
      <trkpt lat="45.56437" lon="5.74007">
        <ele>605</ele>
        <time>2019-10-27T10:28:32.000Z</time>
      </trkpt>
      <trkpt lat="45.56437" lon="5.74007">
        <ele>605</ele>
        <time>2019-10-27T10:28:33.000Z</time>
      </trkpt>
      <trkpt lat="45.56437" lon="5.74007">
        <ele>605</ele>
        <time>2019-10-27T10:28:34.000Z</time>
      </trkpt>
      <trkpt lat="45.56437" lon="5.74007">
        <ele>605</ele>
        <time>2019-10-27T10:28:35.000Z</time>
      </trkpt>
      <trkpt lat="45.56437" lon="5.74006">
        <ele>605</ele>
        <time>2019-10-27T10:28:36.000Z</time>
      </trkpt>
      <trkpt lat="45.56437" lon="5.74006">
        <ele>605</ele>
        <time>2019-10-27T10:28:37.000Z</time>
      </trkpt>
      <trkpt lat="45.56437" lon="5.74006">
        <ele>605</ele>
        <time>2019-10-27T10:28:38.000Z</time>
      </trkpt>
      <trkpt lat="45.56438" lon="5.74006">
        <ele>605</ele>
        <time>2019-10-27T10:28:39.000Z</time>
      </trkpt>
      <trkpt lat="45.56438" lon="5.74006">
        <ele>605</ele>
        <time>2019-10-27T10:28:40.000Z</time>
      </trkpt>
      <trkpt lat="45.56437" lon="5.74005">
        <ele>605</ele>
        <time>2019-10-27T10:28:41.000Z</time>
      </trkpt>
      <trkpt lat="45.56437" lon="5.74005">
        <ele>605</ele>
        <time>2019-10-27T10:28:42.000Z</time>
      </trkpt>
      <trkpt lat="45.56437" lon="5.74005">
        <ele>605</ele>
        <time>2019-10-27T10:28:43.000Z</time>
      </trkpt>
      <trkpt lat="45.56437" lon="5.74004">
        <ele>605</ele>
        <time>2019-10-27T10:28:44.000Z</time>
      </trkpt>
      <trkpt lat="45.56437" lon="5.74004">
        <ele>605</ele>
        <time>2019-10-27T10:28:45.000Z</time>
      </trkpt>
      <trkpt lat="45.56437" lon="5.74004">
        <ele>605</ele>
        <time>2019-10-27T10:28:46.000Z</time>
      </trkpt>
      <trkpt lat="45.56437" lon="5.74003">
        <ele>605</ele>
        <time>2019-10-27T10:28:47.000Z</time>
      </trkpt>
      <trkpt lat="45.56437" lon="5.74003">
        <ele>605</ele>
        <time>2019-10-27T10:28:48.000Z</time>
      </trkpt>
      <trkpt lat="45.56437" lon="5.74003">
        <ele>605</ele>
        <time>2019-10-27T10:28:49.000Z</time>
      </trkpt>
      <trkpt lat="45.56437" lon="5.74002">
        <ele>605</ele>
        <time>2019-10-27T10:28:50.000Z</time>
      </trkpt>
      <trkpt lat="45.56437" lon="5.74001">
        <ele>605</ele>
        <time>2019-10-27T10:28:51.000Z</time>
      </trkpt>
      <trkpt lat="45.56437" lon="5.74001">
        <ele>605</ele>
        <time>2019-10-27T10:28:52.000Z</time>
      </trkpt>
      <trkpt lat="45.56437" lon="5.74">
        <ele>605</ele>
        <time>2019-10-27T10:28:53.000Z</time>
      </trkpt>
      <trkpt lat="45.56438" lon="5.74">
        <ele>605</ele>
        <time>2019-10-27T10:28:54.000Z</time>
      </trkpt>
      <trkpt lat="45.56438" lon="5.73999">
        <ele>605</ele>
        <time>2019-10-27T10:28:55.000Z</time>
      </trkpt>
      <trkpt lat="45.56438" lon="5.73998">
        <ele>605</ele>
        <time>2019-10-27T10:28:56.000Z</time>
      </trkpt>
      <trkpt lat="45.56439" lon="5.73998">
        <ele>605</ele>
        <time>2019-10-27T10:28:57.000Z</time>
      </trkpt>
      <trkpt lat="45.56439" lon="5.73997">
        <ele>605</ele>
        <time>2019-10-27T10:28:58.000Z</time>
      </trkpt>
      <trkpt lat="45.5644" lon="5.73996">
        <ele>605</ele>
        <time>2019-10-27T10:28:59.000Z</time>
      </trkpt>
      <trkpt lat="45.56441" lon="5.73996">
        <ele>605</ele>
        <time>2019-10-27T10:29:00.000Z</time>
      </trkpt>
      <trkpt lat="45.56441" lon="5.73995">
        <ele>605</ele>
        <time>2019-10-27T10:29:01.000Z</time>
      </trkpt>
      <trkpt lat="45.56442" lon="5.73995">
        <ele>605</ele>
        <time>2019-10-27T10:29:02.000Z</time>
      </trkpt>
      <trkpt lat="45.56443" lon="5.73995">
        <ele>605</ele>
        <time>2019-10-27T10:29:03.000Z</time>
      </trkpt>
      <trkpt lat="45.56444" lon="5.73994">
        <ele>605</ele>
        <time>2019-10-27T10:29:04.000Z</time>
      </trkpt>
      <trkpt lat="45.56444" lon="5.73994">
        <ele>605</ele>
        <time>2019-10-27T10:29:05.000Z</time>
      </trkpt>
      <trkpt lat="45.56445" lon="5.73994">
        <ele>605</ele>
        <time>2019-10-27T10:29:06.000Z</time>
      </trkpt>
      <trkpt lat="45.56446" lon="5.73994">
        <ele>605</ele>
        <time>2019-10-27T10:29:07.000Z</time>
      </trkpt>
      <trkpt lat="45.56447" lon="5.73994">
        <ele>605</ele>
        <time>2019-10-27T10:29:08.000Z</time>
      </trkpt>
      <trkpt lat="45.56448" lon="5.73993">
        <ele>605</ele>
        <time>2019-10-27T10:29:09.000Z</time>
      </trkpt>
      <trkpt lat="45.56448" lon="5.73993">
        <ele>605</ele>
        <time>2019-10-27T10:29:10.000Z</time>
      </trkpt>
      <trkpt lat="45.56449" lon="5.73993">
        <ele>605</ele>
        <time>2019-10-27T10:29:11.000Z</time>
      </trkpt>
      <trkpt lat="45.5645" lon="5.73994">
        <ele>605</ele>
        <time>2019-10-27T10:29:12.000Z</time>
      </trkpt>
      <trkpt lat="45.5645" lon="5.73994">
        <ele>604.5</ele>
        <time>2019-10-27T10:29:13.000Z</time>
      </trkpt>
      <trkpt lat="45.56451" lon="5.73994">
        <ele>604</ele>
        <time>2019-10-27T10:29:14.000Z</time>
      </trkpt>
      <trkpt lat="45.56452" lon="5.73994">
        <ele>604</ele>
        <time>2019-10-27T10:29:15.000Z</time>
      </trkpt>
      <trkpt lat="45.56452" lon="5.73994">
        <ele>604</ele>
        <time>2019-10-27T10:29:16.000Z</time>
      </trkpt>
      <trkpt lat="45.56452" lon="5.73994">
        <ele>604</ele>
        <time>2019-10-27T10:29:17.000Z</time>
      </trkpt>
      <trkpt lat="45.56453" lon="5.73995">
        <ele>604</ele>
        <time>2019-10-27T10:29:18.000Z</time>
      </trkpt>
      <trkpt lat="45.56453" lon="5.73995">
        <ele>604</ele>
        <time>2019-10-27T10:29:19.000Z</time>
      </trkpt>
      <trkpt lat="45.56454" lon="5.73995">
        <ele>604</ele>
        <time>2019-10-27T10:29:20.000Z</time>
      </trkpt>
      <trkpt lat="45.56454" lon="5.73994">
        <ele>604</ele>
        <time>2019-10-27T10:29:21.000Z</time>
      </trkpt>
      <trkpt lat="45.56455" lon="5.73994">
        <ele>604</ele>
        <time>2019-10-27T10:29:22.000Z</time>
      </trkpt>
      <trkpt lat="45.56455" lon="5.73993">
        <ele>603</ele>
        <time>2019-10-27T10:29:23.000Z</time>
      </trkpt>
      <trkpt lat="45.56456" lon="5.73994">
        <ele>603</ele>
        <time>2019-10-27T10:29:24.000Z</time>
      </trkpt>
      <trkpt lat="45.56457" lon="5.73995">
        <ele>603</ele>
        <time>2019-10-27T10:29:25.000Z</time>
      </trkpt>
      <trkpt lat="45.56458" lon="5.73996">
        <ele>603</ele>
        <time>2019-10-27T10:29:26.000Z</time>
      </trkpt>
      <trkpt lat="45.56458" lon="5.73996">
        <ele>603</ele>
        <time>2019-10-27T10:29:27.000Z</time>
      </trkpt>
      <trkpt lat="45.56458" lon="5.73997">
        <ele>603</ele>
        <time>2019-10-27T10:29:28.000Z</time>
      </trkpt>
      <trkpt lat="45.56459" lon="5.73998">
        <ele>603</ele>
        <time>2019-10-27T10:29:29.000Z</time>
      </trkpt>
      <trkpt lat="45.56459" lon="5.73998">
        <ele>603</ele>
        <time>2019-10-27T10:29:30.000Z</time>
      </trkpt>
      <trkpt lat="45.5646" lon="5.73997">
        <ele>603</ele>
        <time>2019-10-27T10:29:31.000Z</time>
      </trkpt>
      <trkpt lat="45.5646" lon="5.73997">
        <ele>603</ele>
        <time>2019-10-27T10:29:32.000Z</time>
      </trkpt>
      <trkpt lat="45.56461" lon="5.73996">
        <ele>603</ele>
        <time>2019-10-27T10:29:33.000Z</time>
      </trkpt>
      <trkpt lat="45.56461" lon="5.73996">
        <ele>603</ele>
        <time>2019-10-27T10:29:34.000Z</time>
      </trkpt>
      <trkpt lat="45.56462" lon="5.73995">
        <ele>603</ele>
        <time>2019-10-27T10:29:35.000Z</time>
      </trkpt>
      <trkpt lat="45.56463" lon="5.73994">
        <ele>603</ele>
        <time>2019-10-27T10:29:36.000Z</time>
      </trkpt>
      <trkpt lat="45.56463" lon="5.73994">
        <ele>603</ele>
        <time>2019-10-27T10:29:37.000Z</time>
      </trkpt>
      <trkpt lat="45.56464" lon="5.73993">
        <ele>603</ele>
        <time>2019-10-27T10:29:38.000Z</time>
      </trkpt>
      <trkpt lat="45.56464" lon="5.73992">
        <ele>603.5</ele>
        <time>2019-10-27T10:29:39.000Z</time>
      </trkpt>
      <trkpt lat="45.56465" lon="5.73991">
        <ele>604</ele>
        <time>2019-10-27T10:29:40.000Z</time>
      </trkpt>
      <trkpt lat="45.56466" lon="5.7399">
        <ele>604</ele>
        <time>2019-10-27T10:29:41.000Z</time>
      </trkpt>
      <trkpt lat="45.56466" lon="5.73989">
        <ele>604</ele>
        <time>2019-10-27T10:29:42.000Z</time>
      </trkpt>
      <trkpt lat="45.56467" lon="5.73988">
        <ele>604</ele>
        <time>2019-10-27T10:29:43.000Z</time>
      </trkpt>
      <trkpt lat="45.56467" lon="5.73986">
        <ele>604</ele>
        <time>2019-10-27T10:29:44.000Z</time>
      </trkpt>
      <trkpt lat="45.56468" lon="5.73985">
        <ele>605</ele>
        <time>2019-10-27T10:29:45.000Z</time>
      </trkpt>
      <trkpt lat="45.56468" lon="5.73983">
        <ele>605</ele>
        <time>2019-10-27T10:29:46.000Z</time>
      </trkpt>
      <trkpt lat="45.56469" lon="5.73982">
        <ele>605</ele>
        <time>2019-10-27T10:29:47.000Z</time>
      </trkpt>
      <trkpt lat="45.56469" lon="5.73981">
        <ele>605</ele>
        <time>2019-10-27T10:29:48.000Z</time>
      </trkpt>
      <trkpt lat="45.56469" lon="5.73981">
        <ele>605</ele>
        <time>2019-10-27T10:29:49.000Z</time>
      </trkpt>
      <trkpt lat="45.56469" lon="5.7398">
        <ele>605</ele>
        <time>2019-10-27T10:29:50.000Z</time>
      </trkpt>
      <trkpt lat="45.56468" lon="5.73979">
        <ele>605</ele>
        <time>2019-10-27T10:29:51.000Z</time>
      </trkpt>
      <trkpt lat="45.56468" lon="5.73978">
        <ele>605</ele>
        <time>2019-10-27T10:29:52.000Z</time>
      </trkpt>
      <trkpt lat="45.56468" lon="5.73978">
        <ele>606</ele>
        <time>2019-10-27T10:29:53.000Z</time>
      </trkpt>
      <trkpt lat="45.56467" lon="5.73977">
        <ele>606</ele>
        <time>2019-10-27T10:29:54.000Z</time>
      </trkpt>
      <trkpt lat="45.56466" lon="5.73976">
        <ele>606</ele>
        <time>2019-10-27T10:29:55.000Z</time>
      </trkpt>
      <trkpt lat="45.56466" lon="5.73975">
        <ele>606</ele>
        <time>2019-10-27T10:29:56.000Z</time>
      </trkpt>
      <trkpt lat="45.56465" lon="5.73974">
        <ele>606</ele>
        <time>2019-10-27T10:29:57.000Z</time>
      </trkpt>
      <trkpt lat="45.56464" lon="5.73973">
        <ele>606</ele>
        <time>2019-10-27T10:29:58.000Z</time>
      </trkpt>
      <trkpt lat="45.56464" lon="5.73972">
        <ele>606</ele>
        <time>2019-10-27T10:29:59.000Z</time>
      </trkpt>
      <trkpt lat="45.56463" lon="5.73971">
        <ele>606</ele>
        <time>2019-10-27T10:30:00.000Z</time>
      </trkpt>
      <trkpt lat="45.56462" lon="5.7397">
        <ele>607</ele>
        <time>2019-10-27T10:30:01.000Z</time>
      </trkpt>
      <trkpt lat="45.56462" lon="5.73969">
        <ele>607</ele>
        <time>2019-10-27T10:30:02.000Z</time>
      </trkpt>
      <trkpt lat="45.56461" lon="5.73968">
        <ele>607</ele>
        <time>2019-10-27T10:30:03.000Z</time>
      </trkpt>
      <trkpt lat="45.5646" lon="5.73966">
        <ele>607</ele>
        <time>2019-10-27T10:30:04.000Z</time>
      </trkpt>
      <trkpt lat="45.5646" lon="5.73965">
        <ele>607</ele>
        <time>2019-10-27T10:30:05.000Z</time>
      </trkpt>
      <trkpt lat="45.56459" lon="5.73964">
        <ele>607</ele>
        <time>2019-10-27T10:30:06.000Z</time>
      </trkpt>
      <trkpt lat="45.56459" lon="5.73963">
        <ele>606.5</ele>
        <time>2019-10-27T10:30:07.000Z</time>
      </trkpt>
      <trkpt lat="45.56458" lon="5.73962">
        <ele>606</ele>
        <time>2019-10-27T10:30:08.000Z</time>
      </trkpt>
      <trkpt lat="45.56458" lon="5.7396">
        <ele>606</ele>
        <time>2019-10-27T10:30:09.000Z</time>
      </trkpt>
      <trkpt lat="45.56458" lon="5.73959">
        <ele>606</ele>
        <time>2019-10-27T10:30:10.000Z</time>
      </trkpt>
      <trkpt lat="45.56457" lon="5.73958">
        <ele>606</ele>
        <time>2019-10-27T10:30:11.000Z</time>
      </trkpt>
      <trkpt lat="45.56457" lon="5.73956">
        <ele>606</ele>
        <time>2019-10-27T10:30:12.000Z</time>
      </trkpt>
      <trkpt lat="45.56457" lon="5.73955">
        <ele>606</ele>
        <time>2019-10-27T10:30:13.000Z</time>
      </trkpt>
      <trkpt lat="45.56456" lon="5.73954">
        <ele>606</ele>
        <time>2019-10-27T10:30:14.000Z</time>
      </trkpt>
      <trkpt lat="45.56456" lon="5.73953">
        <ele>605.5</ele>
        <time>2019-10-27T10:30:15.000Z</time>
      </trkpt>
      <trkpt lat="45.56456" lon="5.73951">
        <ele>605</ele>
        <time>2019-10-27T10:30:16.000Z</time>
      </trkpt>
      <trkpt lat="45.56456" lon="5.7395">
        <ele>605</ele>
        <time>2019-10-27T10:30:17.000Z</time>
      </trkpt>
      <trkpt lat="45.56456" lon="5.73949">
        <ele>605</ele>
        <time>2019-10-27T10:30:18.000Z</time>
      </trkpt>
      <trkpt lat="45.56456" lon="5.73948">
        <ele>605</ele>
        <time>2019-10-27T10:30:19.000Z</time>
      </trkpt>
      <trkpt lat="45.56456" lon="5.73947">
        <ele>605</ele>
        <time>2019-10-27T10:30:20.000Z</time>
      </trkpt>
      <trkpt lat="45.56456" lon="5.73946">
        <ele>605</ele>
        <time>2019-10-27T10:30:21.000Z</time>
      </trkpt>
      <trkpt lat="45.56456" lon="5.73944">
        <ele>605</ele>
        <time>2019-10-27T10:30:22.000Z</time>
      </trkpt>
      <trkpt lat="45.56456" lon="5.73943">
        <ele>604.5</ele>
        <time>2019-10-27T10:30:23.000Z</time>
      </trkpt>
      <trkpt lat="45.56455" lon="5.73942">
        <ele>604</ele>
        <time>2019-10-27T10:30:24.000Z</time>
      </trkpt>
      <trkpt lat="45.56455" lon="5.73941">
        <ele>604</ele>
        <time>2019-10-27T10:30:25.000Z</time>
      </trkpt>
      <trkpt lat="45.56455" lon="5.7394">
        <ele>604</ele>
        <time>2019-10-27T10:30:26.000Z</time>
      </trkpt>
      <trkpt lat="45.56455" lon="5.73938">
        <ele>604</ele>
        <time>2019-10-27T10:30:27.000Z</time>
      </trkpt>
      <trkpt lat="45.56454" lon="5.73937">
        <ele>604</ele>
        <time>2019-10-27T10:30:28.000Z</time>
      </trkpt>
      <trkpt lat="45.56454" lon="5.73936">
        <ele>604</ele>
        <time>2019-10-27T10:30:29.000Z</time>
      </trkpt>
      <trkpt lat="45.56454" lon="5.73934">
        <ele>604</ele>
        <time>2019-10-27T10:30:30.000Z</time>
      </trkpt>
      <trkpt lat="45.56453" lon="5.73933">
        <ele>604</ele>
        <time>2019-10-27T10:30:31.000Z</time>
      </trkpt>
      <trkpt lat="45.56453" lon="5.73931">
        <ele>604</ele>
        <time>2019-10-27T10:30:32.000Z</time>
      </trkpt>
      <trkpt lat="45.56452" lon="5.7393">
        <ele>604</ele>
        <time>2019-10-27T10:30:33.000Z</time>
      </trkpt>
      <trkpt lat="45.56452" lon="5.73928">
        <ele>604</ele>
        <time>2019-10-27T10:30:34.000Z</time>
      </trkpt>
      <trkpt lat="45.56452" lon="5.73927">
        <ele>604</ele>
        <time>2019-10-27T10:30:35.000Z</time>
      </trkpt>
      <trkpt lat="45.56451" lon="5.73926">
        <ele>604</ele>
        <time>2019-10-27T10:30:36.000Z</time>
      </trkpt>
      <trkpt lat="45.56451" lon="5.73924">
        <ele>604</ele>
        <time>2019-10-27T10:30:37.000Z</time>
      </trkpt>
      <trkpt lat="45.56451" lon="5.73923">
        <ele>604</ele>
        <time>2019-10-27T10:30:38.000Z</time>
      </trkpt>
      <trkpt lat="45.5645" lon="5.73921">
        <ele>604</ele>
        <time>2019-10-27T10:30:39.000Z</time>
      </trkpt>
      <trkpt lat="45.5645" lon="5.7392">
        <ele>604</ele>
        <time>2019-10-27T10:30:40.000Z</time>
      </trkpt>
      <trkpt lat="45.5645" lon="5.73918">
        <ele>604</ele>
        <time>2019-10-27T10:30:41.000Z</time>
      </trkpt>
      <trkpt lat="45.5645" lon="5.73917">
        <ele>604</ele>
        <time>2019-10-27T10:30:42.000Z</time>
      </trkpt>
      <trkpt lat="45.56449" lon="5.73915">
        <ele>604</ele>
        <time>2019-10-27T10:30:43.000Z</time>
      </trkpt>
      <trkpt lat="45.56449" lon="5.73914">
        <ele>604</ele>
        <time>2019-10-27T10:30:44.000Z</time>
      </trkpt>
      <trkpt lat="45.56449" lon="5.73912">
        <ele>604</ele>
        <time>2019-10-27T10:30:45.000Z</time>
      </trkpt>
      <trkpt lat="45.56449" lon="5.73911">
        <ele>604</ele>
        <time>2019-10-27T10:30:46.000Z</time>
      </trkpt>
      <trkpt lat="45.56448" lon="5.73909">
        <ele>604</ele>
        <time>2019-10-27T10:30:47.000Z</time>
      </trkpt>
      <trkpt lat="45.56448" lon="5.73907">
        <ele>604</ele>
        <time>2019-10-27T10:30:48.000Z</time>
      </trkpt>
      <trkpt lat="45.56447" lon="5.73906">
        <ele>604</ele>
        <time>2019-10-27T10:30:49.000Z</time>
      </trkpt>
      <trkpt lat="45.56446" lon="5.73904">
        <ele>604</ele>
        <time>2019-10-27T10:30:50.000Z</time>
      </trkpt>
      <trkpt lat="45.56446" lon="5.73903">
        <ele>603</ele>
        <time>2019-10-27T10:30:51.000Z</time>
      </trkpt>
      <trkpt lat="45.56445" lon="5.73902">
        <ele>603</ele>
        <time>2019-10-27T10:30:52.000Z</time>
      </trkpt>
      <trkpt lat="45.56445" lon="5.73901">
        <ele>603</ele>
        <time>2019-10-27T10:30:53.000Z</time>
      </trkpt>
      <trkpt lat="45.56445" lon="5.73901">
        <ele>603</ele>
        <time>2019-10-27T10:30:54.000Z</time>
      </trkpt>
      <trkpt lat="45.56444" lon="5.73901">
        <ele>603</ele>
        <time>2019-10-27T10:30:55.000Z</time>
      </trkpt>
      <trkpt lat="45.56444" lon="5.739">
        <ele>603</ele>
        <time>2019-10-27T10:30:56.000Z</time>
      </trkpt>
      <trkpt lat="45.56443" lon="5.73899">
        <ele>603</ele>
        <time>2019-10-27T10:30:57.000Z</time>
      </trkpt>
      <trkpt lat="45.56442" lon="5.73897">
        <ele>603</ele>
        <time>2019-10-27T10:30:58.000Z</time>
      </trkpt>
      <trkpt lat="45.56441" lon="5.73895">
        <ele>603</ele>
        <time>2019-10-27T10:30:59.000Z</time>
      </trkpt>
      <trkpt lat="45.5644" lon="5.73894">
        <ele>603</ele>
        <time>2019-10-27T10:31:00.000Z</time>
      </trkpt>
      <trkpt lat="45.5644" lon="5.73892">
        <ele>603</ele>
        <time>2019-10-27T10:31:01.000Z</time>
      </trkpt>
      <trkpt lat="45.56439" lon="5.73891">
        <ele>603</ele>
        <time>2019-10-27T10:31:02.000Z</time>
      </trkpt>
      <trkpt lat="45.56439" lon="5.73889">
        <ele>603</ele>
        <time>2019-10-27T10:31:03.000Z</time>
      </trkpt>
      <trkpt lat="45.56438" lon="5.73888">
        <ele>603</ele>
        <time>2019-10-27T10:31:04.000Z</time>
      </trkpt>
      <trkpt lat="45.56438" lon="5.73887">
        <ele>603</ele>
        <time>2019-10-27T10:31:05.000Z</time>
      </trkpt>
      <trkpt lat="45.56437" lon="5.73886">
        <ele>603</ele>
        <time>2019-10-27T10:31:06.000Z</time>
      </trkpt>
      <trkpt lat="45.56437" lon="5.73885">
        <ele>602</ele>
        <time>2019-10-27T10:31:07.000Z</time>
      </trkpt>
      <trkpt lat="45.56436" lon="5.73884">
        <ele>602</ele>
        <time>2019-10-27T10:31:08.000Z</time>
      </trkpt>
      <trkpt lat="45.56436" lon="5.73883">
        <ele>602</ele>
        <time>2019-10-27T10:31:09.000Z</time>
      </trkpt>
      <trkpt lat="45.56435" lon="5.73882">
        <ele>602</ele>
        <time>2019-10-27T10:31:10.000Z</time>
      </trkpt>
      <trkpt lat="45.56435" lon="5.73881">
        <ele>602</ele>
        <time>2019-10-27T10:31:11.000Z</time>
      </trkpt>
      <trkpt lat="45.56434" lon="5.7388">
        <ele>602</ele>
        <time>2019-10-27T10:31:12.000Z</time>
      </trkpt>
      <trkpt lat="45.56433" lon="5.73878">
        <ele>602</ele>
        <time>2019-10-27T10:31:13.000Z</time>
      </trkpt>
      <trkpt lat="45.56432" lon="5.73877">
        <ele>602</ele>
        <time>2019-10-27T10:31:14.000Z</time>
      </trkpt>
      <trkpt lat="45.56431" lon="5.73876">
        <ele>602</ele>
        <time>2019-10-27T10:31:15.000Z</time>
      </trkpt>
      <trkpt lat="45.56431" lon="5.73875">
        <ele>602</ele>
        <time>2019-10-27T10:31:16.000Z</time>
      </trkpt>
      <trkpt lat="45.5643" lon="5.73874">
        <ele>602</ele>
        <time>2019-10-27T10:31:17.000Z</time>
      </trkpt>
      <trkpt lat="45.56429" lon="5.73873">
        <ele>602</ele>
        <time>2019-10-27T10:31:18.000Z</time>
      </trkpt>
      <trkpt lat="45.56429" lon="5.73872">
        <ele>602</ele>
        <time>2019-10-27T10:31:19.000Z</time>
      </trkpt>
      <trkpt lat="45.56428" lon="5.73872">
        <ele>602</ele>
        <time>2019-10-27T10:31:20.000Z</time>
      </trkpt>
      <trkpt lat="45.56427" lon="5.73871">
        <ele>602</ele>
        <time>2019-10-27T10:31:21.000Z</time>
      </trkpt>
      <trkpt lat="45.56427" lon="5.7387">
        <ele>602</ele>
        <time>2019-10-27T10:31:22.000Z</time>
      </trkpt>
      <trkpt lat="45.56426" lon="5.73869">
        <ele>602</ele>
        <time>2019-10-27T10:31:23.000Z</time>
      </trkpt>
      <trkpt lat="45.56425" lon="5.73867">
        <ele>602</ele>
        <time>2019-10-27T10:31:24.000Z</time>
      </trkpt>
      <trkpt lat="45.56425" lon="5.73866">
        <ele>602</ele>
        <time>2019-10-27T10:31:25.000Z</time>
      </trkpt>
      <trkpt lat="45.56424" lon="5.73864">
        <ele>602</ele>
        <time>2019-10-27T10:31:26.000Z</time>
      </trkpt>
      <trkpt lat="45.56424" lon="5.73861">
        <ele>602</ele>
        <time>2019-10-27T10:31:27.000Z</time>
      </trkpt>
      <trkpt lat="45.56423" lon="5.73859">
        <ele>602</ele>
        <time>2019-10-27T10:31:28.000Z</time>
      </trkpt>
      <trkpt lat="45.56423" lon="5.73857">
        <ele>602</ele>
        <time>2019-10-27T10:31:29.000Z</time>
      </trkpt>
      <trkpt lat="45.56422" lon="5.73854">
        <ele>602</ele>
        <time>2019-10-27T10:31:30.000Z</time>
      </trkpt>
      <trkpt lat="45.56422" lon="5.73853">
        <ele>602</ele>
        <time>2019-10-27T10:31:31.000Z</time>
      </trkpt>
      <trkpt lat="45.56421" lon="5.73851">
        <ele>602</ele>
        <time>2019-10-27T10:31:32.000Z</time>
      </trkpt>
      <trkpt lat="45.5642" lon="5.73849">
        <ele>602</ele>
        <time>2019-10-27T10:31:33.000Z</time>
      </trkpt>
      <trkpt lat="45.5642" lon="5.73848">
        <ele>602</ele>
        <time>2019-10-27T10:31:34.000Z</time>
      </trkpt>
      <trkpt lat="45.56419" lon="5.73846">
        <ele>602</ele>
        <time>2019-10-27T10:31:35.000Z</time>
      </trkpt>
      <trkpt lat="45.56418" lon="5.73845">
        <ele>602</ele>
        <time>2019-10-27T10:31:36.000Z</time>
      </trkpt>
      <trkpt lat="45.56417" lon="5.73843">
        <ele>603</ele>
        <time>2019-10-27T10:31:37.000Z</time>
      </trkpt>
      <trkpt lat="45.56416" lon="5.73841">
        <ele>603</ele>
        <time>2019-10-27T10:31:38.000Z</time>
      </trkpt>
      <trkpt lat="45.56416" lon="5.7384">
        <ele>603</ele>
        <time>2019-10-27T10:31:39.000Z</time>
      </trkpt>
      <trkpt lat="45.56415" lon="5.73838">
        <ele>603</ele>
        <time>2019-10-27T10:31:40.000Z</time>
      </trkpt>
      <trkpt lat="45.56414" lon="5.73837">
        <ele>603</ele>
        <time>2019-10-27T10:31:41.000Z</time>
      </trkpt>
      <trkpt lat="45.56413" lon="5.73835">
        <ele>603</ele>
        <time>2019-10-27T10:31:42.000Z</time>
      </trkpt>
      <trkpt lat="45.56413" lon="5.73834">
        <ele>603</ele>
        <time>2019-10-27T10:31:43.000Z</time>
      </trkpt>
      <trkpt lat="45.56412" lon="5.73833">
        <ele>603</ele>
        <time>2019-10-27T10:31:44.000Z</time>
      </trkpt>
      <trkpt lat="45.56411" lon="5.73831">
        <ele>603</ele>
        <time>2019-10-27T10:31:45.000Z</time>
      </trkpt>
      <trkpt lat="45.56411" lon="5.7383">
        <ele>603</ele>
        <time>2019-10-27T10:31:46.000Z</time>
      </trkpt>
      <trkpt lat="45.5641" lon="5.73829">
        <ele>603.5</ele>
        <time>2019-10-27T10:31:47.000Z</time>
      </trkpt>
      <trkpt lat="45.56409" lon="5.73828">
        <ele>604</ele>
        <time>2019-10-27T10:31:48.000Z</time>
      </trkpt>
      <trkpt lat="45.56409" lon="5.73827">
        <ele>604</ele>
        <time>2019-10-27T10:31:49.000Z</time>
      </trkpt>
      <trkpt lat="45.56408" lon="5.73826">
        <ele>604</ele>
        <time>2019-10-27T10:31:50.000Z</time>
      </trkpt>
      <trkpt lat="45.56408" lon="5.73825">
        <ele>604</ele>
        <time>2019-10-27T10:31:51.000Z</time>
      </trkpt>
      <trkpt lat="45.56407" lon="5.73824">
        <ele>604</ele>
        <time>2019-10-27T10:31:52.000Z</time>
      </trkpt>
      <trkpt lat="45.56407" lon="5.73823">
        <ele>605</ele>
        <time>2019-10-27T10:31:53.000Z</time>
      </trkpt>
      <trkpt lat="45.56406" lon="5.73821">
        <ele>605</ele>
        <time>2019-10-27T10:31:54.000Z</time>
      </trkpt>
      <trkpt lat="45.56406" lon="5.7382">
        <ele>605</ele>
        <time>2019-10-27T10:31:55.000Z</time>
      </trkpt>
      <trkpt lat="45.56406" lon="5.73819">
        <ele>605</ele>
        <time>2019-10-27T10:31:56.000Z</time>
      </trkpt>
      <trkpt lat="45.56405" lon="5.73817">
        <ele>605</ele>
        <time>2019-10-27T10:31:57.000Z</time>
      </trkpt>
      <trkpt lat="45.56405" lon="5.73816">
        <ele>605</ele>
        <time>2019-10-27T10:31:58.000Z</time>
      </trkpt>
      <trkpt lat="45.56404" lon="5.73814">
        <ele>606</ele>
        <time>2019-10-27T10:31:59.000Z</time>
      </trkpt>
      <trkpt lat="45.56404" lon="5.73813">
        <ele>606</ele>
        <time>2019-10-27T10:32:00.000Z</time>
      </trkpt>
      <trkpt lat="45.56404" lon="5.73812">
        <ele>606</ele>
        <time>2019-10-27T10:32:01.000Z</time>
      </trkpt>
      <trkpt lat="45.56403" lon="5.73812">
        <ele>606</ele>
        <time>2019-10-27T10:32:02.000Z</time>
      </trkpt>
      <trkpt lat="45.56403" lon="5.73811">
        <ele>606</ele>
        <time>2019-10-27T10:32:03.000Z</time>
      </trkpt>
      <trkpt lat="45.56403" lon="5.7381">
        <ele>606</ele>
        <time>2019-10-27T10:32:04.000Z</time>
      </trkpt>
      <trkpt lat="45.56402" lon="5.73809">
        <ele>606</ele>
        <time>2019-10-27T10:32:05.000Z</time>
      </trkpt>
      <trkpt lat="45.56402" lon="5.73808">
        <ele>606</ele>
        <time>2019-10-27T10:32:06.000Z</time>
      </trkpt>
      <trkpt lat="45.56402" lon="5.73807">
        <ele>607</ele>
        <time>2019-10-27T10:32:07.000Z</time>
      </trkpt>
      <trkpt lat="45.56401" lon="5.73806">
        <ele>607</ele>
        <time>2019-10-27T10:32:08.000Z</time>
      </trkpt>
      <trkpt lat="45.56401" lon="5.73805">
        <ele>607</ele>
        <time>2019-10-27T10:32:09.000Z</time>
      </trkpt>
      <trkpt lat="45.564" lon="5.73803">
        <ele>607</ele>
        <time>2019-10-27T10:32:10.000Z</time>
      </trkpt>
      <trkpt lat="45.564" lon="5.73802">
        <ele>607</ele>
        <time>2019-10-27T10:32:11.000Z</time>
      </trkpt>
      <trkpt lat="45.564" lon="5.738">
        <ele>607</ele>
        <time>2019-10-27T10:32:12.000Z</time>
      </trkpt>
      <trkpt lat="45.56399" lon="5.73799">
        <ele>607</ele>
        <time>2019-10-27T10:32:13.000Z</time>
      </trkpt>
      <trkpt lat="45.56399" lon="5.73797">
        <ele>607</ele>
        <time>2019-10-27T10:32:14.000Z</time>
      </trkpt>
      <trkpt lat="45.56398" lon="5.73796">
        <ele>607</ele>
        <time>2019-10-27T10:32:15.000Z</time>
      </trkpt>
      <trkpt lat="45.56398" lon="5.73794">
        <ele>607</ele>
        <time>2019-10-27T10:32:16.000Z</time>
      </trkpt>
      <trkpt lat="45.56397" lon="5.73793">
        <ele>607</ele>
        <time>2019-10-27T10:32:17.000Z</time>
      </trkpt>
      <trkpt lat="45.56397" lon="5.73791">
        <ele>607</ele>
        <time>2019-10-27T10:32:18.000Z</time>
      </trkpt>
      <trkpt lat="45.56396" lon="5.7379">
        <ele>607</ele>
        <time>2019-10-27T10:32:19.000Z</time>
      </trkpt>
      <trkpt lat="45.56396" lon="5.73788">
        <ele>607.3</ele>
        <time>2019-10-27T10:32:20.000Z</time>
      </trkpt>
      <trkpt lat="45.56395" lon="5.73787">
        <ele>607.7</ele>
        <time>2019-10-27T10:32:21.000Z</time>
      </trkpt>
      <trkpt lat="45.56394" lon="5.73786">
        <ele>608</ele>
        <time>2019-10-27T10:32:22.000Z</time>
      </trkpt>
      <trkpt lat="45.56394" lon="5.73784">
        <ele>608</ele>
        <time>2019-10-27T10:32:23.000Z</time>
      </trkpt>
      <trkpt lat="45.56393" lon="5.73783">
        <ele>608</ele>
        <time>2019-10-27T10:32:24.000Z</time>
      </trkpt>
      <trkpt lat="45.56392" lon="5.73781">
        <ele>608</ele>
        <time>2019-10-27T10:32:25.000Z</time>
      </trkpt>
      <trkpt lat="45.56392" lon="5.7378">
        <ele>608</ele>
        <time>2019-10-27T10:32:26.000Z</time>
      </trkpt>
      <trkpt lat="45.56391" lon="5.73779">
        <ele>608</ele>
        <time>2019-10-27T10:32:27.000Z</time>
      </trkpt>
      <trkpt lat="45.56391" lon="5.73777">
        <ele>608</ele>
        <time>2019-10-27T10:32:28.000Z</time>
      </trkpt>
      <trkpt lat="45.5639" lon="5.73776">
        <ele>608</ele>
        <time>2019-10-27T10:32:29.000Z</time>
      </trkpt>
      <trkpt lat="45.5639" lon="5.73774">
        <ele>608</ele>
        <time>2019-10-27T10:32:30.000Z</time>
      </trkpt>
      <trkpt lat="45.56389" lon="5.73773">
        <ele>608</ele>
        <time>2019-10-27T10:32:31.000Z</time>
      </trkpt>
      <trkpt lat="45.56389" lon="5.73771">
        <ele>608</ele>
        <time>2019-10-27T10:32:32.000Z</time>
      </trkpt>
      <trkpt lat="45.56388" lon="5.7377">
        <ele>608</ele>
        <time>2019-10-27T10:32:33.000Z</time>
      </trkpt>
      <trkpt lat="45.56388" lon="5.73769">
        <ele>608</ele>
        <time>2019-10-27T10:32:34.000Z</time>
      </trkpt>
      <trkpt lat="45.56387" lon="5.73767">
        <ele>609</ele>
        <time>2019-10-27T10:32:35.000Z</time>
      </trkpt>
      <trkpt lat="45.56387" lon="5.73766">
        <ele>609</ele>
        <time>2019-10-27T10:32:36.000Z</time>
      </trkpt>
      <trkpt lat="45.56386" lon="5.73764">
        <ele>609</ele>
        <time>2019-10-27T10:32:37.000Z</time>
      </trkpt>
      <trkpt lat="45.56386" lon="5.73763">
        <ele>609</ele>
        <time>2019-10-27T10:32:38.000Z</time>
      </trkpt>
      <trkpt lat="45.56385" lon="5.73761">
        <ele>609</ele>
        <time>2019-10-27T10:32:39.000Z</time>
      </trkpt>
      <trkpt lat="45.56385" lon="5.7376">
        <ele>609</ele>
        <time>2019-10-27T10:32:40.000Z</time>
      </trkpt>
      <trkpt lat="45.56384" lon="5.73758">
        <ele>609</ele>
        <time>2019-10-27T10:32:41.000Z</time>
      </trkpt>
      <trkpt lat="45.56383" lon="5.73757">
        <ele>609</ele>
        <time>2019-10-27T10:32:42.000Z</time>
      </trkpt>
      <trkpt lat="45.56383" lon="5.73755">
        <ele>609</ele>
        <time>2019-10-27T10:32:43.000Z</time>
      </trkpt>
      <trkpt lat="45.56382" lon="5.73754">
        <ele>609</ele>
        <time>2019-10-27T10:32:44.000Z</time>
      </trkpt>
      <trkpt lat="45.56382" lon="5.73752">
        <ele>609</ele>
        <time>2019-10-27T10:32:45.000Z</time>
      </trkpt>
      <trkpt lat="45.56381" lon="5.73751">
        <ele>609</ele>
        <time>2019-10-27T10:32:46.000Z</time>
      </trkpt>
      <trkpt lat="45.5638" lon="5.73749">
        <ele>609</ele>
        <time>2019-10-27T10:32:47.000Z</time>
      </trkpt>
      <trkpt lat="45.56379" lon="5.73748">
        <ele>609</ele>
        <time>2019-10-27T10:32:48.000Z</time>
      </trkpt>
      <trkpt lat="45.56379" lon="5.73746">
        <ele>609</ele>
        <time>2019-10-27T10:32:49.000Z</time>
      </trkpt>
      <trkpt lat="45.56378" lon="5.73745">
        <ele>609</ele>
        <time>2019-10-27T10:32:50.000Z</time>
      </trkpt>
      <trkpt lat="45.56377" lon="5.73743">
        <ele>609</ele>
        <time>2019-10-27T10:32:51.000Z</time>
      </trkpt>
      <trkpt lat="45.56377" lon="5.73742">
        <ele>609.3</ele>
        <time>2019-10-27T10:32:52.000Z</time>
      </trkpt>
      <trkpt lat="45.56376" lon="5.7374">
        <ele>609.7</ele>
        <time>2019-10-27T10:32:53.000Z</time>
      </trkpt>
      <trkpt lat="45.56375" lon="5.73739">
        <ele>610</ele>
        <time>2019-10-27T10:32:54.000Z</time>
      </trkpt>
      <trkpt lat="45.56375" lon="5.73737">
        <ele>610</ele>
        <time>2019-10-27T10:32:55.000Z</time>
      </trkpt>
      <trkpt lat="45.56374" lon="5.73736">
        <ele>610</ele>
        <time>2019-10-27T10:32:56.000Z</time>
      </trkpt>
      <trkpt lat="45.56373" lon="5.73734">
        <ele>610</ele>
        <time>2019-10-27T10:32:57.000Z</time>
      </trkpt>
      <trkpt lat="45.56373" lon="5.73733">
        <ele>610</ele>
        <time>2019-10-27T10:32:58.000Z</time>
      </trkpt>
      <trkpt lat="45.56372" lon="5.73731">
        <ele>610</ele>
        <time>2019-10-27T10:32:59.000Z</time>
      </trkpt>
      <trkpt lat="45.56372" lon="5.73729">
        <ele>610</ele>
        <time>2019-10-27T10:33:00.000Z</time>
      </trkpt>
      <trkpt lat="45.56371" lon="5.73728">
        <ele>610</ele>
        <time>2019-10-27T10:33:01.000Z</time>
      </trkpt>
      <trkpt lat="45.56371" lon="5.73726">
        <ele>610</ele>
        <time>2019-10-27T10:33:02.000Z</time>
      </trkpt>
      <trkpt lat="45.56371" lon="5.73725">
        <ele>610</ele>
        <time>2019-10-27T10:33:03.000Z</time>
      </trkpt>
      <trkpt lat="45.5637" lon="5.73723">
        <ele>610</ele>
        <time>2019-10-27T10:33:04.000Z</time>
      </trkpt>
      <trkpt lat="45.5637" lon="5.73721">
        <ele>610</ele>
        <time>2019-10-27T10:33:05.000Z</time>
      </trkpt>
      <trkpt lat="45.56369" lon="5.7372">
        <ele>610</ele>
        <time>2019-10-27T10:33:06.000Z</time>
      </trkpt>
      <trkpt lat="45.56369" lon="5.73718">
        <ele>610.5</ele>
        <time>2019-10-27T10:33:07.000Z</time>
      </trkpt>
      <trkpt lat="45.56368" lon="5.73717">
        <ele>611</ele>
        <time>2019-10-27T10:33:08.000Z</time>
      </trkpt>
      <trkpt lat="45.56368" lon="5.73715">
        <ele>611</ele>
        <time>2019-10-27T10:33:09.000Z</time>
      </trkpt>
      <trkpt lat="45.56367" lon="5.73714">
        <ele>611</ele>
        <time>2019-10-27T10:33:10.000Z</time>
      </trkpt>
      <trkpt lat="45.56366" lon="5.73713">
        <ele>611</ele>
        <time>2019-10-27T10:33:11.000Z</time>
      </trkpt>
      <trkpt lat="45.56366" lon="5.73711">
        <ele>611</ele>
        <time>2019-10-27T10:33:12.000Z</time>
      </trkpt>
      <trkpt lat="45.56365" lon="5.7371">
        <ele>611</ele>
        <time>2019-10-27T10:33:13.000Z</time>
      </trkpt>
      <trkpt lat="45.56364" lon="5.73709">
        <ele>611</ele>
        <time>2019-10-27T10:33:14.000Z</time>
      </trkpt>
      <trkpt lat="45.56363" lon="5.73708">
        <ele>611</ele>
        <time>2019-10-27T10:33:15.000Z</time>
      </trkpt>
      <trkpt lat="45.56363" lon="5.73707">
        <ele>611.3</ele>
        <time>2019-10-27T10:33:16.000Z</time>
      </trkpt>
      <trkpt lat="45.56362" lon="5.73706">
        <ele>611.7</ele>
        <time>2019-10-27T10:33:17.000Z</time>
      </trkpt>
      <trkpt lat="45.56361" lon="5.73705">
        <ele>612</ele>
        <time>2019-10-27T10:33:18.000Z</time>
      </trkpt>
      <trkpt lat="45.56361" lon="5.73704">
        <ele>612</ele>
        <time>2019-10-27T10:33:19.000Z</time>
      </trkpt>
      <trkpt lat="45.5636" lon="5.73704">
        <ele>612</ele>
        <time>2019-10-27T10:33:20.000Z</time>
      </trkpt>
      <trkpt lat="45.56359" lon="5.73703">
        <ele>612</ele>
        <time>2019-10-27T10:33:21.000Z</time>
      </trkpt>
      <trkpt lat="45.56359" lon="5.73703">
        <ele>612</ele>
        <time>2019-10-27T10:33:22.000Z</time>
      </trkpt>
      <trkpt lat="45.56358" lon="5.73702">
        <ele>612</ele>
        <time>2019-10-27T10:33:23.000Z</time>
      </trkpt>
      <trkpt lat="45.56358" lon="5.73701">
        <ele>612</ele>
        <time>2019-10-27T10:33:24.000Z</time>
      </trkpt>
      <trkpt lat="45.56357" lon="5.73701">
        <ele>612.5</ele>
        <time>2019-10-27T10:33:25.000Z</time>
      </trkpt>
      <trkpt lat="45.56357" lon="5.737">
        <ele>613</ele>
        <time>2019-10-27T10:33:26.000Z</time>
      </trkpt>
      <trkpt lat="45.56357" lon="5.73699">
        <ele>613</ele>
        <time>2019-10-27T10:33:27.000Z</time>
      </trkpt>
      <trkpt lat="45.56356" lon="5.73699">
        <ele>613</ele>
        <time>2019-10-27T10:33:28.000Z</time>
      </trkpt>
      <trkpt lat="45.56356" lon="5.73698">
        <ele>613</ele>
        <time>2019-10-27T10:33:29.000Z</time>
      </trkpt>
      <trkpt lat="45.56356" lon="5.73697">
        <ele>613</ele>
        <time>2019-10-27T10:33:30.000Z</time>
      </trkpt>
      <trkpt lat="45.56356" lon="5.73696">
        <ele>613</ele>
        <time>2019-10-27T10:33:31.000Z</time>
      </trkpt>
      <trkpt lat="45.56355" lon="5.73695">
        <ele>613</ele>
        <time>2019-10-27T10:33:32.000Z</time>
      </trkpt>
      <trkpt lat="45.56355" lon="5.73694">
        <ele>613</ele>
        <time>2019-10-27T10:33:33.000Z</time>
      </trkpt>
      <trkpt lat="45.56354" lon="5.73692">
        <ele>613</ele>
        <time>2019-10-27T10:33:34.000Z</time>
      </trkpt>
      <trkpt lat="45.56354" lon="5.73691">
        <ele>613</ele>
        <time>2019-10-27T10:33:35.000Z</time>
      </trkpt>
      <trkpt lat="45.56353" lon="5.7369">
        <ele>613</ele>
        <time>2019-10-27T10:33:36.000Z</time>
      </trkpt>
      <trkpt lat="45.56353" lon="5.73688">
        <ele>614</ele>
        <time>2019-10-27T10:33:37.000Z</time>
      </trkpt>
      <trkpt lat="45.56352" lon="5.73687">
        <ele>614</ele>
        <time>2019-10-27T10:33:38.000Z</time>
      </trkpt>
      <trkpt lat="45.56351" lon="5.73685">
        <ele>614</ele>
        <time>2019-10-27T10:33:39.000Z</time>
      </trkpt>
      <trkpt lat="45.5635" lon="5.73684">
        <ele>614</ele>
        <time>2019-10-27T10:33:40.000Z</time>
      </trkpt>
      <trkpt lat="45.5635" lon="5.73682">
        <ele>614</ele>
        <time>2019-10-27T10:33:41.000Z</time>
      </trkpt>
      <trkpt lat="45.56349" lon="5.73681">
        <ele>614</ele>
        <time>2019-10-27T10:33:42.000Z</time>
      </trkpt>
      <trkpt lat="45.56348" lon="5.7368">
        <ele>614</ele>
        <time>2019-10-27T10:33:43.000Z</time>
      </trkpt>
      <trkpt lat="45.56347" lon="5.73678">
        <ele>614.5</ele>
        <time>2019-10-27T10:33:44.000Z</time>
      </trkpt>
      <trkpt lat="45.56347" lon="5.73677">
        <ele>615</ele>
        <time>2019-10-27T10:33:45.000Z</time>
      </trkpt>
      <trkpt lat="45.56346" lon="5.73677">
        <ele>615</ele>
        <time>2019-10-27T10:33:46.000Z</time>
      </trkpt>
      <trkpt lat="45.56345" lon="5.73676">
        <ele>615</ele>
        <time>2019-10-27T10:33:47.000Z</time>
      </trkpt>
      <trkpt lat="45.56345" lon="5.73675">
        <ele>615</ele>
        <time>2019-10-27T10:33:48.000Z</time>
      </trkpt>
      <trkpt lat="45.56344" lon="5.73674">
        <ele>615</ele>
        <time>2019-10-27T10:33:49.000Z</time>
      </trkpt>
      <trkpt lat="45.56344" lon="5.73673">
        <ele>615</ele>
        <time>2019-10-27T10:33:50.000Z</time>
      </trkpt>
      <trkpt lat="45.56343" lon="5.73672">
        <ele>615</ele>
        <time>2019-10-27T10:33:51.000Z</time>
      </trkpt>
      <trkpt lat="45.56342" lon="5.73671">
        <ele>615</ele>
        <time>2019-10-27T10:33:52.000Z</time>
      </trkpt>
      <trkpt lat="45.56342" lon="5.7367">
        <ele>615.5</ele>
        <time>2019-10-27T10:33:53.000Z</time>
      </trkpt>
      <trkpt lat="45.56341" lon="5.73669">
        <ele>616</ele>
        <time>2019-10-27T10:33:54.000Z</time>
      </trkpt>
      <trkpt lat="45.5634" lon="5.73668">
        <ele>616</ele>
        <time>2019-10-27T10:33:55.000Z</time>
      </trkpt>
      <trkpt lat="45.56339" lon="5.73667">
        <ele>616</ele>
        <time>2019-10-27T10:33:56.000Z</time>
      </trkpt>
      <trkpt lat="45.56338" lon="5.73666">
        <ele>616</ele>
        <time>2019-10-27T10:33:57.000Z</time>
      </trkpt>
      <trkpt lat="45.56337" lon="5.73665">
        <ele>616</ele>
        <time>2019-10-27T10:33:58.000Z</time>
      </trkpt>
      <trkpt lat="45.56336" lon="5.73664">
        <ele>617</ele>
        <time>2019-10-27T10:33:59.000Z</time>
      </trkpt>
      <trkpt lat="45.56335" lon="5.73662">
        <ele>617</ele>
        <time>2019-10-27T10:34:00.000Z</time>
      </trkpt>
      <trkpt lat="45.56334" lon="5.73661">
        <ele>617</ele>
        <time>2019-10-27T10:34:01.000Z</time>
      </trkpt>
      <trkpt lat="45.56334" lon="5.7366">
        <ele>617</ele>
        <time>2019-10-27T10:34:02.000Z</time>
      </trkpt>
      <trkpt lat="45.56333" lon="5.73658">
        <ele>618</ele>
        <time>2019-10-27T10:34:03.000Z</time>
      </trkpt>
      <trkpt lat="45.56332" lon="5.73657">
        <ele>618</ele>
        <time>2019-10-27T10:34:04.000Z</time>
      </trkpt>
      <trkpt lat="45.56331" lon="5.73656">
        <ele>618</ele>
        <time>2019-10-27T10:34:05.000Z</time>
      </trkpt>
      <trkpt lat="45.5633" lon="5.73655">
        <ele>618</ele>
        <time>2019-10-27T10:34:06.000Z</time>
      </trkpt>
      <trkpt lat="45.56329" lon="5.73654">
        <ele>618</ele>
        <time>2019-10-27T10:34:07.000Z</time>
      </trkpt>
      <trkpt lat="45.56328" lon="5.73653">
        <ele>618</ele>
        <time>2019-10-27T10:34:08.000Z</time>
      </trkpt>
      <trkpt lat="45.56327" lon="5.73652">
        <ele>618</ele>
        <time>2019-10-27T10:34:09.000Z</time>
      </trkpt>
      <trkpt lat="45.56327" lon="5.73651">
        <ele>618</ele>
        <time>2019-10-27T10:34:10.000Z</time>
      </trkpt>
      <trkpt lat="45.56326" lon="5.73651">
        <ele>618.5</ele>
        <time>2019-10-27T10:34:11.000Z</time>
      </trkpt>
      <trkpt lat="45.56325" lon="5.7365">
        <ele>619</ele>
        <time>2019-10-27T10:34:12.000Z</time>
      </trkpt>
      <trkpt lat="45.56324" lon="5.7365">
        <ele>619</ele>
        <time>2019-10-27T10:34:13.000Z</time>
      </trkpt>
      <trkpt lat="45.56324" lon="5.73649">
        <ele>619</ele>
        <time>2019-10-27T10:34:14.000Z</time>
      </trkpt>
      <trkpt lat="45.56323" lon="5.73648">
        <ele>619</ele>
        <time>2019-10-27T10:34:15.000Z</time>
      </trkpt>
      <trkpt lat="45.56322" lon="5.73648">
        <ele>619.5</ele>
        <time>2019-10-27T10:34:16.000Z</time>
      </trkpt>
      <trkpt lat="45.56322" lon="5.73647">
        <ele>620</ele>
        <time>2019-10-27T10:34:17.000Z</time>
      </trkpt>
      <trkpt lat="45.56321" lon="5.73646">
        <ele>620</ele>
        <time>2019-10-27T10:34:18.000Z</time>
      </trkpt>
      <trkpt lat="45.5632" lon="5.73645">
        <ele>620</ele>
        <time>2019-10-27T10:34:19.000Z</time>
      </trkpt>
      <trkpt lat="45.56319" lon="5.73644">
        <ele>620</ele>
        <time>2019-10-27T10:34:20.000Z</time>
      </trkpt>
      <trkpt lat="45.56318" lon="5.73643">
        <ele>620</ele>
        <time>2019-10-27T10:34:21.000Z</time>
      </trkpt>
      <trkpt lat="45.56317" lon="5.73642">
        <ele>620.3</ele>
        <time>2019-10-27T10:34:22.000Z</time>
      </trkpt>
      <trkpt lat="45.56316" lon="5.7364">
        <ele>620.7</ele>
        <time>2019-10-27T10:34:23.000Z</time>
      </trkpt>
      <trkpt lat="45.56314" lon="5.73639">
        <ele>621</ele>
        <time>2019-10-27T10:34:24.000Z</time>
      </trkpt>
      <trkpt lat="45.56313" lon="5.73638">
        <ele>621</ele>
        <time>2019-10-27T10:34:25.000Z</time>
      </trkpt>
      <trkpt lat="45.56312" lon="5.73637">
        <ele>621</ele>
        <time>2019-10-27T10:34:26.000Z</time>
      </trkpt>
      <trkpt lat="45.56311" lon="5.73635">
        <ele>621</ele>
        <time>2019-10-27T10:34:27.000Z</time>
      </trkpt>
      <trkpt lat="45.5631" lon="5.73634">
        <ele>621.3</ele>
        <time>2019-10-27T10:34:28.000Z</time>
      </trkpt>
      <trkpt lat="45.56309" lon="5.73633">
        <ele>621.7</ele>
        <time>2019-10-27T10:34:29.000Z</time>
      </trkpt>
      <trkpt lat="45.56308" lon="5.73632">
        <ele>622</ele>
        <time>2019-10-27T10:34:30.000Z</time>
      </trkpt>
      <trkpt lat="45.56308" lon="5.73632">
        <ele>622</ele>
        <time>2019-10-27T10:34:31.000Z</time>
      </trkpt>
      <trkpt lat="45.56307" lon="5.73631">
        <ele>622</ele>
        <time>2019-10-27T10:34:32.000Z</time>
      </trkpt>
      <trkpt lat="45.56307" lon="5.7363">
        <ele>622</ele>
        <time>2019-10-27T10:34:33.000Z</time>
      </trkpt>
      <trkpt lat="45.56306" lon="5.73629">
        <ele>622</ele>
        <time>2019-10-27T10:34:34.000Z</time>
      </trkpt>
      <trkpt lat="45.56306" lon="5.73628">
        <ele>622</ele>
        <time>2019-10-27T10:34:35.000Z</time>
      </trkpt>
      <trkpt lat="45.56305" lon="5.73626">
        <ele>622</ele>
        <time>2019-10-27T10:34:36.000Z</time>
      </trkpt>
      <trkpt lat="45.56304" lon="5.73624">
        <ele>623</ele>
        <time>2019-10-27T10:34:37.000Z</time>
      </trkpt>
      <trkpt lat="45.56303" lon="5.73622">
        <ele>623</ele>
        <time>2019-10-27T10:34:38.000Z</time>
      </trkpt>
      <trkpt lat="45.56303" lon="5.73621">
        <ele>623</ele>
        <time>2019-10-27T10:34:39.000Z</time>
      </trkpt>
      <trkpt lat="45.56302" lon="5.73619">
        <ele>623</ele>
        <time>2019-10-27T10:34:40.000Z</time>
      </trkpt>
      <trkpt lat="45.56301" lon="5.73618">
        <ele>623</ele>
        <time>2019-10-27T10:34:41.000Z</time>
      </trkpt>
      <trkpt lat="45.56301" lon="5.73617">
        <ele>623</ele>
        <time>2019-10-27T10:34:42.000Z</time>
      </trkpt>
      <trkpt lat="45.563" lon="5.73616">
        <ele>623</ele>
        <time>2019-10-27T10:34:43.000Z</time>
      </trkpt>
      <trkpt lat="45.563" lon="5.73615">
        <ele>623</ele>
        <time>2019-10-27T10:34:44.000Z</time>
      </trkpt>
      <trkpt lat="45.56299" lon="5.73614">
        <ele>623</ele>
        <time>2019-10-27T10:34:45.000Z</time>
      </trkpt>
      <trkpt lat="45.56299" lon="5.73613">
        <ele>623</ele>
        <time>2019-10-27T10:34:46.000Z</time>
      </trkpt>
      <trkpt lat="45.56298" lon="5.73611">
        <ele>623</ele>
        <time>2019-10-27T10:34:47.000Z</time>
      </trkpt>
      <trkpt lat="45.56298" lon="5.7361">
        <ele>623</ele>
        <time>2019-10-27T10:34:48.000Z</time>
      </trkpt>
      <trkpt lat="45.56297" lon="5.73609">
        <ele>623</ele>
        <time>2019-10-27T10:34:49.000Z</time>
      </trkpt>
      <trkpt lat="45.56297" lon="5.73607">
        <ele>623</ele>
        <time>2019-10-27T10:34:50.000Z</time>
      </trkpt>
      <trkpt lat="45.56296" lon="5.73606">
        <ele>623</ele>
        <time>2019-10-27T10:34:51.000Z</time>
      </trkpt>
      <trkpt lat="45.56296" lon="5.73605">
        <ele>623</ele>
        <time>2019-10-27T10:34:52.000Z</time>
      </trkpt>
      <trkpt lat="45.56296" lon="5.73603">
        <ele>624</ele>
        <time>2019-10-27T10:34:53.000Z</time>
      </trkpt>
      <trkpt lat="45.56295" lon="5.73602">
        <ele>624</ele>
        <time>2019-10-27T10:34:54.000Z</time>
      </trkpt>
      <trkpt lat="45.56295" lon="5.73601">
        <ele>624</ele>
        <time>2019-10-27T10:34:55.000Z</time>
      </trkpt>
      <trkpt lat="45.56295" lon="5.736">
        <ele>624</ele>
        <time>2019-10-27T10:34:56.000Z</time>
      </trkpt>
      <trkpt lat="45.56295" lon="5.73599">
        <ele>624</ele>
        <time>2019-10-27T10:34:57.000Z</time>
      </trkpt>
      <trkpt lat="45.56294" lon="5.73598">
        <ele>624</ele>
        <time>2019-10-27T10:34:58.000Z</time>
      </trkpt>
      <trkpt lat="45.56294" lon="5.73597">
        <ele>624</ele>
        <time>2019-10-27T10:34:59.000Z</time>
      </trkpt>
      <trkpt lat="45.56294" lon="5.73596">
        <ele>624</ele>
        <time>2019-10-27T10:35:00.000Z</time>
      </trkpt>
      <trkpt lat="45.56293" lon="5.73594">
        <ele>624</ele>
        <time>2019-10-27T10:35:01.000Z</time>
      </trkpt>
      <trkpt lat="45.56293" lon="5.73593">
        <ele>624</ele>
        <time>2019-10-27T10:35:02.000Z</time>
      </trkpt>
      <trkpt lat="45.56292" lon="5.73592">
        <ele>624</ele>
        <time>2019-10-27T10:35:03.000Z</time>
      </trkpt>
      <trkpt lat="45.56291" lon="5.7359">
        <ele>624</ele>
        <time>2019-10-27T10:35:04.000Z</time>
      </trkpt>
      <trkpt lat="45.56291" lon="5.73589">
        <ele>624</ele>
        <time>2019-10-27T10:35:05.000Z</time>
      </trkpt>
      <trkpt lat="45.5629" lon="5.73588">
        <ele>624</ele>
        <time>2019-10-27T10:35:06.000Z</time>
      </trkpt>
      <trkpt lat="45.5629" lon="5.73587">
        <ele>624</ele>
        <time>2019-10-27T10:35:07.000Z</time>
      </trkpt>
      <trkpt lat="45.56289" lon="5.73585">
        <ele>624</ele>
        <time>2019-10-27T10:35:08.000Z</time>
      </trkpt>
      <trkpt lat="45.56288" lon="5.73584">
        <ele>624</ele>
        <time>2019-10-27T10:35:09.000Z</time>
      </trkpt>
      <trkpt lat="45.56288" lon="5.73583">
        <ele>624</ele>
        <time>2019-10-27T10:35:10.000Z</time>
      </trkpt>
      <trkpt lat="45.56287" lon="5.73582">
        <ele>624</ele>
        <time>2019-10-27T10:35:11.000Z</time>
      </trkpt>
      <trkpt lat="45.56287" lon="5.73581">
        <ele>624</ele>
        <time>2019-10-27T10:35:12.000Z</time>
      </trkpt>
      <trkpt lat="45.56287" lon="5.7358">
        <ele>625</ele>
        <time>2019-10-27T10:35:13.000Z</time>
      </trkpt>
      <trkpt lat="45.56286" lon="5.73579">
        <ele>625</ele>
        <time>2019-10-27T10:35:14.000Z</time>
      </trkpt>
      <trkpt lat="45.56286" lon="5.73578">
        <ele>625</ele>
        <time>2019-10-27T10:35:15.000Z</time>
      </trkpt>
      <trkpt lat="45.56285" lon="5.73577">
        <ele>625</ele>
        <time>2019-10-27T10:35:16.000Z</time>
      </trkpt>
      <trkpt lat="45.56285" lon="5.73576">
        <ele>625</ele>
        <time>2019-10-27T10:35:17.000Z</time>
      </trkpt>
      <trkpt lat="45.56285" lon="5.73575">
        <ele>625</ele>
        <time>2019-10-27T10:35:18.000Z</time>
      </trkpt>
      <trkpt lat="45.56284" lon="5.73575">
        <ele>625</ele>
        <time>2019-10-27T10:35:19.000Z</time>
      </trkpt>
      <trkpt lat="45.56284" lon="5.73574">
        <ele>625</ele>
        <time>2019-10-27T10:35:20.000Z</time>
      </trkpt>
      <trkpt lat="45.56284" lon="5.73573">
        <ele>625</ele>
        <time>2019-10-27T10:35:21.000Z</time>
      </trkpt>
      <trkpt lat="45.56283" lon="5.73572">
        <ele>625</ele>
        <time>2019-10-27T10:35:22.000Z</time>
      </trkpt>
      <trkpt lat="45.56283" lon="5.73571">
        <ele>625</ele>
        <time>2019-10-27T10:35:23.000Z</time>
      </trkpt>
      <trkpt lat="45.56283" lon="5.7357">
        <ele>625</ele>
        <time>2019-10-27T10:35:24.000Z</time>
      </trkpt>
      <trkpt lat="45.56282" lon="5.73569">
        <ele>625.5</ele>
        <time>2019-10-27T10:35:25.000Z</time>
      </trkpt>
      <trkpt lat="45.56282" lon="5.73568">
        <ele>626</ele>
        <time>2019-10-27T10:35:26.000Z</time>
      </trkpt>
      <trkpt lat="45.56282" lon="5.73567">
        <ele>626</ele>
        <time>2019-10-27T10:35:27.000Z</time>
      </trkpt>
      <trkpt lat="45.56281" lon="5.73566">
        <ele>626</ele>
        <time>2019-10-27T10:35:28.000Z</time>
      </trkpt>
      <trkpt lat="45.56281" lon="5.73565">
        <ele>626</ele>
        <time>2019-10-27T10:35:29.000Z</time>
      </trkpt>
      <trkpt lat="45.56281" lon="5.73564">
        <ele>626</ele>
        <time>2019-10-27T10:35:30.000Z</time>
      </trkpt>
      <trkpt lat="45.5628" lon="5.73563">
        <ele>626</ele>
        <time>2019-10-27T10:35:31.000Z</time>
      </trkpt>
      <trkpt lat="45.5628" lon="5.73562">
        <ele>626</ele>
        <time>2019-10-27T10:35:32.000Z</time>
      </trkpt>
      <trkpt lat="45.56279" lon="5.73561">
        <ele>625.5</ele>
        <time>2019-10-27T10:35:33.000Z</time>
      </trkpt>
      <trkpt lat="45.56279" lon="5.7356">
        <ele>625</ele>
        <time>2019-10-27T10:35:34.000Z</time>
      </trkpt>
      <trkpt lat="45.56278" lon="5.73559">
        <ele>625</ele>
        <time>2019-10-27T10:35:35.000Z</time>
      </trkpt>
      <trkpt lat="45.56278" lon="5.73558">
        <ele>625</ele>
        <time>2019-10-27T10:35:36.000Z</time>
      </trkpt>
      <trkpt lat="45.56277" lon="5.73557">
        <ele>625</ele>
        <time>2019-10-27T10:35:37.000Z</time>
      </trkpt>
      <trkpt lat="45.56277" lon="5.73556">
        <ele>625</ele>
        <time>2019-10-27T10:35:38.000Z</time>
      </trkpt>
      <trkpt lat="45.56276" lon="5.73555">
        <ele>625</ele>
        <time>2019-10-27T10:35:39.000Z</time>
      </trkpt>
      <trkpt lat="45.56276" lon="5.73554">
        <ele>625</ele>
        <time>2019-10-27T10:35:40.000Z</time>
      </trkpt>
      <trkpt lat="45.56275" lon="5.73553">
        <ele>625</ele>
        <time>2019-10-27T10:35:41.000Z</time>
      </trkpt>
      <trkpt lat="45.56275" lon="5.73552">
        <ele>625</ele>
        <time>2019-10-27T10:35:42.000Z</time>
      </trkpt>
      <trkpt lat="45.56274" lon="5.73552">
        <ele>625</ele>
        <time>2019-10-27T10:35:43.000Z</time>
      </trkpt>
      <trkpt lat="45.56273" lon="5.73551">
        <ele>625</ele>
        <time>2019-10-27T10:35:44.000Z</time>
      </trkpt>
      <trkpt lat="45.56273" lon="5.7355">
        <ele>625</ele>
        <time>2019-10-27T10:35:45.000Z</time>
      </trkpt>
      <trkpt lat="45.56272" lon="5.73549">
        <ele>625</ele>
        <time>2019-10-27T10:35:46.000Z</time>
      </trkpt>
      <trkpt lat="45.56271" lon="5.73547">
        <ele>625</ele>
        <time>2019-10-27T10:35:47.000Z</time>
      </trkpt>
      <trkpt lat="45.56271" lon="5.73546">
        <ele>625</ele>
        <time>2019-10-27T10:35:48.000Z</time>
      </trkpt>
      <trkpt lat="45.5627" lon="5.73545">
        <ele>625</ele>
        <time>2019-10-27T10:35:49.000Z</time>
      </trkpt>
      <trkpt lat="45.56269" lon="5.73544">
        <ele>625</ele>
        <time>2019-10-27T10:35:50.000Z</time>
      </trkpt>
      <trkpt lat="45.56269" lon="5.73543">
        <ele>625</ele>
        <time>2019-10-27T10:35:51.000Z</time>
      </trkpt>
      <trkpt lat="45.56268" lon="5.73541">
        <ele>625</ele>
        <time>2019-10-27T10:35:52.000Z</time>
      </trkpt>
      <trkpt lat="45.56267" lon="5.7354">
        <ele>625</ele>
        <time>2019-10-27T10:35:53.000Z</time>
      </trkpt>
      <trkpt lat="45.56267" lon="5.73539">
        <ele>625</ele>
        <time>2019-10-27T10:35:54.000Z</time>
      </trkpt>
      <trkpt lat="45.56266" lon="5.73537">
        <ele>625</ele>
        <time>2019-10-27T10:35:55.000Z</time>
      </trkpt>
      <trkpt lat="45.56265" lon="5.73536">
        <ele>625</ele>
        <time>2019-10-27T10:35:56.000Z</time>
      </trkpt>
      <trkpt lat="45.56265" lon="5.73535">
        <ele>625</ele>
        <time>2019-10-27T10:35:57.000Z</time>
      </trkpt>
      <trkpt lat="45.56264" lon="5.73534">
        <ele>625</ele>
        <time>2019-10-27T10:35:58.000Z</time>
      </trkpt>
      <trkpt lat="45.56264" lon="5.73532">
        <ele>625</ele>
        <time>2019-10-27T10:35:59.000Z</time>
      </trkpt>
      <trkpt lat="45.56263" lon="5.73531">
        <ele>625</ele>
        <time>2019-10-27T10:36:00.000Z</time>
      </trkpt>
      <trkpt lat="45.56263" lon="5.7353">
        <ele>625</ele>
        <time>2019-10-27T10:36:01.000Z</time>
      </trkpt>
      <trkpt lat="45.56263" lon="5.73529">
        <ele>625</ele>
        <time>2019-10-27T10:36:02.000Z</time>
      </trkpt>
      <trkpt lat="45.56262" lon="5.73527">
        <ele>625</ele>
        <time>2019-10-27T10:36:03.000Z</time>
      </trkpt>
      <trkpt lat="45.56262" lon="5.73526">
        <ele>625</ele>
        <time>2019-10-27T10:36:04.000Z</time>
      </trkpt>
      <trkpt lat="45.56261" lon="5.73525">
        <ele>625</ele>
        <time>2019-10-27T10:36:05.000Z</time>
      </trkpt>
      <trkpt lat="45.56261" lon="5.73524">
        <ele>625</ele>
        <time>2019-10-27T10:36:06.000Z</time>
      </trkpt>
      <trkpt lat="45.56261" lon="5.73523">
        <ele>625</ele>
        <time>2019-10-27T10:36:07.000Z</time>
      </trkpt>
      <trkpt lat="45.5626" lon="5.73522">
        <ele>625</ele>
        <time>2019-10-27T10:36:08.000Z</time>
      </trkpt>
      <trkpt lat="45.5626" lon="5.73521">
        <ele>625</ele>
        <time>2019-10-27T10:36:09.000Z</time>
      </trkpt>
      <trkpt lat="45.5626" lon="5.7352">
        <ele>625</ele>
        <time>2019-10-27T10:36:10.000Z</time>
      </trkpt>
      <trkpt lat="45.56259" lon="5.73518">
        <ele>625</ele>
        <time>2019-10-27T10:36:11.000Z</time>
      </trkpt>
      <trkpt lat="45.56259" lon="5.73516">
        <ele>625</ele>
        <time>2019-10-27T10:36:12.000Z</time>
      </trkpt>
      <trkpt lat="45.56258" lon="5.73514">
        <ele>626</ele>
        <time>2019-10-27T10:36:13.000Z</time>
      </trkpt>
      <trkpt lat="45.56258" lon="5.73512">
        <ele>626</ele>
        <time>2019-10-27T10:36:14.000Z</time>
      </trkpt>
      <trkpt lat="45.56258" lon="5.7351">
        <ele>626</ele>
        <time>2019-10-27T10:36:15.000Z</time>
      </trkpt>
      <trkpt lat="45.56258" lon="5.73508">
        <ele>626</ele>
        <time>2019-10-27T10:36:16.000Z</time>
      </trkpt>
      <trkpt lat="45.56258" lon="5.73506">
        <ele>626</ele>
        <time>2019-10-27T10:36:17.000Z</time>
      </trkpt>
      <trkpt lat="45.56258" lon="5.73504">
        <ele>626</ele>
        <time>2019-10-27T10:36:18.000Z</time>
      </trkpt>
      <trkpt lat="45.56258" lon="5.73502">
        <ele>626</ele>
        <time>2019-10-27T10:36:19.000Z</time>
      </trkpt>
      <trkpt lat="45.56258" lon="5.735">
        <ele>626</ele>
        <time>2019-10-27T10:36:20.000Z</time>
      </trkpt>
      <trkpt lat="45.56258" lon="5.73498">
        <ele>626</ele>
        <time>2019-10-27T10:36:21.000Z</time>
      </trkpt>
      <trkpt lat="45.56258" lon="5.73497">
        <ele>626</ele>
        <time>2019-10-27T10:36:22.000Z</time>
      </trkpt>
      <trkpt lat="45.56258" lon="5.73495">
        <ele>626</ele>
        <time>2019-10-27T10:36:23.000Z</time>
      </trkpt>
      <trkpt lat="45.56258" lon="5.73494">
        <ele>626</ele>
        <time>2019-10-27T10:36:24.000Z</time>
      </trkpt>
      <trkpt lat="45.56258" lon="5.73492">
        <ele>626</ele>
        <time>2019-10-27T10:36:25.000Z</time>
      </trkpt>
      <trkpt lat="45.56258" lon="5.73491">
        <ele>626</ele>
        <time>2019-10-27T10:36:26.000Z</time>
      </trkpt>
      <trkpt lat="45.56258" lon="5.7349">
        <ele>626</ele>
        <time>2019-10-27T10:36:27.000Z</time>
      </trkpt>
      <trkpt lat="45.56258" lon="5.73489">
        <ele>626</ele>
        <time>2019-10-27T10:36:28.000Z</time>
      </trkpt>
      <trkpt lat="45.56258" lon="5.73488">
        <ele>626</ele>
        <time>2019-10-27T10:36:29.000Z</time>
      </trkpt>
      <trkpt lat="45.56258" lon="5.73486">
        <ele>626</ele>
        <time>2019-10-27T10:36:30.000Z</time>
      </trkpt>
      <trkpt lat="45.56258" lon="5.73484">
        <ele>625.5</ele>
        <time>2019-10-27T10:36:31.000Z</time>
      </trkpt>
      <trkpt lat="45.56258" lon="5.73482">
        <ele>625</ele>
        <time>2019-10-27T10:36:32.000Z</time>
      </trkpt>
      <trkpt lat="45.56258" lon="5.7348">
        <ele>625</ele>
        <time>2019-10-27T10:36:33.000Z</time>
      </trkpt>
      <trkpt lat="45.56258" lon="5.73477">
        <ele>625</ele>
        <time>2019-10-27T10:36:34.000Z</time>
      </trkpt>
      <trkpt lat="45.56258" lon="5.73475">
        <ele>625</ele>
        <time>2019-10-27T10:36:35.000Z</time>
      </trkpt>
      <trkpt lat="45.56258" lon="5.73473">
        <ele>625</ele>
        <time>2019-10-27T10:36:36.000Z</time>
      </trkpt>
      <trkpt lat="45.56258" lon="5.73471">
        <ele>624.5</ele>
        <time>2019-10-27T10:36:37.000Z</time>
      </trkpt>
      <trkpt lat="45.56258" lon="5.73469">
        <ele>624</ele>
        <time>2019-10-27T10:36:38.000Z</time>
      </trkpt>
      <trkpt lat="45.56258" lon="5.73466">
        <ele>624</ele>
        <time>2019-10-27T10:36:39.000Z</time>
      </trkpt>
      <trkpt lat="45.56259" lon="5.73464">
        <ele>624</ele>
        <time>2019-10-27T10:36:40.000Z</time>
      </trkpt>
      <trkpt lat="45.56259" lon="5.73462">
        <ele>624</ele>
        <time>2019-10-27T10:36:41.000Z</time>
      </trkpt>
      <trkpt lat="45.56259" lon="5.73461">
        <ele>624</ele>
        <time>2019-10-27T10:36:42.000Z</time>
      </trkpt>
      <trkpt lat="45.5626" lon="5.73459">
        <ele>624</ele>
        <time>2019-10-27T10:36:43.000Z</time>
      </trkpt>
      <trkpt lat="45.5626" lon="5.73458">
        <ele>624</ele>
        <time>2019-10-27T10:36:44.000Z</time>
      </trkpt>
      <trkpt lat="45.5626" lon="5.73457">
        <ele>624</ele>
        <time>2019-10-27T10:36:45.000Z</time>
      </trkpt>
      <trkpt lat="45.56261" lon="5.73455">
        <ele>624</ele>
        <time>2019-10-27T10:36:46.000Z</time>
      </trkpt>
      <trkpt lat="45.56261" lon="5.73454">
        <ele>623</ele>
        <time>2019-10-27T10:36:47.000Z</time>
      </trkpt>
      <trkpt lat="45.56262" lon="5.73453">
        <ele>623</ele>
        <time>2019-10-27T10:36:48.000Z</time>
      </trkpt>
      <trkpt lat="45.56263" lon="5.73451">
        <ele>623</ele>
        <time>2019-10-27T10:36:49.000Z</time>
      </trkpt>
      <trkpt lat="45.56263" lon="5.7345">
        <ele>623</ele>
        <time>2019-10-27T10:36:50.000Z</time>
      </trkpt>
      <trkpt lat="45.56264" lon="5.73449">
        <ele>623</ele>
        <time>2019-10-27T10:36:51.000Z</time>
      </trkpt>
      <trkpt lat="45.56264" lon="5.73448">
        <ele>623</ele>
        <time>2019-10-27T10:36:52.000Z</time>
      </trkpt>
      <trkpt lat="45.56265" lon="5.73447">
        <ele>623</ele>
        <time>2019-10-27T10:36:53.000Z</time>
      </trkpt>
      <trkpt lat="45.56266" lon="5.73446">
        <ele>623</ele>
        <time>2019-10-27T10:36:54.000Z</time>
      </trkpt>
      <trkpt lat="45.56266" lon="5.73446">
        <ele>623</ele>
        <time>2019-10-27T10:36:55.000Z</time>
      </trkpt>
      <trkpt lat="45.56267" lon="5.73445">
        <ele>623</ele>
        <time>2019-10-27T10:36:56.000Z</time>
      </trkpt>
      <trkpt lat="45.56268" lon="5.73444">
        <ele>623</ele>
        <time>2019-10-27T10:36:57.000Z</time>
      </trkpt>
      <trkpt lat="45.56268" lon="5.73443">
        <ele>622.7</ele>
        <time>2019-10-27T10:36:58.000Z</time>
      </trkpt>
      <trkpt lat="45.56269" lon="5.73442">
        <ele>622.3</ele>
        <time>2019-10-27T10:36:59.000Z</time>
      </trkpt>
      <trkpt lat="45.5627" lon="5.73441">
        <ele>622</ele>
        <time>2019-10-27T10:37:00.000Z</time>
      </trkpt>
      <trkpt lat="45.5627" lon="5.7344">
        <ele>622</ele>
        <time>2019-10-27T10:37:01.000Z</time>
      </trkpt>
      <trkpt lat="45.56271" lon="5.73439">
        <ele>622</ele>
        <time>2019-10-27T10:37:02.000Z</time>
      </trkpt>
      <trkpt lat="45.56271" lon="5.73437">
        <ele>622</ele>
        <time>2019-10-27T10:37:03.000Z</time>
      </trkpt>
      <trkpt lat="45.56272" lon="5.73436">
        <ele>622</ele>
        <time>2019-10-27T10:37:04.000Z</time>
      </trkpt>
      <trkpt lat="45.56272" lon="5.73435">
        <ele>622</ele>
        <time>2019-10-27T10:37:05.000Z</time>
      </trkpt>
      <trkpt lat="45.56273" lon="5.73433">
        <ele>622</ele>
        <time>2019-10-27T10:37:06.000Z</time>
      </trkpt>
      <trkpt lat="45.56273" lon="5.73432">
        <ele>622</ele>
        <time>2019-10-27T10:37:07.000Z</time>
      </trkpt>
      <trkpt lat="45.56274" lon="5.7343">
        <ele>622</ele>
        <time>2019-10-27T10:37:08.000Z</time>
      </trkpt>
      <trkpt lat="45.56274" lon="5.73429">
        <ele>622</ele>
        <time>2019-10-27T10:37:09.000Z</time>
      </trkpt>
      <trkpt lat="45.56275" lon="5.73427">
        <ele>622</ele>
        <time>2019-10-27T10:37:10.000Z</time>
      </trkpt>
      <trkpt lat="45.56276" lon="5.73426">
        <ele>622</ele>
        <time>2019-10-27T10:37:11.000Z</time>
      </trkpt>
      <trkpt lat="45.56277" lon="5.73425">
        <ele>622</ele>
        <time>2019-10-27T10:37:12.000Z</time>
      </trkpt>
      <trkpt lat="45.56277" lon="5.73424">
        <ele>622</ele>
        <time>2019-10-27T10:37:13.000Z</time>
      </trkpt>
      <trkpt lat="45.56278" lon="5.73423">
        <ele>622</ele>
        <time>2019-10-27T10:37:14.000Z</time>
      </trkpt>
      <trkpt lat="45.56279" lon="5.73422">
        <ele>622</ele>
        <time>2019-10-27T10:37:15.000Z</time>
      </trkpt>
      <trkpt lat="45.5628" lon="5.73421">
        <ele>622</ele>
        <time>2019-10-27T10:37:16.000Z</time>
      </trkpt>
      <trkpt lat="45.56281" lon="5.7342">
        <ele>622</ele>
        <time>2019-10-27T10:37:17.000Z</time>
      </trkpt>
      <trkpt lat="45.56281" lon="5.73419">
        <ele>622</ele>
        <time>2019-10-27T10:37:18.000Z</time>
      </trkpt>
      <trkpt lat="45.56282" lon="5.73418">
        <ele>622</ele>
        <time>2019-10-27T10:37:19.000Z</time>
      </trkpt>
      <trkpt lat="45.56283" lon="5.73417">
        <ele>622</ele>
        <time>2019-10-27T10:37:20.000Z</time>
      </trkpt>
      <trkpt lat="45.56284" lon="5.73416">
        <ele>622</ele>
        <time>2019-10-27T10:37:21.000Z</time>
      </trkpt>
      <trkpt lat="45.56284" lon="5.73416">
        <ele>622</ele>
        <time>2019-10-27T10:37:22.000Z</time>
      </trkpt>
      <trkpt lat="45.56285" lon="5.73415">
        <ele>622</ele>
        <time>2019-10-27T10:37:23.000Z</time>
      </trkpt>
      <trkpt lat="45.56285" lon="5.73414">
        <ele>622</ele>
        <time>2019-10-27T10:37:24.000Z</time>
      </trkpt>
      <trkpt lat="45.56286" lon="5.73413">
        <ele>622</ele>
        <time>2019-10-27T10:37:25.000Z</time>
      </trkpt>
      <trkpt lat="45.56286" lon="5.73412">
        <ele>622</ele>
        <time>2019-10-27T10:37:26.000Z</time>
      </trkpt>
      <trkpt lat="45.56287" lon="5.73411">
        <ele>622</ele>
        <time>2019-10-27T10:37:27.000Z</time>
      </trkpt>
      <trkpt lat="45.56288" lon="5.7341">
        <ele>622</ele>
        <time>2019-10-27T10:37:28.000Z</time>
      </trkpt>
      <trkpt lat="45.56289" lon="5.73409">
        <ele>622</ele>
        <time>2019-10-27T10:37:29.000Z</time>
      </trkpt>
      <trkpt lat="45.5629" lon="5.73409">
        <ele>622</ele>
        <time>2019-10-27T10:37:30.000Z</time>
      </trkpt>
      <trkpt lat="45.56291" lon="5.73408">
        <ele>622</ele>
        <time>2019-10-27T10:37:31.000Z</time>
      </trkpt>
      <trkpt lat="45.56292" lon="5.73407">
        <ele>622</ele>
        <time>2019-10-27T10:37:32.000Z</time>
      </trkpt>
      <trkpt lat="45.56293" lon="5.73407">
        <ele>622</ele>
        <time>2019-10-27T10:37:33.000Z</time>
      </trkpt>
      <trkpt lat="45.56294" lon="5.73406">
        <ele>622</ele>
        <time>2019-10-27T10:37:34.000Z</time>
      </trkpt>
      <trkpt lat="45.56295" lon="5.73406">
        <ele>622</ele>
        <time>2019-10-27T10:37:35.000Z</time>
      </trkpt>
      <trkpt lat="45.56295" lon="5.73405">
        <ele>622</ele>
        <time>2019-10-27T10:37:36.000Z</time>
      </trkpt>
      <trkpt lat="45.56296" lon="5.73405">
        <ele>622</ele>
        <time>2019-10-27T10:37:37.000Z</time>
      </trkpt>
      <trkpt lat="45.56296" lon="5.73404">
        <ele>622</ele>
        <time>2019-10-27T10:37:38.000Z</time>
      </trkpt>
      <trkpt lat="45.56297" lon="5.73403">
        <ele>622</ele>
        <time>2019-10-27T10:37:39.000Z</time>
      </trkpt>
      <trkpt lat="45.56298" lon="5.73403">
        <ele>622</ele>
        <time>2019-10-27T10:37:40.000Z</time>
      </trkpt>
      <trkpt lat="45.56298" lon="5.73402">
        <ele>622</ele>
        <time>2019-10-27T10:37:41.000Z</time>
      </trkpt>
      <trkpt lat="45.56299" lon="5.73402">
        <ele>622</ele>
        <time>2019-10-27T10:37:42.000Z</time>
      </trkpt>
      <trkpt lat="45.563" lon="5.73402">
        <ele>622</ele>
        <time>2019-10-27T10:37:43.000Z</time>
      </trkpt>
      <trkpt lat="45.56301" lon="5.73401">
        <ele>622</ele>
        <time>2019-10-27T10:37:44.000Z</time>
      </trkpt>
      <trkpt lat="45.56301" lon="5.73401">
        <ele>621</ele>
        <time>2019-10-27T10:37:45.000Z</time>
      </trkpt>
      <trkpt lat="45.56302" lon="5.73401">
        <ele>621</ele>
        <time>2019-10-27T10:37:46.000Z</time>
      </trkpt>
      <trkpt lat="45.56303" lon="5.734">
        <ele>621</ele>
        <time>2019-10-27T10:37:47.000Z</time>
      </trkpt>
      <trkpt lat="45.56304" lon="5.734">
        <ele>621</ele>
        <time>2019-10-27T10:37:48.000Z</time>
      </trkpt>
      <trkpt lat="45.56305" lon="5.734">
        <ele>621</ele>
        <time>2019-10-27T10:37:49.000Z</time>
      </trkpt>
      <trkpt lat="45.56305" lon="5.734">
        <ele>621</ele>
        <time>2019-10-27T10:37:50.000Z</time>
      </trkpt>
      <trkpt lat="45.56306" lon="5.73399">
        <ele>621</ele>
        <time>2019-10-27T10:37:51.000Z</time>
      </trkpt>
      <trkpt lat="45.56306" lon="5.73399">
        <ele>620.7</ele>
        <time>2019-10-27T10:37:52.000Z</time>
      </trkpt>
      <trkpt lat="45.56306" lon="5.73399">
        <ele>620.3</ele>
        <time>2019-10-27T10:37:53.000Z</time>
      </trkpt>
      <trkpt lat="45.56307" lon="5.73398">
        <ele>620</ele>
        <time>2019-10-27T10:37:54.000Z</time>
      </trkpt>
      <trkpt lat="45.5631" lon="5.73396">
        <ele>620</ele>
        <time>2019-10-27T10:37:55.000Z</time>
      </trkpt>
      <trkpt lat="45.56312" lon="5.73396">
        <ele>620</ele>
        <time>2019-10-27T10:37:56.000Z</time>
      </trkpt>
      <trkpt lat="45.56313" lon="5.73395">
        <ele>620</ele>
        <time>2019-10-27T10:37:57.000Z</time>
      </trkpt>
      <trkpt lat="45.56313" lon="5.73395">
        <ele>620</ele>
        <time>2019-10-27T10:37:58.000Z</time>
      </trkpt>
      <trkpt lat="45.56314" lon="5.73394">
        <ele>619.5</ele>
        <time>2019-10-27T10:37:59.000Z</time>
      </trkpt>
      <trkpt lat="45.56315" lon="5.73394">
        <ele>619</ele>
        <time>2019-10-27T10:38:00.000Z</time>
      </trkpt>
      <trkpt lat="45.56316" lon="5.73394">
        <ele>619</ele>
        <time>2019-10-27T10:38:01.000Z</time>
      </trkpt>
      <trkpt lat="45.56317" lon="5.73394">
        <ele>619</ele>
        <time>2019-10-27T10:38:02.000Z</time>
      </trkpt>
      <trkpt lat="45.56318" lon="5.73393">
        <ele>619</ele>
        <time>2019-10-27T10:38:03.000Z</time>
      </trkpt>
      <trkpt lat="45.56319" lon="5.73393">
        <ele>619</ele>
        <time>2019-10-27T10:38:04.000Z</time>
      </trkpt>
      <trkpt lat="45.56319" lon="5.73393">
        <ele>618</ele>
        <time>2019-10-27T10:38:05.000Z</time>
      </trkpt>
      <trkpt lat="45.5632" lon="5.73393">
        <ele>618</ele>
        <time>2019-10-27T10:38:06.000Z</time>
      </trkpt>
      <trkpt lat="45.56321" lon="5.73393">
        <ele>618</ele>
        <time>2019-10-27T10:38:07.000Z</time>
      </trkpt>
      <trkpt lat="45.56322" lon="5.73392">
        <ele>618</ele>
        <time>2019-10-27T10:38:08.000Z</time>
      </trkpt>
      <trkpt lat="45.56323" lon="5.73392">
        <ele>617.5</ele>
        <time>2019-10-27T10:38:09.000Z</time>
      </trkpt>
      <trkpt lat="45.56324" lon="5.73392">
        <ele>617</ele>
        <time>2019-10-27T10:38:10.000Z</time>
      </trkpt>
      <trkpt lat="45.56326" lon="5.73392">
        <ele>617</ele>
        <time>2019-10-27T10:38:11.000Z</time>
      </trkpt>
      <trkpt lat="45.56327" lon="5.73392">
        <ele>617</ele>
        <time>2019-10-27T10:38:12.000Z</time>
      </trkpt>
      <trkpt lat="45.56328" lon="5.73392">
        <ele>617</ele>
        <time>2019-10-27T10:38:13.000Z</time>
      </trkpt>
      <trkpt lat="45.56329" lon="5.73392">
        <ele>617</ele>
        <time>2019-10-27T10:38:14.000Z</time>
      </trkpt>
      <trkpt lat="45.5633" lon="5.73391">
        <ele>616.5</ele>
        <time>2019-10-27T10:38:15.000Z</time>
      </trkpt>
      <trkpt lat="45.5633" lon="5.73391">
        <ele>616</ele>
        <time>2019-10-27T10:38:16.000Z</time>
      </trkpt>
      <trkpt lat="45.5633" lon="5.73391">
        <ele>616</ele>
        <time>2019-10-27T10:38:17.000Z</time>
      </trkpt>
      <trkpt lat="45.56331" lon="5.73391">
        <ele>616</ele>
        <time>2019-10-27T10:38:18.000Z</time>
      </trkpt>
      <trkpt lat="45.56332" lon="5.73391">
        <ele>616</ele>
        <time>2019-10-27T10:38:19.000Z</time>
      </trkpt>
      <trkpt lat="45.56333" lon="5.73391">
        <ele>616</ele>
        <time>2019-10-27T10:38:20.000Z</time>
      </trkpt>
      <trkpt lat="45.56336" lon="5.73391">
        <ele>615</ele>
        <time>2019-10-27T10:38:21.000Z</time>
      </trkpt>
      <trkpt lat="45.56337" lon="5.73391">
        <ele>615</ele>
        <time>2019-10-27T10:38:22.000Z</time>
      </trkpt>
      <trkpt lat="45.56338" lon="5.73392">
        <ele>615</ele>
        <time>2019-10-27T10:38:23.000Z</time>
      </trkpt>
      <trkpt lat="45.5634" lon="5.73393">
        <ele>615</ele>
        <time>2019-10-27T10:38:24.000Z</time>
      </trkpt>
      <trkpt lat="45.56342" lon="5.73394">
        <ele>614</ele>
        <time>2019-10-27T10:38:25.000Z</time>
      </trkpt>
      <trkpt lat="45.56344" lon="5.73395">
        <ele>614</ele>
        <time>2019-10-27T10:38:26.000Z</time>
      </trkpt>
      <trkpt lat="45.56345" lon="5.73396">
        <ele>614</ele>
        <time>2019-10-27T10:38:27.000Z</time>
      </trkpt>
      <trkpt lat="45.56347" lon="5.73397">
        <ele>614</ele>
        <time>2019-10-27T10:38:28.000Z</time>
      </trkpt>
      <trkpt lat="45.56348" lon="5.73398">
        <ele>614</ele>
        <time>2019-10-27T10:38:29.000Z</time>
      </trkpt>
      <trkpt lat="45.5635" lon="5.734">
        <ele>614</ele>
        <time>2019-10-27T10:38:30.000Z</time>
      </trkpt>
      <trkpt lat="45.56351" lon="5.73401">
        <ele>613.5</ele>
        <time>2019-10-27T10:38:31.000Z</time>
      </trkpt>
      <trkpt lat="45.56352" lon="5.73402">
        <ele>613</ele>
        <time>2019-10-27T10:38:32.000Z</time>
      </trkpt>
      <trkpt lat="45.56353" lon="5.73404">
        <ele>613</ele>
        <time>2019-10-27T10:38:33.000Z</time>
      </trkpt>
      <trkpt lat="45.56355" lon="5.73405">
        <ele>613</ele>
        <time>2019-10-27T10:38:34.000Z</time>
      </trkpt>
      <trkpt lat="45.56356" lon="5.73406">
        <ele>613</ele>
        <time>2019-10-27T10:38:35.000Z</time>
      </trkpt>
      <trkpt lat="45.56357" lon="5.73407">
        <ele>613</ele>
        <time>2019-10-27T10:38:36.000Z</time>
      </trkpt>
      <trkpt lat="45.56358" lon="5.73408">
        <ele>612</ele>
        <time>2019-10-27T10:38:37.000Z</time>
      </trkpt>
      <trkpt lat="45.56359" lon="5.73409">
        <ele>612</ele>
        <time>2019-10-27T10:38:38.000Z</time>
      </trkpt>
      <trkpt lat="45.56361" lon="5.7341">
        <ele>612</ele>
        <time>2019-10-27T10:38:39.000Z</time>
      </trkpt>
      <trkpt lat="45.56362" lon="5.73411">
        <ele>612</ele>
        <time>2019-10-27T10:38:40.000Z</time>
      </trkpt>
      <trkpt lat="45.56363" lon="5.73412">
        <ele>612</ele>
        <time>2019-10-27T10:38:41.000Z</time>
      </trkpt>
      <trkpt lat="45.56364" lon="5.73413">
        <ele>612</ele>
        <time>2019-10-27T10:38:42.000Z</time>
      </trkpt>
      <trkpt lat="45.56366" lon="5.73414">
        <ele>611.5</ele>
        <time>2019-10-27T10:38:43.000Z</time>
      </trkpt>
      <trkpt lat="45.56367" lon="5.73415">
        <ele>611</ele>
        <time>2019-10-27T10:38:44.000Z</time>
      </trkpt>
      <trkpt lat="45.56368" lon="5.73416">
        <ele>611</ele>
        <time>2019-10-27T10:38:45.000Z</time>
      </trkpt>
      <trkpt lat="45.56369" lon="5.73417">
        <ele>611</ele>
        <time>2019-10-27T10:38:46.000Z</time>
      </trkpt>
      <trkpt lat="45.5637" lon="5.73418">
        <ele>611</ele>
        <time>2019-10-27T10:38:47.000Z</time>
      </trkpt>
      <trkpt lat="45.56372" lon="5.73419">
        <ele>611</ele>
        <time>2019-10-27T10:38:48.000Z</time>
      </trkpt>
      <trkpt lat="45.56373" lon="5.7342">
        <ele>611</ele>
        <time>2019-10-27T10:38:49.000Z</time>
      </trkpt>
      <trkpt lat="45.56374" lon="5.73421">
        <ele>611</ele>
        <time>2019-10-27T10:38:50.000Z</time>
      </trkpt>
      <trkpt lat="45.56375" lon="5.73422">
        <ele>611</ele>
        <time>2019-10-27T10:38:51.000Z</time>
      </trkpt>
      <trkpt lat="45.56376" lon="5.73422">
        <ele>611</ele>
        <time>2019-10-27T10:38:52.000Z</time>
      </trkpt>
      <trkpt lat="45.56377" lon="5.73423">
        <ele>611</ele>
        <time>2019-10-27T10:38:53.000Z</time>
      </trkpt>
      <trkpt lat="45.56378" lon="5.73424">
        <ele>611</ele>
        <time>2019-10-27T10:38:54.000Z</time>
      </trkpt>
      <trkpt lat="45.56379" lon="5.73425">
        <ele>610</ele>
        <time>2019-10-27T10:38:55.000Z</time>
      </trkpt>
      <trkpt lat="45.5638" lon="5.73425">
        <ele>610</ele>
        <time>2019-10-27T10:38:56.000Z</time>
      </trkpt>
      <trkpt lat="45.56381" lon="5.73426">
        <ele>610</ele>
        <time>2019-10-27T10:38:57.000Z</time>
      </trkpt>
      <trkpt lat="45.56382" lon="5.73427">
        <ele>610</ele>
        <time>2019-10-27T10:38:58.000Z</time>
      </trkpt>
      <trkpt lat="45.56383" lon="5.73427">
        <ele>610</ele>
        <time>2019-10-27T10:38:59.000Z</time>
      </trkpt>
      <trkpt lat="45.56384" lon="5.73428">
        <ele>610</ele>
        <time>2019-10-27T10:39:00.000Z</time>
      </trkpt>
      <trkpt lat="45.56385" lon="5.73428">
        <ele>610</ele>
        <time>2019-10-27T10:39:01.000Z</time>
      </trkpt>
      <trkpt lat="45.56386" lon="5.73429">
        <ele>609.7</ele>
        <time>2019-10-27T10:39:02.000Z</time>
      </trkpt>
      <trkpt lat="45.56386" lon="5.7343">
        <ele>609.3</ele>
        <time>2019-10-27T10:39:03.000Z</time>
      </trkpt>
      <trkpt lat="45.56387" lon="5.7343">
        <ele>609</ele>
        <time>2019-10-27T10:39:04.000Z</time>
      </trkpt>
      <trkpt lat="45.56388" lon="5.73431">
        <ele>609</ele>
        <time>2019-10-27T10:39:05.000Z</time>
      </trkpt>
      <trkpt lat="45.56389" lon="5.73431">
        <ele>609</ele>
        <time>2019-10-27T10:39:06.000Z</time>
      </trkpt>
      <trkpt lat="45.5639" lon="5.73432">
        <ele>609</ele>
        <time>2019-10-27T10:39:07.000Z</time>
      </trkpt>
      <trkpt lat="45.56391" lon="5.73433">
        <ele>609</ele>
        <time>2019-10-27T10:39:08.000Z</time>
      </trkpt>
      <trkpt lat="45.56392" lon="5.73433">
        <ele>609</ele>
        <time>2019-10-27T10:39:09.000Z</time>
      </trkpt>
      <trkpt lat="45.56393" lon="5.73434">
        <ele>609</ele>
        <time>2019-10-27T10:39:10.000Z</time>
      </trkpt>
      <trkpt lat="45.56394" lon="5.73435">
        <ele>608</ele>
        <time>2019-10-27T10:39:11.000Z</time>
      </trkpt>
      <trkpt lat="45.56395" lon="5.73436">
        <ele>608</ele>
        <time>2019-10-27T10:39:12.000Z</time>
      </trkpt>
      <trkpt lat="45.56395" lon="5.73437">
        <ele>608</ele>
        <time>2019-10-27T10:39:13.000Z</time>
      </trkpt>
      <trkpt lat="45.56396" lon="5.73438">
        <ele>608</ele>
        <time>2019-10-27T10:39:14.000Z</time>
      </trkpt>
      <trkpt lat="45.56397" lon="5.73438">
        <ele>608</ele>
        <time>2019-10-27T10:39:15.000Z</time>
      </trkpt>
      <trkpt lat="45.56398" lon="5.73439">
        <ele>608</ele>
        <time>2019-10-27T10:39:16.000Z</time>
      </trkpt>
      <trkpt lat="45.56398" lon="5.73439">
        <ele>607</ele>
        <time>2019-10-27T10:39:17.000Z</time>
      </trkpt>
      <trkpt lat="45.56399" lon="5.7344">
        <ele>607</ele>
        <time>2019-10-27T10:39:18.000Z</time>
      </trkpt>
      <trkpt lat="45.56399" lon="5.7344">
        <ele>607</ele>
        <time>2019-10-27T10:39:19.000Z</time>
      </trkpt>
      <trkpt lat="45.564" lon="5.7344">
        <ele>607</ele>
        <time>2019-10-27T10:39:20.000Z</time>
      </trkpt>
      <trkpt lat="45.56401" lon="5.7344">
        <ele>607</ele>
        <time>2019-10-27T10:39:21.000Z</time>
      </trkpt>
      <trkpt lat="45.56402" lon="5.7344">
        <ele>607</ele>
        <time>2019-10-27T10:39:22.000Z</time>
      </trkpt>
      <trkpt lat="45.56403" lon="5.7344">
        <ele>607</ele>
        <time>2019-10-27T10:39:23.000Z</time>
      </trkpt>
      <trkpt lat="45.56404" lon="5.7344">
        <ele>607</ele>
        <time>2019-10-27T10:39:24.000Z</time>
      </trkpt>
      <trkpt lat="45.56405" lon="5.7344">
        <ele>607</ele>
        <time>2019-10-27T10:39:25.000Z</time>
      </trkpt>
      <trkpt lat="45.56407" lon="5.7344">
        <ele>607</ele>
        <time>2019-10-27T10:39:26.000Z</time>
      </trkpt>
      <trkpt lat="45.56408" lon="5.73439">
        <ele>607</ele>
        <time>2019-10-27T10:39:27.000Z</time>
      </trkpt>
      <trkpt lat="45.56409" lon="5.73439">
        <ele>607</ele>
        <time>2019-10-27T10:39:28.000Z</time>
      </trkpt>
      <trkpt lat="45.5641" lon="5.73438">
        <ele>607</ele>
        <time>2019-10-27T10:39:29.000Z</time>
      </trkpt>
      <trkpt lat="45.56411" lon="5.73437">
        <ele>607.3</ele>
        <time>2019-10-27T10:39:30.000Z</time>
      </trkpt>
      <trkpt lat="45.56413" lon="5.73436">
        <ele>607.7</ele>
        <time>2019-10-27T10:39:31.000Z</time>
      </trkpt>
      <trkpt lat="45.56414" lon="5.73436">
        <ele>608</ele>
        <time>2019-10-27T10:39:32.000Z</time>
      </trkpt>
      <trkpt lat="45.56414" lon="5.73435">
        <ele>608</ele>
        <time>2019-10-27T10:39:33.000Z</time>
      </trkpt>
      <trkpt lat="45.56415" lon="5.73434">
        <ele>608</ele>
        <time>2019-10-27T10:39:34.000Z</time>
      </trkpt>
      <trkpt lat="45.56416" lon="5.73433">
        <ele>608</ele>
        <time>2019-10-27T10:39:35.000Z</time>
      </trkpt>
      <trkpt lat="45.56417" lon="5.73433">
        <ele>607.7</ele>
        <time>2019-10-27T10:39:36.000Z</time>
      </trkpt>
      <trkpt lat="45.56417" lon="5.73432">
        <ele>607.3</ele>
        <time>2019-10-27T10:39:37.000Z</time>
      </trkpt>
      <trkpt lat="45.56418" lon="5.73432">
        <ele>607</ele>
        <time>2019-10-27T10:39:38.000Z</time>
      </trkpt>
      <trkpt lat="45.56418" lon="5.73431">
        <ele>607</ele>
        <time>2019-10-27T10:39:39.000Z</time>
      </trkpt>
      <trkpt lat="45.56419" lon="5.73431">
        <ele>607</ele>
        <time>2019-10-27T10:39:40.000Z</time>
      </trkpt>
      <trkpt lat="45.5642" lon="5.7343">
        <ele>607</ele>
        <time>2019-10-27T10:39:41.000Z</time>
      </trkpt>
      <trkpt lat="45.5642" lon="5.73429">
        <ele>607</ele>
        <time>2019-10-27T10:39:42.000Z</time>
      </trkpt>
      <trkpt lat="45.56421" lon="5.73429">
        <ele>607</ele>
        <time>2019-10-27T10:39:43.000Z</time>
      </trkpt>
      <trkpt lat="45.56422" lon="5.73428">
        <ele>607</ele>
        <time>2019-10-27T10:39:44.000Z</time>
      </trkpt>
      <trkpt lat="45.56423" lon="5.73427">
        <ele>607</ele>
        <time>2019-10-27T10:39:45.000Z</time>
      </trkpt>
      <trkpt lat="45.56424" lon="5.73426">
        <ele>607</ele>
        <time>2019-10-27T10:39:46.000Z</time>
      </trkpt>
      <trkpt lat="45.56425" lon="5.73426">
        <ele>607</ele>
        <time>2019-10-27T10:39:47.000Z</time>
      </trkpt>
      <trkpt lat="45.56426" lon="5.73426">
        <ele>607</ele>
        <time>2019-10-27T10:39:48.000Z</time>
      </trkpt>
      <trkpt lat="45.56426" lon="5.73425">
        <ele>607</ele>
        <time>2019-10-27T10:39:49.000Z</time>
      </trkpt>
      <trkpt lat="45.56427" lon="5.73424">
        <ele>607</ele>
        <time>2019-10-27T10:39:50.000Z</time>
      </trkpt>
      <trkpt lat="45.56429" lon="5.73423">
        <ele>606</ele>
        <time>2019-10-27T10:39:51.000Z</time>
      </trkpt>
      <trkpt lat="45.5643" lon="5.73422">
        <ele>606</ele>
        <time>2019-10-27T10:39:52.000Z</time>
      </trkpt>
      <trkpt lat="45.56431" lon="5.73421">
        <ele>606</ele>
        <time>2019-10-27T10:39:53.000Z</time>
      </trkpt>
      <trkpt lat="45.56432" lon="5.73421">
        <ele>606</ele>
        <time>2019-10-27T10:39:54.000Z</time>
      </trkpt>
      <trkpt lat="45.56432" lon="5.7342">
        <ele>606</ele>
        <time>2019-10-27T10:39:55.000Z</time>
      </trkpt>
      <trkpt lat="45.56433" lon="5.73419">
        <ele>606</ele>
        <time>2019-10-27T10:39:56.000Z</time>
      </trkpt>
      <trkpt lat="45.56433" lon="5.73419">
        <ele>606</ele>
        <time>2019-10-27T10:39:57.000Z</time>
      </trkpt>
      <trkpt lat="45.56434" lon="5.73419">
        <ele>606</ele>
        <time>2019-10-27T10:39:58.000Z</time>
      </trkpt>
      <trkpt lat="45.56435" lon="5.73418">
        <ele>606</ele>
        <time>2019-10-27T10:39:59.000Z</time>
      </trkpt>
      <trkpt lat="45.56436" lon="5.73417">
        <ele>606</ele>
        <time>2019-10-27T10:40:00.000Z</time>
      </trkpt>
      <trkpt lat="45.56437" lon="5.73417">
        <ele>606</ele>
        <time>2019-10-27T10:40:01.000Z</time>
      </trkpt>
      <trkpt lat="45.56438" lon="5.73416">
        <ele>606</ele>
        <time>2019-10-27T10:40:02.000Z</time>
      </trkpt>
      <trkpt lat="45.5644" lon="5.73416">
        <ele>606</ele>
        <time>2019-10-27T10:40:03.000Z</time>
      </trkpt>
      <trkpt lat="45.56441" lon="5.73415">
        <ele>606</ele>
        <time>2019-10-27T10:40:04.000Z</time>
      </trkpt>
      <trkpt lat="45.56442" lon="5.73415">
        <ele>606</ele>
        <time>2019-10-27T10:40:05.000Z</time>
      </trkpt>
      <trkpt lat="45.56444" lon="5.73414">
        <ele>606</ele>
        <time>2019-10-27T10:40:06.000Z</time>
      </trkpt>
      <trkpt lat="45.56445" lon="5.73414">
        <ele>606</ele>
        <time>2019-10-27T10:40:07.000Z</time>
      </trkpt>
      <trkpt lat="45.56446" lon="5.73413">
        <ele>606</ele>
        <time>2019-10-27T10:40:08.000Z</time>
      </trkpt>
      <trkpt lat="45.56447" lon="5.73413">
        <ele>606</ele>
        <time>2019-10-27T10:40:09.000Z</time>
      </trkpt>
      <trkpt lat="45.56448" lon="5.73413">
        <ele>606</ele>
        <time>2019-10-27T10:40:10.000Z</time>
      </trkpt>
      <trkpt lat="45.56449" lon="5.73413">
        <ele>606</ele>
        <time>2019-10-27T10:40:11.000Z</time>
      </trkpt>
      <trkpt lat="45.5645" lon="5.73412">
        <ele>606</ele>
        <time>2019-10-27T10:40:12.000Z</time>
      </trkpt>
      <trkpt lat="45.56451" lon="5.73412">
        <ele>606</ele>
        <time>2019-10-27T10:40:13.000Z</time>
      </trkpt>
      <trkpt lat="45.56452" lon="5.73412">
        <ele>606</ele>
        <time>2019-10-27T10:40:14.000Z</time>
      </trkpt>
      <trkpt lat="45.56454" lon="5.73411">
        <ele>606</ele>
        <time>2019-10-27T10:40:15.000Z</time>
      </trkpt>
      <trkpt lat="45.56455" lon="5.7341">
        <ele>606</ele>
        <time>2019-10-27T10:40:16.000Z</time>
      </trkpt>
      <trkpt lat="45.56457" lon="5.7341">
        <ele>606</ele>
        <time>2019-10-27T10:40:17.000Z</time>
      </trkpt>
      <trkpt lat="45.56458" lon="5.73409">
        <ele>606</ele>
        <time>2019-10-27T10:40:18.000Z</time>
      </trkpt>
      <trkpt lat="45.56459" lon="5.73409">
        <ele>606</ele>
        <time>2019-10-27T10:40:19.000Z</time>
      </trkpt>
      <trkpt lat="45.56461" lon="5.73408">
        <ele>606</ele>
        <time>2019-10-27T10:40:20.000Z</time>
      </trkpt>
      <trkpt lat="45.56462" lon="5.73408">
        <ele>605.5</ele>
        <time>2019-10-27T10:40:21.000Z</time>
      </trkpt>
      <trkpt lat="45.56463" lon="5.73407">
        <ele>605</ele>
        <time>2019-10-27T10:40:22.000Z</time>
      </trkpt>
      <trkpt lat="45.56464" lon="5.73407">
        <ele>605</ele>
        <time>2019-10-27T10:40:23.000Z</time>
      </trkpt>
      <trkpt lat="45.56465" lon="5.73406">
        <ele>605</ele>
        <time>2019-10-27T10:40:24.000Z</time>
      </trkpt>
      <trkpt lat="45.56466" lon="5.73406">
        <ele>605</ele>
        <time>2019-10-27T10:40:25.000Z</time>
      </trkpt>
      <trkpt lat="45.56467" lon="5.73405">
        <ele>605</ele>
        <time>2019-10-27T10:40:26.000Z</time>
      </trkpt>
      <trkpt lat="45.56468" lon="5.73405">
        <ele>605</ele>
        <time>2019-10-27T10:40:27.000Z</time>
      </trkpt>
      <trkpt lat="45.56468" lon="5.73404">
        <ele>605</ele>
        <time>2019-10-27T10:40:28.000Z</time>
      </trkpt>
      <trkpt lat="45.56469" lon="5.73404">
        <ele>605</ele>
        <time>2019-10-27T10:40:29.000Z</time>
      </trkpt>
      <trkpt lat="45.56469" lon="5.73404">
        <ele>605</ele>
        <time>2019-10-27T10:40:30.000Z</time>
      </trkpt>
      <trkpt lat="45.5647" lon="5.73404">
        <ele>604.5</ele>
        <time>2019-10-27T10:40:31.000Z</time>
      </trkpt>
      <trkpt lat="45.56472" lon="5.73404">
        <ele>604</ele>
        <time>2019-10-27T10:40:32.000Z</time>
      </trkpt>
      <trkpt lat="45.56473" lon="5.73404">
        <ele>604</ele>
        <time>2019-10-27T10:40:33.000Z</time>
      </trkpt>
      <trkpt lat="45.56475" lon="5.73404">
        <ele>604</ele>
        <time>2019-10-27T10:40:34.000Z</time>
      </trkpt>
      <trkpt lat="45.56476" lon="5.73404">
        <ele>604</ele>
        <time>2019-10-27T10:40:35.000Z</time>
      </trkpt>
      <trkpt lat="45.56477" lon="5.73404">
        <ele>604</ele>
        <time>2019-10-27T10:40:36.000Z</time>
      </trkpt>
      <trkpt lat="45.56478" lon="5.73404">
        <ele>604</ele>
        <time>2019-10-27T10:40:37.000Z</time>
      </trkpt>
      <trkpt lat="45.56479" lon="5.73404">
        <ele>604</ele>
        <time>2019-10-27T10:40:38.000Z</time>
      </trkpt>
      <trkpt lat="45.5648" lon="5.73405">
        <ele>604</ele>
        <time>2019-10-27T10:40:39.000Z</time>
      </trkpt>
      <trkpt lat="45.56481" lon="5.73405">
        <ele>604</ele>
        <time>2019-10-27T10:40:40.000Z</time>
      </trkpt>
      <trkpt lat="45.56482" lon="5.73406">
        <ele>604</ele>
        <time>2019-10-27T10:40:41.000Z</time>
      </trkpt>
      <trkpt lat="45.56484" lon="5.73406">
        <ele>604</ele>
        <time>2019-10-27T10:40:42.000Z</time>
      </trkpt>
      <trkpt lat="45.56485" lon="5.73407">
        <ele>604</ele>
        <time>2019-10-27T10:40:43.000Z</time>
      </trkpt>
      <trkpt lat="45.56486" lon="5.73408">
        <ele>604</ele>
        <time>2019-10-27T10:40:44.000Z</time>
      </trkpt>
      <trkpt lat="45.56487" lon="5.73409">
        <ele>604</ele>
        <time>2019-10-27T10:40:45.000Z</time>
      </trkpt>
      <trkpt lat="45.56489" lon="5.7341">
        <ele>604</ele>
        <time>2019-10-27T10:40:46.000Z</time>
      </trkpt>
      <trkpt lat="45.56489" lon="5.7341">
        <ele>604</ele>
        <time>2019-10-27T10:40:47.000Z</time>
      </trkpt>
      <trkpt lat="45.5649" lon="5.73412">
        <ele>604</ele>
        <time>2019-10-27T10:40:48.000Z</time>
      </trkpt>
      <trkpt lat="45.56491" lon="5.73413">
        <ele>604</ele>
        <time>2019-10-27T10:40:49.000Z</time>
      </trkpt>
      <trkpt lat="45.56492" lon="5.73414">
        <ele>604</ele>
        <time>2019-10-27T10:40:50.000Z</time>
      </trkpt>
      <trkpt lat="45.56493" lon="5.73415">
        <ele>604</ele>
        <time>2019-10-27T10:40:51.000Z</time>
      </trkpt>
      <trkpt lat="45.56494" lon="5.73416">
        <ele>604</ele>
        <time>2019-10-27T10:40:52.000Z</time>
      </trkpt>
      <trkpt lat="45.56495" lon="5.73417">
        <ele>604</ele>
        <time>2019-10-27T10:40:53.000Z</time>
      </trkpt>
      <trkpt lat="45.56495" lon="5.73419">
        <ele>604</ele>
        <time>2019-10-27T10:40:54.000Z</time>
      </trkpt>
      <trkpt lat="45.56496" lon="5.7342">
        <ele>604</ele>
        <time>2019-10-27T10:40:55.000Z</time>
      </trkpt>
      <trkpt lat="45.56496" lon="5.73421">
        <ele>604</ele>
        <time>2019-10-27T10:40:56.000Z</time>
      </trkpt>
      <trkpt lat="45.56496" lon="5.73422">
        <ele>604</ele>
        <time>2019-10-27T10:40:57.000Z</time>
      </trkpt>
      <trkpt lat="45.56497" lon="5.73423">
        <ele>604</ele>
        <time>2019-10-27T10:40:58.000Z</time>
      </trkpt>
      <trkpt lat="45.56497" lon="5.73424">
        <ele>604</ele>
        <time>2019-10-27T10:40:59.000Z</time>
      </trkpt>
      <trkpt lat="45.56497" lon="5.73425">
        <ele>604</ele>
        <time>2019-10-27T10:41:00.000Z</time>
      </trkpt>
      <trkpt lat="45.56497" lon="5.73426">
        <ele>604</ele>
        <time>2019-10-27T10:41:01.000Z</time>
      </trkpt>
      <trkpt lat="45.56497" lon="5.73426">
        <ele>604</ele>
        <time>2019-10-27T10:41:02.000Z</time>
      </trkpt>
      <trkpt lat="45.56498" lon="5.73427">
        <ele>604</ele>
        <time>2019-10-27T10:41:03.000Z</time>
      </trkpt>
      <trkpt lat="45.56498" lon="5.73427">
        <ele>604</ele>
        <time>2019-10-27T10:41:04.000Z</time>
      </trkpt>
      <trkpt lat="45.56498" lon="5.73427">
        <ele>604</ele>
        <time>2019-10-27T10:41:05.000Z</time>
      </trkpt>
      <trkpt lat="45.56498" lon="5.73427">
        <ele>604</ele>
        <time>2019-10-27T10:41:06.000Z</time>
      </trkpt>
      <trkpt lat="45.56498" lon="5.73427">
        <ele>604</ele>
        <time>2019-10-27T10:41:07.000Z</time>
      </trkpt>
      <trkpt lat="45.56498" lon="5.73428">
        <ele>604</ele>
        <time>2019-10-27T10:41:08.000Z</time>
      </trkpt>
      <trkpt lat="45.56499" lon="5.73428">
        <ele>604</ele>
        <time>2019-10-27T10:41:09.000Z</time>
      </trkpt>
      <trkpt lat="45.56499" lon="5.73429">
        <ele>604</ele>
        <time>2019-10-27T10:41:10.000Z</time>
      </trkpt>
      <trkpt lat="45.565" lon="5.73431">
        <ele>604</ele>
        <time>2019-10-27T10:41:11.000Z</time>
      </trkpt>
      <trkpt lat="45.565" lon="5.73432">
        <ele>604</ele>
        <time>2019-10-27T10:41:12.000Z</time>
      </trkpt>
      <trkpt lat="45.56501" lon="5.73432">
        <ele>604</ele>
        <time>2019-10-27T10:41:13.000Z</time>
      </trkpt>
      <trkpt lat="45.56501" lon="5.73433">
        <ele>604</ele>
        <time>2019-10-27T10:41:14.000Z</time>
      </trkpt>
      <trkpt lat="45.56501" lon="5.73433">
        <ele>604</ele>
        <time>2019-10-27T10:41:15.000Z</time>
      </trkpt>
      <trkpt lat="45.56501" lon="5.73434">
        <ele>604</ele>
        <time>2019-10-27T10:41:16.000Z</time>
      </trkpt>
      <trkpt lat="45.56501" lon="5.73434">
        <ele>604</ele>
        <time>2019-10-27T10:41:17.000Z</time>
      </trkpt>
      <trkpt lat="45.56501" lon="5.73434">
        <ele>604</ele>
        <time>2019-10-27T10:41:18.000Z</time>
      </trkpt>
      <trkpt lat="45.56501" lon="5.73435">
        <ele>604</ele>
        <time>2019-10-27T10:41:19.000Z</time>
      </trkpt>
      <trkpt lat="45.56501" lon="5.73435">
        <ele>604</ele>
        <time>2019-10-27T10:41:20.000Z</time>
      </trkpt>
      <trkpt lat="45.56501" lon="5.73435">
        <ele>604</ele>
        <time>2019-10-27T10:41:21.000Z</time>
      </trkpt>
      <trkpt lat="45.56501" lon="5.73435">
        <ele>604</ele>
        <time>2019-10-27T10:41:22.000Z</time>
      </trkpt>
      <trkpt lat="45.56501" lon="5.73435">
        <ele>604</ele>
        <time>2019-10-27T10:41:23.000Z</time>
      </trkpt>
      <trkpt lat="45.56501" lon="5.73435">
        <ele>604</ele>
        <time>2019-10-27T10:41:24.000Z</time>
      </trkpt>
      <trkpt lat="45.56501" lon="5.73435">
        <ele>604</ele>
        <time>2019-10-27T10:41:25.000Z</time>
      </trkpt>
      <trkpt lat="45.56501" lon="5.73435">
        <ele>604</ele>
        <time>2019-10-27T10:41:26.000Z</time>
      </trkpt>
      <trkpt lat="45.56501" lon="5.73435">
        <ele>604</ele>
        <time>2019-10-27T10:41:27.000Z</time>
      </trkpt>
      <trkpt lat="45.56501" lon="5.73435">
        <ele>604</ele>
        <time>2019-10-27T10:41:28.000Z</time>
      </trkpt>
      <trkpt lat="45.56501" lon="5.73435">
        <ele>604</ele>
        <time>2019-10-27T10:41:29.000Z</time>
      </trkpt>
      <trkpt lat="45.56501" lon="5.73435">
        <ele>604</ele>
        <time>2019-10-27T10:41:30.000Z</time>
      </trkpt>
      <trkpt lat="45.56501" lon="5.73435">
        <ele>604</ele>
        <time>2019-10-27T10:41:31.000Z</time>
      </trkpt>
      <trkpt lat="45.56501" lon="5.73435">
        <ele>604</ele>
        <time>2019-10-27T10:41:32.000Z</time>
      </trkpt>
      <trkpt lat="45.56502" lon="5.73435">
        <ele>604</ele>
        <time>2019-10-27T10:41:33.000Z</time>
      </trkpt>
      <trkpt lat="45.56502" lon="5.73435">
        <ele>604</ele>
        <time>2019-10-27T10:41:34.000Z</time>
      </trkpt>
      <trkpt lat="45.56502" lon="5.73436">
        <ele>604</ele>
        <time>2019-10-27T10:41:35.000Z</time>
      </trkpt>
      <trkpt lat="45.56503" lon="5.73436">
        <ele>604</ele>
        <time>2019-10-27T10:41:36.000Z</time>
      </trkpt>
      <trkpt lat="45.56503" lon="5.73437">
        <ele>604</ele>
        <time>2019-10-27T10:41:37.000Z</time>
      </trkpt>
      <trkpt lat="45.56503" lon="5.73437">
        <ele>604</ele>
        <time>2019-10-27T10:41:38.000Z</time>
      </trkpt>
      <trkpt lat="45.56503" lon="5.73438">
        <ele>604</ele>
        <time>2019-10-27T10:41:39.000Z</time>
      </trkpt>
      <trkpt lat="45.56503" lon="5.73438">
        <ele>604</ele>
        <time>2019-10-27T10:41:40.000Z</time>
      </trkpt>
      <trkpt lat="45.56503" lon="5.73438">
        <ele>604</ele>
        <time>2019-10-27T10:41:41.000Z</time>
      </trkpt>
      <trkpt lat="45.56504" lon="5.73439">
        <ele>604</ele>
        <time>2019-10-27T10:41:42.000Z</time>
      </trkpt>
      <trkpt lat="45.56504" lon="5.73439">
        <ele>604</ele>
        <time>2019-10-27T10:41:43.000Z</time>
      </trkpt>
      <trkpt lat="45.56504" lon="5.73439">
        <ele>604</ele>
        <time>2019-10-27T10:41:44.000Z</time>
      </trkpt>
      <trkpt lat="45.56504" lon="5.73439">
        <ele>604</ele>
        <time>2019-10-27T10:41:45.000Z</time>
      </trkpt>
      <trkpt lat="45.56504" lon="5.73439">
        <ele>604</ele>
        <time>2019-10-27T10:41:46.000Z</time>
      </trkpt>
      <trkpt lat="45.56504" lon="5.73439">
        <ele>604</ele>
        <time>2019-10-27T10:41:47.000Z</time>
      </trkpt>
      <trkpt lat="45.56504" lon="5.73439">
        <ele>604</ele>
        <time>2019-10-27T10:41:48.000Z</time>
      </trkpt>
      <trkpt lat="45.56504" lon="5.73439">
        <ele>604</ele>
        <time>2019-10-27T10:41:49.000Z</time>
      </trkpt>
      <trkpt lat="45.56504" lon="5.73439">
        <ele>604</ele>
        <time>2019-10-27T10:41:50.000Z</time>
      </trkpt>
      <trkpt lat="45.56504" lon="5.73439">
        <ele>604</ele>
        <time>2019-10-27T10:41:51.000Z</time>
      </trkpt>
      <trkpt lat="45.56504" lon="5.73439">
        <ele>604</ele>
        <time>2019-10-27T10:41:52.000Z</time>
      </trkpt>
      <trkpt lat="45.56504" lon="5.73439">
        <ele>604</ele>
        <time>2019-10-27T10:41:53.000Z</time>
      </trkpt>
      <trkpt lat="45.56504" lon="5.73439">
        <ele>604</ele>
        <time>2019-10-27T10:41:54.000Z</time>
      </trkpt>
      <trkpt lat="45.56504" lon="5.73439">
        <ele>604</ele>
        <time>2019-10-27T10:41:55.000Z</time>
      </trkpt>
      <trkpt lat="45.56504" lon="5.73439">
        <ele>604</ele>
        <time>2019-10-27T10:41:56.000Z</time>
      </trkpt>
      <trkpt lat="45.56504" lon="5.73439">
        <ele>604</ele>
        <time>2019-10-27T10:41:57.000Z</time>
      </trkpt>
      <trkpt lat="45.56504" lon="5.73439">
        <ele>604</ele>
        <time>2019-10-27T10:41:58.000Z</time>
      </trkpt>
      <trkpt lat="45.56504" lon="5.73439">
        <ele>604</ele>
        <time>2019-10-27T10:41:59.000Z</time>
      </trkpt>
      <trkpt lat="45.56504" lon="5.73439">
        <ele>604</ele>
        <time>2019-10-27T10:42:00.000Z</time>
      </trkpt>
      <trkpt lat="45.56504" lon="5.73439">
        <ele>604</ele>
        <time>2019-10-27T10:42:01.000Z</time>
      </trkpt>
      <trkpt lat="45.56504" lon="5.73439">
        <ele>604</ele>
        <time>2019-10-27T10:42:02.000Z</time>
      </trkpt>
      <trkpt lat="45.56504" lon="5.73439">
        <ele>604</ele>
        <time>2019-10-27T10:42:03.000Z</time>
      </trkpt>
      <trkpt lat="45.56504" lon="5.73439">
        <ele>604</ele>
        <time>2019-10-27T10:42:04.000Z</time>
      </trkpt>
      <trkpt lat="45.56504" lon="5.73439">
        <ele>604</ele>
        <time>2019-10-27T10:42:05.000Z</time>
      </trkpt>
      <trkpt lat="45.56504" lon="5.73439">
        <ele>604</ele>
        <time>2019-10-27T10:42:06.000Z</time>
      </trkpt>
      <trkpt lat="45.56504" lon="5.73439">
        <ele>604</ele>
        <time>2019-10-27T10:42:07.000Z</time>
      </trkpt>
      <trkpt lat="45.56504" lon="5.73439">
        <ele>604</ele>
        <time>2019-10-27T10:42:08.000Z</time>
      </trkpt>
      <trkpt lat="45.56504" lon="5.73439">
        <ele>604</ele>
        <time>2019-10-27T10:42:09.000Z</time>
      </trkpt>
      <trkpt lat="45.56504" lon="5.73439">
        <ele>604</ele>
        <time>2019-10-27T10:42:10.000Z</time>
      </trkpt>
      <trkpt lat="45.56504" lon="5.73439">
        <ele>604</ele>
        <time>2019-10-27T10:42:11.000Z</time>
      </trkpt>
      <trkpt lat="45.56504" lon="5.73439">
        <ele>604</ele>
        <time>2019-10-27T10:42:12.000Z</time>
      </trkpt>
      <trkpt lat="45.56504" lon="5.73439">
        <ele>604</ele>
        <time>2019-10-27T10:42:13.000Z</time>
      </trkpt>
      <trkpt lat="45.56504" lon="5.7344">
        <ele>604</ele>
        <time>2019-10-27T10:42:14.000Z</time>
      </trkpt>
      <trkpt lat="45.56504" lon="5.7344">
        <ele>604</ele>
        <time>2019-10-27T10:42:15.000Z</time>
      </trkpt>
      <trkpt lat="45.56505" lon="5.73439">
        <ele>604</ele>
        <time>2019-10-27T10:42:16.000Z</time>
      </trkpt>
      <trkpt lat="45.56505" lon="5.73438">
        <ele>604</ele>
        <time>2019-10-27T10:42:17.000Z</time>
      </trkpt>
      <trkpt lat="45.56505" lon="5.73437">
        <ele>604</ele>
        <time>2019-10-27T10:42:18.000Z</time>
      </trkpt>
      <trkpt lat="45.56505" lon="5.73436">
        <ele>604</ele>
        <time>2019-10-27T10:42:19.000Z</time>
      </trkpt>
      <trkpt lat="45.56505" lon="5.73436">
        <ele>604</ele>
        <time>2019-10-27T10:42:20.000Z</time>
      </trkpt>
      <trkpt lat="45.56505" lon="5.73436">
        <ele>604</ele>
        <time>2019-10-27T10:42:21.000Z</time>
      </trkpt>
      <trkpt lat="45.56505" lon="5.73436">
        <ele>604</ele>
        <time>2019-10-27T10:42:22.000Z</time>
      </trkpt>
      <trkpt lat="45.56505" lon="5.73436">
        <ele>604</ele>
        <time>2019-10-27T10:42:23.000Z</time>
      </trkpt>
      <trkpt lat="45.56505" lon="5.73436">
        <ele>604</ele>
        <time>2019-10-27T10:42:24.000Z</time>
      </trkpt>
      <trkpt lat="45.56505" lon="5.73435">
        <ele>604</ele>
        <time>2019-10-27T10:42:25.000Z</time>
      </trkpt>
      <trkpt lat="45.56505" lon="5.73435">
        <ele>604</ele>
        <time>2019-10-27T10:42:26.000Z</time>
      </trkpt>
      <trkpt lat="45.56505" lon="5.73435">
        <ele>604</ele>
        <time>2019-10-27T10:42:27.000Z</time>
      </trkpt>
      <trkpt lat="45.56505" lon="5.73435">
        <ele>604</ele>
        <time>2019-10-27T10:42:28.000Z</time>
      </trkpt>
      <trkpt lat="45.56505" lon="5.73435">
        <ele>604</ele>
        <time>2019-10-27T10:42:29.000Z</time>
      </trkpt>
      <trkpt lat="45.56505" lon="5.73436">
        <ele>604</ele>
        <time>2019-10-27T10:42:30.000Z</time>
      </trkpt>
      <trkpt lat="45.56506" lon="5.73436">
        <ele>604</ele>
        <time>2019-10-27T10:42:31.000Z</time>
      </trkpt>
      <trkpt lat="45.56506" lon="5.73436">
        <ele>604</ele>
        <time>2019-10-27T10:42:32.000Z</time>
      </trkpt>
      <trkpt lat="45.56507" lon="5.73436">
        <ele>604</ele>
        <time>2019-10-27T10:42:33.000Z</time>
      </trkpt>
      <trkpt lat="45.56507" lon="5.73436">
        <ele>604</ele>
        <time>2019-10-27T10:42:34.000Z</time>
      </trkpt>
      <trkpt lat="45.56507" lon="5.73436">
        <ele>604</ele>
        <time>2019-10-27T10:42:35.000Z</time>
      </trkpt>
      <trkpt lat="45.56507" lon="5.73437">
        <ele>604</ele>
        <time>2019-10-27T10:42:36.000Z</time>
      </trkpt>
      <trkpt lat="45.56508" lon="5.73437">
        <ele>605</ele>
        <time>2019-10-27T10:42:37.000Z</time>
      </trkpt>
      <trkpt lat="45.56508" lon="5.73437">
        <ele>605</ele>
        <time>2019-10-27T10:42:38.000Z</time>
      </trkpt>
      <trkpt lat="45.56508" lon="5.73438">
        <ele>605</ele>
        <time>2019-10-27T10:42:39.000Z</time>
      </trkpt>
      <trkpt lat="45.56508" lon="5.73438">
        <ele>605</ele>
        <time>2019-10-27T10:42:40.000Z</time>
      </trkpt>
      <trkpt lat="45.56508" lon="5.73438">
        <ele>605</ele>
        <time>2019-10-27T10:42:41.000Z</time>
      </trkpt>
      <trkpt lat="45.56508" lon="5.73438">
        <ele>605</ele>
        <time>2019-10-27T10:42:42.000Z</time>
      </trkpt>
      <trkpt lat="45.56509" lon="5.73438">
        <ele>605</ele>
        <time>2019-10-27T10:42:43.000Z</time>
      </trkpt>
      <trkpt lat="45.56509" lon="5.73438">
        <ele>605</ele>
        <time>2019-10-27T10:42:44.000Z</time>
      </trkpt>
      <trkpt lat="45.5651" lon="5.73437">
        <ele>605</ele>
        <time>2019-10-27T10:42:45.000Z</time>
      </trkpt>
      <trkpt lat="45.56511" lon="5.73437">
        <ele>605</ele>
        <time>2019-10-27T10:42:46.000Z</time>
      </trkpt>
      <trkpt lat="45.56511" lon="5.73436">
        <ele>605</ele>
        <time>2019-10-27T10:42:47.000Z</time>
      </trkpt>
      <trkpt lat="45.56512" lon="5.73436">
        <ele>605</ele>
        <time>2019-10-27T10:42:48.000Z</time>
      </trkpt>
      <trkpt lat="45.56513" lon="5.73435">
        <ele>605</ele>
        <time>2019-10-27T10:42:49.000Z</time>
      </trkpt>
      <trkpt lat="45.56514" lon="5.73434">
        <ele>605</ele>
        <time>2019-10-27T10:42:50.000Z</time>
      </trkpt>
      <trkpt lat="45.56514" lon="5.73434">
        <ele>604.5</ele>
        <time>2019-10-27T10:42:51.000Z</time>
      </trkpt>
      <trkpt lat="45.56515" lon="5.73433">
        <ele>604</ele>
        <time>2019-10-27T10:42:52.000Z</time>
      </trkpt>
      <trkpt lat="45.56515" lon="5.73433">
        <ele>604</ele>
        <time>2019-10-27T10:42:53.000Z</time>
      </trkpt>
      <trkpt lat="45.56515" lon="5.73432">
        <ele>604</ele>
        <time>2019-10-27T10:42:54.000Z</time>
      </trkpt>
      <trkpt lat="45.56516" lon="5.73431">
        <ele>604</ele>
        <time>2019-10-27T10:42:55.000Z</time>
      </trkpt>
      <trkpt lat="45.56516" lon="5.73431">
        <ele>604</ele>
        <time>2019-10-27T10:42:56.000Z</time>
      </trkpt>
      <trkpt lat="45.56517" lon="5.7343">
        <ele>604</ele>
        <time>2019-10-27T10:42:57.000Z</time>
      </trkpt>
      <trkpt lat="45.56518" lon="5.73429">
        <ele>603.7</ele>
        <time>2019-10-27T10:42:58.000Z</time>
      </trkpt>
      <trkpt lat="45.56519" lon="5.73428">
        <ele>603.3</ele>
        <time>2019-10-27T10:42:59.000Z</time>
      </trkpt>
      <trkpt lat="45.56519" lon="5.73427">
        <ele>603</ele>
        <time>2019-10-27T10:43:00.000Z</time>
      </trkpt>
      <trkpt lat="45.5652" lon="5.73427">
        <ele>603</ele>
        <time>2019-10-27T10:43:01.000Z</time>
      </trkpt>
      <trkpt lat="45.5652" lon="5.73426">
        <ele>603</ele>
        <time>2019-10-27T10:43:02.000Z</time>
      </trkpt>
      <trkpt lat="45.5652" lon="5.73426">
        <ele>603</ele>
        <time>2019-10-27T10:43:03.000Z</time>
      </trkpt>
      <trkpt lat="45.5652" lon="5.73426">
        <ele>603</ele>
        <time>2019-10-27T10:43:04.000Z</time>
      </trkpt>
      <trkpt lat="45.5652" lon="5.73426">
        <ele>603</ele>
        <time>2019-10-27T10:43:05.000Z</time>
      </trkpt>
      <trkpt lat="45.5652" lon="5.73426">
        <ele>603</ele>
        <time>2019-10-27T10:43:06.000Z</time>
      </trkpt>
      <trkpt lat="45.56521" lon="5.73426">
        <ele>603</ele>
        <time>2019-10-27T10:43:07.000Z</time>
      </trkpt>
      <trkpt lat="45.56521" lon="5.73425">
        <ele>602.7</ele>
        <time>2019-10-27T10:43:08.000Z</time>
      </trkpt>
      <trkpt lat="45.56521" lon="5.73425">
        <ele>602.3</ele>
        <time>2019-10-27T10:43:09.000Z</time>
      </trkpt>
      <trkpt lat="45.56522" lon="5.73425">
        <ele>602</ele>
        <time>2019-10-27T10:43:10.000Z</time>
      </trkpt>
      <trkpt lat="45.56522" lon="5.73425">
        <ele>602</ele>
        <time>2019-10-27T10:43:11.000Z</time>
      </trkpt>
      <trkpt lat="45.56522" lon="5.73425">
        <ele>602</ele>
        <time>2019-10-27T10:43:12.000Z</time>
      </trkpt>
      <trkpt lat="45.56522" lon="5.73425">
        <ele>603</ele>
        <time>2019-10-27T10:43:13.000Z</time>
      </trkpt>
      <trkpt lat="45.56522" lon="5.73424">
        <ele>602.7</ele>
        <time>2019-10-27T10:43:14.000Z</time>
      </trkpt>
      <trkpt lat="45.56523" lon="5.73424">
        <ele>602.3</ele>
        <time>2019-10-27T10:43:15.000Z</time>
      </trkpt>
      <trkpt lat="45.56523" lon="5.73423">
        <ele>602</ele>
        <time>2019-10-27T10:43:16.000Z</time>
      </trkpt>
      <trkpt lat="45.56523" lon="5.73423">
        <ele>602</ele>
        <time>2019-10-27T10:43:17.000Z</time>
      </trkpt>
      <trkpt lat="45.56524" lon="5.73422">
        <ele>602</ele>
        <time>2019-10-27T10:43:18.000Z</time>
      </trkpt>
      <trkpt lat="45.56524" lon="5.73422">
        <ele>602</ele>
        <time>2019-10-27T10:43:19.000Z</time>
      </trkpt>
      <trkpt lat="45.56525" lon="5.73421">
        <ele>602</ele>
        <time>2019-10-27T10:43:20.000Z</time>
      </trkpt>
      <trkpt lat="45.56525" lon="5.73421">
        <ele>602</ele>
        <time>2019-10-27T10:43:21.000Z</time>
      </trkpt>
      <trkpt lat="45.56525" lon="5.7342">
        <ele>602</ele>
        <time>2019-10-27T10:43:22.000Z</time>
      </trkpt>
      <trkpt lat="45.56526" lon="5.73419">
        <ele>602</ele>
        <time>2019-10-27T10:43:23.000Z</time>
      </trkpt>
      <trkpt lat="45.56526" lon="5.73419">
        <ele>602</ele>
        <time>2019-10-27T10:43:24.000Z</time>
      </trkpt>
      <trkpt lat="45.56526" lon="5.73418">
        <ele>601.5</ele>
        <time>2019-10-27T10:43:25.000Z</time>
      </trkpt>
      <trkpt lat="45.56527" lon="5.73417">
        <ele>601</ele>
        <time>2019-10-27T10:43:26.000Z</time>
      </trkpt>
      <trkpt lat="45.56527" lon="5.73416">
        <ele>601</ele>
        <time>2019-10-27T10:43:27.000Z</time>
      </trkpt>
      <trkpt lat="45.56527" lon="5.73415">
        <ele>601</ele>
        <time>2019-10-27T10:43:28.000Z</time>
      </trkpt>
      <trkpt lat="45.56528" lon="5.73413">
        <ele>600</ele>
        <time>2019-10-27T10:43:29.000Z</time>
      </trkpt>
      <trkpt lat="45.56528" lon="5.73412">
        <ele>600</ele>
        <time>2019-10-27T10:43:30.000Z</time>
      </trkpt>
      <trkpt lat="45.56528" lon="5.73411">
        <ele>600</ele>
        <time>2019-10-27T10:43:31.000Z</time>
      </trkpt>
      <trkpt lat="45.56528" lon="5.73409">
        <ele>600</ele>
        <time>2019-10-27T10:43:32.000Z</time>
      </trkpt>
      <trkpt lat="45.56529" lon="5.73408">
        <ele>600</ele>
        <time>2019-10-27T10:43:33.000Z</time>
      </trkpt>
      <trkpt lat="45.56529" lon="5.73407">
        <ele>599.7</ele>
        <time>2019-10-27T10:43:34.000Z</time>
      </trkpt>
      <trkpt lat="45.56529" lon="5.73406">
        <ele>599.3</ele>
        <time>2019-10-27T10:43:35.000Z</time>
      </trkpt>
      <trkpt lat="45.56529" lon="5.73406">
        <ele>599</ele>
        <time>2019-10-27T10:43:36.000Z</time>
      </trkpt>
      <trkpt lat="45.56529" lon="5.73405">
        <ele>599</ele>
        <time>2019-10-27T10:43:37.000Z</time>
      </trkpt>
      <trkpt lat="45.56529" lon="5.73405">
        <ele>599</ele>
        <time>2019-10-27T10:43:38.000Z</time>
      </trkpt>
      <trkpt lat="45.56529" lon="5.73405">
        <ele>599</ele>
        <time>2019-10-27T10:43:39.000Z</time>
      </trkpt>
      <trkpt lat="45.56529" lon="5.73405">
        <ele>599</ele>
        <time>2019-10-27T10:43:40.000Z</time>
      </trkpt>
      <trkpt lat="45.56529" lon="5.73405">
        <ele>599</ele>
        <time>2019-10-27T10:43:41.000Z</time>
      </trkpt>
      <trkpt lat="45.56529" lon="5.73405">
        <ele>599</ele>
        <time>2019-10-27T10:43:42.000Z</time>
      </trkpt>
      <trkpt lat="45.56529" lon="5.73405">
        <ele>599</ele>
        <time>2019-10-27T10:43:43.000Z</time>
      </trkpt>
      <trkpt lat="45.56529" lon="5.73405">
        <ele>599</ele>
        <time>2019-10-27T10:43:44.000Z</time>
      </trkpt>
      <trkpt lat="45.56529" lon="5.73405">
        <ele>599</ele>
        <time>2019-10-27T10:43:45.000Z</time>
      </trkpt>
      <trkpt lat="45.56529" lon="5.73405">
        <ele>599</ele>
        <time>2019-10-27T10:43:46.000Z</time>
      </trkpt>
      <trkpt lat="45.56529" lon="5.73405">
        <ele>599</ele>
        <time>2019-10-27T10:43:47.000Z</time>
      </trkpt>
      <trkpt lat="45.56529" lon="5.73405">
        <ele>599</ele>
        <time>2019-10-27T10:43:48.000Z</time>
      </trkpt>
      <trkpt lat="45.56529" lon="5.73405">
        <ele>599</ele>
        <time>2019-10-27T10:43:49.000Z</time>
      </trkpt>
      <trkpt lat="45.56529" lon="5.73405">
        <ele>599</ele>
        <time>2019-10-27T10:43:50.000Z</time>
      </trkpt>
      <trkpt lat="45.56529" lon="5.73405">
        <ele>599</ele>
        <time>2019-10-27T10:43:51.000Z</time>
      </trkpt>
      <trkpt lat="45.56529" lon="5.73405">
        <ele>599</ele>
        <time>2019-10-27T10:43:52.000Z</time>
      </trkpt>
      <trkpt lat="45.56529" lon="5.73405">
        <ele>599</ele>
        <time>2019-10-27T10:43:53.000Z</time>
      </trkpt>
      <trkpt lat="45.56529" lon="5.73405">
        <ele>599</ele>
        <time>2019-10-27T10:43:54.000Z</time>
      </trkpt>
      <trkpt lat="45.56529" lon="5.73405">
        <ele>599</ele>
        <time>2019-10-27T10:43:55.000Z</time>
      </trkpt>
      <trkpt lat="45.56529" lon="5.73405">
        <ele>599</ele>
        <time>2019-10-27T10:43:56.000Z</time>
      </trkpt>
      <trkpt lat="45.56529" lon="5.73405">
        <ele>599</ele>
        <time>2019-10-27T10:43:57.000Z</time>
      </trkpt>
      <trkpt lat="45.56529" lon="5.73405">
        <ele>599</ele>
        <time>2019-10-27T10:43:58.000Z</time>
      </trkpt>
      <trkpt lat="45.56529" lon="5.73405">
        <ele>599</ele>
        <time>2019-10-27T10:43:59.000Z</time>
      </trkpt>
      <trkpt lat="45.56529" lon="5.73405">
        <ele>599</ele>
        <time>2019-10-27T10:44:00.000Z</time>
      </trkpt>
      <trkpt lat="45.56529" lon="5.73405">
        <ele>598.5</ele>
        <time>2019-10-27T10:44:01.000Z</time>
      </trkpt>
      <trkpt lat="45.5653" lon="5.73404">
        <ele>598</ele>
        <time>2019-10-27T10:44:02.000Z</time>
      </trkpt>
      <trkpt lat="45.56531" lon="5.734">
        <ele>598</ele>
        <time>2019-10-27T10:44:03.000Z</time>
      </trkpt>
      <trkpt lat="45.56531" lon="5.73398">
        <ele>598</ele>
        <time>2019-10-27T10:44:04.000Z</time>
      </trkpt>
      <trkpt lat="45.56532" lon="5.73397">
        <ele>598</ele>
        <time>2019-10-27T10:44:05.000Z</time>
      </trkpt>
      <trkpt lat="45.56532" lon="5.73396">
        <ele>598</ele>
        <time>2019-10-27T10:44:06.000Z</time>
      </trkpt>
      <trkpt lat="45.56533" lon="5.73395">
        <ele>598</ele>
        <time>2019-10-27T10:44:07.000Z</time>
      </trkpt>
      <trkpt lat="45.56533" lon="5.73394">
        <ele>598</ele>
        <time>2019-10-27T10:44:08.000Z</time>
      </trkpt>
      <trkpt lat="45.56534" lon="5.73393">
        <ele>597</ele>
        <time>2019-10-27T10:44:09.000Z</time>
      </trkpt>
      <trkpt lat="45.56535" lon="5.73392">
        <ele>597</ele>
        <time>2019-10-27T10:44:10.000Z</time>
      </trkpt>
      <trkpt lat="45.56535" lon="5.73391">
        <ele>597</ele>
        <time>2019-10-27T10:44:11.000Z</time>
      </trkpt>
      <trkpt lat="45.56536" lon="5.7339">
        <ele>597</ele>
        <time>2019-10-27T10:44:12.000Z</time>
      </trkpt>
      <trkpt lat="45.56537" lon="5.73389">
        <ele>597</ele>
        <time>2019-10-27T10:44:13.000Z</time>
      </trkpt>
      <trkpt lat="45.56538" lon="5.73388">
        <ele>597</ele>
        <time>2019-10-27T10:44:14.000Z</time>
      </trkpt>
      <trkpt lat="45.56538" lon="5.73388">
        <ele>596.5</ele>
        <time>2019-10-27T10:44:15.000Z</time>
      </trkpt>
      <trkpt lat="45.56539" lon="5.73387">
        <ele>596</ele>
        <time>2019-10-27T10:44:16.000Z</time>
      </trkpt>
      <trkpt lat="45.5654" lon="5.73387">
        <ele>596</ele>
        <time>2019-10-27T10:44:17.000Z</time>
      </trkpt>
      <trkpt lat="45.56541" lon="5.73387">
        <ele>596</ele>
        <time>2019-10-27T10:44:18.000Z</time>
      </trkpt>
      <trkpt lat="45.56542" lon="5.73386">
        <ele>596</ele>
        <time>2019-10-27T10:44:19.000Z</time>
      </trkpt>
      <trkpt lat="45.56543" lon="5.73386">
        <ele>596</ele>
        <time>2019-10-27T10:44:20.000Z</time>
      </trkpt>
      <trkpt lat="45.56544" lon="5.73386">
        <ele>596</ele>
        <time>2019-10-27T10:44:21.000Z</time>
      </trkpt>
      <trkpt lat="45.56545" lon="5.73386">
        <ele>596</ele>
        <time>2019-10-27T10:44:22.000Z</time>
      </trkpt>
      <trkpt lat="45.56546" lon="5.73385">
        <ele>595.5</ele>
        <time>2019-10-27T10:44:23.000Z</time>
      </trkpt>
      <trkpt lat="45.56547" lon="5.73385">
        <ele>595</ele>
        <time>2019-10-27T10:44:24.000Z</time>
      </trkpt>
      <trkpt lat="45.56548" lon="5.73385">
        <ele>595</ele>
        <time>2019-10-27T10:44:25.000Z</time>
      </trkpt>
      <trkpt lat="45.56549" lon="5.73385">
        <ele>595</ele>
        <time>2019-10-27T10:44:26.000Z</time>
      </trkpt>
      <trkpt lat="45.56551" lon="5.73385">
        <ele>595</ele>
        <time>2019-10-27T10:44:27.000Z</time>
      </trkpt>
      <trkpt lat="45.56552" lon="5.73385">
        <ele>595</ele>
        <time>2019-10-27T10:44:28.000Z</time>
      </trkpt>
      <trkpt lat="45.56554" lon="5.73385">
        <ele>595</ele>
        <time>2019-10-27T10:44:29.000Z</time>
      </trkpt>
      <trkpt lat="45.56555" lon="5.73386">
        <ele>595</ele>
        <time>2019-10-27T10:44:30.000Z</time>
      </trkpt>
      <trkpt lat="45.56556" lon="5.73386">
        <ele>595</ele>
        <time>2019-10-27T10:44:31.000Z</time>
      </trkpt>
      <trkpt lat="45.56557" lon="5.73387">
        <ele>595</ele>
        <time>2019-10-27T10:44:32.000Z</time>
      </trkpt>
      <trkpt lat="45.56558" lon="5.73387">
        <ele>595</ele>
        <time>2019-10-27T10:44:33.000Z</time>
      </trkpt>
      <trkpt lat="45.56559" lon="5.73387">
        <ele>595</ele>
        <time>2019-10-27T10:44:34.000Z</time>
      </trkpt>
      <trkpt lat="45.5656" lon="5.73387">
        <ele>595</ele>
        <time>2019-10-27T10:44:35.000Z</time>
      </trkpt>
      <trkpt lat="45.56561" lon="5.73388">
        <ele>594.7</ele>
        <time>2019-10-27T10:44:36.000Z</time>
      </trkpt>
      <trkpt lat="45.56561" lon="5.73388">
        <ele>594.3</ele>
        <time>2019-10-27T10:44:37.000Z</time>
      </trkpt>
      <trkpt lat="45.56561" lon="5.73389">
        <ele>594</ele>
        <time>2019-10-27T10:44:38.000Z</time>
      </trkpt>
      <trkpt lat="45.56562" lon="5.73389">
        <ele>594</ele>
        <time>2019-10-27T10:44:39.000Z</time>
      </trkpt>
      <trkpt lat="45.56563" lon="5.73389">
        <ele>594</ele>
        <time>2019-10-27T10:44:40.000Z</time>
      </trkpt>
      <trkpt lat="45.56565" lon="5.7339">
        <ele>594</ele>
        <time>2019-10-27T10:44:41.000Z</time>
      </trkpt>
      <trkpt lat="45.56567" lon="5.7339">
        <ele>594</ele>
        <time>2019-10-27T10:44:42.000Z</time>
      </trkpt>
      <trkpt lat="45.56568" lon="5.7339">
        <ele>594</ele>
        <time>2019-10-27T10:44:43.000Z</time>
      </trkpt>
      <trkpt lat="45.5657" lon="5.73391">
        <ele>594.3</ele>
        <time>2019-10-27T10:44:44.000Z</time>
      </trkpt>
      <trkpt lat="45.56571" lon="5.73392">
        <ele>594.7</ele>
        <time>2019-10-27T10:44:45.000Z</time>
      </trkpt>
      <trkpt lat="45.56573" lon="5.73393">
        <ele>595</ele>
        <time>2019-10-27T10:44:46.000Z</time>
      </trkpt>
      <trkpt lat="45.56574" lon="5.73393">
        <ele>595</ele>
        <time>2019-10-27T10:44:47.000Z</time>
      </trkpt>
      <trkpt lat="45.56575" lon="5.73394">
        <ele>595</ele>
        <time>2019-10-27T10:44:48.000Z</time>
      </trkpt>
      <trkpt lat="45.56576" lon="5.73395">
        <ele>594.5</ele>
        <time>2019-10-27T10:44:49.000Z</time>
      </trkpt>
      <trkpt lat="45.56577" lon="5.73396">
        <ele>594</ele>
        <time>2019-10-27T10:44:50.000Z</time>
      </trkpt>
      <trkpt lat="45.56578" lon="5.73397">
        <ele>594.5</ele>
        <time>2019-10-27T10:44:51.000Z</time>
      </trkpt>
      <trkpt lat="45.56579" lon="5.73398">
        <ele>595</ele>
        <time>2019-10-27T10:44:52.000Z</time>
      </trkpt>
      <trkpt lat="45.5658" lon="5.73399">
        <ele>595</ele>
        <time>2019-10-27T10:44:53.000Z</time>
      </trkpt>
      <trkpt lat="45.56581" lon="5.734">
        <ele>595</ele>
        <time>2019-10-27T10:44:54.000Z</time>
      </trkpt>
      <trkpt lat="45.56582" lon="5.734">
        <ele>595</ele>
        <time>2019-10-27T10:44:55.000Z</time>
      </trkpt>
      <trkpt lat="45.56583" lon="5.73401">
        <ele>595</ele>
        <time>2019-10-27T10:44:56.000Z</time>
      </trkpt>
      <trkpt lat="45.56583" lon="5.73401">
        <ele>595</ele>
        <time>2019-10-27T10:44:57.000Z</time>
      </trkpt>
      <trkpt lat="45.56584" lon="5.73402">
        <ele>595</ele>
        <time>2019-10-27T10:44:58.000Z</time>
      </trkpt>
      <trkpt lat="45.56585" lon="5.73402">
        <ele>595</ele>
        <time>2019-10-27T10:44:59.000Z</time>
      </trkpt>
      <trkpt lat="45.56586" lon="5.73403">
        <ele>595</ele>
        <time>2019-10-27T10:45:00.000Z</time>
      </trkpt>
      <trkpt lat="45.56587" lon="5.73404">
        <ele>595</ele>
        <time>2019-10-27T10:45:01.000Z</time>
      </trkpt>
      <trkpt lat="45.56588" lon="5.73404">
        <ele>595</ele>
        <time>2019-10-27T10:45:02.000Z</time>
      </trkpt>
      <trkpt lat="45.56589" lon="5.73405">
        <ele>595</ele>
        <time>2019-10-27T10:45:03.000Z</time>
      </trkpt>
      <trkpt lat="45.5659" lon="5.73405">
        <ele>595</ele>
        <time>2019-10-27T10:45:04.000Z</time>
      </trkpt>
      <trkpt lat="45.56591" lon="5.73406">
        <ele>595</ele>
        <time>2019-10-27T10:45:05.000Z</time>
      </trkpt>
      <trkpt lat="45.56592" lon="5.73407">
        <ele>595</ele>
        <time>2019-10-27T10:45:06.000Z</time>
      </trkpt>
      <trkpt lat="45.56593" lon="5.73407">
        <ele>595</ele>
        <time>2019-10-27T10:45:07.000Z</time>
      </trkpt>
      <trkpt lat="45.56594" lon="5.73408">
        <ele>595</ele>
        <time>2019-10-27T10:45:08.000Z</time>
      </trkpt>
      <trkpt lat="45.56596" lon="5.73409">
        <ele>595</ele>
        <time>2019-10-27T10:45:09.000Z</time>
      </trkpt>
      <trkpt lat="45.56597" lon="5.7341">
        <ele>595</ele>
        <time>2019-10-27T10:45:10.000Z</time>
      </trkpt>
      <trkpt lat="45.56599" lon="5.7341">
        <ele>595</ele>
        <time>2019-10-27T10:45:11.000Z</time>
      </trkpt>
      <trkpt lat="45.566" lon="5.73411">
        <ele>595</ele>
        <time>2019-10-27T10:45:12.000Z</time>
      </trkpt>
      <trkpt lat="45.56602" lon="5.73412">
        <ele>595</ele>
        <time>2019-10-27T10:45:13.000Z</time>
      </trkpt>
      <trkpt lat="45.56603" lon="5.73412">
        <ele>595</ele>
        <time>2019-10-27T10:45:14.000Z</time>
      </trkpt>
      <trkpt lat="45.56605" lon="5.73413">
        <ele>595</ele>
        <time>2019-10-27T10:45:15.000Z</time>
      </trkpt>
      <trkpt lat="45.56606" lon="5.73413">
        <ele>595</ele>
        <time>2019-10-27T10:45:16.000Z</time>
      </trkpt>
      <trkpt lat="45.56607" lon="5.73414">
        <ele>595</ele>
        <time>2019-10-27T10:45:17.000Z</time>
      </trkpt>
      <trkpt lat="45.56608" lon="5.73414">
        <ele>595</ele>
        <time>2019-10-27T10:45:18.000Z</time>
      </trkpt>
      <trkpt lat="45.56609" lon="5.73414">
        <ele>595</ele>
        <time>2019-10-27T10:45:19.000Z</time>
      </trkpt>
      <trkpt lat="45.56611" lon="5.73414">
        <ele>595</ele>
        <time>2019-10-27T10:45:20.000Z</time>
      </trkpt>
      <trkpt lat="45.56612" lon="5.73415">
        <ele>594.5</ele>
        <time>2019-10-27T10:45:21.000Z</time>
      </trkpt>
      <trkpt lat="45.56613" lon="5.73415">
        <ele>594</ele>
        <time>2019-10-27T10:45:22.000Z</time>
      </trkpt>
      <trkpt lat="45.56614" lon="5.73416">
        <ele>594</ele>
        <time>2019-10-27T10:45:23.000Z</time>
      </trkpt>
      <trkpt lat="45.56615" lon="5.73416">
        <ele>594</ele>
        <time>2019-10-27T10:45:24.000Z</time>
      </trkpt>
      <trkpt lat="45.56616" lon="5.73416">
        <ele>594</ele>
        <time>2019-10-27T10:45:25.000Z</time>
      </trkpt>
      <trkpt lat="45.56617" lon="5.73417">
        <ele>594</ele>
        <time>2019-10-27T10:45:26.000Z</time>
      </trkpt>
      <trkpt lat="45.56618" lon="5.73417">
        <ele>594</ele>
        <time>2019-10-27T10:45:27.000Z</time>
      </trkpt>
      <trkpt lat="45.56619" lon="5.73418">
        <ele>594</ele>
        <time>2019-10-27T10:45:28.000Z</time>
      </trkpt>
      <trkpt lat="45.5662" lon="5.73419">
        <ele>594</ele>
        <time>2019-10-27T10:45:29.000Z</time>
      </trkpt>
      <trkpt lat="45.56621" lon="5.73419">
        <ele>594</ele>
        <time>2019-10-27T10:45:30.000Z</time>
      </trkpt>
      <trkpt lat="45.56622" lon="5.7342">
        <ele>594</ele>
        <time>2019-10-27T10:45:31.000Z</time>
      </trkpt>
      <trkpt lat="45.56623" lon="5.73421">
        <ele>594</ele>
        <time>2019-10-27T10:45:32.000Z</time>
      </trkpt>
      <trkpt lat="45.56624" lon="5.73422">
        <ele>594</ele>
        <time>2019-10-27T10:45:33.000Z</time>
      </trkpt>
      <trkpt lat="45.56625" lon="5.73423">
        <ele>594</ele>
        <time>2019-10-27T10:45:34.000Z</time>
      </trkpt>
      <trkpt lat="45.56626" lon="5.73424">
        <ele>594</ele>
        <time>2019-10-27T10:45:35.000Z</time>
      </trkpt>
      <trkpt lat="45.56628" lon="5.73426">
        <ele>594</ele>
        <time>2019-10-27T10:45:36.000Z</time>
      </trkpt>
      <trkpt lat="45.56629" lon="5.73427">
        <ele>594</ele>
        <time>2019-10-27T10:45:37.000Z</time>
      </trkpt>
      <trkpt lat="45.56631" lon="5.73428">
        <ele>594</ele>
        <time>2019-10-27T10:45:38.000Z</time>
      </trkpt>
      <trkpt lat="45.56632" lon="5.73429">
        <ele>594</ele>
        <time>2019-10-27T10:45:39.000Z</time>
      </trkpt>
      <trkpt lat="45.56634" lon="5.7343">
        <ele>594</ele>
        <time>2019-10-27T10:45:40.000Z</time>
      </trkpt>
      <trkpt lat="45.56635" lon="5.73431">
        <ele>594</ele>
        <time>2019-10-27T10:45:41.000Z</time>
      </trkpt>
      <trkpt lat="45.56637" lon="5.73432">
        <ele>594</ele>
        <time>2019-10-27T10:45:42.000Z</time>
      </trkpt>
      <trkpt lat="45.56638" lon="5.73434">
        <ele>593</ele>
        <time>2019-10-27T10:45:43.000Z</time>
      </trkpt>
      <trkpt lat="45.56639" lon="5.73435">
        <ele>593</ele>
        <time>2019-10-27T10:45:44.000Z</time>
      </trkpt>
      <trkpt lat="45.5664" lon="5.73437">
        <ele>593</ele>
        <time>2019-10-27T10:45:45.000Z</time>
      </trkpt>
      <trkpt lat="45.56641" lon="5.73438">
        <ele>593</ele>
        <time>2019-10-27T10:45:46.000Z</time>
      </trkpt>
      <trkpt lat="45.56642" lon="5.7344">
        <ele>593</ele>
        <time>2019-10-27T10:45:47.000Z</time>
      </trkpt>
      <trkpt lat="45.56643" lon="5.73441">
        <ele>593</ele>
        <time>2019-10-27T10:45:48.000Z</time>
      </trkpt>
      <trkpt lat="45.56644" lon="5.73442">
        <ele>593</ele>
        <time>2019-10-27T10:45:49.000Z</time>
      </trkpt>
      <trkpt lat="45.56645" lon="5.73444">
        <ele>593</ele>
        <time>2019-10-27T10:45:50.000Z</time>
      </trkpt>
      <trkpt lat="45.56646" lon="5.73445">
        <ele>593</ele>
        <time>2019-10-27T10:45:51.000Z</time>
      </trkpt>
      <trkpt lat="45.56647" lon="5.73446">
        <ele>593</ele>
        <time>2019-10-27T10:45:52.000Z</time>
      </trkpt>
      <trkpt lat="45.56648" lon="5.73447">
        <ele>593</ele>
        <time>2019-10-27T10:45:53.000Z</time>
      </trkpt>
      <trkpt lat="45.56649" lon="5.73448">
        <ele>593</ele>
        <time>2019-10-27T10:45:54.000Z</time>
      </trkpt>
      <trkpt lat="45.5665" lon="5.73449">
        <ele>593</ele>
        <time>2019-10-27T10:45:55.000Z</time>
      </trkpt>
      <trkpt lat="45.56651" lon="5.7345">
        <ele>593</ele>
        <time>2019-10-27T10:45:56.000Z</time>
      </trkpt>
      <trkpt lat="45.56652" lon="5.73452">
        <ele>593</ele>
        <time>2019-10-27T10:45:57.000Z</time>
      </trkpt>
      <trkpt lat="45.56652" lon="5.73453">
        <ele>593</ele>
        <time>2019-10-27T10:45:58.000Z</time>
      </trkpt>
      <trkpt lat="45.56652" lon="5.73454">
        <ele>593</ele>
        <time>2019-10-27T10:45:59.000Z</time>
      </trkpt>
      <trkpt lat="45.56653" lon="5.73455">
        <ele>593</ele>
        <time>2019-10-27T10:46:00.000Z</time>
      </trkpt>
      <trkpt lat="45.56653" lon="5.73457">
        <ele>593</ele>
        <time>2019-10-27T10:46:01.000Z</time>
      </trkpt>
      <trkpt lat="45.56654" lon="5.73458">
        <ele>592.7</ele>
        <time>2019-10-27T10:46:02.000Z</time>
      </trkpt>
      <trkpt lat="45.56654" lon="5.73459">
        <ele>592.3</ele>
        <time>2019-10-27T10:46:03.000Z</time>
      </trkpt>
      <trkpt lat="45.56655" lon="5.7346">
        <ele>592</ele>
        <time>2019-10-27T10:46:04.000Z</time>
      </trkpt>
      <trkpt lat="45.56656" lon="5.73461">
        <ele>592</ele>
        <time>2019-10-27T10:46:05.000Z</time>
      </trkpt>
      <trkpt lat="45.56656" lon="5.73462">
        <ele>592</ele>
        <time>2019-10-27T10:46:06.000Z</time>
      </trkpt>
      <trkpt lat="45.56657" lon="5.73464">
        <ele>592</ele>
        <time>2019-10-27T10:46:07.000Z</time>
      </trkpt>
      <trkpt lat="45.56658" lon="5.73465">
        <ele>592</ele>
        <time>2019-10-27T10:46:08.000Z</time>
      </trkpt>
      <trkpt lat="45.56659" lon="5.73466">
        <ele>592</ele>
        <time>2019-10-27T10:46:09.000Z</time>
      </trkpt>
      <trkpt lat="45.56659" lon="5.73467">
        <ele>592</ele>
        <time>2019-10-27T10:46:10.000Z</time>
      </trkpt>
      <trkpt lat="45.5666" lon="5.73468">
        <ele>592</ele>
        <time>2019-10-27T10:46:11.000Z</time>
      </trkpt>
      <trkpt lat="45.5666" lon="5.73469">
        <ele>592</ele>
        <time>2019-10-27T10:46:12.000Z</time>
      </trkpt>
      <trkpt lat="45.56661" lon="5.7347">
        <ele>592</ele>
        <time>2019-10-27T10:46:13.000Z</time>
      </trkpt>
      <trkpt lat="45.56662" lon="5.73471">
        <ele>592</ele>
        <time>2019-10-27T10:46:14.000Z</time>
      </trkpt>
      <trkpt lat="45.56663" lon="5.73472">
        <ele>592</ele>
        <time>2019-10-27T10:46:15.000Z</time>
      </trkpt>
      <trkpt lat="45.56664" lon="5.73473">
        <ele>592</ele>
        <time>2019-10-27T10:46:16.000Z</time>
      </trkpt>
      <trkpt lat="45.56665" lon="5.73473">
        <ele>592</ele>
        <time>2019-10-27T10:46:17.000Z</time>
      </trkpt>
      <trkpt lat="45.56666" lon="5.73474">
        <ele>592</ele>
        <time>2019-10-27T10:46:18.000Z</time>
      </trkpt>
      <trkpt lat="45.56667" lon="5.73475">
        <ele>592</ele>
        <time>2019-10-27T10:46:19.000Z</time>
      </trkpt>
      <trkpt lat="45.56668" lon="5.73476">
        <ele>592</ele>
        <time>2019-10-27T10:46:20.000Z</time>
      </trkpt>
      <trkpt lat="45.56669" lon="5.73477">
        <ele>592</ele>
        <time>2019-10-27T10:46:21.000Z</time>
      </trkpt>
      <trkpt lat="45.5667" lon="5.73478">
        <ele>592</ele>
        <time>2019-10-27T10:46:22.000Z</time>
      </trkpt>
      <trkpt lat="45.5667" lon="5.73479">
        <ele>592</ele>
        <time>2019-10-27T10:46:23.000Z</time>
      </trkpt>
      <trkpt lat="45.56671" lon="5.7348">
        <ele>592</ele>
        <time>2019-10-27T10:46:24.000Z</time>
      </trkpt>
      <trkpt lat="45.56672" lon="5.73481">
        <ele>592</ele>
        <time>2019-10-27T10:46:25.000Z</time>
      </trkpt>
      <trkpt lat="45.56673" lon="5.73482">
        <ele>592</ele>
        <time>2019-10-27T10:46:26.000Z</time>
      </trkpt>
      <trkpt lat="45.56674" lon="5.73482">
        <ele>592</ele>
        <time>2019-10-27T10:46:27.000Z</time>
      </trkpt>
      <trkpt lat="45.56675" lon="5.73483">
        <ele>592</ele>
        <time>2019-10-27T10:46:28.000Z</time>
      </trkpt>
      <trkpt lat="45.56676" lon="5.73485">
        <ele>592</ele>
        <time>2019-10-27T10:46:29.000Z</time>
      </trkpt>
      <trkpt lat="45.56676" lon="5.73487">
        <ele>592</ele>
        <time>2019-10-27T10:46:30.000Z</time>
      </trkpt>
      <trkpt lat="45.56676" lon="5.73489">
        <ele>592</ele>
        <time>2019-10-27T10:46:31.000Z</time>
      </trkpt>
      <trkpt lat="45.56677" lon="5.7349">
        <ele>592</ele>
        <time>2019-10-27T10:46:32.000Z</time>
      </trkpt>
      <trkpt lat="45.56678" lon="5.73492">
        <ele>592</ele>
        <time>2019-10-27T10:46:33.000Z</time>
      </trkpt>
      <trkpt lat="45.56679" lon="5.73492">
        <ele>592</ele>
        <time>2019-10-27T10:46:34.000Z</time>
      </trkpt>
      <trkpt lat="45.56681" lon="5.73493">
        <ele>592</ele>
        <time>2019-10-27T10:46:35.000Z</time>
      </trkpt>
      <trkpt lat="45.56681" lon="5.73494">
        <ele>592</ele>
        <time>2019-10-27T10:46:36.000Z</time>
      </trkpt>
      <trkpt lat="45.56682" lon="5.73495">
        <ele>592</ele>
        <time>2019-10-27T10:46:37.000Z</time>
      </trkpt>
      <trkpt lat="45.56683" lon="5.73496">
        <ele>592</ele>
        <time>2019-10-27T10:46:38.000Z</time>
      </trkpt>
      <trkpt lat="45.56683" lon="5.73497">
        <ele>591.5</ele>
        <time>2019-10-27T10:46:39.000Z</time>
      </trkpt>
      <trkpt lat="45.56684" lon="5.73498">
        <ele>591</ele>
        <time>2019-10-27T10:46:40.000Z</time>
      </trkpt>
      <trkpt lat="45.56685" lon="5.73499">
        <ele>591</ele>
        <time>2019-10-27T10:46:41.000Z</time>
      </trkpt>
      <trkpt lat="45.56686" lon="5.73501">
        <ele>591</ele>
        <time>2019-10-27T10:46:42.000Z</time>
      </trkpt>
      <trkpt lat="45.56687" lon="5.73502">
        <ele>591</ele>
        <time>2019-10-27T10:46:43.000Z</time>
      </trkpt>
      <trkpt lat="45.56688" lon="5.73503">
        <ele>591</ele>
        <time>2019-10-27T10:46:44.000Z</time>
      </trkpt>
      <trkpt lat="45.56689" lon="5.73504">
        <ele>591</ele>
        <time>2019-10-27T10:46:45.000Z</time>
      </trkpt>
      <trkpt lat="45.5669" lon="5.73505">
        <ele>591</ele>
        <time>2019-10-27T10:46:46.000Z</time>
      </trkpt>
      <trkpt lat="45.56691" lon="5.73505">
        <ele>591</ele>
        <time>2019-10-27T10:46:47.000Z</time>
      </trkpt>
      <trkpt lat="45.56692" lon="5.73506">
        <ele>591</ele>
        <time>2019-10-27T10:46:48.000Z</time>
      </trkpt>
      <trkpt lat="45.56692" lon="5.73507">
        <ele>591</ele>
        <time>2019-10-27T10:46:49.000Z</time>
      </trkpt>
      <trkpt lat="45.56693" lon="5.73508">
        <ele>591</ele>
        <time>2019-10-27T10:46:50.000Z</time>
      </trkpt>
      <trkpt lat="45.56694" lon="5.73508">
        <ele>591</ele>
        <time>2019-10-27T10:46:51.000Z</time>
      </trkpt>
      <trkpt lat="45.56695" lon="5.73509">
        <ele>591</ele>
        <time>2019-10-27T10:46:52.000Z</time>
      </trkpt>
      <trkpt lat="45.56695" lon="5.7351">
        <ele>591</ele>
        <time>2019-10-27T10:46:53.000Z</time>
      </trkpt>
      <trkpt lat="45.56696" lon="5.73511">
        <ele>591</ele>
        <time>2019-10-27T10:46:54.000Z</time>
      </trkpt>
      <trkpt lat="45.56696" lon="5.73513">
        <ele>591</ele>
        <time>2019-10-27T10:46:55.000Z</time>
      </trkpt>
      <trkpt lat="45.56697" lon="5.73514">
        <ele>591</ele>
        <time>2019-10-27T10:46:56.000Z</time>
      </trkpt>
      <trkpt lat="45.56697" lon="5.73515">
        <ele>591</ele>
        <time>2019-10-27T10:46:57.000Z</time>
      </trkpt>
      <trkpt lat="45.56698" lon="5.73516">
        <ele>591</ele>
        <time>2019-10-27T10:46:58.000Z</time>
      </trkpt>
      <trkpt lat="45.56698" lon="5.73517">
        <ele>591</ele>
        <time>2019-10-27T10:46:59.000Z</time>
      </trkpt>
      <trkpt lat="45.56699" lon="5.73518">
        <ele>591</ele>
        <time>2019-10-27T10:47:00.000Z</time>
      </trkpt>
      <trkpt lat="45.56699" lon="5.73518">
        <ele>591</ele>
        <time>2019-10-27T10:47:01.000Z</time>
      </trkpt>
      <trkpt lat="45.567" lon="5.73519">
        <ele>591</ele>
        <time>2019-10-27T10:47:02.000Z</time>
      </trkpt>
      <trkpt lat="45.567" lon="5.73519">
        <ele>591</ele>
        <time>2019-10-27T10:47:03.000Z</time>
      </trkpt>
      <trkpt lat="45.56701" lon="5.73519">
        <ele>591</ele>
        <time>2019-10-27T10:47:04.000Z</time>
      </trkpt>
      <trkpt lat="45.56701" lon="5.73519">
        <ele>591</ele>
        <time>2019-10-27T10:47:05.000Z</time>
      </trkpt>
      <trkpt lat="45.56701" lon="5.7352">
        <ele>591</ele>
        <time>2019-10-27T10:47:06.000Z</time>
      </trkpt>
      <trkpt lat="45.56702" lon="5.7352">
        <ele>591</ele>
        <time>2019-10-27T10:47:07.000Z</time>
      </trkpt>
      <trkpt lat="45.56702" lon="5.7352">
        <ele>591</ele>
        <time>2019-10-27T10:47:08.000Z</time>
      </trkpt>
      <trkpt lat="45.56702" lon="5.7352">
        <ele>591</ele>
        <time>2019-10-27T10:47:09.000Z</time>
      </trkpt>
      <trkpt lat="45.56702" lon="5.73521">
        <ele>591</ele>
        <time>2019-10-27T10:47:10.000Z</time>
      </trkpt>
      <trkpt lat="45.56703" lon="5.73521">
        <ele>591</ele>
        <time>2019-10-27T10:47:11.000Z</time>
      </trkpt>
      <trkpt lat="45.56703" lon="5.73522">
        <ele>591</ele>
        <time>2019-10-27T10:47:12.000Z</time>
      </trkpt>
      <trkpt lat="45.56703" lon="5.73523">
        <ele>591</ele>
        <time>2019-10-27T10:47:13.000Z</time>
      </trkpt>
      <trkpt lat="45.56703" lon="5.73524">
        <ele>591</ele>
        <time>2019-10-27T10:47:14.000Z</time>
      </trkpt>
      <trkpt lat="45.56704" lon="5.73525">
        <ele>591</ele>
        <time>2019-10-27T10:47:15.000Z</time>
      </trkpt>
      <trkpt lat="45.56704" lon="5.73526">
        <ele>591</ele>
        <time>2019-10-27T10:47:16.000Z</time>
      </trkpt>
      <trkpt lat="45.56705" lon="5.73527">
        <ele>591</ele>
        <time>2019-10-27T10:47:17.000Z</time>
      </trkpt>
      <trkpt lat="45.56706" lon="5.73528">
        <ele>591</ele>
        <time>2019-10-27T10:47:18.000Z</time>
      </trkpt>
      <trkpt lat="45.56707" lon="5.7353">
        <ele>591</ele>
        <time>2019-10-27T10:47:19.000Z</time>
      </trkpt>
      <trkpt lat="45.56708" lon="5.73531">
        <ele>591</ele>
        <time>2019-10-27T10:47:20.000Z</time>
      </trkpt>
      <trkpt lat="45.56709" lon="5.73533">
        <ele>591</ele>
        <time>2019-10-27T10:47:21.000Z</time>
      </trkpt>
      <trkpt lat="45.5671" lon="5.73535">
        <ele>591</ele>
        <time>2019-10-27T10:47:22.000Z</time>
      </trkpt>
      <trkpt lat="45.56711" lon="5.73536">
        <ele>591</ele>
        <time>2019-10-27T10:47:23.000Z</time>
      </trkpt>
      <trkpt lat="45.56712" lon="5.73538">
        <ele>591</ele>
        <time>2019-10-27T10:47:24.000Z</time>
      </trkpt>
      <trkpt lat="45.56713" lon="5.73539">
        <ele>591</ele>
        <time>2019-10-27T10:47:25.000Z</time>
      </trkpt>
      <trkpt lat="45.56713" lon="5.7354">
        <ele>591</ele>
        <time>2019-10-27T10:47:26.000Z</time>
      </trkpt>
      <trkpt lat="45.56714" lon="5.73542">
        <ele>591</ele>
        <time>2019-10-27T10:47:27.000Z</time>
      </trkpt>
      <trkpt lat="45.56715" lon="5.73543">
        <ele>591</ele>
        <time>2019-10-27T10:47:28.000Z</time>
      </trkpt>
      <trkpt lat="45.56715" lon="5.73545">
        <ele>591</ele>
        <time>2019-10-27T10:47:29.000Z</time>
      </trkpt>
      <trkpt lat="45.56715" lon="5.73546">
        <ele>591</ele>
        <time>2019-10-27T10:47:30.000Z</time>
      </trkpt>
      <trkpt lat="45.56716" lon="5.73548">
        <ele>591</ele>
        <time>2019-10-27T10:47:31.000Z</time>
      </trkpt>
      <trkpt lat="45.56716" lon="5.73549">
        <ele>591</ele>
        <time>2019-10-27T10:47:32.000Z</time>
      </trkpt>
      <trkpt lat="45.56716" lon="5.73551">
        <ele>590.5</ele>
        <time>2019-10-27T10:47:33.000Z</time>
      </trkpt>
      <trkpt lat="45.56716" lon="5.73552">
        <ele>590</ele>
        <time>2019-10-27T10:47:34.000Z</time>
      </trkpt>
      <trkpt lat="45.56717" lon="5.73553">
        <ele>590</ele>
        <time>2019-10-27T10:47:35.000Z</time>
      </trkpt>
      <trkpt lat="45.56717" lon="5.73554">
        <ele>590</ele>
        <time>2019-10-27T10:47:36.000Z</time>
      </trkpt>
      <trkpt lat="45.56717" lon="5.73556">
        <ele>590</ele>
        <time>2019-10-27T10:47:37.000Z</time>
      </trkpt>
      <trkpt lat="45.56717" lon="5.73557">
        <ele>590</ele>
        <time>2019-10-27T10:47:38.000Z</time>
      </trkpt>
      <trkpt lat="45.56718" lon="5.73557">
        <ele>590</ele>
        <time>2019-10-27T10:47:39.000Z</time>
      </trkpt>
      <trkpt lat="45.56718" lon="5.73558">
        <ele>590</ele>
        <time>2019-10-27T10:47:40.000Z</time>
      </trkpt>
      <trkpt lat="45.56719" lon="5.73559">
        <ele>590</ele>
        <time>2019-10-27T10:47:41.000Z</time>
      </trkpt>
      <trkpt lat="45.56719" lon="5.7356">
        <ele>590</ele>
        <time>2019-10-27T10:47:42.000Z</time>
      </trkpt>
      <trkpt lat="45.5672" lon="5.73561">
        <ele>590</ele>
        <time>2019-10-27T10:47:43.000Z</time>
      </trkpt>
      <trkpt lat="45.56721" lon="5.73562">
        <ele>590</ele>
        <time>2019-10-27T10:47:44.000Z</time>
      </trkpt>
      <trkpt lat="45.56721" lon="5.73563">
        <ele>591</ele>
        <time>2019-10-27T10:47:45.000Z</time>
      </trkpt>
      <trkpt lat="45.56722" lon="5.73564">
        <ele>591</ele>
        <time>2019-10-27T10:47:46.000Z</time>
      </trkpt>
      <trkpt lat="45.56723" lon="5.73565">
        <ele>591</ele>
        <time>2019-10-27T10:47:47.000Z</time>
      </trkpt>
      <trkpt lat="45.56724" lon="5.73567">
        <ele>591</ele>
        <time>2019-10-27T10:47:48.000Z</time>
      </trkpt>
      <trkpt lat="45.56725" lon="5.73568">
        <ele>591</ele>
        <time>2019-10-27T10:47:49.000Z</time>
      </trkpt>
      <trkpt lat="45.56726" lon="5.73569">
        <ele>591</ele>
        <time>2019-10-27T10:47:50.000Z</time>
      </trkpt>
      <trkpt lat="45.56727" lon="5.7357">
        <ele>591</ele>
        <time>2019-10-27T10:47:51.000Z</time>
      </trkpt>
      <trkpt lat="45.56728" lon="5.73571">
        <ele>591</ele>
        <time>2019-10-27T10:47:52.000Z</time>
      </trkpt>
      <trkpt lat="45.56729" lon="5.73571">
        <ele>591</ele>
        <time>2019-10-27T10:47:53.000Z</time>
      </trkpt>
      <trkpt lat="45.56729" lon="5.73572">
        <ele>591</ele>
        <time>2019-10-27T10:47:54.000Z</time>
      </trkpt>
      <trkpt lat="45.5673" lon="5.73573">
        <ele>591</ele>
        <time>2019-10-27T10:47:55.000Z</time>
      </trkpt>
      <trkpt lat="45.56731" lon="5.73573">
        <ele>591</ele>
        <time>2019-10-27T10:47:56.000Z</time>
      </trkpt>
      <trkpt lat="45.56732" lon="5.73574">
        <ele>591</ele>
        <time>2019-10-27T10:47:57.000Z</time>
      </trkpt>
      <trkpt lat="45.56732" lon="5.73574">
        <ele>591</ele>
        <time>2019-10-27T10:47:58.000Z</time>
      </trkpt>
      <trkpt lat="45.56733" lon="5.73574">
        <ele>591.5</ele>
        <time>2019-10-27T10:47:59.000Z</time>
      </trkpt>
      <trkpt lat="45.56734" lon="5.73575">
        <ele>592</ele>
        <time>2019-10-27T10:48:00.000Z</time>
      </trkpt>
      <trkpt lat="45.56734" lon="5.73575">
        <ele>592</ele>
        <time>2019-10-27T10:48:01.000Z</time>
      </trkpt>
      <trkpt lat="45.56735" lon="5.73576">
        <ele>592</ele>
        <time>2019-10-27T10:48:02.000Z</time>
      </trkpt>
      <trkpt lat="45.56736" lon="5.73576">
        <ele>592</ele>
        <time>2019-10-27T10:48:03.000Z</time>
      </trkpt>
      <trkpt lat="45.56736" lon="5.73577">
        <ele>592</ele>
        <time>2019-10-27T10:48:04.000Z</time>
      </trkpt>
      <trkpt lat="45.56737" lon="5.73578">
        <ele>592.5</ele>
        <time>2019-10-27T10:48:05.000Z</time>
      </trkpt>
      <trkpt lat="45.56738" lon="5.73578">
        <ele>593</ele>
        <time>2019-10-27T10:48:06.000Z</time>
      </trkpt>
      <trkpt lat="45.56739" lon="5.73579">
        <ele>593</ele>
        <time>2019-10-27T10:48:07.000Z</time>
      </trkpt>
      <trkpt lat="45.56739" lon="5.73579">
        <ele>593</ele>
        <time>2019-10-27T10:48:08.000Z</time>
      </trkpt>
      <trkpt lat="45.5674" lon="5.7358">
        <ele>593</ele>
        <time>2019-10-27T10:48:09.000Z</time>
      </trkpt>
      <trkpt lat="45.56741" lon="5.7358">
        <ele>593</ele>
        <time>2019-10-27T10:48:10.000Z</time>
      </trkpt>
      <trkpt lat="45.56741" lon="5.7358">
        <ele>593</ele>
        <time>2019-10-27T10:48:11.000Z</time>
      </trkpt>
      <trkpt lat="45.56742" lon="5.73581">
        <ele>593</ele>
        <time>2019-10-27T10:48:12.000Z</time>
      </trkpt>
      <trkpt lat="45.56743" lon="5.73581">
        <ele>593.5</ele>
        <time>2019-10-27T10:48:13.000Z</time>
      </trkpt>
      <trkpt lat="45.56743" lon="5.73581">
        <ele>594</ele>
        <time>2019-10-27T10:48:14.000Z</time>
      </trkpt>
      <trkpt lat="45.56744" lon="5.73581">
        <ele>594</ele>
        <time>2019-10-27T10:48:15.000Z</time>
      </trkpt>
      <trkpt lat="45.56745" lon="5.73581">
        <ele>594</ele>
        <time>2019-10-27T10:48:16.000Z</time>
      </trkpt>
      <trkpt lat="45.56745" lon="5.73582">
        <ele>594</ele>
        <time>2019-10-27T10:48:17.000Z</time>
      </trkpt>
      <trkpt lat="45.56746" lon="5.73582">
        <ele>594</ele>
        <time>2019-10-27T10:48:18.000Z</time>
      </trkpt>
      <trkpt lat="45.56747" lon="5.73583">
        <ele>594</ele>
        <time>2019-10-27T10:48:19.000Z</time>
      </trkpt>
      <trkpt lat="45.56747" lon="5.73583">
        <ele>594.3</ele>
        <time>2019-10-27T10:48:20.000Z</time>
      </trkpt>
      <trkpt lat="45.56748" lon="5.73584">
        <ele>594.7</ele>
        <time>2019-10-27T10:48:21.000Z</time>
      </trkpt>
      <trkpt lat="45.56749" lon="5.73584">
        <ele>595</ele>
        <time>2019-10-27T10:48:22.000Z</time>
      </trkpt>
      <trkpt lat="45.5675" lon="5.73585">
        <ele>595</ele>
        <time>2019-10-27T10:48:23.000Z</time>
      </trkpt>
      <trkpt lat="45.5675" lon="5.73586">
        <ele>595</ele>
        <time>2019-10-27T10:48:24.000Z</time>
      </trkpt>
      <trkpt lat="45.56751" lon="5.73587">
        <ele>595</ele>
        <time>2019-10-27T10:48:25.000Z</time>
      </trkpt>
      <trkpt lat="45.56752" lon="5.73587">
        <ele>595.3</ele>
        <time>2019-10-27T10:48:26.000Z</time>
      </trkpt>
      <trkpt lat="45.56752" lon="5.73588">
        <ele>595.7</ele>
        <time>2019-10-27T10:48:27.000Z</time>
      </trkpt>
      <trkpt lat="45.56753" lon="5.73589">
        <ele>596</ele>
        <time>2019-10-27T10:48:28.000Z</time>
      </trkpt>
      <trkpt lat="45.56754" lon="5.7359">
        <ele>596</ele>
        <time>2019-10-27T10:48:29.000Z</time>
      </trkpt>
      <trkpt lat="45.56754" lon="5.7359">
        <ele>596</ele>
        <time>2019-10-27T10:48:30.000Z</time>
      </trkpt>
      <trkpt lat="45.56755" lon="5.73591">
        <ele>596</ele>
        <time>2019-10-27T10:48:31.000Z</time>
      </trkpt>
      <trkpt lat="45.56756" lon="5.73592">
        <ele>596</ele>
        <time>2019-10-27T10:48:32.000Z</time>
      </trkpt>
      <trkpt lat="45.56757" lon="5.73592">
        <ele>596.5</ele>
        <time>2019-10-27T10:48:33.000Z</time>
      </trkpt>
      <trkpt lat="45.56757" lon="5.73593">
        <ele>597</ele>
        <time>2019-10-27T10:48:34.000Z</time>
      </trkpt>
      <trkpt lat="45.56758" lon="5.73594">
        <ele>597</ele>
        <time>2019-10-27T10:48:35.000Z</time>
      </trkpt>
      <trkpt lat="45.56759" lon="5.73595">
        <ele>597</ele>
        <time>2019-10-27T10:48:36.000Z</time>
      </trkpt>
      <trkpt lat="45.56759" lon="5.73595">
        <ele>597</ele>
        <time>2019-10-27T10:48:37.000Z</time>
      </trkpt>
      <trkpt lat="45.5676" lon="5.73596">
        <ele>597</ele>
        <time>2019-10-27T10:48:38.000Z</time>
      </trkpt>
      <trkpt lat="45.56761" lon="5.73597">
        <ele>597</ele>
        <time>2019-10-27T10:48:39.000Z</time>
      </trkpt>
      <trkpt lat="45.56761" lon="5.73598">
        <ele>597</ele>
        <time>2019-10-27T10:48:40.000Z</time>
      </trkpt>
      <trkpt lat="45.56762" lon="5.73599">
        <ele>598</ele>
        <time>2019-10-27T10:48:41.000Z</time>
      </trkpt>
      <trkpt lat="45.56762" lon="5.736">
        <ele>598</ele>
        <time>2019-10-27T10:48:42.000Z</time>
      </trkpt>
      <trkpt lat="45.56763" lon="5.73601">
        <ele>598</ele>
        <time>2019-10-27T10:48:43.000Z</time>
      </trkpt>
      <trkpt lat="45.56763" lon="5.73602">
        <ele>598</ele>
        <time>2019-10-27T10:48:44.000Z</time>
      </trkpt>
      <trkpt lat="45.56764" lon="5.73603">
        <ele>598</ele>
        <time>2019-10-27T10:48:45.000Z</time>
      </trkpt>
      <trkpt lat="45.56765" lon="5.73604">
        <ele>598</ele>
        <time>2019-10-27T10:48:46.000Z</time>
      </trkpt>
      <trkpt lat="45.56765" lon="5.73605">
        <ele>598</ele>
        <time>2019-10-27T10:48:47.000Z</time>
      </trkpt>
      <trkpt lat="45.56766" lon="5.73606">
        <ele>598</ele>
        <time>2019-10-27T10:48:48.000Z</time>
      </trkpt>
      <trkpt lat="45.56766" lon="5.73607">
        <ele>598.5</ele>
        <time>2019-10-27T10:48:49.000Z</time>
      </trkpt>
      <trkpt lat="45.56767" lon="5.73609">
        <ele>599</ele>
        <time>2019-10-27T10:48:50.000Z</time>
      </trkpt>
      <trkpt lat="45.56767" lon="5.7361">
        <ele>599</ele>
        <time>2019-10-27T10:48:51.000Z</time>
      </trkpt>
      <trkpt lat="45.56768" lon="5.73611">
        <ele>599</ele>
        <time>2019-10-27T10:48:52.000Z</time>
      </trkpt>
      <trkpt lat="45.56768" lon="5.73612">
        <ele>599</ele>
        <time>2019-10-27T10:48:53.000Z</time>
      </trkpt>
      <trkpt lat="45.56769" lon="5.73613">
        <ele>599</ele>
        <time>2019-10-27T10:48:54.000Z</time>
      </trkpt>
      <trkpt lat="45.56769" lon="5.73614">
        <ele>599</ele>
        <time>2019-10-27T10:48:55.000Z</time>
      </trkpt>
      <trkpt lat="45.5677" lon="5.73615">
        <ele>599</ele>
        <time>2019-10-27T10:48:56.000Z</time>
      </trkpt>
      <trkpt lat="45.5677" lon="5.73616">
        <ele>600</ele>
        <time>2019-10-27T10:48:57.000Z</time>
      </trkpt>
      <trkpt lat="45.56771" lon="5.73617">
        <ele>600</ele>
        <time>2019-10-27T10:48:58.000Z</time>
      </trkpt>
      <trkpt lat="45.56771" lon="5.73618">
        <ele>600</ele>
        <time>2019-10-27T10:48:59.000Z</time>
      </trkpt>
      <trkpt lat="45.56772" lon="5.73619">
        <ele>600</ele>
        <time>2019-10-27T10:49:00.000Z</time>
      </trkpt>
      <trkpt lat="45.56772" lon="5.7362">
        <ele>600</ele>
        <time>2019-10-27T10:49:01.000Z</time>
      </trkpt>
      <trkpt lat="45.56773" lon="5.73621">
        <ele>600</ele>
        <time>2019-10-27T10:49:02.000Z</time>
      </trkpt>
      <trkpt lat="45.56774" lon="5.73622">
        <ele>600</ele>
        <time>2019-10-27T10:49:03.000Z</time>
      </trkpt>
      <trkpt lat="45.56775" lon="5.73623">
        <ele>600</ele>
        <time>2019-10-27T10:49:04.000Z</time>
      </trkpt>
      <trkpt lat="45.56775" lon="5.73624">
        <ele>600</ele>
        <time>2019-10-27T10:49:05.000Z</time>
      </trkpt>
      <trkpt lat="45.56776" lon="5.73625">
        <ele>600</ele>
        <time>2019-10-27T10:49:06.000Z</time>
      </trkpt>
      <trkpt lat="45.56777" lon="5.73625">
        <ele>600.5</ele>
        <time>2019-10-27T10:49:07.000Z</time>
      </trkpt>
      <trkpt lat="45.56778" lon="5.73626">
        <ele>601</ele>
        <time>2019-10-27T10:49:08.000Z</time>
      </trkpt>
      <trkpt lat="45.56779" lon="5.73627">
        <ele>601</ele>
        <time>2019-10-27T10:49:09.000Z</time>
      </trkpt>
      <trkpt lat="45.5678" lon="5.73628">
        <ele>601</ele>
        <time>2019-10-27T10:49:10.000Z</time>
      </trkpt>
      <trkpt lat="45.56781" lon="5.73629">
        <ele>601</ele>
        <time>2019-10-27T10:49:11.000Z</time>
      </trkpt>
      <trkpt lat="45.56782" lon="5.7363">
        <ele>601</ele>
        <time>2019-10-27T10:49:12.000Z</time>
      </trkpt>
      <trkpt lat="45.56783" lon="5.73631">
        <ele>601</ele>
        <time>2019-10-27T10:49:13.000Z</time>
      </trkpt>
      <trkpt lat="45.56783" lon="5.73632">
        <ele>601</ele>
        <time>2019-10-27T10:49:14.000Z</time>
      </trkpt>
      <trkpt lat="45.56784" lon="5.73633">
        <ele>601</ele>
        <time>2019-10-27T10:49:15.000Z</time>
      </trkpt>
      <trkpt lat="45.56785" lon="5.73634">
        <ele>601.3</ele>
        <time>2019-10-27T10:49:16.000Z</time>
      </trkpt>
      <trkpt lat="45.56786" lon="5.73635">
        <ele>601.7</ele>
        <time>2019-10-27T10:49:17.000Z</time>
      </trkpt>
      <trkpt lat="45.56786" lon="5.73636">
        <ele>602</ele>
        <time>2019-10-27T10:49:18.000Z</time>
      </trkpt>
      <trkpt lat="45.56787" lon="5.73637">
        <ele>602</ele>
        <time>2019-10-27T10:49:19.000Z</time>
      </trkpt>
      <trkpt lat="45.56788" lon="5.73638">
        <ele>602</ele>
        <time>2019-10-27T10:49:20.000Z</time>
      </trkpt>
      <trkpt lat="45.56789" lon="5.7364">
        <ele>602</ele>
        <time>2019-10-27T10:49:21.000Z</time>
      </trkpt>
      <trkpt lat="45.56789" lon="5.73641">
        <ele>602</ele>
        <time>2019-10-27T10:49:22.000Z</time>
      </trkpt>
      <trkpt lat="45.5679" lon="5.73642">
        <ele>602</ele>
        <time>2019-10-27T10:49:23.000Z</time>
      </trkpt>
      <trkpt lat="45.5679" lon="5.73643">
        <ele>602</ele>
        <time>2019-10-27T10:49:24.000Z</time>
      </trkpt>
      <trkpt lat="45.56791" lon="5.73644">
        <ele>602</ele>
        <time>2019-10-27T10:49:25.000Z</time>
      </trkpt>
      <trkpt lat="45.56791" lon="5.73645">
        <ele>602</ele>
        <time>2019-10-27T10:49:26.000Z</time>
      </trkpt>
      <trkpt lat="45.56792" lon="5.73645">
        <ele>602.5</ele>
        <time>2019-10-27T10:49:27.000Z</time>
      </trkpt>
      <trkpt lat="45.56792" lon="5.73646">
        <ele>603</ele>
        <time>2019-10-27T10:49:28.000Z</time>
      </trkpt>
      <trkpt lat="45.56792" lon="5.73646">
        <ele>603</ele>
        <time>2019-10-27T10:49:29.000Z</time>
      </trkpt>
      <trkpt lat="45.56793" lon="5.73646">
        <ele>603</ele>
        <time>2019-10-27T10:49:30.000Z</time>
      </trkpt>
      <trkpt lat="45.56793" lon="5.73646">
        <ele>603</ele>
        <time>2019-10-27T10:49:31.000Z</time>
      </trkpt>
      <trkpt lat="45.56794" lon="5.73646">
        <ele>603</ele>
        <time>2019-10-27T10:49:32.000Z</time>
      </trkpt>
      <trkpt lat="45.56794" lon="5.73647">
        <ele>603</ele>
        <time>2019-10-27T10:49:33.000Z</time>
      </trkpt>
      <trkpt lat="45.56795" lon="5.73648">
        <ele>603</ele>
        <time>2019-10-27T10:49:34.000Z</time>
      </trkpt>
      <trkpt lat="45.56796" lon="5.73648">
        <ele>603.5</ele>
        <time>2019-10-27T10:49:35.000Z</time>
      </trkpt>
      <trkpt lat="45.56796" lon="5.73649">
        <ele>604</ele>
        <time>2019-10-27T10:49:36.000Z</time>
      </trkpt>
      <trkpt lat="45.56797" lon="5.7365">
        <ele>604</ele>
        <time>2019-10-27T10:49:37.000Z</time>
      </trkpt>
      <trkpt lat="45.56798" lon="5.7365">
        <ele>604</ele>
        <time>2019-10-27T10:49:38.000Z</time>
      </trkpt>
      <trkpt lat="45.56798" lon="5.73651">
        <ele>604</ele>
        <time>2019-10-27T10:49:39.000Z</time>
      </trkpt>
      <trkpt lat="45.56798" lon="5.73651">
        <ele>604.3</ele>
        <time>2019-10-27T10:49:40.000Z</time>
      </trkpt>
      <trkpt lat="45.56799" lon="5.73651">
        <ele>604.7</ele>
        <time>2019-10-27T10:49:41.000Z</time>
      </trkpt>
      <trkpt lat="45.56799" lon="5.73651">
        <ele>605</ele>
        <time>2019-10-27T10:49:42.000Z</time>
      </trkpt>
      <trkpt lat="45.568" lon="5.73651">
        <ele>605</ele>
        <time>2019-10-27T10:49:43.000Z</time>
      </trkpt>
      <trkpt lat="45.568" lon="5.73651">
        <ele>605</ele>
        <time>2019-10-27T10:49:44.000Z</time>
      </trkpt>
      <trkpt lat="45.56801" lon="5.73651">
        <ele>605</ele>
        <time>2019-10-27T10:49:45.000Z</time>
      </trkpt>
      <trkpt lat="45.56801" lon="5.73651">
        <ele>605</ele>
        <time>2019-10-27T10:49:46.000Z</time>
      </trkpt>
      <trkpt lat="45.56802" lon="5.73651">
        <ele>605</ele>
        <time>2019-10-27T10:49:47.000Z</time>
      </trkpt>
      <trkpt lat="45.56802" lon="5.7365">
        <ele>605</ele>
        <time>2019-10-27T10:49:48.000Z</time>
      </trkpt>
      <trkpt lat="45.56803" lon="5.7365">
        <ele>605.5</ele>
        <time>2019-10-27T10:49:49.000Z</time>
      </trkpt>
      <trkpt lat="45.56804" lon="5.73649">
        <ele>606</ele>
        <time>2019-10-27T10:49:50.000Z</time>
      </trkpt>
      <trkpt lat="45.56805" lon="5.73649">
        <ele>606</ele>
        <time>2019-10-27T10:49:51.000Z</time>
      </trkpt>
      <trkpt lat="45.56805" lon="5.73648">
        <ele>606</ele>
        <time>2019-10-27T10:49:52.000Z</time>
      </trkpt>
      <trkpt lat="45.56806" lon="5.73648">
        <ele>606</ele>
        <time>2019-10-27T10:49:53.000Z</time>
      </trkpt>
      <trkpt lat="45.56807" lon="5.73647">
        <ele>606</ele>
        <time>2019-10-27T10:49:54.000Z</time>
      </trkpt>
      <trkpt lat="45.56808" lon="5.73647">
        <ele>606</ele>
        <time>2019-10-27T10:49:55.000Z</time>
      </trkpt>
      <trkpt lat="45.56808" lon="5.73646">
        <ele>606</ele>
        <time>2019-10-27T10:49:56.000Z</time>
      </trkpt>
      <trkpt lat="45.56809" lon="5.73645">
        <ele>606</ele>
        <time>2019-10-27T10:49:57.000Z</time>
      </trkpt>
      <trkpt lat="45.5681" lon="5.73645">
        <ele>606</ele>
        <time>2019-10-27T10:49:58.000Z</time>
      </trkpt>
      <trkpt lat="45.5681" lon="5.73644">
        <ele>606.5</ele>
        <time>2019-10-27T10:49:59.000Z</time>
      </trkpt>
      <trkpt lat="45.56811" lon="5.73643">
        <ele>607</ele>
        <time>2019-10-27T10:50:00.000Z</time>
      </trkpt>
      <trkpt lat="45.56812" lon="5.73643">
        <ele>607</ele>
        <time>2019-10-27T10:50:01.000Z</time>
      </trkpt>
      <trkpt lat="45.56812" lon="5.73642">
        <ele>607</ele>
        <time>2019-10-27T10:50:02.000Z</time>
      </trkpt>
      <trkpt lat="45.56813" lon="5.73642">
        <ele>607</ele>
        <time>2019-10-27T10:50:03.000Z</time>
      </trkpt>
      <trkpt lat="45.56814" lon="5.73641">
        <ele>607</ele>
        <time>2019-10-27T10:50:04.000Z</time>
      </trkpt>
      <trkpt lat="45.56815" lon="5.7364">
        <ele>607</ele>
        <time>2019-10-27T10:50:05.000Z</time>
      </trkpt>
      <trkpt lat="45.56815" lon="5.73639">
        <ele>607</ele>
        <time>2019-10-27T10:50:06.000Z</time>
      </trkpt>
      <trkpt lat="45.56816" lon="5.73638">
        <ele>607</ele>
        <time>2019-10-27T10:50:07.000Z</time>
      </trkpt>
      <trkpt lat="45.56818" lon="5.73636">
        <ele>607</ele>
        <time>2019-10-27T10:50:08.000Z</time>
      </trkpt>
      <trkpt lat="45.56819" lon="5.73635">
        <ele>608</ele>
        <time>2019-10-27T10:50:09.000Z</time>
      </trkpt>
      <trkpt lat="45.5682" lon="5.73633">
        <ele>608</ele>
        <time>2019-10-27T10:50:10.000Z</time>
      </trkpt>
      <trkpt lat="45.56821" lon="5.73633">
        <ele>608</ele>
        <time>2019-10-27T10:50:11.000Z</time>
      </trkpt>
      <trkpt lat="45.56822" lon="5.73632">
        <ele>608</ele>
        <time>2019-10-27T10:50:12.000Z</time>
      </trkpt>
      <trkpt lat="45.56823" lon="5.73632">
        <ele>608</ele>
        <time>2019-10-27T10:50:13.000Z</time>
      </trkpt>
      <trkpt lat="45.56824" lon="5.73632">
        <ele>608</ele>
        <time>2019-10-27T10:50:14.000Z</time>
      </trkpt>
      <trkpt lat="45.56824" lon="5.73632">
        <ele>608</ele>
        <time>2019-10-27T10:50:15.000Z</time>
      </trkpt>
      <trkpt lat="45.56825" lon="5.73632">
        <ele>608</ele>
        <time>2019-10-27T10:50:16.000Z</time>
      </trkpt>
      <trkpt lat="45.56826" lon="5.73632">
        <ele>608</ele>
        <time>2019-10-27T10:50:17.000Z</time>
      </trkpt>
      <trkpt lat="45.56827" lon="5.73632">
        <ele>608</ele>
        <time>2019-10-27T10:50:18.000Z</time>
      </trkpt>
      <trkpt lat="45.56827" lon="5.73632">
        <ele>608</ele>
        <time>2019-10-27T10:50:19.000Z</time>
      </trkpt>
      <trkpt lat="45.56828" lon="5.73631">
        <ele>608.3</ele>
        <time>2019-10-27T10:50:20.000Z</time>
      </trkpt>
      <trkpt lat="45.56829" lon="5.73631">
        <ele>608.7</ele>
        <time>2019-10-27T10:50:21.000Z</time>
      </trkpt>
      <trkpt lat="45.5683" lon="5.73631">
        <ele>609</ele>
        <time>2019-10-27T10:50:22.000Z</time>
      </trkpt>
      <trkpt lat="45.5683" lon="5.73631">
        <ele>609</ele>
        <time>2019-10-27T10:50:23.000Z</time>
      </trkpt>
      <trkpt lat="45.56831" lon="5.73631">
        <ele>609</ele>
        <time>2019-10-27T10:50:24.000Z</time>
      </trkpt>
      <trkpt lat="45.56832" lon="5.73631">
        <ele>609</ele>
        <time>2019-10-27T10:50:25.000Z</time>
      </trkpt>
      <trkpt lat="45.56833" lon="5.73631">
        <ele>609</ele>
        <time>2019-10-27T10:50:26.000Z</time>
      </trkpt>
      <trkpt lat="45.56834" lon="5.73631">
        <ele>609</ele>
        <time>2019-10-27T10:50:27.000Z</time>
      </trkpt>
      <trkpt lat="45.56836" lon="5.73631">
        <ele>609</ele>
        <time>2019-10-27T10:50:28.000Z</time>
      </trkpt>
      <trkpt lat="45.56837" lon="5.73632">
        <ele>609</ele>
        <time>2019-10-27T10:50:29.000Z</time>
      </trkpt>
      <trkpt lat="45.56838" lon="5.73632">
        <ele>609.3</ele>
        <time>2019-10-27T10:50:30.000Z</time>
      </trkpt>
      <trkpt lat="45.56839" lon="5.73633">
        <ele>609.7</ele>
        <time>2019-10-27T10:50:31.000Z</time>
      </trkpt>
      <trkpt lat="45.5684" lon="5.73634">
        <ele>610</ele>
        <time>2019-10-27T10:50:32.000Z</time>
      </trkpt>
      <trkpt lat="45.56842" lon="5.73634">
        <ele>610</ele>
        <time>2019-10-27T10:50:33.000Z</time>
      </trkpt>
      <trkpt lat="45.56843" lon="5.73635">
        <ele>610</ele>
        <time>2019-10-27T10:50:34.000Z</time>
      </trkpt>
      <trkpt lat="45.56844" lon="5.73636">
        <ele>610</ele>
        <time>2019-10-27T10:50:35.000Z</time>
      </trkpt>
      <trkpt lat="45.56845" lon="5.73637">
        <ele>610</ele>
        <time>2019-10-27T10:50:36.000Z</time>
      </trkpt>
      <trkpt lat="45.56846" lon="5.73638">
        <ele>611</ele>
        <time>2019-10-27T10:50:37.000Z</time>
      </trkpt>
      <trkpt lat="45.56847" lon="5.73638">
        <ele>611</ele>
        <time>2019-10-27T10:50:38.000Z</time>
      </trkpt>
      <trkpt lat="45.56848" lon="5.73639">
        <ele>611</ele>
        <time>2019-10-27T10:50:39.000Z</time>
      </trkpt>
      <trkpt lat="45.56849" lon="5.7364">
        <ele>611</ele>
        <time>2019-10-27T10:50:40.000Z</time>
      </trkpt>
      <trkpt lat="45.56849" lon="5.73641">
        <ele>611</ele>
        <time>2019-10-27T10:50:41.000Z</time>
      </trkpt>
      <trkpt lat="45.5685" lon="5.73641">
        <ele>611</ele>
        <time>2019-10-27T10:50:42.000Z</time>
      </trkpt>
      <trkpt lat="45.5685" lon="5.73642">
        <ele>611.5</ele>
        <time>2019-10-27T10:50:43.000Z</time>
      </trkpt>
      <trkpt lat="45.56851" lon="5.73643">
        <ele>612</ele>
        <time>2019-10-27T10:50:44.000Z</time>
      </trkpt>
      <trkpt lat="45.56852" lon="5.73643">
        <ele>612</ele>
        <time>2019-10-27T10:50:45.000Z</time>
      </trkpt>
      <trkpt lat="45.56852" lon="5.73644">
        <ele>612</ele>
        <time>2019-10-27T10:50:46.000Z</time>
      </trkpt>
      <trkpt lat="45.56853" lon="5.73645">
        <ele>612</ele>
        <time>2019-10-27T10:50:47.000Z</time>
      </trkpt>
      <trkpt lat="45.56853" lon="5.73645">
        <ele>612</ele>
        <time>2019-10-27T10:50:48.000Z</time>
      </trkpt>
      <trkpt lat="45.56854" lon="5.73646">
        <ele>612</ele>
        <time>2019-10-27T10:50:49.000Z</time>
      </trkpt>
      <trkpt lat="45.56854" lon="5.73647">
        <ele>612</ele>
        <time>2019-10-27T10:50:50.000Z</time>
      </trkpt>
      <trkpt lat="45.56855" lon="5.73647">
        <ele>612</ele>
        <time>2019-10-27T10:50:51.000Z</time>
      </trkpt>
      <trkpt lat="45.56856" lon="5.73648">
        <ele>612.3</ele>
        <time>2019-10-27T10:50:52.000Z</time>
      </trkpt>
      <trkpt lat="45.56857" lon="5.73648">
        <ele>612.7</ele>
        <time>2019-10-27T10:50:53.000Z</time>
      </trkpt>
      <trkpt lat="45.56857" lon="5.73649">
        <ele>613</ele>
        <time>2019-10-27T10:50:54.000Z</time>
      </trkpt>
      <trkpt lat="45.56858" lon="5.73649">
        <ele>612.5</ele>
        <time>2019-10-27T10:50:55.000Z</time>
      </trkpt>
      <trkpt lat="45.56859" lon="5.73649">
        <ele>612</ele>
        <time>2019-10-27T10:50:56.000Z</time>
      </trkpt>
      <trkpt lat="45.5686" lon="5.7365">
        <ele>613</ele>
        <time>2019-10-27T10:50:57.000Z</time>
      </trkpt>
      <trkpt lat="45.56862" lon="5.7365">
        <ele>613</ele>
        <time>2019-10-27T10:50:58.000Z</time>
      </trkpt>
      <trkpt lat="45.56863" lon="5.7365">
        <ele>613</ele>
        <time>2019-10-27T10:50:59.000Z</time>
      </trkpt>
      <trkpt lat="45.56864" lon="5.73651">
        <ele>613</ele>
        <time>2019-10-27T10:51:00.000Z</time>
      </trkpt>
      <trkpt lat="45.56865" lon="5.73651">
        <ele>613</ele>
        <time>2019-10-27T10:51:01.000Z</time>
      </trkpt>
      <trkpt lat="45.56866" lon="5.73651">
        <ele>613</ele>
        <time>2019-10-27T10:51:02.000Z</time>
      </trkpt>
      <trkpt lat="45.56867" lon="5.73651">
        <ele>613</ele>
        <time>2019-10-27T10:51:03.000Z</time>
      </trkpt>
      <trkpt lat="45.56868" lon="5.73651">
        <ele>613</ele>
        <time>2019-10-27T10:51:04.000Z</time>
      </trkpt>
      <trkpt lat="45.56869" lon="5.73651">
        <ele>613</ele>
        <time>2019-10-27T10:51:05.000Z</time>
      </trkpt>
      <trkpt lat="45.5687" lon="5.73651">
        <ele>613</ele>
        <time>2019-10-27T10:51:06.000Z</time>
      </trkpt>
      <trkpt lat="45.56871" lon="5.73651">
        <ele>613</ele>
        <time>2019-10-27T10:51:07.000Z</time>
      </trkpt>
      <trkpt lat="45.56872" lon="5.73651">
        <ele>613</ele>
        <time>2019-10-27T10:51:08.000Z</time>
      </trkpt>
      <trkpt lat="45.56873" lon="5.73651">
        <ele>613</ele>
        <time>2019-10-27T10:51:09.000Z</time>
      </trkpt>
      <trkpt lat="45.56874" lon="5.73651">
        <ele>613</ele>
        <time>2019-10-27T10:51:10.000Z</time>
      </trkpt>
      <trkpt lat="45.56875" lon="5.73652">
        <ele>613</ele>
        <time>2019-10-27T10:51:11.000Z</time>
      </trkpt>
      <trkpt lat="45.56876" lon="5.73652">
        <ele>613</ele>
        <time>2019-10-27T10:51:12.000Z</time>
      </trkpt>
      <trkpt lat="45.56877" lon="5.73653">
        <ele>613</ele>
        <time>2019-10-27T10:51:13.000Z</time>
      </trkpt>
      <trkpt lat="45.56878" lon="5.73653">
        <ele>613</ele>
        <time>2019-10-27T10:51:14.000Z</time>
      </trkpt>
      <trkpt lat="45.5688" lon="5.73654">
        <ele>613</ele>
        <time>2019-10-27T10:51:15.000Z</time>
      </trkpt>
      <trkpt lat="45.56881" lon="5.73655">
        <ele>613</ele>
        <time>2019-10-27T10:51:16.000Z</time>
      </trkpt>
      <trkpt lat="45.56882" lon="5.73655">
        <ele>613</ele>
        <time>2019-10-27T10:51:17.000Z</time>
      </trkpt>
      <trkpt lat="45.56883" lon="5.73656">
        <ele>613</ele>
        <time>2019-10-27T10:51:18.000Z</time>
      </trkpt>
      <trkpt lat="45.56884" lon="5.73656">
        <ele>613.5</ele>
        <time>2019-10-27T10:51:19.000Z</time>
      </trkpt>
      <trkpt lat="45.56885" lon="5.73656">
        <ele>614</ele>
        <time>2019-10-27T10:51:20.000Z</time>
      </trkpt>
      <trkpt lat="45.56886" lon="5.73656">
        <ele>614</ele>
        <time>2019-10-27T10:51:21.000Z</time>
      </trkpt>
      <trkpt lat="45.56887" lon="5.73657">
        <ele>614</ele>
        <time>2019-10-27T10:51:22.000Z</time>
      </trkpt>
      <trkpt lat="45.56888" lon="5.73657">
        <ele>614</ele>
        <time>2019-10-27T10:51:23.000Z</time>
      </trkpt>
      <trkpt lat="45.56889" lon="5.73657">
        <ele>614</ele>
        <time>2019-10-27T10:51:24.000Z</time>
      </trkpt>
      <trkpt lat="45.5689" lon="5.73657">
        <ele>614</ele>
        <time>2019-10-27T10:51:25.000Z</time>
      </trkpt>
      <trkpt lat="45.56891" lon="5.73657">
        <ele>614</ele>
        <time>2019-10-27T10:51:26.000Z</time>
      </trkpt>
      <trkpt lat="45.56892" lon="5.73657">
        <ele>614</ele>
        <time>2019-10-27T10:51:27.000Z</time>
      </trkpt>
      <trkpt lat="45.56893" lon="5.73657">
        <ele>614</ele>
        <time>2019-10-27T10:51:28.000Z</time>
      </trkpt>
      <trkpt lat="45.56894" lon="5.73657">
        <ele>614</ele>
        <time>2019-10-27T10:51:29.000Z</time>
      </trkpt>
      <trkpt lat="45.56896" lon="5.73657">
        <ele>614.3</ele>
        <time>2019-10-27T10:51:30.000Z</time>
      </trkpt>
      <trkpt lat="45.56897" lon="5.73658">
        <ele>614.7</ele>
        <time>2019-10-27T10:51:31.000Z</time>
      </trkpt>
      <trkpt lat="45.56898" lon="5.73658">
        <ele>615</ele>
        <time>2019-10-27T10:51:32.000Z</time>
      </trkpt>
      <trkpt lat="45.56899" lon="5.73658">
        <ele>615</ele>
        <time>2019-10-27T10:51:33.000Z</time>
      </trkpt>
      <trkpt lat="45.569" lon="5.73659">
        <ele>615</ele>
        <time>2019-10-27T10:51:34.000Z</time>
      </trkpt>
      <trkpt lat="45.56901" lon="5.73659">
        <ele>615</ele>
        <time>2019-10-27T10:51:35.000Z</time>
      </trkpt>
      <trkpt lat="45.56902" lon="5.7366">
        <ele>615</ele>
        <time>2019-10-27T10:51:36.000Z</time>
      </trkpt>
      <trkpt lat="45.56904" lon="5.7366">
        <ele>615</ele>
        <time>2019-10-27T10:51:37.000Z</time>
      </trkpt>
      <trkpt lat="45.56905" lon="5.7366">
        <ele>615</ele>
        <time>2019-10-27T10:51:38.000Z</time>
      </trkpt>
      <trkpt lat="45.56906" lon="5.73661">
        <ele>615</ele>
        <time>2019-10-27T10:51:39.000Z</time>
      </trkpt>
      <trkpt lat="45.56907" lon="5.73661">
        <ele>615</ele>
        <time>2019-10-27T10:51:40.000Z</time>
      </trkpt>
      <trkpt lat="45.56908" lon="5.73662">
        <ele>615</ele>
        <time>2019-10-27T10:51:41.000Z</time>
      </trkpt>
      <trkpt lat="45.56909" lon="5.73662">
        <ele>615</ele>
        <time>2019-10-27T10:51:42.000Z</time>
      </trkpt>
      <trkpt lat="45.5691" lon="5.73663">
        <ele>615</ele>
        <time>2019-10-27T10:51:43.000Z</time>
      </trkpt>
      <trkpt lat="45.56911" lon="5.73664">
        <ele>615</ele>
        <time>2019-10-27T10:51:44.000Z</time>
      </trkpt>
      <trkpt lat="45.56912" lon="5.73664">
        <ele>615</ele>
        <time>2019-10-27T10:51:45.000Z</time>
      </trkpt>
      <trkpt lat="45.56913" lon="5.73665">
        <ele>615</ele>
        <time>2019-10-27T10:51:46.000Z</time>
      </trkpt>
      <trkpt lat="45.56914" lon="5.73666">
        <ele>615</ele>
        <time>2019-10-27T10:51:47.000Z</time>
      </trkpt>
      <trkpt lat="45.56915" lon="5.73667">
        <ele>615</ele>
        <time>2019-10-27T10:51:48.000Z</time>
      </trkpt>
      <trkpt lat="45.56916" lon="5.73668">
        <ele>615</ele>
        <time>2019-10-27T10:51:49.000Z</time>
      </trkpt>
      <trkpt lat="45.56917" lon="5.73669">
        <ele>615</ele>
        <time>2019-10-27T10:51:50.000Z</time>
      </trkpt>
      <trkpt lat="45.56918" lon="5.7367">
        <ele>615</ele>
        <time>2019-10-27T10:51:51.000Z</time>
      </trkpt>
      <trkpt lat="45.56919" lon="5.73671">
        <ele>615</ele>
        <time>2019-10-27T10:51:52.000Z</time>
      </trkpt>
      <trkpt lat="45.56919" lon="5.73672">
        <ele>615.5</ele>
        <time>2019-10-27T10:51:53.000Z</time>
      </trkpt>
      <trkpt lat="45.5692" lon="5.73672">
        <ele>616</ele>
        <time>2019-10-27T10:51:54.000Z</time>
      </trkpt>
      <trkpt lat="45.56921" lon="5.73673">
        <ele>616</ele>
        <time>2019-10-27T10:51:55.000Z</time>
      </trkpt>
      <trkpt lat="45.56922" lon="5.73674">
        <ele>616</ele>
        <time>2019-10-27T10:51:56.000Z</time>
      </trkpt>
      <trkpt lat="45.56923" lon="5.73675">
        <ele>616</ele>
        <time>2019-10-27T10:51:57.000Z</time>
      </trkpt>
      <trkpt lat="45.56924" lon="5.73676">
        <ele>616</ele>
        <time>2019-10-27T10:51:58.000Z</time>
      </trkpt>
      <trkpt lat="45.56925" lon="5.73677">
        <ele>616</ele>
        <time>2019-10-27T10:51:59.000Z</time>
      </trkpt>
      <trkpt lat="45.56926" lon="5.73678">
        <ele>616</ele>
        <time>2019-10-27T10:52:00.000Z</time>
      </trkpt>
      <trkpt lat="45.56927" lon="5.73679">
        <ele>616</ele>
        <time>2019-10-27T10:52:01.000Z</time>
      </trkpt>
      <trkpt lat="45.56927" lon="5.7368">
        <ele>616</ele>
        <time>2019-10-27T10:52:02.000Z</time>
      </trkpt>
      <trkpt lat="45.56928" lon="5.73681">
        <ele>616</ele>
        <time>2019-10-27T10:52:03.000Z</time>
      </trkpt>
      <trkpt lat="45.56929" lon="5.73682">
        <ele>616</ele>
        <time>2019-10-27T10:52:04.000Z</time>
      </trkpt>
      <trkpt lat="45.5693" lon="5.73684">
        <ele>616</ele>
        <time>2019-10-27T10:52:05.000Z</time>
      </trkpt>
      <trkpt lat="45.5693" lon="5.73685">
        <ele>616</ele>
        <time>2019-10-27T10:52:06.000Z</time>
      </trkpt>
      <trkpt lat="45.56931" lon="5.73686">
        <ele>616.5</ele>
        <time>2019-10-27T10:52:07.000Z</time>
      </trkpt>
      <trkpt lat="45.56932" lon="5.73687">
        <ele>617</ele>
        <time>2019-10-27T10:52:08.000Z</time>
      </trkpt>
      <trkpt lat="45.56932" lon="5.73688">
        <ele>617</ele>
        <time>2019-10-27T10:52:09.000Z</time>
      </trkpt>
      <trkpt lat="45.56933" lon="5.7369">
        <ele>617</ele>
        <time>2019-10-27T10:52:10.000Z</time>
      </trkpt>
      <trkpt lat="45.56934" lon="5.73691">
        <ele>617</ele>
        <time>2019-10-27T10:52:11.000Z</time>
      </trkpt>
      <trkpt lat="45.56935" lon="5.73692">
        <ele>617</ele>
        <time>2019-10-27T10:52:12.000Z</time>
      </trkpt>
      <trkpt lat="45.56936" lon="5.73693">
        <ele>617.5</ele>
        <time>2019-10-27T10:52:13.000Z</time>
      </trkpt>
      <trkpt lat="45.56937" lon="5.73694">
        <ele>618</ele>
        <time>2019-10-27T10:52:14.000Z</time>
      </trkpt>
      <trkpt lat="45.56938" lon="5.73695">
        <ele>618</ele>
        <time>2019-10-27T10:52:15.000Z</time>
      </trkpt>
      <trkpt lat="45.56939" lon="5.73696">
        <ele>618</ele>
        <time>2019-10-27T10:52:16.000Z</time>
      </trkpt>
      <trkpt lat="45.56939" lon="5.73696">
        <ele>618</ele>
        <time>2019-10-27T10:52:17.000Z</time>
      </trkpt>
      <trkpt lat="45.5694" lon="5.73697">
        <ele>618</ele>
        <time>2019-10-27T10:52:18.000Z</time>
      </trkpt>
      <trkpt lat="45.56941" lon="5.73698">
        <ele>618</ele>
        <time>2019-10-27T10:52:19.000Z</time>
      </trkpt>
      <trkpt lat="45.56942" lon="5.73699">
        <ele>618</ele>
        <time>2019-10-27T10:52:20.000Z</time>
      </trkpt>
      <trkpt lat="45.56942" lon="5.737">
        <ele>618.5</ele>
        <time>2019-10-27T10:52:21.000Z</time>
      </trkpt>
      <trkpt lat="45.56943" lon="5.73701">
        <ele>619</ele>
        <time>2019-10-27T10:52:22.000Z</time>
      </trkpt>
      <trkpt lat="45.56944" lon="5.73702">
        <ele>619</ele>
        <time>2019-10-27T10:52:23.000Z</time>
      </trkpt>
      <trkpt lat="45.56944" lon="5.73703">
        <ele>619</ele>
        <time>2019-10-27T10:52:24.000Z</time>
      </trkpt>
      <trkpt lat="45.56945" lon="5.73704">
        <ele>619</ele>
        <time>2019-10-27T10:52:25.000Z</time>
      </trkpt>
      <trkpt lat="45.56946" lon="5.73704">
        <ele>619</ele>
        <time>2019-10-27T10:52:26.000Z</time>
      </trkpt>
      <trkpt lat="45.56946" lon="5.73705">
        <ele>620</ele>
        <time>2019-10-27T10:52:27.000Z</time>
      </trkpt>
      <trkpt lat="45.56947" lon="5.73706">
        <ele>620</ele>
        <time>2019-10-27T10:52:28.000Z</time>
      </trkpt>
      <trkpt lat="45.56948" lon="5.73707">
        <ele>620</ele>
        <time>2019-10-27T10:52:29.000Z</time>
      </trkpt>
      <trkpt lat="45.56949" lon="5.73708">
        <ele>620</ele>
        <time>2019-10-27T10:52:30.000Z</time>
      </trkpt>
      <trkpt lat="45.5695" lon="5.73709">
        <ele>620</ele>
        <time>2019-10-27T10:52:31.000Z</time>
      </trkpt>
      <trkpt lat="45.56951" lon="5.7371">
        <ele>620</ele>
        <time>2019-10-27T10:52:32.000Z</time>
      </trkpt>
      <trkpt lat="45.56952" lon="5.7371">
        <ele>620.5</ele>
        <time>2019-10-27T10:52:33.000Z</time>
      </trkpt>
      <trkpt lat="45.56953" lon="5.73711">
        <ele>621</ele>
        <time>2019-10-27T10:52:34.000Z</time>
      </trkpt>
      <trkpt lat="45.56954" lon="5.73712">
        <ele>621</ele>
        <time>2019-10-27T10:52:35.000Z</time>
      </trkpt>
      <trkpt lat="45.56954" lon="5.73713">
        <ele>621</ele>
        <time>2019-10-27T10:52:36.000Z</time>
      </trkpt>
      <trkpt lat="45.56955" lon="5.73714">
        <ele>621</ele>
        <time>2019-10-27T10:52:37.000Z</time>
      </trkpt>
      <trkpt lat="45.56956" lon="5.73714">
        <ele>621.5</ele>
        <time>2019-10-27T10:52:38.000Z</time>
      </trkpt>
      <trkpt lat="45.56957" lon="5.73715">
        <ele>622</ele>
        <time>2019-10-27T10:52:39.000Z</time>
      </trkpt>
      <trkpt lat="45.56958" lon="5.73716">
        <ele>622</ele>
        <time>2019-10-27T10:52:40.000Z</time>
      </trkpt>
      <trkpt lat="45.56959" lon="5.73717">
        <ele>622</ele>
        <time>2019-10-27T10:52:41.000Z</time>
      </trkpt>
      <trkpt lat="45.5696" lon="5.73717">
        <ele>622</ele>
        <time>2019-10-27T10:52:42.000Z</time>
      </trkpt>
      <trkpt lat="45.56961" lon="5.73718">
        <ele>622</ele>
        <time>2019-10-27T10:52:43.000Z</time>
      </trkpt>
      <trkpt lat="45.56962" lon="5.73719">
        <ele>622</ele>
        <time>2019-10-27T10:52:44.000Z</time>
      </trkpt>
      <trkpt lat="45.56963" lon="5.73719">
        <ele>622</ele>
        <time>2019-10-27T10:52:45.000Z</time>
      </trkpt>
      <trkpt lat="45.56964" lon="5.7372">
        <ele>622</ele>
        <time>2019-10-27T10:52:46.000Z</time>
      </trkpt>
      <trkpt lat="45.56964" lon="5.73721">
        <ele>623</ele>
        <time>2019-10-27T10:52:47.000Z</time>
      </trkpt>
      <trkpt lat="45.56965" lon="5.73721">
        <ele>623</ele>
        <time>2019-10-27T10:52:48.000Z</time>
      </trkpt>
      <trkpt lat="45.56966" lon="5.73722">
        <ele>623</ele>
        <time>2019-10-27T10:52:49.000Z</time>
      </trkpt>
      <trkpt lat="45.56967" lon="5.73722">
        <ele>623</ele>
        <time>2019-10-27T10:52:50.000Z</time>
      </trkpt>
      <trkpt lat="45.56967" lon="5.73723">
        <ele>623</ele>
        <time>2019-10-27T10:52:51.000Z</time>
      </trkpt>
      <trkpt lat="45.56968" lon="5.73724">
        <ele>623</ele>
        <time>2019-10-27T10:52:52.000Z</time>
      </trkpt>
      <trkpt lat="45.56969" lon="5.73724">
        <ele>623</ele>
        <time>2019-10-27T10:52:53.000Z</time>
      </trkpt>
      <trkpt lat="45.5697" lon="5.73725">
        <ele>623</ele>
        <time>2019-10-27T10:52:54.000Z</time>
      </trkpt>
      <trkpt lat="45.56971" lon="5.73725">
        <ele>623.5</ele>
        <time>2019-10-27T10:52:55.000Z</time>
      </trkpt>
      <trkpt lat="45.56972" lon="5.73726">
        <ele>624</ele>
        <time>2019-10-27T10:52:56.000Z</time>
      </trkpt>
      <trkpt lat="45.56973" lon="5.73727">
        <ele>624</ele>
        <time>2019-10-27T10:52:57.000Z</time>
      </trkpt>
      <trkpt lat="45.56974" lon="5.73727">
        <ele>624</ele>
        <time>2019-10-27T10:52:58.000Z</time>
      </trkpt>
      <trkpt lat="45.56975" lon="5.73728">
        <ele>624</ele>
        <time>2019-10-27T10:52:59.000Z</time>
      </trkpt>
      <trkpt lat="45.56976" lon="5.73728">
        <ele>624</ele>
        <time>2019-10-27T10:53:00.000Z</time>
      </trkpt>
      <trkpt lat="45.56976" lon="5.73729">
        <ele>624</ele>
        <time>2019-10-27T10:53:01.000Z</time>
      </trkpt>
      <trkpt lat="45.56977" lon="5.73729">
        <ele>624</ele>
        <time>2019-10-27T10:53:02.000Z</time>
      </trkpt>
      <trkpt lat="45.56978" lon="5.7373">
        <ele>624.5</ele>
        <time>2019-10-27T10:53:03.000Z</time>
      </trkpt>
      <trkpt lat="45.56979" lon="5.7373">
        <ele>625</ele>
        <time>2019-10-27T10:53:04.000Z</time>
      </trkpt>
      <trkpt lat="45.56979" lon="5.7373">
        <ele>625</ele>
        <time>2019-10-27T10:53:05.000Z</time>
      </trkpt>
      <trkpt lat="45.5698" lon="5.7373">
        <ele>625</ele>
        <time>2019-10-27T10:53:06.000Z</time>
      </trkpt>
      <trkpt lat="45.5698" lon="5.7373">
        <ele>625</ele>
        <time>2019-10-27T10:53:07.000Z</time>
      </trkpt>
      <trkpt lat="45.56981" lon="5.73731">
        <ele>625</ele>
        <time>2019-10-27T10:53:08.000Z</time>
      </trkpt>
      <trkpt lat="45.56981" lon="5.73731">
        <ele>625</ele>
        <time>2019-10-27T10:53:09.000Z</time>
      </trkpt>
      <trkpt lat="45.56982" lon="5.73731">
        <ele>625</ele>
        <time>2019-10-27T10:53:10.000Z</time>
      </trkpt>
      <trkpt lat="45.56982" lon="5.73731">
        <ele>625.5</ele>
        <time>2019-10-27T10:53:11.000Z</time>
      </trkpt>
      <trkpt lat="45.56983" lon="5.73731">
        <ele>626</ele>
        <time>2019-10-27T10:53:12.000Z</time>
      </trkpt>
      <trkpt lat="45.56984" lon="5.73732">
        <ele>626</ele>
        <time>2019-10-27T10:53:13.000Z</time>
      </trkpt>
      <trkpt lat="45.56985" lon="5.73732">
        <ele>626</ele>
        <time>2019-10-27T10:53:14.000Z</time>
      </trkpt>
      <trkpt lat="45.56986" lon="5.73732">
        <ele>626</ele>
        <time>2019-10-27T10:53:15.000Z</time>
      </trkpt>
      <trkpt lat="45.56987" lon="5.73733">
        <ele>626</ele>
        <time>2019-10-27T10:53:16.000Z</time>
      </trkpt>
      <trkpt lat="45.56988" lon="5.73733">
        <ele>626</ele>
        <time>2019-10-27T10:53:17.000Z</time>
      </trkpt>
      <trkpt lat="45.56989" lon="5.73734">
        <ele>626</ele>
        <time>2019-10-27T10:53:18.000Z</time>
      </trkpt>
      <trkpt lat="45.5699" lon="5.73734">
        <ele>626</ele>
        <time>2019-10-27T10:53:19.000Z</time>
      </trkpt>
      <trkpt lat="45.56992" lon="5.73735">
        <ele>626.3</ele>
        <time>2019-10-27T10:53:20.000Z</time>
      </trkpt>
      <trkpt lat="45.56993" lon="5.73735">
        <ele>626.7</ele>
        <time>2019-10-27T10:53:21.000Z</time>
      </trkpt>
      <trkpt lat="45.56995" lon="5.73736">
        <ele>627</ele>
        <time>2019-10-27T10:53:22.000Z</time>
      </trkpt>
      <trkpt lat="45.56996" lon="5.73736">
        <ele>627</ele>
        <time>2019-10-27T10:53:23.000Z</time>
      </trkpt>
      <trkpt lat="45.56997" lon="5.73736">
        <ele>627</ele>
        <time>2019-10-27T10:53:24.000Z</time>
      </trkpt>
      <trkpt lat="45.56998" lon="5.73736">
        <ele>627</ele>
        <time>2019-10-27T10:53:25.000Z</time>
      </trkpt>
      <trkpt lat="45.56999" lon="5.73736">
        <ele>627</ele>
        <time>2019-10-27T10:53:26.000Z</time>
      </trkpt>
      <trkpt lat="45.56999" lon="5.73736">
        <ele>627.5</ele>
        <time>2019-10-27T10:53:27.000Z</time>
      </trkpt>
      <trkpt lat="45.56999" lon="5.73735">
        <ele>628</ele>
        <time>2019-10-27T10:53:28.000Z</time>
      </trkpt>
      <trkpt lat="45.57" lon="5.73735">
        <ele>628</ele>
        <time>2019-10-27T10:53:29.000Z</time>
      </trkpt>
      <trkpt lat="45.57001" lon="5.73735">
        <ele>628</ele>
        <time>2019-10-27T10:53:30.000Z</time>
      </trkpt>
      <trkpt lat="45.57001" lon="5.73735">
        <ele>628</ele>
        <time>2019-10-27T10:53:31.000Z</time>
      </trkpt>
      <trkpt lat="45.57002" lon="5.73734">
        <ele>628</ele>
        <time>2019-10-27T10:53:32.000Z</time>
      </trkpt>
      <trkpt lat="45.57004" lon="5.73734">
        <ele>628</ele>
        <time>2019-10-27T10:53:33.000Z</time>
      </trkpt>
      <trkpt lat="45.57005" lon="5.73735">
        <ele>628</ele>
        <time>2019-10-27T10:53:34.000Z</time>
      </trkpt>
      <trkpt lat="45.57007" lon="5.73734">
        <ele>628</ele>
        <time>2019-10-27T10:53:35.000Z</time>
      </trkpt>
      <trkpt lat="45.57008" lon="5.73734">
        <ele>629</ele>
        <time>2019-10-27T10:53:36.000Z</time>
      </trkpt>
      <trkpt lat="45.5701" lon="5.73734">
        <ele>629</ele>
        <time>2019-10-27T10:53:37.000Z</time>
      </trkpt>
      <trkpt lat="45.57011" lon="5.73734">
        <ele>629</ele>
        <time>2019-10-27T10:53:38.000Z</time>
      </trkpt>
      <trkpt lat="45.57012" lon="5.73733">
        <ele>629</ele>
        <time>2019-10-27T10:53:39.000Z</time>
      </trkpt>
      <trkpt lat="45.57014" lon="5.73733">
        <ele>629</ele>
        <time>2019-10-27T10:53:40.000Z</time>
      </trkpt>
      <trkpt lat="45.57015" lon="5.73732">
        <ele>629</ele>
        <time>2019-10-27T10:53:41.000Z</time>
      </trkpt>
      <trkpt lat="45.57016" lon="5.73732">
        <ele>629</ele>
        <time>2019-10-27T10:53:42.000Z</time>
      </trkpt>
      <trkpt lat="45.57016" lon="5.73731">
        <ele>629</ele>
        <time>2019-10-27T10:53:43.000Z</time>
      </trkpt>
      <trkpt lat="45.57017" lon="5.7373">
        <ele>629</ele>
        <time>2019-10-27T10:53:44.000Z</time>
      </trkpt>
      <trkpt lat="45.57018" lon="5.7373">
        <ele>629</ele>
        <time>2019-10-27T10:53:45.000Z</time>
      </trkpt>
      <trkpt lat="45.57018" lon="5.7373">
        <ele>630</ele>
        <time>2019-10-27T10:53:46.000Z</time>
      </trkpt>
      <trkpt lat="45.57018" lon="5.73729">
        <ele>630</ele>
        <time>2019-10-27T10:53:47.000Z</time>
      </trkpt>
      <trkpt lat="45.57018" lon="5.73729">
        <ele>630</ele>
        <time>2019-10-27T10:53:48.000Z</time>
      </trkpt>
      <trkpt lat="45.57019" lon="5.73729">
        <ele>630</ele>
        <time>2019-10-27T10:53:49.000Z</time>
      </trkpt>
      <trkpt lat="45.57019" lon="5.73729">
        <ele>630</ele>
        <time>2019-10-27T10:53:50.000Z</time>
      </trkpt>
      <trkpt lat="45.57019" lon="5.73729">
        <ele>630</ele>
        <time>2019-10-27T10:53:51.000Z</time>
      </trkpt>
      <trkpt lat="45.57019" lon="5.73729">
        <ele>630</ele>
        <time>2019-10-27T10:53:52.000Z</time>
      </trkpt>
      <trkpt lat="45.57019" lon="5.73729">
        <ele>630</ele>
        <time>2019-10-27T10:53:53.000Z</time>
      </trkpt>
      <trkpt lat="45.57019" lon="5.73729">
        <ele>630</ele>
        <time>2019-10-27T10:53:54.000Z</time>
      </trkpt>
      <trkpt lat="45.57019" lon="5.73729">
        <ele>630</ele>
        <time>2019-10-27T10:53:55.000Z</time>
      </trkpt>
      <trkpt lat="45.57019" lon="5.73729">
        <ele>630</ele>
        <time>2019-10-27T10:53:56.000Z</time>
      </trkpt>
      <trkpt lat="45.57019" lon="5.73729">
        <ele>630</ele>
        <time>2019-10-27T10:53:57.000Z</time>
      </trkpt>
      <trkpt lat="45.57019" lon="5.73729">
        <ele>630</ele>
        <time>2019-10-27T10:53:58.000Z</time>
      </trkpt>
      <trkpt lat="45.5702" lon="5.73729">
        <ele>630</ele>
        <time>2019-10-27T10:53:59.000Z</time>
      </trkpt>
      <trkpt lat="45.5702" lon="5.73729">
        <ele>630</ele>
        <time>2019-10-27T10:54:00.000Z</time>
      </trkpt>
      <trkpt lat="45.57021" lon="5.73729">
        <ele>630</ele>
        <time>2019-10-27T10:54:01.000Z</time>
      </trkpt>
      <trkpt lat="45.57021" lon="5.73729">
        <ele>630</ele>
        <time>2019-10-27T10:54:02.000Z</time>
      </trkpt>
      <trkpt lat="45.57022" lon="5.73729">
        <ele>630</ele>
        <time>2019-10-27T10:54:03.000Z</time>
      </trkpt>
      <trkpt lat="45.57022" lon="5.73729">
        <ele>630.5</ele>
        <time>2019-10-27T10:54:04.000Z</time>
      </trkpt>
      <trkpt lat="45.57023" lon="5.73729">
        <ele>631</ele>
        <time>2019-10-27T10:54:05.000Z</time>
      </trkpt>
      <trkpt lat="45.57024" lon="5.73729">
        <ele>631</ele>
        <time>2019-10-27T10:54:06.000Z</time>
      </trkpt>
      <trkpt lat="45.57024" lon="5.73729">
        <ele>631.3</ele>
        <time>2019-10-27T10:54:07.000Z</time>
      </trkpt>
      <trkpt lat="45.57025" lon="5.73729">
        <ele>631.7</ele>
        <time>2019-10-27T10:54:08.000Z</time>
      </trkpt>
      <trkpt lat="45.57025" lon="5.73729">
        <ele>632</ele>
        <time>2019-10-27T10:54:09.000Z</time>
      </trkpt>
      <trkpt lat="45.57026" lon="5.73729">
        <ele>632</ele>
        <time>2019-10-27T10:54:10.000Z</time>
      </trkpt>
      <trkpt lat="45.57026" lon="5.73729">
        <ele>632</ele>
        <time>2019-10-27T10:54:11.000Z</time>
      </trkpt>
      <trkpt lat="45.57026" lon="5.73729">
        <ele>632</ele>
        <time>2019-10-27T10:54:12.000Z</time>
      </trkpt>
      <trkpt lat="45.57026" lon="5.73729">
        <ele>632</ele>
        <time>2019-10-27T10:54:13.000Z</time>
      </trkpt>
      <trkpt lat="45.57027" lon="5.73729">
        <ele>632.5</ele>
        <time>2019-10-27T10:54:14.000Z</time>
      </trkpt>
      <trkpt lat="45.57028" lon="5.73729">
        <ele>633</ele>
        <time>2019-10-27T10:54:15.000Z</time>
      </trkpt>
      <trkpt lat="45.5703" lon="5.7373">
        <ele>633</ele>
        <time>2019-10-27T10:54:16.000Z</time>
      </trkpt>
      <trkpt lat="45.57031" lon="5.7373">
        <ele>633.3</ele>
        <time>2019-10-27T10:54:17.000Z</time>
      </trkpt>
      <trkpt lat="45.57032" lon="5.73731">
        <ele>633.7</ele>
        <time>2019-10-27T10:54:18.000Z</time>
      </trkpt>
      <trkpt lat="45.57033" lon="5.73732">
        <ele>634</ele>
        <time>2019-10-27T10:54:19.000Z</time>
      </trkpt>
      <trkpt lat="45.57035" lon="5.73733">
        <ele>634</ele>
        <time>2019-10-27T10:54:20.000Z</time>
      </trkpt>
      <trkpt lat="45.57037" lon="5.73733">
        <ele>634</ele>
        <time>2019-10-27T10:54:21.000Z</time>
      </trkpt>
      <trkpt lat="45.57038" lon="5.73734">
        <ele>634.5</ele>
        <time>2019-10-27T10:54:22.000Z</time>
      </trkpt>
      <trkpt lat="45.5704" lon="5.73734">
        <ele>635</ele>
        <time>2019-10-27T10:54:23.000Z</time>
      </trkpt>
      <trkpt lat="45.57041" lon="5.73735">
        <ele>635</ele>
        <time>2019-10-27T10:54:24.000Z</time>
      </trkpt>
      <trkpt lat="45.57042" lon="5.73736">
        <ele>635</ele>
        <time>2019-10-27T10:54:25.000Z</time>
      </trkpt>
      <trkpt lat="45.57043" lon="5.73737">
        <ele>635</ele>
        <time>2019-10-27T10:54:26.000Z</time>
      </trkpt>
      <trkpt lat="45.57044" lon="5.73738">
        <ele>635</ele>
        <time>2019-10-27T10:54:27.000Z</time>
      </trkpt>
      <trkpt lat="45.57045" lon="5.73739">
        <ele>635.5</ele>
        <time>2019-10-27T10:54:28.000Z</time>
      </trkpt>
      <trkpt lat="45.57046" lon="5.7374">
        <ele>636</ele>
        <time>2019-10-27T10:54:29.000Z</time>
      </trkpt>
      <trkpt lat="45.57047" lon="5.73741">
        <ele>636</ele>
        <time>2019-10-27T10:54:30.000Z</time>
      </trkpt>
      <trkpt lat="45.57048" lon="5.73742">
        <ele>636</ele>
        <time>2019-10-27T10:54:31.000Z</time>
      </trkpt>
      <trkpt lat="45.57049" lon="5.73743">
        <ele>636</ele>
        <time>2019-10-27T10:54:32.000Z</time>
      </trkpt>
      <trkpt lat="45.5705" lon="5.73744">
        <ele>636</ele>
        <time>2019-10-27T10:54:33.000Z</time>
      </trkpt>
      <trkpt lat="45.57051" lon="5.73745">
        <ele>636</ele>
        <time>2019-10-27T10:54:34.000Z</time>
      </trkpt>
      <trkpt lat="45.57052" lon="5.73746">
        <ele>636</ele>
        <time>2019-10-27T10:54:35.000Z</time>
      </trkpt>
      <trkpt lat="45.57053" lon="5.73747">
        <ele>636</ele>
        <time>2019-10-27T10:54:36.000Z</time>
      </trkpt>
      <trkpt lat="45.57054" lon="5.73748">
        <ele>636</ele>
        <time>2019-10-27T10:54:37.000Z</time>
      </trkpt>
      <trkpt lat="45.57055" lon="5.73749">
        <ele>636.5</ele>
        <time>2019-10-27T10:54:38.000Z</time>
      </trkpt>
      <trkpt lat="45.57055" lon="5.7375">
        <ele>637</ele>
        <time>2019-10-27T10:54:39.000Z</time>
      </trkpt>
      <trkpt lat="45.57056" lon="5.73751">
        <ele>637</ele>
        <time>2019-10-27T10:54:40.000Z</time>
      </trkpt>
      <trkpt lat="45.57056" lon="5.73753">
        <ele>637</ele>
        <time>2019-10-27T10:54:41.000Z</time>
      </trkpt>
      <trkpt lat="45.57057" lon="5.73754">
        <ele>637</ele>
        <time>2019-10-27T10:54:42.000Z</time>
      </trkpt>
      <trkpt lat="45.57057" lon="5.73755">
        <ele>637</ele>
        <time>2019-10-27T10:54:43.000Z</time>
      </trkpt>
      <trkpt lat="45.57058" lon="5.73756">
        <ele>637</ele>
        <time>2019-10-27T10:54:44.000Z</time>
      </trkpt>
      <trkpt lat="45.57058" lon="5.73757">
        <ele>637</ele>
        <time>2019-10-27T10:54:45.000Z</time>
      </trkpt>
      <trkpt lat="45.57059" lon="5.73758">
        <ele>637</ele>
        <time>2019-10-27T10:54:46.000Z</time>
      </trkpt>
      <trkpt lat="45.57059" lon="5.73759">
        <ele>637</ele>
        <time>2019-10-27T10:54:47.000Z</time>
      </trkpt>
      <trkpt lat="45.5706" lon="5.7376">
        <ele>637</ele>
        <time>2019-10-27T10:54:48.000Z</time>
      </trkpt>
      <trkpt lat="45.57061" lon="5.73761">
        <ele>637</ele>
        <time>2019-10-27T10:54:49.000Z</time>
      </trkpt>
      <trkpt lat="45.57062" lon="5.73762">
        <ele>636.5</ele>
        <time>2019-10-27T10:54:50.000Z</time>
      </trkpt>
      <trkpt lat="45.57062" lon="5.73763">
        <ele>636</ele>
        <time>2019-10-27T10:54:51.000Z</time>
      </trkpt>
      <trkpt lat="45.57063" lon="5.73764">
        <ele>636</ele>
        <time>2019-10-27T10:54:52.000Z</time>
      </trkpt>
      <trkpt lat="45.57064" lon="5.73765">
        <ele>636</ele>
        <time>2019-10-27T10:54:53.000Z</time>
      </trkpt>
      <trkpt lat="45.57065" lon="5.73766">
        <ele>636</ele>
        <time>2019-10-27T10:54:54.000Z</time>
      </trkpt>
      <trkpt lat="45.57066" lon="5.73767">
        <ele>636</ele>
        <time>2019-10-27T10:54:55.000Z</time>
      </trkpt>
      <trkpt lat="45.57067" lon="5.73767">
        <ele>636</ele>
        <time>2019-10-27T10:54:56.000Z</time>
      </trkpt>
      <trkpt lat="45.57068" lon="5.73768">
        <ele>636</ele>
        <time>2019-10-27T10:54:57.000Z</time>
      </trkpt>
      <trkpt lat="45.57068" lon="5.73769">
        <ele>635.5</ele>
        <time>2019-10-27T10:54:58.000Z</time>
      </trkpt>
      <trkpt lat="45.57069" lon="5.7377">
        <ele>635</ele>
        <time>2019-10-27T10:54:59.000Z</time>
      </trkpt>
      <trkpt lat="45.5707" lon="5.73771">
        <ele>635</ele>
        <time>2019-10-27T10:55:00.000Z</time>
      </trkpt>
      <trkpt lat="45.57071" lon="5.73772">
        <ele>635</ele>
        <time>2019-10-27T10:55:01.000Z</time>
      </trkpt>
      <trkpt lat="45.57072" lon="5.73773">
        <ele>635</ele>
        <time>2019-10-27T10:55:02.000Z</time>
      </trkpt>
      <trkpt lat="45.57073" lon="5.73774">
        <ele>635</ele>
        <time>2019-10-27T10:55:03.000Z</time>
      </trkpt>
      <trkpt lat="45.57074" lon="5.73775">
        <ele>635</ele>
        <time>2019-10-27T10:55:04.000Z</time>
      </trkpt>
      <trkpt lat="45.57075" lon="5.73776">
        <ele>635</ele>
        <time>2019-10-27T10:55:05.000Z</time>
      </trkpt>
      <trkpt lat="45.57076" lon="5.73777">
        <ele>634.5</ele>
        <time>2019-10-27T10:55:06.000Z</time>
      </trkpt>
      <trkpt lat="45.57077" lon="5.73779">
        <ele>634</ele>
        <time>2019-10-27T10:55:07.000Z</time>
      </trkpt>
      <trkpt lat="45.57078" lon="5.7378">
        <ele>634</ele>
        <time>2019-10-27T10:55:08.000Z</time>
      </trkpt>
      <trkpt lat="45.57079" lon="5.7378">
        <ele>634</ele>
        <time>2019-10-27T10:55:09.000Z</time>
      </trkpt>
      <trkpt lat="45.5708" lon="5.73781">
        <ele>634</ele>
        <time>2019-10-27T10:55:10.000Z</time>
      </trkpt>
      <trkpt lat="45.57081" lon="5.73782">
        <ele>634</ele>
        <time>2019-10-27T10:55:11.000Z</time>
      </trkpt>
      <trkpt lat="45.57082" lon="5.73783">
        <ele>634.5</ele>
        <time>2019-10-27T10:55:12.000Z</time>
      </trkpt>
      <trkpt lat="45.57083" lon="5.73783">
        <ele>635</ele>
        <time>2019-10-27T10:55:13.000Z</time>
      </trkpt>
      <trkpt lat="45.57084" lon="5.73783">
        <ele>635</ele>
        <time>2019-10-27T10:55:14.000Z</time>
      </trkpt>
      <trkpt lat="45.57085" lon="5.73784">
        <ele>635</ele>
        <time>2019-10-27T10:55:15.000Z</time>
      </trkpt>
      <trkpt lat="45.57086" lon="5.73784">
        <ele>635</ele>
        <time>2019-10-27T10:55:16.000Z</time>
      </trkpt>
      <trkpt lat="45.57087" lon="5.73784">
        <ele>635</ele>
        <time>2019-10-27T10:55:17.000Z</time>
      </trkpt>
      <trkpt lat="45.57089" lon="5.73784">
        <ele>635</ele>
        <time>2019-10-27T10:55:18.000Z</time>
      </trkpt>
      <trkpt lat="45.5709" lon="5.73784">
        <ele>635</ele>
        <time>2019-10-27T10:55:19.000Z</time>
      </trkpt>
      <trkpt lat="45.57091" lon="5.73784">
        <ele>635</ele>
        <time>2019-10-27T10:55:20.000Z</time>
      </trkpt>
      <trkpt lat="45.57092" lon="5.73785">
        <ele>635</ele>
        <time>2019-10-27T10:55:21.000Z</time>
      </trkpt>
      <trkpt lat="45.57093" lon="5.73785">
        <ele>636</ele>
        <time>2019-10-27T10:55:22.000Z</time>
      </trkpt>
      <trkpt lat="45.57094" lon="5.73785">
        <ele>636</ele>
        <time>2019-10-27T10:55:23.000Z</time>
      </trkpt>
      <trkpt lat="45.57095" lon="5.73785">
        <ele>636</ele>
        <time>2019-10-27T10:55:24.000Z</time>
      </trkpt>
      <trkpt lat="45.57096" lon="5.73786">
        <ele>636</ele>
        <time>2019-10-27T10:55:25.000Z</time>
      </trkpt>
      <trkpt lat="45.57097" lon="5.73786">
        <ele>636</ele>
        <time>2019-10-27T10:55:26.000Z</time>
      </trkpt>
      <trkpt lat="45.57098" lon="5.73786">
        <ele>636.3</ele>
        <time>2019-10-27T10:55:27.000Z</time>
      </trkpt>
      <trkpt lat="45.57099" lon="5.73786">
        <ele>636.7</ele>
        <time>2019-10-27T10:55:28.000Z</time>
      </trkpt>
      <trkpt lat="45.57099" lon="5.73786">
        <ele>637</ele>
        <time>2019-10-27T10:55:29.000Z</time>
      </trkpt>
      <trkpt lat="45.571" lon="5.73787">
        <ele>637</ele>
        <time>2019-10-27T10:55:30.000Z</time>
      </trkpt>
      <trkpt lat="45.57101" lon="5.73787">
        <ele>637</ele>
        <time>2019-10-27T10:55:31.000Z</time>
      </trkpt>
      <trkpt lat="45.57102" lon="5.73787">
        <ele>637</ele>
        <time>2019-10-27T10:55:32.000Z</time>
      </trkpt>
      <trkpt lat="45.57103" lon="5.73788">
        <ele>637</ele>
        <time>2019-10-27T10:55:33.000Z</time>
      </trkpt>
      <trkpt lat="45.57104" lon="5.73788">
        <ele>638</ele>
        <time>2019-10-27T10:55:34.000Z</time>
      </trkpt>
      <trkpt lat="45.57105" lon="5.73789">
        <ele>638</ele>
        <time>2019-10-27T10:55:35.000Z</time>
      </trkpt>
      <trkpt lat="45.57106" lon="5.73789">
        <ele>638</ele>
        <time>2019-10-27T10:55:36.000Z</time>
      </trkpt>
      <trkpt lat="45.57107" lon="5.7379">
        <ele>638</ele>
        <time>2019-10-27T10:55:37.000Z</time>
      </trkpt>
      <trkpt lat="45.57108" lon="5.73791">
        <ele>638</ele>
        <time>2019-10-27T10:55:38.000Z</time>
      </trkpt>
      <trkpt lat="45.57109" lon="5.73791">
        <ele>638</ele>
        <time>2019-10-27T10:55:39.000Z</time>
      </trkpt>
      <trkpt lat="45.57111" lon="5.73792">
        <ele>638</ele>
        <time>2019-10-27T10:55:40.000Z</time>
      </trkpt>
      <trkpt lat="45.57112" lon="5.73792">
        <ele>638</ele>
        <time>2019-10-27T10:55:41.000Z</time>
      </trkpt>
      <trkpt lat="45.57113" lon="5.73792">
        <ele>638.5</ele>
        <time>2019-10-27T10:55:42.000Z</time>
      </trkpt>
      <trkpt lat="45.57114" lon="5.73792">
        <ele>639</ele>
        <time>2019-10-27T10:55:43.000Z</time>
      </trkpt>
      <trkpt lat="45.57115" lon="5.73792">
        <ele>639</ele>
        <time>2019-10-27T10:55:44.000Z</time>
      </trkpt>
      <trkpt lat="45.57115" lon="5.73793">
        <ele>639</ele>
        <time>2019-10-27T10:55:45.000Z</time>
      </trkpt>
      <trkpt lat="45.57116" lon="5.73793">
        <ele>639</ele>
        <time>2019-10-27T10:55:46.000Z</time>
      </trkpt>
      <trkpt lat="45.57117" lon="5.73793">
        <ele>639</ele>
        <time>2019-10-27T10:55:47.000Z</time>
      </trkpt>
      <trkpt lat="45.57118" lon="5.73794">
        <ele>639</ele>
        <time>2019-10-27T10:55:48.000Z</time>
      </trkpt>
      <trkpt lat="45.57118" lon="5.73794">
        <ele>639</ele>
        <time>2019-10-27T10:55:49.000Z</time>
      </trkpt>
      <trkpt lat="45.57119" lon="5.73794">
        <ele>639.5</ele>
        <time>2019-10-27T10:55:50.000Z</time>
      </trkpt>
      <trkpt lat="45.5712" lon="5.73794">
        <ele>640</ele>
        <time>2019-10-27T10:55:51.000Z</time>
      </trkpt>
      <trkpt lat="45.57121" lon="5.73795">
        <ele>640</ele>
        <time>2019-10-27T10:55:52.000Z</time>
      </trkpt>
      <trkpt lat="45.57122" lon="5.73795">
        <ele>640</ele>
        <time>2019-10-27T10:55:53.000Z</time>
      </trkpt>
      <trkpt lat="45.57123" lon="5.73795">
        <ele>640</ele>
        <time>2019-10-27T10:55:54.000Z</time>
      </trkpt>
      <trkpt lat="45.57123" lon="5.73796">
        <ele>640</ele>
        <time>2019-10-27T10:55:55.000Z</time>
      </trkpt>
      <trkpt lat="45.57124" lon="5.73796">
        <ele>640</ele>
        <time>2019-10-27T10:55:56.000Z</time>
      </trkpt>
      <trkpt lat="45.57125" lon="5.73796">
        <ele>640</ele>
        <time>2019-10-27T10:55:57.000Z</time>
      </trkpt>
      <trkpt lat="45.57126" lon="5.73797">
        <ele>640.5</ele>
        <time>2019-10-27T10:55:58.000Z</time>
      </trkpt>
      <trkpt lat="45.57127" lon="5.73797">
        <ele>641</ele>
        <time>2019-10-27T10:55:59.000Z</time>
      </trkpt>
      <trkpt lat="45.57128" lon="5.73797">
        <ele>641</ele>
        <time>2019-10-27T10:56:00.000Z</time>
      </trkpt>
      <trkpt lat="45.57129" lon="5.73798">
        <ele>641</ele>
        <time>2019-10-27T10:56:01.000Z</time>
      </trkpt>
      <trkpt lat="45.5713" lon="5.73798">
        <ele>641</ele>
        <time>2019-10-27T10:56:02.000Z</time>
      </trkpt>
      <trkpt lat="45.57131" lon="5.73798">
        <ele>641</ele>
        <time>2019-10-27T10:56:03.000Z</time>
      </trkpt>
      <trkpt lat="45.57132" lon="5.73799">
        <ele>641</ele>
        <time>2019-10-27T10:56:04.000Z</time>
      </trkpt>
      <trkpt lat="45.57134" lon="5.73799">
        <ele>641</ele>
        <time>2019-10-27T10:56:05.000Z</time>
      </trkpt>
      <trkpt lat="45.57135" lon="5.738">
        <ele>642</ele>
        <time>2019-10-27T10:56:06.000Z</time>
      </trkpt>
      <trkpt lat="45.57136" lon="5.738">
        <ele>642</ele>
        <time>2019-10-27T10:56:07.000Z</time>
      </trkpt>
      <trkpt lat="45.57137" lon="5.73801">
        <ele>642</ele>
        <time>2019-10-27T10:56:08.000Z</time>
      </trkpt>
      <trkpt lat="45.57139" lon="5.73801">
        <ele>642</ele>
        <time>2019-10-27T10:56:09.000Z</time>
      </trkpt>
      <trkpt lat="45.5714" lon="5.73801">
        <ele>642</ele>
        <time>2019-10-27T10:56:10.000Z</time>
      </trkpt>
      <trkpt lat="45.57141" lon="5.73801">
        <ele>642</ele>
        <time>2019-10-27T10:56:11.000Z</time>
      </trkpt>
      <trkpt lat="45.57142" lon="5.73802">
        <ele>642</ele>
        <time>2019-10-27T10:56:12.000Z</time>
      </trkpt>
      <trkpt lat="45.57143" lon="5.73802">
        <ele>642</ele>
        <time>2019-10-27T10:56:13.000Z</time>
      </trkpt>
      <trkpt lat="45.57143" lon="5.73802">
        <ele>642</ele>
        <time>2019-10-27T10:56:14.000Z</time>
      </trkpt>
      <trkpt lat="45.57144" lon="5.73802">
        <ele>642</ele>
        <time>2019-10-27T10:56:15.000Z</time>
      </trkpt>
      <trkpt lat="45.57145" lon="5.73802">
        <ele>642</ele>
        <time>2019-10-27T10:56:16.000Z</time>
      </trkpt>
      <trkpt lat="45.57146" lon="5.73801">
        <ele>642</ele>
        <time>2019-10-27T10:56:17.000Z</time>
      </trkpt>
      <trkpt lat="45.57147" lon="5.73801">
        <ele>642.5</ele>
        <time>2019-10-27T10:56:18.000Z</time>
      </trkpt>
      <trkpt lat="45.57148" lon="5.73801">
        <ele>643</ele>
        <time>2019-10-27T10:56:19.000Z</time>
      </trkpt>
      <trkpt lat="45.57149" lon="5.73801">
        <ele>643</ele>
        <time>2019-10-27T10:56:20.000Z</time>
      </trkpt>
      <trkpt lat="45.5715" lon="5.738">
        <ele>643</ele>
        <time>2019-10-27T10:56:21.000Z</time>
      </trkpt>
      <trkpt lat="45.57151" lon="5.738">
        <ele>643</ele>
        <time>2019-10-27T10:56:22.000Z</time>
      </trkpt>
      <trkpt lat="45.57153" lon="5.73799">
        <ele>643</ele>
        <time>2019-10-27T10:56:23.000Z</time>
      </trkpt>
      <trkpt lat="45.57154" lon="5.73799">
        <ele>643</ele>
        <time>2019-10-27T10:56:24.000Z</time>
      </trkpt>
      <trkpt lat="45.57154" lon="5.73799">
        <ele>643</ele>
        <time>2019-10-27T10:56:25.000Z</time>
      </trkpt>
      <trkpt lat="45.57155" lon="5.73799">
        <ele>643</ele>
        <time>2019-10-27T10:56:26.000Z</time>
      </trkpt>
      <trkpt lat="45.57156" lon="5.73799">
        <ele>643</ele>
        <time>2019-10-27T10:56:27.000Z</time>
      </trkpt>
      <trkpt lat="45.57157" lon="5.73799">
        <ele>643</ele>
        <time>2019-10-27T10:56:28.000Z</time>
      </trkpt>
      <trkpt lat="45.57158" lon="5.73799">
        <ele>643</ele>
        <time>2019-10-27T10:56:29.000Z</time>
      </trkpt>
      <trkpt lat="45.57159" lon="5.73799">
        <ele>643</ele>
        <time>2019-10-27T10:56:30.000Z</time>
      </trkpt>
      <trkpt lat="45.57161" lon="5.73799">
        <ele>643</ele>
        <time>2019-10-27T10:56:31.000Z</time>
      </trkpt>
      <trkpt lat="45.57162" lon="5.738">
        <ele>644</ele>
        <time>2019-10-27T10:56:32.000Z</time>
      </trkpt>
      <trkpt lat="45.57163" lon="5.738">
        <ele>644</ele>
        <time>2019-10-27T10:56:33.000Z</time>
      </trkpt>
      <trkpt lat="45.57163" lon="5.738">
        <ele>644</ele>
        <time>2019-10-27T10:56:34.000Z</time>
      </trkpt>
      <trkpt lat="45.57164" lon="5.738">
        <ele>644</ele>
        <time>2019-10-27T10:56:35.000Z</time>
      </trkpt>
      <trkpt lat="45.57165" lon="5.738">
        <ele>644</ele>
        <time>2019-10-27T10:56:36.000Z</time>
      </trkpt>
      <trkpt lat="45.57166" lon="5.738">
        <ele>644</ele>
        <time>2019-10-27T10:56:37.000Z</time>
      </trkpt>
      <trkpt lat="45.57167" lon="5.738">
        <ele>644</ele>
        <time>2019-10-27T10:56:38.000Z</time>
      </trkpt>
      <trkpt lat="45.57168" lon="5.738">
        <ele>644</ele>
        <time>2019-10-27T10:56:39.000Z</time>
      </trkpt>
      <trkpt lat="45.57169" lon="5.738">
        <ele>644</ele>
        <time>2019-10-27T10:56:40.000Z</time>
      </trkpt>
      <trkpt lat="45.57171" lon="5.738">
        <ele>644</ele>
        <time>2019-10-27T10:56:41.000Z</time>
      </trkpt>
      <trkpt lat="45.57173" lon="5.73801">
        <ele>644</ele>
        <time>2019-10-27T10:56:42.000Z</time>
      </trkpt>
      <trkpt lat="45.57174" lon="5.73801">
        <ele>644</ele>
        <time>2019-10-27T10:56:43.000Z</time>
      </trkpt>
      <trkpt lat="45.57176" lon="5.73801">
        <ele>644</ele>
        <time>2019-10-27T10:56:44.000Z</time>
      </trkpt>
      <trkpt lat="45.57178" lon="5.73801">
        <ele>644</ele>
        <time>2019-10-27T10:56:45.000Z</time>
      </trkpt>
      <trkpt lat="45.5718" lon="5.73801">
        <ele>645</ele>
        <time>2019-10-27T10:56:46.000Z</time>
      </trkpt>
      <trkpt lat="45.57181" lon="5.73801">
        <ele>645</ele>
        <time>2019-10-27T10:56:47.000Z</time>
      </trkpt>
      <trkpt lat="45.57183" lon="5.73801">
        <ele>645</ele>
        <time>2019-10-27T10:56:48.000Z</time>
      </trkpt>
      <trkpt lat="45.57184" lon="5.73801">
        <ele>645</ele>
        <time>2019-10-27T10:56:49.000Z</time>
      </trkpt>
      <trkpt lat="45.57186" lon="5.738">
        <ele>645</ele>
        <time>2019-10-27T10:56:50.000Z</time>
      </trkpt>
      <trkpt lat="45.57187" lon="5.738">
        <ele>645</ele>
        <time>2019-10-27T10:56:51.000Z</time>
      </trkpt>
      <trkpt lat="45.57188" lon="5.738">
        <ele>645</ele>
        <time>2019-10-27T10:56:52.000Z</time>
      </trkpt>
      <trkpt lat="45.57189" lon="5.73799">
        <ele>645</ele>
        <time>2019-10-27T10:56:53.000Z</time>
      </trkpt>
      <trkpt lat="45.5719" lon="5.73799">
        <ele>645</ele>
        <time>2019-10-27T10:56:54.000Z</time>
      </trkpt>
      <trkpt lat="45.57191" lon="5.73799">
        <ele>645</ele>
        <time>2019-10-27T10:56:55.000Z</time>
      </trkpt>
      <trkpt lat="45.57192" lon="5.73799">
        <ele>645</ele>
        <time>2019-10-27T10:56:56.000Z</time>
      </trkpt>
      <trkpt lat="45.57193" lon="5.73799">
        <ele>645</ele>
        <time>2019-10-27T10:56:57.000Z</time>
      </trkpt>
      <trkpt lat="45.57194" lon="5.738">
        <ele>645</ele>
        <time>2019-10-27T10:56:58.000Z</time>
      </trkpt>
      <trkpt lat="45.57195" lon="5.738">
        <ele>645</ele>
        <time>2019-10-27T10:56:59.000Z</time>
      </trkpt>
      <trkpt lat="45.57197" lon="5.738">
        <ele>645</ele>
        <time>2019-10-27T10:57:00.000Z</time>
      </trkpt>
      <trkpt lat="45.57198" lon="5.73801">
        <ele>645.3</ele>
        <time>2019-10-27T10:57:01.000Z</time>
      </trkpt>
      <trkpt lat="45.572" lon="5.73801">
        <ele>645.7</ele>
        <time>2019-10-27T10:57:02.000Z</time>
      </trkpt>
      <trkpt lat="45.57201" lon="5.73802">
        <ele>646</ele>
        <time>2019-10-27T10:57:03.000Z</time>
      </trkpt>
      <trkpt lat="45.57202" lon="5.73802">
        <ele>646</ele>
        <time>2019-10-27T10:57:04.000Z</time>
      </trkpt>
      <trkpt lat="45.57203" lon="5.73802">
        <ele>646</ele>
        <time>2019-10-27T10:57:05.000Z</time>
      </trkpt>
      <trkpt lat="45.57203" lon="5.73803">
        <ele>646</ele>
        <time>2019-10-27T10:57:06.000Z</time>
      </trkpt>
      <trkpt lat="45.57204" lon="5.73803">
        <ele>646</ele>
        <time>2019-10-27T10:57:07.000Z</time>
      </trkpt>
      <trkpt lat="45.57205" lon="5.73804">
        <ele>646</ele>
        <time>2019-10-27T10:57:08.000Z</time>
      </trkpt>
      <trkpt lat="45.57205" lon="5.73804">
        <ele>646</ele>
        <time>2019-10-27T10:57:09.000Z</time>
      </trkpt>
      <trkpt lat="45.57206" lon="5.73804">
        <ele>646.5</ele>
        <time>2019-10-27T10:57:10.000Z</time>
      </trkpt>
      <trkpt lat="45.57207" lon="5.73805">
        <ele>647</ele>
        <time>2019-10-27T10:57:11.000Z</time>
      </trkpt>
      <trkpt lat="45.57208" lon="5.73805">
        <ele>647</ele>
        <time>2019-10-27T10:57:12.000Z</time>
      </trkpt>
      <trkpt lat="45.57209" lon="5.73805">
        <ele>647</ele>
        <time>2019-10-27T10:57:13.000Z</time>
      </trkpt>
      <trkpt lat="45.5721" lon="5.73805">
        <ele>647</ele>
        <time>2019-10-27T10:57:14.000Z</time>
      </trkpt>
      <trkpt lat="45.57211" lon="5.73805">
        <ele>647</ele>
        <time>2019-10-27T10:57:15.000Z</time>
      </trkpt>
      <trkpt lat="45.57213" lon="5.73805">
        <ele>647</ele>
        <time>2019-10-27T10:57:16.000Z</time>
      </trkpt>
      <trkpt lat="45.57214" lon="5.73805">
        <ele>647</ele>
        <time>2019-10-27T10:57:17.000Z</time>
      </trkpt>
      <trkpt lat="45.57216" lon="5.73805">
        <ele>647</ele>
        <time>2019-10-27T10:57:18.000Z</time>
      </trkpt>
      <trkpt lat="45.57218" lon="5.73804">
        <ele>647</ele>
        <time>2019-10-27T10:57:19.000Z</time>
      </trkpt>
      <trkpt lat="45.5722" lon="5.73803">
        <ele>647.5</ele>
        <time>2019-10-27T10:57:20.000Z</time>
      </trkpt>
      <trkpt lat="45.57221" lon="5.73803">
        <ele>648</ele>
        <time>2019-10-27T10:57:21.000Z</time>
      </trkpt>
      <trkpt lat="45.57223" lon="5.73802">
        <ele>648</ele>
        <time>2019-10-27T10:57:22.000Z</time>
      </trkpt>
      <trkpt lat="45.57224" lon="5.73802">
        <ele>648</ele>
        <time>2019-10-27T10:57:23.000Z</time>
      </trkpt>
      <trkpt lat="45.57224" lon="5.73801">
        <ele>648</ele>
        <time>2019-10-27T10:57:24.000Z</time>
      </trkpt>
      <trkpt lat="45.57225" lon="5.73801">
        <ele>648</ele>
        <time>2019-10-27T10:57:25.000Z</time>
      </trkpt>
      <trkpt lat="45.57226" lon="5.73801">
        <ele>648</ele>
        <time>2019-10-27T10:57:26.000Z</time>
      </trkpt>
      <trkpt lat="45.57227" lon="5.738">
        <ele>648</ele>
        <time>2019-10-27T10:57:27.000Z</time>
      </trkpt>
      <trkpt lat="45.57228" lon="5.738">
        <ele>648</ele>
        <time>2019-10-27T10:57:28.000Z</time>
      </trkpt>
      <trkpt lat="45.57228" lon="5.738">
        <ele>648</ele>
        <time>2019-10-27T10:57:29.000Z</time>
      </trkpt>
      <trkpt lat="45.57229" lon="5.73799">
        <ele>648</ele>
        <time>2019-10-27T10:57:30.000Z</time>
      </trkpt>
      <trkpt lat="45.57229" lon="5.73799">
        <ele>648</ele>
        <time>2019-10-27T10:57:31.000Z</time>
      </trkpt>
      <trkpt lat="45.5723" lon="5.73799">
        <ele>648</ele>
        <time>2019-10-27T10:57:32.000Z</time>
      </trkpt>
      <trkpt lat="45.57231" lon="5.73798">
        <ele>648</ele>
        <time>2019-10-27T10:57:33.000Z</time>
      </trkpt>
      <trkpt lat="45.57232" lon="5.73798">
        <ele>648</ele>
        <time>2019-10-27T10:57:34.000Z</time>
      </trkpt>
      <trkpt lat="45.57234" lon="5.73798">
        <ele>648</ele>
        <time>2019-10-27T10:57:35.000Z</time>
      </trkpt>
      <trkpt lat="45.57235" lon="5.73798">
        <ele>648</ele>
        <time>2019-10-27T10:57:36.000Z</time>
      </trkpt>
      <trkpt lat="45.57236" lon="5.73798">
        <ele>648</ele>
        <time>2019-10-27T10:57:37.000Z</time>
      </trkpt>
      <trkpt lat="45.57237" lon="5.73798">
        <ele>648</ele>
        <time>2019-10-27T10:57:38.000Z</time>
      </trkpt>
      <trkpt lat="45.57237" lon="5.73798">
        <ele>648</ele>
        <time>2019-10-27T10:57:39.000Z</time>
      </trkpt>
      <trkpt lat="45.57238" lon="5.73798">
        <ele>648</ele>
        <time>2019-10-27T10:57:40.000Z</time>
      </trkpt>
      <trkpt lat="45.57239" lon="5.73798">
        <ele>648</ele>
        <time>2019-10-27T10:57:41.000Z</time>
      </trkpt>
      <trkpt lat="45.5724" lon="5.73798">
        <ele>648</ele>
        <time>2019-10-27T10:57:42.000Z</time>
      </trkpt>
      <trkpt lat="45.57241" lon="5.73799">
        <ele>648</ele>
        <time>2019-10-27T10:57:43.000Z</time>
      </trkpt>
      <trkpt lat="45.57242" lon="5.73799">
        <ele>648</ele>
        <time>2019-10-27T10:57:44.000Z</time>
      </trkpt>
      <trkpt lat="45.57243" lon="5.73799">
        <ele>648</ele>
        <time>2019-10-27T10:57:45.000Z</time>
      </trkpt>
      <trkpt lat="45.57244" lon="5.738">
        <ele>648</ele>
        <time>2019-10-27T10:57:46.000Z</time>
      </trkpt>
      <trkpt lat="45.57246" lon="5.738">
        <ele>648</ele>
        <time>2019-10-27T10:57:47.000Z</time>
      </trkpt>
      <trkpt lat="45.57247" lon="5.738">
        <ele>648</ele>
        <time>2019-10-27T10:57:48.000Z</time>
      </trkpt>
      <trkpt lat="45.57249" lon="5.73801">
        <ele>648</ele>
        <time>2019-10-27T10:57:49.000Z</time>
      </trkpt>
      <trkpt lat="45.5725" lon="5.73801">
        <ele>648</ele>
        <time>2019-10-27T10:57:50.000Z</time>
      </trkpt>
      <trkpt lat="45.57251" lon="5.73801">
        <ele>648</ele>
        <time>2019-10-27T10:57:51.000Z</time>
      </trkpt>
      <trkpt lat="45.57252" lon="5.73801">
        <ele>648</ele>
        <time>2019-10-27T10:57:52.000Z</time>
      </trkpt>
      <trkpt lat="45.57252" lon="5.73802">
        <ele>648</ele>
        <time>2019-10-27T10:57:53.000Z</time>
      </trkpt>
      <trkpt lat="45.57253" lon="5.73802">
        <ele>648</ele>
        <time>2019-10-27T10:57:54.000Z</time>
      </trkpt>
      <trkpt lat="45.57254" lon="5.73802">
        <ele>648</ele>
        <time>2019-10-27T10:57:55.000Z</time>
      </trkpt>
      <trkpt lat="45.57255" lon="5.73803">
        <ele>648</ele>
        <time>2019-10-27T10:57:56.000Z</time>
      </trkpt>
      <trkpt lat="45.57257" lon="5.73803">
        <ele>648</ele>
        <time>2019-10-27T10:57:57.000Z</time>
      </trkpt>
      <trkpt lat="45.57258" lon="5.73803">
        <ele>648</ele>
        <time>2019-10-27T10:57:58.000Z</time>
      </trkpt>
      <trkpt lat="45.57259" lon="5.73804">
        <ele>648</ele>
        <time>2019-10-27T10:57:59.000Z</time>
      </trkpt>
      <trkpt lat="45.5726" lon="5.73804">
        <ele>648</ele>
        <time>2019-10-27T10:58:00.000Z</time>
      </trkpt>
      <trkpt lat="45.57261" lon="5.73804">
        <ele>648</ele>
        <time>2019-10-27T10:58:01.000Z</time>
      </trkpt>
      <trkpt lat="45.57262" lon="5.73805">
        <ele>648</ele>
        <time>2019-10-27T10:58:02.000Z</time>
      </trkpt>
      <trkpt lat="45.57264" lon="5.73805">
        <ele>648</ele>
        <time>2019-10-27T10:58:03.000Z</time>
      </trkpt>
      <trkpt lat="45.57265" lon="5.73805">
        <ele>648</ele>
        <time>2019-10-27T10:58:04.000Z</time>
      </trkpt>
      <trkpt lat="45.57267" lon="5.73805">
        <ele>648</ele>
        <time>2019-10-27T10:58:05.000Z</time>
      </trkpt>
      <trkpt lat="45.57268" lon="5.73805">
        <ele>648</ele>
        <time>2019-10-27T10:58:06.000Z</time>
      </trkpt>
      <trkpt lat="45.57269" lon="5.73805">
        <ele>648</ele>
        <time>2019-10-27T10:58:07.000Z</time>
      </trkpt>
      <trkpt lat="45.5727" lon="5.73805">
        <ele>648</ele>
        <time>2019-10-27T10:58:08.000Z</time>
      </trkpt>
      <trkpt lat="45.57271" lon="5.73805">
        <ele>648</ele>
        <time>2019-10-27T10:58:09.000Z</time>
      </trkpt>
      <trkpt lat="45.57272" lon="5.73805">
        <ele>648</ele>
        <time>2019-10-27T10:58:10.000Z</time>
      </trkpt>
      <trkpt lat="45.57273" lon="5.73805">
        <ele>648</ele>
        <time>2019-10-27T10:58:11.000Z</time>
      </trkpt>
      <trkpt lat="45.57274" lon="5.73805">
        <ele>648</ele>
        <time>2019-10-27T10:58:12.000Z</time>
      </trkpt>
      <trkpt lat="45.57276" lon="5.73806">
        <ele>648</ele>
        <time>2019-10-27T10:58:13.000Z</time>
      </trkpt>
      <trkpt lat="45.57277" lon="5.73806">
        <ele>648</ele>
        <time>2019-10-27T10:58:14.000Z</time>
      </trkpt>
      <trkpt lat="45.57278" lon="5.73806">
        <ele>648</ele>
        <time>2019-10-27T10:58:15.000Z</time>
      </trkpt>
      <trkpt lat="45.57278" lon="5.73807">
        <ele>648</ele>
        <time>2019-10-27T10:58:16.000Z</time>
      </trkpt>
      <trkpt lat="45.57279" lon="5.73806">
        <ele>648</ele>
        <time>2019-10-27T10:58:17.000Z</time>
      </trkpt>
      <trkpt lat="45.5728" lon="5.73806">
        <ele>648</ele>
        <time>2019-10-27T10:58:18.000Z</time>
      </trkpt>
      <trkpt lat="45.57281" lon="5.73806">
        <ele>648</ele>
        <time>2019-10-27T10:58:19.000Z</time>
      </trkpt>
      <trkpt lat="45.57282" lon="5.73806">
        <ele>648</ele>
        <time>2019-10-27T10:58:20.000Z</time>
      </trkpt>
      <trkpt lat="45.57283" lon="5.73806">
        <ele>648</ele>
        <time>2019-10-27T10:58:21.000Z</time>
      </trkpt>
      <trkpt lat="45.57284" lon="5.73806">
        <ele>648</ele>
        <time>2019-10-27T10:58:22.000Z</time>
      </trkpt>
      <trkpt lat="45.57285" lon="5.73806">
        <ele>648</ele>
        <time>2019-10-27T10:58:23.000Z</time>
      </trkpt>
      <trkpt lat="45.57286" lon="5.73806">
        <ele>648</ele>
        <time>2019-10-27T10:58:24.000Z</time>
      </trkpt>
      <trkpt lat="45.57287" lon="5.73807">
        <ele>648</ele>
        <time>2019-10-27T10:58:25.000Z</time>
      </trkpt>
      <trkpt lat="45.57289" lon="5.73807">
        <ele>648</ele>
        <time>2019-10-27T10:58:26.000Z</time>
      </trkpt>
      <trkpt lat="45.5729" lon="5.73808">
        <ele>648</ele>
        <time>2019-10-27T10:58:27.000Z</time>
      </trkpt>
      <trkpt lat="45.57291" lon="5.73808">
        <ele>648</ele>
        <time>2019-10-27T10:58:28.000Z</time>
      </trkpt>
      <trkpt lat="45.57292" lon="5.73808">
        <ele>648</ele>
        <time>2019-10-27T10:58:29.000Z</time>
      </trkpt>
      <trkpt lat="45.57294" lon="5.73808">
        <ele>648</ele>
        <time>2019-10-27T10:58:30.000Z</time>
      </trkpt>
      <trkpt lat="45.57295" lon="5.73808">
        <ele>648</ele>
        <time>2019-10-27T10:58:31.000Z</time>
      </trkpt>
      <trkpt lat="45.57296" lon="5.73808">
        <ele>648</ele>
        <time>2019-10-27T10:58:32.000Z</time>
      </trkpt>
      <trkpt lat="45.57298" lon="5.73808">
        <ele>648</ele>
        <time>2019-10-27T10:58:33.000Z</time>
      </trkpt>
      <trkpt lat="45.57299" lon="5.73808">
        <ele>648</ele>
        <time>2019-10-27T10:58:34.000Z</time>
      </trkpt>
      <trkpt lat="45.573" lon="5.73808">
        <ele>648</ele>
        <time>2019-10-27T10:58:35.000Z</time>
      </trkpt>
      <trkpt lat="45.57302" lon="5.73808">
        <ele>648</ele>
        <time>2019-10-27T10:58:36.000Z</time>
      </trkpt>
      <trkpt lat="45.57303" lon="5.73808">
        <ele>648</ele>
        <time>2019-10-27T10:58:37.000Z</time>
      </trkpt>
      <trkpt lat="45.57304" lon="5.73808">
        <ele>648.5</ele>
        <time>2019-10-27T10:58:38.000Z</time>
      </trkpt>
      <trkpt lat="45.57305" lon="5.73808">
        <ele>649</ele>
        <time>2019-10-27T10:58:39.000Z</time>
      </trkpt>
      <trkpt lat="45.57307" lon="5.73808">
        <ele>649</ele>
        <time>2019-10-27T10:58:40.000Z</time>
      </trkpt>
      <trkpt lat="45.57308" lon="5.73808">
        <ele>649</ele>
        <time>2019-10-27T10:58:41.000Z</time>
      </trkpt>
      <trkpt lat="45.57309" lon="5.73809">
        <ele>649</ele>
        <time>2019-10-27T10:58:42.000Z</time>
      </trkpt>
      <trkpt lat="45.5731" lon="5.73809">
        <ele>649</ele>
        <time>2019-10-27T10:58:43.000Z</time>
      </trkpt>
      <trkpt lat="45.57311" lon="5.73809">
        <ele>649</ele>
        <time>2019-10-27T10:58:44.000Z</time>
      </trkpt>
      <trkpt lat="45.57313" lon="5.73809">
        <ele>649</ele>
        <time>2019-10-27T10:58:45.000Z</time>
      </trkpt>
      <trkpt lat="45.57314" lon="5.73809">
        <ele>649</ele>
        <time>2019-10-27T10:58:46.000Z</time>
      </trkpt>
      <trkpt lat="45.57315" lon="5.73809">
        <ele>649.3</ele>
        <time>2019-10-27T10:58:47.000Z</time>
      </trkpt>
      <trkpt lat="45.57316" lon="5.73809">
        <ele>649.7</ele>
        <time>2019-10-27T10:58:48.000Z</time>
      </trkpt>
      <trkpt lat="45.57318" lon="5.73809">
        <ele>650</ele>
        <time>2019-10-27T10:58:49.000Z</time>
      </trkpt>
      <trkpt lat="45.57319" lon="5.73809">
        <ele>650</ele>
        <time>2019-10-27T10:58:50.000Z</time>
      </trkpt>
      <trkpt lat="45.5732" lon="5.73809">
        <ele>650</ele>
        <time>2019-10-27T10:58:51.000Z</time>
      </trkpt>
      <trkpt lat="45.57321" lon="5.73809">
        <ele>650</ele>
        <time>2019-10-27T10:58:52.000Z</time>
      </trkpt>
      <trkpt lat="45.57322" lon="5.73809">
        <ele>650</ele>
        <time>2019-10-27T10:58:53.000Z</time>
      </trkpt>
      <trkpt lat="45.57323" lon="5.73809">
        <ele>650</ele>
        <time>2019-10-27T10:58:54.000Z</time>
      </trkpt>
      <trkpt lat="45.57324" lon="5.7381">
        <ele>650</ele>
        <time>2019-10-27T10:58:55.000Z</time>
      </trkpt>
      <trkpt lat="45.57325" lon="5.7381">
        <ele>650.5</ele>
        <time>2019-10-27T10:58:56.000Z</time>
      </trkpt>
      <trkpt lat="45.57326" lon="5.7381">
        <ele>651</ele>
        <time>2019-10-27T10:58:57.000Z</time>
      </trkpt>
      <trkpt lat="45.57327" lon="5.7381">
        <ele>651</ele>
        <time>2019-10-27T10:58:58.000Z</time>
      </trkpt>
      <trkpt lat="45.57327" lon="5.7381">
        <ele>651</ele>
        <time>2019-10-27T10:58:59.000Z</time>
      </trkpt>
      <trkpt lat="45.57328" lon="5.7381">
        <ele>651</ele>
        <time>2019-10-27T10:59:00.000Z</time>
      </trkpt>
      <trkpt lat="45.57329" lon="5.7381">
        <ele>651</ele>
        <time>2019-10-27T10:59:01.000Z</time>
      </trkpt>
      <trkpt lat="45.5733" lon="5.7381">
        <ele>651</ele>
        <time>2019-10-27T10:59:02.000Z</time>
      </trkpt>
      <trkpt lat="45.57331" lon="5.7381">
        <ele>651</ele>
        <time>2019-10-27T10:59:03.000Z</time>
      </trkpt>
      <trkpt lat="45.57333" lon="5.73809">
        <ele>652</ele>
        <time>2019-10-27T10:59:04.000Z</time>
      </trkpt>
      <trkpt lat="45.57335" lon="5.73809">
        <ele>652</ele>
        <time>2019-10-27T10:59:05.000Z</time>
      </trkpt>
      <trkpt lat="45.57336" lon="5.73809">
        <ele>652</ele>
        <time>2019-10-27T10:59:06.000Z</time>
      </trkpt>
      <trkpt lat="45.57337" lon="5.7381">
        <ele>652</ele>
        <time>2019-10-27T10:59:07.000Z</time>
      </trkpt>
      <trkpt lat="45.57338" lon="5.7381">
        <ele>652</ele>
        <time>2019-10-27T10:59:08.000Z</time>
      </trkpt>
      <trkpt lat="45.57339" lon="5.7381">
        <ele>652</ele>
        <time>2019-10-27T10:59:09.000Z</time>
      </trkpt>
      <trkpt lat="45.5734" lon="5.7381">
        <ele>652</ele>
        <time>2019-10-27T10:59:10.000Z</time>
      </trkpt>
      <trkpt lat="45.57341" lon="5.7381">
        <ele>652.3</ele>
        <time>2019-10-27T10:59:11.000Z</time>
      </trkpt>
      <trkpt lat="45.57342" lon="5.7381">
        <ele>652.7</ele>
        <time>2019-10-27T10:59:12.000Z</time>
      </trkpt>
      <trkpt lat="45.57343" lon="5.7381">
        <ele>653</ele>
        <time>2019-10-27T10:59:13.000Z</time>
      </trkpt>
      <trkpt lat="45.57344" lon="5.73809">
        <ele>653</ele>
        <time>2019-10-27T10:59:14.000Z</time>
      </trkpt>
      <trkpt lat="45.57345" lon="5.73809">
        <ele>653</ele>
        <time>2019-10-27T10:59:15.000Z</time>
      </trkpt>
      <trkpt lat="45.57347" lon="5.73808">
        <ele>653</ele>
        <time>2019-10-27T10:59:16.000Z</time>
      </trkpt>
      <trkpt lat="45.57349" lon="5.73808">
        <ele>653</ele>
        <time>2019-10-27T10:59:17.000Z</time>
      </trkpt>
      <trkpt lat="45.5735" lon="5.73807">
        <ele>653</ele>
        <time>2019-10-27T10:59:18.000Z</time>
      </trkpt>
      <trkpt lat="45.57351" lon="5.73807">
        <ele>653</ele>
        <time>2019-10-27T10:59:19.000Z</time>
      </trkpt>
      <trkpt lat="45.57352" lon="5.73807">
        <ele>653</ele>
        <time>2019-10-27T10:59:20.000Z</time>
      </trkpt>
      <trkpt lat="45.57353" lon="5.73806">
        <ele>653.3</ele>
        <time>2019-10-27T10:59:21.000Z</time>
      </trkpt>
      <trkpt lat="45.57354" lon="5.73806">
        <ele>653.7</ele>
        <time>2019-10-27T10:59:22.000Z</time>
      </trkpt>
      <trkpt lat="45.57355" lon="5.73806">
        <ele>654</ele>
        <time>2019-10-27T10:59:23.000Z</time>
      </trkpt>
      <trkpt lat="45.57356" lon="5.73805">
        <ele>654</ele>
        <time>2019-10-27T10:59:24.000Z</time>
      </trkpt>
      <trkpt lat="45.57356" lon="5.73805">
        <ele>654</ele>
        <time>2019-10-27T10:59:25.000Z</time>
      </trkpt>
      <trkpt lat="45.57357" lon="5.73804">
        <ele>654</ele>
        <time>2019-10-27T10:59:26.000Z</time>
      </trkpt>
      <trkpt lat="45.57358" lon="5.73803">
        <ele>654</ele>
        <time>2019-10-27T10:59:27.000Z</time>
      </trkpt>
      <trkpt lat="45.57359" lon="5.73803">
        <ele>654</ele>
        <time>2019-10-27T10:59:28.000Z</time>
      </trkpt>
      <trkpt lat="45.5736" lon="5.73802">
        <ele>654</ele>
        <time>2019-10-27T10:59:29.000Z</time>
      </trkpt>
      <trkpt lat="45.57361" lon="5.73802">
        <ele>655</ele>
        <time>2019-10-27T10:59:30.000Z</time>
      </trkpt>
      <trkpt lat="45.57363" lon="5.73801">
        <ele>655</ele>
        <time>2019-10-27T10:59:31.000Z</time>
      </trkpt>
      <trkpt lat="45.57364" lon="5.738">
        <ele>655</ele>
        <time>2019-10-27T10:59:32.000Z</time>
      </trkpt>
      <trkpt lat="45.57365" lon="5.738">
        <ele>655</ele>
        <time>2019-10-27T10:59:33.000Z</time>
      </trkpt>
      <trkpt lat="45.57366" lon="5.73799">
        <ele>655</ele>
        <time>2019-10-27T10:59:34.000Z</time>
      </trkpt>
      <trkpt lat="45.57367" lon="5.73799">
        <ele>655</ele>
        <time>2019-10-27T10:59:35.000Z</time>
      </trkpt>
      <trkpt lat="45.57368" lon="5.73798">
        <ele>655</ele>
        <time>2019-10-27T10:59:36.000Z</time>
      </trkpt>
      <trkpt lat="45.57369" lon="5.73798">
        <ele>655</ele>
        <time>2019-10-27T10:59:37.000Z</time>
      </trkpt>
      <trkpt lat="45.5737" lon="5.73798">
        <ele>655</ele>
        <time>2019-10-27T10:59:38.000Z</time>
      </trkpt>
      <trkpt lat="45.57371" lon="5.73797">
        <ele>655</ele>
        <time>2019-10-27T10:59:39.000Z</time>
      </trkpt>
      <trkpt lat="45.57372" lon="5.73797">
        <ele>655.5</ele>
        <time>2019-10-27T10:59:40.000Z</time>
      </trkpt>
      <trkpt lat="45.57373" lon="5.73796">
        <ele>656</ele>
        <time>2019-10-27T10:59:41.000Z</time>
      </trkpt>
      <trkpt lat="45.57374" lon="5.73796">
        <ele>656</ele>
        <time>2019-10-27T10:59:42.000Z</time>
      </trkpt>
      <trkpt lat="45.57375" lon="5.73795">
        <ele>656</ele>
        <time>2019-10-27T10:59:43.000Z</time>
      </trkpt>
      <trkpt lat="45.57377" lon="5.73794">
        <ele>656</ele>
        <time>2019-10-27T10:59:44.000Z</time>
      </trkpt>
      <trkpt lat="45.57378" lon="5.73793">
        <ele>656</ele>
        <time>2019-10-27T10:59:45.000Z</time>
      </trkpt>
      <trkpt lat="45.57379" lon="5.73793">
        <ele>656</ele>
        <time>2019-10-27T10:59:46.000Z</time>
      </trkpt>
      <trkpt lat="45.5738" lon="5.73792">
        <ele>656.3</ele>
        <time>2019-10-27T10:59:47.000Z</time>
      </trkpt>
      <trkpt lat="45.57381" lon="5.73792">
        <ele>656.7</ele>
        <time>2019-10-27T10:59:48.000Z</time>
      </trkpt>
      <trkpt lat="45.57382" lon="5.73792">
        <ele>657</ele>
        <time>2019-10-27T10:59:49.000Z</time>
      </trkpt>
      <trkpt lat="45.57383" lon="5.73792">
        <ele>657</ele>
        <time>2019-10-27T10:59:50.000Z</time>
      </trkpt>
      <trkpt lat="45.57384" lon="5.73791">
        <ele>657</ele>
        <time>2019-10-27T10:59:51.000Z</time>
      </trkpt>
      <trkpt lat="45.57385" lon="5.73791">
        <ele>657</ele>
        <time>2019-10-27T10:59:52.000Z</time>
      </trkpt>
      <trkpt lat="45.57386" lon="5.7379">
        <ele>657</ele>
        <time>2019-10-27T10:59:53.000Z</time>
      </trkpt>
      <trkpt lat="45.57388" lon="5.73789">
        <ele>657</ele>
        <time>2019-10-27T10:59:54.000Z</time>
      </trkpt>
      <trkpt lat="45.57389" lon="5.73789">
        <ele>657</ele>
        <time>2019-10-27T10:59:55.000Z</time>
      </trkpt>
      <trkpt lat="45.5739" lon="5.73788">
        <ele>657</ele>
        <time>2019-10-27T10:59:56.000Z</time>
      </trkpt>
      <trkpt lat="45.57391" lon="5.73788">
        <ele>657</ele>
        <time>2019-10-27T10:59:57.000Z</time>
      </trkpt>
      <trkpt lat="45.57392" lon="5.73788">
        <ele>658</ele>
        <time>2019-10-27T10:59:58.000Z</time>
      </trkpt>
      <trkpt lat="45.57393" lon="5.73788">
        <ele>658</ele>
        <time>2019-10-27T10:59:59.000Z</time>
      </trkpt>
      <trkpt lat="45.57394" lon="5.73787">
        <ele>658</ele>
        <time>2019-10-27T11:00:00.000Z</time>
      </trkpt>
      <trkpt lat="45.57395" lon="5.73787">
        <ele>658</ele>
        <time>2019-10-27T11:00:01.000Z</time>
      </trkpt>
      <trkpt lat="45.57396" lon="5.73787">
        <ele>658</ele>
        <time>2019-10-27T11:00:02.000Z</time>
      </trkpt>
      <trkpt lat="45.57397" lon="5.73786">
        <ele>658</ele>
        <time>2019-10-27T11:00:03.000Z</time>
      </trkpt>
      <trkpt lat="45.57398" lon="5.73786">
        <ele>658</ele>
        <time>2019-10-27T11:00:04.000Z</time>
      </trkpt>
      <trkpt lat="45.57399" lon="5.73785">
        <ele>658</ele>
        <time>2019-10-27T11:00:05.000Z</time>
      </trkpt>
      <trkpt lat="45.57401" lon="5.73784">
        <ele>659</ele>
        <time>2019-10-27T11:00:06.000Z</time>
      </trkpt>
      <trkpt lat="45.57402" lon="5.73784">
        <ele>659</ele>
        <time>2019-10-27T11:00:07.000Z</time>
      </trkpt>
      <trkpt lat="45.57403" lon="5.73783">
        <ele>659</ele>
        <time>2019-10-27T11:00:08.000Z</time>
      </trkpt>
      <trkpt lat="45.57404" lon="5.73782">
        <ele>659</ele>
        <time>2019-10-27T11:00:09.000Z</time>
      </trkpt>
      <trkpt lat="45.57405" lon="5.73781">
        <ele>659</ele>
        <time>2019-10-27T11:00:10.000Z</time>
      </trkpt>
      <trkpt lat="45.57406" lon="5.73781">
        <ele>659</ele>
        <time>2019-10-27T11:00:11.000Z</time>
      </trkpt>
      <trkpt lat="45.57406" lon="5.7378">
        <ele>659</ele>
        <time>2019-10-27T11:00:12.000Z</time>
      </trkpt>
      <trkpt lat="45.57407" lon="5.73779">
        <ele>659.3</ele>
        <time>2019-10-27T11:00:13.000Z</time>
      </trkpt>
      <trkpt lat="45.57408" lon="5.73778">
        <ele>659.7</ele>
        <time>2019-10-27T11:00:14.000Z</time>
      </trkpt>
      <trkpt lat="45.57408" lon="5.73778">
        <ele>660</ele>
        <time>2019-10-27T11:00:15.000Z</time>
      </trkpt>
      <trkpt lat="45.57409" lon="5.73777">
        <ele>660</ele>
        <time>2019-10-27T11:00:16.000Z</time>
      </trkpt>
      <trkpt lat="45.5741" lon="5.73776">
        <ele>660</ele>
        <time>2019-10-27T11:00:17.000Z</time>
      </trkpt>
      <trkpt lat="45.57411" lon="5.73776">
        <ele>660</ele>
        <time>2019-10-27T11:00:18.000Z</time>
      </trkpt>
      <trkpt lat="45.57411" lon="5.73775">
        <ele>660</ele>
        <time>2019-10-27T11:00:19.000Z</time>
      </trkpt>
      <trkpt lat="45.57412" lon="5.73775">
        <ele>660</ele>
        <time>2019-10-27T11:00:20.000Z</time>
      </trkpt>
      <trkpt lat="45.57414" lon="5.73774">
        <ele>660</ele>
        <time>2019-10-27T11:00:21.000Z</time>
      </trkpt>
      <trkpt lat="45.57415" lon="5.73774">
        <ele>661</ele>
        <time>2019-10-27T11:00:22.000Z</time>
      </trkpt>
      <trkpt lat="45.57416" lon="5.73773">
        <ele>661</ele>
        <time>2019-10-27T11:00:23.000Z</time>
      </trkpt>
      <trkpt lat="45.57417" lon="5.73772">
        <ele>661</ele>
        <time>2019-10-27T11:00:24.000Z</time>
      </trkpt>
      <trkpt lat="45.57419" lon="5.73772">
        <ele>661</ele>
        <time>2019-10-27T11:00:25.000Z</time>
      </trkpt>
      <trkpt lat="45.5742" lon="5.73771">
        <ele>661</ele>
        <time>2019-10-27T11:00:26.000Z</time>
      </trkpt>
      <trkpt lat="45.57421" lon="5.7377">
        <ele>661</ele>
        <time>2019-10-27T11:00:27.000Z</time>
      </trkpt>
      <trkpt lat="45.57422" lon="5.7377">
        <ele>661</ele>
        <time>2019-10-27T11:00:28.000Z</time>
      </trkpt>
      <trkpt lat="45.57423" lon="5.73769">
        <ele>661</ele>
        <time>2019-10-27T11:00:29.000Z</time>
      </trkpt>
      <trkpt lat="45.57424" lon="5.73769">
        <ele>661</ele>
        <time>2019-10-27T11:00:30.000Z</time>
      </trkpt>
      <trkpt lat="45.57424" lon="5.73768">
        <ele>661</ele>
        <time>2019-10-27T11:00:31.000Z</time>
      </trkpt>
      <trkpt lat="45.57425" lon="5.73768">
        <ele>662</ele>
        <time>2019-10-27T11:00:32.000Z</time>
      </trkpt>
      <trkpt lat="45.57426" lon="5.73767">
        <ele>662</ele>
        <time>2019-10-27T11:00:33.000Z</time>
      </trkpt>
      <trkpt lat="45.57427" lon="5.73767">
        <ele>662</ele>
        <time>2019-10-27T11:00:34.000Z</time>
      </trkpt>
      <trkpt lat="45.57428" lon="5.73766">
        <ele>662</ele>
        <time>2019-10-27T11:00:35.000Z</time>
      </trkpt>
      <trkpt lat="45.57429" lon="5.73766">
        <ele>662</ele>
        <time>2019-10-27T11:00:36.000Z</time>
      </trkpt>
      <trkpt lat="45.5743" lon="5.73766">
        <ele>662</ele>
        <time>2019-10-27T11:00:37.000Z</time>
      </trkpt>
      <trkpt lat="45.57431" lon="5.73766">
        <ele>662</ele>
        <time>2019-10-27T11:00:38.000Z</time>
      </trkpt>
      <trkpt lat="45.57432" lon="5.73765">
        <ele>662</ele>
        <time>2019-10-27T11:00:39.000Z</time>
      </trkpt>
      <trkpt lat="45.57433" lon="5.73765">
        <ele>662</ele>
        <time>2019-10-27T11:00:40.000Z</time>
      </trkpt>
      <trkpt lat="45.57434" lon="5.73765">
        <ele>662</ele>
        <time>2019-10-27T11:00:41.000Z</time>
      </trkpt>
      <trkpt lat="45.57435" lon="5.73765">
        <ele>662</ele>
        <time>2019-10-27T11:00:42.000Z</time>
      </trkpt>
      <trkpt lat="45.57436" lon="5.73765">
        <ele>662.3</ele>
        <time>2019-10-27T11:00:43.000Z</time>
      </trkpt>
      <trkpt lat="45.57437" lon="5.73764">
        <ele>662.7</ele>
        <time>2019-10-27T11:00:44.000Z</time>
      </trkpt>
      <trkpt lat="45.57438" lon="5.73764">
        <ele>663</ele>
        <time>2019-10-27T11:00:45.000Z</time>
      </trkpt>
      <trkpt lat="45.57439" lon="5.73764">
        <ele>663</ele>
        <time>2019-10-27T11:00:46.000Z</time>
      </trkpt>
      <trkpt lat="45.5744" lon="5.73763">
        <ele>663</ele>
        <time>2019-10-27T11:00:47.000Z</time>
      </trkpt>
      <trkpt lat="45.57441" lon="5.73763">
        <ele>663</ele>
        <time>2019-10-27T11:00:48.000Z</time>
      </trkpt>
      <trkpt lat="45.57442" lon="5.73763">
        <ele>663</ele>
        <time>2019-10-27T11:00:49.000Z</time>
      </trkpt>
      <trkpt lat="45.57443" lon="5.73762">
        <ele>663</ele>
        <time>2019-10-27T11:00:50.000Z</time>
      </trkpt>
      <trkpt lat="45.57444" lon="5.73762">
        <ele>663</ele>
        <time>2019-10-27T11:00:51.000Z</time>
      </trkpt>
      <trkpt lat="45.57445" lon="5.73762">
        <ele>663</ele>
        <time>2019-10-27T11:00:52.000Z</time>
      </trkpt>
      <trkpt lat="45.57446" lon="5.73761">
        <ele>663</ele>
        <time>2019-10-27T11:00:53.000Z</time>
      </trkpt>
      <trkpt lat="45.57447" lon="5.73761">
        <ele>663</ele>
        <time>2019-10-27T11:00:54.000Z</time>
      </trkpt>
      <trkpt lat="45.57448" lon="5.73761">
        <ele>663</ele>
        <time>2019-10-27T11:00:55.000Z</time>
      </trkpt>
      <trkpt lat="45.57449" lon="5.73761">
        <ele>663</ele>
        <time>2019-10-27T11:00:56.000Z</time>
      </trkpt>
      <trkpt lat="45.5745" lon="5.7376">
        <ele>663</ele>
        <time>2019-10-27T11:00:57.000Z</time>
      </trkpt>
      <trkpt lat="45.57451" lon="5.7376">
        <ele>663</ele>
        <time>2019-10-27T11:00:58.000Z</time>
      </trkpt>
      <trkpt lat="45.57452" lon="5.7376">
        <ele>663</ele>
        <time>2019-10-27T11:00:59.000Z</time>
      </trkpt>
      <trkpt lat="45.57454" lon="5.73759">
        <ele>663</ele>
        <time>2019-10-27T11:01:00.000Z</time>
      </trkpt>
      <trkpt lat="45.57455" lon="5.73759">
        <ele>663</ele>
        <time>2019-10-27T11:01:01.000Z</time>
      </trkpt>
      <trkpt lat="45.57457" lon="5.73758">
        <ele>664</ele>
        <time>2019-10-27T11:01:02.000Z</time>
      </trkpt>
      <trkpt lat="45.57458" lon="5.73758">
        <ele>664</ele>
        <time>2019-10-27T11:01:03.000Z</time>
      </trkpt>
      <trkpt lat="45.57459" lon="5.73757">
        <ele>664</ele>
        <time>2019-10-27T11:01:04.000Z</time>
      </trkpt>
      <trkpt lat="45.5746" lon="5.73757">
        <ele>664</ele>
        <time>2019-10-27T11:01:05.000Z</time>
      </trkpt>
      <trkpt lat="45.57461" lon="5.73756">
        <ele>664</ele>
        <time>2019-10-27T11:01:06.000Z</time>
      </trkpt>
      <trkpt lat="45.57462" lon="5.73756">
        <ele>664</ele>
        <time>2019-10-27T11:01:07.000Z</time>
      </trkpt>
      <trkpt lat="45.57463" lon="5.73755">
        <ele>664</ele>
        <time>2019-10-27T11:01:08.000Z</time>
      </trkpt>
      <trkpt lat="45.57464" lon="5.73755">
        <ele>664</ele>
        <time>2019-10-27T11:01:09.000Z</time>
      </trkpt>
      <trkpt lat="45.57465" lon="5.73755">
        <ele>664</ele>
        <time>2019-10-27T11:01:10.000Z</time>
      </trkpt>
      <trkpt lat="45.57467" lon="5.73754">
        <ele>664</ele>
        <time>2019-10-27T11:01:11.000Z</time>
      </trkpt>
      <trkpt lat="45.57468" lon="5.73754">
        <ele>664</ele>
        <time>2019-10-27T11:01:12.000Z</time>
      </trkpt>
      <trkpt lat="45.57469" lon="5.73754">
        <ele>664</ele>
        <time>2019-10-27T11:01:13.000Z</time>
      </trkpt>
      <trkpt lat="45.5747" lon="5.73753">
        <ele>664</ele>
        <time>2019-10-27T11:01:14.000Z</time>
      </trkpt>
      <trkpt lat="45.57471" lon="5.73753">
        <ele>664</ele>
        <time>2019-10-27T11:01:15.000Z</time>
      </trkpt>
      <trkpt lat="45.57472" lon="5.73752">
        <ele>664</ele>
        <time>2019-10-27T11:01:16.000Z</time>
      </trkpt>
      <trkpt lat="45.57473" lon="5.73752">
        <ele>664</ele>
        <time>2019-10-27T11:01:17.000Z</time>
      </trkpt>
      <trkpt lat="45.57474" lon="5.73751">
        <ele>664</ele>
        <time>2019-10-27T11:01:18.000Z</time>
      </trkpt>
      <trkpt lat="45.57476" lon="5.73751">
        <ele>664</ele>
        <time>2019-10-27T11:01:19.000Z</time>
      </trkpt>
      <trkpt lat="45.57477" lon="5.7375">
        <ele>664</ele>
        <time>2019-10-27T11:01:20.000Z</time>
      </trkpt>
      <trkpt lat="45.57478" lon="5.7375">
        <ele>664</ele>
        <time>2019-10-27T11:01:21.000Z</time>
      </trkpt>
      <trkpt lat="45.57479" lon="5.73749">
        <ele>664</ele>
        <time>2019-10-27T11:01:22.000Z</time>
      </trkpt>
      <trkpt lat="45.57479" lon="5.73749">
        <ele>664</ele>
        <time>2019-10-27T11:01:23.000Z</time>
      </trkpt>
      <trkpt lat="45.5748" lon="5.73748">
        <ele>664</ele>
        <time>2019-10-27T11:01:24.000Z</time>
      </trkpt>
      <trkpt lat="45.57481" lon="5.73748">
        <ele>664</ele>
        <time>2019-10-27T11:01:25.000Z</time>
      </trkpt>
      <trkpt lat="45.57482" lon="5.73748">
        <ele>664</ele>
        <time>2019-10-27T11:01:26.000Z</time>
      </trkpt>
      <trkpt lat="45.57484" lon="5.73747">
        <ele>664</ele>
        <time>2019-10-27T11:01:27.000Z</time>
      </trkpt>
      <trkpt lat="45.57485" lon="5.73747">
        <ele>664</ele>
        <time>2019-10-27T11:01:28.000Z</time>
      </trkpt>
      <trkpt lat="45.57486" lon="5.73747">
        <ele>664</ele>
        <time>2019-10-27T11:01:29.000Z</time>
      </trkpt>
      <trkpt lat="45.57487" lon="5.73747">
        <ele>664</ele>
        <time>2019-10-27T11:01:30.000Z</time>
      </trkpt>
      <trkpt lat="45.57488" lon="5.73747">
        <ele>664</ele>
        <time>2019-10-27T11:01:31.000Z</time>
      </trkpt>
      <trkpt lat="45.57489" lon="5.73747">
        <ele>664</ele>
        <time>2019-10-27T11:01:32.000Z</time>
      </trkpt>
      <trkpt lat="45.5749" lon="5.73747">
        <ele>664</ele>
        <time>2019-10-27T11:01:33.000Z</time>
      </trkpt>
      <trkpt lat="45.57491" lon="5.73747">
        <ele>664</ele>
        <time>2019-10-27T11:01:34.000Z</time>
      </trkpt>
      <trkpt lat="45.57492" lon="5.73747">
        <ele>664</ele>
        <time>2019-10-27T11:01:35.000Z</time>
      </trkpt>
      <trkpt lat="45.57494" lon="5.73747">
        <ele>664</ele>
        <time>2019-10-27T11:01:36.000Z</time>
      </trkpt>
      <trkpt lat="45.57495" lon="5.73747">
        <ele>664</ele>
        <time>2019-10-27T11:01:37.000Z</time>
      </trkpt>
      <trkpt lat="45.57496" lon="5.73747">
        <ele>664</ele>
        <time>2019-10-27T11:01:38.000Z</time>
      </trkpt>
      <trkpt lat="45.57497" lon="5.73746">
        <ele>664</ele>
        <time>2019-10-27T11:01:39.000Z</time>
      </trkpt>
      <trkpt lat="45.57498" lon="5.73746">
        <ele>664</ele>
        <time>2019-10-27T11:01:40.000Z</time>
      </trkpt>
      <trkpt lat="45.57499" lon="5.73745">
        <ele>664</ele>
        <time>2019-10-27T11:01:41.000Z</time>
      </trkpt>
      <trkpt lat="45.57501" lon="5.73745">
        <ele>664.5</ele>
        <time>2019-10-27T11:01:42.000Z</time>
      </trkpt>
      <trkpt lat="45.57502" lon="5.73744">
        <ele>665</ele>
        <time>2019-10-27T11:01:43.000Z</time>
      </trkpt>
      <trkpt lat="45.57503" lon="5.73744">
        <ele>665</ele>
        <time>2019-10-27T11:01:44.000Z</time>
      </trkpt>
      <trkpt lat="45.57504" lon="5.73743">
        <ele>665</ele>
        <time>2019-10-27T11:01:45.000Z</time>
      </trkpt>
      <trkpt lat="45.57505" lon="5.73743">
        <ele>665</ele>
        <time>2019-10-27T11:01:46.000Z</time>
      </trkpt>
      <trkpt lat="45.57506" lon="5.73743">
        <ele>665</ele>
        <time>2019-10-27T11:01:47.000Z</time>
      </trkpt>
      <trkpt lat="45.57507" lon="5.73743">
        <ele>665</ele>
        <time>2019-10-27T11:01:48.000Z</time>
      </trkpt>
      <trkpt lat="45.57508" lon="5.73743">
        <ele>665</ele>
        <time>2019-10-27T11:01:49.000Z</time>
      </trkpt>
      <trkpt lat="45.57509" lon="5.73743">
        <ele>665</ele>
        <time>2019-10-27T11:01:50.000Z</time>
      </trkpt>
      <trkpt lat="45.5751" lon="5.73743">
        <ele>665</ele>
        <time>2019-10-27T11:01:51.000Z</time>
      </trkpt>
      <trkpt lat="45.57511" lon="5.73743">
        <ele>665</ele>
        <time>2019-10-27T11:01:52.000Z</time>
      </trkpt>
      <trkpt lat="45.57512" lon="5.73743">
        <ele>665</ele>
        <time>2019-10-27T11:01:53.000Z</time>
      </trkpt>
      <trkpt lat="45.57513" lon="5.73743">
        <ele>665</ele>
        <time>2019-10-27T11:01:54.000Z</time>
      </trkpt>
      <trkpt lat="45.57514" lon="5.73743">
        <ele>665</ele>
        <time>2019-10-27T11:01:55.000Z</time>
      </trkpt>
      <trkpt lat="45.57515" lon="5.73742">
        <ele>665</ele>
        <time>2019-10-27T11:01:56.000Z</time>
      </trkpt>
      <trkpt lat="45.57516" lon="5.73741">
        <ele>665</ele>
        <time>2019-10-27T11:01:57.000Z</time>
      </trkpt>
      <trkpt lat="45.57517" lon="5.73741">
        <ele>665</ele>
        <time>2019-10-27T11:01:58.000Z</time>
      </trkpt>
      <trkpt lat="45.57518" lon="5.7374">
        <ele>665</ele>
        <time>2019-10-27T11:01:59.000Z</time>
      </trkpt>
      <trkpt lat="45.57519" lon="5.7374">
        <ele>665</ele>
        <time>2019-10-27T11:02:00.000Z</time>
      </trkpt>
      <trkpt lat="45.57521" lon="5.7374">
        <ele>665</ele>
        <time>2019-10-27T11:02:01.000Z</time>
      </trkpt>
      <trkpt lat="45.57522" lon="5.7374">
        <ele>665</ele>
        <time>2019-10-27T11:02:02.000Z</time>
      </trkpt>
      <trkpt lat="45.57523" lon="5.7374">
        <ele>665</ele>
        <time>2019-10-27T11:02:03.000Z</time>
      </trkpt>
      <trkpt lat="45.57524" lon="5.73739">
        <ele>665</ele>
        <time>2019-10-27T11:02:04.000Z</time>
      </trkpt>
      <trkpt lat="45.57525" lon="5.73739">
        <ele>665</ele>
        <time>2019-10-27T11:02:05.000Z</time>
      </trkpt>
      <trkpt lat="45.57526" lon="5.73739">
        <ele>665</ele>
        <time>2019-10-27T11:02:06.000Z</time>
      </trkpt>
      <trkpt lat="45.57527" lon="5.73738">
        <ele>665</ele>
        <time>2019-10-27T11:02:07.000Z</time>
      </trkpt>
      <trkpt lat="45.57528" lon="5.73738">
        <ele>665</ele>
        <time>2019-10-27T11:02:08.000Z</time>
      </trkpt>
      <trkpt lat="45.57529" lon="5.73737">
        <ele>665</ele>
        <time>2019-10-27T11:02:09.000Z</time>
      </trkpt>
      <trkpt lat="45.5753" lon="5.73737">
        <ele>665</ele>
        <time>2019-10-27T11:02:10.000Z</time>
      </trkpt>
      <trkpt lat="45.57531" lon="5.73737">
        <ele>665</ele>
        <time>2019-10-27T11:02:11.000Z</time>
      </trkpt>
      <trkpt lat="45.57532" lon="5.73737">
        <ele>665</ele>
        <time>2019-10-27T11:02:12.000Z</time>
      </trkpt>
      <trkpt lat="45.57532" lon="5.73736">
        <ele>665</ele>
        <time>2019-10-27T11:02:13.000Z</time>
      </trkpt>
      <trkpt lat="45.57533" lon="5.73736">
        <ele>665</ele>
        <time>2019-10-27T11:02:14.000Z</time>
      </trkpt>
      <trkpt lat="45.57534" lon="5.73736">
        <ele>665</ele>
        <time>2019-10-27T11:02:15.000Z</time>
      </trkpt>
      <trkpt lat="45.57535" lon="5.73736">
        <ele>665</ele>
        <time>2019-10-27T11:02:16.000Z</time>
      </trkpt>
      <trkpt lat="45.57536" lon="5.73736">
        <ele>665</ele>
        <time>2019-10-27T11:02:17.000Z</time>
      </trkpt>
      <trkpt lat="45.57536" lon="5.73736">
        <ele>665</ele>
        <time>2019-10-27T11:02:18.000Z</time>
      </trkpt>
      <trkpt lat="45.57537" lon="5.73736">
        <ele>665</ele>
        <time>2019-10-27T11:02:19.000Z</time>
      </trkpt>
      <trkpt lat="45.57538" lon="5.73736">
        <ele>666</ele>
        <time>2019-10-27T11:02:20.000Z</time>
      </trkpt>
      <trkpt lat="45.57539" lon="5.73736">
        <ele>666</ele>
        <time>2019-10-27T11:02:21.000Z</time>
      </trkpt>
      <trkpt lat="45.5754" lon="5.73736">
        <ele>666</ele>
        <time>2019-10-27T11:02:22.000Z</time>
      </trkpt>
      <trkpt lat="45.57541" lon="5.73736">
        <ele>666</ele>
        <time>2019-10-27T11:02:23.000Z</time>
      </trkpt>
      <trkpt lat="45.57541" lon="5.73735">
        <ele>666</ele>
        <time>2019-10-27T11:02:24.000Z</time>
      </trkpt>
      <trkpt lat="45.57542" lon="5.73735">
        <ele>666</ele>
        <time>2019-10-27T11:02:25.000Z</time>
      </trkpt>
      <trkpt lat="45.57543" lon="5.73735">
        <ele>666</ele>
        <time>2019-10-27T11:02:26.000Z</time>
      </trkpt>
      <trkpt lat="45.57543" lon="5.73734">
        <ele>666</ele>
        <time>2019-10-27T11:02:27.000Z</time>
      </trkpt>
      <trkpt lat="45.57543" lon="5.73734">
        <ele>666</ele>
        <time>2019-10-27T11:02:28.000Z</time>
      </trkpt>
      <trkpt lat="45.57544" lon="5.73734">
        <ele>666</ele>
        <time>2019-10-27T11:02:29.000Z</time>
      </trkpt>
      <trkpt lat="45.57544" lon="5.73734">
        <ele>666</ele>
        <time>2019-10-27T11:02:30.000Z</time>
      </trkpt>
      <trkpt lat="45.57544" lon="5.73733">
        <ele>666</ele>
        <time>2019-10-27T11:02:31.000Z</time>
      </trkpt>
      <trkpt lat="45.57544" lon="5.73733">
        <ele>666</ele>
        <time>2019-10-27T11:02:32.000Z</time>
      </trkpt>
      <trkpt lat="45.57544" lon="5.73733">
        <ele>666</ele>
        <time>2019-10-27T11:02:33.000Z</time>
      </trkpt>
      <trkpt lat="45.57544" lon="5.73733">
        <ele>666</ele>
        <time>2019-10-27T11:02:34.000Z</time>
      </trkpt>
      <trkpt lat="45.57544" lon="5.73733">
        <ele>666</ele>
        <time>2019-10-27T11:02:35.000Z</time>
      </trkpt>
      <trkpt lat="45.57545" lon="5.73732">
        <ele>666</ele>
        <time>2019-10-27T11:02:36.000Z</time>
      </trkpt>
      <trkpt lat="45.57546" lon="5.73732">
        <ele>666</ele>
        <time>2019-10-27T11:02:37.000Z</time>
      </trkpt>
      <trkpt lat="45.57548" lon="5.7373">
        <ele>666</ele>
        <time>2019-10-27T11:02:38.000Z</time>
      </trkpt>
      <trkpt lat="45.57549" lon="5.7373">
        <ele>666</ele>
        <time>2019-10-27T11:02:39.000Z</time>
      </trkpt>
      <trkpt lat="45.5755" lon="5.73729">
        <ele>666</ele>
        <time>2019-10-27T11:02:40.000Z</time>
      </trkpt>
      <trkpt lat="45.5755" lon="5.7373">
        <ele>666</ele>
        <time>2019-10-27T11:02:41.000Z</time>
      </trkpt>
      <trkpt lat="45.5755" lon="5.7373">
        <ele>666</ele>
        <time>2019-10-27T11:02:42.000Z</time>
      </trkpt>
      <trkpt lat="45.57551" lon="5.7373">
        <ele>666</ele>
        <time>2019-10-27T11:02:43.000Z</time>
      </trkpt>
      <trkpt lat="45.57552" lon="5.73729">
        <ele>666</ele>
        <time>2019-10-27T11:02:44.000Z</time>
      </trkpt>
      <trkpt lat="45.57553" lon="5.73729">
        <ele>666</ele>
        <time>2019-10-27T11:02:45.000Z</time>
      </trkpt>
      <trkpt lat="45.57555" lon="5.73728">
        <ele>666</ele>
        <time>2019-10-27T11:02:46.000Z</time>
      </trkpt>
      <trkpt lat="45.57556" lon="5.73728">
        <ele>666</ele>
        <time>2019-10-27T11:02:47.000Z</time>
      </trkpt>
      <trkpt lat="45.57557" lon="5.73728">
        <ele>666</ele>
        <time>2019-10-27T11:02:48.000Z</time>
      </trkpt>
      <trkpt lat="45.57558" lon="5.73727">
        <ele>666</ele>
        <time>2019-10-27T11:02:49.000Z</time>
      </trkpt>
      <trkpt lat="45.57558" lon="5.73727">
        <ele>666</ele>
        <time>2019-10-27T11:02:50.000Z</time>
      </trkpt>
      <trkpt lat="45.57559" lon="5.73727">
        <ele>666</ele>
        <time>2019-10-27T11:02:51.000Z</time>
      </trkpt>
      <trkpt lat="45.5756" lon="5.73726">
        <ele>667</ele>
        <time>2019-10-27T11:02:52.000Z</time>
      </trkpt>
      <trkpt lat="45.57561" lon="5.73726">
        <ele>667</ele>
        <time>2019-10-27T11:02:53.000Z</time>
      </trkpt>
      <trkpt lat="45.57562" lon="5.73726">
        <ele>667</ele>
        <time>2019-10-27T11:02:54.000Z</time>
      </trkpt>
      <trkpt lat="45.57562" lon="5.73725">
        <ele>667</ele>
        <time>2019-10-27T11:02:55.000Z</time>
      </trkpt>
      <trkpt lat="45.57563" lon="5.73725">
        <ele>667</ele>
        <time>2019-10-27T11:02:56.000Z</time>
      </trkpt>
      <trkpt lat="45.57564" lon="5.73724">
        <ele>667</ele>
        <time>2019-10-27T11:02:57.000Z</time>
      </trkpt>
      <trkpt lat="45.57565" lon="5.73724">
        <ele>667</ele>
        <time>2019-10-27T11:02:58.000Z</time>
      </trkpt>
      <trkpt lat="45.57566" lon="5.73723">
        <ele>667</ele>
        <time>2019-10-27T11:02:59.000Z</time>
      </trkpt>
      <trkpt lat="45.57567" lon="5.73723">
        <ele>667</ele>
        <time>2019-10-27T11:03:00.000Z</time>
      </trkpt>
      <trkpt lat="45.57568" lon="5.73723">
        <ele>667</ele>
        <time>2019-10-27T11:03:01.000Z</time>
      </trkpt>
      <trkpt lat="45.57569" lon="5.73722">
        <ele>667</ele>
        <time>2019-10-27T11:03:02.000Z</time>
      </trkpt>
      <trkpt lat="45.5757" lon="5.73722">
        <ele>667</ele>
        <time>2019-10-27T11:03:03.000Z</time>
      </trkpt>
      <trkpt lat="45.57571" lon="5.73722">
        <ele>667</ele>
        <time>2019-10-27T11:03:04.000Z</time>
      </trkpt>
      <trkpt lat="45.57571" lon="5.73722">
        <ele>667</ele>
        <time>2019-10-27T11:03:05.000Z</time>
      </trkpt>
      <trkpt lat="45.57572" lon="5.73722">
        <ele>667</ele>
        <time>2019-10-27T11:03:06.000Z</time>
      </trkpt>
      <trkpt lat="45.57573" lon="5.73722">
        <ele>667</ele>
        <time>2019-10-27T11:03:07.000Z</time>
      </trkpt>
      <trkpt lat="45.57574" lon="5.73721">
        <ele>667</ele>
        <time>2019-10-27T11:03:08.000Z</time>
      </trkpt>
      <trkpt lat="45.57575" lon="5.73721">
        <ele>667</ele>
        <time>2019-10-27T11:03:09.000Z</time>
      </trkpt>
      <trkpt lat="45.57576" lon="5.73721">
        <ele>667.5</ele>
        <time>2019-10-27T11:03:10.000Z</time>
      </trkpt>
      <trkpt lat="45.57577" lon="5.73721">
        <ele>668</ele>
        <time>2019-10-27T11:03:11.000Z</time>
      </trkpt>
      <trkpt lat="45.57579" lon="5.7372">
        <ele>668</ele>
        <time>2019-10-27T11:03:12.000Z</time>
      </trkpt>
      <trkpt lat="45.5758" lon="5.7372">
        <ele>668</ele>
        <time>2019-10-27T11:03:13.000Z</time>
      </trkpt>
      <trkpt lat="45.57581" lon="5.73719">
        <ele>668</ele>
        <time>2019-10-27T11:03:14.000Z</time>
      </trkpt>
      <trkpt lat="45.57583" lon="5.73719">
        <ele>668</ele>
        <time>2019-10-27T11:03:15.000Z</time>
      </trkpt>
      <trkpt lat="45.57584" lon="5.73718">
        <ele>668</ele>
        <time>2019-10-27T11:03:16.000Z</time>
      </trkpt>
      <trkpt lat="45.57585" lon="5.73718">
        <ele>668</ele>
        <time>2019-10-27T11:03:17.000Z</time>
      </trkpt>
      <trkpt lat="45.57586" lon="5.73717">
        <ele>668</ele>
        <time>2019-10-27T11:03:18.000Z</time>
      </trkpt>
      <trkpt lat="45.57587" lon="5.73716">
        <ele>668</ele>
        <time>2019-10-27T11:03:19.000Z</time>
      </trkpt>
      <trkpt lat="45.57589" lon="5.73715">
        <ele>668</ele>
        <time>2019-10-27T11:03:20.000Z</time>
      </trkpt>
      <trkpt lat="45.57591" lon="5.73713">
        <ele>668.3</ele>
        <time>2019-10-27T11:03:21.000Z</time>
      </trkpt>
      <trkpt lat="45.57591" lon="5.73712">
        <ele>668.7</ele>
        <time>2019-10-27T11:03:22.000Z</time>
      </trkpt>
      <trkpt lat="45.57593" lon="5.73712">
        <ele>669</ele>
        <time>2019-10-27T11:03:23.000Z</time>
      </trkpt>
      <trkpt lat="45.57595" lon="5.73711">
        <ele>669</ele>
        <time>2019-10-27T11:03:24.000Z</time>
      </trkpt>
      <trkpt lat="45.57597" lon="5.73711">
        <ele>669</ele>
        <time>2019-10-27T11:03:25.000Z</time>
      </trkpt>
      <trkpt lat="45.57598" lon="5.73711">
        <ele>669</ele>
        <time>2019-10-27T11:03:26.000Z</time>
      </trkpt>
      <trkpt lat="45.576" lon="5.73711">
        <ele>669</ele>
        <time>2019-10-27T11:03:27.000Z</time>
      </trkpt>
      <trkpt lat="45.57601" lon="5.73711">
        <ele>669</ele>
        <time>2019-10-27T11:03:28.000Z</time>
      </trkpt>
      <trkpt lat="45.57602" lon="5.73712">
        <ele>669</ele>
        <time>2019-10-27T11:03:29.000Z</time>
      </trkpt>
      <trkpt lat="45.57603" lon="5.73712">
        <ele>669</ele>
        <time>2019-10-27T11:03:30.000Z</time>
      </trkpt>
      <trkpt lat="45.57604" lon="5.73712">
        <ele>669</ele>
        <time>2019-10-27T11:03:31.000Z</time>
      </trkpt>
      <trkpt lat="45.57605" lon="5.73712">
        <ele>669</ele>
        <time>2019-10-27T11:03:32.000Z</time>
      </trkpt>
      <trkpt lat="45.57606" lon="5.73712">
        <ele>669</ele>
        <time>2019-10-27T11:03:33.000Z</time>
      </trkpt>
      <trkpt lat="45.57607" lon="5.73712">
        <ele>669</ele>
        <time>2019-10-27T11:03:34.000Z</time>
      </trkpt>
      <trkpt lat="45.57608" lon="5.73712">
        <ele>669</ele>
        <time>2019-10-27T11:03:35.000Z</time>
      </trkpt>
      <trkpt lat="45.57609" lon="5.73712">
        <ele>669.5</ele>
        <time>2019-10-27T11:03:36.000Z</time>
      </trkpt>
      <trkpt lat="45.5761" lon="5.73712">
        <ele>670</ele>
        <time>2019-10-27T11:03:37.000Z</time>
      </trkpt>
      <trkpt lat="45.57612" lon="5.73712">
        <ele>670</ele>
        <time>2019-10-27T11:03:38.000Z</time>
      </trkpt>
      <trkpt lat="45.57613" lon="5.73712">
        <ele>670</ele>
        <time>2019-10-27T11:03:39.000Z</time>
      </trkpt>
      <trkpt lat="45.57614" lon="5.73712">
        <ele>670</ele>
        <time>2019-10-27T11:03:40.000Z</time>
      </trkpt>
      <trkpt lat="45.57616" lon="5.73712">
        <ele>670</ele>
        <time>2019-10-27T11:03:41.000Z</time>
      </trkpt>
      <trkpt lat="45.57617" lon="5.73712">
        <ele>670</ele>
        <time>2019-10-27T11:03:42.000Z</time>
      </trkpt>
      <trkpt lat="45.57619" lon="5.73712">
        <ele>670.3</ele>
        <time>2019-10-27T11:03:43.000Z</time>
      </trkpt>
      <trkpt lat="45.5762" lon="5.73712">
        <ele>670.7</ele>
        <time>2019-10-27T11:03:44.000Z</time>
      </trkpt>
      <trkpt lat="45.57622" lon="5.73712">
        <ele>671</ele>
        <time>2019-10-27T11:03:45.000Z</time>
      </trkpt>
      <trkpt lat="45.57623" lon="5.73711">
        <ele>671</ele>
        <time>2019-10-27T11:03:46.000Z</time>
      </trkpt>
      <trkpt lat="45.57624" lon="5.73711">
        <ele>671</ele>
        <time>2019-10-27T11:03:47.000Z</time>
      </trkpt>
      <trkpt lat="45.57626" lon="5.73711">
        <ele>671</ele>
        <time>2019-10-27T11:03:48.000Z</time>
      </trkpt>
      <trkpt lat="45.57627" lon="5.73711">
        <ele>671</ele>
        <time>2019-10-27T11:03:49.000Z</time>
      </trkpt>
      <trkpt lat="45.57629" lon="5.73711">
        <ele>671</ele>
        <time>2019-10-27T11:03:50.000Z</time>
      </trkpt>
      <trkpt lat="45.5763" lon="5.73711">
        <ele>671</ele>
        <time>2019-10-27T11:03:51.000Z</time>
      </trkpt>
      <trkpt lat="45.57631" lon="5.73711">
        <ele>671</ele>
        <time>2019-10-27T11:03:52.000Z</time>
      </trkpt>
      <trkpt lat="45.57633" lon="5.73711">
        <ele>671</ele>
        <time>2019-10-27T11:03:53.000Z</time>
      </trkpt>
      <trkpt lat="45.57634" lon="5.73711">
        <ele>671</ele>
        <time>2019-10-27T11:03:54.000Z</time>
      </trkpt>
      <trkpt lat="45.57635" lon="5.73712">
        <ele>671</ele>
        <time>2019-10-27T11:03:55.000Z</time>
      </trkpt>
      <trkpt lat="45.57637" lon="5.73713">
        <ele>671</ele>
        <time>2019-10-27T11:03:56.000Z</time>
      </trkpt>
      <trkpt lat="45.57639" lon="5.73713">
        <ele>671</ele>
        <time>2019-10-27T11:03:57.000Z</time>
      </trkpt>
      <trkpt lat="45.5764" lon="5.73714">
        <ele>672</ele>
        <time>2019-10-27T11:03:58.000Z</time>
      </trkpt>
      <trkpt lat="45.57641" lon="5.73715">
        <ele>672</ele>
        <time>2019-10-27T11:03:59.000Z</time>
      </trkpt>
      <trkpt lat="45.57643" lon="5.73716">
        <ele>672</ele>
        <time>2019-10-27T11:04:00.000Z</time>
      </trkpt>
      <trkpt lat="45.57643" lon="5.73717">
        <ele>672</ele>
        <time>2019-10-27T11:04:01.000Z</time>
      </trkpt>
      <trkpt lat="45.57644" lon="5.73718">
        <ele>672</ele>
        <time>2019-10-27T11:04:02.000Z</time>
      </trkpt>
      <trkpt lat="45.57644" lon="5.73719">
        <ele>672</ele>
        <time>2019-10-27T11:04:03.000Z</time>
      </trkpt>
      <trkpt lat="45.57645" lon="5.73719">
        <ele>672</ele>
        <time>2019-10-27T11:04:04.000Z</time>
      </trkpt>
      <trkpt lat="45.57646" lon="5.7372">
        <ele>672</ele>
        <time>2019-10-27T11:04:05.000Z</time>
      </trkpt>
      <trkpt lat="45.57647" lon="5.73721">
        <ele>672</ele>
        <time>2019-10-27T11:04:06.000Z</time>
      </trkpt>
      <trkpt lat="45.57648" lon="5.73721">
        <ele>672</ele>
        <time>2019-10-27T11:04:07.000Z</time>
      </trkpt>
      <trkpt lat="45.57649" lon="5.73722">
        <ele>671.5</ele>
        <time>2019-10-27T11:04:08.000Z</time>
      </trkpt>
      <trkpt lat="45.5765" lon="5.73722">
        <ele>671</ele>
        <time>2019-10-27T11:04:09.000Z</time>
      </trkpt>
      <trkpt lat="45.57652" lon="5.73722">
        <ele>671</ele>
        <time>2019-10-27T11:04:10.000Z</time>
      </trkpt>
      <trkpt lat="45.57653" lon="5.73722">
        <ele>671</ele>
        <time>2019-10-27T11:04:11.000Z</time>
      </trkpt>
      <trkpt lat="45.57654" lon="5.73722">
        <ele>671</ele>
        <time>2019-10-27T11:04:12.000Z</time>
      </trkpt>
      <trkpt lat="45.57655" lon="5.73723">
        <ele>671</ele>
        <time>2019-10-27T11:04:13.000Z</time>
      </trkpt>
      <trkpt lat="45.57656" lon="5.73723">
        <ele>671</ele>
        <time>2019-10-27T11:04:14.000Z</time>
      </trkpt>
      <trkpt lat="45.57657" lon="5.73723">
        <ele>671</ele>
        <time>2019-10-27T11:04:15.000Z</time>
      </trkpt>
      <trkpt lat="45.57658" lon="5.73723">
        <ele>671</ele>
        <time>2019-10-27T11:04:16.000Z</time>
      </trkpt>
      <trkpt lat="45.57659" lon="5.73723">
        <ele>671</ele>
        <time>2019-10-27T11:04:17.000Z</time>
      </trkpt>
      <trkpt lat="45.57659" lon="5.73723">
        <ele>671</ele>
        <time>2019-10-27T11:04:18.000Z</time>
      </trkpt>
      <trkpt lat="45.5766" lon="5.73723">
        <ele>671</ele>
        <time>2019-10-27T11:04:19.000Z</time>
      </trkpt>
      <trkpt lat="45.57661" lon="5.73724">
        <ele>671</ele>
        <time>2019-10-27T11:04:20.000Z</time>
      </trkpt>
      <trkpt lat="45.57662" lon="5.73724">
        <ele>671</ele>
        <time>2019-10-27T11:04:21.000Z</time>
      </trkpt>
      <trkpt lat="45.57662" lon="5.73724">
        <ele>670</ele>
        <time>2019-10-27T11:04:22.000Z</time>
      </trkpt>
      <trkpt lat="45.57663" lon="5.73724">
        <ele>670</ele>
        <time>2019-10-27T11:04:23.000Z</time>
      </trkpt>
      <trkpt lat="45.57664" lon="5.73725">
        <ele>670</ele>
        <time>2019-10-27T11:04:24.000Z</time>
      </trkpt>
      <trkpt lat="45.57664" lon="5.73725">
        <ele>670</ele>
        <time>2019-10-27T11:04:25.000Z</time>
      </trkpt>
      <trkpt lat="45.57665" lon="5.73725">
        <ele>670</ele>
        <time>2019-10-27T11:04:26.000Z</time>
      </trkpt>
      <trkpt lat="45.57666" lon="5.73725">
        <ele>670</ele>
        <time>2019-10-27T11:04:27.000Z</time>
      </trkpt>
      <trkpt lat="45.57667" lon="5.73726">
        <ele>670</ele>
        <time>2019-10-27T11:04:28.000Z</time>
      </trkpt>
      <trkpt lat="45.57668" lon="5.73726">
        <ele>670</ele>
        <time>2019-10-27T11:04:29.000Z</time>
      </trkpt>
      <trkpt lat="45.57669" lon="5.73726">
        <ele>670</ele>
        <time>2019-10-27T11:04:30.000Z</time>
      </trkpt>
      <trkpt lat="45.5767" lon="5.73726">
        <ele>670</ele>
        <time>2019-10-27T11:04:31.000Z</time>
      </trkpt>
      <trkpt lat="45.57671" lon="5.73726">
        <ele>669.5</ele>
        <time>2019-10-27T11:04:32.000Z</time>
      </trkpt>
      <trkpt lat="45.57672" lon="5.73726">
        <ele>669</ele>
        <time>2019-10-27T11:04:33.000Z</time>
      </trkpt>
      <trkpt lat="45.57673" lon="5.73726">
        <ele>669</ele>
        <time>2019-10-27T11:04:34.000Z</time>
      </trkpt>
      <trkpt lat="45.57674" lon="5.73726">
        <ele>669</ele>
        <time>2019-10-27T11:04:35.000Z</time>
      </trkpt>
      <trkpt lat="45.57674" lon="5.73726">
        <ele>669</ele>
        <time>2019-10-27T11:04:36.000Z</time>
      </trkpt>
      <trkpt lat="45.57675" lon="5.73726">
        <ele>669</ele>
        <time>2019-10-27T11:04:37.000Z</time>
      </trkpt>
      <trkpt lat="45.57676" lon="5.73726">
        <ele>669</ele>
        <time>2019-10-27T11:04:38.000Z</time>
      </trkpt>
      <trkpt lat="45.57676" lon="5.73726">
        <ele>669</ele>
        <time>2019-10-27T11:04:39.000Z</time>
      </trkpt>
      <trkpt lat="45.57677" lon="5.73726">
        <ele>668.5</ele>
        <time>2019-10-27T11:04:40.000Z</time>
      </trkpt>
      <trkpt lat="45.57677" lon="5.73726">
        <ele>668</ele>
        <time>2019-10-27T11:04:41.000Z</time>
      </trkpt>
      <trkpt lat="45.57678" lon="5.73726">
        <ele>668</ele>
        <time>2019-10-27T11:04:42.000Z</time>
      </trkpt>
      <trkpt lat="45.57679" lon="5.73726">
        <ele>668</ele>
        <time>2019-10-27T11:04:43.000Z</time>
      </trkpt>
      <trkpt lat="45.5768" lon="5.73726">
        <ele>668</ele>
        <time>2019-10-27T11:04:44.000Z</time>
      </trkpt>
      <trkpt lat="45.57681" lon="5.73726">
        <ele>668</ele>
        <time>2019-10-27T11:04:45.000Z</time>
      </trkpt>
      <trkpt lat="45.57682" lon="5.73726">
        <ele>668</ele>
        <time>2019-10-27T11:04:46.000Z</time>
      </trkpt>
      <trkpt lat="45.57683" lon="5.73726">
        <ele>668</ele>
        <time>2019-10-27T11:04:47.000Z</time>
      </trkpt>
      <trkpt lat="45.57684" lon="5.73726">
        <ele>668</ele>
        <time>2019-10-27T11:04:48.000Z</time>
      </trkpt>
      <trkpt lat="45.57686" lon="5.73726">
        <ele>668</ele>
        <time>2019-10-27T11:04:49.000Z</time>
      </trkpt>
      <trkpt lat="45.57688" lon="5.73726">
        <ele>668</ele>
        <time>2019-10-27T11:04:50.000Z</time>
      </trkpt>
      <trkpt lat="45.5769" lon="5.73726">
        <ele>667.7</ele>
        <time>2019-10-27T11:04:51.000Z</time>
      </trkpt>
      <trkpt lat="45.57691" lon="5.73725">
        <ele>667.3</ele>
        <time>2019-10-27T11:04:52.000Z</time>
      </trkpt>
      <trkpt lat="45.57693" lon="5.73725">
        <ele>667</ele>
        <time>2019-10-27T11:04:53.000Z</time>
      </trkpt>
      <trkpt lat="45.57695" lon="5.73725">
        <ele>667</ele>
        <time>2019-10-27T11:04:54.000Z</time>
      </trkpt>
      <trkpt lat="45.57696" lon="5.73724">
        <ele>667</ele>
        <time>2019-10-27T11:04:55.000Z</time>
      </trkpt>
      <trkpt lat="45.57697" lon="5.73724">
        <ele>667</ele>
        <time>2019-10-27T11:04:56.000Z</time>
      </trkpt>
      <trkpt lat="45.57698" lon="5.73724">
        <ele>667</ele>
        <time>2019-10-27T11:04:57.000Z</time>
      </trkpt>
      <trkpt lat="45.57699" lon="5.73724">
        <ele>667</ele>
        <time>2019-10-27T11:04:58.000Z</time>
      </trkpt>
      <trkpt lat="45.577" lon="5.73723">
        <ele>667</ele>
        <time>2019-10-27T11:04:59.000Z</time>
      </trkpt>
      <trkpt lat="45.57701" lon="5.73723">
        <ele>667</ele>
        <time>2019-10-27T11:05:00.000Z</time>
      </trkpt>
      <trkpt lat="45.57702" lon="5.73723">
        <ele>667</ele>
        <time>2019-10-27T11:05:01.000Z</time>
      </trkpt>
      <trkpt lat="45.57703" lon="5.73723">
        <ele>667</ele>
        <time>2019-10-27T11:05:02.000Z</time>
      </trkpt>
      <trkpt lat="45.57704" lon="5.73723">
        <ele>667</ele>
        <time>2019-10-27T11:05:03.000Z</time>
      </trkpt>
      <trkpt lat="45.57705" lon="5.73723">
        <ele>667</ele>
        <time>2019-10-27T11:05:04.000Z</time>
      </trkpt>
      <trkpt lat="45.57706" lon="5.73723">
        <ele>667</ele>
        <time>2019-10-27T11:05:05.000Z</time>
      </trkpt>
      <trkpt lat="45.57707" lon="5.73723">
        <ele>667</ele>
        <time>2019-10-27T11:05:06.000Z</time>
      </trkpt>
      <trkpt lat="45.57708" lon="5.73723">
        <ele>667</ele>
        <time>2019-10-27T11:05:07.000Z</time>
      </trkpt>
      <trkpt lat="45.57708" lon="5.73723">
        <ele>667</ele>
        <time>2019-10-27T11:05:08.000Z</time>
      </trkpt>
      <trkpt lat="45.57709" lon="5.73723">
        <ele>667</ele>
        <time>2019-10-27T11:05:09.000Z</time>
      </trkpt>
      <trkpt lat="45.5771" lon="5.73723">
        <ele>667</ele>
        <time>2019-10-27T11:05:10.000Z</time>
      </trkpt>
      <trkpt lat="45.57711" lon="5.73723">
        <ele>667</ele>
        <time>2019-10-27T11:05:11.000Z</time>
      </trkpt>
      <trkpt lat="45.57712" lon="5.73723">
        <ele>666.5</ele>
        <time>2019-10-27T11:05:12.000Z</time>
      </trkpt>
      <trkpt lat="45.57713" lon="5.73723">
        <ele>666</ele>
        <time>2019-10-27T11:05:13.000Z</time>
      </trkpt>
      <trkpt lat="45.57714" lon="5.73723">
        <ele>667</ele>
        <time>2019-10-27T11:05:14.000Z</time>
      </trkpt>
      <trkpt lat="45.57716" lon="5.73722">
        <ele>666.7</ele>
        <time>2019-10-27T11:05:15.000Z</time>
      </trkpt>
      <trkpt lat="45.57717" lon="5.73721">
        <ele>666.3</ele>
        <time>2019-10-27T11:05:16.000Z</time>
      </trkpt>
      <trkpt lat="45.57718" lon="5.73721">
        <ele>666</ele>
        <time>2019-10-27T11:05:17.000Z</time>
      </trkpt>
      <trkpt lat="45.57719" lon="5.7372">
        <ele>666</ele>
        <time>2019-10-27T11:05:18.000Z</time>
      </trkpt>
      <trkpt lat="45.57721" lon="5.73719">
        <ele>666</ele>
        <time>2019-10-27T11:05:19.000Z</time>
      </trkpt>
      <trkpt lat="45.57722" lon="5.73719">
        <ele>666</ele>
        <time>2019-10-27T11:05:20.000Z</time>
      </trkpt>
      <trkpt lat="45.57723" lon="5.73718">
        <ele>666</ele>
        <time>2019-10-27T11:05:21.000Z</time>
      </trkpt>
      <trkpt lat="45.57724" lon="5.73718">
        <ele>666</ele>
        <time>2019-10-27T11:05:22.000Z</time>
      </trkpt>
      <trkpt lat="45.57725" lon="5.73718">
        <ele>666</ele>
        <time>2019-10-27T11:05:23.000Z</time>
      </trkpt>
      <trkpt lat="45.57726" lon="5.73718">
        <ele>666</ele>
        <time>2019-10-27T11:05:24.000Z</time>
      </trkpt>
      <trkpt lat="45.57727" lon="5.73718">
        <ele>666</ele>
        <time>2019-10-27T11:05:25.000Z</time>
      </trkpt>
      <trkpt lat="45.57728" lon="5.73718">
        <ele>666</ele>
        <time>2019-10-27T11:05:26.000Z</time>
      </trkpt>
      <trkpt lat="45.57728" lon="5.73718">
        <ele>666</ele>
        <time>2019-10-27T11:05:27.000Z</time>
      </trkpt>
      <trkpt lat="45.57729" lon="5.73719">
        <ele>666</ele>
        <time>2019-10-27T11:05:28.000Z</time>
      </trkpt>
      <trkpt lat="45.57729" lon="5.73719">
        <ele>666</ele>
        <time>2019-10-27T11:05:29.000Z</time>
      </trkpt>
      <trkpt lat="45.57729" lon="5.73718">
        <ele>666</ele>
        <time>2019-10-27T11:05:30.000Z</time>
      </trkpt>
      <trkpt lat="45.5773" lon="5.73718">
        <ele>666</ele>
        <time>2019-10-27T11:05:31.000Z</time>
      </trkpt>
      <trkpt lat="45.5773" lon="5.73717">
        <ele>666</ele>
        <time>2019-10-27T11:05:32.000Z</time>
      </trkpt>
      <trkpt lat="45.57731" lon="5.73716">
        <ele>666</ele>
        <time>2019-10-27T11:05:33.000Z</time>
      </trkpt>
      <trkpt lat="45.57732" lon="5.73716">
        <ele>666</ele>
        <time>2019-10-27T11:05:34.000Z</time>
      </trkpt>
      <trkpt lat="45.57732" lon="5.73715">
        <ele>666</ele>
        <time>2019-10-27T11:05:35.000Z</time>
      </trkpt>
      <trkpt lat="45.57733" lon="5.73715">
        <ele>666</ele>
        <time>2019-10-27T11:05:36.000Z</time>
      </trkpt>
      <trkpt lat="45.57734" lon="5.73714">
        <ele>666</ele>
        <time>2019-10-27T11:05:37.000Z</time>
      </trkpt>
      <trkpt lat="45.57735" lon="5.73714">
        <ele>666</ele>
        <time>2019-10-27T11:05:38.000Z</time>
      </trkpt>
      <trkpt lat="45.57736" lon="5.73713">
        <ele>666</ele>
        <time>2019-10-27T11:05:39.000Z</time>
      </trkpt>
      <trkpt lat="45.57737" lon="5.73712">
        <ele>666</ele>
        <time>2019-10-27T11:05:40.000Z</time>
      </trkpt>
      <trkpt lat="45.57738" lon="5.73712">
        <ele>666</ele>
        <time>2019-10-27T11:05:41.000Z</time>
      </trkpt>
      <trkpt lat="45.57739" lon="5.73711">
        <ele>666</ele>
        <time>2019-10-27T11:05:42.000Z</time>
      </trkpt>
      <trkpt lat="45.5774" lon="5.73711">
        <ele>666</ele>
        <time>2019-10-27T11:05:43.000Z</time>
      </trkpt>
      <trkpt lat="45.57741" lon="5.73711">
        <ele>666</ele>
        <time>2019-10-27T11:05:44.000Z</time>
      </trkpt>
      <trkpt lat="45.57742" lon="5.73711">
        <ele>666</ele>
        <time>2019-10-27T11:05:45.000Z</time>
      </trkpt>
      <trkpt lat="45.57743" lon="5.7371">
        <ele>666</ele>
        <time>2019-10-27T11:05:46.000Z</time>
      </trkpt>
      <trkpt lat="45.57744" lon="5.7371">
        <ele>666</ele>
        <time>2019-10-27T11:05:47.000Z</time>
      </trkpt>
      <trkpt lat="45.57745" lon="5.7371">
        <ele>666</ele>
        <time>2019-10-27T11:05:48.000Z</time>
      </trkpt>
      <trkpt lat="45.57746" lon="5.7371">
        <ele>666</ele>
        <time>2019-10-27T11:05:49.000Z</time>
      </trkpt>
      <trkpt lat="45.57748" lon="5.7371">
        <ele>666</ele>
        <time>2019-10-27T11:05:50.000Z</time>
      </trkpt>
      <trkpt lat="45.57749" lon="5.73709">
        <ele>666</ele>
        <time>2019-10-27T11:05:51.000Z</time>
      </trkpt>
      <trkpt lat="45.5775" lon="5.73709">
        <ele>666</ele>
        <time>2019-10-27T11:05:52.000Z</time>
      </trkpt>
      <trkpt lat="45.57751" lon="5.73709">
        <ele>666</ele>
        <time>2019-10-27T11:05:53.000Z</time>
      </trkpt>
      <trkpt lat="45.57752" lon="5.73709">
        <ele>666</ele>
        <time>2019-10-27T11:05:54.000Z</time>
      </trkpt>
      <trkpt lat="45.57753" lon="5.73708">
        <ele>666</ele>
        <time>2019-10-27T11:05:55.000Z</time>
      </trkpt>
      <trkpt lat="45.57754" lon="5.73708">
        <ele>666</ele>
        <time>2019-10-27T11:05:56.000Z</time>
      </trkpt>
      <trkpt lat="45.57755" lon="5.73708">
        <ele>666</ele>
        <time>2019-10-27T11:05:57.000Z</time>
      </trkpt>
      <trkpt lat="45.57757" lon="5.73708">
        <ele>666</ele>
        <time>2019-10-27T11:05:58.000Z</time>
      </trkpt>
      <trkpt lat="45.57758" lon="5.73707">
        <ele>666</ele>
        <time>2019-10-27T11:05:59.000Z</time>
      </trkpt>
      <trkpt lat="45.57759" lon="5.73707">
        <ele>666</ele>
        <time>2019-10-27T11:06:00.000Z</time>
      </trkpt>
      <trkpt lat="45.5776" lon="5.73707">
        <ele>666</ele>
        <time>2019-10-27T11:06:01.000Z</time>
      </trkpt>
      <trkpt lat="45.57761" lon="5.73706">
        <ele>666</ele>
        <time>2019-10-27T11:06:02.000Z</time>
      </trkpt>
      <trkpt lat="45.57762" lon="5.73705">
        <ele>666</ele>
        <time>2019-10-27T11:06:03.000Z</time>
      </trkpt>
      <trkpt lat="45.57764" lon="5.73705">
        <ele>666</ele>
        <time>2019-10-27T11:06:04.000Z</time>
      </trkpt>
      <trkpt lat="45.57765" lon="5.73704">
        <ele>666</ele>
        <time>2019-10-27T11:06:05.000Z</time>
      </trkpt>
      <trkpt lat="45.57766" lon="5.73703">
        <ele>666</ele>
        <time>2019-10-27T11:06:06.000Z</time>
      </trkpt>
      <trkpt lat="45.57767" lon="5.73701">
        <ele>666</ele>
        <time>2019-10-27T11:06:07.000Z</time>
      </trkpt>
      <trkpt lat="45.57768" lon="5.73699">
        <ele>666</ele>
        <time>2019-10-27T11:06:08.000Z</time>
      </trkpt>
      <trkpt lat="45.57769" lon="5.73697">
        <ele>666</ele>
        <time>2019-10-27T11:06:09.000Z</time>
      </trkpt>
      <trkpt lat="45.5777" lon="5.73697">
        <ele>666</ele>
        <time>2019-10-27T11:06:10.000Z</time>
      </trkpt>
      <trkpt lat="45.57771" lon="5.73697">
        <ele>666</ele>
        <time>2019-10-27T11:06:11.000Z</time>
      </trkpt>
      <trkpt lat="45.57773" lon="5.73697">
        <ele>666</ele>
        <time>2019-10-27T11:06:12.000Z</time>
      </trkpt>
      <trkpt lat="45.57774" lon="5.73697">
        <ele>666</ele>
        <time>2019-10-27T11:06:13.000Z</time>
      </trkpt>
      <trkpt lat="45.57775" lon="5.73696">
        <ele>666.5</ele>
        <time>2019-10-27T11:06:14.000Z</time>
      </trkpt>
      <trkpt lat="45.57776" lon="5.73695">
        <ele>667</ele>
        <time>2019-10-27T11:06:15.000Z</time>
      </trkpt>
      <trkpt lat="45.57777" lon="5.73695">
        <ele>667</ele>
        <time>2019-10-27T11:06:16.000Z</time>
      </trkpt>
      <trkpt lat="45.57778" lon="5.73694">
        <ele>667</ele>
        <time>2019-10-27T11:06:17.000Z</time>
      </trkpt>
      <trkpt lat="45.57779" lon="5.73694">
        <ele>667</ele>
        <time>2019-10-27T11:06:18.000Z</time>
      </trkpt>
      <trkpt lat="45.57781" lon="5.73694">
        <ele>667</ele>
        <time>2019-10-27T11:06:19.000Z</time>
      </trkpt>
      <trkpt lat="45.57782" lon="5.73694">
        <ele>667</ele>
        <time>2019-10-27T11:06:20.000Z</time>
      </trkpt>
      <trkpt lat="45.57783" lon="5.73695">
        <ele>667</ele>
        <time>2019-10-27T11:06:21.000Z</time>
      </trkpt>
      <trkpt lat="45.57784" lon="5.73695">
        <ele>667</ele>
        <time>2019-10-27T11:06:22.000Z</time>
      </trkpt>
      <trkpt lat="45.57785" lon="5.73696">
        <ele>667</ele>
        <time>2019-10-27T11:06:23.000Z</time>
      </trkpt>
      <trkpt lat="45.57786" lon="5.73697">
        <ele>667</ele>
        <time>2019-10-27T11:06:24.000Z</time>
      </trkpt>
      <trkpt lat="45.57787" lon="5.73698">
        <ele>667</ele>
        <time>2019-10-27T11:06:25.000Z</time>
      </trkpt>
      <trkpt lat="45.57789" lon="5.73698">
        <ele>667</ele>
        <time>2019-10-27T11:06:26.000Z</time>
      </trkpt>
      <trkpt lat="45.5779" lon="5.73698">
        <ele>667.3</ele>
        <time>2019-10-27T11:06:27.000Z</time>
      </trkpt>
      <trkpt lat="45.57791" lon="5.73698">
        <ele>667.7</ele>
        <time>2019-10-27T11:06:28.000Z</time>
      </trkpt>
      <trkpt lat="45.57792" lon="5.73698">
        <ele>668</ele>
        <time>2019-10-27T11:06:29.000Z</time>
      </trkpt>
      <trkpt lat="45.57793" lon="5.73697">
        <ele>668</ele>
        <time>2019-10-27T11:06:30.000Z</time>
      </trkpt>
      <trkpt lat="45.57794" lon="5.73697">
        <ele>668</ele>
        <time>2019-10-27T11:06:31.000Z</time>
      </trkpt>
      <trkpt lat="45.57795" lon="5.73697">
        <ele>668</ele>
        <time>2019-10-27T11:06:32.000Z</time>
      </trkpt>
      <trkpt lat="45.57796" lon="5.73697">
        <ele>668</ele>
        <time>2019-10-27T11:06:33.000Z</time>
      </trkpt>
      <trkpt lat="45.57797" lon="5.73697">
        <ele>668</ele>
        <time>2019-10-27T11:06:34.000Z</time>
      </trkpt>
      <trkpt lat="45.57798" lon="5.73698">
        <ele>668</ele>
        <time>2019-10-27T11:06:35.000Z</time>
      </trkpt>
      <trkpt lat="45.57798" lon="5.73698">
        <ele>668</ele>
        <time>2019-10-27T11:06:36.000Z</time>
      </trkpt>
      <trkpt lat="45.57799" lon="5.73698">
        <ele>668</ele>
        <time>2019-10-27T11:06:37.000Z</time>
      </trkpt>
      <trkpt lat="45.578" lon="5.73698">
        <ele>668</ele>
        <time>2019-10-27T11:06:38.000Z</time>
      </trkpt>
      <trkpt lat="45.57801" lon="5.73699">
        <ele>668</ele>
        <time>2019-10-27T11:06:39.000Z</time>
      </trkpt>
      <trkpt lat="45.57802" lon="5.73699">
        <ele>668</ele>
        <time>2019-10-27T11:06:40.000Z</time>
      </trkpt>
      <trkpt lat="45.57803" lon="5.73699">
        <ele>668</ele>
        <time>2019-10-27T11:06:41.000Z</time>
      </trkpt>
      <trkpt lat="45.57804" lon="5.737">
        <ele>668</ele>
        <time>2019-10-27T11:06:42.000Z</time>
      </trkpt>
      <trkpt lat="45.57805" lon="5.737">
        <ele>668.3</ele>
        <time>2019-10-27T11:06:43.000Z</time>
      </trkpt>
      <trkpt lat="45.57806" lon="5.737">
        <ele>668.7</ele>
        <time>2019-10-27T11:06:44.000Z</time>
      </trkpt>
      <trkpt lat="45.57807" lon="5.73701">
        <ele>669</ele>
        <time>2019-10-27T11:06:45.000Z</time>
      </trkpt>
      <trkpt lat="45.57807" lon="5.73701">
        <ele>668.5</ele>
        <time>2019-10-27T11:06:46.000Z</time>
      </trkpt>
      <trkpt lat="45.57807" lon="5.73701">
        <ele>668</ele>
        <time>2019-10-27T11:06:47.000Z</time>
      </trkpt>
      <trkpt lat="45.57807" lon="5.73701">
        <ele>669</ele>
        <time>2019-10-27T11:06:48.000Z</time>
      </trkpt>
      <trkpt lat="45.57807" lon="5.73701">
        <ele>669</ele>
        <time>2019-10-27T11:06:49.000Z</time>
      </trkpt>
      <trkpt lat="45.57807" lon="5.73701">
        <ele>669</ele>
        <time>2019-10-27T11:06:50.000Z</time>
      </trkpt>
      <trkpt lat="45.57807" lon="5.73702">
        <ele>669</ele>
        <time>2019-10-27T11:06:51.000Z</time>
      </trkpt>
      <trkpt lat="45.57807" lon="5.73702">
        <ele>669</ele>
        <time>2019-10-27T11:06:52.000Z</time>
      </trkpt>
      <trkpt lat="45.57807" lon="5.73702">
        <ele>669</ele>
        <time>2019-10-27T11:06:53.000Z</time>
      </trkpt>
      <trkpt lat="45.57807" lon="5.73702">
        <ele>669</ele>
        <time>2019-10-27T11:06:54.000Z</time>
      </trkpt>
      <trkpt lat="45.57807" lon="5.73702">
        <ele>669</ele>
        <time>2019-10-27T11:06:55.000Z</time>
      </trkpt>
      <trkpt lat="45.57807" lon="5.73702">
        <ele>669</ele>
        <time>2019-10-27T11:06:56.000Z</time>
      </trkpt>
      <trkpt lat="45.57807" lon="5.73702">
        <ele>669</ele>
        <time>2019-10-27T11:06:57.000Z</time>
      </trkpt>
      <trkpt lat="45.57807" lon="5.73702">
        <ele>669</ele>
        <time>2019-10-27T11:06:58.000Z</time>
      </trkpt>
      <trkpt lat="45.57807" lon="5.73702">
        <ele>669</ele>
        <time>2019-10-27T11:06:59.000Z</time>
      </trkpt>
      <trkpt lat="45.57807" lon="5.73702">
        <ele>669</ele>
        <time>2019-10-27T11:07:00.000Z</time>
      </trkpt>
      <trkpt lat="45.57807" lon="5.73702">
        <ele>669</ele>
        <time>2019-10-27T11:07:01.000Z</time>
      </trkpt>
      <trkpt lat="45.57807" lon="5.73702">
        <ele>669</ele>
        <time>2019-10-27T11:07:02.000Z</time>
      </trkpt>
      <trkpt lat="45.57807" lon="5.73702">
        <ele>669</ele>
        <time>2019-10-27T11:07:03.000Z</time>
      </trkpt>
      <trkpt lat="45.57807" lon="5.73702">
        <ele>669</ele>
        <time>2019-10-27T11:07:04.000Z</time>
      </trkpt>
      <trkpt lat="45.57807" lon="5.73702">
        <ele>668.7</ele>
        <time>2019-10-27T11:07:05.000Z</time>
      </trkpt>
      <trkpt lat="45.57807" lon="5.73702">
        <ele>668.3</ele>
        <time>2019-10-27T11:07:06.000Z</time>
      </trkpt>
      <trkpt lat="45.57808" lon="5.73702">
        <ele>668</ele>
        <time>2019-10-27T11:07:07.000Z</time>
      </trkpt>
      <trkpt lat="45.57808" lon="5.73702">
        <ele>668</ele>
        <time>2019-10-27T11:07:08.000Z</time>
      </trkpt>
      <trkpt lat="45.57808" lon="5.73702">
        <ele>668</ele>
        <time>2019-10-27T11:07:09.000Z</time>
      </trkpt>
      <trkpt lat="45.57809" lon="5.73701">
        <ele>668</ele>
        <time>2019-10-27T11:07:10.000Z</time>
      </trkpt>
      <trkpt lat="45.57809" lon="5.73701">
        <ele>668</ele>
        <time>2019-10-27T11:07:11.000Z</time>
      </trkpt>
      <trkpt lat="45.5781" lon="5.737">
        <ele>668</ele>
        <time>2019-10-27T11:07:12.000Z</time>
      </trkpt>
      <trkpt lat="45.5781" lon="5.73699">
        <ele>668</ele>
        <time>2019-10-27T11:07:13.000Z</time>
      </trkpt>
      <trkpt lat="45.57811" lon="5.73698">
        <ele>668</ele>
        <time>2019-10-27T11:07:14.000Z</time>
      </trkpt>
      <trkpt lat="45.57812" lon="5.73697">
        <ele>668</ele>
        <time>2019-10-27T11:07:15.000Z</time>
      </trkpt>
      <trkpt lat="45.57812" lon="5.73696">
        <ele>668</ele>
        <time>2019-10-27T11:07:16.000Z</time>
      </trkpt>
      <trkpt lat="45.57813" lon="5.73696">
        <ele>668</ele>
        <time>2019-10-27T11:07:17.000Z</time>
      </trkpt>
      <trkpt lat="45.57814" lon="5.73695">
        <ele>668</ele>
        <time>2019-10-27T11:07:18.000Z</time>
      </trkpt>
      <trkpt lat="45.57814" lon="5.73695">
        <ele>668.5</ele>
        <time>2019-10-27T11:07:19.000Z</time>
      </trkpt>
      <trkpt lat="45.57815" lon="5.73694">
        <ele>669</ele>
        <time>2019-10-27T11:07:20.000Z</time>
      </trkpt>
      <trkpt lat="45.57816" lon="5.73693">
        <ele>669</ele>
        <time>2019-10-27T11:07:21.000Z</time>
      </trkpt>
      <trkpt lat="45.57817" lon="5.73693">
        <ele>669</ele>
        <time>2019-10-27T11:07:22.000Z</time>
      </trkpt>
      <trkpt lat="45.57817" lon="5.73692">
        <ele>669</ele>
        <time>2019-10-27T11:07:23.000Z</time>
      </trkpt>
      <trkpt lat="45.57818" lon="5.73691">
        <ele>669</ele>
        <time>2019-10-27T11:07:24.000Z</time>
      </trkpt>
      <trkpt lat="45.57819" lon="5.7369">
        <ele>669</ele>
        <time>2019-10-27T11:07:25.000Z</time>
      </trkpt>
      <trkpt lat="45.5782" lon="5.7369">
        <ele>669</ele>
        <time>2019-10-27T11:07:26.000Z</time>
      </trkpt>
      <trkpt lat="45.57821" lon="5.7369">
        <ele>669</ele>
        <time>2019-10-27T11:07:27.000Z</time>
      </trkpt>
      <trkpt lat="45.57822" lon="5.73689">
        <ele>669</ele>
        <time>2019-10-27T11:07:28.000Z</time>
      </trkpt>
      <trkpt lat="45.57822" lon="5.73689">
        <ele>669</ele>
        <time>2019-10-27T11:07:29.000Z</time>
      </trkpt>
      <trkpt lat="45.57823" lon="5.73688">
        <ele>670</ele>
        <time>2019-10-27T11:07:30.000Z</time>
      </trkpt>
      <trkpt lat="45.57824" lon="5.73688">
        <ele>670</ele>
        <time>2019-10-27T11:07:31.000Z</time>
      </trkpt>
      <trkpt lat="45.57825" lon="5.73687">
        <ele>670</ele>
        <time>2019-10-27T11:07:32.000Z</time>
      </trkpt>
      <trkpt lat="45.57826" lon="5.73686">
        <ele>670</ele>
        <time>2019-10-27T11:07:33.000Z</time>
      </trkpt>
      <trkpt lat="45.57827" lon="5.73685">
        <ele>670</ele>
        <time>2019-10-27T11:07:34.000Z</time>
      </trkpt>
      <trkpt lat="45.57827" lon="5.73684">
        <ele>670</ele>
        <time>2019-10-27T11:07:35.000Z</time>
      </trkpt>
      <trkpt lat="45.57828" lon="5.73683">
        <ele>670</ele>
        <time>2019-10-27T11:07:36.000Z</time>
      </trkpt>
      <trkpt lat="45.57829" lon="5.73682">
        <ele>670.3</ele>
        <time>2019-10-27T11:07:37.000Z</time>
      </trkpt>
      <trkpt lat="45.57829" lon="5.73682">
        <ele>670.7</ele>
        <time>2019-10-27T11:07:38.000Z</time>
      </trkpt>
      <trkpt lat="45.5783" lon="5.73681">
        <ele>671</ele>
        <time>2019-10-27T11:07:39.000Z</time>
      </trkpt>
      <trkpt lat="45.5783" lon="5.7368">
        <ele>671</ele>
        <time>2019-10-27T11:07:40.000Z</time>
      </trkpt>
      <trkpt lat="45.57831" lon="5.7368">
        <ele>671</ele>
        <time>2019-10-27T11:07:41.000Z</time>
      </trkpt>
      <trkpt lat="45.57831" lon="5.73679">
        <ele>671</ele>
        <time>2019-10-27T11:07:42.000Z</time>
      </trkpt>
      <trkpt lat="45.57832" lon="5.73678">
        <ele>671</ele>
        <time>2019-10-27T11:07:43.000Z</time>
      </trkpt>
      <trkpt lat="45.57832" lon="5.73677">
        <ele>671</ele>
        <time>2019-10-27T11:07:44.000Z</time>
      </trkpt>
      <trkpt lat="45.57833" lon="5.73676">
        <ele>671</ele>
        <time>2019-10-27T11:07:45.000Z</time>
      </trkpt>
      <trkpt lat="45.57834" lon="5.73676">
        <ele>671</ele>
        <time>2019-10-27T11:07:46.000Z</time>
      </trkpt>
      <trkpt lat="45.57835" lon="5.73675">
        <ele>671</ele>
        <time>2019-10-27T11:07:47.000Z</time>
      </trkpt>
      <trkpt lat="45.57835" lon="5.73674">
        <ele>671</ele>
        <time>2019-10-27T11:07:48.000Z</time>
      </trkpt>
      <trkpt lat="45.57835" lon="5.73674">
        <ele>671</ele>
        <time>2019-10-27T11:07:49.000Z</time>
      </trkpt>
      <trkpt lat="45.57835" lon="5.73674">
        <ele>671</ele>
        <time>2019-10-27T11:07:50.000Z</time>
      </trkpt>
      <trkpt lat="45.57835" lon="5.73675">
        <ele>671.3</ele>
        <time>2019-10-27T11:07:51.000Z</time>
      </trkpt>
      <trkpt lat="45.57835" lon="5.73675">
        <ele>671.7</ele>
        <time>2019-10-27T11:07:52.000Z</time>
      </trkpt>
      <trkpt lat="45.57835" lon="5.73677">
        <ele>672</ele>
        <time>2019-10-27T11:07:53.000Z</time>
      </trkpt>
      <trkpt lat="45.57837" lon="5.73688">
        <ele>680</ele>
        <time>2019-10-27T12:10:30.000Z</time>
      </trkpt>
      <trkpt lat="45.57837" lon="5.73691">
        <ele>680</ele>
        <time>2019-10-27T12:10:31.000Z</time>
      </trkpt>
      <trkpt lat="45.57837" lon="5.73691">
        <ele>680</ele>
        <time>2019-10-27T12:10:32.000Z</time>
      </trkpt>
      <trkpt lat="45.57837" lon="5.73691">
        <ele>680</ele>
        <time>2019-10-27T12:10:33.000Z</time>
      </trkpt>
      <trkpt lat="45.57837" lon="5.73691">
        <ele>680</ele>
        <time>2019-10-27T12:10:34.000Z</time>
      </trkpt>
      <trkpt lat="45.57837" lon="5.73691">
        <ele>680</ele>
        <time>2019-10-27T12:10:35.000Z</time>
      </trkpt>
      <trkpt lat="45.57837" lon="5.73691">
        <ele>680</ele>
        <time>2019-10-27T12:10:36.000Z</time>
      </trkpt>
      <trkpt lat="45.57837" lon="5.73691">
        <ele>680</ele>
        <time>2019-10-27T12:10:37.000Z</time>
      </trkpt>
      <trkpt lat="45.57837" lon="5.73691">
        <ele>680</ele>
        <time>2019-10-27T12:10:38.000Z</time>
      </trkpt>
      <trkpt lat="45.57837" lon="5.73691">
        <ele>680</ele>
        <time>2019-10-27T12:10:39.000Z</time>
      </trkpt>
      <trkpt lat="45.57837" lon="5.73691">
        <ele>680</ele>
        <time>2019-10-27T12:10:40.000Z</time>
      </trkpt>
      <trkpt lat="45.57837" lon="5.73691">
        <ele>680</ele>
        <time>2019-10-27T12:10:41.000Z</time>
      </trkpt>
      <trkpt lat="45.57837" lon="5.73691">
        <ele>680</ele>
        <time>2019-10-27T12:10:42.000Z</time>
      </trkpt>
      <trkpt lat="45.57837" lon="5.73691">
        <ele>680</ele>
        <time>2019-10-27T12:10:43.000Z</time>
      </trkpt>
      <trkpt lat="45.57837" lon="5.73691">
        <ele>680</ele>
        <time>2019-10-27T12:10:44.000Z</time>
      </trkpt>
      <trkpt lat="45.57837" lon="5.73691">
        <ele>680</ele>
        <time>2019-10-27T12:10:45.000Z</time>
      </trkpt>
      <trkpt lat="45.57837" lon="5.73691">
        <ele>680</ele>
        <time>2019-10-27T12:10:46.000Z</time>
      </trkpt>
      <trkpt lat="45.57837" lon="5.73691">
        <ele>680</ele>
        <time>2019-10-27T12:10:47.000Z</time>
      </trkpt>
      <trkpt lat="45.57837" lon="5.73691">
        <ele>680</ele>
        <time>2019-10-27T12:10:48.000Z</time>
      </trkpt>
      <trkpt lat="45.57837" lon="5.73691">
        <ele>680</ele>
        <time>2019-10-27T12:10:49.000Z</time>
      </trkpt>
      <trkpt lat="45.57837" lon="5.73691">
        <ele>680</ele>
        <time>2019-10-27T12:10:50.000Z</time>
      </trkpt>
      <trkpt lat="45.57837" lon="5.73691">
        <ele>680</ele>
        <time>2019-10-27T12:10:51.000Z</time>
      </trkpt>
      <trkpt lat="45.57837" lon="5.73691">
        <ele>680</ele>
        <time>2019-10-27T12:10:52.000Z</time>
      </trkpt>
      <trkpt lat="45.57837" lon="5.73691">
        <ele>680</ele>
        <time>2019-10-27T12:10:53.000Z</time>
      </trkpt>
      <trkpt lat="45.57837" lon="5.73691">
        <ele>680</ele>
        <time>2019-10-27T12:10:54.000Z</time>
      </trkpt>
      <trkpt lat="45.57837" lon="5.73691">
        <ele>680</ele>
        <time>2019-10-27T12:10:55.000Z</time>
      </trkpt>
      <trkpt lat="45.57837" lon="5.73691">
        <ele>680</ele>
        <time>2019-10-27T12:10:56.000Z</time>
      </trkpt>
      <trkpt lat="45.57837" lon="5.73691">
        <ele>680</ele>
        <time>2019-10-27T12:10:57.000Z</time>
      </trkpt>
      <trkpt lat="45.57837" lon="5.73691">
        <ele>680</ele>
        <time>2019-10-27T12:10:58.000Z</time>
      </trkpt>
      <trkpt lat="45.57837" lon="5.73691">
        <ele>680</ele>
        <time>2019-10-27T12:10:59.000Z</time>
      </trkpt>
      <trkpt lat="45.57837" lon="5.73691">
        <ele>680</ele>
        <time>2019-10-27T12:11:00.000Z</time>
      </trkpt>
      <trkpt lat="45.57837" lon="5.73691">
        <ele>680</ele>
        <time>2019-10-27T12:11:01.000Z</time>
      </trkpt>
      <trkpt lat="45.57837" lon="5.73691">
        <ele>680</ele>
        <time>2019-10-27T12:11:02.000Z</time>
      </trkpt>
      <trkpt lat="45.57837" lon="5.73691">
        <ele>680</ele>
        <time>2019-10-27T12:11:03.000Z</time>
      </trkpt>
      <trkpt lat="45.57837" lon="5.73691">
        <ele>680</ele>
        <time>2019-10-27T12:11:04.000Z</time>
      </trkpt>
      <trkpt lat="45.57837" lon="5.73691">
        <ele>680</ele>
        <time>2019-10-27T12:11:05.000Z</time>
      </trkpt>
      <trkpt lat="45.57837" lon="5.73691">
        <ele>680</ele>
        <time>2019-10-27T12:11:06.000Z</time>
      </trkpt>
      <trkpt lat="45.57837" lon="5.73691">
        <ele>680</ele>
        <time>2019-10-27T12:11:07.000Z</time>
      </trkpt>
      <trkpt lat="45.57837" lon="5.73691">
        <ele>680</ele>
        <time>2019-10-27T12:11:08.000Z</time>
      </trkpt>
      <trkpt lat="45.57837" lon="5.73691">
        <ele>680</ele>
        <time>2019-10-27T12:11:09.000Z</time>
      </trkpt>
      <trkpt lat="45.57837" lon="5.73691">
        <ele>680</ele>
        <time>2019-10-27T12:11:10.000Z</time>
      </trkpt>
      <trkpt lat="45.57837" lon="5.73691">
        <ele>680</ele>
        <time>2019-10-27T12:11:11.000Z</time>
      </trkpt>
      <trkpt lat="45.57837" lon="5.73691">
        <ele>680</ele>
        <time>2019-10-27T12:11:12.000Z</time>
      </trkpt>
      <trkpt lat="45.57837" lon="5.73691">
        <ele>680</ele>
        <time>2019-10-27T12:11:13.000Z</time>
      </trkpt>
      <trkpt lat="45.57837" lon="5.73691">
        <ele>680</ele>
        <time>2019-10-27T12:11:14.000Z</time>
      </trkpt>
      <trkpt lat="45.57837" lon="5.73691">
        <ele>680</ele>
        <time>2019-10-27T12:11:15.000Z</time>
      </trkpt>
      <trkpt lat="45.57837" lon="5.73691">
        <ele>680</ele>
        <time>2019-10-27T12:11:16.000Z</time>
      </trkpt>
      <trkpt lat="45.57837" lon="5.73691">
        <ele>680</ele>
        <time>2019-10-27T12:11:17.000Z</time>
      </trkpt>
      <trkpt lat="45.57837" lon="5.73691">
        <ele>680</ele>
        <time>2019-10-27T12:11:18.000Z</time>
      </trkpt>
      <trkpt lat="45.57837" lon="5.73691">
        <ele>680</ele>
        <time>2019-10-27T12:11:19.000Z</time>
      </trkpt>
      <trkpt lat="45.57837" lon="5.73691">
        <ele>680</ele>
        <time>2019-10-27T12:11:20.000Z</time>
      </trkpt>
      <trkpt lat="45.57837" lon="5.73691">
        <ele>680</ele>
        <time>2019-10-27T12:11:21.000Z</time>
      </trkpt>
      <trkpt lat="45.57837" lon="5.73691">
        <ele>680</ele>
        <time>2019-10-27T12:11:22.000Z</time>
      </trkpt>
      <trkpt lat="45.57837" lon="5.73691">
        <ele>680</ele>
        <time>2019-10-27T12:11:23.000Z</time>
      </trkpt>
      <trkpt lat="45.57837" lon="5.73691">
        <ele>680</ele>
        <time>2019-10-27T12:11:24.000Z</time>
      </trkpt>
      <trkpt lat="45.57837" lon="5.73691">
        <ele>680</ele>
        <time>2019-10-27T12:11:25.000Z</time>
      </trkpt>
      <trkpt lat="45.57837" lon="5.73691">
        <ele>680</ele>
        <time>2019-10-27T12:11:26.000Z</time>
      </trkpt>
      <trkpt lat="45.57837" lon="5.73691">
        <ele>680</ele>
        <time>2019-10-27T12:11:27.000Z</time>
      </trkpt>
      <trkpt lat="45.57837" lon="5.73691">
        <ele>680</ele>
        <time>2019-10-27T12:11:28.000Z</time>
      </trkpt>
      <trkpt lat="45.57837" lon="5.73691">
        <ele>680</ele>
        <time>2019-10-27T12:11:29.000Z</time>
      </trkpt>
      <trkpt lat="45.57837" lon="5.73691">
        <ele>680</ele>
        <time>2019-10-27T12:11:30.000Z</time>
      </trkpt>
      <trkpt lat="45.57837" lon="5.73691">
        <ele>680</ele>
        <time>2019-10-27T12:11:31.000Z</time>
      </trkpt>
      <trkpt lat="45.57837" lon="5.73691">
        <ele>680</ele>
        <time>2019-10-27T12:11:32.000Z</time>
      </trkpt>
      <trkpt lat="45.57837" lon="5.73691">
        <ele>680</ele>
        <time>2019-10-27T12:11:33.000Z</time>
      </trkpt>
      <trkpt lat="45.57837" lon="5.73691">
        <ele>680</ele>
        <time>2019-10-27T12:11:34.000Z</time>
      </trkpt>
      <trkpt lat="45.57837" lon="5.73691">
        <ele>680</ele>
        <time>2019-10-27T12:11:35.000Z</time>
      </trkpt>
      <trkpt lat="45.57837" lon="5.73691">
        <ele>680</ele>
        <time>2019-10-27T12:11:36.000Z</time>
      </trkpt>
      <trkpt lat="45.57837" lon="5.73691">
        <ele>680</ele>
        <time>2019-10-27T12:11:37.000Z</time>
      </trkpt>
      <trkpt lat="45.57837" lon="5.73691">
        <ele>680</ele>
        <time>2019-10-27T12:11:38.000Z</time>
      </trkpt>
      <trkpt lat="45.57837" lon="5.73691">
        <ele>680</ele>
        <time>2019-10-27T12:11:39.000Z</time>
      </trkpt>
      <trkpt lat="45.57837" lon="5.73691">
        <ele>680</ele>
        <time>2019-10-27T12:11:40.000Z</time>
      </trkpt>
      <trkpt lat="45.57837" lon="5.73691">
        <ele>680</ele>
        <time>2019-10-27T12:11:41.000Z</time>
      </trkpt>
      <trkpt lat="45.57837" lon="5.73691">
        <ele>680</ele>
        <time>2019-10-27T12:11:42.000Z</time>
      </trkpt>
      <trkpt lat="45.57837" lon="5.73691">
        <ele>680</ele>
        <time>2019-10-27T12:11:43.000Z</time>
      </trkpt>
      <trkpt lat="45.57837" lon="5.73691">
        <ele>680</ele>
        <time>2019-10-27T12:11:44.000Z</time>
      </trkpt>
      <trkpt lat="45.57837" lon="5.73691">
        <ele>680</ele>
        <time>2019-10-27T12:11:45.000Z</time>
      </trkpt>
      <trkpt lat="45.57837" lon="5.73691">
        <ele>680</ele>
        <time>2019-10-27T12:11:46.000Z</time>
      </trkpt>
      <trkpt lat="45.57837" lon="5.73691">
        <ele>680</ele>
        <time>2019-10-27T12:11:47.000Z</time>
      </trkpt>
      <trkpt lat="45.57837" lon="5.73691">
        <ele>680</ele>
        <time>2019-10-27T12:11:48.000Z</time>
      </trkpt>
      <trkpt lat="45.57837" lon="5.73691">
        <ele>680</ele>
        <time>2019-10-27T12:11:49.000Z</time>
      </trkpt>
      <trkpt lat="45.57837" lon="5.73691">
        <ele>680</ele>
        <time>2019-10-27T12:11:50.000Z</time>
      </trkpt>
      <trkpt lat="45.57837" lon="5.73691">
        <ele>680</ele>
        <time>2019-10-27T12:11:51.000Z</time>
      </trkpt>
      <trkpt lat="45.57837" lon="5.73691">
        <ele>680</ele>
        <time>2019-10-27T12:11:52.000Z</time>
      </trkpt>
      <trkpt lat="45.57837" lon="5.73691">
        <ele>680</ele>
        <time>2019-10-27T12:11:53.000Z</time>
      </trkpt>
      <trkpt lat="45.57837" lon="5.73691">
        <ele>680</ele>
        <time>2019-10-27T12:11:54.000Z</time>
      </trkpt>
      <trkpt lat="45.57837" lon="5.73691">
        <ele>680</ele>
        <time>2019-10-27T12:11:55.000Z</time>
      </trkpt>
      <trkpt lat="45.57837" lon="5.73691">
        <ele>680</ele>
        <time>2019-10-27T12:11:56.000Z</time>
      </trkpt>
      <trkpt lat="45.57837" lon="5.73691">
        <ele>680</ele>
        <time>2019-10-27T12:11:57.000Z</time>
      </trkpt>
      <trkpt lat="45.57837" lon="5.73691">
        <ele>680</ele>
        <time>2019-10-27T12:11:58.000Z</time>
      </trkpt>
      <trkpt lat="45.57837" lon="5.73691">
        <ele>680</ele>
        <time>2019-10-27T12:11:59.000Z</time>
      </trkpt>
      <trkpt lat="45.57837" lon="5.73691">
        <ele>680</ele>
        <time>2019-10-27T12:12:00.000Z</time>
      </trkpt>
      <trkpt lat="45.57836" lon="5.73692">
        <ele>680</ele>
        <time>2019-10-27T12:12:01.000Z</time>
      </trkpt>
      <trkpt lat="45.57836" lon="5.73693">
        <ele>680</ele>
        <time>2019-10-27T12:12:02.000Z</time>
      </trkpt>
      <trkpt lat="45.57835" lon="5.73693">
        <ele>680</ele>
        <time>2019-10-27T12:12:03.000Z</time>
      </trkpt>
      <trkpt lat="45.57835" lon="5.73693">
        <ele>680</ele>
        <time>2019-10-27T12:12:04.000Z</time>
      </trkpt>
      <trkpt lat="45.57835" lon="5.73693">
        <ele>680</ele>
        <time>2019-10-27T12:12:05.000Z</time>
      </trkpt>
      <trkpt lat="45.57835" lon="5.73693">
        <ele>680</ele>
        <time>2019-10-27T12:12:06.000Z</time>
      </trkpt>
      <trkpt lat="45.57835" lon="5.73693">
        <ele>680</ele>
        <time>2019-10-27T12:12:07.000Z</time>
      </trkpt>
      <trkpt lat="45.57835" lon="5.73693">
        <ele>680</ele>
        <time>2019-10-27T12:12:08.000Z</time>
      </trkpt>
      <trkpt lat="45.57835" lon="5.73693">
        <ele>680</ele>
        <time>2019-10-27T12:12:09.000Z</time>
      </trkpt>
      <trkpt lat="45.57835" lon="5.73693">
        <ele>680</ele>
        <time>2019-10-27T12:12:10.000Z</time>
      </trkpt>
      <trkpt lat="45.57835" lon="5.73693">
        <ele>680</ele>
        <time>2019-10-27T12:12:11.000Z</time>
      </trkpt>
      <trkpt lat="45.57835" lon="5.73693">
        <ele>680</ele>
        <time>2019-10-27T12:12:12.000Z</time>
      </trkpt>
      <trkpt lat="45.57835" lon="5.73693">
        <ele>680</ele>
        <time>2019-10-27T12:12:13.000Z</time>
      </trkpt>
      <trkpt lat="45.57835" lon="5.73693">
        <ele>680</ele>
        <time>2019-10-27T12:12:14.000Z</time>
      </trkpt>
      <trkpt lat="45.57835" lon="5.73693">
        <ele>680</ele>
        <time>2019-10-27T12:12:15.000Z</time>
      </trkpt>
      <trkpt lat="45.57835" lon="5.73693">
        <ele>680</ele>
        <time>2019-10-27T12:12:16.000Z</time>
      </trkpt>
      <trkpt lat="45.57835" lon="5.73693">
        <ele>680</ele>
        <time>2019-10-27T12:12:17.000Z</time>
      </trkpt>
      <trkpt lat="45.57835" lon="5.73693">
        <ele>680</ele>
        <time>2019-10-27T12:12:18.000Z</time>
      </trkpt>
      <trkpt lat="45.57835" lon="5.73693">
        <ele>680</ele>
        <time>2019-10-27T12:12:19.000Z</time>
      </trkpt>
      <trkpt lat="45.57835" lon="5.73693">
        <ele>680</ele>
        <time>2019-10-27T12:12:20.000Z</time>
      </trkpt>
      <trkpt lat="45.57835" lon="5.73693">
        <ele>680</ele>
        <time>2019-10-27T12:12:21.000Z</time>
      </trkpt>
      <trkpt lat="45.57835" lon="5.73693">
        <ele>680</ele>
        <time>2019-10-27T12:12:22.000Z</time>
      </trkpt>
      <trkpt lat="45.57835" lon="5.73693">
        <ele>680</ele>
        <time>2019-10-27T12:12:23.000Z</time>
      </trkpt>
      <trkpt lat="45.57835" lon="5.73693">
        <ele>680</ele>
        <time>2019-10-27T12:12:24.000Z</time>
      </trkpt>
      <trkpt lat="45.57835" lon="5.73693">
        <ele>680</ele>
        <time>2019-10-27T12:12:25.000Z</time>
      </trkpt>
      <trkpt lat="45.57835" lon="5.73693">
        <ele>680</ele>
        <time>2019-10-27T12:12:26.000Z</time>
      </trkpt>
      <trkpt lat="45.57835" lon="5.73693">
        <ele>680</ele>
        <time>2019-10-27T12:12:27.000Z</time>
      </trkpt>
      <trkpt lat="45.57835" lon="5.73693">
        <ele>680</ele>
        <time>2019-10-27T12:12:28.000Z</time>
      </trkpt>
      <trkpt lat="45.57835" lon="5.73693">
        <ele>680</ele>
        <time>2019-10-27T12:12:29.000Z</time>
      </trkpt>
      <trkpt lat="45.57835" lon="5.73693">
        <ele>680</ele>
        <time>2019-10-27T12:12:30.000Z</time>
      </trkpt>
      <trkpt lat="45.57835" lon="5.73693">
        <ele>680</ele>
        <time>2019-10-27T12:12:31.000Z</time>
      </trkpt>
      <trkpt lat="45.57835" lon="5.73693">
        <ele>680</ele>
        <time>2019-10-27T12:12:32.000Z</time>
      </trkpt>
      <trkpt lat="45.57835" lon="5.73693">
        <ele>680</ele>
        <time>2019-10-27T12:12:33.000Z</time>
      </trkpt>
      <trkpt lat="45.57835" lon="5.73693">
        <ele>680</ele>
        <time>2019-10-27T12:12:34.000Z</time>
      </trkpt>
      <trkpt lat="45.57835" lon="5.73693">
        <ele>680</ele>
        <time>2019-10-27T12:12:35.000Z</time>
      </trkpt>
      <trkpt lat="45.57835" lon="5.73693">
        <ele>680</ele>
        <time>2019-10-27T12:12:36.000Z</time>
      </trkpt>
      <trkpt lat="45.57835" lon="5.73693">
        <ele>680</ele>
        <time>2019-10-27T12:12:37.000Z</time>
      </trkpt>
      <trkpt lat="45.57835" lon="5.73693">
        <ele>680</ele>
        <time>2019-10-27T12:12:38.000Z</time>
      </trkpt>
      <trkpt lat="45.57835" lon="5.73693">
        <ele>680</ele>
        <time>2019-10-27T12:12:39.000Z</time>
      </trkpt>
      <trkpt lat="45.57835" lon="5.73693">
        <ele>680</ele>
        <time>2019-10-27T12:12:40.000Z</time>
      </trkpt>
      <trkpt lat="45.57835" lon="5.73693">
        <ele>680</ele>
        <time>2019-10-27T12:12:41.000Z</time>
      </trkpt>
      <trkpt lat="45.57835" lon="5.73693">
        <ele>680</ele>
        <time>2019-10-27T12:12:42.000Z</time>
      </trkpt>
      <trkpt lat="45.57835" lon="5.73693">
        <ele>680</ele>
        <time>2019-10-27T12:12:43.000Z</time>
      </trkpt>
      <trkpt lat="45.57835" lon="5.73693">
        <ele>680</ele>
        <time>2019-10-27T12:12:44.000Z</time>
      </trkpt>
      <trkpt lat="45.57835" lon="5.73693">
        <ele>680</ele>
        <time>2019-10-27T12:12:45.000Z</time>
      </trkpt>
      <trkpt lat="45.57835" lon="5.73693">
        <ele>680</ele>
        <time>2019-10-27T12:12:46.000Z</time>
      </trkpt>
      <trkpt lat="45.57835" lon="5.73693">
        <ele>680</ele>
        <time>2019-10-27T12:12:47.000Z</time>
      </trkpt>
      <trkpt lat="45.57835" lon="5.73693">
        <ele>680</ele>
        <time>2019-10-27T12:12:48.000Z</time>
      </trkpt>
      <trkpt lat="45.57835" lon="5.73693">
        <ele>680</ele>
        <time>2019-10-27T12:12:49.000Z</time>
      </trkpt>
      <trkpt lat="45.57835" lon="5.73693">
        <ele>680</ele>
        <time>2019-10-27T12:12:50.000Z</time>
      </trkpt>
      <trkpt lat="45.57835" lon="5.73693">
        <ele>680</ele>
        <time>2019-10-27T12:12:51.000Z</time>
      </trkpt>
      <trkpt lat="45.57835" lon="5.73693">
        <ele>680</ele>
        <time>2019-10-27T12:12:52.000Z</time>
      </trkpt>
      <trkpt lat="45.57835" lon="5.73693">
        <ele>680</ele>
        <time>2019-10-27T12:12:53.000Z</time>
      </trkpt>
      <trkpt lat="45.57835" lon="5.73693">
        <ele>680</ele>
        <time>2019-10-27T12:12:54.000Z</time>
      </trkpt>
      <trkpt lat="45.57835" lon="5.73693">
        <ele>680</ele>
        <time>2019-10-27T12:12:55.000Z</time>
      </trkpt>
      <trkpt lat="45.57835" lon="5.73693">
        <ele>680</ele>
        <time>2019-10-27T12:12:56.000Z</time>
      </trkpt>
      <trkpt lat="45.57835" lon="5.73693">
        <ele>680</ele>
        <time>2019-10-27T12:12:57.000Z</time>
      </trkpt>
      <trkpt lat="45.57835" lon="5.73693">
        <ele>680</ele>
        <time>2019-10-27T12:12:58.000Z</time>
      </trkpt>
      <trkpt lat="45.57835" lon="5.73693">
        <ele>680</ele>
        <time>2019-10-27T12:12:59.000Z</time>
      </trkpt>
      <trkpt lat="45.57835" lon="5.73693">
        <ele>680</ele>
        <time>2019-10-27T12:13:00.000Z</time>
      </trkpt>
      <trkpt lat="45.57835" lon="5.73693">
        <ele>680</ele>
        <time>2019-10-27T12:13:01.000Z</time>
      </trkpt>
      <trkpt lat="45.57835" lon="5.73693">
        <ele>680</ele>
        <time>2019-10-27T12:13:02.000Z</time>
      </trkpt>
      <trkpt lat="45.57835" lon="5.73693">
        <ele>680</ele>
        <time>2019-10-27T12:13:03.000Z</time>
      </trkpt>
      <trkpt lat="45.57835" lon="5.73693">
        <ele>680</ele>
        <time>2019-10-27T12:13:04.000Z</time>
      </trkpt>
      <trkpt lat="45.57835" lon="5.73693">
        <ele>680</ele>
        <time>2019-10-27T12:13:05.000Z</time>
      </trkpt>
      <trkpt lat="45.57835" lon="5.73693">
        <ele>680</ele>
        <time>2019-10-27T12:13:06.000Z</time>
      </trkpt>
      <trkpt lat="45.57835" lon="5.73693">
        <ele>680</ele>
        <time>2019-10-27T12:13:07.000Z</time>
      </trkpt>
      <trkpt lat="45.57835" lon="5.73693">
        <ele>680</ele>
        <time>2019-10-27T12:13:08.000Z</time>
      </trkpt>
      <trkpt lat="45.57835" lon="5.73693">
        <ele>680</ele>
        <time>2019-10-27T12:13:09.000Z</time>
      </trkpt>
      <trkpt lat="45.57836" lon="5.73693">
        <ele>680</ele>
        <time>2019-10-27T12:13:10.000Z</time>
      </trkpt>
      <trkpt lat="45.57837" lon="5.73693">
        <ele>680</ele>
        <time>2019-10-27T12:13:11.000Z</time>
      </trkpt>
      <trkpt lat="45.57838" lon="5.73693">
        <ele>680</ele>
        <time>2019-10-27T12:13:12.000Z</time>
      </trkpt>
      <trkpt lat="45.57838" lon="5.73693">
        <ele>680</ele>
        <time>2019-10-27T12:13:13.000Z</time>
      </trkpt>
      <trkpt lat="45.57839" lon="5.73693">
        <ele>680</ele>
        <time>2019-10-27T12:13:14.000Z</time>
      </trkpt>
      <trkpt lat="45.5784" lon="5.73694">
        <ele>680</ele>
        <time>2019-10-27T12:13:15.000Z</time>
      </trkpt>
      <trkpt lat="45.5784" lon="5.73694">
        <ele>680</ele>
        <time>2019-10-27T12:13:16.000Z</time>
      </trkpt>
      <trkpt lat="45.57842" lon="5.73695">
        <ele>680</ele>
        <time>2019-10-27T12:13:17.000Z</time>
      </trkpt>
      <trkpt lat="45.57843" lon="5.73695">
        <ele>680</ele>
        <time>2019-10-27T12:13:18.000Z</time>
      </trkpt>
      <trkpt lat="45.57844" lon="5.73695">
        <ele>680</ele>
        <time>2019-10-27T12:13:19.000Z</time>
      </trkpt>
      <trkpt lat="45.57845" lon="5.73695">
        <ele>680</ele>
        <time>2019-10-27T12:13:20.000Z</time>
      </trkpt>
      <trkpt lat="45.57846" lon="5.73694">
        <ele>680</ele>
        <time>2019-10-27T12:13:21.000Z</time>
      </trkpt>
      <trkpt lat="45.57847" lon="5.73694">
        <ele>680</ele>
        <time>2019-10-27T12:13:22.000Z</time>
      </trkpt>
      <trkpt lat="45.57848" lon="5.73694">
        <ele>679.5</ele>
        <time>2019-10-27T12:13:23.000Z</time>
      </trkpt>
      <trkpt lat="45.57849" lon="5.73694">
        <ele>679</ele>
        <time>2019-10-27T12:13:24.000Z</time>
      </trkpt>
      <trkpt lat="45.5785" lon="5.73694">
        <ele>679</ele>
        <time>2019-10-27T12:13:25.000Z</time>
      </trkpt>
      <trkpt lat="45.57851" lon="5.73694">
        <ele>679</ele>
        <time>2019-10-27T12:13:26.000Z</time>
      </trkpt>
      <trkpt lat="45.57852" lon="5.73694">
        <ele>679</ele>
        <time>2019-10-27T12:13:27.000Z</time>
      </trkpt>
      <trkpt lat="45.57854" lon="5.73694">
        <ele>679</ele>
        <time>2019-10-27T12:13:28.000Z</time>
      </trkpt>
      <trkpt lat="45.57856" lon="5.73694">
        <ele>679</ele>
        <time>2019-10-27T12:13:29.000Z</time>
      </trkpt>
      <trkpt lat="45.57857" lon="5.73694">
        <ele>679</ele>
        <time>2019-10-27T12:13:30.000Z</time>
      </trkpt>
      <trkpt lat="45.57859" lon="5.73694">
        <ele>679</ele>
        <time>2019-10-27T12:13:31.000Z</time>
      </trkpt>
      <trkpt lat="45.5786" lon="5.73695">
        <ele>679</ele>
        <time>2019-10-27T12:13:32.000Z</time>
      </trkpt>
      <trkpt lat="45.57861" lon="5.73695">
        <ele>679</ele>
        <time>2019-10-27T12:13:33.000Z</time>
      </trkpt>
      <trkpt lat="45.57862" lon="5.73695">
        <ele>679</ele>
        <time>2019-10-27T12:13:34.000Z</time>
      </trkpt>
      <trkpt lat="45.57863" lon="5.73695">
        <ele>678.7</ele>
        <time>2019-10-27T12:13:35.000Z</time>
      </trkpt>
      <trkpt lat="45.57864" lon="5.73695">
        <ele>678.3</ele>
        <time>2019-10-27T12:13:36.000Z</time>
      </trkpt>
      <trkpt lat="45.57865" lon="5.73696">
        <ele>678</ele>
        <time>2019-10-27T12:13:37.000Z</time>
      </trkpt>
      <trkpt lat="45.57866" lon="5.73696">
        <ele>678</ele>
        <time>2019-10-27T12:13:38.000Z</time>
      </trkpt>
      <trkpt lat="45.57867" lon="5.73696">
        <ele>678</ele>
        <time>2019-10-27T12:13:39.000Z</time>
      </trkpt>
      <trkpt lat="45.57868" lon="5.73696">
        <ele>678</ele>
        <time>2019-10-27T12:13:40.000Z</time>
      </trkpt>
      <trkpt lat="45.57869" lon="5.73696">
        <ele>678</ele>
        <time>2019-10-27T12:13:41.000Z</time>
      </trkpt>
      <trkpt lat="45.57869" lon="5.73696">
        <ele>678</ele>
        <time>2019-10-27T12:13:42.000Z</time>
      </trkpt>
      <trkpt lat="45.5787" lon="5.73697">
        <ele>678</ele>
        <time>2019-10-27T12:13:43.000Z</time>
      </trkpt>
      <trkpt lat="45.5787" lon="5.73697">
        <ele>678</ele>
        <time>2019-10-27T12:13:44.000Z</time>
      </trkpt>
      <trkpt lat="45.5787" lon="5.73697">
        <ele>678</ele>
        <time>2019-10-27T12:13:45.000Z</time>
      </trkpt>
      <trkpt lat="45.5787" lon="5.73697">
        <ele>678</ele>
        <time>2019-10-27T12:13:46.000Z</time>
      </trkpt>
      <trkpt lat="45.5787" lon="5.73697">
        <ele>678</ele>
        <time>2019-10-27T12:13:47.000Z</time>
      </trkpt>
      <trkpt lat="45.5787" lon="5.73697">
        <ele>677.5</ele>
        <time>2019-10-27T12:13:48.000Z</time>
      </trkpt>
      <trkpt lat="45.5787" lon="5.73697">
        <ele>677</ele>
        <time>2019-10-27T12:13:49.000Z</time>
      </trkpt>
      <trkpt lat="45.5787" lon="5.73697">
        <ele>677</ele>
        <time>2019-10-27T12:13:50.000Z</time>
      </trkpt>
      <trkpt lat="45.5787" lon="5.73697">
        <ele>677</ele>
        <time>2019-10-27T12:13:51.000Z</time>
      </trkpt>
      <trkpt lat="45.5787" lon="5.73697">
        <ele>677</ele>
        <time>2019-10-27T12:13:52.000Z</time>
      </trkpt>
      <trkpt lat="45.57871" lon="5.73697">
        <ele>677</ele>
        <time>2019-10-27T12:13:53.000Z</time>
      </trkpt>
      <trkpt lat="45.57871" lon="5.73697">
        <ele>677</ele>
        <time>2019-10-27T12:13:54.000Z</time>
      </trkpt>
      <trkpt lat="45.57871" lon="5.73697">
        <ele>677</ele>
        <time>2019-10-27T12:13:55.000Z</time>
      </trkpt>
      <trkpt lat="45.57871" lon="5.73697">
        <ele>678</ele>
        <time>2019-10-27T12:13:56.000Z</time>
      </trkpt>
      <trkpt lat="45.57872" lon="5.73697">
        <ele>677.7</ele>
        <time>2019-10-27T12:13:57.000Z</time>
      </trkpt>
      <trkpt lat="45.57873" lon="5.73697">
        <ele>677.3</ele>
        <time>2019-10-27T12:13:58.000Z</time>
      </trkpt>
      <trkpt lat="45.57873" lon="5.73698">
        <ele>677</ele>
        <time>2019-10-27T12:13:59.000Z</time>
      </trkpt>
      <trkpt lat="45.57874" lon="5.73698">
        <ele>677</ele>
        <time>2019-10-27T12:14:00.000Z</time>
      </trkpt>
      <trkpt lat="45.57875" lon="5.73699">
        <ele>677</ele>
        <time>2019-10-27T12:14:01.000Z</time>
      </trkpt>
      <trkpt lat="45.57876" lon="5.737">
        <ele>676</ele>
        <time>2019-10-27T12:14:02.000Z</time>
      </trkpt>
      <trkpt lat="45.57877" lon="5.73701">
        <ele>676</ele>
        <time>2019-10-27T12:14:03.000Z</time>
      </trkpt>
      <trkpt lat="45.57878" lon="5.73701">
        <ele>676</ele>
        <time>2019-10-27T12:14:04.000Z</time>
      </trkpt>
      <trkpt lat="45.5788" lon="5.73702">
        <ele>676</ele>
        <time>2019-10-27T12:14:05.000Z</time>
      </trkpt>
      <trkpt lat="45.57881" lon="5.73703">
        <ele>675.5</ele>
        <time>2019-10-27T12:14:06.000Z</time>
      </trkpt>
      <trkpt lat="45.57882" lon="5.73703">
        <ele>675</ele>
        <time>2019-10-27T12:14:07.000Z</time>
      </trkpt>
      <trkpt lat="45.57883" lon="5.73703">
        <ele>675</ele>
        <time>2019-10-27T12:14:08.000Z</time>
      </trkpt>
      <trkpt lat="45.57884" lon="5.73704">
        <ele>674.7</ele>
        <time>2019-10-27T12:14:09.000Z</time>
      </trkpt>
      <trkpt lat="45.57885" lon="5.73704">
        <ele>674.3</ele>
        <time>2019-10-27T12:14:10.000Z</time>
      </trkpt>
      <trkpt lat="45.57886" lon="5.73704">
        <ele>674</ele>
        <time>2019-10-27T12:14:11.000Z</time>
      </trkpt>
      <trkpt lat="45.57887" lon="5.73704">
        <ele>674</ele>
        <time>2019-10-27T12:14:12.000Z</time>
      </trkpt>
      <trkpt lat="45.57888" lon="5.73704">
        <ele>674</ele>
        <time>2019-10-27T12:14:13.000Z</time>
      </trkpt>
      <trkpt lat="45.57888" lon="5.73703">
        <ele>674</ele>
        <time>2019-10-27T12:14:14.000Z</time>
      </trkpt>
      <trkpt lat="45.57889" lon="5.73702">
        <ele>674</ele>
        <time>2019-10-27T12:14:15.000Z</time>
      </trkpt>
      <trkpt lat="45.57889" lon="5.73701">
        <ele>674</ele>
        <time>2019-10-27T12:14:16.000Z</time>
      </trkpt>
      <trkpt lat="45.5789" lon="5.737">
        <ele>674</ele>
        <time>2019-10-27T12:14:17.000Z</time>
      </trkpt>
      <trkpt lat="45.5789" lon="5.73699">
        <ele>674</ele>
        <time>2019-10-27T12:14:18.000Z</time>
      </trkpt>
      <trkpt lat="45.5789" lon="5.73698">
        <ele>673.7</ele>
        <time>2019-10-27T12:14:19.000Z</time>
      </trkpt>
      <trkpt lat="45.5789" lon="5.73696">
        <ele>673.3</ele>
        <time>2019-10-27T12:14:20.000Z</time>
      </trkpt>
      <trkpt lat="45.5789" lon="5.73695">
        <ele>673</ele>
        <time>2019-10-27T12:14:21.000Z</time>
      </trkpt>
      <trkpt lat="45.5789" lon="5.73693">
        <ele>673</ele>
        <time>2019-10-27T12:14:22.000Z</time>
      </trkpt>
      <trkpt lat="45.5789" lon="5.73692">
        <ele>673</ele>
        <time>2019-10-27T12:14:23.000Z</time>
      </trkpt>
      <trkpt lat="45.5789" lon="5.73691">
        <ele>673</ele>
        <time>2019-10-27T12:14:24.000Z</time>
      </trkpt>
      <trkpt lat="45.5789" lon="5.73689">
        <ele>673</ele>
        <time>2019-10-27T12:14:25.000Z</time>
      </trkpt>
      <trkpt lat="45.5789" lon="5.73688">
        <ele>673</ele>
        <time>2019-10-27T12:14:26.000Z</time>
      </trkpt>
      <trkpt lat="45.5789" lon="5.73687">
        <ele>673</ele>
        <time>2019-10-27T12:14:27.000Z</time>
      </trkpt>
      <trkpt lat="45.5789" lon="5.73686">
        <ele>673</ele>
        <time>2019-10-27T12:14:28.000Z</time>
      </trkpt>
      <trkpt lat="45.5789" lon="5.73684">
        <ele>673</ele>
        <time>2019-10-27T12:14:29.000Z</time>
      </trkpt>
      <trkpt lat="45.5789" lon="5.73683">
        <ele>673</ele>
        <time>2019-10-27T12:14:30.000Z</time>
      </trkpt>
      <trkpt lat="45.5789" lon="5.73682">
        <ele>673</ele>
        <time>2019-10-27T12:14:31.000Z</time>
      </trkpt>
      <trkpt lat="45.57891" lon="5.73681">
        <ele>673</ele>
        <time>2019-10-27T12:14:32.000Z</time>
      </trkpt>
      <trkpt lat="45.57891" lon="5.7368">
        <ele>673</ele>
        <time>2019-10-27T12:14:33.000Z</time>
      </trkpt>
      <trkpt lat="45.57891" lon="5.73679">
        <ele>673</ele>
        <time>2019-10-27T12:14:34.000Z</time>
      </trkpt>
      <trkpt lat="45.57892" lon="5.73677">
        <ele>673</ele>
        <time>2019-10-27T12:14:35.000Z</time>
      </trkpt>
      <trkpt lat="45.57892" lon="5.73676">
        <ele>673</ele>
        <time>2019-10-27T12:14:36.000Z</time>
      </trkpt>
      <trkpt lat="45.57893" lon="5.73675">
        <ele>673</ele>
        <time>2019-10-27T12:14:37.000Z</time>
      </trkpt>
      <trkpt lat="45.57893" lon="5.73673">
        <ele>673</ele>
        <time>2019-10-27T12:14:38.000Z</time>
      </trkpt>
      <trkpt lat="45.57893" lon="5.73672">
        <ele>673</ele>
        <time>2019-10-27T12:14:39.000Z</time>
      </trkpt>
      <trkpt lat="45.57894" lon="5.73671">
        <ele>673</ele>
        <time>2019-10-27T12:14:40.000Z</time>
      </trkpt>
      <trkpt lat="45.57894" lon="5.73669">
        <ele>673</ele>
        <time>2019-10-27T12:14:41.000Z</time>
      </trkpt>
      <trkpt lat="45.57895" lon="5.73668">
        <ele>673</ele>
        <time>2019-10-27T12:14:42.000Z</time>
      </trkpt>
      <trkpt lat="45.57895" lon="5.73666">
        <ele>673</ele>
        <time>2019-10-27T12:14:43.000Z</time>
      </trkpt>
      <trkpt lat="45.57895" lon="5.73664">
        <ele>673</ele>
        <time>2019-10-27T12:14:44.000Z</time>
      </trkpt>
      <trkpt lat="45.57895" lon="5.73662">
        <ele>673</ele>
        <time>2019-10-27T12:14:45.000Z</time>
      </trkpt>
      <trkpt lat="45.57895" lon="5.7366">
        <ele>673</ele>
        <time>2019-10-27T12:14:46.000Z</time>
      </trkpt>
      <trkpt lat="45.57894" lon="5.73658">
        <ele>673</ele>
        <time>2019-10-27T12:14:47.000Z</time>
      </trkpt>
      <trkpt lat="45.57894" lon="5.73656">
        <ele>673</ele>
        <time>2019-10-27T12:14:48.000Z</time>
      </trkpt>
      <trkpt lat="45.57894" lon="5.73655">
        <ele>673</ele>
        <time>2019-10-27T12:14:49.000Z</time>
      </trkpt>
      <trkpt lat="45.57894" lon="5.73653">
        <ele>673</ele>
        <time>2019-10-27T12:14:50.000Z</time>
      </trkpt>
      <trkpt lat="45.57894" lon="5.73652">
        <ele>673</ele>
        <time>2019-10-27T12:14:51.000Z</time>
      </trkpt>
      <trkpt lat="45.57894" lon="5.7365">
        <ele>673</ele>
        <time>2019-10-27T12:14:52.000Z</time>
      </trkpt>
      <trkpt lat="45.57895" lon="5.73649">
        <ele>673</ele>
        <time>2019-10-27T12:14:53.000Z</time>
      </trkpt>
      <trkpt lat="45.57895" lon="5.73647">
        <ele>673</ele>
        <time>2019-10-27T12:14:54.000Z</time>
      </trkpt>
      <trkpt lat="45.57895" lon="5.73646">
        <ele>673</ele>
        <time>2019-10-27T12:14:55.000Z</time>
      </trkpt>
      <trkpt lat="45.57896" lon="5.73644">
        <ele>673</ele>
        <time>2019-10-27T12:14:56.000Z</time>
      </trkpt>
      <trkpt lat="45.57896" lon="5.73643">
        <ele>673.5</ele>
        <time>2019-10-27T12:14:57.000Z</time>
      </trkpt>
      <trkpt lat="45.57897" lon="5.73641">
        <ele>674</ele>
        <time>2019-10-27T12:14:58.000Z</time>
      </trkpt>
      <trkpt lat="45.57897" lon="5.7364">
        <ele>674</ele>
        <time>2019-10-27T12:14:59.000Z</time>
      </trkpt>
      <trkpt lat="45.57898" lon="5.73638">
        <ele>674</ele>
        <time>2019-10-27T12:15:00.000Z</time>
      </trkpt>
      <trkpt lat="45.57898" lon="5.73637">
        <ele>674</ele>
        <time>2019-10-27T12:15:01.000Z</time>
      </trkpt>
      <trkpt lat="45.57899" lon="5.73636">
        <ele>674</ele>
        <time>2019-10-27T12:15:02.000Z</time>
      </trkpt>
      <trkpt lat="45.57899" lon="5.73635">
        <ele>674</ele>
        <time>2019-10-27T12:15:03.000Z</time>
      </trkpt>
      <trkpt lat="45.57899" lon="5.73634">
        <ele>674</ele>
        <time>2019-10-27T12:15:04.000Z</time>
      </trkpt>
      <trkpt lat="45.579" lon="5.73633">
        <ele>674</ele>
        <time>2019-10-27T12:15:05.000Z</time>
      </trkpt>
      <trkpt lat="45.579" lon="5.73632">
        <ele>674</ele>
        <time>2019-10-27T12:15:06.000Z</time>
      </trkpt>
      <trkpt lat="45.579" lon="5.73631">
        <ele>674</ele>
        <time>2019-10-27T12:15:07.000Z</time>
      </trkpt>
      <trkpt lat="45.57901" lon="5.7363">
        <ele>674</ele>
        <time>2019-10-27T12:15:08.000Z</time>
      </trkpt>
      <trkpt lat="45.57901" lon="5.73628">
        <ele>674</ele>
        <time>2019-10-27T12:15:09.000Z</time>
      </trkpt>
      <trkpt lat="45.57901" lon="5.73627">
        <ele>674</ele>
        <time>2019-10-27T12:15:10.000Z</time>
      </trkpt>
      <trkpt lat="45.57902" lon="5.73626">
        <ele>674</ele>
        <time>2019-10-27T12:15:11.000Z</time>
      </trkpt>
      <trkpt lat="45.57902" lon="5.73625">
        <ele>674</ele>
        <time>2019-10-27T12:15:12.000Z</time>
      </trkpt>
      <trkpt lat="45.57902" lon="5.73623">
        <ele>674</ele>
        <time>2019-10-27T12:15:13.000Z</time>
      </trkpt>
      <trkpt lat="45.57902" lon="5.73622">
        <ele>674</ele>
        <time>2019-10-27T12:15:14.000Z</time>
      </trkpt>
      <trkpt lat="45.57903" lon="5.73621">
        <ele>674</ele>
        <time>2019-10-27T12:15:15.000Z</time>
      </trkpt>
      <trkpt lat="45.57903" lon="5.7362">
        <ele>674</ele>
        <time>2019-10-27T12:15:16.000Z</time>
      </trkpt>
      <trkpt lat="45.57904" lon="5.73619">
        <ele>674</ele>
        <time>2019-10-27T12:15:17.000Z</time>
      </trkpt>
      <trkpt lat="45.57904" lon="5.73618">
        <ele>674</ele>
        <time>2019-10-27T12:15:18.000Z</time>
      </trkpt>
      <trkpt lat="45.57904" lon="5.73617">
        <ele>674</ele>
        <time>2019-10-27T12:15:19.000Z</time>
      </trkpt>
      <trkpt lat="45.57905" lon="5.73617">
        <ele>674</ele>
        <time>2019-10-27T12:15:20.000Z</time>
      </trkpt>
      <trkpt lat="45.57905" lon="5.73616">
        <ele>674</ele>
        <time>2019-10-27T12:15:21.000Z</time>
      </trkpt>
      <trkpt lat="45.57905" lon="5.73616">
        <ele>674</ele>
        <time>2019-10-27T12:15:22.000Z</time>
      </trkpt>
      <trkpt lat="45.57905" lon="5.73616">
        <ele>674</ele>
        <time>2019-10-27T12:15:23.000Z</time>
      </trkpt>
      <trkpt lat="45.57905" lon="5.73614">
        <ele>674</ele>
        <time>2019-10-27T12:15:24.000Z</time>
      </trkpt>
      <trkpt lat="45.57906" lon="5.73612">
        <ele>674</ele>
        <time>2019-10-27T12:15:25.000Z</time>
      </trkpt>
      <trkpt lat="45.57907" lon="5.7361">
        <ele>674</ele>
        <time>2019-10-27T12:15:26.000Z</time>
      </trkpt>
      <trkpt lat="45.57908" lon="5.73608">
        <ele>674</ele>
        <time>2019-10-27T12:15:27.000Z</time>
      </trkpt>
      <trkpt lat="45.57909" lon="5.73605">
        <ele>675</ele>
        <time>2019-10-27T12:15:28.000Z</time>
      </trkpt>
      <trkpt lat="45.5791" lon="5.73604">
        <ele>675</ele>
        <time>2019-10-27T12:15:29.000Z</time>
      </trkpt>
      <trkpt lat="45.57911" lon="5.73602">
        <ele>675</ele>
        <time>2019-10-27T12:15:30.000Z</time>
      </trkpt>
      <trkpt lat="45.57911" lon="5.73601">
        <ele>675</ele>
        <time>2019-10-27T12:15:31.000Z</time>
      </trkpt>
      <trkpt lat="45.57912" lon="5.73599">
        <ele>675</ele>
        <time>2019-10-27T12:15:32.000Z</time>
      </trkpt>
      <trkpt lat="45.57912" lon="5.73598">
        <ele>675</ele>
        <time>2019-10-27T12:15:33.000Z</time>
      </trkpt>
      <trkpt lat="45.57913" lon="5.73597">
        <ele>675</ele>
        <time>2019-10-27T12:15:34.000Z</time>
      </trkpt>
      <trkpt lat="45.57913" lon="5.73595">
        <ele>675</ele>
        <time>2019-10-27T12:15:35.000Z</time>
      </trkpt>
      <trkpt lat="45.57914" lon="5.73594">
        <ele>675</ele>
        <time>2019-10-27T12:15:36.000Z</time>
      </trkpt>
      <trkpt lat="45.57914" lon="5.73592">
        <ele>675</ele>
        <time>2019-10-27T12:15:37.000Z</time>
      </trkpt>
      <trkpt lat="45.57915" lon="5.73591">
        <ele>675</ele>
        <time>2019-10-27T12:15:38.000Z</time>
      </trkpt>
      <trkpt lat="45.57915" lon="5.7359">
        <ele>675.3</ele>
        <time>2019-10-27T12:15:39.000Z</time>
      </trkpt>
      <trkpt lat="45.57916" lon="5.73588">
        <ele>675.7</ele>
        <time>2019-10-27T12:15:40.000Z</time>
      </trkpt>
      <trkpt lat="45.57916" lon="5.73587">
        <ele>676</ele>
        <time>2019-10-27T12:15:41.000Z</time>
      </trkpt>
      <trkpt lat="45.57917" lon="5.73586">
        <ele>676</ele>
        <time>2019-10-27T12:15:42.000Z</time>
      </trkpt>
      <trkpt lat="45.57917" lon="5.73584">
        <ele>676</ele>
        <time>2019-10-27T12:15:43.000Z</time>
      </trkpt>
      <trkpt lat="45.57917" lon="5.73583">
        <ele>676</ele>
        <time>2019-10-27T12:15:44.000Z</time>
      </trkpt>
      <trkpt lat="45.57918" lon="5.73582">
        <ele>676</ele>
        <time>2019-10-27T12:15:45.000Z</time>
      </trkpt>
      <trkpt lat="45.57918" lon="5.73581">
        <ele>676</ele>
        <time>2019-10-27T12:15:46.000Z</time>
      </trkpt>
      <trkpt lat="45.57918" lon="5.7358">
        <ele>676</ele>
        <time>2019-10-27T12:15:47.000Z</time>
      </trkpt>
      <trkpt lat="45.57918" lon="5.73578">
        <ele>676</ele>
        <time>2019-10-27T12:15:48.000Z</time>
      </trkpt>
      <trkpt lat="45.57919" lon="5.73577">
        <ele>676</ele>
        <time>2019-10-27T12:15:49.000Z</time>
      </trkpt>
      <trkpt lat="45.57919" lon="5.73576">
        <ele>676</ele>
        <time>2019-10-27T12:15:50.000Z</time>
      </trkpt>
      <trkpt lat="45.57919" lon="5.73575">
        <ele>676</ele>
        <time>2019-10-27T12:15:51.000Z</time>
      </trkpt>
      <trkpt lat="45.5792" lon="5.73573">
        <ele>676</ele>
        <time>2019-10-27T12:15:52.000Z</time>
      </trkpt>
      <trkpt lat="45.5792" lon="5.73572">
        <ele>676</ele>
        <time>2019-10-27T12:15:53.000Z</time>
      </trkpt>
      <trkpt lat="45.5792" lon="5.73571">
        <ele>676</ele>
        <time>2019-10-27T12:15:54.000Z</time>
      </trkpt>
      <trkpt lat="45.57921" lon="5.7357">
        <ele>676</ele>
        <time>2019-10-27T12:15:55.000Z</time>
      </trkpt>
      <trkpt lat="45.57921" lon="5.73569">
        <ele>676</ele>
        <time>2019-10-27T12:15:56.000Z</time>
      </trkpt>
      <trkpt lat="45.57922" lon="5.73567">
        <ele>676</ele>
        <time>2019-10-27T12:15:57.000Z</time>
      </trkpt>
      <trkpt lat="45.57922" lon="5.73566">
        <ele>676</ele>
        <time>2019-10-27T12:15:58.000Z</time>
      </trkpt>
      <trkpt lat="45.57922" lon="5.73565">
        <ele>676</ele>
        <time>2019-10-27T12:15:59.000Z</time>
      </trkpt>
      <trkpt lat="45.57923" lon="5.73564">
        <ele>676.5</ele>
        <time>2019-10-27T12:16:00.000Z</time>
      </trkpt>
      <trkpt lat="45.57923" lon="5.73563">
        <ele>677</ele>
        <time>2019-10-27T12:16:01.000Z</time>
      </trkpt>
      <trkpt lat="45.57923" lon="5.73562">
        <ele>677</ele>
        <time>2019-10-27T12:16:02.000Z</time>
      </trkpt>
      <trkpt lat="45.57924" lon="5.73561">
        <ele>677</ele>
        <time>2019-10-27T12:16:03.000Z</time>
      </trkpt>
      <trkpt lat="45.57924" lon="5.7356">
        <ele>677</ele>
        <time>2019-10-27T12:16:04.000Z</time>
      </trkpt>
      <trkpt lat="45.57924" lon="5.73559">
        <ele>677</ele>
        <time>2019-10-27T12:16:05.000Z</time>
      </trkpt>
      <trkpt lat="45.57925" lon="5.73558">
        <ele>677</ele>
        <time>2019-10-27T12:16:06.000Z</time>
      </trkpt>
      <trkpt lat="45.57925" lon="5.73557">
        <ele>677</ele>
        <time>2019-10-27T12:16:07.000Z</time>
      </trkpt>
      <trkpt lat="45.57925" lon="5.73556">
        <ele>677</ele>
        <time>2019-10-27T12:16:08.000Z</time>
      </trkpt>
      <trkpt lat="45.57925" lon="5.73555">
        <ele>677</ele>
        <time>2019-10-27T12:16:09.000Z</time>
      </trkpt>
      <trkpt lat="45.57926" lon="5.73554">
        <ele>677</ele>
        <time>2019-10-27T12:16:10.000Z</time>
      </trkpt>
      <trkpt lat="45.57926" lon="5.73553">
        <ele>677</ele>
        <time>2019-10-27T12:16:11.000Z</time>
      </trkpt>
      <trkpt lat="45.57926" lon="5.73552">
        <ele>677</ele>
        <time>2019-10-27T12:16:12.000Z</time>
      </trkpt>
      <trkpt lat="45.57927" lon="5.73551">
        <ele>677</ele>
        <time>2019-10-27T12:16:13.000Z</time>
      </trkpt>
      <trkpt lat="45.57927" lon="5.73549">
        <ele>677.5</ele>
        <time>2019-10-27T12:16:14.000Z</time>
      </trkpt>
      <trkpt lat="45.57928" lon="5.73548">
        <ele>678</ele>
        <time>2019-10-27T12:16:15.000Z</time>
      </trkpt>
      <trkpt lat="45.57928" lon="5.73547">
        <ele>678</ele>
        <time>2019-10-27T12:16:16.000Z</time>
      </trkpt>
      <trkpt lat="45.57929" lon="5.73546">
        <ele>678</ele>
        <time>2019-10-27T12:16:17.000Z</time>
      </trkpt>
      <trkpt lat="45.57929" lon="5.73545">
        <ele>678</ele>
        <time>2019-10-27T12:16:18.000Z</time>
      </trkpt>
      <trkpt lat="45.5793" lon="5.73543">
        <ele>678</ele>
        <time>2019-10-27T12:16:19.000Z</time>
      </trkpt>
      <trkpt lat="45.5793" lon="5.73542">
        <ele>678</ele>
        <time>2019-10-27T12:16:20.000Z</time>
      </trkpt>
      <trkpt lat="45.57931" lon="5.73541">
        <ele>678</ele>
        <time>2019-10-27T12:16:21.000Z</time>
      </trkpt>
      <trkpt lat="45.57931" lon="5.73541">
        <ele>678</ele>
        <time>2019-10-27T12:16:22.000Z</time>
      </trkpt>
      <trkpt lat="45.57931" lon="5.7354">
        <ele>678</ele>
        <time>2019-10-27T12:16:23.000Z</time>
      </trkpt>
      <trkpt lat="45.57932" lon="5.73539">
        <ele>678</ele>
        <time>2019-10-27T12:16:24.000Z</time>
      </trkpt>
      <trkpt lat="45.57932" lon="5.73539">
        <ele>678</ele>
        <time>2019-10-27T12:16:25.000Z</time>
      </trkpt>
      <trkpt lat="45.57932" lon="5.73539">
        <ele>678</ele>
        <time>2019-10-27T12:16:26.000Z</time>
      </trkpt>
      <trkpt lat="45.57932" lon="5.73539">
        <ele>678</ele>
        <time>2019-10-27T12:16:27.000Z</time>
      </trkpt>
      <trkpt lat="45.57932" lon="5.73539">
        <ele>678</ele>
        <time>2019-10-27T12:16:28.000Z</time>
      </trkpt>
      <trkpt lat="45.57932" lon="5.73539">
        <ele>678</ele>
        <time>2019-10-27T12:16:29.000Z</time>
      </trkpt>
      <trkpt lat="45.57932" lon="5.73539">
        <ele>678</ele>
        <time>2019-10-27T12:16:30.000Z</time>
      </trkpt>
      <trkpt lat="45.57932" lon="5.73539">
        <ele>678</ele>
        <time>2019-10-27T12:16:31.000Z</time>
      </trkpt>
      <trkpt lat="45.57932" lon="5.73539">
        <ele>678</ele>
        <time>2019-10-27T12:16:32.000Z</time>
      </trkpt>
      <trkpt lat="45.57932" lon="5.73538">
        <ele>678</ele>
        <time>2019-10-27T12:16:33.000Z</time>
      </trkpt>
      <trkpt lat="45.57933" lon="5.73538">
        <ele>678</ele>
        <time>2019-10-27T12:16:34.000Z</time>
      </trkpt>
      <trkpt lat="45.57933" lon="5.73537">
        <ele>678</ele>
        <time>2019-10-27T12:16:35.000Z</time>
      </trkpt>
      <trkpt lat="45.57934" lon="5.73536">
        <ele>678.5</ele>
        <time>2019-10-27T12:16:36.000Z</time>
      </trkpt>
      <trkpt lat="45.57936" lon="5.73535">
        <ele>679</ele>
        <time>2019-10-27T12:16:37.000Z</time>
      </trkpt>
      <trkpt lat="45.57936" lon="5.73534">
        <ele>679</ele>
        <time>2019-10-27T12:16:38.000Z</time>
      </trkpt>
      <trkpt lat="45.57937" lon="5.73532">
        <ele>679</ele>
        <time>2019-10-27T12:16:39.000Z</time>
      </trkpt>
      <trkpt lat="45.57937" lon="5.73531">
        <ele>679</ele>
        <time>2019-10-27T12:16:40.000Z</time>
      </trkpt>
      <trkpt lat="45.57938" lon="5.7353">
        <ele>679</ele>
        <time>2019-10-27T12:16:41.000Z</time>
      </trkpt>
      <trkpt lat="45.57938" lon="5.73529">
        <ele>679</ele>
        <time>2019-10-27T12:16:42.000Z</time>
      </trkpt>
      <trkpt lat="45.57938" lon="5.73528">
        <ele>679</ele>
        <time>2019-10-27T12:16:43.000Z</time>
      </trkpt>
      <trkpt lat="45.57939" lon="5.73527">
        <ele>679</ele>
        <time>2019-10-27T12:16:44.000Z</time>
      </trkpt>
      <trkpt lat="45.57939" lon="5.73526">
        <ele>679</ele>
        <time>2019-10-27T12:16:45.000Z</time>
      </trkpt>
      <trkpt lat="45.5794" lon="5.73525">
        <ele>679.5</ele>
        <time>2019-10-27T12:16:46.000Z</time>
      </trkpt>
      <trkpt lat="45.5794" lon="5.73524">
        <ele>680</ele>
        <time>2019-10-27T12:16:47.000Z</time>
      </trkpt>
      <trkpt lat="45.57941" lon="5.73522">
        <ele>680</ele>
        <time>2019-10-27T12:16:48.000Z</time>
      </trkpt>
      <trkpt lat="45.57941" lon="5.73521">
        <ele>680</ele>
        <time>2019-10-27T12:16:49.000Z</time>
      </trkpt>
      <trkpt lat="45.57942" lon="5.7352">
        <ele>680</ele>
        <time>2019-10-27T12:16:50.000Z</time>
      </trkpt>
      <trkpt lat="45.57943" lon="5.73519">
        <ele>680</ele>
        <time>2019-10-27T12:16:51.000Z</time>
      </trkpt>
      <trkpt lat="45.57943" lon="5.73517">
        <ele>680</ele>
        <time>2019-10-27T12:16:52.000Z</time>
      </trkpt>
      <trkpt lat="45.57944" lon="5.73516">
        <ele>680</ele>
        <time>2019-10-27T12:16:53.000Z</time>
      </trkpt>
      <trkpt lat="45.57945" lon="5.73515">
        <ele>680.5</ele>
        <time>2019-10-27T12:16:54.000Z</time>
      </trkpt>
      <trkpt lat="45.57945" lon="5.73514">
        <ele>681</ele>
        <time>2019-10-27T12:16:55.000Z</time>
      </trkpt>
      <trkpt lat="45.57946" lon="5.73512">
        <ele>681</ele>
        <time>2019-10-27T12:16:56.000Z</time>
      </trkpt>
      <trkpt lat="45.57946" lon="5.73511">
        <ele>681</ele>
        <time>2019-10-27T12:16:57.000Z</time>
      </trkpt>
      <trkpt lat="45.57947" lon="5.7351">
        <ele>681</ele>
        <time>2019-10-27T12:16:58.000Z</time>
      </trkpt>
      <trkpt lat="45.57948" lon="5.73509">
        <ele>681.3</ele>
        <time>2019-10-27T12:16:59.000Z</time>
      </trkpt>
      <trkpt lat="45.57948" lon="5.73507">
        <ele>681.7</ele>
        <time>2019-10-27T12:17:00.000Z</time>
      </trkpt>
      <trkpt lat="45.57949" lon="5.73506">
        <ele>682</ele>
        <time>2019-10-27T12:17:01.000Z</time>
      </trkpt>
      <trkpt lat="45.57949" lon="5.73505">
        <ele>682</ele>
        <time>2019-10-27T12:17:02.000Z</time>
      </trkpt>
      <trkpt lat="45.57949" lon="5.73504">
        <ele>682</ele>
        <time>2019-10-27T12:17:03.000Z</time>
      </trkpt>
      <trkpt lat="45.5795" lon="5.73503">
        <ele>682</ele>
        <time>2019-10-27T12:17:04.000Z</time>
      </trkpt>
      <trkpt lat="45.5795" lon="5.73502">
        <ele>682</ele>
        <time>2019-10-27T12:17:05.000Z</time>
      </trkpt>
      <trkpt lat="45.57951" lon="5.73501">
        <ele>682</ele>
        <time>2019-10-27T12:17:06.000Z</time>
      </trkpt>
      <trkpt lat="45.57951" lon="5.735">
        <ele>682</ele>
        <time>2019-10-27T12:17:07.000Z</time>
      </trkpt>
      <trkpt lat="45.57952" lon="5.73499">
        <ele>682.5</ele>
        <time>2019-10-27T12:17:08.000Z</time>
      </trkpt>
      <trkpt lat="45.57952" lon="5.73498">
        <ele>683</ele>
        <time>2019-10-27T12:17:09.000Z</time>
      </trkpt>
      <trkpt lat="45.57953" lon="5.73497">
        <ele>683</ele>
        <time>2019-10-27T12:17:10.000Z</time>
      </trkpt>
      <trkpt lat="45.57953" lon="5.73495">
        <ele>683</ele>
        <time>2019-10-27T12:17:11.000Z</time>
      </trkpt>
      <trkpt lat="45.57954" lon="5.73494">
        <ele>683</ele>
        <time>2019-10-27T12:17:12.000Z</time>
      </trkpt>
      <trkpt lat="45.57954" lon="5.73493">
        <ele>683</ele>
        <time>2019-10-27T12:17:13.000Z</time>
      </trkpt>
      <trkpt lat="45.57955" lon="5.73492">
        <ele>683</ele>
        <time>2019-10-27T12:17:14.000Z</time>
      </trkpt>
      <trkpt lat="45.57955" lon="5.73491">
        <ele>683</ele>
        <time>2019-10-27T12:17:15.000Z</time>
      </trkpt>
      <trkpt lat="45.57955" lon="5.7349">
        <ele>683.5</ele>
        <time>2019-10-27T12:17:16.000Z</time>
      </trkpt>
      <trkpt lat="45.57956" lon="5.73488">
        <ele>684</ele>
        <time>2019-10-27T12:17:17.000Z</time>
      </trkpt>
      <trkpt lat="45.57956" lon="5.73487">
        <ele>684</ele>
        <time>2019-10-27T12:17:18.000Z</time>
      </trkpt>
      <trkpt lat="45.57956" lon="5.73486">
        <ele>684</ele>
        <time>2019-10-27T12:17:19.000Z</time>
      </trkpt>
      <trkpt lat="45.57957" lon="5.73485">
        <ele>684</ele>
        <time>2019-10-27T12:17:20.000Z</time>
      </trkpt>
      <trkpt lat="45.57957" lon="5.73484">
        <ele>684</ele>
        <time>2019-10-27T12:17:21.000Z</time>
      </trkpt>
      <trkpt lat="45.57957" lon="5.73483">
        <ele>684</ele>
        <time>2019-10-27T12:17:22.000Z</time>
      </trkpt>
      <trkpt lat="45.57957" lon="5.73481">
        <ele>684</ele>
        <time>2019-10-27T12:17:23.000Z</time>
      </trkpt>
      <trkpt lat="45.57958" lon="5.7348">
        <ele>684.5</ele>
        <time>2019-10-27T12:17:24.000Z</time>
      </trkpt>
      <trkpt lat="45.57958" lon="5.73479">
        <ele>685</ele>
        <time>2019-10-27T12:17:25.000Z</time>
      </trkpt>
      <trkpt lat="45.57958" lon="5.73478">
        <ele>685</ele>
        <time>2019-10-27T12:17:26.000Z</time>
      </trkpt>
      <trkpt lat="45.57958" lon="5.73477">
        <ele>685</ele>
        <time>2019-10-27T12:17:27.000Z</time>
      </trkpt>
      <trkpt lat="45.57958" lon="5.73476">
        <ele>685</ele>
        <time>2019-10-27T12:17:28.000Z</time>
      </trkpt>
      <trkpt lat="45.57958" lon="5.73475">
        <ele>685</ele>
        <time>2019-10-27T12:17:29.000Z</time>
      </trkpt>
      <trkpt lat="45.57958" lon="5.73474">
        <ele>685</ele>
        <time>2019-10-27T12:17:30.000Z</time>
      </trkpt>
      <trkpt lat="45.57958" lon="5.73473">
        <ele>685</ele>
        <time>2019-10-27T12:17:31.000Z</time>
      </trkpt>
      <trkpt lat="45.57959" lon="5.73472">
        <ele>685</ele>
        <time>2019-10-27T12:17:32.000Z</time>
      </trkpt>
      <trkpt lat="45.57959" lon="5.73471">
        <ele>685</ele>
        <time>2019-10-27T12:17:33.000Z</time>
      </trkpt>
      <trkpt lat="45.57959" lon="5.7347">
        <ele>685.5</ele>
        <time>2019-10-27T12:17:34.000Z</time>
      </trkpt>
      <trkpt lat="45.5796" lon="5.73469">
        <ele>686</ele>
        <time>2019-10-27T12:17:35.000Z</time>
      </trkpt>
      <trkpt lat="45.5796" lon="5.73468">
        <ele>686</ele>
        <time>2019-10-27T12:17:36.000Z</time>
      </trkpt>
      <trkpt lat="45.57961" lon="5.73466">
        <ele>686</ele>
        <time>2019-10-27T12:17:37.000Z</time>
      </trkpt>
      <trkpt lat="45.57961" lon="5.73465">
        <ele>686</ele>
        <time>2019-10-27T12:17:38.000Z</time>
      </trkpt>
      <trkpt lat="45.57962" lon="5.73464">
        <ele>686</ele>
        <time>2019-10-27T12:17:39.000Z</time>
      </trkpt>
      <trkpt lat="45.57962" lon="5.73463">
        <ele>686.5</ele>
        <time>2019-10-27T12:17:40.000Z</time>
      </trkpt>
      <trkpt lat="45.57963" lon="5.73462">
        <ele>687</ele>
        <time>2019-10-27T12:17:41.000Z</time>
      </trkpt>
      <trkpt lat="45.57964" lon="5.73461">
        <ele>687</ele>
        <time>2019-10-27T12:17:42.000Z</time>
      </trkpt>
      <trkpt lat="45.57964" lon="5.7346">
        <ele>687</ele>
        <time>2019-10-27T12:17:43.000Z</time>
      </trkpt>
      <trkpt lat="45.57965" lon="5.73459">
        <ele>687</ele>
        <time>2019-10-27T12:17:44.000Z</time>
      </trkpt>
      <trkpt lat="45.57966" lon="5.73458">
        <ele>687</ele>
        <time>2019-10-27T12:17:45.000Z</time>
      </trkpt>
      <trkpt lat="45.57966" lon="5.73458">
        <ele>687</ele>
        <time>2019-10-27T12:17:46.000Z</time>
      </trkpt>
      <trkpt lat="45.57967" lon="5.73457">
        <ele>687</ele>
        <time>2019-10-27T12:17:47.000Z</time>
      </trkpt>
      <trkpt lat="45.57968" lon="5.73456">
        <ele>687.5</ele>
        <time>2019-10-27T12:17:48.000Z</time>
      </trkpt>
      <trkpt lat="45.57968" lon="5.73455">
        <ele>688</ele>
        <time>2019-10-27T12:17:49.000Z</time>
      </trkpt>
      <trkpt lat="45.57969" lon="5.73454">
        <ele>688</ele>
        <time>2019-10-27T12:17:50.000Z</time>
      </trkpt>
      <trkpt lat="45.57969" lon="5.73453">
        <ele>688</ele>
        <time>2019-10-27T12:17:51.000Z</time>
      </trkpt>
      <trkpt lat="45.5797" lon="5.73452">
        <ele>688</ele>
        <time>2019-10-27T12:17:52.000Z</time>
      </trkpt>
      <trkpt lat="45.57971" lon="5.73451">
        <ele>688</ele>
        <time>2019-10-27T12:17:53.000Z</time>
      </trkpt>
      <trkpt lat="45.57971" lon="5.7345">
        <ele>688</ele>
        <time>2019-10-27T12:17:54.000Z</time>
      </trkpt>
      <trkpt lat="45.57972" lon="5.7345">
        <ele>688</ele>
        <time>2019-10-27T12:17:55.000Z</time>
      </trkpt>
      <trkpt lat="45.57972" lon="5.73449">
        <ele>688</ele>
        <time>2019-10-27T12:17:56.000Z</time>
      </trkpt>
      <trkpt lat="45.57973" lon="5.73448">
        <ele>688</ele>
        <time>2019-10-27T12:17:57.000Z</time>
      </trkpt>
      <trkpt lat="45.57973" lon="5.73447">
        <ele>688</ele>
        <time>2019-10-27T12:17:58.000Z</time>
      </trkpt>
      <trkpt lat="45.57974" lon="5.73446">
        <ele>688</ele>
        <time>2019-10-27T12:17:59.000Z</time>
      </trkpt>
      <trkpt lat="45.57975" lon="5.73445">
        <ele>688</ele>
        <time>2019-10-27T12:18:00.000Z</time>
      </trkpt>
      <trkpt lat="45.57975" lon="5.73444">
        <ele>688</ele>
        <time>2019-10-27T12:18:01.000Z</time>
      </trkpt>
      <trkpt lat="45.57976" lon="5.73444">
        <ele>688</ele>
        <time>2019-10-27T12:18:02.000Z</time>
      </trkpt>
      <trkpt lat="45.57977" lon="5.73443">
        <ele>688</ele>
        <time>2019-10-27T12:18:03.000Z</time>
      </trkpt>
      <trkpt lat="45.57977" lon="5.73442">
        <ele>688</ele>
        <time>2019-10-27T12:18:04.000Z</time>
      </trkpt>
      <trkpt lat="45.57978" lon="5.73441">
        <ele>688</ele>
        <time>2019-10-27T12:18:05.000Z</time>
      </trkpt>
      <trkpt lat="45.57979" lon="5.7344">
        <ele>688</ele>
        <time>2019-10-27T12:18:06.000Z</time>
      </trkpt>
      <trkpt lat="45.5798" lon="5.73439">
        <ele>688</ele>
        <time>2019-10-27T12:18:07.000Z</time>
      </trkpt>
      <trkpt lat="45.57981" lon="5.73439">
        <ele>688.5</ele>
        <time>2019-10-27T12:18:08.000Z</time>
      </trkpt>
      <trkpt lat="45.57981" lon="5.73438">
        <ele>689</ele>
        <time>2019-10-27T12:18:09.000Z</time>
      </trkpt>
      <trkpt lat="45.57982" lon="5.73437">
        <ele>688.5</ele>
        <time>2019-10-27T12:18:10.000Z</time>
      </trkpt>
      <trkpt lat="45.57983" lon="5.73436">
        <ele>688</ele>
        <time>2019-10-27T12:18:11.000Z</time>
      </trkpt>
      <trkpt lat="45.57984" lon="5.73435">
        <ele>688</ele>
        <time>2019-10-27T12:18:12.000Z</time>
      </trkpt>
      <trkpt lat="45.57984" lon="5.73434">
        <ele>688</ele>
        <time>2019-10-27T12:18:13.000Z</time>
      </trkpt>
      <trkpt lat="45.57985" lon="5.73433">
        <ele>688</ele>
        <time>2019-10-27T12:18:14.000Z</time>
      </trkpt>
      <trkpt lat="45.57986" lon="5.73432">
        <ele>688</ele>
        <time>2019-10-27T12:18:15.000Z</time>
      </trkpt>
      <trkpt lat="45.57986" lon="5.73431">
        <ele>688</ele>
        <time>2019-10-27T12:18:16.000Z</time>
      </trkpt>
      <trkpt lat="45.57987" lon="5.7343">
        <ele>688</ele>
        <time>2019-10-27T12:18:17.000Z</time>
      </trkpt>
      <trkpt lat="45.57987" lon="5.73429">
        <ele>688</ele>
        <time>2019-10-27T12:18:18.000Z</time>
      </trkpt>
      <trkpt lat="45.57988" lon="5.73428">
        <ele>688</ele>
        <time>2019-10-27T12:18:19.000Z</time>
      </trkpt>
      <trkpt lat="45.57989" lon="5.73427">
        <ele>688</ele>
        <time>2019-10-27T12:18:20.000Z</time>
      </trkpt>
      <trkpt lat="45.57989" lon="5.73426">
        <ele>688</ele>
        <time>2019-10-27T12:18:21.000Z</time>
      </trkpt>
      <trkpt lat="45.5799" lon="5.73424">
        <ele>688</ele>
        <time>2019-10-27T12:18:22.000Z</time>
      </trkpt>
      <trkpt lat="45.5799" lon="5.73423">
        <ele>688</ele>
        <time>2019-10-27T12:18:23.000Z</time>
      </trkpt>
      <trkpt lat="45.57991" lon="5.73422">
        <ele>688</ele>
        <time>2019-10-27T12:18:24.000Z</time>
      </trkpt>
      <trkpt lat="45.57992" lon="5.73421">
        <ele>688</ele>
        <time>2019-10-27T12:18:25.000Z</time>
      </trkpt>
      <trkpt lat="45.57992" lon="5.7342">
        <ele>687.5</ele>
        <time>2019-10-27T12:18:26.000Z</time>
      </trkpt>
      <trkpt lat="45.57993" lon="5.73418">
        <ele>687</ele>
        <time>2019-10-27T12:18:27.000Z</time>
      </trkpt>
      <trkpt lat="45.57994" lon="5.73417">
        <ele>687</ele>
        <time>2019-10-27T12:18:28.000Z</time>
      </trkpt>
      <trkpt lat="45.57995" lon="5.73416">
        <ele>687</ele>
        <time>2019-10-27T12:18:29.000Z</time>
      </trkpt>
      <trkpt lat="45.57995" lon="5.73415">
        <ele>687</ele>
        <time>2019-10-27T12:18:30.000Z</time>
      </trkpt>
      <trkpt lat="45.57996" lon="5.73413">
        <ele>687</ele>
        <time>2019-10-27T12:18:31.000Z</time>
      </trkpt>
      <trkpt lat="45.57997" lon="5.73412">
        <ele>687</ele>
        <time>2019-10-27T12:18:32.000Z</time>
      </trkpt>
      <trkpt lat="45.57998" lon="5.73411">
        <ele>687</ele>
        <time>2019-10-27T12:18:33.000Z</time>
      </trkpt>
      <trkpt lat="45.57998" lon="5.7341">
        <ele>687</ele>
        <time>2019-10-27T12:18:34.000Z</time>
      </trkpt>
      <trkpt lat="45.57999" lon="5.73409">
        <ele>686.7</ele>
        <time>2019-10-27T12:18:35.000Z</time>
      </trkpt>
      <trkpt lat="45.58" lon="5.73407">
        <ele>686.3</ele>
        <time>2019-10-27T12:18:36.000Z</time>
      </trkpt>
      <trkpt lat="45.58" lon="5.73406">
        <ele>686</ele>
        <time>2019-10-27T12:18:37.000Z</time>
      </trkpt>
      <trkpt lat="45.58001" lon="5.73405">
        <ele>686</ele>
        <time>2019-10-27T12:18:38.000Z</time>
      </trkpt>
      <trkpt lat="45.58002" lon="5.73404">
        <ele>686</ele>
        <time>2019-10-27T12:18:39.000Z</time>
      </trkpt>
      <trkpt lat="45.58002" lon="5.73402">
        <ele>686</ele>
        <time>2019-10-27T12:18:40.000Z</time>
      </trkpt>
      <trkpt lat="45.58003" lon="5.73401">
        <ele>686</ele>
        <time>2019-10-27T12:18:41.000Z</time>
      </trkpt>
      <trkpt lat="45.58004" lon="5.73399">
        <ele>685.5</ele>
        <time>2019-10-27T12:18:42.000Z</time>
      </trkpt>
      <trkpt lat="45.58004" lon="5.73398">
        <ele>685</ele>
        <time>2019-10-27T12:18:43.000Z</time>
      </trkpt>
      <trkpt lat="45.58005" lon="5.73396">
        <ele>685</ele>
        <time>2019-10-27T12:18:44.000Z</time>
      </trkpt>
      <trkpt lat="45.58006" lon="5.73394">
        <ele>685</ele>
        <time>2019-10-27T12:18:45.000Z</time>
      </trkpt>
      <trkpt lat="45.58007" lon="5.73393">
        <ele>685</ele>
        <time>2019-10-27T12:18:46.000Z</time>
      </trkpt>
      <trkpt lat="45.58008" lon="5.73391">
        <ele>685</ele>
        <time>2019-10-27T12:18:47.000Z</time>
      </trkpt>
      <trkpt lat="45.58009" lon="5.7339">
        <ele>684.5</ele>
        <time>2019-10-27T12:18:48.000Z</time>
      </trkpt>
      <trkpt lat="45.5801" lon="5.73388">
        <ele>684</ele>
        <time>2019-10-27T12:18:49.000Z</time>
      </trkpt>
      <trkpt lat="45.58011" lon="5.73387">
        <ele>684</ele>
        <time>2019-10-27T12:18:50.000Z</time>
      </trkpt>
      <trkpt lat="45.58012" lon="5.73387">
        <ele>684</ele>
        <time>2019-10-27T12:18:51.000Z</time>
      </trkpt>
      <trkpt lat="45.58012" lon="5.73386">
        <ele>684</ele>
        <time>2019-10-27T12:18:52.000Z</time>
      </trkpt>
      <trkpt lat="45.58013" lon="5.73385">
        <ele>684</ele>
        <time>2019-10-27T12:18:53.000Z</time>
      </trkpt>
      <trkpt lat="45.58014" lon="5.73384">
        <ele>684</ele>
        <time>2019-10-27T12:18:54.000Z</time>
      </trkpt>
      <trkpt lat="45.58015" lon="5.73383">
        <ele>684</ele>
        <time>2019-10-27T12:18:55.000Z</time>
      </trkpt>
      <trkpt lat="45.58016" lon="5.73382">
        <ele>684</ele>
        <time>2019-10-27T12:18:56.000Z</time>
      </trkpt>
      <trkpt lat="45.58017" lon="5.73381">
        <ele>684</ele>
        <time>2019-10-27T12:18:57.000Z</time>
      </trkpt>
      <trkpt lat="45.58018" lon="5.7338">
        <ele>683.5</ele>
        <time>2019-10-27T12:18:58.000Z</time>
      </trkpt>
      <trkpt lat="45.58018" lon="5.7338">
        <ele>683</ele>
        <time>2019-10-27T12:18:59.000Z</time>
      </trkpt>
      <trkpt lat="45.58019" lon="5.73379">
        <ele>683</ele>
        <time>2019-10-27T12:19:00.000Z</time>
      </trkpt>
      <trkpt lat="45.5802" lon="5.73378">
        <ele>683</ele>
        <time>2019-10-27T12:19:01.000Z</time>
      </trkpt>
      <trkpt lat="45.58021" lon="5.73377">
        <ele>683</ele>
        <time>2019-10-27T12:19:02.000Z</time>
      </trkpt>
      <trkpt lat="45.58021" lon="5.73376">
        <ele>683</ele>
        <time>2019-10-27T12:19:03.000Z</time>
      </trkpt>
      <trkpt lat="45.58022" lon="5.73375">
        <ele>683</ele>
        <time>2019-10-27T12:19:04.000Z</time>
      </trkpt>
      <trkpt lat="45.58023" lon="5.73374">
        <ele>683</ele>
        <time>2019-10-27T12:19:05.000Z</time>
      </trkpt>
      <trkpt lat="45.58024" lon="5.73373">
        <ele>682.5</ele>
        <time>2019-10-27T12:19:06.000Z</time>
      </trkpt>
      <trkpt lat="45.58025" lon="5.73372">
        <ele>682</ele>
        <time>2019-10-27T12:19:07.000Z</time>
      </trkpt>
      <trkpt lat="45.58026" lon="5.73371">
        <ele>682</ele>
        <time>2019-10-27T12:19:08.000Z</time>
      </trkpt>
      <trkpt lat="45.58027" lon="5.7337">
        <ele>682</ele>
        <time>2019-10-27T12:19:09.000Z</time>
      </trkpt>
      <trkpt lat="45.58028" lon="5.73369">
        <ele>682</ele>
        <time>2019-10-27T12:19:10.000Z</time>
      </trkpt>
      <trkpt lat="45.58028" lon="5.73368">
        <ele>682</ele>
        <time>2019-10-27T12:19:11.000Z</time>
      </trkpt>
      <trkpt lat="45.58029" lon="5.73367">
        <ele>682</ele>
        <time>2019-10-27T12:19:12.000Z</time>
      </trkpt>
      <trkpt lat="45.5803" lon="5.73366">
        <ele>682</ele>
        <time>2019-10-27T12:19:13.000Z</time>
      </trkpt>
      <trkpt lat="45.5803" lon="5.73366">
        <ele>682</ele>
        <time>2019-10-27T12:19:14.000Z</time>
      </trkpt>
      <trkpt lat="45.58031" lon="5.73365">
        <ele>682</ele>
        <time>2019-10-27T12:19:15.000Z</time>
      </trkpt>
      <trkpt lat="45.58031" lon="5.73364">
        <ele>681.5</ele>
        <time>2019-10-27T12:19:16.000Z</time>
      </trkpt>
      <trkpt lat="45.58032" lon="5.73364">
        <ele>681</ele>
        <time>2019-10-27T12:19:17.000Z</time>
      </trkpt>
      <trkpt lat="45.58032" lon="5.73363">
        <ele>681</ele>
        <time>2019-10-27T12:19:18.000Z</time>
      </trkpt>
      <trkpt lat="45.58032" lon="5.73363">
        <ele>681</ele>
        <time>2019-10-27T12:19:19.000Z</time>
      </trkpt>
      <trkpt lat="45.58033" lon="5.73362">
        <ele>681</ele>
        <time>2019-10-27T12:19:20.000Z</time>
      </trkpt>
      <trkpt lat="45.58033" lon="5.73362">
        <ele>681</ele>
        <time>2019-10-27T12:19:21.000Z</time>
      </trkpt>
      <trkpt lat="45.58033" lon="5.73362">
        <ele>681</ele>
        <time>2019-10-27T12:19:22.000Z</time>
      </trkpt>
      <trkpt lat="45.58033" lon="5.73362">
        <ele>681</ele>
        <time>2019-10-27T12:19:23.000Z</time>
      </trkpt>
      <trkpt lat="45.58033" lon="5.73362">
        <ele>680.5</ele>
        <time>2019-10-27T12:19:24.000Z</time>
      </trkpt>
      <trkpt lat="45.58034" lon="5.73362">
        <ele>680</ele>
        <time>2019-10-27T12:19:25.000Z</time>
      </trkpt>
      <trkpt lat="45.58034" lon="5.73362">
        <ele>680</ele>
        <time>2019-10-27T12:19:26.000Z</time>
      </trkpt>
      <trkpt lat="45.58036" lon="5.73361">
        <ele>680</ele>
        <time>2019-10-27T12:19:27.000Z</time>
      </trkpt>
      <trkpt lat="45.58036" lon="5.73361">
        <ele>680</ele>
        <time>2019-10-27T12:19:28.000Z</time>
      </trkpt>
      <trkpt lat="45.58037" lon="5.73361">
        <ele>680</ele>
        <time>2019-10-27T12:19:29.000Z</time>
      </trkpt>
      <trkpt lat="45.58037" lon="5.73361">
        <ele>680</ele>
        <time>2019-10-27T12:19:30.000Z</time>
      </trkpt>
      <trkpt lat="45.58037" lon="5.73361">
        <ele>680</ele>
        <time>2019-10-27T12:19:31.000Z</time>
      </trkpt>
      <trkpt lat="45.58037" lon="5.73361">
        <ele>680</ele>
        <time>2019-10-27T12:19:32.000Z</time>
      </trkpt>
      <trkpt lat="45.58037" lon="5.7336">
        <ele>680</ele>
        <time>2019-10-27T12:19:33.000Z</time>
      </trkpt>
      <trkpt lat="45.58037" lon="5.7336">
        <ele>680</ele>
        <time>2019-10-27T12:19:34.000Z</time>
      </trkpt>
      <trkpt lat="45.58037" lon="5.7336">
        <ele>680</ele>
        <time>2019-10-27T12:19:35.000Z</time>
      </trkpt>
      <trkpt lat="45.58037" lon="5.7336">
        <ele>680</ele>
        <time>2019-10-27T12:19:36.000Z</time>
      </trkpt>
      <trkpt lat="45.58037" lon="5.7336">
        <ele>680</ele>
        <time>2019-10-27T12:19:37.000Z</time>
      </trkpt>
      <trkpt lat="45.58037" lon="5.7336">
        <ele>680</ele>
        <time>2019-10-27T12:19:38.000Z</time>
      </trkpt>
      <trkpt lat="45.58037" lon="5.7336">
        <ele>680</ele>
        <time>2019-10-27T12:19:39.000Z</time>
      </trkpt>
      <trkpt lat="45.58038" lon="5.7336">
        <ele>680</ele>
        <time>2019-10-27T12:19:40.000Z</time>
      </trkpt>
      <trkpt lat="45.58038" lon="5.7336">
        <ele>680</ele>
        <time>2019-10-27T12:19:41.000Z</time>
      </trkpt>
      <trkpt lat="45.58038" lon="5.73359">
        <ele>680</ele>
        <time>2019-10-27T12:19:42.000Z</time>
      </trkpt>
      <trkpt lat="45.58038" lon="5.73359">
        <ele>680</ele>
        <time>2019-10-27T12:19:43.000Z</time>
      </trkpt>
      <trkpt lat="45.58039" lon="5.73358">
        <ele>680</ele>
        <time>2019-10-27T12:19:44.000Z</time>
      </trkpt>
      <trkpt lat="45.5804" lon="5.73357">
        <ele>680</ele>
        <time>2019-10-27T12:19:45.000Z</time>
      </trkpt>
      <trkpt lat="45.5804" lon="5.73356">
        <ele>680</ele>
        <time>2019-10-27T12:19:46.000Z</time>
      </trkpt>
      <trkpt lat="45.58041" lon="5.73356">
        <ele>680</ele>
        <time>2019-10-27T12:19:47.000Z</time>
      </trkpt>
      <trkpt lat="45.58042" lon="5.73355">
        <ele>680</ele>
        <time>2019-10-27T12:19:48.000Z</time>
      </trkpt>
      <trkpt lat="45.58042" lon="5.73355">
        <ele>680</ele>
        <time>2019-10-27T12:19:49.000Z</time>
      </trkpt>
      <trkpt lat="45.58042" lon="5.73354">
        <ele>680</ele>
        <time>2019-10-27T12:19:50.000Z</time>
      </trkpt>
      <trkpt lat="45.58043" lon="5.73353">
        <ele>680</ele>
        <time>2019-10-27T12:19:51.000Z</time>
      </trkpt>
      <trkpt lat="45.58043" lon="5.73352">
        <ele>680</ele>
        <time>2019-10-27T12:19:52.000Z</time>
      </trkpt>
      <trkpt lat="45.58043" lon="5.73351">
        <ele>679.7</ele>
        <time>2019-10-27T12:19:53.000Z</time>
      </trkpt>
      <trkpt lat="45.58043" lon="5.73349">
        <ele>679.3</ele>
        <time>2019-10-27T12:19:54.000Z</time>
      </trkpt>
      <trkpt lat="45.58043" lon="5.73348">
        <ele>679</ele>
        <time>2019-10-27T12:19:55.000Z</time>
      </trkpt>
      <trkpt lat="45.58043" lon="5.73346">
        <ele>679</ele>
        <time>2019-10-27T12:19:56.000Z</time>
      </trkpt>
      <trkpt lat="45.58043" lon="5.73345">
        <ele>679</ele>
        <time>2019-10-27T12:19:57.000Z</time>
      </trkpt>
      <trkpt lat="45.58043" lon="5.73343">
        <ele>679</ele>
        <time>2019-10-27T12:19:58.000Z</time>
      </trkpt>
      <trkpt lat="45.58043" lon="5.73342">
        <ele>679</ele>
        <time>2019-10-27T12:19:59.000Z</time>
      </trkpt>
      <trkpt lat="45.58043" lon="5.73341">
        <ele>679</ele>
        <time>2019-10-27T12:20:00.000Z</time>
      </trkpt>
      <trkpt lat="45.58043" lon="5.7334">
        <ele>679</ele>
        <time>2019-10-27T12:20:01.000Z</time>
      </trkpt>
      <trkpt lat="45.58043" lon="5.73338">
        <ele>678.5</ele>
        <time>2019-10-27T12:20:02.000Z</time>
      </trkpt>
      <trkpt lat="45.58043" lon="5.73337">
        <ele>678</ele>
        <time>2019-10-27T12:20:03.000Z</time>
      </trkpt>
      <trkpt lat="45.58043" lon="5.73336">
        <ele>678</ele>
        <time>2019-10-27T12:20:04.000Z</time>
      </trkpt>
      <trkpt lat="45.58043" lon="5.73335">
        <ele>678</ele>
        <time>2019-10-27T12:20:05.000Z</time>
      </trkpt>
      <trkpt lat="45.58043" lon="5.73335">
        <ele>678</ele>
        <time>2019-10-27T12:20:06.000Z</time>
      </trkpt>
      <trkpt lat="45.58043" lon="5.73334">
        <ele>678</ele>
        <time>2019-10-27T12:20:07.000Z</time>
      </trkpt>
      <trkpt lat="45.58044" lon="5.73333">
        <ele>678</ele>
        <time>2019-10-27T12:20:08.000Z</time>
      </trkpt>
      <trkpt lat="45.58044" lon="5.73331">
        <ele>678</ele>
        <time>2019-10-27T12:20:09.000Z</time>
      </trkpt>
      <trkpt lat="45.58044" lon="5.7333">
        <ele>678</ele>
        <time>2019-10-27T12:20:10.000Z</time>
      </trkpt>
      <trkpt lat="45.58044" lon="5.73329">
        <ele>678</ele>
        <time>2019-10-27T12:20:11.000Z</time>
      </trkpt>
      <trkpt lat="45.58044" lon="5.73328">
        <ele>677.5</ele>
        <time>2019-10-27T12:20:12.000Z</time>
      </trkpt>
      <trkpt lat="45.58044" lon="5.73327">
        <ele>677</ele>
        <time>2019-10-27T12:20:13.000Z</time>
      </trkpt>
      <trkpt lat="45.58045" lon="5.73326">
        <ele>677</ele>
        <time>2019-10-27T12:20:14.000Z</time>
      </trkpt>
      <trkpt lat="45.58045" lon="5.73324">
        <ele>677</ele>
        <time>2019-10-27T12:20:15.000Z</time>
      </trkpt>
      <trkpt lat="45.58045" lon="5.73323">
        <ele>677</ele>
        <time>2019-10-27T12:20:16.000Z</time>
      </trkpt>
      <trkpt lat="45.58045" lon="5.73322">
        <ele>677</ele>
        <time>2019-10-27T12:20:17.000Z</time>
      </trkpt>
      <trkpt lat="45.58045" lon="5.73321">
        <ele>677</ele>
        <time>2019-10-27T12:20:18.000Z</time>
      </trkpt>
      <trkpt lat="45.58044" lon="5.73319">
        <ele>677</ele>
        <time>2019-10-27T12:20:19.000Z</time>
      </trkpt>
      <trkpt lat="45.58044" lon="5.73318">
        <ele>676</ele>
        <time>2019-10-27T12:20:20.000Z</time>
      </trkpt>
      <trkpt lat="45.58044" lon="5.73317">
        <ele>676</ele>
        <time>2019-10-27T12:20:21.000Z</time>
      </trkpt>
      <trkpt lat="45.58044" lon="5.73316">
        <ele>676</ele>
        <time>2019-10-27T12:20:22.000Z</time>
      </trkpt>
      <trkpt lat="45.58044" lon="5.73314">
        <ele>676</ele>
        <time>2019-10-27T12:20:23.000Z</time>
      </trkpt>
      <trkpt lat="45.58043" lon="5.73313">
        <ele>676</ele>
        <time>2019-10-27T12:20:24.000Z</time>
      </trkpt>
      <trkpt lat="45.58043" lon="5.73312">
        <ele>676</ele>
        <time>2019-10-27T12:20:25.000Z</time>
      </trkpt>
      <trkpt lat="45.58043" lon="5.73311">
        <ele>676</ele>
        <time>2019-10-27T12:20:26.000Z</time>
      </trkpt>
      <trkpt lat="45.58043" lon="5.7331">
        <ele>676</ele>
        <time>2019-10-27T12:20:27.000Z</time>
      </trkpt>
      <trkpt lat="45.58043" lon="5.73309">
        <ele>676</ele>
        <time>2019-10-27T12:20:28.000Z</time>
      </trkpt>
      <trkpt lat="45.58042" lon="5.73308">
        <ele>676</ele>
        <time>2019-10-27T12:20:29.000Z</time>
      </trkpt>
      <trkpt lat="45.58042" lon="5.73308">
        <ele>676</ele>
        <time>2019-10-27T12:20:30.000Z</time>
      </trkpt>
      <trkpt lat="45.58042" lon="5.73307">
        <ele>676</ele>
        <time>2019-10-27T12:20:31.000Z</time>
      </trkpt>
      <trkpt lat="45.58042" lon="5.73307">
        <ele>675.5</ele>
        <time>2019-10-27T12:20:32.000Z</time>
      </trkpt>
      <trkpt lat="45.58042" lon="5.73306">
        <ele>675</ele>
        <time>2019-10-27T12:20:33.000Z</time>
      </trkpt>
      <trkpt lat="45.58042" lon="5.73306">
        <ele>675</ele>
        <time>2019-10-27T12:20:34.000Z</time>
      </trkpt>
      <trkpt lat="45.58042" lon="5.73306">
        <ele>675</ele>
        <time>2019-10-27T12:20:35.000Z</time>
      </trkpt>
      <trkpt lat="45.58042" lon="5.73306">
        <ele>675</ele>
        <time>2019-10-27T12:20:36.000Z</time>
      </trkpt>
      <trkpt lat="45.58042" lon="5.73306">
        <ele>675</ele>
        <time>2019-10-27T12:20:37.000Z</time>
      </trkpt>
      <trkpt lat="45.58042" lon="5.73306">
        <ele>675</ele>
        <time>2019-10-27T12:20:38.000Z</time>
      </trkpt>
      <trkpt lat="45.58042" lon="5.73305">
        <ele>675</ele>
        <time>2019-10-27T12:20:39.000Z</time>
      </trkpt>
      <trkpt lat="45.58042" lon="5.73304">
        <ele>675</ele>
        <time>2019-10-27T12:20:40.000Z</time>
      </trkpt>
      <trkpt lat="45.58042" lon="5.73303">
        <ele>675</ele>
        <time>2019-10-27T12:20:41.000Z</time>
      </trkpt>
      <trkpt lat="45.58041" lon="5.73302">
        <ele>675</ele>
        <time>2019-10-27T12:20:42.000Z</time>
      </trkpt>
      <trkpt lat="45.58041" lon="5.73301">
        <ele>675</ele>
        <time>2019-10-27T12:20:43.000Z</time>
      </trkpt>
      <trkpt lat="45.58041" lon="5.733">
        <ele>675</ele>
        <time>2019-10-27T12:20:44.000Z</time>
      </trkpt>
      <trkpt lat="45.58041" lon="5.73299">
        <ele>675</ele>
        <time>2019-10-27T12:20:45.000Z</time>
      </trkpt>
      <trkpt lat="45.58041" lon="5.73298">
        <ele>675</ele>
        <time>2019-10-27T12:20:46.000Z</time>
      </trkpt>
      <trkpt lat="45.58041" lon="5.73297">
        <ele>675</ele>
        <time>2019-10-27T12:20:47.000Z</time>
      </trkpt>
      <trkpt lat="45.58041" lon="5.73296">
        <ele>675</ele>
        <time>2019-10-27T12:20:48.000Z</time>
      </trkpt>
      <trkpt lat="45.58041" lon="5.73295">
        <ele>674.7</ele>
        <time>2019-10-27T12:20:49.000Z</time>
      </trkpt>
      <trkpt lat="45.58041" lon="5.73293">
        <ele>674.3</ele>
        <time>2019-10-27T12:20:50.000Z</time>
      </trkpt>
      <trkpt lat="45.58041" lon="5.7329">
        <ele>674</ele>
        <time>2019-10-27T12:20:51.000Z</time>
      </trkpt>
      <trkpt lat="45.58042" lon="5.73288">
        <ele>674</ele>
        <time>2019-10-27T12:20:52.000Z</time>
      </trkpt>
      <trkpt lat="45.58042" lon="5.73286">
        <ele>674</ele>
        <time>2019-10-27T12:20:53.000Z</time>
      </trkpt>
      <trkpt lat="45.58043" lon="5.73285">
        <ele>674</ele>
        <time>2019-10-27T12:20:54.000Z</time>
      </trkpt>
      <trkpt lat="45.58043" lon="5.73284">
        <ele>674</ele>
        <time>2019-10-27T12:20:55.000Z</time>
      </trkpt>
      <trkpt lat="45.58044" lon="5.73282">
        <ele>674</ele>
        <time>2019-10-27T12:20:56.000Z</time>
      </trkpt>
      <trkpt lat="45.58044" lon="5.73281">
        <ele>674</ele>
        <time>2019-10-27T12:20:57.000Z</time>
      </trkpt>
      <trkpt lat="45.58044" lon="5.73279">
        <ele>674</ele>
        <time>2019-10-27T12:20:58.000Z</time>
      </trkpt>
      <trkpt lat="45.58045" lon="5.73277">
        <ele>674</ele>
        <time>2019-10-27T12:20:59.000Z</time>
      </trkpt>
      <trkpt lat="45.58045" lon="5.73276">
        <ele>674</ele>
        <time>2019-10-27T12:21:00.000Z</time>
      </trkpt>
      <trkpt lat="45.58045" lon="5.73274">
        <ele>674</ele>
        <time>2019-10-27T12:21:01.000Z</time>
      </trkpt>
      <trkpt lat="45.58045" lon="5.73273">
        <ele>674</ele>
        <time>2019-10-27T12:21:02.000Z</time>
      </trkpt>
      <trkpt lat="45.58046" lon="5.73273">
        <ele>674</ele>
        <time>2019-10-27T12:21:03.000Z</time>
      </trkpt>
      <trkpt lat="45.58046" lon="5.73272">
        <ele>674</ele>
        <time>2019-10-27T12:21:04.000Z</time>
      </trkpt>
      <trkpt lat="45.58046" lon="5.73271">
        <ele>673.7</ele>
        <time>2019-10-27T12:21:05.000Z</time>
      </trkpt>
      <trkpt lat="45.58046" lon="5.7327">
        <ele>673.3</ele>
        <time>2019-10-27T12:21:06.000Z</time>
      </trkpt>
      <trkpt lat="45.58047" lon="5.73269">
        <ele>673</ele>
        <time>2019-10-27T12:21:07.000Z</time>
      </trkpt>
      <trkpt lat="45.58047" lon="5.73268">
        <ele>673</ele>
        <time>2019-10-27T12:21:08.000Z</time>
      </trkpt>
      <trkpt lat="45.58047" lon="5.73266">
        <ele>673</ele>
        <time>2019-10-27T12:21:09.000Z</time>
      </trkpt>
      <trkpt lat="45.58047" lon="5.73265">
        <ele>673</ele>
        <time>2019-10-27T12:21:10.000Z</time>
      </trkpt>
      <trkpt lat="45.58048" lon="5.73263">
        <ele>673</ele>
        <time>2019-10-27T12:21:11.000Z</time>
      </trkpt>
      <trkpt lat="45.58048" lon="5.73262">
        <ele>673</ele>
        <time>2019-10-27T12:21:12.000Z</time>
      </trkpt>
      <trkpt lat="45.58049" lon="5.73261">
        <ele>673</ele>
        <time>2019-10-27T12:21:13.000Z</time>
      </trkpt>
      <trkpt lat="45.58049" lon="5.73259">
        <ele>673</ele>
        <time>2019-10-27T12:21:14.000Z</time>
      </trkpt>
      <trkpt lat="45.58049" lon="5.73258">
        <ele>673</ele>
        <time>2019-10-27T12:21:15.000Z</time>
      </trkpt>
      <trkpt lat="45.5805" lon="5.73257">
        <ele>673</ele>
        <time>2019-10-27T12:21:16.000Z</time>
      </trkpt>
      <trkpt lat="45.5805" lon="5.73256">
        <ele>673</ele>
        <time>2019-10-27T12:21:17.000Z</time>
      </trkpt>
      <trkpt lat="45.58051" lon="5.73254">
        <ele>672.5</ele>
        <time>2019-10-27T12:21:18.000Z</time>
      </trkpt>
      <trkpt lat="45.58051" lon="5.73253">
        <ele>672</ele>
        <time>2019-10-27T12:21:19.000Z</time>
      </trkpt>
      <trkpt lat="45.58051" lon="5.73252">
        <ele>672</ele>
        <time>2019-10-27T12:21:20.000Z</time>
      </trkpt>
      <trkpt lat="45.58051" lon="5.73251">
        <ele>672</ele>
        <time>2019-10-27T12:21:21.000Z</time>
      </trkpt>
      <trkpt lat="45.58051" lon="5.7325">
        <ele>672</ele>
        <time>2019-10-27T12:21:22.000Z</time>
      </trkpt>
      <trkpt lat="45.58051" lon="5.73249">
        <ele>672</ele>
        <time>2019-10-27T12:21:23.000Z</time>
      </trkpt>
      <trkpt lat="45.58051" lon="5.73247">
        <ele>672</ele>
        <time>2019-10-27T12:21:24.000Z</time>
      </trkpt>
      <trkpt lat="45.58051" lon="5.73246">
        <ele>672</ele>
        <time>2019-10-27T12:21:25.000Z</time>
      </trkpt>
      <trkpt lat="45.5805" lon="5.73245">
        <ele>671.5</ele>
        <time>2019-10-27T12:21:26.000Z</time>
      </trkpt>
      <trkpt lat="45.5805" lon="5.73244">
        <ele>671</ele>
        <time>2019-10-27T12:21:27.000Z</time>
      </trkpt>
      <trkpt lat="45.5805" lon="5.73243">
        <ele>671</ele>
        <time>2019-10-27T12:21:28.000Z</time>
      </trkpt>
      <trkpt lat="45.5805" lon="5.73242">
        <ele>671</ele>
        <time>2019-10-27T12:21:29.000Z</time>
      </trkpt>
      <trkpt lat="45.58049" lon="5.73241">
        <ele>671</ele>
        <time>2019-10-27T12:21:30.000Z</time>
      </trkpt>
      <trkpt lat="45.58049" lon="5.73239">
        <ele>671</ele>
        <time>2019-10-27T12:21:31.000Z</time>
      </trkpt>
      <trkpt lat="45.58049" lon="5.73238">
        <ele>671</ele>
        <time>2019-10-27T12:21:32.000Z</time>
      </trkpt>
      <trkpt lat="45.58048" lon="5.73236">
        <ele>671</ele>
        <time>2019-10-27T12:21:33.000Z</time>
      </trkpt>
      <trkpt lat="45.58047" lon="5.73234">
        <ele>670</ele>
        <time>2019-10-27T12:21:34.000Z</time>
      </trkpt>
      <trkpt lat="45.58046" lon="5.73233">
        <ele>670</ele>
        <time>2019-10-27T12:21:35.000Z</time>
      </trkpt>
      <trkpt lat="45.58044" lon="5.73232">
        <ele>670</ele>
        <time>2019-10-27T12:21:36.000Z</time>
      </trkpt>
      <trkpt lat="45.58042" lon="5.73231">
        <ele>670</ele>
        <time>2019-10-27T12:21:37.000Z</time>
      </trkpt>
      <trkpt lat="45.58041" lon="5.7323">
        <ele>670</ele>
        <time>2019-10-27T12:21:38.000Z</time>
      </trkpt>
      <trkpt lat="45.58041" lon="5.73229">
        <ele>670</ele>
        <time>2019-10-27T12:21:39.000Z</time>
      </trkpt>
      <trkpt lat="45.5804" lon="5.73227">
        <ele>670</ele>
        <time>2019-10-27T12:21:40.000Z</time>
      </trkpt>
      <trkpt lat="45.5804" lon="5.73226">
        <ele>670</ele>
        <time>2019-10-27T12:21:41.000Z</time>
      </trkpt>
      <trkpt lat="45.5804" lon="5.73225">
        <ele>669</ele>
        <time>2019-10-27T12:21:42.000Z</time>
      </trkpt>
      <trkpt lat="45.58041" lon="5.73224">
        <ele>669</ele>
        <time>2019-10-27T12:21:43.000Z</time>
      </trkpt>
      <trkpt lat="45.58041" lon="5.73223">
        <ele>669</ele>
        <time>2019-10-27T12:21:44.000Z</time>
      </trkpt>
      <trkpt lat="45.58042" lon="5.73221">
        <ele>669</ele>
        <time>2019-10-27T12:21:45.000Z</time>
      </trkpt>
      <trkpt lat="45.58042" lon="5.7322">
        <ele>669</ele>
        <time>2019-10-27T12:21:46.000Z</time>
      </trkpt>
      <trkpt lat="45.58043" lon="5.73218">
        <ele>669</ele>
        <time>2019-10-27T12:21:47.000Z</time>
      </trkpt>
      <trkpt lat="45.58044" lon="5.73217">
        <ele>669</ele>
        <time>2019-10-27T12:21:48.000Z</time>
      </trkpt>
      <trkpt lat="45.58045" lon="5.73215">
        <ele>669</ele>
        <time>2019-10-27T12:21:49.000Z</time>
      </trkpt>
      <trkpt lat="45.58046" lon="5.73214">
        <ele>669</ele>
        <time>2019-10-27T12:21:50.000Z</time>
      </trkpt>
      <trkpt lat="45.58047" lon="5.73212">
        <ele>669</ele>
        <time>2019-10-27T12:21:51.000Z</time>
      </trkpt>
      <trkpt lat="45.58048" lon="5.73211">
        <ele>669</ele>
        <time>2019-10-27T12:21:52.000Z</time>
      </trkpt>
      <trkpt lat="45.58049" lon="5.7321">
        <ele>669</ele>
        <time>2019-10-27T12:21:53.000Z</time>
      </trkpt>
      <trkpt lat="45.58049" lon="5.73209">
        <ele>668.5</ele>
        <time>2019-10-27T12:21:54.000Z</time>
      </trkpt>
      <trkpt lat="45.5805" lon="5.73208">
        <ele>668</ele>
        <time>2019-10-27T12:21:55.000Z</time>
      </trkpt>
      <trkpt lat="45.58051" lon="5.73207">
        <ele>668</ele>
        <time>2019-10-27T12:21:56.000Z</time>
      </trkpt>
      <trkpt lat="45.58051" lon="5.73206">
        <ele>668</ele>
        <time>2019-10-27T12:21:57.000Z</time>
      </trkpt>
      <trkpt lat="45.58051" lon="5.73206">
        <ele>668</ele>
        <time>2019-10-27T12:21:58.000Z</time>
      </trkpt>
      <trkpt lat="45.58051" lon="5.73206">
        <ele>668</ele>
        <time>2019-10-27T12:21:59.000Z</time>
      </trkpt>
      <trkpt lat="45.58051" lon="5.73205">
        <ele>668</ele>
        <time>2019-10-27T12:22:00.000Z</time>
      </trkpt>
      <trkpt lat="45.58051" lon="5.73205">
        <ele>668</ele>
        <time>2019-10-27T12:22:01.000Z</time>
      </trkpt>
      <trkpt lat="45.58051" lon="5.73205">
        <ele>668</ele>
        <time>2019-10-27T12:22:02.000Z</time>
      </trkpt>
      <trkpt lat="45.58051" lon="5.73205">
        <ele>668</ele>
        <time>2019-10-27T12:22:03.000Z</time>
      </trkpt>
      <trkpt lat="45.58051" lon="5.73205">
        <ele>668</ele>
        <time>2019-10-27T12:22:04.000Z</time>
      </trkpt>
      <trkpt lat="45.58051" lon="5.73205">
        <ele>668</ele>
        <time>2019-10-27T12:22:05.000Z</time>
      </trkpt>
      <trkpt lat="45.58051" lon="5.73205">
        <ele>668</ele>
        <time>2019-10-27T12:22:06.000Z</time>
      </trkpt>
      <trkpt lat="45.58051" lon="5.73205">
        <ele>668</ele>
        <time>2019-10-27T12:22:07.000Z</time>
      </trkpt>
      <trkpt lat="45.58051" lon="5.73205">
        <ele>668</ele>
        <time>2019-10-27T12:22:08.000Z</time>
      </trkpt>
      <trkpt lat="45.58052" lon="5.73204">
        <ele>668</ele>
        <time>2019-10-27T12:22:09.000Z</time>
      </trkpt>
      <trkpt lat="45.58052" lon="5.73203">
        <ele>668</ele>
        <time>2019-10-27T12:22:10.000Z</time>
      </trkpt>
      <trkpt lat="45.58054" lon="5.732">
        <ele>668</ele>
        <time>2019-10-27T12:22:11.000Z</time>
      </trkpt>
      <trkpt lat="45.58055" lon="5.73197">
        <ele>668</ele>
        <time>2019-10-27T12:22:12.000Z</time>
      </trkpt>
      <trkpt lat="45.58057" lon="5.73195">
        <ele>668</ele>
        <time>2019-10-27T12:22:13.000Z</time>
      </trkpt>
      <trkpt lat="45.58058" lon="5.73194">
        <ele>668</ele>
        <time>2019-10-27T12:22:14.000Z</time>
      </trkpt>
      <trkpt lat="45.58059" lon="5.73193">
        <ele>668</ele>
        <time>2019-10-27T12:22:15.000Z</time>
      </trkpt>
      <trkpt lat="45.5806" lon="5.73192">
        <ele>668</ele>
        <time>2019-10-27T12:22:16.000Z</time>
      </trkpt>
      <trkpt lat="45.58061" lon="5.73191">
        <ele>668</ele>
        <time>2019-10-27T12:22:17.000Z</time>
      </trkpt>
      <trkpt lat="45.58062" lon="5.7319">
        <ele>668</ele>
        <time>2019-10-27T12:22:18.000Z</time>
      </trkpt>
      <trkpt lat="45.58063" lon="5.73189">
        <ele>668</ele>
        <time>2019-10-27T12:22:19.000Z</time>
      </trkpt>
      <trkpt lat="45.58063" lon="5.73188">
        <ele>668</ele>
        <time>2019-10-27T12:22:20.000Z</time>
      </trkpt>
      <trkpt lat="45.58064" lon="5.73188">
        <ele>668</ele>
        <time>2019-10-27T12:22:21.000Z</time>
      </trkpt>
      <trkpt lat="45.58065" lon="5.73187">
        <ele>668</ele>
        <time>2019-10-27T12:22:22.000Z</time>
      </trkpt>
      <trkpt lat="45.58066" lon="5.73186">
        <ele>668</ele>
        <time>2019-10-27T12:22:23.000Z</time>
      </trkpt>
      <trkpt lat="45.58067" lon="5.73185">
        <ele>668</ele>
        <time>2019-10-27T12:22:24.000Z</time>
      </trkpt>
      <trkpt lat="45.58068" lon="5.73184">
        <ele>667.7</ele>
        <time>2019-10-27T12:22:25.000Z</time>
      </trkpt>
      <trkpt lat="45.58068" lon="5.73184">
        <ele>667.3</ele>
        <time>2019-10-27T12:22:26.000Z</time>
      </trkpt>
      <trkpt lat="45.58069" lon="5.73183">
        <ele>667</ele>
        <time>2019-10-27T12:22:27.000Z</time>
      </trkpt>
      <trkpt lat="45.5807" lon="5.73182">
        <ele>667</ele>
        <time>2019-10-27T12:22:28.000Z</time>
      </trkpt>
      <trkpt lat="45.58071" lon="5.73182">
        <ele>667</ele>
        <time>2019-10-27T12:22:29.000Z</time>
      </trkpt>
      <trkpt lat="45.58071" lon="5.73181">
        <ele>667</ele>
        <time>2019-10-27T12:22:30.000Z</time>
      </trkpt>
      <trkpt lat="45.58072" lon="5.7318">
        <ele>667</ele>
        <time>2019-10-27T12:22:31.000Z</time>
      </trkpt>
      <trkpt lat="45.58073" lon="5.7318">
        <ele>667</ele>
        <time>2019-10-27T12:22:32.000Z</time>
      </trkpt>
      <trkpt lat="45.58074" lon="5.73179">
        <ele>667</ele>
        <time>2019-10-27T12:22:33.000Z</time>
      </trkpt>
      <trkpt lat="45.58074" lon="5.73178">
        <ele>667</ele>
        <time>2019-10-27T12:22:34.000Z</time>
      </trkpt>
      <trkpt lat="45.58075" lon="5.73178">
        <ele>667</ele>
        <time>2019-10-27T12:22:35.000Z</time>
      </trkpt>
      <trkpt lat="45.58076" lon="5.73177">
        <ele>667</ele>
        <time>2019-10-27T12:22:36.000Z</time>
      </trkpt>
      <trkpt lat="45.58077" lon="5.73177">
        <ele>667</ele>
        <time>2019-10-27T12:22:37.000Z</time>
      </trkpt>
      <trkpt lat="45.58078" lon="5.73177">
        <ele>667</ele>
        <time>2019-10-27T12:22:38.000Z</time>
      </trkpt>
      <trkpt lat="45.58079" lon="5.73176">
        <ele>667</ele>
        <time>2019-10-27T12:22:39.000Z</time>
      </trkpt>
      <trkpt lat="45.5808" lon="5.73176">
        <ele>666</ele>
        <time>2019-10-27T12:22:40.000Z</time>
      </trkpt>
      <trkpt lat="45.58081" lon="5.73176">
        <ele>666</ele>
        <time>2019-10-27T12:22:41.000Z</time>
      </trkpt>
      <trkpt lat="45.58082" lon="5.73175">
        <ele>666</ele>
        <time>2019-10-27T12:22:42.000Z</time>
      </trkpt>
      <trkpt lat="45.58083" lon="5.73175">
        <ele>666</ele>
        <time>2019-10-27T12:22:43.000Z</time>
      </trkpt>
      <trkpt lat="45.58084" lon="5.73174">
        <ele>666</ele>
        <time>2019-10-27T12:22:44.000Z</time>
      </trkpt>
      <trkpt lat="45.58085" lon="5.73174">
        <ele>666</ele>
        <time>2019-10-27T12:22:45.000Z</time>
      </trkpt>
      <trkpt lat="45.58086" lon="5.73173">
        <ele>666</ele>
        <time>2019-10-27T12:22:46.000Z</time>
      </trkpt>
      <trkpt lat="45.58087" lon="5.73173">
        <ele>666</ele>
        <time>2019-10-27T12:22:47.000Z</time>
      </trkpt>
      <trkpt lat="45.58088" lon="5.73172">
        <ele>666</ele>
        <time>2019-10-27T12:22:48.000Z</time>
      </trkpt>
      <trkpt lat="45.58089" lon="5.73172">
        <ele>665.7</ele>
        <time>2019-10-27T12:22:49.000Z</time>
      </trkpt>
      <trkpt lat="45.5809" lon="5.73172">
        <ele>665.3</ele>
        <time>2019-10-27T12:22:50.000Z</time>
      </trkpt>
      <trkpt lat="45.58091" lon="5.73171">
        <ele>665</ele>
        <time>2019-10-27T12:22:51.000Z</time>
      </trkpt>
      <trkpt lat="45.58092" lon="5.73171">
        <ele>665</ele>
        <time>2019-10-27T12:22:52.000Z</time>
      </trkpt>
      <trkpt lat="45.58093" lon="5.73171">
        <ele>665</ele>
        <time>2019-10-27T12:22:53.000Z</time>
      </trkpt>
      <trkpt lat="45.58094" lon="5.7317">
        <ele>665</ele>
        <time>2019-10-27T12:22:54.000Z</time>
      </trkpt>
      <trkpt lat="45.58096" lon="5.7317">
        <ele>665</ele>
        <time>2019-10-27T12:22:55.000Z</time>
      </trkpt>
      <trkpt lat="45.58097" lon="5.73169">
        <ele>665</ele>
        <time>2019-10-27T12:22:56.000Z</time>
      </trkpt>
      <trkpt lat="45.58098" lon="5.73169">
        <ele>665</ele>
        <time>2019-10-27T12:22:57.000Z</time>
      </trkpt>
      <trkpt lat="45.58098" lon="5.73169">
        <ele>665</ele>
        <time>2019-10-27T12:22:58.000Z</time>
      </trkpt>
      <trkpt lat="45.58099" lon="5.73169">
        <ele>665</ele>
        <time>2019-10-27T12:22:59.000Z</time>
      </trkpt>
      <trkpt lat="45.581" lon="5.73169">
        <ele>665</ele>
        <time>2019-10-27T12:23:00.000Z</time>
      </trkpt>
      <trkpt lat="45.58101" lon="5.73169">
        <ele>665</ele>
        <time>2019-10-27T12:23:01.000Z</time>
      </trkpt>
      <trkpt lat="45.58102" lon="5.73168">
        <ele>665</ele>
        <time>2019-10-27T12:23:02.000Z</time>
      </trkpt>
      <trkpt lat="45.58103" lon="5.73168">
        <ele>665</ele>
        <time>2019-10-27T12:23:03.000Z</time>
      </trkpt>
      <trkpt lat="45.58104" lon="5.73169">
        <ele>665</ele>
        <time>2019-10-27T12:23:04.000Z</time>
      </trkpt>
      <trkpt lat="45.58105" lon="5.73169">
        <ele>665</ele>
        <time>2019-10-27T12:23:05.000Z</time>
      </trkpt>
      <trkpt lat="45.58106" lon="5.73169">
        <ele>665</ele>
        <time>2019-10-27T12:23:06.000Z</time>
      </trkpt>
      <trkpt lat="45.58107" lon="5.73169">
        <ele>665</ele>
        <time>2019-10-27T12:23:07.000Z</time>
      </trkpt>
      <trkpt lat="45.58108" lon="5.73169">
        <ele>664.5</ele>
        <time>2019-10-27T12:23:08.000Z</time>
      </trkpt>
      <trkpt lat="45.58109" lon="5.7317">
        <ele>664</ele>
        <time>2019-10-27T12:23:09.000Z</time>
      </trkpt>
      <trkpt lat="45.5811" lon="5.73169">
        <ele>664</ele>
        <time>2019-10-27T12:23:10.000Z</time>
      </trkpt>
      <trkpt lat="45.58111" lon="5.73169">
        <ele>664</ele>
        <time>2019-10-27T12:23:11.000Z</time>
      </trkpt>
      <trkpt lat="45.58112" lon="5.73169">
        <ele>664</ele>
        <time>2019-10-27T12:23:12.000Z</time>
      </trkpt>
      <trkpt lat="45.58113" lon="5.73169">
        <ele>664</ele>
        <time>2019-10-27T12:23:13.000Z</time>
      </trkpt>
      <trkpt lat="45.58114" lon="5.73169">
        <ele>664</ele>
        <time>2019-10-27T12:23:14.000Z</time>
      </trkpt>
      <trkpt lat="45.58115" lon="5.73169">
        <ele>664</ele>
        <time>2019-10-27T12:23:15.000Z</time>
      </trkpt>
      <trkpt lat="45.58116" lon="5.73169">
        <ele>664</ele>
        <time>2019-10-27T12:23:16.000Z</time>
      </trkpt>
      <trkpt lat="45.58117" lon="5.73169">
        <ele>663.7</ele>
        <time>2019-10-27T12:23:17.000Z</time>
      </trkpt>
      <trkpt lat="45.58117" lon="5.73169">
        <ele>663.3</ele>
        <time>2019-10-27T12:23:18.000Z</time>
      </trkpt>
      <trkpt lat="45.58118" lon="5.73169">
        <ele>663</ele>
        <time>2019-10-27T12:23:19.000Z</time>
      </trkpt>
      <trkpt lat="45.58119" lon="5.73169">
        <ele>663</ele>
        <time>2019-10-27T12:23:20.000Z</time>
      </trkpt>
      <trkpt lat="45.58119" lon="5.7317">
        <ele>663</ele>
        <time>2019-10-27T12:23:21.000Z</time>
      </trkpt>
      <trkpt lat="45.5812" lon="5.7317">
        <ele>663</ele>
        <time>2019-10-27T12:23:22.000Z</time>
      </trkpt>
      <trkpt lat="45.58121" lon="5.73171">
        <ele>663</ele>
        <time>2019-10-27T12:23:23.000Z</time>
      </trkpt>
      <trkpt lat="45.58121" lon="5.73171">
        <ele>663</ele>
        <time>2019-10-27T12:23:24.000Z</time>
      </trkpt>
      <trkpt lat="45.58122" lon="5.73172">
        <ele>663</ele>
        <time>2019-10-27T12:23:25.000Z</time>
      </trkpt>
      <trkpt lat="45.58123" lon="5.73172">
        <ele>662.5</ele>
        <time>2019-10-27T12:23:26.000Z</time>
      </trkpt>
      <trkpt lat="45.58124" lon="5.73173">
        <ele>662</ele>
        <time>2019-10-27T12:23:27.000Z</time>
      </trkpt>
      <trkpt lat="45.58125" lon="5.73173">
        <ele>662</ele>
        <time>2019-10-27T12:23:28.000Z</time>
      </trkpt>
      <trkpt lat="45.58126" lon="5.73173">
        <ele>662</ele>
        <time>2019-10-27T12:23:29.000Z</time>
      </trkpt>
      <trkpt lat="45.58127" lon="5.73174">
        <ele>662</ele>
        <time>2019-10-27T12:23:30.000Z</time>
      </trkpt>
      <trkpt lat="45.58127" lon="5.73174">
        <ele>662</ele>
        <time>2019-10-27T12:23:31.000Z</time>
      </trkpt>
      <trkpt lat="45.58128" lon="5.73175">
        <ele>662</ele>
        <time>2019-10-27T12:23:32.000Z</time>
      </trkpt>
      <trkpt lat="45.58129" lon="5.73175">
        <ele>662</ele>
        <time>2019-10-27T12:23:33.000Z</time>
      </trkpt>
      <trkpt lat="45.5813" lon="5.73176">
        <ele>662</ele>
        <time>2019-10-27T12:23:34.000Z</time>
      </trkpt>
      <trkpt lat="45.58131" lon="5.73176">
        <ele>662</ele>
        <time>2019-10-27T12:23:35.000Z</time>
      </trkpt>
      <trkpt lat="45.58132" lon="5.73177">
        <ele>661</ele>
        <time>2019-10-27T12:23:36.000Z</time>
      </trkpt>
      <trkpt lat="45.58132" lon="5.73177">
        <ele>661</ele>
        <time>2019-10-27T12:23:37.000Z</time>
      </trkpt>
      <trkpt lat="45.58133" lon="5.73177">
        <ele>661</ele>
        <time>2019-10-27T12:23:38.000Z</time>
      </trkpt>
      <trkpt lat="45.58134" lon="5.73178">
        <ele>661</ele>
        <time>2019-10-27T12:23:39.000Z</time>
      </trkpt>
      <trkpt lat="45.58135" lon="5.73178">
        <ele>661</ele>
        <time>2019-10-27T12:23:40.000Z</time>
      </trkpt>
      <trkpt lat="45.58136" lon="5.73178">
        <ele>661</ele>
        <time>2019-10-27T12:23:41.000Z</time>
      </trkpt>
      <trkpt lat="45.58137" lon="5.73178">
        <ele>661</ele>
        <time>2019-10-27T12:23:42.000Z</time>
      </trkpt>
      <trkpt lat="45.58138" lon="5.73178">
        <ele>661</ele>
        <time>2019-10-27T12:23:43.000Z</time>
      </trkpt>
      <trkpt lat="45.58139" lon="5.73178">
        <ele>661</ele>
        <time>2019-10-27T12:23:44.000Z</time>
      </trkpt>
      <trkpt lat="45.58141" lon="5.73178">
        <ele>661</ele>
        <time>2019-10-27T12:23:45.000Z</time>
      </trkpt>
      <trkpt lat="45.58142" lon="5.73177">
        <ele>661</ele>
        <time>2019-10-27T12:23:46.000Z</time>
      </trkpt>
      <trkpt lat="45.58143" lon="5.73177">
        <ele>661</ele>
        <time>2019-10-27T12:23:47.000Z</time>
      </trkpt>
      <trkpt lat="45.58144" lon="5.73177">
        <ele>660</ele>
        <time>2019-10-27T12:23:48.000Z</time>
      </trkpt>
      <trkpt lat="45.58145" lon="5.73176">
        <ele>660</ele>
        <time>2019-10-27T12:23:49.000Z</time>
      </trkpt>
      <trkpt lat="45.58146" lon="5.73176">
        <ele>660</ele>
        <time>2019-10-27T12:23:50.000Z</time>
      </trkpt>
      <trkpt lat="45.58146" lon="5.73176">
        <ele>660</ele>
        <time>2019-10-27T12:23:51.000Z</time>
      </trkpt>
      <trkpt lat="45.58146" lon="5.73176">
        <ele>660</ele>
        <time>2019-10-27T12:23:52.000Z</time>
      </trkpt>
      <trkpt lat="45.58147" lon="5.73176">
        <ele>660</ele>
        <time>2019-10-27T12:23:53.000Z</time>
      </trkpt>
      <trkpt lat="45.58149" lon="5.73176">
        <ele>660</ele>
        <time>2019-10-27T12:23:54.000Z</time>
      </trkpt>
      <trkpt lat="45.5815" lon="5.73175">
        <ele>660</ele>
        <time>2019-10-27T12:23:55.000Z</time>
      </trkpt>
      <trkpt lat="45.58151" lon="5.73175">
        <ele>660</ele>
        <time>2019-10-27T12:23:56.000Z</time>
      </trkpt>
      <trkpt lat="45.58153" lon="5.73175">
        <ele>660</ele>
        <time>2019-10-27T12:23:57.000Z</time>
      </trkpt>
      <trkpt lat="45.58154" lon="5.73174">
        <ele>660</ele>
        <time>2019-10-27T12:23:58.000Z</time>
      </trkpt>
      <trkpt lat="45.58156" lon="5.73174">
        <ele>660</ele>
        <time>2019-10-27T12:23:59.000Z</time>
      </trkpt>
      <trkpt lat="45.58157" lon="5.73174">
        <ele>660</ele>
        <time>2019-10-27T12:24:00.000Z</time>
      </trkpt>
      <trkpt lat="45.58158" lon="5.73173">
        <ele>660</ele>
        <time>2019-10-27T12:24:01.000Z</time>
      </trkpt>
      <trkpt lat="45.58159" lon="5.73173">
        <ele>660</ele>
        <time>2019-10-27T12:24:02.000Z</time>
      </trkpt>
      <trkpt lat="45.5816" lon="5.73173">
        <ele>660</ele>
        <time>2019-10-27T12:24:03.000Z</time>
      </trkpt>
      <trkpt lat="45.58161" lon="5.73172">
        <ele>660</ele>
        <time>2019-10-27T12:24:04.000Z</time>
      </trkpt>
      <trkpt lat="45.58162" lon="5.73172">
        <ele>659.5</ele>
        <time>2019-10-27T12:24:05.000Z</time>
      </trkpt>
      <trkpt lat="45.58162" lon="5.73172">
        <ele>659</ele>
        <time>2019-10-27T12:24:06.000Z</time>
      </trkpt>
      <trkpt lat="45.58163" lon="5.73172">
        <ele>659</ele>
        <time>2019-10-27T12:24:07.000Z</time>
      </trkpt>
      <trkpt lat="45.58163" lon="5.73172">
        <ele>659</ele>
        <time>2019-10-27T12:24:08.000Z</time>
      </trkpt>
      <trkpt lat="45.58163" lon="5.73172">
        <ele>659</ele>
        <time>2019-10-27T12:24:09.000Z</time>
      </trkpt>
      <trkpt lat="45.58163" lon="5.73172">
        <ele>659</ele>
        <time>2019-10-27T12:24:10.000Z</time>
      </trkpt>
      <trkpt lat="45.58163" lon="5.73172">
        <ele>659</ele>
        <time>2019-10-27T12:24:11.000Z</time>
      </trkpt>
      <trkpt lat="45.58163" lon="5.73172">
        <ele>659</ele>
        <time>2019-10-27T12:24:12.000Z</time>
      </trkpt>
      <trkpt lat="45.58164" lon="5.73172">
        <ele>659</ele>
        <time>2019-10-27T12:24:13.000Z</time>
      </trkpt>
      <trkpt lat="45.58166" lon="5.73171">
        <ele>659</ele>
        <time>2019-10-27T12:24:14.000Z</time>
      </trkpt>
      <trkpt lat="45.58168" lon="5.73171">
        <ele>659</ele>
        <time>2019-10-27T12:24:15.000Z</time>
      </trkpt>
      <trkpt lat="45.58169" lon="5.7317">
        <ele>659</ele>
        <time>2019-10-27T12:24:16.000Z</time>
      </trkpt>
      <trkpt lat="45.5817" lon="5.73169">
        <ele>659</ele>
        <time>2019-10-27T12:24:17.000Z</time>
      </trkpt>
      <trkpt lat="45.58171" lon="5.73169">
        <ele>659</ele>
        <time>2019-10-27T12:24:18.000Z</time>
      </trkpt>
      <trkpt lat="45.58172" lon="5.73169">
        <ele>659</ele>
        <time>2019-10-27T12:24:19.000Z</time>
      </trkpt>
      <trkpt lat="45.58173" lon="5.73169">
        <ele>659</ele>
        <time>2019-10-27T12:24:20.000Z</time>
      </trkpt>
      <trkpt lat="45.58173" lon="5.73169">
        <ele>659</ele>
        <time>2019-10-27T12:24:21.000Z</time>
      </trkpt>
      <trkpt lat="45.58174" lon="5.73169">
        <ele>658</ele>
        <time>2019-10-27T12:24:22.000Z</time>
      </trkpt>
      <trkpt lat="45.58176" lon="5.73169">
        <ele>658</ele>
        <time>2019-10-27T12:24:23.000Z</time>
      </trkpt>
      <trkpt lat="45.58177" lon="5.73169">
        <ele>658</ele>
        <time>2019-10-27T12:24:24.000Z</time>
      </trkpt>
      <trkpt lat="45.58179" lon="5.73169">
        <ele>658</ele>
        <time>2019-10-27T12:24:25.000Z</time>
      </trkpt>
      <trkpt lat="45.5818" lon="5.73169">
        <ele>658</ele>
        <time>2019-10-27T12:24:26.000Z</time>
      </trkpt>
      <trkpt lat="45.58181" lon="5.73168">
        <ele>658</ele>
        <time>2019-10-27T12:24:27.000Z</time>
      </trkpt>
      <trkpt lat="45.58182" lon="5.73168">
        <ele>658</ele>
        <time>2019-10-27T12:24:28.000Z</time>
      </trkpt>
      <trkpt lat="45.58182" lon="5.73168">
        <ele>658</ele>
        <time>2019-10-27T12:24:29.000Z</time>
      </trkpt>
      <trkpt lat="45.58182" lon="5.73168">
        <ele>658</ele>
        <time>2019-10-27T12:24:30.000Z</time>
      </trkpt>
      <trkpt lat="45.58182" lon="5.73168">
        <ele>658</ele>
        <time>2019-10-27T12:24:31.000Z</time>
      </trkpt>
      <trkpt lat="45.58182" lon="5.73168">
        <ele>658</ele>
        <time>2019-10-27T12:24:32.000Z</time>
      </trkpt>
      <trkpt lat="45.58182" lon="5.73168">
        <ele>658</ele>
        <time>2019-10-27T12:24:33.000Z</time>
      </trkpt>
      <trkpt lat="45.58182" lon="5.73168">
        <ele>658</ele>
        <time>2019-10-27T12:24:34.000Z</time>
      </trkpt>
      <trkpt lat="45.58183" lon="5.73168">
        <ele>658</ele>
        <time>2019-10-27T12:24:35.000Z</time>
      </trkpt>
      <trkpt lat="45.58183" lon="5.73168">
        <ele>658</ele>
        <time>2019-10-27T12:24:36.000Z</time>
      </trkpt>
      <trkpt lat="45.58183" lon="5.73168">
        <ele>658</ele>
        <time>2019-10-27T12:24:37.000Z</time>
      </trkpt>
      <trkpt lat="45.58184" lon="5.73167">
        <ele>658</ele>
        <time>2019-10-27T12:24:38.000Z</time>
      </trkpt>
      <trkpt lat="45.58185" lon="5.73166">
        <ele>658</ele>
        <time>2019-10-27T12:24:39.000Z</time>
      </trkpt>
      <trkpt lat="45.58187" lon="5.73165">
        <ele>658</ele>
        <time>2019-10-27T12:24:40.000Z</time>
      </trkpt>
      <trkpt lat="45.58188" lon="5.73164">
        <ele>658</ele>
        <time>2019-10-27T12:24:41.000Z</time>
      </trkpt>
      <trkpt lat="45.5819" lon="5.73163">
        <ele>658</ele>
        <time>2019-10-27T12:24:42.000Z</time>
      </trkpt>
      <trkpt lat="45.5819" lon="5.73162">
        <ele>658</ele>
        <time>2019-10-27T12:24:43.000Z</time>
      </trkpt>
      <trkpt lat="45.58191" lon="5.73161">
        <ele>657</ele>
        <time>2019-10-27T12:24:44.000Z</time>
      </trkpt>
      <trkpt lat="45.58192" lon="5.7316">
        <ele>657</ele>
        <time>2019-10-27T12:24:45.000Z</time>
      </trkpt>
      <trkpt lat="45.58192" lon="5.73159">
        <ele>657</ele>
        <time>2019-10-27T12:24:46.000Z</time>
      </trkpt>
      <trkpt lat="45.58192" lon="5.73158">
        <ele>657</ele>
        <time>2019-10-27T12:24:47.000Z</time>
      </trkpt>
      <trkpt lat="45.58193" lon="5.73157">
        <ele>657</ele>
        <time>2019-10-27T12:24:48.000Z</time>
      </trkpt>
      <trkpt lat="45.58193" lon="5.73156">
        <ele>657</ele>
        <time>2019-10-27T12:24:49.000Z</time>
      </trkpt>
      <trkpt lat="45.58193" lon="5.73154">
        <ele>657</ele>
        <time>2019-10-27T12:24:50.000Z</time>
      </trkpt>
      <trkpt lat="45.58193" lon="5.73153">
        <ele>657</ele>
        <time>2019-10-27T12:24:51.000Z</time>
      </trkpt>
      <trkpt lat="45.58194" lon="5.73151">
        <ele>657</ele>
        <time>2019-10-27T12:24:52.000Z</time>
      </trkpt>
      <trkpt lat="45.58194" lon="5.7315">
        <ele>657</ele>
        <time>2019-10-27T12:24:53.000Z</time>
      </trkpt>
      <trkpt lat="45.58195" lon="5.73148">
        <ele>657</ele>
        <time>2019-10-27T12:24:54.000Z</time>
      </trkpt>
      <trkpt lat="45.58196" lon="5.73147">
        <ele>657</ele>
        <time>2019-10-27T12:24:55.000Z</time>
      </trkpt>
      <trkpt lat="45.58196" lon="5.73146">
        <ele>657</ele>
        <time>2019-10-27T12:24:56.000Z</time>
      </trkpt>
      <trkpt lat="45.58196" lon="5.73145">
        <ele>657</ele>
        <time>2019-10-27T12:24:57.000Z</time>
      </trkpt>
      <trkpt lat="45.58197" lon="5.73145">
        <ele>656.5</ele>
        <time>2019-10-27T12:24:58.000Z</time>
      </trkpt>
      <trkpt lat="45.58197" lon="5.73144">
        <ele>656</ele>
        <time>2019-10-27T12:24:59.000Z</time>
      </trkpt>
      <trkpt lat="45.58197" lon="5.73144">
        <ele>656</ele>
        <time>2019-10-27T12:25:00.000Z</time>
      </trkpt>
      <trkpt lat="45.58197" lon="5.73144">
        <ele>656</ele>
        <time>2019-10-27T12:25:01.000Z</time>
      </trkpt>
      <trkpt lat="45.58197" lon="5.73144">
        <ele>656</ele>
        <time>2019-10-27T12:25:02.000Z</time>
      </trkpt>
      <trkpt lat="45.58197" lon="5.73144">
        <ele>656</ele>
        <time>2019-10-27T12:25:03.000Z</time>
      </trkpt>
      <trkpt lat="45.58197" lon="5.73143">
        <ele>656</ele>
        <time>2019-10-27T12:25:04.000Z</time>
      </trkpt>
      <trkpt lat="45.58198" lon="5.73142">
        <ele>656</ele>
        <time>2019-10-27T12:25:05.000Z</time>
      </trkpt>
      <trkpt lat="45.58198" lon="5.7314">
        <ele>656</ele>
        <time>2019-10-27T12:25:06.000Z</time>
      </trkpt>
      <trkpt lat="45.58199" lon="5.73139">
        <ele>656</ele>
        <time>2019-10-27T12:25:07.000Z</time>
      </trkpt>
      <trkpt lat="45.58199" lon="5.73137">
        <ele>656</ele>
        <time>2019-10-27T12:25:08.000Z</time>
      </trkpt>
      <trkpt lat="45.582" lon="5.73136">
        <ele>656</ele>
        <time>2019-10-27T12:25:09.000Z</time>
      </trkpt>
      <trkpt lat="45.58201" lon="5.73134">
        <ele>656</ele>
        <time>2019-10-27T12:25:10.000Z</time>
      </trkpt>
      <trkpt lat="45.58201" lon="5.73133">
        <ele>656</ele>
        <time>2019-10-27T12:25:11.000Z</time>
      </trkpt>
      <trkpt lat="45.58202" lon="5.73132">
        <ele>656</ele>
        <time>2019-10-27T12:25:12.000Z</time>
      </trkpt>
      <trkpt lat="45.58202" lon="5.73132">
        <ele>656</ele>
        <time>2019-10-27T12:25:13.000Z</time>
      </trkpt>
      <trkpt lat="45.58202" lon="5.73131">
        <ele>656</ele>
        <time>2019-10-27T12:25:14.000Z</time>
      </trkpt>
      <trkpt lat="45.58203" lon="5.7313">
        <ele>656</ele>
        <time>2019-10-27T12:25:15.000Z</time>
      </trkpt>
      <trkpt lat="45.58203" lon="5.7313">
        <ele>656</ele>
        <time>2019-10-27T12:25:16.000Z</time>
      </trkpt>
      <trkpt lat="45.58203" lon="5.73129">
        <ele>656</ele>
        <time>2019-10-27T12:25:17.000Z</time>
      </trkpt>
      <trkpt lat="45.58203" lon="5.73129">
        <ele>656</ele>
        <time>2019-10-27T12:25:18.000Z</time>
      </trkpt>
      <trkpt lat="45.58203" lon="5.73129">
        <ele>656</ele>
        <time>2019-10-27T12:25:19.000Z</time>
      </trkpt>
      <trkpt lat="45.58203" lon="5.73129">
        <ele>656</ele>
        <time>2019-10-27T12:25:20.000Z</time>
      </trkpt>
      <trkpt lat="45.58203" lon="5.73129">
        <ele>656</ele>
        <time>2019-10-27T12:25:21.000Z</time>
      </trkpt>
      <trkpt lat="45.58203" lon="5.73128">
        <ele>656</ele>
        <time>2019-10-27T12:25:22.000Z</time>
      </trkpt>
      <trkpt lat="45.58203" lon="5.73128">
        <ele>656</ele>
        <time>2019-10-27T12:25:23.000Z</time>
      </trkpt>
      <trkpt lat="45.58203" lon="5.73128">
        <ele>656</ele>
        <time>2019-10-27T12:25:24.000Z</time>
      </trkpt>
      <trkpt lat="45.58203" lon="5.73128">
        <ele>656</ele>
        <time>2019-10-27T12:25:25.000Z</time>
      </trkpt>
      <trkpt lat="45.58203" lon="5.73128">
        <ele>656</ele>
        <time>2019-10-27T12:25:26.000Z</time>
      </trkpt>
      <trkpt lat="45.58203" lon="5.73128">
        <ele>656</ele>
        <time>2019-10-27T12:25:27.000Z</time>
      </trkpt>
      <trkpt lat="45.58203" lon="5.73128">
        <ele>656</ele>
        <time>2019-10-27T12:25:28.000Z</time>
      </trkpt>
      <trkpt lat="45.58203" lon="5.73128">
        <ele>656</ele>
        <time>2019-10-27T12:25:29.000Z</time>
      </trkpt>
      <trkpt lat="45.58203" lon="5.73128">
        <ele>656</ele>
        <time>2019-10-27T12:25:30.000Z</time>
      </trkpt>
      <trkpt lat="45.58203" lon="5.73128">
        <ele>656</ele>
        <time>2019-10-27T12:25:31.000Z</time>
      </trkpt>
      <trkpt lat="45.58203" lon="5.73128">
        <ele>656</ele>
        <time>2019-10-27T12:25:32.000Z</time>
      </trkpt>
      <trkpt lat="45.58203" lon="5.73128">
        <ele>656</ele>
        <time>2019-10-27T12:25:33.000Z</time>
      </trkpt>
      <trkpt lat="45.58203" lon="5.73128">
        <ele>656</ele>
        <time>2019-10-27T12:25:34.000Z</time>
      </trkpt>
      <trkpt lat="45.58203" lon="5.73128">
        <ele>656</ele>
        <time>2019-10-27T12:25:35.000Z</time>
      </trkpt>
      <trkpt lat="45.58203" lon="5.73128">
        <ele>656</ele>
        <time>2019-10-27T12:25:36.000Z</time>
      </trkpt>
      <trkpt lat="45.58203" lon="5.73128">
        <ele>656</ele>
        <time>2019-10-27T12:25:37.000Z</time>
      </trkpt>
      <trkpt lat="45.58203" lon="5.73128">
        <ele>656</ele>
        <time>2019-10-27T12:25:38.000Z</time>
      </trkpt>
      <trkpt lat="45.58203" lon="5.73128">
        <ele>656</ele>
        <time>2019-10-27T12:25:39.000Z</time>
      </trkpt>
      <trkpt lat="45.58203" lon="5.73128">
        <ele>656</ele>
        <time>2019-10-27T12:25:40.000Z</time>
      </trkpt>
      <trkpt lat="45.58203" lon="5.73128">
        <ele>656</ele>
        <time>2019-10-27T12:25:41.000Z</time>
      </trkpt>
      <trkpt lat="45.58203" lon="5.73128">
        <ele>656</ele>
        <time>2019-10-27T12:25:42.000Z</time>
      </trkpt>
      <trkpt lat="45.58203" lon="5.73128">
        <ele>656</ele>
        <time>2019-10-27T12:25:43.000Z</time>
      </trkpt>
      <trkpt lat="45.58203" lon="5.73128">
        <ele>656</ele>
        <time>2019-10-27T12:25:44.000Z</time>
      </trkpt>
      <trkpt lat="45.58203" lon="5.73128">
        <ele>656</ele>
        <time>2019-10-27T12:25:45.000Z</time>
      </trkpt>
      <trkpt lat="45.58203" lon="5.73128">
        <ele>656</ele>
        <time>2019-10-27T12:25:46.000Z</time>
      </trkpt>
      <trkpt lat="45.58203" lon="5.73128">
        <ele>656</ele>
        <time>2019-10-27T12:25:47.000Z</time>
      </trkpt>
      <trkpt lat="45.58203" lon="5.73128">
        <ele>656</ele>
        <time>2019-10-27T12:25:48.000Z</time>
      </trkpt>
      <trkpt lat="45.58203" lon="5.73128">
        <ele>656</ele>
        <time>2019-10-27T12:25:49.000Z</time>
      </trkpt>
      <trkpt lat="45.58203" lon="5.73128">
        <ele>656</ele>
        <time>2019-10-27T12:25:50.000Z</time>
      </trkpt>
      <trkpt lat="45.58203" lon="5.73128">
        <ele>656</ele>
        <time>2019-10-27T12:25:51.000Z</time>
      </trkpt>
      <trkpt lat="45.58203" lon="5.73128">
        <ele>656</ele>
        <time>2019-10-27T12:25:52.000Z</time>
      </trkpt>
      <trkpt lat="45.58203" lon="5.73128">
        <ele>656</ele>
        <time>2019-10-27T12:25:53.000Z</time>
      </trkpt>
      <trkpt lat="45.58203" lon="5.73128">
        <ele>656</ele>
        <time>2019-10-27T12:25:54.000Z</time>
      </trkpt>
      <trkpt lat="45.58203" lon="5.73128">
        <ele>656</ele>
        <time>2019-10-27T12:25:55.000Z</time>
      </trkpt>
      <trkpt lat="45.58203" lon="5.73128">
        <ele>656</ele>
        <time>2019-10-27T12:25:56.000Z</time>
      </trkpt>
      <trkpt lat="45.58203" lon="5.73128">
        <ele>656</ele>
        <time>2019-10-27T12:25:57.000Z</time>
      </trkpt>
      <trkpt lat="45.58203" lon="5.73128">
        <ele>656</ele>
        <time>2019-10-27T12:25:58.000Z</time>
      </trkpt>
      <trkpt lat="45.58203" lon="5.73128">
        <ele>656</ele>
        <time>2019-10-27T12:25:59.000Z</time>
      </trkpt>
      <trkpt lat="45.58203" lon="5.73128">
        <ele>656</ele>
        <time>2019-10-27T12:26:00.000Z</time>
      </trkpt>
      <trkpt lat="45.58203" lon="5.73128">
        <ele>656</ele>
        <time>2019-10-27T12:26:01.000Z</time>
      </trkpt>
      <trkpt lat="45.58203" lon="5.73128">
        <ele>656</ele>
        <time>2019-10-27T12:26:02.000Z</time>
      </trkpt>
      <trkpt lat="45.58203" lon="5.73128">
        <ele>656</ele>
        <time>2019-10-27T12:26:03.000Z</time>
      </trkpt>
      <trkpt lat="45.58203" lon="5.73128">
        <ele>656</ele>
        <time>2019-10-27T12:26:04.000Z</time>
      </trkpt>
      <trkpt lat="45.58203" lon="5.73128">
        <ele>656</ele>
        <time>2019-10-27T12:26:05.000Z</time>
      </trkpt>
      <trkpt lat="45.58203" lon="5.73128">
        <ele>656</ele>
        <time>2019-10-27T12:26:06.000Z</time>
      </trkpt>
      <trkpt lat="45.58203" lon="5.73128">
        <ele>656</ele>
        <time>2019-10-27T12:26:07.000Z</time>
      </trkpt>
      <trkpt lat="45.58203" lon="5.73128">
        <ele>656</ele>
        <time>2019-10-27T12:26:08.000Z</time>
      </trkpt>
      <trkpt lat="45.58203" lon="5.73128">
        <ele>656</ele>
        <time>2019-10-27T12:26:09.000Z</time>
      </trkpt>
      <trkpt lat="45.58203" lon="5.73128">
        <ele>656</ele>
        <time>2019-10-27T12:26:10.000Z</time>
      </trkpt>
      <trkpt lat="45.58203" lon="5.73128">
        <ele>656</ele>
        <time>2019-10-27T12:26:11.000Z</time>
      </trkpt>
      <trkpt lat="45.58203" lon="5.73128">
        <ele>656</ele>
        <time>2019-10-27T12:26:12.000Z</time>
      </trkpt>
      <trkpt lat="45.58203" lon="5.73128">
        <ele>656</ele>
        <time>2019-10-27T12:26:13.000Z</time>
      </trkpt>
      <trkpt lat="45.58203" lon="5.73128">
        <ele>656</ele>
        <time>2019-10-27T12:26:14.000Z</time>
      </trkpt>
      <trkpt lat="45.58203" lon="5.73128">
        <ele>656</ele>
        <time>2019-10-27T12:26:15.000Z</time>
      </trkpt>
      <trkpt lat="45.58203" lon="5.73128">
        <ele>656</ele>
        <time>2019-10-27T12:26:16.000Z</time>
      </trkpt>
      <trkpt lat="45.58203" lon="5.73128">
        <ele>656</ele>
        <time>2019-10-27T12:26:17.000Z</time>
      </trkpt>
      <trkpt lat="45.58203" lon="5.73128">
        <ele>656</ele>
        <time>2019-10-27T12:26:18.000Z</time>
      </trkpt>
      <trkpt lat="45.58203" lon="5.73128">
        <ele>656</ele>
        <time>2019-10-27T12:26:19.000Z</time>
      </trkpt>
      <trkpt lat="45.58203" lon="5.73128">
        <ele>656</ele>
        <time>2019-10-27T12:26:20.000Z</time>
      </trkpt>
      <trkpt lat="45.58203" lon="5.73128">
        <ele>656</ele>
        <time>2019-10-27T12:26:21.000Z</time>
      </trkpt>
      <trkpt lat="45.58203" lon="5.73128">
        <ele>656</ele>
        <time>2019-10-27T12:26:22.000Z</time>
      </trkpt>
      <trkpt lat="45.58203" lon="5.73128">
        <ele>656</ele>
        <time>2019-10-27T12:26:23.000Z</time>
      </trkpt>
      <trkpt lat="45.58203" lon="5.73128">
        <ele>656</ele>
        <time>2019-10-27T12:26:24.000Z</time>
      </trkpt>
      <trkpt lat="45.58203" lon="5.73128">
        <ele>656</ele>
        <time>2019-10-27T12:26:25.000Z</time>
      </trkpt>
      <trkpt lat="45.58203" lon="5.73128">
        <ele>656</ele>
        <time>2019-10-27T12:26:26.000Z</time>
      </trkpt>
      <trkpt lat="45.58203" lon="5.73128">
        <ele>656</ele>
        <time>2019-10-27T12:26:27.000Z</time>
      </trkpt>
      <trkpt lat="45.58203" lon="5.73128">
        <ele>656</ele>
        <time>2019-10-27T12:26:28.000Z</time>
      </trkpt>
      <trkpt lat="45.58203" lon="5.73128">
        <ele>656</ele>
        <time>2019-10-27T12:26:29.000Z</time>
      </trkpt>
      <trkpt lat="45.58203" lon="5.73128">
        <ele>656</ele>
        <time>2019-10-27T12:26:30.000Z</time>
      </trkpt>
      <trkpt lat="45.58203" lon="5.73128">
        <ele>656</ele>
        <time>2019-10-27T12:26:31.000Z</time>
      </trkpt>
      <trkpt lat="45.58203" lon="5.73128">
        <ele>656</ele>
        <time>2019-10-27T12:26:32.000Z</time>
      </trkpt>
      <trkpt lat="45.58203" lon="5.73128">
        <ele>656</ele>
        <time>2019-10-27T12:26:33.000Z</time>
      </trkpt>
      <trkpt lat="45.58203" lon="5.73128">
        <ele>656</ele>
        <time>2019-10-27T12:26:34.000Z</time>
      </trkpt>
      <trkpt lat="45.58203" lon="5.73128">
        <ele>656</ele>
        <time>2019-10-27T12:26:35.000Z</time>
      </trkpt>
      <trkpt lat="45.58203" lon="5.73128">
        <ele>656</ele>
        <time>2019-10-27T12:26:36.000Z</time>
      </trkpt>
      <trkpt lat="45.58203" lon="5.73128">
        <ele>656</ele>
        <time>2019-10-27T12:26:37.000Z</time>
      </trkpt>
      <trkpt lat="45.58203" lon="5.73128">
        <ele>656</ele>
        <time>2019-10-27T12:26:38.000Z</time>
      </trkpt>
      <trkpt lat="45.58203" lon="5.73128">
        <ele>656</ele>
        <time>2019-10-27T12:26:39.000Z</time>
      </trkpt>
      <trkpt lat="45.58203" lon="5.73128">
        <ele>656</ele>
        <time>2019-10-27T12:26:40.000Z</time>
      </trkpt>
      <trkpt lat="45.58203" lon="5.73128">
        <ele>656</ele>
        <time>2019-10-27T12:26:41.000Z</time>
      </trkpt>
      <trkpt lat="45.58203" lon="5.73128">
        <ele>656</ele>
        <time>2019-10-27T12:26:42.000Z</time>
      </trkpt>
      <trkpt lat="45.58203" lon="5.73128">
        <ele>656</ele>
        <time>2019-10-27T12:26:43.000Z</time>
      </trkpt>
      <trkpt lat="45.58203" lon="5.73128">
        <ele>656</ele>
        <time>2019-10-27T12:26:44.000Z</time>
      </trkpt>
      <trkpt lat="45.58203" lon="5.73128">
        <ele>656</ele>
        <time>2019-10-27T12:26:45.000Z</time>
      </trkpt>
      <trkpt lat="45.58203" lon="5.73128">
        <ele>656</ele>
        <time>2019-10-27T12:26:46.000Z</time>
      </trkpt>
      <trkpt lat="45.58203" lon="5.73128">
        <ele>656</ele>
        <time>2019-10-27T12:26:47.000Z</time>
      </trkpt>
      <trkpt lat="45.58203" lon="5.73128">
        <ele>656</ele>
        <time>2019-10-27T12:26:48.000Z</time>
      </trkpt>
      <trkpt lat="45.58203" lon="5.73128">
        <ele>656</ele>
        <time>2019-10-27T12:26:49.000Z</time>
      </trkpt>
      <trkpt lat="45.58203" lon="5.73128">
        <ele>656</ele>
        <time>2019-10-27T12:26:50.000Z</time>
      </trkpt>
      <trkpt lat="45.58203" lon="5.73128">
        <ele>656</ele>
        <time>2019-10-27T12:26:51.000Z</time>
      </trkpt>
      <trkpt lat="45.58203" lon="5.73128">
        <ele>656</ele>
        <time>2019-10-27T12:26:52.000Z</time>
      </trkpt>
      <trkpt lat="45.58203" lon="5.73128">
        <ele>656</ele>
        <time>2019-10-27T12:26:53.000Z</time>
      </trkpt>
      <trkpt lat="45.58203" lon="5.73128">
        <ele>656</ele>
        <time>2019-10-27T12:26:54.000Z</time>
      </trkpt>
      <trkpt lat="45.58203" lon="5.73128">
        <ele>656</ele>
        <time>2019-10-27T12:26:55.000Z</time>
      </trkpt>
      <trkpt lat="45.58204" lon="5.73128">
        <ele>656</ele>
        <time>2019-10-27T12:26:56.000Z</time>
      </trkpt>
      <trkpt lat="45.58204" lon="5.73128">
        <ele>656</ele>
        <time>2019-10-27T12:26:57.000Z</time>
      </trkpt>
      <trkpt lat="45.58204" lon="5.73128">
        <ele>656</ele>
        <time>2019-10-27T12:26:58.000Z</time>
      </trkpt>
      <trkpt lat="45.58204" lon="5.73127">
        <ele>656</ele>
        <time>2019-10-27T12:26:59.000Z</time>
      </trkpt>
      <trkpt lat="45.58204" lon="5.73127">
        <ele>656</ele>
        <time>2019-10-27T12:27:00.000Z</time>
      </trkpt>
      <trkpt lat="45.58205" lon="5.73126">
        <ele>656</ele>
        <time>2019-10-27T12:27:01.000Z</time>
      </trkpt>
      <trkpt lat="45.58206" lon="5.73124">
        <ele>656</ele>
        <time>2019-10-27T12:27:02.000Z</time>
      </trkpt>
      <trkpt lat="45.58209" lon="5.7312">
        <ele>656</ele>
        <time>2019-10-27T12:27:03.000Z</time>
      </trkpt>
      <trkpt lat="45.5821" lon="5.73118">
        <ele>656</ele>
        <time>2019-10-27T12:27:04.000Z</time>
      </trkpt>
      <trkpt lat="45.58211" lon="5.73117">
        <ele>656</ele>
        <time>2019-10-27T12:27:05.000Z</time>
      </trkpt>
      <trkpt lat="45.58211" lon="5.73117">
        <ele>656</ele>
        <time>2019-10-27T12:27:06.000Z</time>
      </trkpt>
      <trkpt lat="45.58212" lon="5.73117">
        <ele>656</ele>
        <time>2019-10-27T12:27:07.000Z</time>
      </trkpt>
      <trkpt lat="45.58213" lon="5.73116">
        <ele>656</ele>
        <time>2019-10-27T12:27:08.000Z</time>
      </trkpt>
      <trkpt lat="45.58213" lon="5.73116">
        <ele>656</ele>
        <time>2019-10-27T12:27:09.000Z</time>
      </trkpt>
      <trkpt lat="45.58214" lon="5.73115">
        <ele>656</ele>
        <time>2019-10-27T12:27:10.000Z</time>
      </trkpt>
      <trkpt lat="45.58215" lon="5.73115">
        <ele>656</ele>
        <time>2019-10-27T12:27:11.000Z</time>
      </trkpt>
      <trkpt lat="45.58215" lon="5.73114">
        <ele>656</ele>
        <time>2019-10-27T12:27:12.000Z</time>
      </trkpt>
      <trkpt lat="45.58216" lon="5.73114">
        <ele>656</ele>
        <time>2019-10-27T12:27:13.000Z</time>
      </trkpt>
      <trkpt lat="45.58217" lon="5.73113">
        <ele>656</ele>
        <time>2019-10-27T12:27:14.000Z</time>
      </trkpt>
      <trkpt lat="45.58217" lon="5.73113">
        <ele>656</ele>
        <time>2019-10-27T12:27:15.000Z</time>
      </trkpt>
      <trkpt lat="45.58218" lon="5.73113">
        <ele>656</ele>
        <time>2019-10-27T12:27:16.000Z</time>
      </trkpt>
      <trkpt lat="45.58219" lon="5.73113">
        <ele>656</ele>
        <time>2019-10-27T12:27:17.000Z</time>
      </trkpt>
      <trkpt lat="45.5822" lon="5.73112">
        <ele>656</ele>
        <time>2019-10-27T12:27:18.000Z</time>
      </trkpt>
      <trkpt lat="45.58221" lon="5.73112">
        <ele>656</ele>
        <time>2019-10-27T12:27:19.000Z</time>
      </trkpt>
      <trkpt lat="45.58222" lon="5.73113">
        <ele>656</ele>
        <time>2019-10-27T12:27:20.000Z</time>
      </trkpt>
      <trkpt lat="45.58223" lon="5.73113">
        <ele>656</ele>
        <time>2019-10-27T12:27:21.000Z</time>
      </trkpt>
      <trkpt lat="45.58224" lon="5.73113">
        <ele>656</ele>
        <time>2019-10-27T12:27:22.000Z</time>
      </trkpt>
      <trkpt lat="45.58225" lon="5.73113">
        <ele>656</ele>
        <time>2019-10-27T12:27:23.000Z</time>
      </trkpt>
      <trkpt lat="45.58226" lon="5.73114">
        <ele>656</ele>
        <time>2019-10-27T12:27:24.000Z</time>
      </trkpt>
      <trkpt lat="45.58227" lon="5.73114">
        <ele>656</ele>
        <time>2019-10-27T12:27:25.000Z</time>
      </trkpt>
      <trkpt lat="45.58228" lon="5.73115">
        <ele>656</ele>
        <time>2019-10-27T12:27:26.000Z</time>
      </trkpt>
      <trkpt lat="45.58229" lon="5.73115">
        <ele>656</ele>
        <time>2019-10-27T12:27:27.000Z</time>
      </trkpt>
      <trkpt lat="45.58229" lon="5.73115">
        <ele>656</ele>
        <time>2019-10-27T12:27:28.000Z</time>
      </trkpt>
      <trkpt lat="45.5823" lon="5.73116">
        <ele>656</ele>
        <time>2019-10-27T12:27:29.000Z</time>
      </trkpt>
      <trkpt lat="45.58231" lon="5.73116">
        <ele>656</ele>
        <time>2019-10-27T12:27:30.000Z</time>
      </trkpt>
      <trkpt lat="45.58232" lon="5.73117">
        <ele>656</ele>
        <time>2019-10-27T12:27:31.000Z</time>
      </trkpt>
      <trkpt lat="45.58232" lon="5.73117">
        <ele>656</ele>
        <time>2019-10-27T12:27:32.000Z</time>
      </trkpt>
      <trkpt lat="45.58233" lon="5.73118">
        <ele>656</ele>
        <time>2019-10-27T12:27:33.000Z</time>
      </trkpt>
      <trkpt lat="45.58234" lon="5.73118">
        <ele>656</ele>
        <time>2019-10-27T12:27:34.000Z</time>
      </trkpt>
      <trkpt lat="45.58235" lon="5.73118">
        <ele>656</ele>
        <time>2019-10-27T12:27:35.000Z</time>
      </trkpt>
      <trkpt lat="45.58235" lon="5.73119">
        <ele>656</ele>
        <time>2019-10-27T12:27:36.000Z</time>
      </trkpt>
      <trkpt lat="45.58236" lon="5.73119">
        <ele>656</ele>
        <time>2019-10-27T12:27:37.000Z</time>
      </trkpt>
      <trkpt lat="45.58237" lon="5.7312">
        <ele>656</ele>
        <time>2019-10-27T12:27:38.000Z</time>
      </trkpt>
      <trkpt lat="45.58238" lon="5.7312">
        <ele>655.7</ele>
        <time>2019-10-27T12:27:39.000Z</time>
      </trkpt>
      <trkpt lat="45.58238" lon="5.73121">
        <ele>655.3</ele>
        <time>2019-10-27T12:27:40.000Z</time>
      </trkpt>
      <trkpt lat="45.58239" lon="5.73121">
        <ele>655</ele>
        <time>2019-10-27T12:27:41.000Z</time>
      </trkpt>
      <trkpt lat="45.5824" lon="5.73122">
        <ele>655</ele>
        <time>2019-10-27T12:27:42.000Z</time>
      </trkpt>
      <trkpt lat="45.58241" lon="5.73123">
        <ele>655</ele>
        <time>2019-10-27T12:27:43.000Z</time>
      </trkpt>
      <trkpt lat="45.58241" lon="5.73124">
        <ele>655</ele>
        <time>2019-10-27T12:27:44.000Z</time>
      </trkpt>
      <trkpt lat="45.58242" lon="5.73124">
        <ele>654.7</ele>
        <time>2019-10-27T12:27:45.000Z</time>
      </trkpt>
      <trkpt lat="45.58243" lon="5.73125">
        <ele>654.3</ele>
        <time>2019-10-27T12:27:46.000Z</time>
      </trkpt>
      <trkpt lat="45.58243" lon="5.73126">
        <ele>654</ele>
        <time>2019-10-27T12:27:47.000Z</time>
      </trkpt>
      <trkpt lat="45.58244" lon="5.73127">
        <ele>654</ele>
        <time>2019-10-27T12:27:48.000Z</time>
      </trkpt>
      <trkpt lat="45.58245" lon="5.73128">
        <ele>654</ele>
        <time>2019-10-27T12:27:49.000Z</time>
      </trkpt>
      <trkpt lat="45.58245" lon="5.73129">
        <ele>654</ele>
        <time>2019-10-27T12:27:50.000Z</time>
      </trkpt>
      <trkpt lat="45.58246" lon="5.7313">
        <ele>654</ele>
        <time>2019-10-27T12:27:51.000Z</time>
      </trkpt>
      <trkpt lat="45.58247" lon="5.73131">
        <ele>654</ele>
        <time>2019-10-27T12:27:52.000Z</time>
      </trkpt>
      <trkpt lat="45.58248" lon="5.73131">
        <ele>654</ele>
        <time>2019-10-27T12:27:53.000Z</time>
      </trkpt>
      <trkpt lat="45.58249" lon="5.73132">
        <ele>654</ele>
        <time>2019-10-27T12:27:54.000Z</time>
      </trkpt>
      <trkpt lat="45.5825" lon="5.73133">
        <ele>654</ele>
        <time>2019-10-27T12:27:55.000Z</time>
      </trkpt>
      <trkpt lat="45.58251" lon="5.73133">
        <ele>654</ele>
        <time>2019-10-27T12:27:56.000Z</time>
      </trkpt>
      <trkpt lat="45.58252" lon="5.73134">
        <ele>654</ele>
        <time>2019-10-27T12:27:57.000Z</time>
      </trkpt>
      <trkpt lat="45.58254" lon="5.73135">
        <ele>654</ele>
        <time>2019-10-27T12:27:58.000Z</time>
      </trkpt>
      <trkpt lat="45.58255" lon="5.73135">
        <ele>654</ele>
        <time>2019-10-27T12:27:59.000Z</time>
      </trkpt>
      <trkpt lat="45.58257" lon="5.73136">
        <ele>654</ele>
        <time>2019-10-27T12:28:00.000Z</time>
      </trkpt>
      <trkpt lat="45.58258" lon="5.73137">
        <ele>654</ele>
        <time>2019-10-27T12:28:01.000Z</time>
      </trkpt>
      <trkpt lat="45.58259" lon="5.73137">
        <ele>654</ele>
        <time>2019-10-27T12:28:02.000Z</time>
      </trkpt>
      <trkpt lat="45.58261" lon="5.73138">
        <ele>654</ele>
        <time>2019-10-27T12:28:03.000Z</time>
      </trkpt>
      <trkpt lat="45.58262" lon="5.73138">
        <ele>654</ele>
        <time>2019-10-27T12:28:04.000Z</time>
      </trkpt>
      <trkpt lat="45.58263" lon="5.73139">
        <ele>654</ele>
        <time>2019-10-27T12:28:05.000Z</time>
      </trkpt>
      <trkpt lat="45.58264" lon="5.73139">
        <ele>654</ele>
        <time>2019-10-27T12:28:06.000Z</time>
      </trkpt>
      <trkpt lat="45.58265" lon="5.73139">
        <ele>654</ele>
        <time>2019-10-27T12:28:07.000Z</time>
      </trkpt>
      <trkpt lat="45.58267" lon="5.7314">
        <ele>654</ele>
        <time>2019-10-27T12:28:08.000Z</time>
      </trkpt>
      <trkpt lat="45.58268" lon="5.7314">
        <ele>654</ele>
        <time>2019-10-27T12:28:09.000Z</time>
      </trkpt>
      <trkpt lat="45.58269" lon="5.73141">
        <ele>654</ele>
        <time>2019-10-27T12:28:10.000Z</time>
      </trkpt>
      <trkpt lat="45.5827" lon="5.73141">
        <ele>654</ele>
        <time>2019-10-27T12:28:11.000Z</time>
      </trkpt>
      <trkpt lat="45.58271" lon="5.73142">
        <ele>654</ele>
        <time>2019-10-27T12:28:12.000Z</time>
      </trkpt>
      <trkpt lat="45.58272" lon="5.73143">
        <ele>654</ele>
        <time>2019-10-27T12:28:13.000Z</time>
      </trkpt>
      <trkpt lat="45.58273" lon="5.73144">
        <ele>654</ele>
        <time>2019-10-27T12:28:14.000Z</time>
      </trkpt>
      <trkpt lat="45.58274" lon="5.73144">
        <ele>654</ele>
        <time>2019-10-27T12:28:15.000Z</time>
      </trkpt>
      <trkpt lat="45.58275" lon="5.73145">
        <ele>653</ele>
        <time>2019-10-27T12:28:16.000Z</time>
      </trkpt>
      <trkpt lat="45.58276" lon="5.73146">
        <ele>653</ele>
        <time>2019-10-27T12:28:17.000Z</time>
      </trkpt>
      <trkpt lat="45.58277" lon="5.73147">
        <ele>653</ele>
        <time>2019-10-27T12:28:18.000Z</time>
      </trkpt>
      <trkpt lat="45.58278" lon="5.73148">
        <ele>653</ele>
        <time>2019-10-27T12:28:19.000Z</time>
      </trkpt>
      <trkpt lat="45.58279" lon="5.73148">
        <ele>653</ele>
        <time>2019-10-27T12:28:20.000Z</time>
      </trkpt>
      <trkpt lat="45.5828" lon="5.73149">
        <ele>653</ele>
        <time>2019-10-27T12:28:21.000Z</time>
      </trkpt>
      <trkpt lat="45.58281" lon="5.7315">
        <ele>653</ele>
        <time>2019-10-27T12:28:22.000Z</time>
      </trkpt>
      <trkpt lat="45.58283" lon="5.7315">
        <ele>653</ele>
        <time>2019-10-27T12:28:23.000Z</time>
      </trkpt>
      <trkpt lat="45.58284" lon="5.73151">
        <ele>653</ele>
        <time>2019-10-27T12:28:24.000Z</time>
      </trkpt>
      <trkpt lat="45.58285" lon="5.73151">
        <ele>653</ele>
        <time>2019-10-27T12:28:25.000Z</time>
      </trkpt>
      <trkpt lat="45.58286" lon="5.73152">
        <ele>653</ele>
        <time>2019-10-27T12:28:26.000Z</time>
      </trkpt>
      <trkpt lat="45.58287" lon="5.73153">
        <ele>653</ele>
        <time>2019-10-27T12:28:27.000Z</time>
      </trkpt>
      <trkpt lat="45.58288" lon="5.73153">
        <ele>653</ele>
        <time>2019-10-27T12:28:28.000Z</time>
      </trkpt>
      <trkpt lat="45.58289" lon="5.73154">
        <ele>652.7</ele>
        <time>2019-10-27T12:28:29.000Z</time>
      </trkpt>
      <trkpt lat="45.5829" lon="5.73154">
        <ele>652.3</ele>
        <time>2019-10-27T12:28:30.000Z</time>
      </trkpt>
      <trkpt lat="45.5829" lon="5.73155">
        <ele>652</ele>
        <time>2019-10-27T12:28:31.000Z</time>
      </trkpt>
      <trkpt lat="45.58291" lon="5.73155">
        <ele>652</ele>
        <time>2019-10-27T12:28:32.000Z</time>
      </trkpt>
      <trkpt lat="45.58292" lon="5.73156">
        <ele>652</ele>
        <time>2019-10-27T12:28:33.000Z</time>
      </trkpt>
      <trkpt lat="45.58293" lon="5.73156">
        <ele>652</ele>
        <time>2019-10-27T12:28:34.000Z</time>
      </trkpt>
      <trkpt lat="45.58294" lon="5.73157">
        <ele>652</ele>
        <time>2019-10-27T12:28:35.000Z</time>
      </trkpt>
      <trkpt lat="45.58295" lon="5.73157">
        <ele>652</ele>
        <time>2019-10-27T12:28:36.000Z</time>
      </trkpt>
      <trkpt lat="45.58296" lon="5.73158">
        <ele>652</ele>
        <time>2019-10-27T12:28:37.000Z</time>
      </trkpt>
      <trkpt lat="45.58297" lon="5.73158">
        <ele>652</ele>
        <time>2019-10-27T12:28:38.000Z</time>
      </trkpt>
      <trkpt lat="45.58299" lon="5.73159">
        <ele>652</ele>
        <time>2019-10-27T12:28:39.000Z</time>
      </trkpt>
      <trkpt lat="45.583" lon="5.73159">
        <ele>652</ele>
        <time>2019-10-27T12:28:40.000Z</time>
      </trkpt>
      <trkpt lat="45.58301" lon="5.7316">
        <ele>651.5</ele>
        <time>2019-10-27T12:28:41.000Z</time>
      </trkpt>
      <trkpt lat="45.58302" lon="5.7316">
        <ele>651</ele>
        <time>2019-10-27T12:28:42.000Z</time>
      </trkpt>
      <trkpt lat="45.58303" lon="5.73161">
        <ele>651</ele>
        <time>2019-10-27T12:28:43.000Z</time>
      </trkpt>
      <trkpt lat="45.58304" lon="5.73162">
        <ele>651</ele>
        <time>2019-10-27T12:28:44.000Z</time>
      </trkpt>
      <trkpt lat="45.58305" lon="5.73162">
        <ele>651</ele>
        <time>2019-10-27T12:28:45.000Z</time>
      </trkpt>
      <trkpt lat="45.58305" lon="5.73163">
        <ele>651</ele>
        <time>2019-10-27T12:28:46.000Z</time>
      </trkpt>
      <trkpt lat="45.58306" lon="5.73163">
        <ele>651</ele>
        <time>2019-10-27T12:28:47.000Z</time>
      </trkpt>
      <trkpt lat="45.58307" lon="5.73164">
        <ele>651</ele>
        <time>2019-10-27T12:28:48.000Z</time>
      </trkpt>
      <trkpt lat="45.58308" lon="5.73164">
        <ele>651</ele>
        <time>2019-10-27T12:28:49.000Z</time>
      </trkpt>
      <trkpt lat="45.58308" lon="5.73165">
        <ele>651</ele>
        <time>2019-10-27T12:28:50.000Z</time>
      </trkpt>
      <trkpt lat="45.58308" lon="5.73165">
        <ele>651</ele>
        <time>2019-10-27T12:28:51.000Z</time>
      </trkpt>
      <trkpt lat="45.58309" lon="5.73165">
        <ele>651</ele>
        <time>2019-10-27T12:28:52.000Z</time>
      </trkpt>
      <trkpt lat="45.58309" lon="5.73166">
        <ele>651</ele>
        <time>2019-10-27T12:28:53.000Z</time>
      </trkpt>
      <trkpt lat="45.58309" lon="5.73166">
        <ele>651</ele>
        <time>2019-10-27T12:28:54.000Z</time>
      </trkpt>
      <trkpt lat="45.58309" lon="5.73166">
        <ele>651</ele>
        <time>2019-10-27T12:28:55.000Z</time>
      </trkpt>
      <trkpt lat="45.58309" lon="5.73166">
        <ele>651</ele>
        <time>2019-10-27T12:28:56.000Z</time>
      </trkpt>
      <trkpt lat="45.58309" lon="5.73166">
        <ele>651</ele>
        <time>2019-10-27T12:28:57.000Z</time>
      </trkpt>
      <trkpt lat="45.5831" lon="5.73166">
        <ele>651</ele>
        <time>2019-10-27T12:28:58.000Z</time>
      </trkpt>
      <trkpt lat="45.5831" lon="5.73165">
        <ele>651</ele>
        <time>2019-10-27T12:28:59.000Z</time>
      </trkpt>
      <trkpt lat="45.58311" lon="5.73165">
        <ele>651</ele>
        <time>2019-10-27T12:29:00.000Z</time>
      </trkpt>
      <trkpt lat="45.58312" lon="5.73165">
        <ele>651</ele>
        <time>2019-10-27T12:29:01.000Z</time>
      </trkpt>
      <trkpt lat="45.58312" lon="5.73166">
        <ele>651</ele>
        <time>2019-10-27T12:29:02.000Z</time>
      </trkpt>
      <trkpt lat="45.58313" lon="5.73166">
        <ele>650.7</ele>
        <time>2019-10-27T12:29:03.000Z</time>
      </trkpt>
      <trkpt lat="45.58314" lon="5.73166">
        <ele>650.3</ele>
        <time>2019-10-27T12:29:04.000Z</time>
      </trkpt>
      <trkpt lat="45.58315" lon="5.73167">
        <ele>650</ele>
        <time>2019-10-27T12:29:05.000Z</time>
      </trkpt>
      <trkpt lat="45.58316" lon="5.73167">
        <ele>650</ele>
        <time>2019-10-27T12:29:06.000Z</time>
      </trkpt>
      <trkpt lat="45.58316" lon="5.73168">
        <ele>650</ele>
        <time>2019-10-27T12:29:07.000Z</time>
      </trkpt>
      <trkpt lat="45.58317" lon="5.73169">
        <ele>650</ele>
        <time>2019-10-27T12:29:08.000Z</time>
      </trkpt>
      <trkpt lat="45.58318" lon="5.73169">
        <ele>650</ele>
        <time>2019-10-27T12:29:09.000Z</time>
      </trkpt>
      <trkpt lat="45.58319" lon="5.7317">
        <ele>650</ele>
        <time>2019-10-27T12:29:10.000Z</time>
      </trkpt>
      <trkpt lat="45.58319" lon="5.7317">
        <ele>650</ele>
        <time>2019-10-27T12:29:11.000Z</time>
      </trkpt>
      <trkpt lat="45.5832" lon="5.73171">
        <ele>650</ele>
        <time>2019-10-27T12:29:12.000Z</time>
      </trkpt>
      <trkpt lat="45.58321" lon="5.73171">
        <ele>650</ele>
        <time>2019-10-27T12:29:13.000Z</time>
      </trkpt>
      <trkpt lat="45.58321" lon="5.73172">
        <ele>649</ele>
        <time>2019-10-27T12:29:14.000Z</time>
      </trkpt>
      <trkpt lat="45.58322" lon="5.73172">
        <ele>649</ele>
        <time>2019-10-27T12:29:15.000Z</time>
      </trkpt>
      <trkpt lat="45.58323" lon="5.73172">
        <ele>649</ele>
        <time>2019-10-27T12:29:16.000Z</time>
      </trkpt>
      <trkpt lat="45.58323" lon="5.73173">
        <ele>649</ele>
        <time>2019-10-27T12:29:17.000Z</time>
      </trkpt>
      <trkpt lat="45.58324" lon="5.73173">
        <ele>649</ele>
        <time>2019-10-27T12:29:18.000Z</time>
      </trkpt>
      <trkpt lat="45.58325" lon="5.73174">
        <ele>649</ele>
        <time>2019-10-27T12:29:19.000Z</time>
      </trkpt>
      <trkpt lat="45.58326" lon="5.73174">
        <ele>649</ele>
        <time>2019-10-27T12:29:20.000Z</time>
      </trkpt>
      <trkpt lat="45.58327" lon="5.73174">
        <ele>649</ele>
        <time>2019-10-27T12:29:21.000Z</time>
      </trkpt>
      <trkpt lat="45.58328" lon="5.73174">
        <ele>648.5</ele>
        <time>2019-10-27T12:29:22.000Z</time>
      </trkpt>
      <trkpt lat="45.58329" lon="5.73175">
        <ele>648</ele>
        <time>2019-10-27T12:29:23.000Z</time>
      </trkpt>
      <trkpt lat="45.5833" lon="5.73175">
        <ele>648</ele>
        <time>2019-10-27T12:29:24.000Z</time>
      </trkpt>
      <trkpt lat="45.58332" lon="5.73176">
        <ele>648</ele>
        <time>2019-10-27T12:29:25.000Z</time>
      </trkpt>
      <trkpt lat="45.58333" lon="5.73177">
        <ele>648</ele>
        <time>2019-10-27T12:29:26.000Z</time>
      </trkpt>
      <trkpt lat="45.58334" lon="5.73177">
        <ele>648</ele>
        <time>2019-10-27T12:29:27.000Z</time>
      </trkpt>
      <trkpt lat="45.58335" lon="5.73178">
        <ele>648</ele>
        <time>2019-10-27T12:29:28.000Z</time>
      </trkpt>
      <trkpt lat="45.58336" lon="5.73179">
        <ele>648</ele>
        <time>2019-10-27T12:29:29.000Z</time>
      </trkpt>
      <trkpt lat="45.58337" lon="5.73179">
        <ele>648</ele>
        <time>2019-10-27T12:29:30.000Z</time>
      </trkpt>
      <trkpt lat="45.58338" lon="5.7318">
        <ele>647.5</ele>
        <time>2019-10-27T12:29:31.000Z</time>
      </trkpt>
      <trkpt lat="45.58338" lon="5.7318">
        <ele>647</ele>
        <time>2019-10-27T12:29:32.000Z</time>
      </trkpt>
      <trkpt lat="45.58339" lon="5.7318">
        <ele>647</ele>
        <time>2019-10-27T12:29:33.000Z</time>
      </trkpt>
      <trkpt lat="45.5834" lon="5.73181">
        <ele>647</ele>
        <time>2019-10-27T12:29:34.000Z</time>
      </trkpt>
      <trkpt lat="45.58341" lon="5.73181">
        <ele>647</ele>
        <time>2019-10-27T12:29:35.000Z</time>
      </trkpt>
      <trkpt lat="45.58343" lon="5.73181">
        <ele>647</ele>
        <time>2019-10-27T12:29:36.000Z</time>
      </trkpt>
      <trkpt lat="45.58344" lon="5.73181">
        <ele>647</ele>
        <time>2019-10-27T12:29:37.000Z</time>
      </trkpt>
      <trkpt lat="45.58345" lon="5.73181">
        <ele>647</ele>
        <time>2019-10-27T12:29:38.000Z</time>
      </trkpt>
      <trkpt lat="45.58346" lon="5.73182">
        <ele>647</ele>
        <time>2019-10-27T12:29:39.000Z</time>
      </trkpt>
      <trkpt lat="45.58348" lon="5.73182">
        <ele>647</ele>
        <time>2019-10-27T12:29:40.000Z</time>
      </trkpt>
      <trkpt lat="45.58349" lon="5.73182">
        <ele>647</ele>
        <time>2019-10-27T12:29:41.000Z</time>
      </trkpt>
      <trkpt lat="45.5835" lon="5.73182">
        <ele>647</ele>
        <time>2019-10-27T12:29:42.000Z</time>
      </trkpt>
      <trkpt lat="45.5835" lon="5.73182">
        <ele>647</ele>
        <time>2019-10-27T12:29:43.000Z</time>
      </trkpt>
      <trkpt lat="45.58351" lon="5.73182">
        <ele>646</ele>
        <time>2019-10-27T12:29:44.000Z</time>
      </trkpt>
      <trkpt lat="45.58351" lon="5.73182">
        <ele>646</ele>
        <time>2019-10-27T12:29:45.000Z</time>
      </trkpt>
      <trkpt lat="45.58351" lon="5.73182">
        <ele>646</ele>
        <time>2019-10-27T12:29:46.000Z</time>
      </trkpt>
      <trkpt lat="45.58351" lon="5.73182">
        <ele>646</ele>
        <time>2019-10-27T12:29:47.000Z</time>
      </trkpt>
      <trkpt lat="45.58351" lon="5.73182">
        <ele>646</ele>
        <time>2019-10-27T12:29:48.000Z</time>
      </trkpt>
      <trkpt lat="45.58351" lon="5.73182">
        <ele>646</ele>
        <time>2019-10-27T12:29:49.000Z</time>
      </trkpt>
      <trkpt lat="45.58352" lon="5.73182">
        <ele>646</ele>
        <time>2019-10-27T12:29:50.000Z</time>
      </trkpt>
      <trkpt lat="45.58352" lon="5.73182">
        <ele>646</ele>
        <time>2019-10-27T12:29:51.000Z</time>
      </trkpt>
      <trkpt lat="45.58352" lon="5.73182">
        <ele>646</ele>
        <time>2019-10-27T12:29:52.000Z</time>
      </trkpt>
      <trkpt lat="45.58353" lon="5.73182">
        <ele>646</ele>
        <time>2019-10-27T12:29:53.000Z</time>
      </trkpt>
      <trkpt lat="45.58353" lon="5.73182">
        <ele>646</ele>
        <time>2019-10-27T12:29:54.000Z</time>
      </trkpt>
      <trkpt lat="45.58353" lon="5.73182">
        <ele>646</ele>
        <time>2019-10-27T12:29:55.000Z</time>
      </trkpt>
      <trkpt lat="45.58353" lon="5.73182">
        <ele>646</ele>
        <time>2019-10-27T12:29:56.000Z</time>
      </trkpt>
      <trkpt lat="45.58353" lon="5.73182">
        <ele>646</ele>
        <time>2019-10-27T12:29:57.000Z</time>
      </trkpt>
      <trkpt lat="45.58354" lon="5.73182">
        <ele>646</ele>
        <time>2019-10-27T12:29:58.000Z</time>
      </trkpt>
      <trkpt lat="45.58354" lon="5.73182">
        <ele>646</ele>
        <time>2019-10-27T12:29:59.000Z</time>
      </trkpt>
      <trkpt lat="45.58354" lon="5.73182">
        <ele>646</ele>
        <time>2019-10-27T12:30:00.000Z</time>
      </trkpt>
      <trkpt lat="45.58354" lon="5.73182">
        <ele>646</ele>
        <time>2019-10-27T12:30:01.000Z</time>
      </trkpt>
      <trkpt lat="45.58354" lon="5.73182">
        <ele>646</ele>
        <time>2019-10-27T12:30:02.000Z</time>
      </trkpt>
      <trkpt lat="45.58355" lon="5.73181">
        <ele>646</ele>
        <time>2019-10-27T12:30:03.000Z</time>
      </trkpt>
      <trkpt lat="45.58356" lon="5.7318">
        <ele>646</ele>
        <time>2019-10-27T12:30:04.000Z</time>
      </trkpt>
      <trkpt lat="45.58357" lon="5.73179">
        <ele>645.7</ele>
        <time>2019-10-27T12:30:05.000Z</time>
      </trkpt>
      <trkpt lat="45.58359" lon="5.73178">
        <ele>645.3</ele>
        <time>2019-10-27T12:30:06.000Z</time>
      </trkpt>
      <trkpt lat="45.5836" lon="5.73177">
        <ele>645</ele>
        <time>2019-10-27T12:30:07.000Z</time>
      </trkpt>
      <trkpt lat="45.58362" lon="5.73176">
        <ele>645</ele>
        <time>2019-10-27T12:30:08.000Z</time>
      </trkpt>
      <trkpt lat="45.58363" lon="5.73175">
        <ele>645</ele>
        <time>2019-10-27T12:30:09.000Z</time>
      </trkpt>
      <trkpt lat="45.58365" lon="5.73174">
        <ele>645</ele>
        <time>2019-10-27T12:30:10.000Z</time>
      </trkpt>
      <trkpt lat="45.58366" lon="5.73173">
        <ele>645</ele>
        <time>2019-10-27T12:30:11.000Z</time>
      </trkpt>
      <trkpt lat="45.58368" lon="5.73172">
        <ele>645</ele>
        <time>2019-10-27T12:30:12.000Z</time>
      </trkpt>
      <trkpt lat="45.5837" lon="5.73171">
        <ele>645</ele>
        <time>2019-10-27T12:30:13.000Z</time>
      </trkpt>
      <trkpt lat="45.58371" lon="5.7317">
        <ele>645</ele>
        <time>2019-10-27T12:30:14.000Z</time>
      </trkpt>
      <trkpt lat="45.58373" lon="5.73169">
        <ele>645</ele>
        <time>2019-10-27T12:30:15.000Z</time>
      </trkpt>
      <trkpt lat="45.58374" lon="5.73169">
        <ele>645</ele>
        <time>2019-10-27T12:30:16.000Z</time>
      </trkpt>
      <trkpt lat="45.58375" lon="5.73168">
        <ele>645</ele>
        <time>2019-10-27T12:30:17.000Z</time>
      </trkpt>
      <trkpt lat="45.58376" lon="5.73168">
        <ele>645</ele>
        <time>2019-10-27T12:30:18.000Z</time>
      </trkpt>
      <trkpt lat="45.58377" lon="5.73167">
        <ele>645</ele>
        <time>2019-10-27T12:30:19.000Z</time>
      </trkpt>
      <trkpt lat="45.58378" lon="5.73167">
        <ele>645</ele>
        <time>2019-10-27T12:30:20.000Z</time>
      </trkpt>
      <trkpt lat="45.58379" lon="5.73166">
        <ele>645</ele>
        <time>2019-10-27T12:30:21.000Z</time>
      </trkpt>
      <trkpt lat="45.5838" lon="5.73166">
        <ele>645</ele>
        <time>2019-10-27T12:30:22.000Z</time>
      </trkpt>
      <trkpt lat="45.58381" lon="5.73165">
        <ele>645</ele>
        <time>2019-10-27T12:30:23.000Z</time>
      </trkpt>
      <trkpt lat="45.58382" lon="5.73164">
        <ele>645</ele>
        <time>2019-10-27T12:30:24.000Z</time>
      </trkpt>
      <trkpt lat="45.58383" lon="5.73164">
        <ele>645</ele>
        <time>2019-10-27T12:30:25.000Z</time>
      </trkpt>
      <trkpt lat="45.58384" lon="5.73163">
        <ele>645</ele>
        <time>2019-10-27T12:30:26.000Z</time>
      </trkpt>
      <trkpt lat="45.58384" lon="5.73162">
        <ele>645</ele>
        <time>2019-10-27T12:30:27.000Z</time>
      </trkpt>
      <trkpt lat="45.58385" lon="5.73162">
        <ele>645</ele>
        <time>2019-10-27T12:30:28.000Z</time>
      </trkpt>
      <trkpt lat="45.58386" lon="5.73161">
        <ele>645</ele>
        <time>2019-10-27T12:30:29.000Z</time>
      </trkpt>
      <trkpt lat="45.58388" lon="5.73159">
        <ele>645</ele>
        <time>2019-10-27T12:30:30.000Z</time>
      </trkpt>
      <trkpt lat="45.58389" lon="5.73158">
        <ele>645</ele>
        <time>2019-10-27T12:30:31.000Z</time>
      </trkpt>
      <trkpt lat="45.5839" lon="5.73157">
        <ele>645</ele>
        <time>2019-10-27T12:30:32.000Z</time>
      </trkpt>
      <trkpt lat="45.58391" lon="5.73156">
        <ele>645</ele>
        <time>2019-10-27T12:30:33.000Z</time>
      </trkpt>
      <trkpt lat="45.58391" lon="5.73156">
        <ele>645</ele>
        <time>2019-10-27T12:30:34.000Z</time>
      </trkpt>
      <trkpt lat="45.58392" lon="5.73155">
        <ele>645</ele>
        <time>2019-10-27T12:30:35.000Z</time>
      </trkpt>
      <trkpt lat="45.58392" lon="5.73154">
        <ele>645</ele>
        <time>2019-10-27T12:30:36.000Z</time>
      </trkpt>
      <trkpt lat="45.58392" lon="5.73154">
        <ele>645</ele>
        <time>2019-10-27T12:30:37.000Z</time>
      </trkpt>
      <trkpt lat="45.58393" lon="5.73153">
        <ele>645</ele>
        <time>2019-10-27T12:30:38.000Z</time>
      </trkpt>
      <trkpt lat="45.58393" lon="5.73153">
        <ele>645</ele>
        <time>2019-10-27T12:30:39.000Z</time>
      </trkpt>
      <trkpt lat="45.58393" lon="5.73152">
        <ele>645</ele>
        <time>2019-10-27T12:30:40.000Z</time>
      </trkpt>
      <trkpt lat="45.58393" lon="5.73152">
        <ele>645</ele>
        <time>2019-10-27T12:30:41.000Z</time>
      </trkpt>
      <trkpt lat="45.58394" lon="5.73151">
        <ele>644</ele>
        <time>2019-10-27T12:30:42.000Z</time>
      </trkpt>
      <trkpt lat="45.58394" lon="5.7315">
        <ele>644</ele>
        <time>2019-10-27T12:30:43.000Z</time>
      </trkpt>
      <trkpt lat="45.58395" lon="5.73148">
        <ele>644</ele>
        <time>2019-10-27T12:30:44.000Z</time>
      </trkpt>
      <trkpt lat="45.58396" lon="5.73146">
        <ele>644</ele>
        <time>2019-10-27T12:30:45.000Z</time>
      </trkpt>
      <trkpt lat="45.58398" lon="5.73144">
        <ele>644</ele>
        <time>2019-10-27T12:30:46.000Z</time>
      </trkpt>
      <trkpt lat="45.58398" lon="5.73143">
        <ele>644</ele>
        <time>2019-10-27T12:30:47.000Z</time>
      </trkpt>
      <trkpt lat="45.58399" lon="5.73141">
        <ele>644.5</ele>
        <time>2019-10-27T12:30:48.000Z</time>
      </trkpt>
      <trkpt lat="45.58399" lon="5.7314">
        <ele>645</ele>
        <time>2019-10-27T12:30:49.000Z</time>
      </trkpt>
      <trkpt lat="45.58398" lon="5.7314">
        <ele>645</ele>
        <time>2019-10-27T12:30:50.000Z</time>
      </trkpt>
      <trkpt lat="45.58398" lon="5.73139">
        <ele>645</ele>
        <time>2019-10-27T12:30:51.000Z</time>
      </trkpt>
      <trkpt lat="45.58397" lon="5.73138">
        <ele>645</ele>
        <time>2019-10-27T12:30:52.000Z</time>
      </trkpt>
      <trkpt lat="45.58397" lon="5.73136">
        <ele>645</ele>
        <time>2019-10-27T12:30:53.000Z</time>
      </trkpt>
      <trkpt lat="45.58397" lon="5.73135">
        <ele>645</ele>
        <time>2019-10-27T12:30:54.000Z</time>
      </trkpt>
      <trkpt lat="45.58397" lon="5.73134">
        <ele>645</ele>
        <time>2019-10-27T12:30:55.000Z</time>
      </trkpt>
      <trkpt lat="45.58397" lon="5.73132">
        <ele>645</ele>
        <time>2019-10-27T12:30:56.000Z</time>
      </trkpt>
      <trkpt lat="45.58397" lon="5.73131">
        <ele>645</ele>
        <time>2019-10-27T12:30:57.000Z</time>
      </trkpt>
      <trkpt lat="45.58397" lon="5.7313">
        <ele>645</ele>
        <time>2019-10-27T12:30:58.000Z</time>
      </trkpt>
      <trkpt lat="45.58398" lon="5.73129">
        <ele>645</ele>
        <time>2019-10-27T12:30:59.000Z</time>
      </trkpt>
      <trkpt lat="45.58398" lon="5.73128">
        <ele>645</ele>
        <time>2019-10-27T12:31:00.000Z</time>
      </trkpt>
      <trkpt lat="45.58398" lon="5.73128">
        <ele>645</ele>
        <time>2019-10-27T12:31:01.000Z</time>
      </trkpt>
      <trkpt lat="45.58398" lon="5.73128">
        <ele>645</ele>
        <time>2019-10-27T12:31:02.000Z</time>
      </trkpt>
      <trkpt lat="45.58398" lon="5.73128">
        <ele>645</ele>
        <time>2019-10-27T12:31:03.000Z</time>
      </trkpt>
      <trkpt lat="45.58398" lon="5.73127">
        <ele>645</ele>
        <time>2019-10-27T12:31:04.000Z</time>
      </trkpt>
      <trkpt lat="45.58399" lon="5.73126">
        <ele>645</ele>
        <time>2019-10-27T12:31:05.000Z</time>
      </trkpt>
      <trkpt lat="45.584" lon="5.73124">
        <ele>645</ele>
        <time>2019-10-27T12:31:06.000Z</time>
      </trkpt>
      <trkpt lat="45.58402" lon="5.73121">
        <ele>645</ele>
        <time>2019-10-27T12:31:07.000Z</time>
      </trkpt>
      <trkpt lat="45.58403" lon="5.73119">
        <ele>645</ele>
        <time>2019-10-27T12:31:08.000Z</time>
      </trkpt>
      <trkpt lat="45.58404" lon="5.73117">
        <ele>645</ele>
        <time>2019-10-27T12:31:09.000Z</time>
      </trkpt>
      <trkpt lat="45.58405" lon="5.73116">
        <ele>645</ele>
        <time>2019-10-27T12:31:10.000Z</time>
      </trkpt>
      <trkpt lat="45.58406" lon="5.73114">
        <ele>645</ele>
        <time>2019-10-27T12:31:11.000Z</time>
      </trkpt>
      <trkpt lat="45.58407" lon="5.73113">
        <ele>645</ele>
        <time>2019-10-27T12:31:12.000Z</time>
      </trkpt>
      <trkpt lat="45.58408" lon="5.73112">
        <ele>645</ele>
        <time>2019-10-27T12:31:13.000Z</time>
      </trkpt>
      <trkpt lat="45.58408" lon="5.73111">
        <ele>645</ele>
        <time>2019-10-27T12:31:14.000Z</time>
      </trkpt>
      <trkpt lat="45.58409" lon="5.73111">
        <ele>645</ele>
        <time>2019-10-27T12:31:15.000Z</time>
      </trkpt>
      <trkpt lat="45.5841" lon="5.7311">
        <ele>645</ele>
        <time>2019-10-27T12:31:16.000Z</time>
      </trkpt>
      <trkpt lat="45.58411" lon="5.73109">
        <ele>645</ele>
        <time>2019-10-27T12:31:17.000Z</time>
      </trkpt>
      <trkpt lat="45.58412" lon="5.73108">
        <ele>645</ele>
        <time>2019-10-27T12:31:18.000Z</time>
      </trkpt>
      <trkpt lat="45.58413" lon="5.73107">
        <ele>645</ele>
        <time>2019-10-27T12:31:19.000Z</time>
      </trkpt>
      <trkpt lat="45.58415" lon="5.73107">
        <ele>645</ele>
        <time>2019-10-27T12:31:20.000Z</time>
      </trkpt>
      <trkpt lat="45.58417" lon="5.73106">
        <ele>645</ele>
        <time>2019-10-27T12:31:21.000Z</time>
      </trkpt>
      <trkpt lat="45.58418" lon="5.73105">
        <ele>645</ele>
        <time>2019-10-27T12:31:22.000Z</time>
      </trkpt>
      <trkpt lat="45.5842" lon="5.73104">
        <ele>645</ele>
        <time>2019-10-27T12:31:23.000Z</time>
      </trkpt>
      <trkpt lat="45.58422" lon="5.73103">
        <ele>645</ele>
        <time>2019-10-27T12:31:24.000Z</time>
      </trkpt>
      <trkpt lat="45.58423" lon="5.73103">
        <ele>645</ele>
        <time>2019-10-27T12:31:25.000Z</time>
      </trkpt>
      <trkpt lat="45.58425" lon="5.73102">
        <ele>645</ele>
        <time>2019-10-27T12:31:26.000Z</time>
      </trkpt>
      <trkpt lat="45.58426" lon="5.73102">
        <ele>645</ele>
        <time>2019-10-27T12:31:27.000Z</time>
      </trkpt>
      <trkpt lat="45.58427" lon="5.73102">
        <ele>645</ele>
        <time>2019-10-27T12:31:28.000Z</time>
      </trkpt>
      <trkpt lat="45.58428" lon="5.73102">
        <ele>645</ele>
        <time>2019-10-27T12:31:29.000Z</time>
      </trkpt>
      <trkpt lat="45.58429" lon="5.73102">
        <ele>645</ele>
        <time>2019-10-27T12:31:30.000Z</time>
      </trkpt>
      <trkpt lat="45.5843" lon="5.73103">
        <ele>645</ele>
        <time>2019-10-27T12:31:31.000Z</time>
      </trkpt>
      <trkpt lat="45.5843" lon="5.73103">
        <ele>645</ele>
        <time>2019-10-27T12:31:32.000Z</time>
      </trkpt>
      <trkpt lat="45.58431" lon="5.73103">
        <ele>645</ele>
        <time>2019-10-27T12:31:33.000Z</time>
      </trkpt>
      <trkpt lat="45.58431" lon="5.73103">
        <ele>645</ele>
        <time>2019-10-27T12:31:34.000Z</time>
      </trkpt>
      <trkpt lat="45.58432" lon="5.73104">
        <ele>645.3</ele>
        <time>2019-10-27T12:31:35.000Z</time>
      </trkpt>
      <trkpt lat="45.58433" lon="5.73104">
        <ele>645.7</ele>
        <time>2019-10-27T12:31:36.000Z</time>
      </trkpt>
      <trkpt lat="45.58433" lon="5.73105">
        <ele>646</ele>
        <time>2019-10-27T12:31:37.000Z</time>
      </trkpt>
      <trkpt lat="45.58434" lon="5.73105">
        <ele>646</ele>
        <time>2019-10-27T12:31:38.000Z</time>
      </trkpt>
      <trkpt lat="45.58434" lon="5.73106">
        <ele>645.7</ele>
        <time>2019-10-27T12:31:39.000Z</time>
      </trkpt>
      <trkpt lat="45.58435" lon="5.73106">
        <ele>645.3</ele>
        <time>2019-10-27T12:31:40.000Z</time>
      </trkpt>
      <trkpt lat="45.58436" lon="5.73107">
        <ele>645</ele>
        <time>2019-10-27T12:31:41.000Z</time>
      </trkpt>
      <trkpt lat="45.58436" lon="5.73107">
        <ele>645</ele>
        <time>2019-10-27T12:31:42.000Z</time>
      </trkpt>
      <trkpt lat="45.58437" lon="5.73108">
        <ele>645</ele>
        <time>2019-10-27T12:31:43.000Z</time>
      </trkpt>
      <trkpt lat="45.58437" lon="5.73109">
        <ele>645</ele>
        <time>2019-10-27T12:31:44.000Z</time>
      </trkpt>
      <trkpt lat="45.58438" lon="5.73109">
        <ele>645</ele>
        <time>2019-10-27T12:31:45.000Z</time>
      </trkpt>
      <trkpt lat="45.58439" lon="5.7311">
        <ele>645</ele>
        <time>2019-10-27T12:31:46.000Z</time>
      </trkpt>
      <trkpt lat="45.58439" lon="5.7311">
        <ele>645</ele>
        <time>2019-10-27T12:31:47.000Z</time>
      </trkpt>
      <trkpt lat="45.5844" lon="5.73111">
        <ele>645</ele>
        <time>2019-10-27T12:31:48.000Z</time>
      </trkpt>
      <trkpt lat="45.58441" lon="5.73111">
        <ele>645</ele>
        <time>2019-10-27T12:31:49.000Z</time>
      </trkpt>
      <trkpt lat="45.58441" lon="5.73112">
        <ele>645</ele>
        <time>2019-10-27T12:31:50.000Z</time>
      </trkpt>
      <trkpt lat="45.58442" lon="5.73112">
        <ele>645</ele>
        <time>2019-10-27T12:31:51.000Z</time>
      </trkpt>
      <trkpt lat="45.58443" lon="5.73113">
        <ele>645</ele>
        <time>2019-10-27T12:31:52.000Z</time>
      </trkpt>
      <trkpt lat="45.58444" lon="5.73113">
        <ele>645</ele>
        <time>2019-10-27T12:31:53.000Z</time>
      </trkpt>
      <trkpt lat="45.58445" lon="5.73114">
        <ele>645</ele>
        <time>2019-10-27T12:31:54.000Z</time>
      </trkpt>
      <trkpt lat="45.58446" lon="5.73114">
        <ele>645</ele>
        <time>2019-10-27T12:31:55.000Z</time>
      </trkpt>
      <trkpt lat="45.58447" lon="5.73115">
        <ele>644.5</ele>
        <time>2019-10-27T12:31:56.000Z</time>
      </trkpt>
      <trkpt lat="45.58447" lon="5.73116">
        <ele>644</ele>
        <time>2019-10-27T12:31:57.000Z</time>
      </trkpt>
      <trkpt lat="45.58448" lon="5.73116">
        <ele>644</ele>
        <time>2019-10-27T12:31:58.000Z</time>
      </trkpt>
      <trkpt lat="45.58449" lon="5.73117">
        <ele>644</ele>
        <time>2019-10-27T12:31:59.000Z</time>
      </trkpt>
      <trkpt lat="45.5845" lon="5.73118">
        <ele>644</ele>
        <time>2019-10-27T12:32:00.000Z</time>
      </trkpt>
      <trkpt lat="45.58451" lon="5.73118">
        <ele>644</ele>
        <time>2019-10-27T12:32:01.000Z</time>
      </trkpt>
      <trkpt lat="45.58452" lon="5.73119">
        <ele>644</ele>
        <time>2019-10-27T12:32:02.000Z</time>
      </trkpt>
      <trkpt lat="45.58452" lon="5.7312">
        <ele>644</ele>
        <time>2019-10-27T12:32:03.000Z</time>
      </trkpt>
      <trkpt lat="45.58453" lon="5.73121">
        <ele>644</ele>
        <time>2019-10-27T12:32:04.000Z</time>
      </trkpt>
      <trkpt lat="45.58454" lon="5.73122">
        <ele>644</ele>
        <time>2019-10-27T12:32:05.000Z</time>
      </trkpt>
      <trkpt lat="45.58455" lon="5.73123">
        <ele>643</ele>
        <time>2019-10-27T12:32:06.000Z</time>
      </trkpt>
      <trkpt lat="45.58455" lon="5.73124">
        <ele>643</ele>
        <time>2019-10-27T12:32:07.000Z</time>
      </trkpt>
      <trkpt lat="45.58456" lon="5.73125">
        <ele>643</ele>
        <time>2019-10-27T12:32:08.000Z</time>
      </trkpt>
      <trkpt lat="45.58457" lon="5.73126">
        <ele>643</ele>
        <time>2019-10-27T12:32:09.000Z</time>
      </trkpt>
      <trkpt lat="45.58458" lon="5.73127">
        <ele>643</ele>
        <time>2019-10-27T12:32:10.000Z</time>
      </trkpt>
      <trkpt lat="45.58458" lon="5.73127">
        <ele>643</ele>
        <time>2019-10-27T12:32:11.000Z</time>
      </trkpt>
      <trkpt lat="45.58459" lon="5.73128">
        <ele>643</ele>
        <time>2019-10-27T12:32:12.000Z</time>
      </trkpt>
      <trkpt lat="45.58459" lon="5.73129">
        <ele>643</ele>
        <time>2019-10-27T12:32:13.000Z</time>
      </trkpt>
      <trkpt lat="45.5846" lon="5.7313">
        <ele>643</ele>
        <time>2019-10-27T12:32:14.000Z</time>
      </trkpt>
      <trkpt lat="45.58461" lon="5.73131">
        <ele>643</ele>
        <time>2019-10-27T12:32:15.000Z</time>
      </trkpt>
      <trkpt lat="45.58461" lon="5.73132">
        <ele>642</ele>
        <time>2019-10-27T12:32:16.000Z</time>
      </trkpt>
      <trkpt lat="45.58462" lon="5.73132">
        <ele>642</ele>
        <time>2019-10-27T12:32:17.000Z</time>
      </trkpt>
      <trkpt lat="45.58463" lon="5.73133">
        <ele>642</ele>
        <time>2019-10-27T12:32:18.000Z</time>
      </trkpt>
      <trkpt lat="45.58464" lon="5.73134">
        <ele>642</ele>
        <time>2019-10-27T12:32:19.000Z</time>
      </trkpt>
      <trkpt lat="45.58465" lon="5.73134">
        <ele>642</ele>
        <time>2019-10-27T12:32:20.000Z</time>
      </trkpt>
      <trkpt lat="45.58466" lon="5.73134">
        <ele>642</ele>
        <time>2019-10-27T12:32:21.000Z</time>
      </trkpt>
      <trkpt lat="45.58467" lon="5.73135">
        <ele>642</ele>
        <time>2019-10-27T12:32:22.000Z</time>
      </trkpt>
      <trkpt lat="45.58468" lon="5.73135">
        <ele>642</ele>
        <time>2019-10-27T12:32:23.000Z</time>
      </trkpt>
      <trkpt lat="45.58469" lon="5.73135">
        <ele>641.5</ele>
        <time>2019-10-27T12:32:24.000Z</time>
      </trkpt>
      <trkpt lat="45.5847" lon="5.73135">
        <ele>641</ele>
        <time>2019-10-27T12:32:25.000Z</time>
      </trkpt>
      <trkpt lat="45.58471" lon="5.73135">
        <ele>641</ele>
        <time>2019-10-27T12:32:26.000Z</time>
      </trkpt>
      <trkpt lat="45.58472" lon="5.73135">
        <ele>641</ele>
        <time>2019-10-27T12:32:27.000Z</time>
      </trkpt>
      <trkpt lat="45.58473" lon="5.73135">
        <ele>641</ele>
        <time>2019-10-27T12:32:28.000Z</time>
      </trkpt>
      <trkpt lat="45.58474" lon="5.73134">
        <ele>641</ele>
        <time>2019-10-27T12:32:29.000Z</time>
      </trkpt>
      <trkpt lat="45.58475" lon="5.73134">
        <ele>641</ele>
        <time>2019-10-27T12:32:30.000Z</time>
      </trkpt>
      <trkpt lat="45.58475" lon="5.73134">
        <ele>641</ele>
        <time>2019-10-27T12:32:31.000Z</time>
      </trkpt>
      <trkpt lat="45.58476" lon="5.73134">
        <ele>641</ele>
        <time>2019-10-27T12:32:32.000Z</time>
      </trkpt>
      <trkpt lat="45.58476" lon="5.73134">
        <ele>641</ele>
        <time>2019-10-27T12:32:33.000Z</time>
      </trkpt>
      <trkpt lat="45.58477" lon="5.73133">
        <ele>640</ele>
        <time>2019-10-27T12:32:34.000Z</time>
      </trkpt>
      <trkpt lat="45.58478" lon="5.73132">
        <ele>640</ele>
        <time>2019-10-27T12:32:35.000Z</time>
      </trkpt>
      <trkpt lat="45.58479" lon="5.73131">
        <ele>640</ele>
        <time>2019-10-27T12:32:36.000Z</time>
      </trkpt>
      <trkpt lat="45.58481" lon="5.7313">
        <ele>640</ele>
        <time>2019-10-27T12:32:37.000Z</time>
      </trkpt>
      <trkpt lat="45.58482" lon="5.73129">
        <ele>640</ele>
        <time>2019-10-27T12:32:38.000Z</time>
      </trkpt>
      <trkpt lat="45.58484" lon="5.73128">
        <ele>639.5</ele>
        <time>2019-10-27T12:32:39.000Z</time>
      </trkpt>
      <trkpt lat="45.58485" lon="5.73127">
        <ele>639</ele>
        <time>2019-10-27T12:32:40.000Z</time>
      </trkpt>
      <trkpt lat="45.58486" lon="5.73126">
        <ele>639</ele>
        <time>2019-10-27T12:32:41.000Z</time>
      </trkpt>
      <trkpt lat="45.58486" lon="5.73126">
        <ele>639</ele>
        <time>2019-10-27T12:32:42.000Z</time>
      </trkpt>
      <trkpt lat="45.58488" lon="5.73125">
        <ele>639</ele>
        <time>2019-10-27T12:32:43.000Z</time>
      </trkpt>
      <trkpt lat="45.58489" lon="5.73124">
        <ele>639</ele>
        <time>2019-10-27T12:32:44.000Z</time>
      </trkpt>
      <trkpt lat="45.5849" lon="5.73123">
        <ele>639</ele>
        <time>2019-10-27T12:32:45.000Z</time>
      </trkpt>
      <trkpt lat="45.58492" lon="5.73122">
        <ele>639</ele>
        <time>2019-10-27T12:32:46.000Z</time>
      </trkpt>
      <trkpt lat="45.58492" lon="5.73121">
        <ele>639</ele>
        <time>2019-10-27T12:32:47.000Z</time>
      </trkpt>
      <trkpt lat="45.58493" lon="5.73121">
        <ele>639</ele>
        <time>2019-10-27T12:32:48.000Z</time>
      </trkpt>
      <trkpt lat="45.58494" lon="5.7312">
        <ele>639</ele>
        <time>2019-10-27T12:32:49.000Z</time>
      </trkpt>
      <trkpt lat="45.58495" lon="5.73119">
        <ele>639</ele>
        <time>2019-10-27T12:32:50.000Z</time>
      </trkpt>
      <trkpt lat="45.58496" lon="5.73119">
        <ele>638.7</ele>
        <time>2019-10-27T12:32:51.000Z</time>
      </trkpt>
      <trkpt lat="45.58496" lon="5.73118">
        <ele>638.3</ele>
        <time>2019-10-27T12:32:52.000Z</time>
      </trkpt>
      <trkpt lat="45.58497" lon="5.73117">
        <ele>638</ele>
        <time>2019-10-27T12:32:53.000Z</time>
      </trkpt>
      <trkpt lat="45.58498" lon="5.73116">
        <ele>638</ele>
        <time>2019-10-27T12:32:54.000Z</time>
      </trkpt>
      <trkpt lat="45.58499" lon="5.73115">
        <ele>638</ele>
        <time>2019-10-27T12:32:55.000Z</time>
      </trkpt>
      <trkpt lat="45.585" lon="5.73114">
        <ele>638</ele>
        <time>2019-10-27T12:32:56.000Z</time>
      </trkpt>
      <trkpt lat="45.58501" lon="5.73113">
        <ele>638</ele>
        <time>2019-10-27T12:32:57.000Z</time>
      </trkpt>
      <trkpt lat="45.58502" lon="5.73112">
        <ele>638</ele>
        <time>2019-10-27T12:32:58.000Z</time>
      </trkpt>
      <trkpt lat="45.58503" lon="5.73111">
        <ele>638</ele>
        <time>2019-10-27T12:32:59.000Z</time>
      </trkpt>
      <trkpt lat="45.58504" lon="5.7311">
        <ele>638</ele>
        <time>2019-10-27T12:33:00.000Z</time>
      </trkpt>
      <trkpt lat="45.58505" lon="5.73109">
        <ele>638</ele>
        <time>2019-10-27T12:33:01.000Z</time>
      </trkpt>
      <trkpt lat="45.58506" lon="5.73108">
        <ele>638</ele>
        <time>2019-10-27T12:33:02.000Z</time>
      </trkpt>
      <trkpt lat="45.58507" lon="5.73107">
        <ele>638</ele>
        <time>2019-10-27T12:33:03.000Z</time>
      </trkpt>
      <trkpt lat="45.58508" lon="5.73106">
        <ele>637.5</ele>
        <time>2019-10-27T12:33:04.000Z</time>
      </trkpt>
      <trkpt lat="45.58509" lon="5.73105">
        <ele>637</ele>
        <time>2019-10-27T12:33:05.000Z</time>
      </trkpt>
      <trkpt lat="45.5851" lon="5.73104">
        <ele>637</ele>
        <time>2019-10-27T12:33:06.000Z</time>
      </trkpt>
      <trkpt lat="45.58511" lon="5.73103">
        <ele>637</ele>
        <time>2019-10-27T12:33:07.000Z</time>
      </trkpt>
      <trkpt lat="45.58512" lon="5.73102">
        <ele>637</ele>
        <time>2019-10-27T12:33:08.000Z</time>
      </trkpt>
      <trkpt lat="45.58513" lon="5.73101">
        <ele>637</ele>
        <time>2019-10-27T12:33:09.000Z</time>
      </trkpt>
      <trkpt lat="45.58513" lon="5.731">
        <ele>637</ele>
        <time>2019-10-27T12:33:10.000Z</time>
      </trkpt>
      <trkpt lat="45.58514" lon="5.73099">
        <ele>637</ele>
        <time>2019-10-27T12:33:11.000Z</time>
      </trkpt>
      <trkpt lat="45.58515" lon="5.73097">
        <ele>637</ele>
        <time>2019-10-27T12:33:12.000Z</time>
      </trkpt>
      <trkpt lat="45.58515" lon="5.73096">
        <ele>637</ele>
        <time>2019-10-27T12:33:13.000Z</time>
      </trkpt>
      <trkpt lat="45.58516" lon="5.73095">
        <ele>637</ele>
        <time>2019-10-27T12:33:14.000Z</time>
      </trkpt>
      <trkpt lat="45.58516" lon="5.73094">
        <ele>637</ele>
        <time>2019-10-27T12:33:15.000Z</time>
      </trkpt>
      <trkpt lat="45.58516" lon="5.73093">
        <ele>637</ele>
        <time>2019-10-27T12:33:16.000Z</time>
      </trkpt>
      <trkpt lat="45.58517" lon="5.73092">
        <ele>637</ele>
        <time>2019-10-27T12:33:17.000Z</time>
      </trkpt>
      <trkpt lat="45.58517" lon="5.73092">
        <ele>637</ele>
        <time>2019-10-27T12:33:18.000Z</time>
      </trkpt>
      <trkpt lat="45.58518" lon="5.73091">
        <ele>636.7</ele>
        <time>2019-10-27T12:33:19.000Z</time>
      </trkpt>
      <trkpt lat="45.58518" lon="5.7309">
        <ele>636.3</ele>
        <time>2019-10-27T12:33:20.000Z</time>
      </trkpt>
      <trkpt lat="45.58519" lon="5.73089">
        <ele>636</ele>
        <time>2019-10-27T12:33:21.000Z</time>
      </trkpt>
      <trkpt lat="45.5852" lon="5.73088">
        <ele>636</ele>
        <time>2019-10-27T12:33:22.000Z</time>
      </trkpt>
      <trkpt lat="45.5852" lon="5.73087">
        <ele>636</ele>
        <time>2019-10-27T12:33:23.000Z</time>
      </trkpt>
      <trkpt lat="45.58521" lon="5.73086">
        <ele>636</ele>
        <time>2019-10-27T12:33:24.000Z</time>
      </trkpt>
      <trkpt lat="45.58522" lon="5.73084">
        <ele>636</ele>
        <time>2019-10-27T12:33:25.000Z</time>
      </trkpt>
      <trkpt lat="45.58523" lon="5.73083">
        <ele>636</ele>
        <time>2019-10-27T12:33:26.000Z</time>
      </trkpt>
      <trkpt lat="45.58524" lon="5.73081">
        <ele>636</ele>
        <time>2019-10-27T12:33:27.000Z</time>
      </trkpt>
      <trkpt lat="45.58525" lon="5.73079">
        <ele>636</ele>
        <time>2019-10-27T12:33:28.000Z</time>
      </trkpt>
      <trkpt lat="45.58526" lon="5.73077">
        <ele>636</ele>
        <time>2019-10-27T12:33:29.000Z</time>
      </trkpt>
      <trkpt lat="45.58527" lon="5.73076">
        <ele>636</ele>
        <time>2019-10-27T12:33:30.000Z</time>
      </trkpt>
      <trkpt lat="45.58527" lon="5.73075">
        <ele>635.5</ele>
        <time>2019-10-27T12:33:31.000Z</time>
      </trkpt>
      <trkpt lat="45.58528" lon="5.73074">
        <ele>635</ele>
        <time>2019-10-27T12:33:32.000Z</time>
      </trkpt>
      <trkpt lat="45.58529" lon="5.73073">
        <ele>635</ele>
        <time>2019-10-27T12:33:33.000Z</time>
      </trkpt>
      <trkpt lat="45.5853" lon="5.73072">
        <ele>635</ele>
        <time>2019-10-27T12:33:34.000Z</time>
      </trkpt>
      <trkpt lat="45.5853" lon="5.73071">
        <ele>635</ele>
        <time>2019-10-27T12:33:35.000Z</time>
      </trkpt>
      <trkpt lat="45.58531" lon="5.7307">
        <ele>635</ele>
        <time>2019-10-27T12:33:36.000Z</time>
      </trkpt>
      <trkpt lat="45.58532" lon="5.73069">
        <ele>635</ele>
        <time>2019-10-27T12:33:37.000Z</time>
      </trkpt>
      <trkpt lat="45.58533" lon="5.73068">
        <ele>635</ele>
        <time>2019-10-27T12:33:38.000Z</time>
      </trkpt>
      <trkpt lat="45.58534" lon="5.73067">
        <ele>635</ele>
        <time>2019-10-27T12:33:39.000Z</time>
      </trkpt>
      <trkpt lat="45.58535" lon="5.73066">
        <ele>635</ele>
        <time>2019-10-27T12:33:40.000Z</time>
      </trkpt>
      <trkpt lat="45.58535" lon="5.73065">
        <ele>635</ele>
        <time>2019-10-27T12:33:41.000Z</time>
      </trkpt>
      <trkpt lat="45.58536" lon="5.73064">
        <ele>635</ele>
        <time>2019-10-27T12:33:42.000Z</time>
      </trkpt>
      <trkpt lat="45.58537" lon="5.73063">
        <ele>635</ele>
        <time>2019-10-27T12:33:43.000Z</time>
      </trkpt>
      <trkpt lat="45.58538" lon="5.73062">
        <ele>635</ele>
        <time>2019-10-27T12:33:44.000Z</time>
      </trkpt>
      <trkpt lat="45.58538" lon="5.73061">
        <ele>635</ele>
        <time>2019-10-27T12:33:45.000Z</time>
      </trkpt>
      <trkpt lat="45.58539" lon="5.7306">
        <ele>634.5</ele>
        <time>2019-10-27T12:33:46.000Z</time>
      </trkpt>
      <trkpt lat="45.5854" lon="5.73058">
        <ele>634</ele>
        <time>2019-10-27T12:33:47.000Z</time>
      </trkpt>
      <trkpt lat="45.5854" lon="5.73057">
        <ele>634</ele>
        <time>2019-10-27T12:33:48.000Z</time>
      </trkpt>
      <trkpt lat="45.58541" lon="5.73056">
        <ele>634</ele>
        <time>2019-10-27T12:33:49.000Z</time>
      </trkpt>
      <trkpt lat="45.58541" lon="5.73055">
        <ele>634</ele>
        <time>2019-10-27T12:33:50.000Z</time>
      </trkpt>
      <trkpt lat="45.58542" lon="5.73053">
        <ele>634</ele>
        <time>2019-10-27T12:33:51.000Z</time>
      </trkpt>
      <trkpt lat="45.58542" lon="5.73052">
        <ele>634</ele>
        <time>2019-10-27T12:33:52.000Z</time>
      </trkpt>
      <trkpt lat="45.58543" lon="5.73051">
        <ele>634</ele>
        <time>2019-10-27T12:33:53.000Z</time>
      </trkpt>
      <trkpt lat="45.58543" lon="5.73049">
        <ele>634</ele>
        <time>2019-10-27T12:33:54.000Z</time>
      </trkpt>
      <trkpt lat="45.58544" lon="5.73048">
        <ele>634</ele>
        <time>2019-10-27T12:33:55.000Z</time>
      </trkpt>
      <trkpt lat="45.58544" lon="5.73047">
        <ele>634</ele>
        <time>2019-10-27T12:33:56.000Z</time>
      </trkpt>
      <trkpt lat="45.58545" lon="5.73046">
        <ele>634</ele>
        <time>2019-10-27T12:33:57.000Z</time>
      </trkpt>
      <trkpt lat="45.58545" lon="5.73044">
        <ele>634</ele>
        <time>2019-10-27T12:33:58.000Z</time>
      </trkpt>
      <trkpt lat="45.58546" lon="5.73043">
        <ele>634</ele>
        <time>2019-10-27T12:33:59.000Z</time>
      </trkpt>
      <trkpt lat="45.58546" lon="5.73042">
        <ele>634</ele>
        <time>2019-10-27T12:34:00.000Z</time>
      </trkpt>
      <trkpt lat="45.58546" lon="5.73041">
        <ele>634</ele>
        <time>2019-10-27T12:34:01.000Z</time>
      </trkpt>
      <trkpt lat="45.58546" lon="5.7304">
        <ele>634</ele>
        <time>2019-10-27T12:34:02.000Z</time>
      </trkpt>
      <trkpt lat="45.58546" lon="5.73039">
        <ele>634</ele>
        <time>2019-10-27T12:34:03.000Z</time>
      </trkpt>
      <trkpt lat="45.58546" lon="5.73038">
        <ele>634</ele>
        <time>2019-10-27T12:34:04.000Z</time>
      </trkpt>
      <trkpt lat="45.58547" lon="5.73036">
        <ele>634</ele>
        <time>2019-10-27T12:34:05.000Z</time>
      </trkpt>
      <trkpt lat="45.58547" lon="5.73035">
        <ele>634</ele>
        <time>2019-10-27T12:34:06.000Z</time>
      </trkpt>
      <trkpt lat="45.58547" lon="5.73034">
        <ele>634</ele>
        <time>2019-10-27T12:34:07.000Z</time>
      </trkpt>
      <trkpt lat="45.58548" lon="5.73032">
        <ele>634</ele>
        <time>2019-10-27T12:34:08.000Z</time>
      </trkpt>
      <trkpt lat="45.58548" lon="5.7303">
        <ele>634</ele>
        <time>2019-10-27T12:34:09.000Z</time>
      </trkpt>
      <trkpt lat="45.58549" lon="5.73029">
        <ele>634</ele>
        <time>2019-10-27T12:34:10.000Z</time>
      </trkpt>
      <trkpt lat="45.58549" lon="5.73027">
        <ele>634</ele>
        <time>2019-10-27T12:34:11.000Z</time>
      </trkpt>
      <trkpt lat="45.58549" lon="5.73026">
        <ele>633.5</ele>
        <time>2019-10-27T12:34:12.000Z</time>
      </trkpt>
      <trkpt lat="45.5855" lon="5.73025">
        <ele>633</ele>
        <time>2019-10-27T12:34:13.000Z</time>
      </trkpt>
      <trkpt lat="45.5855" lon="5.73024">
        <ele>633</ele>
        <time>2019-10-27T12:34:14.000Z</time>
      </trkpt>
      <trkpt lat="45.58549" lon="5.73022">
        <ele>633</ele>
        <time>2019-10-27T12:34:15.000Z</time>
      </trkpt>
      <trkpt lat="45.58549" lon="5.73021">
        <ele>633</ele>
        <time>2019-10-27T12:34:16.000Z</time>
      </trkpt>
      <trkpt lat="45.58549" lon="5.7302">
        <ele>633</ele>
        <time>2019-10-27T12:34:17.000Z</time>
      </trkpt>
      <trkpt lat="45.58549" lon="5.73019">
        <ele>633</ele>
        <time>2019-10-27T12:34:18.000Z</time>
      </trkpt>
      <trkpt lat="45.58549" lon="5.73018">
        <ele>633</ele>
        <time>2019-10-27T12:34:19.000Z</time>
      </trkpt>
      <trkpt lat="45.58549" lon="5.73017">
        <ele>633</ele>
        <time>2019-10-27T12:34:20.000Z</time>
      </trkpt>
      <trkpt lat="45.58549" lon="5.73016">
        <ele>632.5</ele>
        <time>2019-10-27T12:34:21.000Z</time>
      </trkpt>
      <trkpt lat="45.58549" lon="5.73014">
        <ele>632</ele>
        <time>2019-10-27T12:34:22.000Z</time>
      </trkpt>
      <trkpt lat="45.58549" lon="5.73013">
        <ele>632</ele>
        <time>2019-10-27T12:34:23.000Z</time>
      </trkpt>
      <trkpt lat="45.58549" lon="5.73012">
        <ele>632</ele>
        <time>2019-10-27T12:34:24.000Z</time>
      </trkpt>
      <trkpt lat="45.58549" lon="5.7301">
        <ele>632</ele>
        <time>2019-10-27T12:34:25.000Z</time>
      </trkpt>
      <trkpt lat="45.5855" lon="5.73009">
        <ele>632</ele>
        <time>2019-10-27T12:34:26.000Z</time>
      </trkpt>
      <trkpt lat="45.5855" lon="5.73007">
        <ele>632</ele>
        <time>2019-10-27T12:34:27.000Z</time>
      </trkpt>
      <trkpt lat="45.58551" lon="5.73006">
        <ele>632</ele>
        <time>2019-10-27T12:34:28.000Z</time>
      </trkpt>
      <trkpt lat="45.58551" lon="5.73005">
        <ele>632</ele>
        <time>2019-10-27T12:34:29.000Z</time>
      </trkpt>
      <trkpt lat="45.58552" lon="5.73003">
        <ele>632</ele>
        <time>2019-10-27T12:34:30.000Z</time>
      </trkpt>
      <trkpt lat="45.58553" lon="5.73002">
        <ele>632</ele>
        <time>2019-10-27T12:34:31.000Z</time>
      </trkpt>
      <trkpt lat="45.58554" lon="5.73001">
        <ele>632</ele>
        <time>2019-10-27T12:34:32.000Z</time>
      </trkpt>
      <trkpt lat="45.58555" lon="5.73">
        <ele>632</ele>
        <time>2019-10-27T12:34:33.000Z</time>
      </trkpt>
      <trkpt lat="45.58556" lon="5.72999">
        <ele>631.5</ele>
        <time>2019-10-27T12:34:34.000Z</time>
      </trkpt>
      <trkpt lat="45.58557" lon="5.72998">
        <ele>631</ele>
        <time>2019-10-27T12:34:35.000Z</time>
      </trkpt>
      <trkpt lat="45.58558" lon="5.72997">
        <ele>631</ele>
        <time>2019-10-27T12:34:36.000Z</time>
      </trkpt>
      <trkpt lat="45.58559" lon="5.72997">
        <ele>631</ele>
        <time>2019-10-27T12:34:37.000Z</time>
      </trkpt>
      <trkpt lat="45.5856" lon="5.72996">
        <ele>631</ele>
        <time>2019-10-27T12:34:38.000Z</time>
      </trkpt>
      <trkpt lat="45.58561" lon="5.72996">
        <ele>631</ele>
        <time>2019-10-27T12:34:39.000Z</time>
      </trkpt>
      <trkpt lat="45.58562" lon="5.72995">
        <ele>631</ele>
        <time>2019-10-27T12:34:40.000Z</time>
      </trkpt>
      <trkpt lat="45.58563" lon="5.72995">
        <ele>631</ele>
        <time>2019-10-27T12:34:41.000Z</time>
      </trkpt>
      <trkpt lat="45.58565" lon="5.72995">
        <ele>631</ele>
        <time>2019-10-27T12:34:42.000Z</time>
      </trkpt>
      <trkpt lat="45.58566" lon="5.72995">
        <ele>631</ele>
        <time>2019-10-27T12:34:43.000Z</time>
      </trkpt>
      <trkpt lat="45.58567" lon="5.72995">
        <ele>631</ele>
        <time>2019-10-27T12:34:44.000Z</time>
      </trkpt>
      <trkpt lat="45.58568" lon="5.72995">
        <ele>630.5</ele>
        <time>2019-10-27T12:34:45.000Z</time>
      </trkpt>
      <trkpt lat="45.58569" lon="5.72995">
        <ele>630</ele>
        <time>2019-10-27T12:34:46.000Z</time>
      </trkpt>
      <trkpt lat="45.58571" lon="5.72995">
        <ele>630</ele>
        <time>2019-10-27T12:34:47.000Z</time>
      </trkpt>
      <trkpt lat="45.58572" lon="5.72995">
        <ele>630</ele>
        <time>2019-10-27T12:34:48.000Z</time>
      </trkpt>
      <trkpt lat="45.58574" lon="5.72996">
        <ele>630</ele>
        <time>2019-10-27T12:34:49.000Z</time>
      </trkpt>
      <trkpt lat="45.58576" lon="5.72997">
        <ele>630</ele>
        <time>2019-10-27T12:34:50.000Z</time>
      </trkpt>
      <trkpt lat="45.58577" lon="5.72998">
        <ele>630</ele>
        <time>2019-10-27T12:34:51.000Z</time>
      </trkpt>
      <trkpt lat="45.58578" lon="5.72999">
        <ele>630</ele>
        <time>2019-10-27T12:34:52.000Z</time>
      </trkpt>
      <trkpt lat="45.58578" lon="5.73">
        <ele>630</ele>
        <time>2019-10-27T12:34:53.000Z</time>
      </trkpt>
      <trkpt lat="45.58579" lon="5.73001">
        <ele>630</ele>
        <time>2019-10-27T12:34:54.000Z</time>
      </trkpt>
      <trkpt lat="45.5858" lon="5.73001">
        <ele>630</ele>
        <time>2019-10-27T12:34:55.000Z</time>
      </trkpt>
      <trkpt lat="45.5858" lon="5.73002">
        <ele>630</ele>
        <time>2019-10-27T12:34:56.000Z</time>
      </trkpt>
      <trkpt lat="45.58581" lon="5.73003">
        <ele>630</ele>
        <time>2019-10-27T12:34:57.000Z</time>
      </trkpt>
      <trkpt lat="45.58581" lon="5.73003">
        <ele>630</ele>
        <time>2019-10-27T12:34:58.000Z</time>
      </trkpt>
      <trkpt lat="45.58582" lon="5.73004">
        <ele>630</ele>
        <time>2019-10-27T12:34:59.000Z</time>
      </trkpt>
      <trkpt lat="45.58582" lon="5.73004">
        <ele>630</ele>
        <time>2019-10-27T12:35:00.000Z</time>
      </trkpt>
      <trkpt lat="45.58583" lon="5.73005">
        <ele>630</ele>
        <time>2019-10-27T12:35:01.000Z</time>
      </trkpt>
      <trkpt lat="45.58583" lon="5.73005">
        <ele>630</ele>
        <time>2019-10-27T12:35:02.000Z</time>
      </trkpt>
      <trkpt lat="45.58583" lon="5.73006">
        <ele>630</ele>
        <time>2019-10-27T12:35:03.000Z</time>
      </trkpt>
      <trkpt lat="45.58583" lon="5.73006">
        <ele>630</ele>
        <time>2019-10-27T12:35:04.000Z</time>
      </trkpt>
      <trkpt lat="45.58583" lon="5.73007">
        <ele>630</ele>
        <time>2019-10-27T12:35:05.000Z</time>
      </trkpt>
      <trkpt lat="45.58583" lon="5.73008">
        <ele>630</ele>
        <time>2019-10-27T12:35:06.000Z</time>
      </trkpt>
      <trkpt lat="45.58583" lon="5.73008">
        <ele>630</ele>
        <time>2019-10-27T12:35:07.000Z</time>
      </trkpt>
      <trkpt lat="45.58584" lon="5.73009">
        <ele>630</ele>
        <time>2019-10-27T12:35:08.000Z</time>
      </trkpt>
      <trkpt lat="45.58584" lon="5.73009">
        <ele>630</ele>
        <time>2019-10-27T12:35:09.000Z</time>
      </trkpt>
      <trkpt lat="45.58585" lon="5.7301">
        <ele>630</ele>
        <time>2019-10-27T12:35:10.000Z</time>
      </trkpt>
      <trkpt lat="45.58586" lon="5.73011">
        <ele>630</ele>
        <time>2019-10-27T12:35:11.000Z</time>
      </trkpt>
      <trkpt lat="45.58587" lon="5.73012">
        <ele>630</ele>
        <time>2019-10-27T12:35:12.000Z</time>
      </trkpt>
      <trkpt lat="45.58588" lon="5.73012">
        <ele>630</ele>
        <time>2019-10-27T12:35:13.000Z</time>
      </trkpt>
      <trkpt lat="45.5859" lon="5.73013">
        <ele>630</ele>
        <time>2019-10-27T12:35:14.000Z</time>
      </trkpt>
      <trkpt lat="45.58591" lon="5.73013">
        <ele>630</ele>
        <time>2019-10-27T12:35:15.000Z</time>
      </trkpt>
      <trkpt lat="45.58592" lon="5.73013">
        <ele>630</ele>
        <time>2019-10-27T12:35:16.000Z</time>
      </trkpt>
      <trkpt lat="45.58593" lon="5.73014">
        <ele>630</ele>
        <time>2019-10-27T12:35:17.000Z</time>
      </trkpt>
      <trkpt lat="45.58594" lon="5.73014">
        <ele>630</ele>
        <time>2019-10-27T12:35:18.000Z</time>
      </trkpt>
      <trkpt lat="45.58595" lon="5.73014">
        <ele>630</ele>
        <time>2019-10-27T12:35:19.000Z</time>
      </trkpt>
      <trkpt lat="45.58597" lon="5.73014">
        <ele>630</ele>
        <time>2019-10-27T12:35:20.000Z</time>
      </trkpt>
      <trkpt lat="45.58598" lon="5.73014">
        <ele>630</ele>
        <time>2019-10-27T12:35:21.000Z</time>
      </trkpt>
      <trkpt lat="45.58599" lon="5.73015">
        <ele>630</ele>
        <time>2019-10-27T12:35:22.000Z</time>
      </trkpt>
      <trkpt lat="45.586" lon="5.73015">
        <ele>630</ele>
        <time>2019-10-27T12:35:23.000Z</time>
      </trkpt>
      <trkpt lat="45.58601" lon="5.73015">
        <ele>630</ele>
        <time>2019-10-27T12:35:24.000Z</time>
      </trkpt>
      <trkpt lat="45.58602" lon="5.73015">
        <ele>630.3</ele>
        <time>2019-10-27T12:35:25.000Z</time>
      </trkpt>
      <trkpt lat="45.58603" lon="5.73016">
        <ele>630.7</ele>
        <time>2019-10-27T12:35:26.000Z</time>
      </trkpt>
      <trkpt lat="45.58604" lon="5.73016">
        <ele>631</ele>
        <time>2019-10-27T12:35:27.000Z</time>
      </trkpt>
      <trkpt lat="45.58605" lon="5.73016">
        <ele>631</ele>
        <time>2019-10-27T12:35:28.000Z</time>
      </trkpt>
      <trkpt lat="45.58606" lon="5.73016">
        <ele>631</ele>
        <time>2019-10-27T12:35:29.000Z</time>
      </trkpt>
      <trkpt lat="45.58608" lon="5.73017">
        <ele>631</ele>
        <time>2019-10-27T12:35:30.000Z</time>
      </trkpt>
      <trkpt lat="45.58609" lon="5.73017">
        <ele>631</ele>
        <time>2019-10-27T12:35:31.000Z</time>
      </trkpt>
      <trkpt lat="45.5861" lon="5.73017">
        <ele>631</ele>
        <time>2019-10-27T12:35:32.000Z</time>
      </trkpt>
      <trkpt lat="45.58611" lon="5.73017">
        <ele>631</ele>
        <time>2019-10-27T12:35:33.000Z</time>
      </trkpt>
      <trkpt lat="45.58612" lon="5.73018">
        <ele>631</ele>
        <time>2019-10-27T12:35:34.000Z</time>
      </trkpt>
      <trkpt lat="45.58613" lon="5.73018">
        <ele>631</ele>
        <time>2019-10-27T12:35:35.000Z</time>
      </trkpt>
      <trkpt lat="45.58614" lon="5.73019">
        <ele>631</ele>
        <time>2019-10-27T12:35:36.000Z</time>
      </trkpt>
      <trkpt lat="45.58615" lon="5.73019">
        <ele>631</ele>
        <time>2019-10-27T12:35:37.000Z</time>
      </trkpt>
      <trkpt lat="45.58615" lon="5.73019">
        <ele>631</ele>
        <time>2019-10-27T12:35:38.000Z</time>
      </trkpt>
      <trkpt lat="45.58616" lon="5.7302">
        <ele>631</ele>
        <time>2019-10-27T12:35:39.000Z</time>
      </trkpt>
      <trkpt lat="45.58617" lon="5.7302">
        <ele>631</ele>
        <time>2019-10-27T12:35:40.000Z</time>
      </trkpt>
      <trkpt lat="45.58618" lon="5.73021">
        <ele>631</ele>
        <time>2019-10-27T12:35:41.000Z</time>
      </trkpt>
      <trkpt lat="45.58619" lon="5.73021">
        <ele>631</ele>
        <time>2019-10-27T12:35:42.000Z</time>
      </trkpt>
      <trkpt lat="45.5862" lon="5.73022">
        <ele>631</ele>
        <time>2019-10-27T12:35:43.000Z</time>
      </trkpt>
      <trkpt lat="45.5862" lon="5.73022">
        <ele>631</ele>
        <time>2019-10-27T12:35:44.000Z</time>
      </trkpt>
      <trkpt lat="45.58621" lon="5.73023">
        <ele>631</ele>
        <time>2019-10-27T12:35:45.000Z</time>
      </trkpt>
      <trkpt lat="45.58622" lon="5.73024">
        <ele>631</ele>
        <time>2019-10-27T12:35:46.000Z</time>
      </trkpt>
      <trkpt lat="45.58623" lon="5.73024">
        <ele>631</ele>
        <time>2019-10-27T12:35:47.000Z</time>
      </trkpt>
      <trkpt lat="45.58624" lon="5.73025">
        <ele>631</ele>
        <time>2019-10-27T12:35:48.000Z</time>
      </trkpt>
      <trkpt lat="45.58625" lon="5.73026">
        <ele>631.3</ele>
        <time>2019-10-27T12:35:49.000Z</time>
      </trkpt>
      <trkpt lat="45.58626" lon="5.73026">
        <ele>631.7</ele>
        <time>2019-10-27T12:35:50.000Z</time>
      </trkpt>
      <trkpt lat="45.58626" lon="5.73027">
        <ele>632</ele>
        <time>2019-10-27T12:35:51.000Z</time>
      </trkpt>
      <trkpt lat="45.58627" lon="5.73028">
        <ele>632</ele>
        <time>2019-10-27T12:35:52.000Z</time>
      </trkpt>
      <trkpt lat="45.58628" lon="5.73028">
        <ele>632</ele>
        <time>2019-10-27T12:35:53.000Z</time>
      </trkpt>
      <trkpt lat="45.58628" lon="5.73029">
        <ele>632</ele>
        <time>2019-10-27T12:35:54.000Z</time>
      </trkpt>
      <trkpt lat="45.58629" lon="5.7303">
        <ele>632</ele>
        <time>2019-10-27T12:35:55.000Z</time>
      </trkpt>
      <trkpt lat="45.58629" lon="5.73031">
        <ele>632</ele>
        <time>2019-10-27T12:35:56.000Z</time>
      </trkpt>
      <trkpt lat="45.5863" lon="5.73031">
        <ele>632</ele>
        <time>2019-10-27T12:35:57.000Z</time>
      </trkpt>
      <trkpt lat="45.5863" lon="5.73032">
        <ele>632</ele>
        <time>2019-10-27T12:35:58.000Z</time>
      </trkpt>
      <trkpt lat="45.58631" lon="5.73033">
        <ele>632</ele>
        <time>2019-10-27T12:35:59.000Z</time>
      </trkpt>
      <trkpt lat="45.58631" lon="5.73033">
        <ele>632</ele>
        <time>2019-10-27T12:36:00.000Z</time>
      </trkpt>
      <trkpt lat="45.58632" lon="5.73034">
        <ele>632</ele>
        <time>2019-10-27T12:36:01.000Z</time>
      </trkpt>
      <trkpt lat="45.58633" lon="5.73034">
        <ele>632</ele>
        <time>2019-10-27T12:36:02.000Z</time>
      </trkpt>
      <trkpt lat="45.58633" lon="5.73034">
        <ele>632</ele>
        <time>2019-10-27T12:36:03.000Z</time>
      </trkpt>
      <trkpt lat="45.58634" lon="5.73035">
        <ele>632</ele>
        <time>2019-10-27T12:36:04.000Z</time>
      </trkpt>
      <trkpt lat="45.58635" lon="5.73035">
        <ele>632</ele>
        <time>2019-10-27T12:36:05.000Z</time>
      </trkpt>
      <trkpt lat="45.58636" lon="5.73035">
        <ele>632</ele>
        <time>2019-10-27T12:36:06.000Z</time>
      </trkpt>
      <trkpt lat="45.58637" lon="5.73035">
        <ele>632</ele>
        <time>2019-10-27T12:36:07.000Z</time>
      </trkpt>
      <trkpt lat="45.58638" lon="5.73036">
        <ele>632</ele>
        <time>2019-10-27T12:36:08.000Z</time>
      </trkpt>
      <trkpt lat="45.58639" lon="5.73036">
        <ele>632</ele>
        <time>2019-10-27T12:36:09.000Z</time>
      </trkpt>
      <trkpt lat="45.5864" lon="5.73037">
        <ele>632</ele>
        <time>2019-10-27T12:36:10.000Z</time>
      </trkpt>
      <trkpt lat="45.58641" lon="5.73037">
        <ele>632</ele>
        <time>2019-10-27T12:36:11.000Z</time>
      </trkpt>
      <trkpt lat="45.58642" lon="5.73038">
        <ele>632</ele>
        <time>2019-10-27T12:36:12.000Z</time>
      </trkpt>
      <trkpt lat="45.58643" lon="5.73039">
        <ele>632</ele>
        <time>2019-10-27T12:36:13.000Z</time>
      </trkpt>
      <trkpt lat="45.58643" lon="5.7304">
        <ele>632</ele>
        <time>2019-10-27T12:36:14.000Z</time>
      </trkpt>
      <trkpt lat="45.58644" lon="5.7304">
        <ele>632</ele>
        <time>2019-10-27T12:36:15.000Z</time>
      </trkpt>
      <trkpt lat="45.58645" lon="5.73041">
        <ele>632</ele>
        <time>2019-10-27T12:36:16.000Z</time>
      </trkpt>
      <trkpt lat="45.58645" lon="5.73042">
        <ele>632</ele>
        <time>2019-10-27T12:36:17.000Z</time>
      </trkpt>
      <trkpt lat="45.58646" lon="5.73043">
        <ele>632</ele>
        <time>2019-10-27T12:36:18.000Z</time>
      </trkpt>
      <trkpt lat="45.58647" lon="5.73044">
        <ele>632</ele>
        <time>2019-10-27T12:36:19.000Z</time>
      </trkpt>
      <trkpt lat="45.58648" lon="5.73044">
        <ele>632</ele>
        <time>2019-10-27T12:36:20.000Z</time>
      </trkpt>
      <trkpt lat="45.58649" lon="5.73045">
        <ele>632</ele>
        <time>2019-10-27T12:36:21.000Z</time>
      </trkpt>
      <trkpt lat="45.5865" lon="5.73046">
        <ele>632</ele>
        <time>2019-10-27T12:36:22.000Z</time>
      </trkpt>
      <trkpt lat="45.58651" lon="5.73046">
        <ele>632</ele>
        <time>2019-10-27T12:36:23.000Z</time>
      </trkpt>
      <trkpt lat="45.58652" lon="5.73047">
        <ele>632</ele>
        <time>2019-10-27T12:36:24.000Z</time>
      </trkpt>
      <trkpt lat="45.58652" lon="5.73048">
        <ele>632</ele>
        <time>2019-10-27T12:36:25.000Z</time>
      </trkpt>
      <trkpt lat="45.58653" lon="5.73048">
        <ele>632</ele>
        <time>2019-10-27T12:36:26.000Z</time>
      </trkpt>
      <trkpt lat="45.58653" lon="5.73049">
        <ele>632</ele>
        <time>2019-10-27T12:36:27.000Z</time>
      </trkpt>
      <trkpt lat="45.58654" lon="5.7305">
        <ele>632</ele>
        <time>2019-10-27T12:36:28.000Z</time>
      </trkpt>
      <trkpt lat="45.58654" lon="5.7305">
        <ele>632</ele>
        <time>2019-10-27T12:36:29.000Z</time>
      </trkpt>
      <trkpt lat="45.58655" lon="5.73051">
        <ele>632</ele>
        <time>2019-10-27T12:36:30.000Z</time>
      </trkpt>
      <trkpt lat="45.58656" lon="5.73052">
        <ele>632</ele>
        <time>2019-10-27T12:36:31.000Z</time>
      </trkpt>
      <trkpt lat="45.58658" lon="5.73053">
        <ele>632</ele>
        <time>2019-10-27T12:36:32.000Z</time>
      </trkpt>
      <trkpt lat="45.5866" lon="5.73055">
        <ele>632</ele>
        <time>2019-10-27T12:36:33.000Z</time>
      </trkpt>
      <trkpt lat="45.58662" lon="5.73056">
        <ele>632</ele>
        <time>2019-10-27T12:36:34.000Z</time>
      </trkpt>
      <trkpt lat="45.58664" lon="5.73057">
        <ele>632</ele>
        <time>2019-10-27T12:36:35.000Z</time>
      </trkpt>
      <trkpt lat="45.58665" lon="5.73058">
        <ele>632</ele>
        <time>2019-10-27T12:36:36.000Z</time>
      </trkpt>
      <trkpt lat="45.58667" lon="5.73059">
        <ele>632</ele>
        <time>2019-10-27T12:36:37.000Z</time>
      </trkpt>
      <trkpt lat="45.58668" lon="5.7306">
        <ele>632</ele>
        <time>2019-10-27T12:36:38.000Z</time>
      </trkpt>
      <trkpt lat="45.5867" lon="5.73061">
        <ele>632</ele>
        <time>2019-10-27T12:36:39.000Z</time>
      </trkpt>
      <trkpt lat="45.58671" lon="5.73061">
        <ele>632</ele>
        <time>2019-10-27T12:36:40.000Z</time>
      </trkpt>
      <trkpt lat="45.58672" lon="5.73062">
        <ele>632</ele>
        <time>2019-10-27T12:36:41.000Z</time>
      </trkpt>
      <trkpt lat="45.58672" lon="5.73063">
        <ele>632</ele>
        <time>2019-10-27T12:36:42.000Z</time>
      </trkpt>
      <trkpt lat="45.58673" lon="5.73063">
        <ele>632</ele>
        <time>2019-10-27T12:36:43.000Z</time>
      </trkpt>
      <trkpt lat="45.58674" lon="5.73064">
        <ele>632</ele>
        <time>2019-10-27T12:36:44.000Z</time>
      </trkpt>
      <trkpt lat="45.58675" lon="5.73064">
        <ele>632</ele>
        <time>2019-10-27T12:36:45.000Z</time>
      </trkpt>
      <trkpt lat="45.58676" lon="5.73065">
        <ele>632</ele>
        <time>2019-10-27T12:36:46.000Z</time>
      </trkpt>
      <trkpt lat="45.58676" lon="5.73065">
        <ele>632</ele>
        <time>2019-10-27T12:36:47.000Z</time>
      </trkpt>
      <trkpt lat="45.58677" lon="5.73066">
        <ele>632</ele>
        <time>2019-10-27T12:36:48.000Z</time>
      </trkpt>
      <trkpt lat="45.58678" lon="5.73066">
        <ele>632</ele>
        <time>2019-10-27T12:36:49.000Z</time>
      </trkpt>
      <trkpt lat="45.58679" lon="5.73067">
        <ele>632</ele>
        <time>2019-10-27T12:36:50.000Z</time>
      </trkpt>
      <trkpt lat="45.5868" lon="5.73067">
        <ele>632</ele>
        <time>2019-10-27T12:36:51.000Z</time>
      </trkpt>
      <trkpt lat="45.5868" lon="5.73068">
        <ele>632</ele>
        <time>2019-10-27T12:36:52.000Z</time>
      </trkpt>
      <trkpt lat="45.58681" lon="5.73068">
        <ele>632</ele>
        <time>2019-10-27T12:36:53.000Z</time>
      </trkpt>
      <trkpt lat="45.58682" lon="5.73068">
        <ele>631.5</ele>
        <time>2019-10-27T12:36:54.000Z</time>
      </trkpt>
      <trkpt lat="45.58682" lon="5.73069">
        <ele>631</ele>
        <time>2019-10-27T12:36:55.000Z</time>
      </trkpt>
      <trkpt lat="45.58683" lon="5.73069">
        <ele>631</ele>
        <time>2019-10-27T12:36:56.000Z</time>
      </trkpt>
      <trkpt lat="45.58684" lon="5.73069">
        <ele>631</ele>
        <time>2019-10-27T12:36:57.000Z</time>
      </trkpt>
      <trkpt lat="45.58684" lon="5.7307">
        <ele>631</ele>
        <time>2019-10-27T12:36:58.000Z</time>
      </trkpt>
      <trkpt lat="45.58685" lon="5.73071">
        <ele>631</ele>
        <time>2019-10-27T12:36:59.000Z</time>
      </trkpt>
      <trkpt lat="45.58686" lon="5.73071">
        <ele>631</ele>
        <time>2019-10-27T12:37:00.000Z</time>
      </trkpt>
      <trkpt lat="45.58687" lon="5.73072">
        <ele>631</ele>
        <time>2019-10-27T12:37:01.000Z</time>
      </trkpt>
      <trkpt lat="45.58687" lon="5.73073">
        <ele>631</ele>
        <time>2019-10-27T12:37:02.000Z</time>
      </trkpt>
      <trkpt lat="45.58688" lon="5.73074">
        <ele>631</ele>
        <time>2019-10-27T12:37:03.000Z</time>
      </trkpt>
      <trkpt lat="45.58688" lon="5.73074">
        <ele>631</ele>
        <time>2019-10-27T12:37:04.000Z</time>
      </trkpt>
      <trkpt lat="45.58689" lon="5.73075">
        <ele>631</ele>
        <time>2019-10-27T12:37:05.000Z</time>
      </trkpt>
      <trkpt lat="45.58689" lon="5.73075">
        <ele>631</ele>
        <time>2019-10-27T12:37:06.000Z</time>
      </trkpt>
      <trkpt lat="45.58689" lon="5.73076">
        <ele>631</ele>
        <time>2019-10-27T12:37:07.000Z</time>
      </trkpt>
      <trkpt lat="45.58689" lon="5.73076">
        <ele>631</ele>
        <time>2019-10-27T12:37:08.000Z</time>
      </trkpt>
      <trkpt lat="45.5869" lon="5.73077">
        <ele>631</ele>
        <time>2019-10-27T12:37:09.000Z</time>
      </trkpt>
      <trkpt lat="45.5869" lon="5.73077">
        <ele>630.5</ele>
        <time>2019-10-27T12:37:10.000Z</time>
      </trkpt>
      <trkpt lat="45.58691" lon="5.73078">
        <ele>630</ele>
        <time>2019-10-27T12:37:11.000Z</time>
      </trkpt>
      <trkpt lat="45.58692" lon="5.73079">
        <ele>630</ele>
        <time>2019-10-27T12:37:12.000Z</time>
      </trkpt>
      <trkpt lat="45.58693" lon="5.7308">
        <ele>630</ele>
        <time>2019-10-27T12:37:13.000Z</time>
      </trkpt>
      <trkpt lat="45.58695" lon="5.7308">
        <ele>630</ele>
        <time>2019-10-27T12:37:14.000Z</time>
      </trkpt>
      <trkpt lat="45.58696" lon="5.73081">
        <ele>630</ele>
        <time>2019-10-27T12:37:15.000Z</time>
      </trkpt>
      <trkpt lat="45.58698" lon="5.73082">
        <ele>630</ele>
        <time>2019-10-27T12:37:16.000Z</time>
      </trkpt>
      <trkpt lat="45.58699" lon="5.73083">
        <ele>630</ele>
        <time>2019-10-27T12:37:17.000Z</time>
      </trkpt>
      <trkpt lat="45.58701" lon="5.73084">
        <ele>630</ele>
        <time>2019-10-27T12:37:18.000Z</time>
      </trkpt>
      <trkpt lat="45.58702" lon="5.73086">
        <ele>630</ele>
        <time>2019-10-27T12:37:19.000Z</time>
      </trkpt>
      <trkpt lat="45.58703" lon="5.73087">
        <ele>630</ele>
        <time>2019-10-27T12:37:20.000Z</time>
      </trkpt>
      <trkpt lat="45.58704" lon="5.73088">
        <ele>630</ele>
        <time>2019-10-27T12:37:21.000Z</time>
      </trkpt>
      <trkpt lat="45.58706" lon="5.73089">
        <ele>629</ele>
        <time>2019-10-27T12:37:22.000Z</time>
      </trkpt>
      <trkpt lat="45.58707" lon="5.7309">
        <ele>629</ele>
        <time>2019-10-27T12:37:23.000Z</time>
      </trkpt>
      <trkpt lat="45.58707" lon="5.73092">
        <ele>629</ele>
        <time>2019-10-27T12:37:24.000Z</time>
      </trkpt>
      <trkpt lat="45.58708" lon="5.73093">
        <ele>629</ele>
        <time>2019-10-27T12:37:25.000Z</time>
      </trkpt>
      <trkpt lat="45.58709" lon="5.73094">
        <ele>629</ele>
        <time>2019-10-27T12:37:26.000Z</time>
      </trkpt>
      <trkpt lat="45.5871" lon="5.73095">
        <ele>629</ele>
        <time>2019-10-27T12:37:27.000Z</time>
      </trkpt>
      <trkpt lat="45.5871" lon="5.73097">
        <ele>629</ele>
        <time>2019-10-27T12:37:28.000Z</time>
      </trkpt>
      <trkpt lat="45.58711" lon="5.73098">
        <ele>629</ele>
        <time>2019-10-27T12:37:29.000Z</time>
      </trkpt>
      <trkpt lat="45.58712" lon="5.73099">
        <ele>629</ele>
        <time>2019-10-27T12:37:30.000Z</time>
      </trkpt>
      <trkpt lat="45.58712" lon="5.731">
        <ele>629</ele>
        <time>2019-10-27T12:37:31.000Z</time>
      </trkpt>
      <trkpt lat="45.58712" lon="5.73101">
        <ele>629</ele>
        <time>2019-10-27T12:37:32.000Z</time>
      </trkpt>
      <trkpt lat="45.58713" lon="5.73103">
        <ele>629</ele>
        <time>2019-10-27T12:37:33.000Z</time>
      </trkpt>
      <trkpt lat="45.58713" lon="5.73104">
        <ele>629</ele>
        <time>2019-10-27T12:37:34.000Z</time>
      </trkpt>
      <trkpt lat="45.58714" lon="5.73106">
        <ele>629</ele>
        <time>2019-10-27T12:37:35.000Z</time>
      </trkpt>
      <trkpt lat="45.58714" lon="5.73107">
        <ele>629</ele>
        <time>2019-10-27T12:37:36.000Z</time>
      </trkpt>
      <trkpt lat="45.58714" lon="5.73109">
        <ele>628.7</ele>
        <time>2019-10-27T12:37:37.000Z</time>
      </trkpt>
      <trkpt lat="45.58715" lon="5.7311">
        <ele>628.3</ele>
        <time>2019-10-27T12:37:38.000Z</time>
      </trkpt>
      <trkpt lat="45.58715" lon="5.73112">
        <ele>628</ele>
        <time>2019-10-27T12:37:39.000Z</time>
      </trkpt>
      <trkpt lat="45.58715" lon="5.73113">
        <ele>628</ele>
        <time>2019-10-27T12:37:40.000Z</time>
      </trkpt>
      <trkpt lat="45.58715" lon="5.73115">
        <ele>628</ele>
        <time>2019-10-27T12:37:41.000Z</time>
      </trkpt>
      <trkpt lat="45.58715" lon="5.73116">
        <ele>628</ele>
        <time>2019-10-27T12:37:42.000Z</time>
      </trkpt>
      <trkpt lat="45.58715" lon="5.73117">
        <ele>628</ele>
        <time>2019-10-27T12:37:43.000Z</time>
      </trkpt>
      <trkpt lat="45.58715" lon="5.73118">
        <ele>628</ele>
        <time>2019-10-27T12:37:44.000Z</time>
      </trkpt>
      <trkpt lat="45.58714" lon="5.73119">
        <ele>628</ele>
        <time>2019-10-27T12:37:45.000Z</time>
      </trkpt>
      <trkpt lat="45.58715" lon="5.7312">
        <ele>628</ele>
        <time>2019-10-27T12:37:46.000Z</time>
      </trkpt>
      <trkpt lat="45.58715" lon="5.73122">
        <ele>628</ele>
        <time>2019-10-27T12:37:47.000Z</time>
      </trkpt>
      <trkpt lat="45.58715" lon="5.73123">
        <ele>627.5</ele>
        <time>2019-10-27T12:37:48.000Z</time>
      </trkpt>
      <trkpt lat="45.58715" lon="5.73124">
        <ele>627</ele>
        <time>2019-10-27T12:37:49.000Z</time>
      </trkpt>
      <trkpt lat="45.58715" lon="5.73125">
        <ele>627</ele>
        <time>2019-10-27T12:37:50.000Z</time>
      </trkpt>
      <trkpt lat="45.58716" lon="5.73126">
        <ele>627</ele>
        <time>2019-10-27T12:37:51.000Z</time>
      </trkpt>
      <trkpt lat="45.58716" lon="5.73128">
        <ele>627</ele>
        <time>2019-10-27T12:37:52.000Z</time>
      </trkpt>
      <trkpt lat="45.58717" lon="5.73129">
        <ele>627</ele>
        <time>2019-10-27T12:37:53.000Z</time>
      </trkpt>
      <trkpt lat="45.58717" lon="5.7313">
        <ele>627</ele>
        <time>2019-10-27T12:37:54.000Z</time>
      </trkpt>
      <trkpt lat="45.58718" lon="5.73131">
        <ele>627</ele>
        <time>2019-10-27T12:37:55.000Z</time>
      </trkpt>
      <trkpt lat="45.58718" lon="5.73132">
        <ele>627</ele>
        <time>2019-10-27T12:37:56.000Z</time>
      </trkpt>
      <trkpt lat="45.58719" lon="5.73134">
        <ele>627</ele>
        <time>2019-10-27T12:37:57.000Z</time>
      </trkpt>
      <trkpt lat="45.5872" lon="5.73135">
        <ele>626.5</ele>
        <time>2019-10-27T12:37:58.000Z</time>
      </trkpt>
      <trkpt lat="45.5872" lon="5.73136">
        <ele>626</ele>
        <time>2019-10-27T12:37:59.000Z</time>
      </trkpt>
      <trkpt lat="45.58721" lon="5.73137">
        <ele>626</ele>
        <time>2019-10-27T12:38:00.000Z</time>
      </trkpt>
      <trkpt lat="45.58722" lon="5.73138">
        <ele>626</ele>
        <time>2019-10-27T12:38:01.000Z</time>
      </trkpt>
      <trkpt lat="45.58722" lon="5.7314">
        <ele>626</ele>
        <time>2019-10-27T12:38:02.000Z</time>
      </trkpt>
      <trkpt lat="45.58723" lon="5.73141">
        <ele>626</ele>
        <time>2019-10-27T12:38:03.000Z</time>
      </trkpt>
      <trkpt lat="45.58724" lon="5.73142">
        <ele>626</ele>
        <time>2019-10-27T12:38:04.000Z</time>
      </trkpt>
      <trkpt lat="45.58725" lon="5.73143">
        <ele>625.7</ele>
        <time>2019-10-27T12:38:05.000Z</time>
      </trkpt>
      <trkpt lat="45.58725" lon="5.73144">
        <ele>625.3</ele>
        <time>2019-10-27T12:38:06.000Z</time>
      </trkpt>
      <trkpt lat="45.58726" lon="5.73145">
        <ele>625</ele>
        <time>2019-10-27T12:38:07.000Z</time>
      </trkpt>
      <trkpt lat="45.58726" lon="5.73146">
        <ele>625</ele>
        <time>2019-10-27T12:38:08.000Z</time>
      </trkpt>
      <trkpt lat="45.58727" lon="5.73147">
        <ele>625</ele>
        <time>2019-10-27T12:38:09.000Z</time>
      </trkpt>
      <trkpt lat="45.58727" lon="5.73148">
        <ele>625</ele>
        <time>2019-10-27T12:38:10.000Z</time>
      </trkpt>
      <trkpt lat="45.58728" lon="5.73149">
        <ele>625</ele>
        <time>2019-10-27T12:38:11.000Z</time>
      </trkpt>
      <trkpt lat="45.58728" lon="5.7315">
        <ele>625</ele>
        <time>2019-10-27T12:38:12.000Z</time>
      </trkpt>
      <trkpt lat="45.58728" lon="5.73152">
        <ele>625</ele>
        <time>2019-10-27T12:38:13.000Z</time>
      </trkpt>
      <trkpt lat="45.58728" lon="5.73153">
        <ele>624</ele>
        <time>2019-10-27T12:38:14.000Z</time>
      </trkpt>
      <trkpt lat="45.58728" lon="5.73154">
        <ele>624</ele>
        <time>2019-10-27T12:38:15.000Z</time>
      </trkpt>
      <trkpt lat="45.58729" lon="5.73155">
        <ele>624</ele>
        <time>2019-10-27T12:38:16.000Z</time>
      </trkpt>
      <trkpt lat="45.58729" lon="5.73156">
        <ele>624</ele>
        <time>2019-10-27T12:38:17.000Z</time>
      </trkpt>
      <trkpt lat="45.58729" lon="5.73157">
        <ele>624</ele>
        <time>2019-10-27T12:38:18.000Z</time>
      </trkpt>
      <trkpt lat="45.58729" lon="5.73158">
        <ele>624</ele>
        <time>2019-10-27T12:38:19.000Z</time>
      </trkpt>
      <trkpt lat="45.58729" lon="5.73159">
        <ele>624</ele>
        <time>2019-10-27T12:38:20.000Z</time>
      </trkpt>
      <trkpt lat="45.58729" lon="5.7316">
        <ele>624</ele>
        <time>2019-10-27T12:38:21.000Z</time>
      </trkpt>
      <trkpt lat="45.5873" lon="5.73161">
        <ele>624</ele>
        <time>2019-10-27T12:38:22.000Z</time>
      </trkpt>
      <trkpt lat="45.5873" lon="5.73162">
        <ele>624</ele>
        <time>2019-10-27T12:38:23.000Z</time>
      </trkpt>
      <trkpt lat="45.5873" lon="5.73163">
        <ele>624</ele>
        <time>2019-10-27T12:38:24.000Z</time>
      </trkpt>
      <trkpt lat="45.5873" lon="5.73164">
        <ele>624</ele>
        <time>2019-10-27T12:38:25.000Z</time>
      </trkpt>
      <trkpt lat="45.58731" lon="5.73165">
        <ele>623.5</ele>
        <time>2019-10-27T12:38:26.000Z</time>
      </trkpt>
      <trkpt lat="45.58731" lon="5.73166">
        <ele>623</ele>
        <time>2019-10-27T12:38:27.000Z</time>
      </trkpt>
      <trkpt lat="45.58731" lon="5.73167">
        <ele>623</ele>
        <time>2019-10-27T12:38:28.000Z</time>
      </trkpt>
      <trkpt lat="45.58731" lon="5.73168">
        <ele>623</ele>
        <time>2019-10-27T12:38:29.000Z</time>
      </trkpt>
      <trkpt lat="45.58731" lon="5.73169">
        <ele>623</ele>
        <time>2019-10-27T12:38:30.000Z</time>
      </trkpt>
      <trkpt lat="45.58732" lon="5.7317">
        <ele>623</ele>
        <time>2019-10-27T12:38:31.000Z</time>
      </trkpt>
      <trkpt lat="45.58732" lon="5.73171">
        <ele>623</ele>
        <time>2019-10-27T12:38:32.000Z</time>
      </trkpt>
      <trkpt lat="45.58732" lon="5.73172">
        <ele>623</ele>
        <time>2019-10-27T12:38:33.000Z</time>
      </trkpt>
      <trkpt lat="45.58732" lon="5.73173">
        <ele>622.5</ele>
        <time>2019-10-27T12:38:34.000Z</time>
      </trkpt>
      <trkpt lat="45.58733" lon="5.73174">
        <ele>622</ele>
        <time>2019-10-27T12:38:35.000Z</time>
      </trkpt>
      <trkpt lat="45.58733" lon="5.73175">
        <ele>622</ele>
        <time>2019-10-27T12:38:36.000Z</time>
      </trkpt>
      <trkpt lat="45.58734" lon="5.73176">
        <ele>622</ele>
        <time>2019-10-27T12:38:37.000Z</time>
      </trkpt>
      <trkpt lat="45.58734" lon="5.73177">
        <ele>622</ele>
        <time>2019-10-27T12:38:38.000Z</time>
      </trkpt>
      <trkpt lat="45.58735" lon="5.73178">
        <ele>622</ele>
        <time>2019-10-27T12:38:39.000Z</time>
      </trkpt>
      <trkpt lat="45.58736" lon="5.73179">
        <ele>622</ele>
        <time>2019-10-27T12:38:40.000Z</time>
      </trkpt>
      <trkpt lat="45.58737" lon="5.7318">
        <ele>622</ele>
        <time>2019-10-27T12:38:41.000Z</time>
      </trkpt>
      <trkpt lat="45.58738" lon="5.73181">
        <ele>622</ele>
        <time>2019-10-27T12:38:42.000Z</time>
      </trkpt>
      <trkpt lat="45.58739" lon="5.73182">
        <ele>622</ele>
        <time>2019-10-27T12:38:43.000Z</time>
      </trkpt>
      <trkpt lat="45.5874" lon="5.73184">
        <ele>622</ele>
        <time>2019-10-27T12:38:44.000Z</time>
      </trkpt>
      <trkpt lat="45.58741" lon="5.73185">
        <ele>622</ele>
        <time>2019-10-27T12:38:45.000Z</time>
      </trkpt>
      <trkpt lat="45.58742" lon="5.73186">
        <ele>621.5</ele>
        <time>2019-10-27T12:38:46.000Z</time>
      </trkpt>
      <trkpt lat="45.58742" lon="5.73187">
        <ele>621</ele>
        <time>2019-10-27T12:38:47.000Z</time>
      </trkpt>
      <trkpt lat="45.58743" lon="5.73188">
        <ele>621</ele>
        <time>2019-10-27T12:38:48.000Z</time>
      </trkpt>
      <trkpt lat="45.58744" lon="5.73189">
        <ele>621</ele>
        <time>2019-10-27T12:38:49.000Z</time>
      </trkpt>
      <trkpt lat="45.58745" lon="5.73189">
        <ele>621</ele>
        <time>2019-10-27T12:38:50.000Z</time>
      </trkpt>
      <trkpt lat="45.58746" lon="5.7319">
        <ele>621</ele>
        <time>2019-10-27T12:38:51.000Z</time>
      </trkpt>
      <trkpt lat="45.58747" lon="5.73191">
        <ele>621</ele>
        <time>2019-10-27T12:38:52.000Z</time>
      </trkpt>
      <trkpt lat="45.58748" lon="5.73192">
        <ele>621</ele>
        <time>2019-10-27T12:38:53.000Z</time>
      </trkpt>
      <trkpt lat="45.58749" lon="5.73193">
        <ele>621</ele>
        <time>2019-10-27T12:38:54.000Z</time>
      </trkpt>
      <trkpt lat="45.5875" lon="5.73194">
        <ele>621</ele>
        <time>2019-10-27T12:38:55.000Z</time>
      </trkpt>
      <trkpt lat="45.58751" lon="5.73195">
        <ele>621</ele>
        <time>2019-10-27T12:38:56.000Z</time>
      </trkpt>
      <trkpt lat="45.58752" lon="5.73196">
        <ele>621</ele>
        <time>2019-10-27T12:38:57.000Z</time>
      </trkpt>
      <trkpt lat="45.58753" lon="5.73197">
        <ele>621</ele>
        <time>2019-10-27T12:38:58.000Z</time>
      </trkpt>
      <trkpt lat="45.58754" lon="5.73198">
        <ele>621</ele>
        <time>2019-10-27T12:38:59.000Z</time>
      </trkpt>
      <trkpt lat="45.58755" lon="5.73199">
        <ele>621</ele>
        <time>2019-10-27T12:39:00.000Z</time>
      </trkpt>
      <trkpt lat="45.58756" lon="5.732">
        <ele>621</ele>
        <time>2019-10-27T12:39:01.000Z</time>
      </trkpt>
      <trkpt lat="45.58756" lon="5.732">
        <ele>620.5</ele>
        <time>2019-10-27T12:39:02.000Z</time>
      </trkpt>
      <trkpt lat="45.58757" lon="5.73201">
        <ele>620</ele>
        <time>2019-10-27T12:39:03.000Z</time>
      </trkpt>
      <trkpt lat="45.58757" lon="5.73202">
        <ele>620</ele>
        <time>2019-10-27T12:39:04.000Z</time>
      </trkpt>
      <trkpt lat="45.58757" lon="5.73203">
        <ele>620</ele>
        <time>2019-10-27T12:39:05.000Z</time>
      </trkpt>
      <trkpt lat="45.58758" lon="5.73204">
        <ele>620</ele>
        <time>2019-10-27T12:39:06.000Z</time>
      </trkpt>
      <trkpt lat="45.58758" lon="5.73205">
        <ele>620</ele>
        <time>2019-10-27T12:39:07.000Z</time>
      </trkpt>
      <trkpt lat="45.58758" lon="5.73206">
        <ele>620</ele>
        <time>2019-10-27T12:39:08.000Z</time>
      </trkpt>
      <trkpt lat="45.58759" lon="5.73206">
        <ele>620</ele>
        <time>2019-10-27T12:39:09.000Z</time>
      </trkpt>
      <trkpt lat="45.58759" lon="5.73207">
        <ele>620</ele>
        <time>2019-10-27T12:39:10.000Z</time>
      </trkpt>
      <trkpt lat="45.5876" lon="5.73208">
        <ele>620</ele>
        <time>2019-10-27T12:39:11.000Z</time>
      </trkpt>
      <trkpt lat="45.58761" lon="5.73209">
        <ele>620</ele>
        <time>2019-10-27T12:39:12.000Z</time>
      </trkpt>
      <trkpt lat="45.58762" lon="5.73209">
        <ele>620</ele>
        <time>2019-10-27T12:39:13.000Z</time>
      </trkpt>
      <trkpt lat="45.58763" lon="5.7321">
        <ele>620</ele>
        <time>2019-10-27T12:39:14.000Z</time>
      </trkpt>
      <trkpt lat="45.58764" lon="5.7321">
        <ele>620</ele>
        <time>2019-10-27T12:39:15.000Z</time>
      </trkpt>
      <trkpt lat="45.58765" lon="5.73211">
        <ele>620</ele>
        <time>2019-10-27T12:39:16.000Z</time>
      </trkpt>
      <trkpt lat="45.58766" lon="5.73212">
        <ele>620</ele>
        <time>2019-10-27T12:39:17.000Z</time>
      </trkpt>
      <trkpt lat="45.58767" lon="5.73213">
        <ele>620</ele>
        <time>2019-10-27T12:39:18.000Z</time>
      </trkpt>
      <trkpt lat="45.58769" lon="5.73215">
        <ele>620</ele>
        <time>2019-10-27T12:39:19.000Z</time>
      </trkpt>
      <trkpt lat="45.58769" lon="5.73216">
        <ele>620</ele>
        <time>2019-10-27T12:39:20.000Z</time>
      </trkpt>
      <trkpt lat="45.5877" lon="5.73216">
        <ele>620</ele>
        <time>2019-10-27T12:39:21.000Z</time>
      </trkpt>
      <trkpt lat="45.5877" lon="5.73217">
        <ele>620</ele>
        <time>2019-10-27T12:39:22.000Z</time>
      </trkpt>
      <trkpt lat="45.58771" lon="5.73217">
        <ele>620</ele>
        <time>2019-10-27T12:39:23.000Z</time>
      </trkpt>
      <trkpt lat="45.58772" lon="5.73218">
        <ele>620</ele>
        <time>2019-10-27T12:39:24.000Z</time>
      </trkpt>
      <trkpt lat="45.58773" lon="5.73219">
        <ele>620</ele>
        <time>2019-10-27T12:39:25.000Z</time>
      </trkpt>
      <trkpt lat="45.58774" lon="5.7322">
        <ele>619.5</ele>
        <time>2019-10-27T12:39:26.000Z</time>
      </trkpt>
      <trkpt lat="45.58775" lon="5.73221">
        <ele>619</ele>
        <time>2019-10-27T12:39:27.000Z</time>
      </trkpt>
      <trkpt lat="45.58776" lon="5.73222">
        <ele>619</ele>
        <time>2019-10-27T12:39:28.000Z</time>
      </trkpt>
      <trkpt lat="45.58777" lon="5.73222">
        <ele>619</ele>
        <time>2019-10-27T12:39:29.000Z</time>
      </trkpt>
      <trkpt lat="45.58778" lon="5.73223">
        <ele>619</ele>
        <time>2019-10-27T12:39:30.000Z</time>
      </trkpt>
      <trkpt lat="45.5878" lon="5.73223">
        <ele>619</ele>
        <time>2019-10-27T12:39:31.000Z</time>
      </trkpt>
      <trkpt lat="45.58781" lon="5.73224">
        <ele>619</ele>
        <time>2019-10-27T12:39:32.000Z</time>
      </trkpt>
      <trkpt lat="45.58782" lon="5.73225">
        <ele>619</ele>
        <time>2019-10-27T12:39:33.000Z</time>
      </trkpt>
      <trkpt lat="45.58783" lon="5.73225">
        <ele>619</ele>
        <time>2019-10-27T12:39:34.000Z</time>
      </trkpt>
      <trkpt lat="45.58784" lon="5.73226">
        <ele>619</ele>
        <time>2019-10-27T12:39:35.000Z</time>
      </trkpt>
      <trkpt lat="45.58785" lon="5.73226">
        <ele>619</ele>
        <time>2019-10-27T12:39:36.000Z</time>
      </trkpt>
      <trkpt lat="45.58786" lon="5.73227">
        <ele>619</ele>
        <time>2019-10-27T12:39:37.000Z</time>
      </trkpt>
      <trkpt lat="45.58787" lon="5.73227">
        <ele>619</ele>
        <time>2019-10-27T12:39:38.000Z</time>
      </trkpt>
      <trkpt lat="45.58789" lon="5.73228">
        <ele>619</ele>
        <time>2019-10-27T12:39:39.000Z</time>
      </trkpt>
      <trkpt lat="45.5879" lon="5.73228">
        <ele>619</ele>
        <time>2019-10-27T12:39:40.000Z</time>
      </trkpt>
      <trkpt lat="45.58791" lon="5.73229">
        <ele>619</ele>
        <time>2019-10-27T12:39:41.000Z</time>
      </trkpt>
      <trkpt lat="45.58793" lon="5.73229">
        <ele>619</ele>
        <time>2019-10-27T12:39:42.000Z</time>
      </trkpt>
      <trkpt lat="45.58794" lon="5.73229">
        <ele>619</ele>
        <time>2019-10-27T12:39:43.000Z</time>
      </trkpt>
      <trkpt lat="45.58796" lon="5.73229">
        <ele>619</ele>
        <time>2019-10-27T12:39:44.000Z</time>
      </trkpt>
      <trkpt lat="45.58797" lon="5.73229">
        <ele>619</ele>
        <time>2019-10-27T12:39:45.000Z</time>
      </trkpt>
      <trkpt lat="45.58798" lon="5.73229">
        <ele>619</ele>
        <time>2019-10-27T12:39:46.000Z</time>
      </trkpt>
      <trkpt lat="45.588" lon="5.73229">
        <ele>619</ele>
        <time>2019-10-27T12:39:47.000Z</time>
      </trkpt>
      <trkpt lat="45.58801" lon="5.7323">
        <ele>619</ele>
        <time>2019-10-27T12:39:48.000Z</time>
      </trkpt>
      <trkpt lat="45.58802" lon="5.7323">
        <ele>619</ele>
        <time>2019-10-27T12:39:49.000Z</time>
      </trkpt>
      <trkpt lat="45.58804" lon="5.7323">
        <ele>619</ele>
        <time>2019-10-27T12:39:50.000Z</time>
      </trkpt>
      <trkpt lat="45.58805" lon="5.7323">
        <ele>619</ele>
        <time>2019-10-27T12:39:51.000Z</time>
      </trkpt>
      <trkpt lat="45.58806" lon="5.73231">
        <ele>619</ele>
        <time>2019-10-27T12:39:52.000Z</time>
      </trkpt>
      <trkpt lat="45.58808" lon="5.73231">
        <ele>619</ele>
        <time>2019-10-27T12:39:53.000Z</time>
      </trkpt>
      <trkpt lat="45.58809" lon="5.73231">
        <ele>619</ele>
        <time>2019-10-27T12:39:54.000Z</time>
      </trkpt>
      <trkpt lat="45.5881" lon="5.73231">
        <ele>618.7</ele>
        <time>2019-10-27T12:39:55.000Z</time>
      </trkpt>
      <trkpt lat="45.58812" lon="5.73231">
        <ele>618.3</ele>
        <time>2019-10-27T12:39:56.000Z</time>
      </trkpt>
      <trkpt lat="45.58813" lon="5.73232">
        <ele>618</ele>
        <time>2019-10-27T12:39:57.000Z</time>
      </trkpt>
      <trkpt lat="45.58814" lon="5.73232">
        <ele>618</ele>
        <time>2019-10-27T12:39:58.000Z</time>
      </trkpt>
      <trkpt lat="45.58815" lon="5.73232">
        <ele>618</ele>
        <time>2019-10-27T12:39:59.000Z</time>
      </trkpt>
      <trkpt lat="45.58816" lon="5.73232">
        <ele>618</ele>
        <time>2019-10-27T12:40:00.000Z</time>
      </trkpt>
      <trkpt lat="45.58817" lon="5.73232">
        <ele>618</ele>
        <time>2019-10-27T12:40:01.000Z</time>
      </trkpt>
      <trkpt lat="45.58819" lon="5.73232">
        <ele>618</ele>
        <time>2019-10-27T12:40:02.000Z</time>
      </trkpt>
      <trkpt lat="45.5882" lon="5.73232">
        <ele>618</ele>
        <time>2019-10-27T12:40:03.000Z</time>
      </trkpt>
      <trkpt lat="45.58821" lon="5.73231">
        <ele>618</ele>
        <time>2019-10-27T12:40:04.000Z</time>
      </trkpt>
      <trkpt lat="45.58822" lon="5.73231">
        <ele>618</ele>
        <time>2019-10-27T12:40:05.000Z</time>
      </trkpt>
      <trkpt lat="45.58823" lon="5.73231">
        <ele>618</ele>
        <time>2019-10-27T12:40:06.000Z</time>
      </trkpt>
      <trkpt lat="45.58824" lon="5.7323">
        <ele>618</ele>
        <time>2019-10-27T12:40:07.000Z</time>
      </trkpt>
      <trkpt lat="45.58825" lon="5.7323">
        <ele>618</ele>
        <time>2019-10-27T12:40:08.000Z</time>
      </trkpt>
      <trkpt lat="45.58826" lon="5.7323">
        <ele>618</ele>
        <time>2019-10-27T12:40:09.000Z</time>
      </trkpt>
      <trkpt lat="45.58827" lon="5.73229">
        <ele>618</ele>
        <time>2019-10-27T12:40:10.000Z</time>
      </trkpt>
      <trkpt lat="45.58828" lon="5.73229">
        <ele>618</ele>
        <time>2019-10-27T12:40:11.000Z</time>
      </trkpt>
      <trkpt lat="45.5883" lon="5.73228">
        <ele>618</ele>
        <time>2019-10-27T12:40:12.000Z</time>
      </trkpt>
      <trkpt lat="45.58831" lon="5.73228">
        <ele>618</ele>
        <time>2019-10-27T12:40:13.000Z</time>
      </trkpt>
      <trkpt lat="45.58832" lon="5.73227">
        <ele>618</ele>
        <time>2019-10-27T12:40:14.000Z</time>
      </trkpt>
      <trkpt lat="45.58833" lon="5.73227">
        <ele>618</ele>
        <time>2019-10-27T12:40:15.000Z</time>
      </trkpt>
      <trkpt lat="45.58835" lon="5.73226">
        <ele>618</ele>
        <time>2019-10-27T12:40:16.000Z</time>
      </trkpt>
      <trkpt lat="45.58836" lon="5.73226">
        <ele>618</ele>
        <time>2019-10-27T12:40:17.000Z</time>
      </trkpt>
      <trkpt lat="45.58838" lon="5.73225">
        <ele>618</ele>
        <time>2019-10-27T12:40:18.000Z</time>
      </trkpt>
      <trkpt lat="45.58839" lon="5.73224">
        <ele>618</ele>
        <time>2019-10-27T12:40:19.000Z</time>
      </trkpt>
      <trkpt lat="45.58841" lon="5.73224">
        <ele>618</ele>
        <time>2019-10-27T12:40:20.000Z</time>
      </trkpt>
      <trkpt lat="45.58842" lon="5.73224">
        <ele>618</ele>
        <time>2019-10-27T12:40:21.000Z</time>
      </trkpt>
      <trkpt lat="45.58844" lon="5.73224">
        <ele>618</ele>
        <time>2019-10-27T12:40:22.000Z</time>
      </trkpt>
      <trkpt lat="45.58845" lon="5.73224">
        <ele>618</ele>
        <time>2019-10-27T12:40:23.000Z</time>
      </trkpt>
      <trkpt lat="45.58845" lon="5.73224">
        <ele>618</ele>
        <time>2019-10-27T12:40:24.000Z</time>
      </trkpt>
      <trkpt lat="45.58846" lon="5.73224">
        <ele>618</ele>
        <time>2019-10-27T12:40:25.000Z</time>
      </trkpt>
      <trkpt lat="45.58847" lon="5.73224">
        <ele>618</ele>
        <time>2019-10-27T12:40:26.000Z</time>
      </trkpt>
      <trkpt lat="45.58848" lon="5.73223">
        <ele>618</ele>
        <time>2019-10-27T12:40:27.000Z</time>
      </trkpt>
      <trkpt lat="45.58849" lon="5.73223">
        <ele>618</ele>
        <time>2019-10-27T12:40:28.000Z</time>
      </trkpt>
      <trkpt lat="45.5885" lon="5.73222">
        <ele>617.7</ele>
        <time>2019-10-27T12:40:29.000Z</time>
      </trkpt>
      <trkpt lat="45.5885" lon="5.73222">
        <ele>617.3</ele>
        <time>2019-10-27T12:40:30.000Z</time>
      </trkpt>
      <trkpt lat="45.58851" lon="5.73222">
        <ele>617</ele>
        <time>2019-10-27T12:40:31.000Z</time>
      </trkpt>
      <trkpt lat="45.58852" lon="5.73221">
        <ele>617</ele>
        <time>2019-10-27T12:40:32.000Z</time>
      </trkpt>
      <trkpt lat="45.58852" lon="5.73221">
        <ele>617</ele>
        <time>2019-10-27T12:40:33.000Z</time>
      </trkpt>
      <trkpt lat="45.58853" lon="5.73221">
        <ele>617</ele>
        <time>2019-10-27T12:40:34.000Z</time>
      </trkpt>
      <trkpt lat="45.58853" lon="5.73221">
        <ele>617.5</ele>
        <time>2019-10-27T12:40:35.000Z</time>
      </trkpt>
      <trkpt lat="45.58854" lon="5.73221">
        <ele>618</ele>
        <time>2019-10-27T12:40:36.000Z</time>
      </trkpt>
      <trkpt lat="45.58854" lon="5.7322">
        <ele>618</ele>
        <time>2019-10-27T12:40:37.000Z</time>
      </trkpt>
      <trkpt lat="45.58855" lon="5.7322">
        <ele>618</ele>
        <time>2019-10-27T12:40:38.000Z</time>
      </trkpt>
      <trkpt lat="45.58855" lon="5.7322">
        <ele>618</ele>
        <time>2019-10-27T12:40:39.000Z</time>
      </trkpt>
      <trkpt lat="45.58856" lon="5.7322">
        <ele>618</ele>
        <time>2019-10-27T12:40:40.000Z</time>
      </trkpt>
      <trkpt lat="45.58856" lon="5.7322">
        <ele>618</ele>
        <time>2019-10-27T12:40:41.000Z</time>
      </trkpt>
      <trkpt lat="45.58857" lon="5.7322">
        <ele>618</ele>
        <time>2019-10-27T12:40:42.000Z</time>
      </trkpt>
      <trkpt lat="45.58858" lon="5.7322">
        <ele>618</ele>
        <time>2019-10-27T12:40:43.000Z</time>
      </trkpt>
      <trkpt lat="45.58858" lon="5.7322">
        <ele>618</ele>
        <time>2019-10-27T12:40:44.000Z</time>
      </trkpt>
      <trkpt lat="45.58859" lon="5.7322">
        <ele>618</ele>
        <time>2019-10-27T12:40:45.000Z</time>
      </trkpt>
      <trkpt lat="45.5886" lon="5.73219">
        <ele>618</ele>
        <time>2019-10-27T12:40:46.000Z</time>
      </trkpt>
      <trkpt lat="45.58861" lon="5.73219">
        <ele>618</ele>
        <time>2019-10-27T12:40:47.000Z</time>
      </trkpt>
      <trkpt lat="45.58862" lon="5.73219">
        <ele>618</ele>
        <time>2019-10-27T12:40:48.000Z</time>
      </trkpt>
      <trkpt lat="45.58862" lon="5.73219">
        <ele>618</ele>
        <time>2019-10-27T12:40:49.000Z</time>
      </trkpt>
      <trkpt lat="45.58863" lon="5.73219">
        <ele>618</ele>
        <time>2019-10-27T12:40:50.000Z</time>
      </trkpt>
      <trkpt lat="45.58864" lon="5.73218">
        <ele>618</ele>
        <time>2019-10-27T12:40:51.000Z</time>
      </trkpt>
      <trkpt lat="45.58865" lon="5.73218">
        <ele>618</ele>
        <time>2019-10-27T12:40:52.000Z</time>
      </trkpt>
      <trkpt lat="45.58866" lon="5.73217">
        <ele>618</ele>
        <time>2019-10-27T12:40:53.000Z</time>
      </trkpt>
      <trkpt lat="45.58867" lon="5.73217">
        <ele>618</ele>
        <time>2019-10-27T12:40:54.000Z</time>
      </trkpt>
      <trkpt lat="45.58868" lon="5.73216">
        <ele>618</ele>
        <time>2019-10-27T12:40:55.000Z</time>
      </trkpt>
      <trkpt lat="45.58869" lon="5.73216">
        <ele>618</ele>
        <time>2019-10-27T12:40:56.000Z</time>
      </trkpt>
      <trkpt lat="45.5887" lon="5.73215">
        <ele>618</ele>
        <time>2019-10-27T12:40:57.000Z</time>
      </trkpt>
      <trkpt lat="45.58871" lon="5.73215">
        <ele>618</ele>
        <time>2019-10-27T12:40:58.000Z</time>
      </trkpt>
      <trkpt lat="45.58872" lon="5.73214">
        <ele>618</ele>
        <time>2019-10-27T12:40:59.000Z</time>
      </trkpt>
      <trkpt lat="45.58873" lon="5.73213">
        <ele>618</ele>
        <time>2019-10-27T12:41:00.000Z</time>
      </trkpt>
      <trkpt lat="45.58874" lon="5.73213">
        <ele>618</ele>
        <time>2019-10-27T12:41:01.000Z</time>
      </trkpt>
      <trkpt lat="45.58875" lon="5.73212">
        <ele>618</ele>
        <time>2019-10-27T12:41:02.000Z</time>
      </trkpt>
      <trkpt lat="45.58876" lon="5.73211">
        <ele>618</ele>
        <time>2019-10-27T12:41:03.000Z</time>
      </trkpt>
      <trkpt lat="45.58876" lon="5.73211">
        <ele>618</ele>
        <time>2019-10-27T12:41:04.000Z</time>
      </trkpt>
      <trkpt lat="45.58877" lon="5.7321">
        <ele>618</ele>
        <time>2019-10-27T12:41:05.000Z</time>
      </trkpt>
      <trkpt lat="45.58877" lon="5.73209">
        <ele>618</ele>
        <time>2019-10-27T12:41:06.000Z</time>
      </trkpt>
      <trkpt lat="45.58878" lon="5.73209">
        <ele>618</ele>
        <time>2019-10-27T12:41:07.000Z</time>
      </trkpt>
      <trkpt lat="45.58879" lon="5.73208">
        <ele>618</ele>
        <time>2019-10-27T12:41:08.000Z</time>
      </trkpt>
      <trkpt lat="45.58879" lon="5.73208">
        <ele>618</ele>
        <time>2019-10-27T12:41:09.000Z</time>
      </trkpt>
      <trkpt lat="45.5888" lon="5.73207">
        <ele>618</ele>
        <time>2019-10-27T12:41:10.000Z</time>
      </trkpt>
      <trkpt lat="45.58881" lon="5.73207">
        <ele>618</ele>
        <time>2019-10-27T12:41:11.000Z</time>
      </trkpt>
      <trkpt lat="45.58882" lon="5.73206">
        <ele>619</ele>
        <time>2019-10-27T12:41:12.000Z</time>
      </trkpt>
      <trkpt lat="45.58883" lon="5.73205">
        <ele>619</ele>
        <time>2019-10-27T12:41:13.000Z</time>
      </trkpt>
      <trkpt lat="45.58884" lon="5.73205">
        <ele>619</ele>
        <time>2019-10-27T12:41:14.000Z</time>
      </trkpt>
      <trkpt lat="45.58885" lon="5.73204">
        <ele>619</ele>
        <time>2019-10-27T12:41:15.000Z</time>
      </trkpt>
      <trkpt lat="45.58886" lon="5.73204">
        <ele>619</ele>
        <time>2019-10-27T12:41:16.000Z</time>
      </trkpt>
      <trkpt lat="45.58887" lon="5.73203">
        <ele>619</ele>
        <time>2019-10-27T12:41:17.000Z</time>
      </trkpt>
      <trkpt lat="45.58888" lon="5.73203">
        <ele>619</ele>
        <time>2019-10-27T12:41:18.000Z</time>
      </trkpt>
      <trkpt lat="45.58889" lon="5.73202">
        <ele>619</ele>
        <time>2019-10-27T12:41:19.000Z</time>
      </trkpt>
      <trkpt lat="45.5889" lon="5.73202">
        <ele>619</ele>
        <time>2019-10-27T12:41:20.000Z</time>
      </trkpt>
      <trkpt lat="45.58891" lon="5.73201">
        <ele>619</ele>
        <time>2019-10-27T12:41:21.000Z</time>
      </trkpt>
      <trkpt lat="45.58891" lon="5.73201">
        <ele>619</ele>
        <time>2019-10-27T12:41:22.000Z</time>
      </trkpt>
      <trkpt lat="45.58892" lon="5.732">
        <ele>619</ele>
        <time>2019-10-27T12:41:23.000Z</time>
      </trkpt>
      <trkpt lat="45.58893" lon="5.73199">
        <ele>619</ele>
        <time>2019-10-27T12:41:24.000Z</time>
      </trkpt>
      <trkpt lat="45.58894" lon="5.73199">
        <ele>619.3</ele>
        <time>2019-10-27T12:41:25.000Z</time>
      </trkpt>
      <trkpt lat="45.58894" lon="5.73198">
        <ele>619.7</ele>
        <time>2019-10-27T12:41:26.000Z</time>
      </trkpt>
      <trkpt lat="45.58895" lon="5.73198">
        <ele>620</ele>
        <time>2019-10-27T12:41:27.000Z</time>
      </trkpt>
      <trkpt lat="45.58896" lon="5.73197">
        <ele>620</ele>
        <time>2019-10-27T12:41:28.000Z</time>
      </trkpt>
      <trkpt lat="45.58896" lon="5.73197">
        <ele>620</ele>
        <time>2019-10-27T12:41:29.000Z</time>
      </trkpt>
      <trkpt lat="45.58897" lon="5.73196">
        <ele>620</ele>
        <time>2019-10-27T12:41:30.000Z</time>
      </trkpt>
      <trkpt lat="45.58898" lon="5.73196">
        <ele>620</ele>
        <time>2019-10-27T12:41:31.000Z</time>
      </trkpt>
      <trkpt lat="45.58899" lon="5.73195">
        <ele>620</ele>
        <time>2019-10-27T12:41:32.000Z</time>
      </trkpt>
      <trkpt lat="45.58899" lon="5.73195">
        <ele>620</ele>
        <time>2019-10-27T12:41:33.000Z</time>
      </trkpt>
      <trkpt lat="45.589" lon="5.73195">
        <ele>620</ele>
        <time>2019-10-27T12:41:34.000Z</time>
      </trkpt>
      <trkpt lat="45.58901" lon="5.73194">
        <ele>620</ele>
        <time>2019-10-27T12:41:35.000Z</time>
      </trkpt>
      <trkpt lat="45.58902" lon="5.73194">
        <ele>620</ele>
        <time>2019-10-27T12:41:36.000Z</time>
      </trkpt>
      <trkpt lat="45.58903" lon="5.73193">
        <ele>620.3</ele>
        <time>2019-10-27T12:41:37.000Z</time>
      </trkpt>
      <trkpt lat="45.58904" lon="5.73193">
        <ele>620.7</ele>
        <time>2019-10-27T12:41:38.000Z</time>
      </trkpt>
      <trkpt lat="45.58905" lon="5.73192">
        <ele>621</ele>
        <time>2019-10-27T12:41:39.000Z</time>
      </trkpt>
      <trkpt lat="45.58906" lon="5.73192">
        <ele>621</ele>
        <time>2019-10-27T12:41:40.000Z</time>
      </trkpt>
      <trkpt lat="45.58907" lon="5.73191">
        <ele>621</ele>
        <time>2019-10-27T12:41:41.000Z</time>
      </trkpt>
      <trkpt lat="45.58908" lon="5.73191">
        <ele>621</ele>
        <time>2019-10-27T12:41:42.000Z</time>
      </trkpt>
      <trkpt lat="45.58909" lon="5.73191">
        <ele>621</ele>
        <time>2019-10-27T12:41:43.000Z</time>
      </trkpt>
      <trkpt lat="45.5891" lon="5.7319">
        <ele>621</ele>
        <time>2019-10-27T12:41:44.000Z</time>
      </trkpt>
      <trkpt lat="45.58912" lon="5.7319">
        <ele>621</ele>
        <time>2019-10-27T12:41:45.000Z</time>
      </trkpt>
      <trkpt lat="45.58913" lon="5.73189">
        <ele>621</ele>
        <time>2019-10-27T12:41:46.000Z</time>
      </trkpt>
      <trkpt lat="45.58913" lon="5.73189">
        <ele>621</ele>
        <time>2019-10-27T12:41:47.000Z</time>
      </trkpt>
      <trkpt lat="45.58914" lon="5.73188">
        <ele>621</ele>
        <time>2019-10-27T12:41:48.000Z</time>
      </trkpt>
      <trkpt lat="45.58915" lon="5.73188">
        <ele>621</ele>
        <time>2019-10-27T12:41:49.000Z</time>
      </trkpt>
      <trkpt lat="45.58916" lon="5.73187">
        <ele>621</ele>
        <time>2019-10-27T12:41:50.000Z</time>
      </trkpt>
      <trkpt lat="45.58917" lon="5.73187">
        <ele>621</ele>
        <time>2019-10-27T12:41:51.000Z</time>
      </trkpt>
      <trkpt lat="45.58918" lon="5.73186">
        <ele>621</ele>
        <time>2019-10-27T12:41:52.000Z</time>
      </trkpt>
      <trkpt lat="45.58919" lon="5.73186">
        <ele>621.3</ele>
        <time>2019-10-27T12:41:53.000Z</time>
      </trkpt>
      <trkpt lat="45.5892" lon="5.73185">
        <ele>621.7</ele>
        <time>2019-10-27T12:41:54.000Z</time>
      </trkpt>
      <trkpt lat="45.58921" lon="5.73184">
        <ele>622</ele>
        <time>2019-10-27T12:41:55.000Z</time>
      </trkpt>
      <trkpt lat="45.58922" lon="5.73183">
        <ele>622</ele>
        <time>2019-10-27T12:41:56.000Z</time>
      </trkpt>
      <trkpt lat="45.58923" lon="5.73182">
        <ele>622</ele>
        <time>2019-10-27T12:41:57.000Z</time>
      </trkpt>
      <trkpt lat="45.58924" lon="5.73181">
        <ele>622</ele>
        <time>2019-10-27T12:41:58.000Z</time>
      </trkpt>
      <trkpt lat="45.58926" lon="5.7318">
        <ele>622</ele>
        <time>2019-10-27T12:41:59.000Z</time>
      </trkpt>
      <trkpt lat="45.58927" lon="5.7318">
        <ele>622</ele>
        <time>2019-10-27T12:42:00.000Z</time>
      </trkpt>
      <trkpt lat="45.58928" lon="5.73179">
        <ele>622</ele>
        <time>2019-10-27T12:42:01.000Z</time>
      </trkpt>
      <trkpt lat="45.58929" lon="5.73178">
        <ele>622</ele>
        <time>2019-10-27T12:42:02.000Z</time>
      </trkpt>
      <trkpt lat="45.5893" lon="5.73178">
        <ele>622</ele>
        <time>2019-10-27T12:42:03.000Z</time>
      </trkpt>
      <trkpt lat="45.5893" lon="5.73177">
        <ele>622</ele>
        <time>2019-10-27T12:42:04.000Z</time>
      </trkpt>
      <trkpt lat="45.58931" lon="5.73177">
        <ele>622</ele>
        <time>2019-10-27T12:42:05.000Z</time>
      </trkpt>
      <trkpt lat="45.58931" lon="5.73176">
        <ele>622</ele>
        <time>2019-10-27T12:42:06.000Z</time>
      </trkpt>
      <trkpt lat="45.58932" lon="5.73176">
        <ele>622</ele>
        <time>2019-10-27T12:42:07.000Z</time>
      </trkpt>
      <trkpt lat="45.58932" lon="5.73175">
        <ele>622</ele>
        <time>2019-10-27T12:42:08.000Z</time>
      </trkpt>
      <trkpt lat="45.58933" lon="5.73175">
        <ele>622</ele>
        <time>2019-10-27T12:42:09.000Z</time>
      </trkpt>
      <trkpt lat="45.58933" lon="5.73175">
        <ele>622</ele>
        <time>2019-10-27T12:42:10.000Z</time>
      </trkpt>
      <trkpt lat="45.58934" lon="5.73174">
        <ele>622</ele>
        <time>2019-10-27T12:42:11.000Z</time>
      </trkpt>
      <trkpt lat="45.58934" lon="5.73174">
        <ele>622</ele>
        <time>2019-10-27T12:42:12.000Z</time>
      </trkpt>
      <trkpt lat="45.58935" lon="5.73173">
        <ele>622</ele>
        <time>2019-10-27T12:42:13.000Z</time>
      </trkpt>
      <trkpt lat="45.58935" lon="5.73173">
        <ele>623</ele>
        <time>2019-10-27T12:42:14.000Z</time>
      </trkpt>
      <trkpt lat="45.58936" lon="5.73173">
        <ele>622.7</ele>
        <time>2019-10-27T12:42:15.000Z</time>
      </trkpt>
      <trkpt lat="45.58937" lon="5.73172">
        <ele>622.3</ele>
        <time>2019-10-27T12:42:16.000Z</time>
      </trkpt>
      <trkpt lat="45.58937" lon="5.73172">
        <ele>622</ele>
        <time>2019-10-27T12:42:17.000Z</time>
      </trkpt>
      <trkpt lat="45.58938" lon="5.73171">
        <ele>622</ele>
        <time>2019-10-27T12:42:18.000Z</time>
      </trkpt>
      <trkpt lat="45.58939" lon="5.73171">
        <ele>622</ele>
        <time>2019-10-27T12:42:19.000Z</time>
      </trkpt>
      <trkpt lat="45.58939" lon="5.7317">
        <ele>622</ele>
        <time>2019-10-27T12:42:20.000Z</time>
      </trkpt>
      <trkpt lat="45.5894" lon="5.7317">
        <ele>622</ele>
        <time>2019-10-27T12:42:21.000Z</time>
      </trkpt>
      <trkpt lat="45.58941" lon="5.73169">
        <ele>622</ele>
        <time>2019-10-27T12:42:22.000Z</time>
      </trkpt>
      <trkpt lat="45.58941" lon="5.73168">
        <ele>622</ele>
        <time>2019-10-27T12:42:23.000Z</time>
      </trkpt>
      <trkpt lat="45.58942" lon="5.73168">
        <ele>622</ele>
        <time>2019-10-27T12:42:24.000Z</time>
      </trkpt>
      <trkpt lat="45.58942" lon="5.73167">
        <ele>622</ele>
        <time>2019-10-27T12:42:25.000Z</time>
      </trkpt>
      <trkpt lat="45.58943" lon="5.73166">
        <ele>622</ele>
        <time>2019-10-27T12:42:26.000Z</time>
      </trkpt>
      <trkpt lat="45.58943" lon="5.73165">
        <ele>622</ele>
        <time>2019-10-27T12:42:27.000Z</time>
      </trkpt>
      <trkpt lat="45.58944" lon="5.73165">
        <ele>622</ele>
        <time>2019-10-27T12:42:28.000Z</time>
      </trkpt>
      <trkpt lat="45.58944" lon="5.73164">
        <ele>622</ele>
        <time>2019-10-27T12:42:29.000Z</time>
      </trkpt>
      <trkpt lat="45.58945" lon="5.73163">
        <ele>621.5</ele>
        <time>2019-10-27T12:42:30.000Z</time>
      </trkpt>
      <trkpt lat="45.58945" lon="5.73163">
        <ele>621</ele>
        <time>2019-10-27T12:42:31.000Z</time>
      </trkpt>
      <trkpt lat="45.58946" lon="5.73162">
        <ele>621</ele>
        <time>2019-10-27T12:42:32.000Z</time>
      </trkpt>
      <trkpt lat="45.58946" lon="5.73161">
        <ele>621</ele>
        <time>2019-10-27T12:42:33.000Z</time>
      </trkpt>
      <trkpt lat="45.58947" lon="5.73161">
        <ele>621</ele>
        <time>2019-10-27T12:42:34.000Z</time>
      </trkpt>
      <trkpt lat="45.58947" lon="5.7316">
        <ele>621</ele>
        <time>2019-10-27T12:42:35.000Z</time>
      </trkpt>
      <trkpt lat="45.58947" lon="5.7316">
        <ele>620</ele>
        <time>2019-10-27T12:42:36.000Z</time>
      </trkpt>
      <trkpt lat="45.58948" lon="5.7316">
        <ele>620</ele>
        <time>2019-10-27T12:42:37.000Z</time>
      </trkpt>
      <trkpt lat="45.58948" lon="5.73159">
        <ele>620</ele>
        <time>2019-10-27T12:42:38.000Z</time>
      </trkpt>
      <trkpt lat="45.58948" lon="5.73159">
        <ele>620</ele>
        <time>2019-10-27T12:42:39.000Z</time>
      </trkpt>
      <trkpt lat="45.58949" lon="5.73159">
        <ele>620</ele>
        <time>2019-10-27T12:42:40.000Z</time>
      </trkpt>
      <trkpt lat="45.58949" lon="5.73158">
        <ele>620</ele>
        <time>2019-10-27T12:42:41.000Z</time>
      </trkpt>
      <trkpt lat="45.5895" lon="5.73158">
        <ele>620</ele>
        <time>2019-10-27T12:42:42.000Z</time>
      </trkpt>
      <trkpt lat="45.58951" lon="5.73157">
        <ele>620</ele>
        <time>2019-10-27T12:42:43.000Z</time>
      </trkpt>
      <trkpt lat="45.58952" lon="5.73156">
        <ele>619</ele>
        <time>2019-10-27T12:42:44.000Z</time>
      </trkpt>
      <trkpt lat="45.58953" lon="5.73155">
        <ele>619</ele>
        <time>2019-10-27T12:42:45.000Z</time>
      </trkpt>
      <trkpt lat="45.58954" lon="5.73155">
        <ele>619</ele>
        <time>2019-10-27T12:42:46.000Z</time>
      </trkpt>
      <trkpt lat="45.58954" lon="5.73155">
        <ele>619</ele>
        <time>2019-10-27T12:42:47.000Z</time>
      </trkpt>
      <trkpt lat="45.58954" lon="5.73154">
        <ele>619</ele>
        <time>2019-10-27T12:42:48.000Z</time>
      </trkpt>
      <trkpt lat="45.58956" lon="5.73153">
        <ele>619</ele>
        <time>2019-10-27T12:42:49.000Z</time>
      </trkpt>
      <trkpt lat="45.58958" lon="5.73152">
        <ele>619</ele>
        <time>2019-10-27T12:42:50.000Z</time>
      </trkpt>
      <trkpt lat="45.5896" lon="5.73151">
        <ele>619</ele>
        <time>2019-10-27T12:42:51.000Z</time>
      </trkpt>
      <trkpt lat="45.58961" lon="5.7315">
        <ele>619</ele>
        <time>2019-10-27T12:42:52.000Z</time>
      </trkpt>
      <trkpt lat="45.58962" lon="5.73149">
        <ele>619</ele>
        <time>2019-10-27T12:42:53.000Z</time>
      </trkpt>
      <trkpt lat="45.58964" lon="5.73148">
        <ele>618.5</ele>
        <time>2019-10-27T12:42:54.000Z</time>
      </trkpt>
      <trkpt lat="45.58965" lon="5.73148">
        <ele>618</ele>
        <time>2019-10-27T12:42:55.000Z</time>
      </trkpt>
      <trkpt lat="45.58966" lon="5.73147">
        <ele>618</ele>
        <time>2019-10-27T12:42:56.000Z</time>
      </trkpt>
      <trkpt lat="45.58967" lon="5.73146">
        <ele>618</ele>
        <time>2019-10-27T12:42:57.000Z</time>
      </trkpt>
      <trkpt lat="45.58968" lon="5.73146">
        <ele>618</ele>
        <time>2019-10-27T12:42:58.000Z</time>
      </trkpt>
      <trkpt lat="45.58969" lon="5.73145">
        <ele>618</ele>
        <time>2019-10-27T12:42:59.000Z</time>
      </trkpt>
      <trkpt lat="45.5897" lon="5.73144">
        <ele>618</ele>
        <time>2019-10-27T12:43:00.000Z</time>
      </trkpt>
      <trkpt lat="45.58971" lon="5.73144">
        <ele>618</ele>
        <time>2019-10-27T12:43:01.000Z</time>
      </trkpt>
      <trkpt lat="45.58972" lon="5.73143">
        <ele>618</ele>
        <time>2019-10-27T12:43:02.000Z</time>
      </trkpt>
      <trkpt lat="45.58972" lon="5.73143">
        <ele>618</ele>
        <time>2019-10-27T12:43:03.000Z</time>
      </trkpt>
      <trkpt lat="45.58973" lon="5.73142">
        <ele>617</ele>
        <time>2019-10-27T12:43:04.000Z</time>
      </trkpt>
      <trkpt lat="45.58973" lon="5.73142">
        <ele>617</ele>
        <time>2019-10-27T12:43:05.000Z</time>
      </trkpt>
      <trkpt lat="45.58974" lon="5.73142">
        <ele>617</ele>
        <time>2019-10-27T12:43:06.000Z</time>
      </trkpt>
      <trkpt lat="45.58974" lon="5.73141">
        <ele>617</ele>
        <time>2019-10-27T12:43:07.000Z</time>
      </trkpt>
      <trkpt lat="45.58974" lon="5.73141">
        <ele>617</ele>
        <time>2019-10-27T12:43:08.000Z</time>
      </trkpt>
      <trkpt lat="45.58974" lon="5.73141">
        <ele>617</ele>
        <time>2019-10-27T12:43:09.000Z</time>
      </trkpt>
      <trkpt lat="45.58975" lon="5.73141">
        <ele>617</ele>
        <time>2019-10-27T12:43:10.000Z</time>
      </trkpt>
      <trkpt lat="45.58975" lon="5.7314">
        <ele>617</ele>
        <time>2019-10-27T12:43:11.000Z</time>
      </trkpt>
      <trkpt lat="45.58975" lon="5.7314">
        <ele>616</ele>
        <time>2019-10-27T12:43:12.000Z</time>
      </trkpt>
      <trkpt lat="45.58976" lon="5.7314">
        <ele>616</ele>
        <time>2019-10-27T12:43:13.000Z</time>
      </trkpt>
      <trkpt lat="45.58977" lon="5.73139">
        <ele>616</ele>
        <time>2019-10-27T12:43:14.000Z</time>
      </trkpt>
      <trkpt lat="45.58977" lon="5.73139">
        <ele>616</ele>
        <time>2019-10-27T12:43:15.000Z</time>
      </trkpt>
      <trkpt lat="45.58978" lon="5.73138">
        <ele>616</ele>
        <time>2019-10-27T12:43:16.000Z</time>
      </trkpt>
      <trkpt lat="45.58978" lon="5.73138">
        <ele>615.7</ele>
        <time>2019-10-27T12:43:17.000Z</time>
      </trkpt>
      <trkpt lat="45.58979" lon="5.73137">
        <ele>615.3</ele>
        <time>2019-10-27T12:43:18.000Z</time>
      </trkpt>
      <trkpt lat="45.58979" lon="5.73137">
        <ele>615</ele>
        <time>2019-10-27T12:43:19.000Z</time>
      </trkpt>
      <trkpt lat="45.5898" lon="5.73137">
        <ele>615</ele>
        <time>2019-10-27T12:43:20.000Z</time>
      </trkpt>
      <trkpt lat="45.5898" lon="5.73137">
        <ele>615</ele>
        <time>2019-10-27T12:43:21.000Z</time>
      </trkpt>
      <trkpt lat="45.5898" lon="5.73137">
        <ele>615</ele>
        <time>2019-10-27T12:43:22.000Z</time>
      </trkpt>
      <trkpt lat="45.5898" lon="5.73137">
        <ele>615</ele>
        <time>2019-10-27T12:43:23.000Z</time>
      </trkpt>
      <trkpt lat="45.5898" lon="5.73137">
        <ele>615</ele>
        <time>2019-10-27T12:43:24.000Z</time>
      </trkpt>
      <trkpt lat="45.5898" lon="5.73137">
        <ele>615</ele>
        <time>2019-10-27T12:43:25.000Z</time>
      </trkpt>
      <trkpt lat="45.5898" lon="5.73137">
        <ele>615</ele>
        <time>2019-10-27T12:43:26.000Z</time>
      </trkpt>
      <trkpt lat="45.5898" lon="5.73137">
        <ele>614.7</ele>
        <time>2019-10-27T12:43:27.000Z</time>
      </trkpt>
      <trkpt lat="45.5898" lon="5.73136">
        <ele>614.3</ele>
        <time>2019-10-27T12:43:28.000Z</time>
      </trkpt>
      <trkpt lat="45.58982" lon="5.73135">
        <ele>614</ele>
        <time>2019-10-27T12:43:29.000Z</time>
      </trkpt>
      <trkpt lat="45.58988" lon="5.7313">
        <ele>614</ele>
        <time>2019-10-27T12:43:30.000Z</time>
      </trkpt>
      <trkpt lat="45.58989" lon="5.7313">
        <ele>614</ele>
        <time>2019-10-27T12:43:31.000Z</time>
      </trkpt>
      <trkpt lat="45.58989" lon="5.7313">
        <ele>614</ele>
        <time>2019-10-27T12:43:32.000Z</time>
      </trkpt>
      <trkpt lat="45.5899" lon="5.73129">
        <ele>614</ele>
        <time>2019-10-27T12:43:33.000Z</time>
      </trkpt>
      <trkpt lat="45.5899" lon="5.73129">
        <ele>614</ele>
        <time>2019-10-27T12:43:34.000Z</time>
      </trkpt>
      <trkpt lat="45.58991" lon="5.73129">
        <ele>614</ele>
        <time>2019-10-27T12:43:35.000Z</time>
      </trkpt>
      <trkpt lat="45.58991" lon="5.73129">
        <ele>613.5</ele>
        <time>2019-10-27T12:43:36.000Z</time>
      </trkpt>
      <trkpt lat="45.58991" lon="5.73129">
        <ele>613</ele>
        <time>2019-10-27T12:43:37.000Z</time>
      </trkpt>
      <trkpt lat="45.58991" lon="5.73128">
        <ele>613</ele>
        <time>2019-10-27T12:43:38.000Z</time>
      </trkpt>
      <trkpt lat="45.58992" lon="5.73128">
        <ele>613</ele>
        <time>2019-10-27T12:43:39.000Z</time>
      </trkpt>
      <trkpt lat="45.58993" lon="5.73127">
        <ele>613</ele>
        <time>2019-10-27T12:43:40.000Z</time>
      </trkpt>
      <trkpt lat="45.58994" lon="5.73126">
        <ele>613</ele>
        <time>2019-10-27T12:43:41.000Z</time>
      </trkpt>
      <trkpt lat="45.58995" lon="5.73125">
        <ele>613</ele>
        <time>2019-10-27T12:43:42.000Z</time>
      </trkpt>
      <trkpt lat="45.58997" lon="5.73124">
        <ele>613</ele>
        <time>2019-10-27T12:43:43.000Z</time>
      </trkpt>
      <trkpt lat="45.58998" lon="5.73123">
        <ele>613</ele>
        <time>2019-10-27T12:43:44.000Z</time>
      </trkpt>
      <trkpt lat="45.58999" lon="5.73122">
        <ele>612.5</ele>
        <time>2019-10-27T12:43:45.000Z</time>
      </trkpt>
      <trkpt lat="45.59" lon="5.73121">
        <ele>612</ele>
        <time>2019-10-27T12:43:46.000Z</time>
      </trkpt>
      <trkpt lat="45.59001" lon="5.7312">
        <ele>612</ele>
        <time>2019-10-27T12:43:47.000Z</time>
      </trkpt>
      <trkpt lat="45.59002" lon="5.73119">
        <ele>612</ele>
        <time>2019-10-27T12:43:48.000Z</time>
      </trkpt>
      <trkpt lat="45.59003" lon="5.73118">
        <ele>612</ele>
        <time>2019-10-27T12:43:49.000Z</time>
      </trkpt>
      <trkpt lat="45.59004" lon="5.73118">
        <ele>612</ele>
        <time>2019-10-27T12:43:50.000Z</time>
      </trkpt>
      <trkpt lat="45.59004" lon="5.73117">
        <ele>612</ele>
        <time>2019-10-27T12:43:51.000Z</time>
      </trkpt>
      <trkpt lat="45.59005" lon="5.73116">
        <ele>612</ele>
        <time>2019-10-27T12:43:52.000Z</time>
      </trkpt>
      <trkpt lat="45.59005" lon="5.73115">
        <ele>612</ele>
        <time>2019-10-27T12:43:53.000Z</time>
      </trkpt>
      <trkpt lat="45.59006" lon="5.73115">
        <ele>611</ele>
        <time>2019-10-27T12:43:54.000Z</time>
      </trkpt>
      <trkpt lat="45.59006" lon="5.73114">
        <ele>611</ele>
        <time>2019-10-27T12:43:55.000Z</time>
      </trkpt>
      <trkpt lat="45.59007" lon="5.73113">
        <ele>611</ele>
        <time>2019-10-27T12:43:56.000Z</time>
      </trkpt>
      <trkpt lat="45.59007" lon="5.73112">
        <ele>611</ele>
        <time>2019-10-27T12:43:57.000Z</time>
      </trkpt>
      <trkpt lat="45.59008" lon="5.73111">
        <ele>611</ele>
        <time>2019-10-27T12:43:58.000Z</time>
      </trkpt>
      <trkpt lat="45.59008" lon="5.7311">
        <ele>611</ele>
        <time>2019-10-27T12:43:59.000Z</time>
      </trkpt>
      <trkpt lat="45.59009" lon="5.73109">
        <ele>611</ele>
        <time>2019-10-27T12:44:00.000Z</time>
      </trkpt>
      <trkpt lat="45.59009" lon="5.73108">
        <ele>611</ele>
        <time>2019-10-27T12:44:01.000Z</time>
      </trkpt>
      <trkpt lat="45.5901" lon="5.73107">
        <ele>611</ele>
        <time>2019-10-27T12:44:02.000Z</time>
      </trkpt>
      <trkpt lat="45.5901" lon="5.73106">
        <ele>611</ele>
        <time>2019-10-27T12:44:03.000Z</time>
      </trkpt>
      <trkpt lat="45.59011" lon="5.73105">
        <ele>611</ele>
        <time>2019-10-27T12:44:04.000Z</time>
      </trkpt>
      <trkpt lat="45.59011" lon="5.73104">
        <ele>611</ele>
        <time>2019-10-27T12:44:05.000Z</time>
      </trkpt>
      <trkpt lat="45.59012" lon="5.73103">
        <ele>611</ele>
        <time>2019-10-27T12:44:06.000Z</time>
      </trkpt>
      <trkpt lat="45.59013" lon="5.73102">
        <ele>610.7</ele>
        <time>2019-10-27T12:44:07.000Z</time>
      </trkpt>
      <trkpt lat="45.59014" lon="5.73101">
        <ele>610.3</ele>
        <time>2019-10-27T12:44:08.000Z</time>
      </trkpt>
      <trkpt lat="45.59015" lon="5.731">
        <ele>610</ele>
        <time>2019-10-27T12:44:09.000Z</time>
      </trkpt>
      <trkpt lat="45.59015" lon="5.73099">
        <ele>610</ele>
        <time>2019-10-27T12:44:10.000Z</time>
      </trkpt>
      <trkpt lat="45.59016" lon="5.73098">
        <ele>610</ele>
        <time>2019-10-27T12:44:11.000Z</time>
      </trkpt>
      <trkpt lat="45.59017" lon="5.73098">
        <ele>610</ele>
        <time>2019-10-27T12:44:12.000Z</time>
      </trkpt>
      <trkpt lat="45.59018" lon="5.73097">
        <ele>610</ele>
        <time>2019-10-27T12:44:13.000Z</time>
      </trkpt>
      <trkpt lat="45.59019" lon="5.73096">
        <ele>610</ele>
        <time>2019-10-27T12:44:14.000Z</time>
      </trkpt>
      <trkpt lat="45.59019" lon="5.73095">
        <ele>610</ele>
        <time>2019-10-27T12:44:15.000Z</time>
      </trkpt>
      <trkpt lat="45.5902" lon="5.73094">
        <ele>610</ele>
        <time>2019-10-27T12:44:16.000Z</time>
      </trkpt>
      <trkpt lat="45.59021" lon="5.73093">
        <ele>610</ele>
        <time>2019-10-27T12:44:17.000Z</time>
      </trkpt>
      <trkpt lat="45.59021" lon="5.73092">
        <ele>610</ele>
        <time>2019-10-27T12:44:18.000Z</time>
      </trkpt>
      <trkpt lat="45.59022" lon="5.73092">
        <ele>610</ele>
        <time>2019-10-27T12:44:19.000Z</time>
      </trkpt>
      <trkpt lat="45.59022" lon="5.73091">
        <ele>610</ele>
        <time>2019-10-27T12:44:20.000Z</time>
      </trkpt>
      <trkpt lat="45.59023" lon="5.7309">
        <ele>610</ele>
        <time>2019-10-27T12:44:21.000Z</time>
      </trkpt>
      <trkpt lat="45.59023" lon="5.73089">
        <ele>609.5</ele>
        <time>2019-10-27T12:44:22.000Z</time>
      </trkpt>
      <trkpt lat="45.59024" lon="5.73088">
        <ele>609</ele>
        <time>2019-10-27T12:44:23.000Z</time>
      </trkpt>
      <trkpt lat="45.59025" lon="5.73086">
        <ele>609</ele>
        <time>2019-10-27T12:44:24.000Z</time>
      </trkpt>
      <trkpt lat="45.59026" lon="5.73084">
        <ele>609</ele>
        <time>2019-10-27T12:44:25.000Z</time>
      </trkpt>
      <trkpt lat="45.59027" lon="5.73082">
        <ele>609</ele>
        <time>2019-10-27T12:44:26.000Z</time>
      </trkpt>
      <trkpt lat="45.59028" lon="5.7308">
        <ele>609</ele>
        <time>2019-10-27T12:44:27.000Z</time>
      </trkpt>
      <trkpt lat="45.59029" lon="5.73077">
        <ele>609</ele>
        <time>2019-10-27T12:44:28.000Z</time>
      </trkpt>
      <trkpt lat="45.5903" lon="5.73075">
        <ele>609</ele>
        <time>2019-10-27T12:44:29.000Z</time>
      </trkpt>
      <trkpt lat="45.59031" lon="5.73074">
        <ele>609</ele>
        <time>2019-10-27T12:44:30.000Z</time>
      </trkpt>
      <trkpt lat="45.59032" lon="5.73072">
        <ele>609</ele>
        <time>2019-10-27T12:44:31.000Z</time>
      </trkpt>
      <trkpt lat="45.59033" lon="5.73071">
        <ele>609</ele>
        <time>2019-10-27T12:44:32.000Z</time>
      </trkpt>
      <trkpt lat="45.59033" lon="5.7307">
        <ele>609</ele>
        <time>2019-10-27T12:44:33.000Z</time>
      </trkpt>
      <trkpt lat="45.59034" lon="5.73069">
        <ele>609</ele>
        <time>2019-10-27T12:44:34.000Z</time>
      </trkpt>
      <trkpt lat="45.59034" lon="5.73068">
        <ele>609</ele>
        <time>2019-10-27T12:44:35.000Z</time>
      </trkpt>
      <trkpt lat="45.59035" lon="5.73068">
        <ele>609</ele>
        <time>2019-10-27T12:44:36.000Z</time>
      </trkpt>
      <trkpt lat="45.59035" lon="5.73067">
        <ele>609</ele>
        <time>2019-10-27T12:44:37.000Z</time>
      </trkpt>
      <trkpt lat="45.59035" lon="5.73067">
        <ele>609</ele>
        <time>2019-10-27T12:44:38.000Z</time>
      </trkpt>
      <trkpt lat="45.59036" lon="5.73066">
        <ele>608.7</ele>
        <time>2019-10-27T12:44:39.000Z</time>
      </trkpt>
      <trkpt lat="45.59036" lon="5.73066">
        <ele>608.3</ele>
        <time>2019-10-27T12:44:40.000Z</time>
      </trkpt>
      <trkpt lat="45.59037" lon="5.73065">
        <ele>608</ele>
        <time>2019-10-27T12:44:41.000Z</time>
      </trkpt>
      <trkpt lat="45.59037" lon="5.73063">
        <ele>608</ele>
        <time>2019-10-27T12:44:42.000Z</time>
      </trkpt>
      <trkpt lat="45.59038" lon="5.73062">
        <ele>608</ele>
        <time>2019-10-27T12:44:43.000Z</time>
      </trkpt>
      <trkpt lat="45.59038" lon="5.7306">
        <ele>608</ele>
        <time>2019-10-27T12:44:44.000Z</time>
      </trkpt>
      <trkpt lat="45.59039" lon="5.73058">
        <ele>608</ele>
        <time>2019-10-27T12:44:45.000Z</time>
      </trkpt>
      <trkpt lat="45.5904" lon="5.73057">
        <ele>608</ele>
        <time>2019-10-27T12:44:46.000Z</time>
      </trkpt>
      <trkpt lat="45.5904" lon="5.73055">
        <ele>608</ele>
        <time>2019-10-27T12:44:47.000Z</time>
      </trkpt>
      <trkpt lat="45.59041" lon="5.73054">
        <ele>608</ele>
        <time>2019-10-27T12:44:48.000Z</time>
      </trkpt>
      <trkpt lat="45.59041" lon="5.73053">
        <ele>608</ele>
        <time>2019-10-27T12:44:49.000Z</time>
      </trkpt>
      <trkpt lat="45.59042" lon="5.73052">
        <ele>607</ele>
        <time>2019-10-27T12:44:50.000Z</time>
      </trkpt>
      <trkpt lat="45.59043" lon="5.73051">
        <ele>607</ele>
        <time>2019-10-27T12:44:51.000Z</time>
      </trkpt>
      <trkpt lat="45.59043" lon="5.7305">
        <ele>607</ele>
        <time>2019-10-27T12:44:52.000Z</time>
      </trkpt>
      <trkpt lat="45.59043" lon="5.7305">
        <ele>607</ele>
        <time>2019-10-27T12:44:53.000Z</time>
      </trkpt>
      <trkpt lat="45.59044" lon="5.73049">
        <ele>607</ele>
        <time>2019-10-27T12:44:54.000Z</time>
      </trkpt>
      <trkpt lat="45.59044" lon="5.73048">
        <ele>607</ele>
        <time>2019-10-27T12:44:55.000Z</time>
      </trkpt>
      <trkpt lat="45.59044" lon="5.73046">
        <ele>606</ele>
        <time>2019-10-27T12:44:56.000Z</time>
      </trkpt>
      <trkpt lat="45.59045" lon="5.73045">
        <ele>606</ele>
        <time>2019-10-27T12:44:57.000Z</time>
      </trkpt>
      <trkpt lat="45.59045" lon="5.73044">
        <ele>606</ele>
        <time>2019-10-27T12:44:58.000Z</time>
      </trkpt>
      <trkpt lat="45.59046" lon="5.73043">
        <ele>606</ele>
        <time>2019-10-27T12:44:59.000Z</time>
      </trkpt>
      <trkpt lat="45.59046" lon="5.73042">
        <ele>606</ele>
        <time>2019-10-27T12:45:00.000Z</time>
      </trkpt>
      <trkpt lat="45.59047" lon="5.7304">
        <ele>606</ele>
        <time>2019-10-27T12:45:01.000Z</time>
      </trkpt>
      <trkpt lat="45.59047" lon="5.73039">
        <ele>606</ele>
        <time>2019-10-27T12:45:02.000Z</time>
      </trkpt>
      <trkpt lat="45.59048" lon="5.73038">
        <ele>606</ele>
        <time>2019-10-27T12:45:03.000Z</time>
      </trkpt>
      <trkpt lat="45.59049" lon="5.73038">
        <ele>606</ele>
        <time>2019-10-27T12:45:04.000Z</time>
      </trkpt>
      <trkpt lat="45.5905" lon="5.73037">
        <ele>606</ele>
        <time>2019-10-27T12:45:05.000Z</time>
      </trkpt>
      <trkpt lat="45.59051" lon="5.73036">
        <ele>606</ele>
        <time>2019-10-27T12:45:06.000Z</time>
      </trkpt>
      <trkpt lat="45.59053" lon="5.73036">
        <ele>606</ele>
        <time>2019-10-27T12:45:07.000Z</time>
      </trkpt>
      <trkpt lat="45.59054" lon="5.73035">
        <ele>606</ele>
        <time>2019-10-27T12:45:08.000Z</time>
      </trkpt>
      <trkpt lat="45.59055" lon="5.73035">
        <ele>606</ele>
        <time>2019-10-27T12:45:09.000Z</time>
      </trkpt>
      <trkpt lat="45.59056" lon="5.73035">
        <ele>606</ele>
        <time>2019-10-27T12:45:10.000Z</time>
      </trkpt>
      <trkpt lat="45.59057" lon="5.73034">
        <ele>605.7</ele>
        <time>2019-10-27T12:45:11.000Z</time>
      </trkpt>
      <trkpt lat="45.59058" lon="5.73034">
        <ele>605.3</ele>
        <time>2019-10-27T12:45:12.000Z</time>
      </trkpt>
      <trkpt lat="45.59058" lon="5.73034">
        <ele>605</ele>
        <time>2019-10-27T12:45:13.000Z</time>
      </trkpt>
      <trkpt lat="45.59059" lon="5.73034">
        <ele>605</ele>
        <time>2019-10-27T12:45:14.000Z</time>
      </trkpt>
      <trkpt lat="45.59059" lon="5.73034">
        <ele>605</ele>
        <time>2019-10-27T12:45:15.000Z</time>
      </trkpt>
      <trkpt lat="45.59059" lon="5.73034">
        <ele>605</ele>
        <time>2019-10-27T12:45:16.000Z</time>
      </trkpt>
      <trkpt lat="45.59059" lon="5.73034">
        <ele>605</ele>
        <time>2019-10-27T12:45:17.000Z</time>
      </trkpt>
      <trkpt lat="45.59059" lon="5.73033">
        <ele>605</ele>
        <time>2019-10-27T12:45:18.000Z</time>
      </trkpt>
      <trkpt lat="45.5906" lon="5.73033">
        <ele>605</ele>
        <time>2019-10-27T12:45:19.000Z</time>
      </trkpt>
      <trkpt lat="45.59061" lon="5.73032">
        <ele>605</ele>
        <time>2019-10-27T12:45:20.000Z</time>
      </trkpt>
      <trkpt lat="45.59063" lon="5.73031">
        <ele>604.5</ele>
        <time>2019-10-27T12:45:21.000Z</time>
      </trkpt>
      <trkpt lat="45.59064" lon="5.7303">
        <ele>604</ele>
        <time>2019-10-27T12:45:22.000Z</time>
      </trkpt>
      <trkpt lat="45.59065" lon="5.73029">
        <ele>604</ele>
        <time>2019-10-27T12:45:23.000Z</time>
      </trkpt>
      <trkpt lat="45.59066" lon="5.73029">
        <ele>604</ele>
        <time>2019-10-27T12:45:24.000Z</time>
      </trkpt>
      <trkpt lat="45.59066" lon="5.73028">
        <ele>604</ele>
        <time>2019-10-27T12:45:25.000Z</time>
      </trkpt>
      <trkpt lat="45.59067" lon="5.73028">
        <ele>604</ele>
        <time>2019-10-27T12:45:26.000Z</time>
      </trkpt>
      <trkpt lat="45.59068" lon="5.73027">
        <ele>604</ele>
        <time>2019-10-27T12:45:27.000Z</time>
      </trkpt>
      <trkpt lat="45.59068" lon="5.73027">
        <ele>604</ele>
        <time>2019-10-27T12:45:28.000Z</time>
      </trkpt>
      <trkpt lat="45.59069" lon="5.73026">
        <ele>604</ele>
        <time>2019-10-27T12:45:29.000Z</time>
      </trkpt>
      <trkpt lat="45.59069" lon="5.73026">
        <ele>604</ele>
        <time>2019-10-27T12:45:30.000Z</time>
      </trkpt>
      <trkpt lat="45.59069" lon="5.73026">
        <ele>603.7</ele>
        <time>2019-10-27T12:45:31.000Z</time>
      </trkpt>
      <trkpt lat="45.59069" lon="5.73026">
        <ele>603.3</ele>
        <time>2019-10-27T12:45:32.000Z</time>
      </trkpt>
      <trkpt lat="45.5907" lon="5.73026">
        <ele>603</ele>
        <time>2019-10-27T12:45:33.000Z</time>
      </trkpt>
      <trkpt lat="45.5907" lon="5.73026">
        <ele>603</ele>
        <time>2019-10-27T12:45:34.000Z</time>
      </trkpt>
      <trkpt lat="45.5907" lon="5.73026">
        <ele>603</ele>
        <time>2019-10-27T12:45:35.000Z</time>
      </trkpt>
      <trkpt lat="45.5907" lon="5.73026">
        <ele>603</ele>
        <time>2019-10-27T12:45:36.000Z</time>
      </trkpt>
      <trkpt lat="45.59071" lon="5.73026">
        <ele>603</ele>
        <time>2019-10-27T12:45:37.000Z</time>
      </trkpt>
      <trkpt lat="45.59071" lon="5.73026">
        <ele>603</ele>
        <time>2019-10-27T12:45:38.000Z</time>
      </trkpt>
      <trkpt lat="45.59071" lon="5.73025">
        <ele>603</ele>
        <time>2019-10-27T12:45:39.000Z</time>
      </trkpt>
      <trkpt lat="45.59072" lon="5.73025">
        <ele>602</ele>
        <time>2019-10-27T12:45:40.000Z</time>
      </trkpt>
      <trkpt lat="45.59072" lon="5.73025">
        <ele>602</ele>
        <time>2019-10-27T12:45:41.000Z</time>
      </trkpt>
      <trkpt lat="45.59073" lon="5.73026">
        <ele>602</ele>
        <time>2019-10-27T12:45:42.000Z</time>
      </trkpt>
      <trkpt lat="45.59074" lon="5.73026">
        <ele>602</ele>
        <time>2019-10-27T12:45:43.000Z</time>
      </trkpt>
      <trkpt lat="45.59074" lon="5.73026">
        <ele>602</ele>
        <time>2019-10-27T12:45:44.000Z</time>
      </trkpt>
      <trkpt lat="45.59075" lon="5.73026">
        <ele>602</ele>
        <time>2019-10-27T12:45:45.000Z</time>
      </trkpt>
      <trkpt lat="45.59076" lon="5.73027">
        <ele>602</ele>
        <time>2019-10-27T12:45:46.000Z</time>
      </trkpt>
      <trkpt lat="45.59077" lon="5.73027">
        <ele>602</ele>
        <time>2019-10-27T12:45:47.000Z</time>
      </trkpt>
      <trkpt lat="45.59078" lon="5.73028">
        <ele>601</ele>
        <time>2019-10-27T12:45:48.000Z</time>
      </trkpt>
      <trkpt lat="45.59079" lon="5.73029">
        <ele>601</ele>
        <time>2019-10-27T12:45:49.000Z</time>
      </trkpt>
      <trkpt lat="45.5908" lon="5.73029">
        <ele>601</ele>
        <time>2019-10-27T12:45:50.000Z</time>
      </trkpt>
      <trkpt lat="45.59081" lon="5.7303">
        <ele>601</ele>
        <time>2019-10-27T12:45:51.000Z</time>
      </trkpt>
      <trkpt lat="45.59082" lon="5.73031">
        <ele>601</ele>
        <time>2019-10-27T12:45:52.000Z</time>
      </trkpt>
      <trkpt lat="45.59083" lon="5.73032">
        <ele>601</ele>
        <time>2019-10-27T12:45:53.000Z</time>
      </trkpt>
      <trkpt lat="45.59084" lon="5.73032">
        <ele>601</ele>
        <time>2019-10-27T12:45:54.000Z</time>
      </trkpt>
      <trkpt lat="45.59085" lon="5.73033">
        <ele>601</ele>
        <time>2019-10-27T12:45:55.000Z</time>
      </trkpt>
      <trkpt lat="45.59086" lon="5.73033">
        <ele>600.5</ele>
        <time>2019-10-27T12:45:56.000Z</time>
      </trkpt>
      <trkpt lat="45.59087" lon="5.73034">
        <ele>600</ele>
        <time>2019-10-27T12:45:57.000Z</time>
      </trkpt>
      <trkpt lat="45.59089" lon="5.73034">
        <ele>600</ele>
        <time>2019-10-27T12:45:58.000Z</time>
      </trkpt>
      <trkpt lat="45.5909" lon="5.73035">
        <ele>600</ele>
        <time>2019-10-27T12:45:59.000Z</time>
      </trkpt>
      <trkpt lat="45.59091" lon="5.73036">
        <ele>600</ele>
        <time>2019-10-27T12:46:00.000Z</time>
      </trkpt>
      <trkpt lat="45.59092" lon="5.73036">
        <ele>600</ele>
        <time>2019-10-27T12:46:01.000Z</time>
      </trkpt>
      <trkpt lat="45.59093" lon="5.73037">
        <ele>600</ele>
        <time>2019-10-27T12:46:02.000Z</time>
      </trkpt>
      <trkpt lat="45.59094" lon="5.73037">
        <ele>600</ele>
        <time>2019-10-27T12:46:03.000Z</time>
      </trkpt>
      <trkpt lat="45.59096" lon="5.73038">
        <ele>599.5</ele>
        <time>2019-10-27T12:46:04.000Z</time>
      </trkpt>
      <trkpt lat="45.59097" lon="5.73039">
        <ele>599</ele>
        <time>2019-10-27T12:46:05.000Z</time>
      </trkpt>
      <trkpt lat="45.59098" lon="5.7304">
        <ele>599</ele>
        <time>2019-10-27T12:46:06.000Z</time>
      </trkpt>
      <trkpt lat="45.59099" lon="5.73041">
        <ele>599</ele>
        <time>2019-10-27T12:46:07.000Z</time>
      </trkpt>
      <trkpt lat="45.59099" lon="5.73042">
        <ele>599</ele>
        <time>2019-10-27T12:46:08.000Z</time>
      </trkpt>
      <trkpt lat="45.591" lon="5.73043">
        <ele>599</ele>
        <time>2019-10-27T12:46:09.000Z</time>
      </trkpt>
      <trkpt lat="45.59101" lon="5.73044">
        <ele>599</ele>
        <time>2019-10-27T12:46:10.000Z</time>
      </trkpt>
      <trkpt lat="45.59102" lon="5.73045">
        <ele>599</ele>
        <time>2019-10-27T12:46:11.000Z</time>
      </trkpt>
      <trkpt lat="45.59102" lon="5.73046">
        <ele>599</ele>
        <time>2019-10-27T12:46:12.000Z</time>
      </trkpt>
      <trkpt lat="45.59103" lon="5.73047">
        <ele>599</ele>
        <time>2019-10-27T12:46:13.000Z</time>
      </trkpt>
      <trkpt lat="45.59103" lon="5.73048">
        <ele>599</ele>
        <time>2019-10-27T12:46:14.000Z</time>
      </trkpt>
      <trkpt lat="45.59103" lon="5.73049">
        <ele>598.5</ele>
        <time>2019-10-27T12:46:15.000Z</time>
      </trkpt>
      <trkpt lat="45.59104" lon="5.7305">
        <ele>598</ele>
        <time>2019-10-27T12:46:16.000Z</time>
      </trkpt>
      <trkpt lat="45.59104" lon="5.73051">
        <ele>598</ele>
        <time>2019-10-27T12:46:17.000Z</time>
      </trkpt>
      <trkpt lat="45.59104" lon="5.73053">
        <ele>598</ele>
        <time>2019-10-27T12:46:18.000Z</time>
      </trkpt>
      <trkpt lat="45.59105" lon="5.73054">
        <ele>598</ele>
        <time>2019-10-27T12:46:19.000Z</time>
      </trkpt>
      <trkpt lat="45.59105" lon="5.73055">
        <ele>598</ele>
        <time>2019-10-27T12:46:20.000Z</time>
      </trkpt>
      <trkpt lat="45.59106" lon="5.73056">
        <ele>598</ele>
        <time>2019-10-27T12:46:21.000Z</time>
      </trkpt>
      <trkpt lat="45.59106" lon="5.73057">
        <ele>598</ele>
        <time>2019-10-27T12:46:22.000Z</time>
      </trkpt>
      <trkpt lat="45.59107" lon="5.73058">
        <ele>598</ele>
        <time>2019-10-27T12:46:23.000Z</time>
      </trkpt>
      <trkpt lat="45.59107" lon="5.73059">
        <ele>598</ele>
        <time>2019-10-27T12:46:24.000Z</time>
      </trkpt>
      <trkpt lat="45.59108" lon="5.7306">
        <ele>598</ele>
        <time>2019-10-27T12:46:25.000Z</time>
      </trkpt>
      <trkpt lat="45.59108" lon="5.73061">
        <ele>598</ele>
        <time>2019-10-27T12:46:26.000Z</time>
      </trkpt>
      <trkpt lat="45.59109" lon="5.73062">
        <ele>598</ele>
        <time>2019-10-27T12:46:27.000Z</time>
      </trkpt>
      <trkpt lat="45.59109" lon="5.73064">
        <ele>598</ele>
        <time>2019-10-27T12:46:28.000Z</time>
      </trkpt>
      <trkpt lat="45.5911" lon="5.73065">
        <ele>598</ele>
        <time>2019-10-27T12:46:29.000Z</time>
      </trkpt>
      <trkpt lat="45.5911" lon="5.73066">
        <ele>598</ele>
        <time>2019-10-27T12:46:30.000Z</time>
      </trkpt>
      <trkpt lat="45.59111" lon="5.73067">
        <ele>598</ele>
        <time>2019-10-27T12:46:31.000Z</time>
      </trkpt>
      <trkpt lat="45.59111" lon="5.73069">
        <ele>598</ele>
        <time>2019-10-27T12:46:32.000Z</time>
      </trkpt>
      <trkpt lat="45.59112" lon="5.7307">
        <ele>598</ele>
        <time>2019-10-27T12:46:33.000Z</time>
      </trkpt>
      <trkpt lat="45.59112" lon="5.73072">
        <ele>598.5</ele>
        <time>2019-10-27T12:46:34.000Z</time>
      </trkpt>
      <trkpt lat="45.59113" lon="5.73073">
        <ele>599</ele>
        <time>2019-10-27T12:46:35.000Z</time>
      </trkpt>
      <trkpt lat="45.59113" lon="5.73075">
        <ele>599</ele>
        <time>2019-10-27T12:46:36.000Z</time>
      </trkpt>
      <trkpt lat="45.59113" lon="5.73076">
        <ele>599</ele>
        <time>2019-10-27T12:46:37.000Z</time>
      </trkpt>
      <trkpt lat="45.59114" lon="5.73078">
        <ele>599</ele>
        <time>2019-10-27T12:46:38.000Z</time>
      </trkpt>
      <trkpt lat="45.59114" lon="5.7308">
        <ele>599</ele>
        <time>2019-10-27T12:46:39.000Z</time>
      </trkpt>
      <trkpt lat="45.59115" lon="5.73081">
        <ele>599</ele>
        <time>2019-10-27T12:46:40.000Z</time>
      </trkpt>
      <trkpt lat="45.59116" lon="5.73083">
        <ele>599</ele>
        <time>2019-10-27T12:46:41.000Z</time>
      </trkpt>
      <trkpt lat="45.59116" lon="5.73084">
        <ele>599</ele>
        <time>2019-10-27T12:46:42.000Z</time>
      </trkpt>
      <trkpt lat="45.59117" lon="5.73086">
        <ele>599.3</ele>
        <time>2019-10-27T12:46:43.000Z</time>
      </trkpt>
      <trkpt lat="45.59118" lon="5.73087">
        <ele>599.7</ele>
        <time>2019-10-27T12:46:44.000Z</time>
      </trkpt>
      <trkpt lat="45.59118" lon="5.73088">
        <ele>600</ele>
        <time>2019-10-27T12:46:45.000Z</time>
      </trkpt>
      <trkpt lat="45.59119" lon="5.7309">
        <ele>600</ele>
        <time>2019-10-27T12:46:46.000Z</time>
      </trkpt>
      <trkpt lat="45.5912" lon="5.73091">
        <ele>600</ele>
        <time>2019-10-27T12:46:47.000Z</time>
      </trkpt>
      <trkpt lat="45.59121" lon="5.73092">
        <ele>600</ele>
        <time>2019-10-27T12:46:48.000Z</time>
      </trkpt>
      <trkpt lat="45.59121" lon="5.73093">
        <ele>600</ele>
        <time>2019-10-27T12:46:49.000Z</time>
      </trkpt>
      <trkpt lat="45.59122" lon="5.73094">
        <ele>600</ele>
        <time>2019-10-27T12:46:50.000Z</time>
      </trkpt>
      <trkpt lat="45.59123" lon="5.73094">
        <ele>600.3</ele>
        <time>2019-10-27T12:46:51.000Z</time>
      </trkpt>
      <trkpt lat="45.59124" lon="5.73095">
        <ele>600.7</ele>
        <time>2019-10-27T12:46:52.000Z</time>
      </trkpt>
      <trkpt lat="45.59125" lon="5.73095">
        <ele>601</ele>
        <time>2019-10-27T12:46:53.000Z</time>
      </trkpt>
      <trkpt lat="45.59126" lon="5.73095">
        <ele>601</ele>
        <time>2019-10-27T12:46:54.000Z</time>
      </trkpt>
      <trkpt lat="45.59127" lon="5.73095">
        <ele>601</ele>
        <time>2019-10-27T12:46:55.000Z</time>
      </trkpt>
      <trkpt lat="45.59128" lon="5.73095">
        <ele>601</ele>
        <time>2019-10-27T12:46:56.000Z</time>
      </trkpt>
      <trkpt lat="45.5913" lon="5.73095">
        <ele>601</ele>
        <time>2019-10-27T12:46:57.000Z</time>
      </trkpt>
      <trkpt lat="45.59131" lon="5.73094">
        <ele>601</ele>
        <time>2019-10-27T12:46:58.000Z</time>
      </trkpt>
      <trkpt lat="45.59132" lon="5.73094">
        <ele>601</ele>
        <time>2019-10-27T12:46:59.000Z</time>
      </trkpt>
      <trkpt lat="45.59133" lon="5.73093">
        <ele>601</ele>
        <time>2019-10-27T12:47:00.000Z</time>
      </trkpt>
      <trkpt lat="45.59134" lon="5.73093">
        <ele>601</ele>
        <time>2019-10-27T12:47:01.000Z</time>
      </trkpt>
      <trkpt lat="45.59135" lon="5.73092">
        <ele>601</ele>
        <time>2019-10-27T12:47:02.000Z</time>
      </trkpt>
      <trkpt lat="45.59137" lon="5.73091">
        <ele>601</ele>
        <time>2019-10-27T12:47:03.000Z</time>
      </trkpt>
      <trkpt lat="45.59138" lon="5.73091">
        <ele>601.5</ele>
        <time>2019-10-27T12:47:04.000Z</time>
      </trkpt>
      <trkpt lat="45.59139" lon="5.73091">
        <ele>602</ele>
        <time>2019-10-27T12:47:05.000Z</time>
      </trkpt>
      <trkpt lat="45.5914" lon="5.7309">
        <ele>602</ele>
        <time>2019-10-27T12:47:06.000Z</time>
      </trkpt>
      <trkpt lat="45.59141" lon="5.7309">
        <ele>602</ele>
        <time>2019-10-27T12:47:07.000Z</time>
      </trkpt>
      <trkpt lat="45.59141" lon="5.7309">
        <ele>602</ele>
        <time>2019-10-27T12:47:08.000Z</time>
      </trkpt>
      <trkpt lat="45.59142" lon="5.7309">
        <ele>602</ele>
        <time>2019-10-27T12:47:09.000Z</time>
      </trkpt>
      <trkpt lat="45.59143" lon="5.73089">
        <ele>602</ele>
        <time>2019-10-27T12:47:10.000Z</time>
      </trkpt>
      <trkpt lat="45.59144" lon="5.73089">
        <ele>602</ele>
        <time>2019-10-27T12:47:11.000Z</time>
      </trkpt>
      <trkpt lat="45.59144" lon="5.73089">
        <ele>602</ele>
        <time>2019-10-27T12:47:12.000Z</time>
      </trkpt>
      <trkpt lat="45.59145" lon="5.73089">
        <ele>602</ele>
        <time>2019-10-27T12:47:13.000Z</time>
      </trkpt>
      <trkpt lat="45.59146" lon="5.73088">
        <ele>602</ele>
        <time>2019-10-27T12:47:14.000Z</time>
      </trkpt>
      <trkpt lat="45.59146" lon="5.73088">
        <ele>602</ele>
        <time>2019-10-27T12:47:15.000Z</time>
      </trkpt>
      <trkpt lat="45.59147" lon="5.73087">
        <ele>602</ele>
        <time>2019-10-27T12:47:16.000Z</time>
      </trkpt>
      <trkpt lat="45.59148" lon="5.73087">
        <ele>602</ele>
        <time>2019-10-27T12:47:17.000Z</time>
      </trkpt>
      <trkpt lat="45.59148" lon="5.73087">
        <ele>602</ele>
        <time>2019-10-27T12:47:18.000Z</time>
      </trkpt>
      <trkpt lat="45.59149" lon="5.73086">
        <ele>602</ele>
        <time>2019-10-27T12:47:19.000Z</time>
      </trkpt>
      <trkpt lat="45.59149" lon="5.73085">
        <ele>602</ele>
        <time>2019-10-27T12:47:20.000Z</time>
      </trkpt>
      <trkpt lat="45.5915" lon="5.73085">
        <ele>602</ele>
        <time>2019-10-27T12:47:21.000Z</time>
      </trkpt>
      <trkpt lat="45.5915" lon="5.73084">
        <ele>602</ele>
        <time>2019-10-27T12:47:22.000Z</time>
      </trkpt>
      <trkpt lat="45.59151" lon="5.73084">
        <ele>602</ele>
        <time>2019-10-27T12:47:23.000Z</time>
      </trkpt>
      <trkpt lat="45.59152" lon="5.73083">
        <ele>602</ele>
        <time>2019-10-27T12:47:24.000Z</time>
      </trkpt>
      <trkpt lat="45.59152" lon="5.73082">
        <ele>602</ele>
        <time>2019-10-27T12:47:25.000Z</time>
      </trkpt>
      <trkpt lat="45.59153" lon="5.73082">
        <ele>602</ele>
        <time>2019-10-27T12:47:26.000Z</time>
      </trkpt>
      <trkpt lat="45.59153" lon="5.73081">
        <ele>602</ele>
        <time>2019-10-27T12:47:27.000Z</time>
      </trkpt>
      <trkpt lat="45.59154" lon="5.7308">
        <ele>602</ele>
        <time>2019-10-27T12:47:28.000Z</time>
      </trkpt>
      <trkpt lat="45.59155" lon="5.7308">
        <ele>602</ele>
        <time>2019-10-27T12:47:29.000Z</time>
      </trkpt>
      <trkpt lat="45.59155" lon="5.73079">
        <ele>602</ele>
        <time>2019-10-27T12:47:30.000Z</time>
      </trkpt>
      <trkpt lat="45.59156" lon="5.73078">
        <ele>602</ele>
        <time>2019-10-27T12:47:31.000Z</time>
      </trkpt>
      <trkpt lat="45.59157" lon="5.73078">
        <ele>602</ele>
        <time>2019-10-27T12:47:32.000Z</time>
      </trkpt>
      <trkpt lat="45.59157" lon="5.73077">
        <ele>602</ele>
        <time>2019-10-27T12:47:33.000Z</time>
      </trkpt>
      <trkpt lat="45.59158" lon="5.73076">
        <ele>602</ele>
        <time>2019-10-27T12:47:34.000Z</time>
      </trkpt>
      <trkpt lat="45.59159" lon="5.73076">
        <ele>601.7</ele>
        <time>2019-10-27T12:47:35.000Z</time>
      </trkpt>
      <trkpt lat="45.5916" lon="5.73075">
        <ele>601.3</ele>
        <time>2019-10-27T12:47:36.000Z</time>
      </trkpt>
      <trkpt lat="45.5916" lon="5.73075">
        <ele>601</ele>
        <time>2019-10-27T12:47:37.000Z</time>
      </trkpt>
      <trkpt lat="45.59161" lon="5.73074">
        <ele>601</ele>
        <time>2019-10-27T12:47:38.000Z</time>
      </trkpt>
      <trkpt lat="45.59162" lon="5.73074">
        <ele>601</ele>
        <time>2019-10-27T12:47:39.000Z</time>
      </trkpt>
      <trkpt lat="45.59163" lon="5.73074">
        <ele>601</ele>
        <time>2019-10-27T12:47:40.000Z</time>
      </trkpt>
      <trkpt lat="45.59163" lon="5.73073">
        <ele>601</ele>
        <time>2019-10-27T12:47:41.000Z</time>
      </trkpt>
      <trkpt lat="45.59164" lon="5.73073">
        <ele>601</ele>
        <time>2019-10-27T12:47:42.000Z</time>
      </trkpt>
      <trkpt lat="45.59165" lon="5.73073">
        <ele>601</ele>
        <time>2019-10-27T12:47:43.000Z</time>
      </trkpt>
      <trkpt lat="45.59166" lon="5.73072">
        <ele>601</ele>
        <time>2019-10-27T12:47:44.000Z</time>
      </trkpt>
      <trkpt lat="45.59167" lon="5.73072">
        <ele>601</ele>
        <time>2019-10-27T12:47:45.000Z</time>
      </trkpt>
      <trkpt lat="45.59167" lon="5.73072">
        <ele>601</ele>
        <time>2019-10-27T12:47:46.000Z</time>
      </trkpt>
      <trkpt lat="45.59168" lon="5.73072">
        <ele>601</ele>
        <time>2019-10-27T12:47:47.000Z</time>
      </trkpt>
      <trkpt lat="45.59169" lon="5.73071">
        <ele>601</ele>
        <time>2019-10-27T12:47:48.000Z</time>
      </trkpt>
      <trkpt lat="45.5917" lon="5.73071">
        <ele>601</ele>
        <time>2019-10-27T12:47:49.000Z</time>
      </trkpt>
      <trkpt lat="45.59171" lon="5.73071">
        <ele>601</ele>
        <time>2019-10-27T12:47:50.000Z</time>
      </trkpt>
      <trkpt lat="45.59172" lon="5.73071">
        <ele>601</ele>
        <time>2019-10-27T12:47:51.000Z</time>
      </trkpt>
      <trkpt lat="45.59173" lon="5.73071">
        <ele>601</ele>
        <time>2019-10-27T12:47:52.000Z</time>
      </trkpt>
      <trkpt lat="45.59174" lon="5.73071">
        <ele>601</ele>
        <time>2019-10-27T12:47:53.000Z</time>
      </trkpt>
      <trkpt lat="45.59175" lon="5.73071">
        <ele>601</ele>
        <time>2019-10-27T12:47:54.000Z</time>
      </trkpt>
      <trkpt lat="45.59176" lon="5.73072">
        <ele>601</ele>
        <time>2019-10-27T12:47:55.000Z</time>
      </trkpt>
      <trkpt lat="45.59177" lon="5.73072">
        <ele>600.5</ele>
        <time>2019-10-27T12:47:56.000Z</time>
      </trkpt>
      <trkpt lat="45.59178" lon="5.73072">
        <ele>600</ele>
        <time>2019-10-27T12:47:57.000Z</time>
      </trkpt>
      <trkpt lat="45.59179" lon="5.73072">
        <ele>600</ele>
        <time>2019-10-27T12:47:58.000Z</time>
      </trkpt>
      <trkpt lat="45.59179" lon="5.73073">
        <ele>600</ele>
        <time>2019-10-27T12:47:59.000Z</time>
      </trkpt>
      <trkpt lat="45.5918" lon="5.73073">
        <ele>600</ele>
        <time>2019-10-27T12:48:00.000Z</time>
      </trkpt>
      <trkpt lat="45.59181" lon="5.73074">
        <ele>600</ele>
        <time>2019-10-27T12:48:01.000Z</time>
      </trkpt>
      <trkpt lat="45.59182" lon="5.73074">
        <ele>600</ele>
        <time>2019-10-27T12:48:02.000Z</time>
      </trkpt>
      <trkpt lat="45.59183" lon="5.73075">
        <ele>600</ele>
        <time>2019-10-27T12:48:03.000Z</time>
      </trkpt>
      <trkpt lat="45.59183" lon="5.73076">
        <ele>600</ele>
        <time>2019-10-27T12:48:04.000Z</time>
      </trkpt>
      <trkpt lat="45.59184" lon="5.73077">
        <ele>599.7</ele>
        <time>2019-10-27T12:48:05.000Z</time>
      </trkpt>
      <trkpt lat="45.59185" lon="5.73078">
        <ele>599.3</ele>
        <time>2019-10-27T12:48:06.000Z</time>
      </trkpt>
      <trkpt lat="45.59185" lon="5.73078">
        <ele>599</ele>
        <time>2019-10-27T12:48:07.000Z</time>
      </trkpt>
      <trkpt lat="45.59186" lon="5.73079">
        <ele>599</ele>
        <time>2019-10-27T12:48:08.000Z</time>
      </trkpt>
      <trkpt lat="45.59186" lon="5.7308">
        <ele>599</ele>
        <time>2019-10-27T12:48:09.000Z</time>
      </trkpt>
      <trkpt lat="45.59187" lon="5.73081">
        <ele>599</ele>
        <time>2019-10-27T12:48:10.000Z</time>
      </trkpt>
      <trkpt lat="45.59188" lon="5.73081">
        <ele>599</ele>
        <time>2019-10-27T12:48:11.000Z</time>
      </trkpt>
      <trkpt lat="45.59188" lon="5.73081">
        <ele>599</ele>
        <time>2019-10-27T12:48:12.000Z</time>
      </trkpt>
      <trkpt lat="45.59189" lon="5.73082">
        <ele>599</ele>
        <time>2019-10-27T12:48:13.000Z</time>
      </trkpt>
      <trkpt lat="45.59189" lon="5.73082">
        <ele>599</ele>
        <time>2019-10-27T12:48:14.000Z</time>
      </trkpt>
      <trkpt lat="45.5919" lon="5.73082">
        <ele>599</ele>
        <time>2019-10-27T12:48:15.000Z</time>
      </trkpt>
      <trkpt lat="45.5919" lon="5.73081">
        <ele>599</ele>
        <time>2019-10-27T12:48:16.000Z</time>
      </trkpt>
      <trkpt lat="45.59191" lon="5.73081">
        <ele>599</ele>
        <time>2019-10-27T12:48:17.000Z</time>
      </trkpt>
      <trkpt lat="45.59192" lon="5.73081">
        <ele>599</ele>
        <time>2019-10-27T12:48:18.000Z</time>
      </trkpt>
      <trkpt lat="45.59193" lon="5.73081">
        <ele>599</ele>
        <time>2019-10-27T12:48:19.000Z</time>
      </trkpt>
      <trkpt lat="45.59194" lon="5.73081">
        <ele>599</ele>
        <time>2019-10-27T12:48:20.000Z</time>
      </trkpt>
      <trkpt lat="45.59195" lon="5.73081">
        <ele>598.7</ele>
        <time>2019-10-27T12:48:21.000Z</time>
      </trkpt>
      <trkpt lat="45.59196" lon="5.73081">
        <ele>598.3</ele>
        <time>2019-10-27T12:48:22.000Z</time>
      </trkpt>
      <trkpt lat="45.59197" lon="5.73082">
        <ele>598</ele>
        <time>2019-10-27T12:48:23.000Z</time>
      </trkpt>
      <trkpt lat="45.59199" lon="5.73082">
        <ele>598</ele>
        <time>2019-10-27T12:48:24.000Z</time>
      </trkpt>
      <trkpt lat="45.592" lon="5.73083">
        <ele>598</ele>
        <time>2019-10-27T12:48:25.000Z</time>
      </trkpt>
      <trkpt lat="45.59201" lon="5.73083">
        <ele>598</ele>
        <time>2019-10-27T12:48:26.000Z</time>
      </trkpt>
      <trkpt lat="45.59202" lon="5.73084">
        <ele>598</ele>
        <time>2019-10-27T12:48:27.000Z</time>
      </trkpt>
      <trkpt lat="45.59203" lon="5.73084">
        <ele>598</ele>
        <time>2019-10-27T12:48:28.000Z</time>
      </trkpt>
      <trkpt lat="45.59205" lon="5.73085">
        <ele>598</ele>
        <time>2019-10-27T12:48:29.000Z</time>
      </trkpt>
      <trkpt lat="45.59205" lon="5.73085">
        <ele>598</ele>
        <time>2019-10-27T12:48:30.000Z</time>
      </trkpt>
      <trkpt lat="45.59206" lon="5.73085">
        <ele>598</ele>
        <time>2019-10-27T12:48:31.000Z</time>
      </trkpt>
      <trkpt lat="45.59207" lon="5.73086">
        <ele>597.5</ele>
        <time>2019-10-27T12:48:32.000Z</time>
      </trkpt>
      <trkpt lat="45.59207" lon="5.73086">
        <ele>597</ele>
        <time>2019-10-27T12:48:33.000Z</time>
      </trkpt>
      <trkpt lat="45.59208" lon="5.73087">
        <ele>597</ele>
        <time>2019-10-27T12:48:34.000Z</time>
      </trkpt>
      <trkpt lat="45.59209" lon="5.73087">
        <ele>597</ele>
        <time>2019-10-27T12:48:35.000Z</time>
      </trkpt>
      <trkpt lat="45.59209" lon="5.73087">
        <ele>597</ele>
        <time>2019-10-27T12:48:36.000Z</time>
      </trkpt>
      <trkpt lat="45.5921" lon="5.73088">
        <ele>597</ele>
        <time>2019-10-27T12:48:37.000Z</time>
      </trkpt>
      <trkpt lat="45.59211" lon="5.73088">
        <ele>597</ele>
        <time>2019-10-27T12:48:38.000Z</time>
      </trkpt>
      <trkpt lat="45.59212" lon="5.73089">
        <ele>597</ele>
        <time>2019-10-27T12:48:39.000Z</time>
      </trkpt>
      <trkpt lat="45.59213" lon="5.73089">
        <ele>597</ele>
        <time>2019-10-27T12:48:40.000Z</time>
      </trkpt>
      <trkpt lat="45.59214" lon="5.73089">
        <ele>597</ele>
        <time>2019-10-27T12:48:41.000Z</time>
      </trkpt>
      <trkpt lat="45.59214" lon="5.7309">
        <ele>597</ele>
        <time>2019-10-27T12:48:42.000Z</time>
      </trkpt>
      <trkpt lat="45.59215" lon="5.7309">
        <ele>597</ele>
        <time>2019-10-27T12:48:43.000Z</time>
      </trkpt>
      <trkpt lat="45.59215" lon="5.7309">
        <ele>596</ele>
        <time>2019-10-27T12:48:44.000Z</time>
      </trkpt>
      <trkpt lat="45.59216" lon="5.73091">
        <ele>596</ele>
        <time>2019-10-27T12:48:45.000Z</time>
      </trkpt>
      <trkpt lat="45.59216" lon="5.73091">
        <ele>596</ele>
        <time>2019-10-27T12:48:46.000Z</time>
      </trkpt>
      <trkpt lat="45.59216" lon="5.73091">
        <ele>596</ele>
        <time>2019-10-27T12:48:47.000Z</time>
      </trkpt>
      <trkpt lat="45.59217" lon="5.73091">
        <ele>596</ele>
        <time>2019-10-27T12:48:48.000Z</time>
      </trkpt>
      <trkpt lat="45.59218" lon="5.73092">
        <ele>596</ele>
        <time>2019-10-27T12:48:49.000Z</time>
      </trkpt>
      <trkpt lat="45.59218" lon="5.73092">
        <ele>596</ele>
        <time>2019-10-27T12:48:50.000Z</time>
      </trkpt>
      <trkpt lat="45.59219" lon="5.73093">
        <ele>596</ele>
        <time>2019-10-27T12:48:51.000Z</time>
      </trkpt>
      <trkpt lat="45.5922" lon="5.73093">
        <ele>596</ele>
        <time>2019-10-27T12:48:52.000Z</time>
      </trkpt>
      <trkpt lat="45.59221" lon="5.73094">
        <ele>596</ele>
        <time>2019-10-27T12:48:53.000Z</time>
      </trkpt>
      <trkpt lat="45.59222" lon="5.73095">
        <ele>596</ele>
        <time>2019-10-27T12:48:54.000Z</time>
      </trkpt>
      <trkpt lat="45.59223" lon="5.73095">
        <ele>595.7</ele>
        <time>2019-10-27T12:48:55.000Z</time>
      </trkpt>
      <trkpt lat="45.59224" lon="5.73096">
        <ele>595.3</ele>
        <time>2019-10-27T12:48:56.000Z</time>
      </trkpt>
      <trkpt lat="45.59225" lon="5.73096">
        <ele>595</ele>
        <time>2019-10-27T12:48:57.000Z</time>
      </trkpt>
      <trkpt lat="45.59226" lon="5.73096">
        <ele>595</ele>
        <time>2019-10-27T12:48:58.000Z</time>
      </trkpt>
      <trkpt lat="45.59227" lon="5.73097">
        <ele>595</ele>
        <time>2019-10-27T12:48:59.000Z</time>
      </trkpt>
      <trkpt lat="45.59228" lon="5.73097">
        <ele>595</ele>
        <time>2019-10-27T12:49:00.000Z</time>
      </trkpt>
      <trkpt lat="45.59229" lon="5.73098">
        <ele>595</ele>
        <time>2019-10-27T12:49:01.000Z</time>
      </trkpt>
      <trkpt lat="45.5923" lon="5.73099">
        <ele>595</ele>
        <time>2019-10-27T12:49:02.000Z</time>
      </trkpt>
      <trkpt lat="45.59231" lon="5.73099">
        <ele>595</ele>
        <time>2019-10-27T12:49:03.000Z</time>
      </trkpt>
      <trkpt lat="45.59232" lon="5.731">
        <ele>595</ele>
        <time>2019-10-27T12:49:04.000Z</time>
      </trkpt>
      <trkpt lat="45.59233" lon="5.731">
        <ele>595</ele>
        <time>2019-10-27T12:49:05.000Z</time>
      </trkpt>
      <trkpt lat="45.59234" lon="5.73101">
        <ele>595</ele>
        <time>2019-10-27T12:49:06.000Z</time>
      </trkpt>
      <trkpt lat="45.59236" lon="5.73102">
        <ele>595</ele>
        <time>2019-10-27T12:49:07.000Z</time>
      </trkpt>
      <trkpt lat="45.59237" lon="5.73103">
        <ele>595</ele>
        <time>2019-10-27T12:49:08.000Z</time>
      </trkpt>
      <trkpt lat="45.59238" lon="5.73103">
        <ele>595</ele>
        <time>2019-10-27T12:49:09.000Z</time>
      </trkpt>
      <trkpt lat="45.5924" lon="5.73104">
        <ele>595</ele>
        <time>2019-10-27T12:49:10.000Z</time>
      </trkpt>
      <trkpt lat="45.59241" lon="5.73104">
        <ele>595</ele>
        <time>2019-10-27T12:49:11.000Z</time>
      </trkpt>
      <trkpt lat="45.59243" lon="5.73105">
        <ele>595</ele>
        <time>2019-10-27T12:49:12.000Z</time>
      </trkpt>
      <trkpt lat="45.59244" lon="5.73106">
        <ele>595</ele>
        <time>2019-10-27T12:49:13.000Z</time>
      </trkpt>
      <trkpt lat="45.59245" lon="5.73106">
        <ele>595</ele>
        <time>2019-10-27T12:49:14.000Z</time>
      </trkpt>
      <trkpt lat="45.59247" lon="5.73106">
        <ele>594.7</ele>
        <time>2019-10-27T12:49:15.000Z</time>
      </trkpt>
      <trkpt lat="45.59248" lon="5.73107">
        <ele>594.3</ele>
        <time>2019-10-27T12:49:16.000Z</time>
      </trkpt>
      <trkpt lat="45.5925" lon="5.73107">
        <ele>594</ele>
        <time>2019-10-27T12:49:17.000Z</time>
      </trkpt>
      <trkpt lat="45.59251" lon="5.73108">
        <ele>594</ele>
        <time>2019-10-27T12:49:18.000Z</time>
      </trkpt>
      <trkpt lat="45.59252" lon="5.73108">
        <ele>594</ele>
        <time>2019-10-27T12:49:19.000Z</time>
      </trkpt>
      <trkpt lat="45.59253" lon="5.73109">
        <ele>594</ele>
        <time>2019-10-27T12:49:20.000Z</time>
      </trkpt>
      <trkpt lat="45.59254" lon="5.73109">
        <ele>594</ele>
        <time>2019-10-27T12:49:21.000Z</time>
      </trkpt>
      <trkpt lat="45.59255" lon="5.7311">
        <ele>594</ele>
        <time>2019-10-27T12:49:22.000Z</time>
      </trkpt>
      <trkpt lat="45.59256" lon="5.7311">
        <ele>594</ele>
        <time>2019-10-27T12:49:23.000Z</time>
      </trkpt>
      <trkpt lat="45.59257" lon="5.73111">
        <ele>594</ele>
        <time>2019-10-27T12:49:24.000Z</time>
      </trkpt>
      <trkpt lat="45.59258" lon="5.73111">
        <ele>594</ele>
        <time>2019-10-27T12:49:25.000Z</time>
      </trkpt>
      <trkpt lat="45.59259" lon="5.73112">
        <ele>594</ele>
        <time>2019-10-27T12:49:26.000Z</time>
      </trkpt>
      <trkpt lat="45.59259" lon="5.73112">
        <ele>594</ele>
        <time>2019-10-27T12:49:27.000Z</time>
      </trkpt>
      <trkpt lat="45.5926" lon="5.73113">
        <ele>594</ele>
        <time>2019-10-27T12:49:28.000Z</time>
      </trkpt>
      <trkpt lat="45.59261" lon="5.73113">
        <ele>594</ele>
        <time>2019-10-27T12:49:29.000Z</time>
      </trkpt>
      <trkpt lat="45.59262" lon="5.73114">
        <ele>594</ele>
        <time>2019-10-27T12:49:30.000Z</time>
      </trkpt>
      <trkpt lat="45.59262" lon="5.73115">
        <ele>594</ele>
        <time>2019-10-27T12:49:31.000Z</time>
      </trkpt>
      <trkpt lat="45.59263" lon="5.73115">
        <ele>594</ele>
        <time>2019-10-27T12:49:32.000Z</time>
      </trkpt>
      <trkpt lat="45.59263" lon="5.73116">
        <ele>594</ele>
        <time>2019-10-27T12:49:33.000Z</time>
      </trkpt>
      <trkpt lat="45.59264" lon="5.73116">
        <ele>594</ele>
        <time>2019-10-27T12:49:34.000Z</time>
      </trkpt>
      <trkpt lat="45.59265" lon="5.73117">
        <ele>594</ele>
        <time>2019-10-27T12:49:35.000Z</time>
      </trkpt>
      <trkpt lat="45.59266" lon="5.73117">
        <ele>594</ele>
        <time>2019-10-27T12:49:36.000Z</time>
      </trkpt>
      <trkpt lat="45.59266" lon="5.73118">
        <ele>594</ele>
        <time>2019-10-27T12:49:37.000Z</time>
      </trkpt>
      <trkpt lat="45.59267" lon="5.73118">
        <ele>594</ele>
        <time>2019-10-27T12:49:38.000Z</time>
      </trkpt>
      <trkpt lat="45.59268" lon="5.73118">
        <ele>594</ele>
        <time>2019-10-27T12:49:39.000Z</time>
      </trkpt>
      <trkpt lat="45.59269" lon="5.73119">
        <ele>594</ele>
        <time>2019-10-27T12:49:40.000Z</time>
      </trkpt>
      <trkpt lat="45.59269" lon="5.73119">
        <ele>594</ele>
        <time>2019-10-27T12:49:41.000Z</time>
      </trkpt>
      <trkpt lat="45.5927" lon="5.73119">
        <ele>594</ele>
        <time>2019-10-27T12:49:42.000Z</time>
      </trkpt>
      <trkpt lat="45.59271" lon="5.73119">
        <ele>594</ele>
        <time>2019-10-27T12:49:43.000Z</time>
      </trkpt>
      <trkpt lat="45.59272" lon="5.73119">
        <ele>594</ele>
        <time>2019-10-27T12:49:44.000Z</time>
      </trkpt>
      <trkpt lat="45.59273" lon="5.73119">
        <ele>594</ele>
        <time>2019-10-27T12:49:45.000Z</time>
      </trkpt>
      <trkpt lat="45.59275" lon="5.73119">
        <ele>594</ele>
        <time>2019-10-27T12:49:46.000Z</time>
      </trkpt>
      <trkpt lat="45.59276" lon="5.73119">
        <ele>594</ele>
        <time>2019-10-27T12:49:47.000Z</time>
      </trkpt>
      <trkpt lat="45.59277" lon="5.73119">
        <ele>594</ele>
        <time>2019-10-27T12:49:48.000Z</time>
      </trkpt>
      <trkpt lat="45.59278" lon="5.73119">
        <ele>593.7</ele>
        <time>2019-10-27T12:49:49.000Z</time>
      </trkpt>
      <trkpt lat="45.59279" lon="5.73119">
        <ele>593.3</ele>
        <time>2019-10-27T12:49:50.000Z</time>
      </trkpt>
      <trkpt lat="45.59281" lon="5.73118">
        <ele>593</ele>
        <time>2019-10-27T12:49:51.000Z</time>
      </trkpt>
      <trkpt lat="45.59282" lon="5.73118">
        <ele>593</ele>
        <time>2019-10-27T12:49:52.000Z</time>
      </trkpt>
      <trkpt lat="45.59283" lon="5.73118">
        <ele>593</ele>
        <time>2019-10-27T12:49:53.000Z</time>
      </trkpt>
      <trkpt lat="45.59283" lon="5.73118">
        <ele>593</ele>
        <time>2019-10-27T12:49:54.000Z</time>
      </trkpt>
      <trkpt lat="45.59284" lon="5.73118">
        <ele>593</ele>
        <time>2019-10-27T12:49:55.000Z</time>
      </trkpt>
      <trkpt lat="45.59285" lon="5.73119">
        <ele>593</ele>
        <time>2019-10-27T12:49:56.000Z</time>
      </trkpt>
      <trkpt lat="45.59286" lon="5.73119">
        <ele>593</ele>
        <time>2019-10-27T12:49:57.000Z</time>
      </trkpt>
      <trkpt lat="45.59288" lon="5.73119">
        <ele>593</ele>
        <time>2019-10-27T12:49:58.000Z</time>
      </trkpt>
      <trkpt lat="45.59291" lon="5.7312">
        <ele>593</ele>
        <time>2019-10-27T12:49:59.000Z</time>
      </trkpt>
      <trkpt lat="45.59292" lon="5.7312">
        <ele>593</ele>
        <time>2019-10-27T12:50:00.000Z</time>
      </trkpt>
      <trkpt lat="45.59293" lon="5.73119">
        <ele>593</ele>
        <time>2019-10-27T12:50:01.000Z</time>
      </trkpt>
      <trkpt lat="45.59293" lon="5.73119">
        <ele>593</ele>
        <time>2019-10-27T12:50:02.000Z</time>
      </trkpt>
      <trkpt lat="45.59293" lon="5.73119">
        <ele>593</ele>
        <time>2019-10-27T12:50:03.000Z</time>
      </trkpt>
      <trkpt lat="45.59293" lon="5.7312">
        <ele>593</ele>
        <time>2019-10-27T12:50:04.000Z</time>
      </trkpt>
      <trkpt lat="45.59294" lon="5.7312">
        <ele>593</ele>
        <time>2019-10-27T12:50:05.000Z</time>
      </trkpt>
      <trkpt lat="45.59295" lon="5.73121">
        <ele>593</ele>
        <time>2019-10-27T12:50:06.000Z</time>
      </trkpt>
      <trkpt lat="45.59296" lon="5.73121">
        <ele>593</ele>
        <time>2019-10-27T12:50:07.000Z</time>
      </trkpt>
      <trkpt lat="45.59297" lon="5.73122">
        <ele>593</ele>
        <time>2019-10-27T12:50:08.000Z</time>
      </trkpt>
      <trkpt lat="45.59298" lon="5.73123">
        <ele>593</ele>
        <time>2019-10-27T12:50:09.000Z</time>
      </trkpt>
      <trkpt lat="45.59299" lon="5.73124">
        <ele>593</ele>
        <time>2019-10-27T12:50:10.000Z</time>
      </trkpt>
      <trkpt lat="45.59299" lon="5.73126">
        <ele>593</ele>
        <time>2019-10-27T12:50:11.000Z</time>
      </trkpt>
      <trkpt lat="45.59299" lon="5.73127">
        <ele>593</ele>
        <time>2019-10-27T12:50:12.000Z</time>
      </trkpt>
      <trkpt lat="45.593" lon="5.73128">
        <ele>593</ele>
        <time>2019-10-27T12:50:13.000Z</time>
      </trkpt>
      <trkpt lat="45.59301" lon="5.73129">
        <ele>593</ele>
        <time>2019-10-27T12:50:14.000Z</time>
      </trkpt>
      <trkpt lat="45.59301" lon="5.7313">
        <ele>593</ele>
        <time>2019-10-27T12:50:15.000Z</time>
      </trkpt>
      <trkpt lat="45.59302" lon="5.7313">
        <ele>593</ele>
        <time>2019-10-27T12:50:16.000Z</time>
      </trkpt>
      <trkpt lat="45.59303" lon="5.73131">
        <ele>593</ele>
        <time>2019-10-27T12:50:17.000Z</time>
      </trkpt>
      <trkpt lat="45.59304" lon="5.73132">
        <ele>593</ele>
        <time>2019-10-27T12:50:18.000Z</time>
      </trkpt>
      <trkpt lat="45.59305" lon="5.73133">
        <ele>593</ele>
        <time>2019-10-27T12:50:19.000Z</time>
      </trkpt>
      <trkpt lat="45.59306" lon="5.73133">
        <ele>593</ele>
        <time>2019-10-27T12:50:20.000Z</time>
      </trkpt>
      <trkpt lat="45.59307" lon="5.73134">
        <ele>593</ele>
        <time>2019-10-27T12:50:21.000Z</time>
      </trkpt>
      <trkpt lat="45.59308" lon="5.73135">
        <ele>592.5</ele>
        <time>2019-10-27T12:50:22.000Z</time>
      </trkpt>
      <trkpt lat="45.59309" lon="5.73136">
        <ele>592</ele>
        <time>2019-10-27T12:50:23.000Z</time>
      </trkpt>
      <trkpt lat="45.5931" lon="5.73136">
        <ele>592</ele>
        <time>2019-10-27T12:50:24.000Z</time>
      </trkpt>
      <trkpt lat="45.59311" lon="5.73137">
        <ele>592</ele>
        <time>2019-10-27T12:50:25.000Z</time>
      </trkpt>
      <trkpt lat="45.59312" lon="5.73138">
        <ele>592</ele>
        <time>2019-10-27T12:50:26.000Z</time>
      </trkpt>
      <trkpt lat="45.59313" lon="5.73138">
        <ele>592</ele>
        <time>2019-10-27T12:50:27.000Z</time>
      </trkpt>
      <trkpt lat="45.59315" lon="5.73139">
        <ele>592</ele>
        <time>2019-10-27T12:50:28.000Z</time>
      </trkpt>
      <trkpt lat="45.59316" lon="5.7314">
        <ele>592</ele>
        <time>2019-10-27T12:50:29.000Z</time>
      </trkpt>
      <trkpt lat="45.59317" lon="5.7314">
        <ele>592</ele>
        <time>2019-10-27T12:50:30.000Z</time>
      </trkpt>
      <trkpt lat="45.59318" lon="5.73141">
        <ele>592</ele>
        <time>2019-10-27T12:50:31.000Z</time>
      </trkpt>
      <trkpt lat="45.59319" lon="5.73141">
        <ele>592</ele>
        <time>2019-10-27T12:50:32.000Z</time>
      </trkpt>
      <trkpt lat="45.5932" lon="5.73141">
        <ele>592</ele>
        <time>2019-10-27T12:50:33.000Z</time>
      </trkpt>
      <trkpt lat="45.59321" lon="5.73142">
        <ele>592</ele>
        <time>2019-10-27T12:50:34.000Z</time>
      </trkpt>
      <trkpt lat="45.59322" lon="5.73142">
        <ele>592</ele>
        <time>2019-10-27T12:50:35.000Z</time>
      </trkpt>
      <trkpt lat="45.59323" lon="5.73142">
        <ele>592</ele>
        <time>2019-10-27T12:50:36.000Z</time>
      </trkpt>
      <trkpt lat="45.59325" lon="5.73142">
        <ele>592</ele>
        <time>2019-10-27T12:50:37.000Z</time>
      </trkpt>
      <trkpt lat="45.59326" lon="5.73143">
        <ele>592</ele>
        <time>2019-10-27T12:50:38.000Z</time>
      </trkpt>
      <trkpt lat="45.59327" lon="5.73143">
        <ele>592</ele>
        <time>2019-10-27T12:50:39.000Z</time>
      </trkpt>
      <trkpt lat="45.59328" lon="5.73143">
        <ele>592</ele>
        <time>2019-10-27T12:50:40.000Z</time>
      </trkpt>
      <trkpt lat="45.59329" lon="5.73142">
        <ele>592</ele>
        <time>2019-10-27T12:50:41.000Z</time>
      </trkpt>
      <trkpt lat="45.5933" lon="5.73142">
        <ele>592</ele>
        <time>2019-10-27T12:50:42.000Z</time>
      </trkpt>
      <trkpt lat="45.59331" lon="5.73142">
        <ele>592</ele>
        <time>2019-10-27T12:50:43.000Z</time>
      </trkpt>
      <trkpt lat="45.59333" lon="5.73142">
        <ele>592</ele>
        <time>2019-10-27T12:50:44.000Z</time>
      </trkpt>
      <trkpt lat="45.59334" lon="5.73142">
        <ele>592</ele>
        <time>2019-10-27T12:50:45.000Z</time>
      </trkpt>
      <trkpt lat="45.59335" lon="5.73142">
        <ele>592</ele>
        <time>2019-10-27T12:50:46.000Z</time>
      </trkpt>
      <trkpt lat="45.59336" lon="5.73142">
        <ele>592</ele>
        <time>2019-10-27T12:50:47.000Z</time>
      </trkpt>
      <trkpt lat="45.59337" lon="5.73142">
        <ele>592</ele>
        <time>2019-10-27T12:50:48.000Z</time>
      </trkpt>
      <trkpt lat="45.59338" lon="5.73142">
        <ele>592</ele>
        <time>2019-10-27T12:50:49.000Z</time>
      </trkpt>
      <trkpt lat="45.59339" lon="5.73142">
        <ele>592</ele>
        <time>2019-10-27T12:50:50.000Z</time>
      </trkpt>
      <trkpt lat="45.59339" lon="5.73141">
        <ele>592</ele>
        <time>2019-10-27T12:50:51.000Z</time>
      </trkpt>
      <trkpt lat="45.5934" lon="5.73141">
        <ele>592</ele>
        <time>2019-10-27T12:50:52.000Z</time>
      </trkpt>
      <trkpt lat="45.59341" lon="5.7314">
        <ele>592</ele>
        <time>2019-10-27T12:50:53.000Z</time>
      </trkpt>
      <trkpt lat="45.59342" lon="5.73139">
        <ele>592</ele>
        <time>2019-10-27T12:50:54.000Z</time>
      </trkpt>
      <trkpt lat="45.59344" lon="5.73139">
        <ele>592</ele>
        <time>2019-10-27T12:50:55.000Z</time>
      </trkpt>
      <trkpt lat="45.59345" lon="5.73138">
        <ele>592</ele>
        <time>2019-10-27T12:50:56.000Z</time>
      </trkpt>
      <trkpt lat="45.59346" lon="5.73138">
        <ele>592</ele>
        <time>2019-10-27T12:50:57.000Z</time>
      </trkpt>
      <trkpt lat="45.59348" lon="5.73137">
        <ele>592</ele>
        <time>2019-10-27T12:50:58.000Z</time>
      </trkpt>
      <trkpt lat="45.59349" lon="5.73137">
        <ele>592</ele>
        <time>2019-10-27T12:50:59.000Z</time>
      </trkpt>
      <trkpt lat="45.5935" lon="5.73137">
        <ele>592</ele>
        <time>2019-10-27T12:51:00.000Z</time>
      </trkpt>
      <trkpt lat="45.59351" lon="5.73137">
        <ele>592</ele>
        <time>2019-10-27T12:51:01.000Z</time>
      </trkpt>
      <trkpt lat="45.59353" lon="5.73137">
        <ele>592</ele>
        <time>2019-10-27T12:51:02.000Z</time>
      </trkpt>
      <trkpt lat="45.59354" lon="5.73138">
        <ele>592</ele>
        <time>2019-10-27T12:51:03.000Z</time>
      </trkpt>
      <trkpt lat="45.59356" lon="5.73138">
        <ele>592</ele>
        <time>2019-10-27T12:51:04.000Z</time>
      </trkpt>
      <trkpt lat="45.59357" lon="5.73138">
        <ele>592</ele>
        <time>2019-10-27T12:51:05.000Z</time>
      </trkpt>
      <trkpt lat="45.59358" lon="5.73139">
        <ele>592</ele>
        <time>2019-10-27T12:51:06.000Z</time>
      </trkpt>
      <trkpt lat="45.5936" lon="5.73139">
        <ele>592</ele>
        <time>2019-10-27T12:51:07.000Z</time>
      </trkpt>
      <trkpt lat="45.59361" lon="5.73139">
        <ele>592</ele>
        <time>2019-10-27T12:51:08.000Z</time>
      </trkpt>
      <trkpt lat="45.59362" lon="5.7314">
        <ele>592</ele>
        <time>2019-10-27T12:51:09.000Z</time>
      </trkpt>
      <trkpt lat="45.59363" lon="5.7314">
        <ele>592</ele>
        <time>2019-10-27T12:51:10.000Z</time>
      </trkpt>
      <trkpt lat="45.59365" lon="5.7314">
        <ele>592.3</ele>
        <time>2019-10-27T12:51:11.000Z</time>
      </trkpt>
      <trkpt lat="45.59366" lon="5.7314">
        <ele>592.7</ele>
        <time>2019-10-27T12:51:12.000Z</time>
      </trkpt>
      <trkpt lat="45.59366" lon="5.7314">
        <ele>593</ele>
        <time>2019-10-27T12:51:13.000Z</time>
      </trkpt>
      <trkpt lat="45.59367" lon="5.7314">
        <ele>593</ele>
        <time>2019-10-27T12:51:14.000Z</time>
      </trkpt>
      <trkpt lat="45.59368" lon="5.7314">
        <ele>593</ele>
        <time>2019-10-27T12:51:15.000Z</time>
      </trkpt>
      <trkpt lat="45.59369" lon="5.7314">
        <ele>593</ele>
        <time>2019-10-27T12:51:16.000Z</time>
      </trkpt>
      <trkpt lat="45.5937" lon="5.7314">
        <ele>593</ele>
        <time>2019-10-27T12:51:17.000Z</time>
      </trkpt>
      <trkpt lat="45.59371" lon="5.7314">
        <ele>593</ele>
        <time>2019-10-27T12:51:18.000Z</time>
      </trkpt>
      <trkpt lat="45.59372" lon="5.7314">
        <ele>593</ele>
        <time>2019-10-27T12:51:19.000Z</time>
      </trkpt>
      <trkpt lat="45.59373" lon="5.7314">
        <ele>593</ele>
        <time>2019-10-27T12:51:20.000Z</time>
      </trkpt>
      <trkpt lat="45.59374" lon="5.73141">
        <ele>593</ele>
        <time>2019-10-27T12:51:21.000Z</time>
      </trkpt>
      <trkpt lat="45.59375" lon="5.73141">
        <ele>593</ele>
        <time>2019-10-27T12:51:22.000Z</time>
      </trkpt>
      <trkpt lat="45.59376" lon="5.73141">
        <ele>593</ele>
        <time>2019-10-27T12:51:23.000Z</time>
      </trkpt>
      <trkpt lat="45.59377" lon="5.73141">
        <ele>593</ele>
        <time>2019-10-27T12:51:24.000Z</time>
      </trkpt>
      <trkpt lat="45.59378" lon="5.73142">
        <ele>593</ele>
        <time>2019-10-27T12:51:25.000Z</time>
      </trkpt>
      <trkpt lat="45.59379" lon="5.73142">
        <ele>593</ele>
        <time>2019-10-27T12:51:26.000Z</time>
      </trkpt>
      <trkpt lat="45.5938" lon="5.73142">
        <ele>593</ele>
        <time>2019-10-27T12:51:27.000Z</time>
      </trkpt>
      <trkpt lat="45.5938" lon="5.73142">
        <ele>593</ele>
        <time>2019-10-27T12:51:28.000Z</time>
      </trkpt>
      <trkpt lat="45.59381" lon="5.73143">
        <ele>593</ele>
        <time>2019-10-27T12:51:29.000Z</time>
      </trkpt>
      <trkpt lat="45.59382" lon="5.73143">
        <ele>593</ele>
        <time>2019-10-27T12:51:30.000Z</time>
      </trkpt>
      <trkpt lat="45.59383" lon="5.73143">
        <ele>593</ele>
        <time>2019-10-27T12:51:31.000Z</time>
      </trkpt>
      <trkpt lat="45.59384" lon="5.73143">
        <ele>594</ele>
        <time>2019-10-27T12:51:32.000Z</time>
      </trkpt>
      <trkpt lat="45.59385" lon="5.73143">
        <ele>594</ele>
        <time>2019-10-27T12:51:33.000Z</time>
      </trkpt>
      <trkpt lat="45.59386" lon="5.73143">
        <ele>594</ele>
        <time>2019-10-27T12:51:34.000Z</time>
      </trkpt>
      <trkpt lat="45.59387" lon="5.73143">
        <ele>594</ele>
        <time>2019-10-27T12:51:35.000Z</time>
      </trkpt>
      <trkpt lat="45.59388" lon="5.73143">
        <ele>594</ele>
        <time>2019-10-27T12:51:36.000Z</time>
      </trkpt>
      <trkpt lat="45.59389" lon="5.73143">
        <ele>594</ele>
        <time>2019-10-27T12:51:37.000Z</time>
      </trkpt>
      <trkpt lat="45.5939" lon="5.73143">
        <ele>594</ele>
        <time>2019-10-27T12:51:38.000Z</time>
      </trkpt>
      <trkpt lat="45.59392" lon="5.73143">
        <ele>594</ele>
        <time>2019-10-27T12:51:39.000Z</time>
      </trkpt>
      <trkpt lat="45.59393" lon="5.73143">
        <ele>594</ele>
        <time>2019-10-27T12:51:40.000Z</time>
      </trkpt>
      <trkpt lat="45.59394" lon="5.73143">
        <ele>594</ele>
        <time>2019-10-27T12:51:41.000Z</time>
      </trkpt>
      <trkpt lat="45.59396" lon="5.73143">
        <ele>594</ele>
        <time>2019-10-27T12:51:42.000Z</time>
      </trkpt>
      <trkpt lat="45.59397" lon="5.73143">
        <ele>594</ele>
        <time>2019-10-27T12:51:43.000Z</time>
      </trkpt>
      <trkpt lat="45.59398" lon="5.73143">
        <ele>594</ele>
        <time>2019-10-27T12:51:44.000Z</time>
      </trkpt>
      <trkpt lat="45.59399" lon="5.73143">
        <ele>594</ele>
        <time>2019-10-27T12:51:45.000Z</time>
      </trkpt>
      <trkpt lat="45.594" lon="5.73143">
        <ele>594</ele>
        <time>2019-10-27T12:51:46.000Z</time>
      </trkpt>
      <trkpt lat="45.59401" lon="5.73143">
        <ele>594</ele>
        <time>2019-10-27T12:51:47.000Z</time>
      </trkpt>
      <trkpt lat="45.59401" lon="5.73143">
        <ele>594</ele>
        <time>2019-10-27T12:51:48.000Z</time>
      </trkpt>
      <trkpt lat="45.59402" lon="5.73143">
        <ele>594</ele>
        <time>2019-10-27T12:51:49.000Z</time>
      </trkpt>
      <trkpt lat="45.59403" lon="5.73143">
        <ele>594</ele>
        <time>2019-10-27T12:51:50.000Z</time>
      </trkpt>
      <trkpt lat="45.59404" lon="5.73143">
        <ele>594</ele>
        <time>2019-10-27T12:51:51.000Z</time>
      </trkpt>
      <trkpt lat="45.59406" lon="5.73143">
        <ele>594</ele>
        <time>2019-10-27T12:51:52.000Z</time>
      </trkpt>
      <trkpt lat="45.59408" lon="5.73143">
        <ele>594</ele>
        <time>2019-10-27T12:51:53.000Z</time>
      </trkpt>
      <trkpt lat="45.5941" lon="5.73143">
        <ele>594</ele>
        <time>2019-10-27T12:51:54.000Z</time>
      </trkpt>
      <trkpt lat="45.59411" lon="5.73143">
        <ele>594.3</ele>
        <time>2019-10-27T12:51:55.000Z</time>
      </trkpt>
      <trkpt lat="45.59412" lon="5.73143">
        <ele>594.7</ele>
        <time>2019-10-27T12:51:56.000Z</time>
      </trkpt>
      <trkpt lat="45.59413" lon="5.73143">
        <ele>595</ele>
        <time>2019-10-27T12:51:57.000Z</time>
      </trkpt>
      <trkpt lat="45.59414" lon="5.73143">
        <ele>595</ele>
        <time>2019-10-27T12:51:58.000Z</time>
      </trkpt>
      <trkpt lat="45.59415" lon="5.73143">
        <ele>595</ele>
        <time>2019-10-27T12:51:59.000Z</time>
      </trkpt>
      <trkpt lat="45.59416" lon="5.73143">
        <ele>595</ele>
        <time>2019-10-27T12:52:00.000Z</time>
      </trkpt>
      <trkpt lat="45.59417" lon="5.73143">
        <ele>595</ele>
        <time>2019-10-27T12:52:01.000Z</time>
      </trkpt>
      <trkpt lat="45.59418" lon="5.73143">
        <ele>595</ele>
        <time>2019-10-27T12:52:02.000Z</time>
      </trkpt>
      <trkpt lat="45.59419" lon="5.73143">
        <ele>595</ele>
        <time>2019-10-27T12:52:03.000Z</time>
      </trkpt>
      <trkpt lat="45.5942" lon="5.73143">
        <ele>595</ele>
        <time>2019-10-27T12:52:04.000Z</time>
      </trkpt>
      <trkpt lat="45.59422" lon="5.73143">
        <ele>595</ele>
        <time>2019-10-27T12:52:05.000Z</time>
      </trkpt>
      <trkpt lat="45.59424" lon="5.73143">
        <ele>595</ele>
        <time>2019-10-27T12:52:06.000Z</time>
      </trkpt>
      <trkpt lat="45.59425" lon="5.73143">
        <ele>595</ele>
        <time>2019-10-27T12:52:07.000Z</time>
      </trkpt>
      <trkpt lat="45.59427" lon="5.73143">
        <ele>595</ele>
        <time>2019-10-27T12:52:08.000Z</time>
      </trkpt>
      <trkpt lat="45.59428" lon="5.73143">
        <ele>595</ele>
        <time>2019-10-27T12:52:09.000Z</time>
      </trkpt>
      <trkpt lat="45.59429" lon="5.73142">
        <ele>595</ele>
        <time>2019-10-27T12:52:10.000Z</time>
      </trkpt>
      <trkpt lat="45.59429" lon="5.73142">
        <ele>595</ele>
        <time>2019-10-27T12:52:11.000Z</time>
      </trkpt>
      <trkpt lat="45.5943" lon="5.73142">
        <ele>595</ele>
        <time>2019-10-27T12:52:12.000Z</time>
      </trkpt>
      <trkpt lat="45.5943" lon="5.73142">
        <ele>595</ele>
        <time>2019-10-27T12:52:13.000Z</time>
      </trkpt>
      <trkpt lat="45.59431" lon="5.73142">
        <ele>595</ele>
        <time>2019-10-27T12:52:14.000Z</time>
      </trkpt>
      <trkpt lat="45.59432" lon="5.73142">
        <ele>595</ele>
        <time>2019-10-27T12:52:15.000Z</time>
      </trkpt>
      <trkpt lat="45.59433" lon="5.73142">
        <ele>595</ele>
        <time>2019-10-27T12:52:16.000Z</time>
      </trkpt>
      <trkpt lat="45.59434" lon="5.73143">
        <ele>595</ele>
        <time>2019-10-27T12:52:17.000Z</time>
      </trkpt>
      <trkpt lat="45.59435" lon="5.73143">
        <ele>595</ele>
        <time>2019-10-27T12:52:18.000Z</time>
      </trkpt>
      <trkpt lat="45.59436" lon="5.73143">
        <ele>595</ele>
        <time>2019-10-27T12:52:19.000Z</time>
      </trkpt>
      <trkpt lat="45.59437" lon="5.73143">
        <ele>595</ele>
        <time>2019-10-27T12:52:20.000Z</time>
      </trkpt>
      <trkpt lat="45.59438" lon="5.73143">
        <ele>595</ele>
        <time>2019-10-27T12:52:21.000Z</time>
      </trkpt>
      <trkpt lat="45.59439" lon="5.73143">
        <ele>595</ele>
        <time>2019-10-27T12:52:22.000Z</time>
      </trkpt>
      <trkpt lat="45.5944" lon="5.73143">
        <ele>595</ele>
        <time>2019-10-27T12:52:23.000Z</time>
      </trkpt>
      <trkpt lat="45.59441" lon="5.73143">
        <ele>595</ele>
        <time>2019-10-27T12:52:24.000Z</time>
      </trkpt>
      <trkpt lat="45.59442" lon="5.73143">
        <ele>595</ele>
        <time>2019-10-27T12:52:25.000Z</time>
      </trkpt>
      <trkpt lat="45.59444" lon="5.73143">
        <ele>595</ele>
        <time>2019-10-27T12:52:26.000Z</time>
      </trkpt>
      <trkpt lat="45.59445" lon="5.73143">
        <ele>595</ele>
        <time>2019-10-27T12:52:27.000Z</time>
      </trkpt>
      <trkpt lat="45.59446" lon="5.73143">
        <ele>595</ele>
        <time>2019-10-27T12:52:28.000Z</time>
      </trkpt>
      <trkpt lat="45.59447" lon="5.73143">
        <ele>595</ele>
        <time>2019-10-27T12:52:29.000Z</time>
      </trkpt>
      <trkpt lat="45.59448" lon="5.73143">
        <ele>595</ele>
        <time>2019-10-27T12:52:30.000Z</time>
      </trkpt>
      <trkpt lat="45.59449" lon="5.73143">
        <ele>595</ele>
        <time>2019-10-27T12:52:31.000Z</time>
      </trkpt>
      <trkpt lat="45.59451" lon="5.73143">
        <ele>596</ele>
        <time>2019-10-27T12:52:32.000Z</time>
      </trkpt>
      <trkpt lat="45.59452" lon="5.73143">
        <ele>596</ele>
        <time>2019-10-27T12:52:33.000Z</time>
      </trkpt>
      <trkpt lat="45.59453" lon="5.73143">
        <ele>596</ele>
        <time>2019-10-27T12:52:34.000Z</time>
      </trkpt>
      <trkpt lat="45.59454" lon="5.73143">
        <ele>596</ele>
        <time>2019-10-27T12:52:35.000Z</time>
      </trkpt>
      <trkpt lat="45.59456" lon="5.73143">
        <ele>596</ele>
        <time>2019-10-27T12:52:36.000Z</time>
      </trkpt>
      <trkpt lat="45.59457" lon="5.73143">
        <ele>596</ele>
        <time>2019-10-27T12:52:37.000Z</time>
      </trkpt>
      <trkpt lat="45.59459" lon="5.73143">
        <ele>596</ele>
        <time>2019-10-27T12:52:38.000Z</time>
      </trkpt>
      <trkpt lat="45.5946" lon="5.73143">
        <ele>596</ele>
        <time>2019-10-27T12:52:39.000Z</time>
      </trkpt>
      <trkpt lat="45.59461" lon="5.73143">
        <ele>596</ele>
        <time>2019-10-27T12:52:40.000Z</time>
      </trkpt>
      <trkpt lat="45.59463" lon="5.73143">
        <ele>596</ele>
        <time>2019-10-27T12:52:41.000Z</time>
      </trkpt>
      <trkpt lat="45.59464" lon="5.73143">
        <ele>596</ele>
        <time>2019-10-27T12:52:42.000Z</time>
      </trkpt>
      <trkpt lat="45.59465" lon="5.73143">
        <ele>596</ele>
        <time>2019-10-27T12:52:43.000Z</time>
      </trkpt>
      <trkpt lat="45.59466" lon="5.73143">
        <ele>596</ele>
        <time>2019-10-27T12:52:44.000Z</time>
      </trkpt>
      <trkpt lat="45.59467" lon="5.73143">
        <ele>596</ele>
        <time>2019-10-27T12:52:45.000Z</time>
      </trkpt>
      <trkpt lat="45.59468" lon="5.73143">
        <ele>596</ele>
        <time>2019-10-27T12:52:46.000Z</time>
      </trkpt>
      <trkpt lat="45.59469" lon="5.73143">
        <ele>596</ele>
        <time>2019-10-27T12:52:47.000Z</time>
      </trkpt>
      <trkpt lat="45.59469" lon="5.73143">
        <ele>596</ele>
        <time>2019-10-27T12:52:48.000Z</time>
      </trkpt>
      <trkpt lat="45.5947" lon="5.73143">
        <ele>596</ele>
        <time>2019-10-27T12:52:49.000Z</time>
      </trkpt>
      <trkpt lat="45.59471" lon="5.73143">
        <ele>596</ele>
        <time>2019-10-27T12:52:50.000Z</time>
      </trkpt>
      <trkpt lat="45.59472" lon="5.73143">
        <ele>596</ele>
        <time>2019-10-27T12:52:51.000Z</time>
      </trkpt>
      <trkpt lat="45.59473" lon="5.73143">
        <ele>596</ele>
        <time>2019-10-27T12:52:52.000Z</time>
      </trkpt>
      <trkpt lat="45.59474" lon="5.73143">
        <ele>596</ele>
        <time>2019-10-27T12:52:53.000Z</time>
      </trkpt>
      <trkpt lat="45.59474" lon="5.73143">
        <ele>596</ele>
        <time>2019-10-27T12:52:54.000Z</time>
      </trkpt>
      <trkpt lat="45.59475" lon="5.73143">
        <ele>596</ele>
        <time>2019-10-27T12:52:55.000Z</time>
      </trkpt>
      <trkpt lat="45.59476" lon="5.73143">
        <ele>596</ele>
        <time>2019-10-27T12:52:56.000Z</time>
      </trkpt>
      <trkpt lat="45.59477" lon="5.73143">
        <ele>596</ele>
        <time>2019-10-27T12:52:57.000Z</time>
      </trkpt>
      <trkpt lat="45.59477" lon="5.73144">
        <ele>596</ele>
        <time>2019-10-27T12:52:58.000Z</time>
      </trkpt>
      <trkpt lat="45.59479" lon="5.73144">
        <ele>596</ele>
        <time>2019-10-27T12:52:59.000Z</time>
      </trkpt>
      <trkpt lat="45.5948" lon="5.73144">
        <ele>596</ele>
        <time>2019-10-27T12:53:00.000Z</time>
      </trkpt>
      <trkpt lat="45.59482" lon="5.73145">
        <ele>596</ele>
        <time>2019-10-27T12:53:01.000Z</time>
      </trkpt>
      <trkpt lat="45.59483" lon="5.73145">
        <ele>596</ele>
        <time>2019-10-27T12:53:02.000Z</time>
      </trkpt>
      <trkpt lat="45.59485" lon="5.73145">
        <ele>596</ele>
        <time>2019-10-27T12:53:03.000Z</time>
      </trkpt>
      <trkpt lat="45.59486" lon="5.73146">
        <ele>596</ele>
        <time>2019-10-27T12:53:04.000Z</time>
      </trkpt>
      <trkpt lat="45.59487" lon="5.73146">
        <ele>596</ele>
        <time>2019-10-27T12:53:05.000Z</time>
      </trkpt>
      <trkpt lat="45.59487" lon="5.73146">
        <ele>596</ele>
        <time>2019-10-27T12:53:06.000Z</time>
      </trkpt>
      <trkpt lat="45.59487" lon="5.73146">
        <ele>596</ele>
        <time>2019-10-27T12:53:07.000Z</time>
      </trkpt>
      <trkpt lat="45.59487" lon="5.73146">
        <ele>596</ele>
        <time>2019-10-27T12:53:08.000Z</time>
      </trkpt>
      <trkpt lat="45.59488" lon="5.73146">
        <ele>596</ele>
        <time>2019-10-27T12:53:09.000Z</time>
      </trkpt>
      <trkpt lat="45.5949" lon="5.73147">
        <ele>596</ele>
        <time>2019-10-27T12:53:10.000Z</time>
      </trkpt>
      <trkpt lat="45.59491" lon="5.73147">
        <ele>596</ele>
        <time>2019-10-27T12:53:11.000Z</time>
      </trkpt>
      <trkpt lat="45.59493" lon="5.73147">
        <ele>596</ele>
        <time>2019-10-27T12:53:12.000Z</time>
      </trkpt>
      <trkpt lat="45.59495" lon="5.73148">
        <ele>596</ele>
        <time>2019-10-27T12:53:13.000Z</time>
      </trkpt>
      <trkpt lat="45.59497" lon="5.73149">
        <ele>596</ele>
        <time>2019-10-27T12:53:14.000Z</time>
      </trkpt>
      <trkpt lat="45.59498" lon="5.73149">
        <ele>596</ele>
        <time>2019-10-27T12:53:15.000Z</time>
      </trkpt>
      <trkpt lat="45.595" lon="5.7315">
        <ele>596</ele>
        <time>2019-10-27T12:53:16.000Z</time>
      </trkpt>
      <trkpt lat="45.59501" lon="5.7315">
        <ele>596.3</ele>
        <time>2019-10-27T12:53:17.000Z</time>
      </trkpt>
      <trkpt lat="45.59502" lon="5.73151">
        <ele>596.7</ele>
        <time>2019-10-27T12:53:18.000Z</time>
      </trkpt>
      <trkpt lat="45.59503" lon="5.73151">
        <ele>597</ele>
        <time>2019-10-27T12:53:19.000Z</time>
      </trkpt>
      <trkpt lat="45.59505" lon="5.73152">
        <ele>597</ele>
        <time>2019-10-27T12:53:20.000Z</time>
      </trkpt>
      <trkpt lat="45.59506" lon="5.73152">
        <ele>597</ele>
        <time>2019-10-27T12:53:21.000Z</time>
      </trkpt>
      <trkpt lat="45.59507" lon="5.73153">
        <ele>597</ele>
        <time>2019-10-27T12:53:22.000Z</time>
      </trkpt>
      <trkpt lat="45.59508" lon="5.73153">
        <ele>597</ele>
        <time>2019-10-27T12:53:23.000Z</time>
      </trkpt>
      <trkpt lat="45.59509" lon="5.73153">
        <ele>597</ele>
        <time>2019-10-27T12:53:24.000Z</time>
      </trkpt>
      <trkpt lat="45.5951" lon="5.73153">
        <ele>597</ele>
        <time>2019-10-27T12:53:25.000Z</time>
      </trkpt>
      <trkpt lat="45.59511" lon="5.73153">
        <ele>597</ele>
        <time>2019-10-27T12:53:26.000Z</time>
      </trkpt>
      <trkpt lat="45.59512" lon="5.73154">
        <ele>597</ele>
        <time>2019-10-27T12:53:27.000Z</time>
      </trkpt>
      <trkpt lat="45.59514" lon="5.73154">
        <ele>597</ele>
        <time>2019-10-27T12:53:28.000Z</time>
      </trkpt>
      <trkpt lat="45.59515" lon="5.73154">
        <ele>597</ele>
        <time>2019-10-27T12:53:29.000Z</time>
      </trkpt>
      <trkpt lat="45.59517" lon="5.73154">
        <ele>597</ele>
        <time>2019-10-27T12:53:30.000Z</time>
      </trkpt>
      <trkpt lat="45.59518" lon="5.73155">
        <ele>597</ele>
        <time>2019-10-27T12:53:31.000Z</time>
      </trkpt>
      <trkpt lat="45.5952" lon="5.73155">
        <ele>597</ele>
        <time>2019-10-27T12:53:32.000Z</time>
      </trkpt>
      <trkpt lat="45.59521" lon="5.73156">
        <ele>597</ele>
        <time>2019-10-27T12:53:33.000Z</time>
      </trkpt>
      <trkpt lat="45.59523" lon="5.73156">
        <ele>597</ele>
        <time>2019-10-27T12:53:34.000Z</time>
      </trkpt>
      <trkpt lat="45.59524" lon="5.73156">
        <ele>597</ele>
        <time>2019-10-27T12:53:35.000Z</time>
      </trkpt>
      <trkpt lat="45.59524" lon="5.73157">
        <ele>597</ele>
        <time>2019-10-27T12:53:36.000Z</time>
      </trkpt>
      <trkpt lat="45.59525" lon="5.73157">
        <ele>597</ele>
        <time>2019-10-27T12:53:37.000Z</time>
      </trkpt>
      <trkpt lat="45.59526" lon="5.73158">
        <ele>597</ele>
        <time>2019-10-27T12:53:38.000Z</time>
      </trkpt>
      <trkpt lat="45.59527" lon="5.73158">
        <ele>597</ele>
        <time>2019-10-27T12:53:39.000Z</time>
      </trkpt>
      <trkpt lat="45.59528" lon="5.73158">
        <ele>597</ele>
        <time>2019-10-27T12:53:40.000Z</time>
      </trkpt>
      <trkpt lat="45.59529" lon="5.73159">
        <ele>597</ele>
        <time>2019-10-27T12:53:41.000Z</time>
      </trkpt>
      <trkpt lat="45.5953" lon="5.73159">
        <ele>597</ele>
        <time>2019-10-27T12:53:42.000Z</time>
      </trkpt>
      <trkpt lat="45.59532" lon="5.73159">
        <ele>597</ele>
        <time>2019-10-27T12:53:43.000Z</time>
      </trkpt>
      <trkpt lat="45.59533" lon="5.7316">
        <ele>597</ele>
        <time>2019-10-27T12:53:44.000Z</time>
      </trkpt>
      <trkpt lat="45.59534" lon="5.7316">
        <ele>597</ele>
        <time>2019-10-27T12:53:45.000Z</time>
      </trkpt>
      <trkpt lat="45.59535" lon="5.7316">
        <ele>597</ele>
        <time>2019-10-27T12:53:46.000Z</time>
      </trkpt>
      <trkpt lat="45.59536" lon="5.7316">
        <ele>597</ele>
        <time>2019-10-27T12:53:47.000Z</time>
      </trkpt>
      <trkpt lat="45.59537" lon="5.73161">
        <ele>597</ele>
        <time>2019-10-27T12:53:48.000Z</time>
      </trkpt>
      <trkpt lat="45.59537" lon="5.73161">
        <ele>597</ele>
        <time>2019-10-27T12:53:49.000Z</time>
      </trkpt>
      <trkpt lat="45.59538" lon="5.73161">
        <ele>597</ele>
        <time>2019-10-27T12:53:50.000Z</time>
      </trkpt>
      <trkpt lat="45.59538" lon="5.73161">
        <ele>597</ele>
        <time>2019-10-27T12:53:51.000Z</time>
      </trkpt>
      <trkpt lat="45.59538" lon="5.73161">
        <ele>597</ele>
        <time>2019-10-27T12:53:52.000Z</time>
      </trkpt>
      <trkpt lat="45.59539" lon="5.73161">
        <ele>597</ele>
        <time>2019-10-27T12:53:53.000Z</time>
      </trkpt>
      <trkpt lat="45.5954" lon="5.73162">
        <ele>597</ele>
        <time>2019-10-27T12:53:54.000Z</time>
      </trkpt>
      <trkpt lat="45.59541" lon="5.73162">
        <ele>597</ele>
        <time>2019-10-27T12:53:55.000Z</time>
      </trkpt>
      <trkpt lat="45.59543" lon="5.73163">
        <ele>597</ele>
        <time>2019-10-27T12:53:56.000Z</time>
      </trkpt>
      <trkpt lat="45.59545" lon="5.73164">
        <ele>597</ele>
        <time>2019-10-27T12:53:57.000Z</time>
      </trkpt>
      <trkpt lat="45.59546" lon="5.73165">
        <ele>597</ele>
        <time>2019-10-27T12:53:58.000Z</time>
      </trkpt>
      <trkpt lat="45.59547" lon="5.73165">
        <ele>597</ele>
        <time>2019-10-27T12:53:59.000Z</time>
      </trkpt>
      <trkpt lat="45.59547" lon="5.73165">
        <ele>597</ele>
        <time>2019-10-27T12:54:00.000Z</time>
      </trkpt>
      <trkpt lat="45.59547" lon="5.73165">
        <ele>597</ele>
        <time>2019-10-27T12:54:01.000Z</time>
      </trkpt>
      <trkpt lat="45.59547" lon="5.73165">
        <ele>598</ele>
        <time>2019-10-27T12:54:02.000Z</time>
      </trkpt>
      <trkpt lat="45.59547" lon="5.73165">
        <ele>597.7</ele>
        <time>2019-10-27T12:54:03.000Z</time>
      </trkpt>
      <trkpt lat="45.59548" lon="5.73165">
        <ele>597.3</ele>
        <time>2019-10-27T12:54:04.000Z</time>
      </trkpt>
      <trkpt lat="45.59548" lon="5.73165">
        <ele>597</ele>
        <time>2019-10-27T12:54:05.000Z</time>
      </trkpt>
      <trkpt lat="45.59548" lon="5.73165">
        <ele>597</ele>
        <time>2019-10-27T12:54:06.000Z</time>
      </trkpt>
      <trkpt lat="45.59548" lon="5.73165">
        <ele>597.3</ele>
        <time>2019-10-27T12:54:07.000Z</time>
      </trkpt>
      <trkpt lat="45.59548" lon="5.73165">
        <ele>597.7</ele>
        <time>2019-10-27T12:54:08.000Z</time>
      </trkpt>
      <trkpt lat="45.59552" lon="5.73166">
        <ele>598</ele>
        <time>2019-10-27T12:54:09.000Z</time>
      </trkpt>
      <trkpt lat="45.59558" lon="5.73169">
        <ele>598</ele>
        <time>2019-10-27T12:54:10.000Z</time>
      </trkpt>
      <trkpt lat="45.5956" lon="5.7317">
        <ele>598</ele>
        <time>2019-10-27T12:54:11.000Z</time>
      </trkpt>
      <trkpt lat="45.59561" lon="5.7317">
        <ele>598</ele>
        <time>2019-10-27T12:54:12.000Z</time>
      </trkpt>
      <trkpt lat="45.59562" lon="5.73171">
        <ele>598</ele>
        <time>2019-10-27T12:54:13.000Z</time>
      </trkpt>
      <trkpt lat="45.59563" lon="5.73172">
        <ele>598</ele>
        <time>2019-10-27T12:54:14.000Z</time>
      </trkpt>
      <trkpt lat="45.59564" lon="5.73172">
        <ele>598</ele>
        <time>2019-10-27T12:54:15.000Z</time>
      </trkpt>
      <trkpt lat="45.59565" lon="5.73173">
        <ele>598</ele>
        <time>2019-10-27T12:54:16.000Z</time>
      </trkpt>
      <trkpt lat="45.59566" lon="5.73173">
        <ele>598</ele>
        <time>2019-10-27T12:54:17.000Z</time>
      </trkpt>
      <trkpt lat="45.59568" lon="5.73174">
        <ele>598</ele>
        <time>2019-10-27T12:54:18.000Z</time>
      </trkpt>
      <trkpt lat="45.59569" lon="5.73174">
        <ele>598</ele>
        <time>2019-10-27T12:54:19.000Z</time>
      </trkpt>
      <trkpt lat="45.5957" lon="5.73175">
        <ele>598</ele>
        <time>2019-10-27T12:54:20.000Z</time>
      </trkpt>
      <trkpt lat="45.59571" lon="5.73175">
        <ele>598</ele>
        <time>2019-10-27T12:54:21.000Z</time>
      </trkpt>
      <trkpt lat="45.59572" lon="5.73176">
        <ele>598</ele>
        <time>2019-10-27T12:54:22.000Z</time>
      </trkpt>
      <trkpt lat="45.59574" lon="5.73176">
        <ele>598</ele>
        <time>2019-10-27T12:54:23.000Z</time>
      </trkpt>
      <trkpt lat="45.59575" lon="5.73177">
        <ele>598</ele>
        <time>2019-10-27T12:54:24.000Z</time>
      </trkpt>
      <trkpt lat="45.59576" lon="5.73177">
        <ele>598</ele>
        <time>2019-10-27T12:54:25.000Z</time>
      </trkpt>
      <trkpt lat="45.59578" lon="5.73178">
        <ele>598</ele>
        <time>2019-10-27T12:54:26.000Z</time>
      </trkpt>
      <trkpt lat="45.59579" lon="5.73178">
        <ele>598</ele>
        <time>2019-10-27T12:54:27.000Z</time>
      </trkpt>
      <trkpt lat="45.5958" lon="5.73179">
        <ele>598</ele>
        <time>2019-10-27T12:54:28.000Z</time>
      </trkpt>
      <trkpt lat="45.59581" lon="5.73179">
        <ele>598</ele>
        <time>2019-10-27T12:54:29.000Z</time>
      </trkpt>
      <trkpt lat="45.59582" lon="5.73179">
        <ele>598</ele>
        <time>2019-10-27T12:54:30.000Z</time>
      </trkpt>
      <trkpt lat="45.59583" lon="5.7318">
        <ele>598</ele>
        <time>2019-10-27T12:54:31.000Z</time>
      </trkpt>
      <trkpt lat="45.59584" lon="5.7318">
        <ele>598</ele>
        <time>2019-10-27T12:54:32.000Z</time>
      </trkpt>
      <trkpt lat="45.59585" lon="5.7318">
        <ele>598</ele>
        <time>2019-10-27T12:54:33.000Z</time>
      </trkpt>
      <trkpt lat="45.59587" lon="5.7318">
        <ele>598</ele>
        <time>2019-10-27T12:54:34.000Z</time>
      </trkpt>
      <trkpt lat="45.5959" lon="5.73181">
        <ele>598</ele>
        <time>2019-10-27T12:54:35.000Z</time>
      </trkpt>
      <trkpt lat="45.59592" lon="5.73181">
        <ele>598</ele>
        <time>2019-10-27T12:54:36.000Z</time>
      </trkpt>
      <trkpt lat="45.59592" lon="5.73182">
        <ele>598</ele>
        <time>2019-10-27T12:54:37.000Z</time>
      </trkpt>
      <trkpt lat="45.59593" lon="5.73182">
        <ele>598</ele>
        <time>2019-10-27T12:54:38.000Z</time>
      </trkpt>
      <trkpt lat="45.59593" lon="5.73182">
        <ele>598</ele>
        <time>2019-10-27T12:54:39.000Z</time>
      </trkpt>
      <trkpt lat="45.59594" lon="5.73182">
        <ele>598</ele>
        <time>2019-10-27T12:54:40.000Z</time>
      </trkpt>
      <trkpt lat="45.59594" lon="5.73182">
        <ele>598</ele>
        <time>2019-10-27T12:54:41.000Z</time>
      </trkpt>
      <trkpt lat="45.59595" lon="5.73183">
        <ele>598</ele>
        <time>2019-10-27T12:54:42.000Z</time>
      </trkpt>
      <trkpt lat="45.59596" lon="5.73183">
        <ele>598</ele>
        <time>2019-10-27T12:54:43.000Z</time>
      </trkpt>
      <trkpt lat="45.59597" lon="5.73183">
        <ele>598</ele>
        <time>2019-10-27T12:54:44.000Z</time>
      </trkpt>
      <trkpt lat="45.59597" lon="5.73183">
        <ele>598</ele>
        <time>2019-10-27T12:54:45.000Z</time>
      </trkpt>
      <trkpt lat="45.59598" lon="5.73184">
        <ele>598</ele>
        <time>2019-10-27T12:54:46.000Z</time>
      </trkpt>
      <trkpt lat="45.59598" lon="5.73184">
        <ele>598</ele>
        <time>2019-10-27T12:54:47.000Z</time>
      </trkpt>
      <trkpt lat="45.59598" lon="5.73184">
        <ele>598</ele>
        <time>2019-10-27T12:54:48.000Z</time>
      </trkpt>
      <trkpt lat="45.59598" lon="5.73184">
        <ele>598</ele>
        <time>2019-10-27T12:54:49.000Z</time>
      </trkpt>
      <trkpt lat="45.59598" lon="5.73184">
        <ele>598</ele>
        <time>2019-10-27T12:54:50.000Z</time>
      </trkpt>
      <trkpt lat="45.59598" lon="5.73184">
        <ele>598</ele>
        <time>2019-10-27T12:54:51.000Z</time>
      </trkpt>
      <trkpt lat="45.59599" lon="5.73184">
        <ele>598</ele>
        <time>2019-10-27T12:54:52.000Z</time>
      </trkpt>
      <trkpt lat="45.59602" lon="5.73185">
        <ele>598</ele>
        <time>2019-10-27T12:54:53.000Z</time>
      </trkpt>
      <trkpt lat="45.59608" lon="5.73186">
        <ele>598</ele>
        <time>2019-10-27T12:54:54.000Z</time>
      </trkpt>
      <trkpt lat="45.5961" lon="5.73186">
        <ele>598</ele>
        <time>2019-10-27T12:54:55.000Z</time>
      </trkpt>
      <trkpt lat="45.59611" lon="5.73186">
        <ele>598</ele>
        <time>2019-10-27T12:54:56.000Z</time>
      </trkpt>
      <trkpt lat="45.59612" lon="5.73187">
        <ele>598</ele>
        <time>2019-10-27T12:54:57.000Z</time>
      </trkpt>
      <trkpt lat="45.59612" lon="5.73187">
        <ele>598</ele>
        <time>2019-10-27T12:54:58.000Z</time>
      </trkpt>
      <trkpt lat="45.59613" lon="5.73187">
        <ele>598</ele>
        <time>2019-10-27T12:54:59.000Z</time>
      </trkpt>
      <trkpt lat="45.59615" lon="5.73188">
        <ele>599</ele>
        <time>2019-10-27T12:55:00.000Z</time>
      </trkpt>
      <trkpt lat="45.59617" lon="5.73188">
        <ele>599</ele>
        <time>2019-10-27T12:55:01.000Z</time>
      </trkpt>
      <trkpt lat="45.59619" lon="5.73188">
        <ele>599</ele>
        <time>2019-10-27T12:55:02.000Z</time>
      </trkpt>
      <trkpt lat="45.59621" lon="5.73188">
        <ele>599</ele>
        <time>2019-10-27T12:55:03.000Z</time>
      </trkpt>
      <trkpt lat="45.59623" lon="5.73188">
        <ele>599</ele>
        <time>2019-10-27T12:55:04.000Z</time>
      </trkpt>
      <trkpt lat="45.59624" lon="5.73188">
        <ele>599</ele>
        <time>2019-10-27T12:55:05.000Z</time>
      </trkpt>
      <trkpt lat="45.59625" lon="5.73188">
        <ele>599</ele>
        <time>2019-10-27T12:55:06.000Z</time>
      </trkpt>
      <trkpt lat="45.59626" lon="5.73188">
        <ele>599</ele>
        <time>2019-10-27T12:55:07.000Z</time>
      </trkpt>
      <trkpt lat="45.59626" lon="5.73188">
        <ele>599</ele>
        <time>2019-10-27T12:55:08.000Z</time>
      </trkpt>
      <trkpt lat="45.59626" lon="5.73189">
        <ele>599</ele>
        <time>2019-10-27T12:55:09.000Z</time>
      </trkpt>
      <trkpt lat="45.59626" lon="5.73189">
        <ele>599</ele>
        <time>2019-10-27T12:55:10.000Z</time>
      </trkpt>
      <trkpt lat="45.59626" lon="5.73189">
        <ele>599</ele>
        <time>2019-10-27T12:55:11.000Z</time>
      </trkpt>
      <trkpt lat="45.59626" lon="5.73189">
        <ele>599</ele>
        <time>2019-10-27T12:55:12.000Z</time>
      </trkpt>
      <trkpt lat="45.59627" lon="5.73189">
        <ele>599</ele>
        <time>2019-10-27T12:55:13.000Z</time>
      </trkpt>
      <trkpt lat="45.59627" lon="5.73189">
        <ele>599</ele>
        <time>2019-10-27T12:55:14.000Z</time>
      </trkpt>
      <trkpt lat="45.59627" lon="5.73189">
        <ele>599</ele>
        <time>2019-10-27T12:55:15.000Z</time>
      </trkpt>
      <trkpt lat="45.59627" lon="5.73189">
        <ele>599</ele>
        <time>2019-10-27T12:55:16.000Z</time>
      </trkpt>
      <trkpt lat="45.59631" lon="5.7319">
        <ele>599</ele>
        <time>2019-10-27T12:55:17.000Z</time>
      </trkpt>
      <trkpt lat="45.59638" lon="5.73191">
        <ele>599</ele>
        <time>2019-10-27T12:55:18.000Z</time>
      </trkpt>
      <trkpt lat="45.59638" lon="5.73191">
        <ele>599</ele>
        <time>2019-10-27T12:55:19.000Z</time>
      </trkpt>
      <trkpt lat="45.59639" lon="5.73191">
        <ele>599</ele>
        <time>2019-10-27T12:55:20.000Z</time>
      </trkpt>
      <trkpt lat="45.59641" lon="5.73192">
        <ele>599</ele>
        <time>2019-10-27T12:55:21.000Z</time>
      </trkpt>
      <trkpt lat="45.59642" lon="5.73193">
        <ele>599</ele>
        <time>2019-10-27T12:55:22.000Z</time>
      </trkpt>
      <trkpt lat="45.59642" lon="5.73193">
        <ele>599</ele>
        <time>2019-10-27T12:55:23.000Z</time>
      </trkpt>
      <trkpt lat="45.59642" lon="5.73193">
        <ele>599</ele>
        <time>2019-10-27T12:55:24.000Z</time>
      </trkpt>
      <trkpt lat="45.59643" lon="5.73193">
        <ele>599</ele>
        <time>2019-10-27T12:55:25.000Z</time>
      </trkpt>
      <trkpt lat="45.59643" lon="5.73193">
        <ele>599</ele>
        <time>2019-10-27T12:55:26.000Z</time>
      </trkpt>
      <trkpt lat="45.59645" lon="5.73193">
        <ele>599</ele>
        <time>2019-10-27T12:55:27.000Z</time>
      </trkpt>
      <trkpt lat="45.59646" lon="5.73194">
        <ele>599</ele>
        <time>2019-10-27T12:55:28.000Z</time>
      </trkpt>
      <trkpt lat="45.59647" lon="5.73194">
        <ele>599</ele>
        <time>2019-10-27T12:55:29.000Z</time>
      </trkpt>
      <trkpt lat="45.59649" lon="5.73195">
        <ele>599</ele>
        <time>2019-10-27T12:55:30.000Z</time>
      </trkpt>
      <trkpt lat="45.5965" lon="5.73195">
        <ele>599</ele>
        <time>2019-10-27T12:55:31.000Z</time>
      </trkpt>
      <trkpt lat="45.59651" lon="5.73195">
        <ele>599</ele>
        <time>2019-10-27T12:55:32.000Z</time>
      </trkpt>
      <trkpt lat="45.59652" lon="5.73196">
        <ele>599</ele>
        <time>2019-10-27T12:55:33.000Z</time>
      </trkpt>
      <trkpt lat="45.59654" lon="5.73196">
        <ele>599</ele>
        <time>2019-10-27T12:55:34.000Z</time>
      </trkpt>
      <trkpt lat="45.59654" lon="5.73197">
        <ele>599</ele>
        <time>2019-10-27T12:55:35.000Z</time>
      </trkpt>
      <trkpt lat="45.59655" lon="5.73197">
        <ele>599</ele>
        <time>2019-10-27T12:55:36.000Z</time>
      </trkpt>
      <trkpt lat="45.59656" lon="5.73197">
        <ele>599</ele>
        <time>2019-10-27T12:55:37.000Z</time>
      </trkpt>
      <trkpt lat="45.59656" lon="5.73198">
        <ele>599</ele>
        <time>2019-10-27T12:55:38.000Z</time>
      </trkpt>
      <trkpt lat="45.59656" lon="5.73198">
        <ele>599</ele>
        <time>2019-10-27T12:55:39.000Z</time>
      </trkpt>
      <trkpt lat="45.59657" lon="5.73198">
        <ele>599</ele>
        <time>2019-10-27T12:55:40.000Z</time>
      </trkpt>
      <trkpt lat="45.59657" lon="5.73198">
        <ele>599</ele>
        <time>2019-10-27T12:55:41.000Z</time>
      </trkpt>
      <trkpt lat="45.59657" lon="5.73198">
        <ele>599</ele>
        <time>2019-10-27T12:55:42.000Z</time>
      </trkpt>
      <trkpt lat="45.59658" lon="5.73198">
        <ele>599</ele>
        <time>2019-10-27T12:55:43.000Z</time>
      </trkpt>
      <trkpt lat="45.5966" lon="5.73198">
        <ele>599</ele>
        <time>2019-10-27T12:55:44.000Z</time>
      </trkpt>
      <trkpt lat="45.59661" lon="5.73198">
        <ele>599</ele>
        <time>2019-10-27T12:55:45.000Z</time>
      </trkpt>
      <trkpt lat="45.59663" lon="5.73198">
        <ele>599</ele>
        <time>2019-10-27T12:55:46.000Z</time>
      </trkpt>
      <trkpt lat="45.59665" lon="5.73197">
        <ele>599</ele>
        <time>2019-10-27T12:55:47.000Z</time>
      </trkpt>
      <trkpt lat="45.59668" lon="5.73197">
        <ele>599</ele>
        <time>2019-10-27T12:55:48.000Z</time>
      </trkpt>
      <trkpt lat="45.5967" lon="5.73196">
        <ele>599</ele>
        <time>2019-10-27T12:55:49.000Z</time>
      </trkpt>
      <trkpt lat="45.59672" lon="5.73196">
        <ele>599</ele>
        <time>2019-10-27T12:55:50.000Z</time>
      </trkpt>
      <trkpt lat="45.59674" lon="5.73196">
        <ele>599</ele>
        <time>2019-10-27T12:55:51.000Z</time>
      </trkpt>
      <trkpt lat="45.59675" lon="5.73196">
        <ele>599</ele>
        <time>2019-10-27T12:55:52.000Z</time>
      </trkpt>
      <trkpt lat="45.59676" lon="5.73197">
        <ele>599</ele>
        <time>2019-10-27T12:55:53.000Z</time>
      </trkpt>
      <trkpt lat="45.59677" lon="5.73197">
        <ele>599</ele>
        <time>2019-10-27T12:55:54.000Z</time>
      </trkpt>
      <trkpt lat="45.59679" lon="5.73198">
        <ele>599</ele>
        <time>2019-10-27T12:55:55.000Z</time>
      </trkpt>
      <trkpt lat="45.5968" lon="5.73198">
        <ele>599</ele>
        <time>2019-10-27T12:55:56.000Z</time>
      </trkpt>
      <trkpt lat="45.59681" lon="5.73198">
        <ele>599</ele>
        <time>2019-10-27T12:55:57.000Z</time>
      </trkpt>
      <trkpt lat="45.59683" lon="5.73198">
        <ele>599</ele>
        <time>2019-10-27T12:55:58.000Z</time>
      </trkpt>
      <trkpt lat="45.59685" lon="5.73198">
        <ele>599</ele>
        <time>2019-10-27T12:55:59.000Z</time>
      </trkpt>
      <trkpt lat="45.59686" lon="5.73198">
        <ele>599</ele>
        <time>2019-10-27T12:56:00.000Z</time>
      </trkpt>
      <trkpt lat="45.59688" lon="5.73198">
        <ele>599</ele>
        <time>2019-10-27T12:56:01.000Z</time>
      </trkpt>
      <trkpt lat="45.59689" lon="5.73199">
        <ele>599</ele>
        <time>2019-10-27T12:56:02.000Z</time>
      </trkpt>
      <trkpt lat="45.59691" lon="5.73199">
        <ele>599</ele>
        <time>2019-10-27T12:56:03.000Z</time>
      </trkpt>
      <trkpt lat="45.59692" lon="5.73199">
        <ele>599</ele>
        <time>2019-10-27T12:56:04.000Z</time>
      </trkpt>
      <trkpt lat="45.59692" lon="5.73199">
        <ele>599</ele>
        <time>2019-10-27T12:56:05.000Z</time>
      </trkpt>
      <trkpt lat="45.59693" lon="5.732">
        <ele>599</ele>
        <time>2019-10-27T12:56:06.000Z</time>
      </trkpt>
      <trkpt lat="45.59694" lon="5.732">
        <ele>599</ele>
        <time>2019-10-27T12:56:07.000Z</time>
      </trkpt>
      <trkpt lat="45.59694" lon="5.73201">
        <ele>599</ele>
        <time>2019-10-27T12:56:08.000Z</time>
      </trkpt>
      <trkpt lat="45.59695" lon="5.73201">
        <ele>599</ele>
        <time>2019-10-27T12:56:09.000Z</time>
      </trkpt>
      <trkpt lat="45.59696" lon="5.73202">
        <ele>599</ele>
        <time>2019-10-27T12:56:10.000Z</time>
      </trkpt>
      <trkpt lat="45.59697" lon="5.73202">
        <ele>599</ele>
        <time>2019-10-27T12:56:11.000Z</time>
      </trkpt>
      <trkpt lat="45.59698" lon="5.73203">
        <ele>599</ele>
        <time>2019-10-27T12:56:12.000Z</time>
      </trkpt>
      <trkpt lat="45.59699" lon="5.73203">
        <ele>599</ele>
        <time>2019-10-27T12:56:13.000Z</time>
      </trkpt>
      <trkpt lat="45.597" lon="5.73203">
        <ele>599</ele>
        <time>2019-10-27T12:56:14.000Z</time>
      </trkpt>
      <trkpt lat="45.59702" lon="5.73204">
        <ele>599</ele>
        <time>2019-10-27T12:56:15.000Z</time>
      </trkpt>
      <trkpt lat="45.59703" lon="5.73204">
        <ele>599</ele>
        <time>2019-10-27T12:56:16.000Z</time>
      </trkpt>
      <trkpt lat="45.59705" lon="5.73204">
        <ele>599</ele>
        <time>2019-10-27T12:56:17.000Z</time>
      </trkpt>
      <trkpt lat="45.59707" lon="5.73204">
        <ele>599</ele>
        <time>2019-10-27T12:56:18.000Z</time>
      </trkpt>
      <trkpt lat="45.59708" lon="5.73204">
        <ele>599</ele>
        <time>2019-10-27T12:56:19.000Z</time>
      </trkpt>
      <trkpt lat="45.5971" lon="5.73204">
        <ele>599</ele>
        <time>2019-10-27T12:56:20.000Z</time>
      </trkpt>
      <trkpt lat="45.59712" lon="5.73204">
        <ele>599</ele>
        <time>2019-10-27T12:56:21.000Z</time>
      </trkpt>
      <trkpt lat="45.59713" lon="5.73204">
        <ele>599</ele>
        <time>2019-10-27T12:56:22.000Z</time>
      </trkpt>
      <trkpt lat="45.59715" lon="5.73204">
        <ele>599</ele>
        <time>2019-10-27T12:56:23.000Z</time>
      </trkpt>
      <trkpt lat="45.59717" lon="5.73204">
        <ele>599</ele>
        <time>2019-10-27T12:56:24.000Z</time>
      </trkpt>
      <trkpt lat="45.59718" lon="5.73204">
        <ele>599</ele>
        <time>2019-10-27T12:56:25.000Z</time>
      </trkpt>
      <trkpt lat="45.5972" lon="5.73204">
        <ele>599</ele>
        <time>2019-10-27T12:56:26.000Z</time>
      </trkpt>
      <trkpt lat="45.59721" lon="5.73204">
        <ele>599</ele>
        <time>2019-10-27T12:56:27.000Z</time>
      </trkpt>
      <trkpt lat="45.59723" lon="5.73204">
        <ele>599</ele>
        <time>2019-10-27T12:56:28.000Z</time>
      </trkpt>
      <trkpt lat="45.59725" lon="5.73204">
        <ele>599</ele>
        <time>2019-10-27T12:56:29.000Z</time>
      </trkpt>
      <trkpt lat="45.59726" lon="5.73204">
        <ele>599</ele>
        <time>2019-10-27T12:56:30.000Z</time>
      </trkpt>
      <trkpt lat="45.59728" lon="5.73204">
        <ele>599</ele>
        <time>2019-10-27T12:56:31.000Z</time>
      </trkpt>
      <trkpt lat="45.59729" lon="5.73204">
        <ele>599</ele>
        <time>2019-10-27T12:56:32.000Z</time>
      </trkpt>
      <trkpt lat="45.59731" lon="5.73205">
        <ele>599</ele>
        <time>2019-10-27T12:56:33.000Z</time>
      </trkpt>
      <trkpt lat="45.59732" lon="5.73205">
        <ele>599</ele>
        <time>2019-10-27T12:56:34.000Z</time>
      </trkpt>
      <trkpt lat="45.59734" lon="5.73205">
        <ele>599</ele>
        <time>2019-10-27T12:56:35.000Z</time>
      </trkpt>
      <trkpt lat="45.59735" lon="5.73205">
        <ele>599</ele>
        <time>2019-10-27T12:56:36.000Z</time>
      </trkpt>
      <trkpt lat="45.59736" lon="5.73205">
        <ele>599</ele>
        <time>2019-10-27T12:56:37.000Z</time>
      </trkpt>
      <trkpt lat="45.59737" lon="5.73206">
        <ele>599</ele>
        <time>2019-10-27T12:56:38.000Z</time>
      </trkpt>
      <trkpt lat="45.59738" lon="5.73206">
        <ele>599</ele>
        <time>2019-10-27T12:56:39.000Z</time>
      </trkpt>
      <trkpt lat="45.59739" lon="5.73206">
        <ele>599</ele>
        <time>2019-10-27T12:56:40.000Z</time>
      </trkpt>
      <trkpt lat="45.59739" lon="5.73207">
        <ele>599</ele>
        <time>2019-10-27T12:56:41.000Z</time>
      </trkpt>
      <trkpt lat="45.5974" lon="5.73207">
        <ele>599</ele>
        <time>2019-10-27T12:56:42.000Z</time>
      </trkpt>
      <trkpt lat="45.59741" lon="5.73207">
        <ele>599</ele>
        <time>2019-10-27T12:56:43.000Z</time>
      </trkpt>
      <trkpt lat="45.59742" lon="5.73207">
        <ele>599</ele>
        <time>2019-10-27T12:56:44.000Z</time>
      </trkpt>
      <trkpt lat="45.59742" lon="5.73208">
        <ele>599</ele>
        <time>2019-10-27T12:56:45.000Z</time>
      </trkpt>
      <trkpt lat="45.59743" lon="5.73208">
        <ele>599</ele>
        <time>2019-10-27T12:56:46.000Z</time>
      </trkpt>
      <trkpt lat="45.59744" lon="5.73208">
        <ele>599</ele>
        <time>2019-10-27T12:56:47.000Z</time>
      </trkpt>
      <trkpt lat="45.59746" lon="5.73209">
        <ele>599</ele>
        <time>2019-10-27T12:56:48.000Z</time>
      </trkpt>
      <trkpt lat="45.59747" lon="5.73209">
        <ele>599</ele>
        <time>2019-10-27T12:56:49.000Z</time>
      </trkpt>
      <trkpt lat="45.59748" lon="5.73209">
        <ele>599</ele>
        <time>2019-10-27T12:56:50.000Z</time>
      </trkpt>
      <trkpt lat="45.5975" lon="5.73209">
        <ele>599</ele>
        <time>2019-10-27T12:56:51.000Z</time>
      </trkpt>
      <trkpt lat="45.59751" lon="5.7321">
        <ele>599</ele>
        <time>2019-10-27T12:56:52.000Z</time>
      </trkpt>
      <trkpt lat="45.59752" lon="5.7321">
        <ele>599</ele>
        <time>2019-10-27T12:56:53.000Z</time>
      </trkpt>
      <trkpt lat="45.59753" lon="5.7321">
        <ele>599</ele>
        <time>2019-10-27T12:56:54.000Z</time>
      </trkpt>
      <trkpt lat="45.59753" lon="5.7321">
        <ele>599</ele>
        <time>2019-10-27T12:56:55.000Z</time>
      </trkpt>
      <trkpt lat="45.59754" lon="5.73211">
        <ele>599</ele>
        <time>2019-10-27T12:56:56.000Z</time>
      </trkpt>
      <trkpt lat="45.59755" lon="5.73211">
        <ele>599</ele>
        <time>2019-10-27T12:56:57.000Z</time>
      </trkpt>
      <trkpt lat="45.59756" lon="5.73211">
        <ele>599</ele>
        <time>2019-10-27T12:56:58.000Z</time>
      </trkpt>
      <trkpt lat="45.59757" lon="5.73212">
        <ele>599</ele>
        <time>2019-10-27T12:56:59.000Z</time>
      </trkpt>
      <trkpt lat="45.59758" lon="5.73212">
        <ele>599</ele>
        <time>2019-10-27T12:57:00.000Z</time>
      </trkpt>
      <trkpt lat="45.59758" lon="5.73212">
        <ele>599</ele>
        <time>2019-10-27T12:57:01.000Z</time>
      </trkpt>
      <trkpt lat="45.59759" lon="5.73212">
        <ele>599</ele>
        <time>2019-10-27T12:57:02.000Z</time>
      </trkpt>
      <trkpt lat="45.59759" lon="5.73213">
        <ele>599</ele>
        <time>2019-10-27T12:57:03.000Z</time>
      </trkpt>
      <trkpt lat="45.59759" lon="5.73213">
        <ele>599</ele>
        <time>2019-10-27T12:57:04.000Z</time>
      </trkpt>
      <trkpt lat="45.59759" lon="5.73213">
        <ele>599</ele>
        <time>2019-10-27T12:57:05.000Z</time>
      </trkpt>
      <trkpt lat="45.5976" lon="5.73213">
        <ele>599</ele>
        <time>2019-10-27T12:57:06.000Z</time>
      </trkpt>
      <trkpt lat="45.59762" lon="5.73213">
        <ele>599</ele>
        <time>2019-10-27T12:57:07.000Z</time>
      </trkpt>
      <trkpt lat="45.59764" lon="5.73213">
        <ele>599</ele>
        <time>2019-10-27T12:57:08.000Z</time>
      </trkpt>
      <trkpt lat="45.59765" lon="5.73213">
        <ele>599</ele>
        <time>2019-10-27T12:57:09.000Z</time>
      </trkpt>
      <trkpt lat="45.59766" lon="5.73213">
        <ele>599</ele>
        <time>2019-10-27T12:57:10.000Z</time>
      </trkpt>
      <trkpt lat="45.59766" lon="5.73213">
        <ele>599</ele>
        <time>2019-10-27T12:57:11.000Z</time>
      </trkpt>
      <trkpt lat="45.59767" lon="5.73213">
        <ele>599</ele>
        <time>2019-10-27T12:57:12.000Z</time>
      </trkpt>
      <trkpt lat="45.59769" lon="5.73213">
        <ele>599</ele>
        <time>2019-10-27T12:57:13.000Z</time>
      </trkpt>
      <trkpt lat="45.59771" lon="5.73213">
        <ele>599</ele>
        <time>2019-10-27T12:57:14.000Z</time>
      </trkpt>
      <trkpt lat="45.59773" lon="5.73214">
        <ele>599</ele>
        <time>2019-10-27T12:57:15.000Z</time>
      </trkpt>
      <trkpt lat="45.59775" lon="5.73214">
        <ele>599</ele>
        <time>2019-10-27T12:57:16.000Z</time>
      </trkpt>
      <trkpt lat="45.59776" lon="5.73214">
        <ele>599</ele>
        <time>2019-10-27T12:57:17.000Z</time>
      </trkpt>
      <trkpt lat="45.59777" lon="5.73214">
        <ele>599</ele>
        <time>2019-10-27T12:57:18.000Z</time>
      </trkpt>
      <trkpt lat="45.59778" lon="5.73214">
        <ele>599</ele>
        <time>2019-10-27T12:57:19.000Z</time>
      </trkpt>
      <trkpt lat="45.59778" lon="5.73214">
        <ele>599</ele>
        <time>2019-10-27T12:57:20.000Z</time>
      </trkpt>
      <trkpt lat="45.59778" lon="5.73214">
        <ele>599</ele>
        <time>2019-10-27T12:57:21.000Z</time>
      </trkpt>
      <trkpt lat="45.59779" lon="5.73214">
        <ele>599</ele>
        <time>2019-10-27T12:57:22.000Z</time>
      </trkpt>
      <trkpt lat="45.59779" lon="5.73214">
        <ele>599</ele>
        <time>2019-10-27T12:57:23.000Z</time>
      </trkpt>
      <trkpt lat="45.5978" lon="5.73214">
        <ele>599</ele>
        <time>2019-10-27T12:57:24.000Z</time>
      </trkpt>
      <trkpt lat="45.59781" lon="5.73214">
        <ele>599</ele>
        <time>2019-10-27T12:57:25.000Z</time>
      </trkpt>
      <trkpt lat="45.59782" lon="5.73214">
        <ele>599</ele>
        <time>2019-10-27T12:57:26.000Z</time>
      </trkpt>
      <trkpt lat="45.59783" lon="5.73214">
        <ele>599</ele>
        <time>2019-10-27T12:57:27.000Z</time>
      </trkpt>
      <trkpt lat="45.59785" lon="5.73214">
        <ele>599</ele>
        <time>2019-10-27T12:57:28.000Z</time>
      </trkpt>
      <trkpt lat="45.59786" lon="5.73214">
        <ele>599</ele>
        <time>2019-10-27T12:57:29.000Z</time>
      </trkpt>
      <trkpt lat="45.59787" lon="5.73214">
        <ele>599</ele>
        <time>2019-10-27T12:57:30.000Z</time>
      </trkpt>
      <trkpt lat="45.59788" lon="5.73214">
        <ele>599</ele>
        <time>2019-10-27T12:57:31.000Z</time>
      </trkpt>
      <trkpt lat="45.59789" lon="5.73214">
        <ele>599</ele>
        <time>2019-10-27T12:57:32.000Z</time>
      </trkpt>
      <trkpt lat="45.5979" lon="5.73214">
        <ele>599</ele>
        <time>2019-10-27T12:57:33.000Z</time>
      </trkpt>
      <trkpt lat="45.5979" lon="5.73214">
        <ele>599</ele>
        <time>2019-10-27T12:57:34.000Z</time>
      </trkpt>
      <trkpt lat="45.59791" lon="5.73214">
        <ele>599</ele>
        <time>2019-10-27T12:57:35.000Z</time>
      </trkpt>
      <trkpt lat="45.59792" lon="5.73214">
        <ele>599</ele>
        <time>2019-10-27T12:57:36.000Z</time>
      </trkpt>
      <trkpt lat="45.59793" lon="5.73214">
        <ele>599</ele>
        <time>2019-10-27T12:57:37.000Z</time>
      </trkpt>
      <trkpt lat="45.59793" lon="5.73214">
        <ele>599</ele>
        <time>2019-10-27T12:57:38.000Z</time>
      </trkpt>
      <trkpt lat="45.59794" lon="5.73214">
        <ele>599</ele>
        <time>2019-10-27T12:57:39.000Z</time>
      </trkpt>
      <trkpt lat="45.59794" lon="5.73214">
        <ele>599</ele>
        <time>2019-10-27T12:57:40.000Z</time>
      </trkpt>
      <trkpt lat="45.59795" lon="5.73214">
        <ele>599</ele>
        <time>2019-10-27T12:57:41.000Z</time>
      </trkpt>
      <trkpt lat="45.59796" lon="5.73214">
        <ele>599</ele>
        <time>2019-10-27T12:57:42.000Z</time>
      </trkpt>
      <trkpt lat="45.59796" lon="5.73214">
        <ele>599</ele>
        <time>2019-10-27T12:57:43.000Z</time>
      </trkpt>
      <trkpt lat="45.59797" lon="5.73214">
        <ele>599</ele>
        <time>2019-10-27T12:57:44.000Z</time>
      </trkpt>
      <trkpt lat="45.59797" lon="5.73214">
        <ele>599</ele>
        <time>2019-10-27T12:57:45.000Z</time>
      </trkpt>
      <trkpt lat="45.59798" lon="5.73214">
        <ele>599</ele>
        <time>2019-10-27T12:57:46.000Z</time>
      </trkpt>
      <trkpt lat="45.59798" lon="5.73213">
        <ele>599</ele>
        <time>2019-10-27T12:57:47.000Z</time>
      </trkpt>
      <trkpt lat="45.59799" lon="5.73213">
        <ele>599</ele>
        <time>2019-10-27T12:57:48.000Z</time>
      </trkpt>
      <trkpt lat="45.598" lon="5.73213">
        <ele>599</ele>
        <time>2019-10-27T12:57:49.000Z</time>
      </trkpt>
      <trkpt lat="45.59801" lon="5.73213">
        <ele>599</ele>
        <time>2019-10-27T12:57:50.000Z</time>
      </trkpt>
      <trkpt lat="45.59802" lon="5.73212">
        <ele>599</ele>
        <time>2019-10-27T12:57:51.000Z</time>
      </trkpt>
      <trkpt lat="45.59804" lon="5.73212">
        <ele>599</ele>
        <time>2019-10-27T12:57:52.000Z</time>
      </trkpt>
      <trkpt lat="45.59805" lon="5.73212">
        <ele>599</ele>
        <time>2019-10-27T12:57:53.000Z</time>
      </trkpt>
      <trkpt lat="45.59807" lon="5.73212">
        <ele>599</ele>
        <time>2019-10-27T12:57:54.000Z</time>
      </trkpt>
      <trkpt lat="45.59809" lon="5.73212">
        <ele>599</ele>
        <time>2019-10-27T12:57:55.000Z</time>
      </trkpt>
      <trkpt lat="45.59811" lon="5.73212">
        <ele>599</ele>
        <time>2019-10-27T12:57:56.000Z</time>
      </trkpt>
      <trkpt lat="45.59812" lon="5.73212">
        <ele>599</ele>
        <time>2019-10-27T12:57:57.000Z</time>
      </trkpt>
      <trkpt lat="45.59814" lon="5.73212">
        <ele>599</ele>
        <time>2019-10-27T12:57:58.000Z</time>
      </trkpt>
      <trkpt lat="45.59815" lon="5.73213">
        <ele>599</ele>
        <time>2019-10-27T12:57:59.000Z</time>
      </trkpt>
      <trkpt lat="45.59816" lon="5.73213">
        <ele>599</ele>
        <time>2019-10-27T12:58:00.000Z</time>
      </trkpt>
      <trkpt lat="45.59817" lon="5.73213">
        <ele>599</ele>
        <time>2019-10-27T12:58:01.000Z</time>
      </trkpt>
      <trkpt lat="45.59819" lon="5.73213">
        <ele>599</ele>
        <time>2019-10-27T12:58:02.000Z</time>
      </trkpt>
      <trkpt lat="45.5982" lon="5.73213">
        <ele>599</ele>
        <time>2019-10-27T12:58:03.000Z</time>
      </trkpt>
      <trkpt lat="45.59821" lon="5.73214">
        <ele>599</ele>
        <time>2019-10-27T12:58:04.000Z</time>
      </trkpt>
      <trkpt lat="45.59823" lon="5.73214">
        <ele>599</ele>
        <time>2019-10-27T12:58:05.000Z</time>
      </trkpt>
      <trkpt lat="45.59824" lon="5.73214">
        <ele>599</ele>
        <time>2019-10-27T12:58:06.000Z</time>
      </trkpt>
      <trkpt lat="45.59826" lon="5.73214">
        <ele>599</ele>
        <time>2019-10-27T12:58:07.000Z</time>
      </trkpt>
      <trkpt lat="45.59827" lon="5.73215">
        <ele>599</ele>
        <time>2019-10-27T12:58:08.000Z</time>
      </trkpt>
      <trkpt lat="45.59829" lon="5.73215">
        <ele>599</ele>
        <time>2019-10-27T12:58:09.000Z</time>
      </trkpt>
      <trkpt lat="45.59831" lon="5.73216">
        <ele>599</ele>
        <time>2019-10-27T12:58:10.000Z</time>
      </trkpt>
      <trkpt lat="45.59832" lon="5.73216">
        <ele>599</ele>
        <time>2019-10-27T12:58:11.000Z</time>
      </trkpt>
      <trkpt lat="45.59834" lon="5.73216">
        <ele>599</ele>
        <time>2019-10-27T12:58:12.000Z</time>
      </trkpt>
      <trkpt lat="45.59836" lon="5.73217">
        <ele>599</ele>
        <time>2019-10-27T12:58:13.000Z</time>
      </trkpt>
      <trkpt lat="45.59838" lon="5.73218">
        <ele>599</ele>
        <time>2019-10-27T12:58:14.000Z</time>
      </trkpt>
      <trkpt lat="45.5984" lon="5.73218">
        <ele>599</ele>
        <time>2019-10-27T12:58:15.000Z</time>
      </trkpt>
      <trkpt lat="45.59841" lon="5.73219">
        <ele>599</ele>
        <time>2019-10-27T12:58:16.000Z</time>
      </trkpt>
      <trkpt lat="45.59843" lon="5.7322">
        <ele>599</ele>
        <time>2019-10-27T12:58:17.000Z</time>
      </trkpt>
      <trkpt lat="45.59844" lon="5.7322">
        <ele>599</ele>
        <time>2019-10-27T12:58:18.000Z</time>
      </trkpt>
      <trkpt lat="45.59846" lon="5.73221">
        <ele>599</ele>
        <time>2019-10-27T12:58:19.000Z</time>
      </trkpt>
      <trkpt lat="45.59847" lon="5.73222">
        <ele>599</ele>
        <time>2019-10-27T12:58:20.000Z</time>
      </trkpt>
      <trkpt lat="45.59848" lon="5.73222">
        <ele>599</ele>
        <time>2019-10-27T12:58:21.000Z</time>
      </trkpt>
      <trkpt lat="45.59849" lon="5.73223">
        <ele>599</ele>
        <time>2019-10-27T12:58:22.000Z</time>
      </trkpt>
      <trkpt lat="45.59851" lon="5.73224">
        <ele>599</ele>
        <time>2019-10-27T12:58:23.000Z</time>
      </trkpt>
      <trkpt lat="45.59853" lon="5.73225">
        <ele>599</ele>
        <time>2019-10-27T12:58:24.000Z</time>
      </trkpt>
      <trkpt lat="45.59855" lon="5.73226">
        <ele>599</ele>
        <time>2019-10-27T12:58:25.000Z</time>
      </trkpt>
      <trkpt lat="45.59858" lon="5.73228">
        <ele>599</ele>
        <time>2019-10-27T12:58:26.000Z</time>
      </trkpt>
      <trkpt lat="45.59861" lon="5.7323">
        <ele>599</ele>
        <time>2019-10-27T12:58:27.000Z</time>
      </trkpt>
      <trkpt lat="45.59863" lon="5.73231">
        <ele>599</ele>
        <time>2019-10-27T12:58:28.000Z</time>
      </trkpt>
      <trkpt lat="45.59865" lon="5.73232">
        <ele>599</ele>
        <time>2019-10-27T12:58:29.000Z</time>
      </trkpt>
      <trkpt lat="45.59868" lon="5.73234">
        <ele>599</ele>
        <time>2019-10-27T12:58:30.000Z</time>
      </trkpt>
      <trkpt lat="45.59871" lon="5.73235">
        <ele>599</ele>
        <time>2019-10-27T12:58:31.000Z</time>
      </trkpt>
      <trkpt lat="45.59873" lon="5.73236">
        <ele>599</ele>
        <time>2019-10-27T12:58:32.000Z</time>
      </trkpt>
      <trkpt lat="45.59876" lon="5.73237">
        <ele>599</ele>
        <time>2019-10-27T12:58:33.000Z</time>
      </trkpt>
      <trkpt lat="45.59879" lon="5.73239">
        <ele>599</ele>
        <time>2019-10-27T12:58:34.000Z</time>
      </trkpt>
      <trkpt lat="45.5988" lon="5.7324">
        <ele>599</ele>
        <time>2019-10-27T12:58:35.000Z</time>
      </trkpt>
      <trkpt lat="45.5988" lon="5.73241">
        <ele>599</ele>
        <time>2019-10-27T12:58:36.000Z</time>
      </trkpt>
      <trkpt lat="45.5988" lon="5.73242">
        <ele>599</ele>
        <time>2019-10-27T12:58:37.000Z</time>
      </trkpt>
      <trkpt lat="45.59879" lon="5.73242">
        <ele>599</ele>
        <time>2019-10-27T12:58:38.000Z</time>
      </trkpt>
      <trkpt lat="45.59879" lon="5.73243">
        <ele>599</ele>
        <time>2019-10-27T12:58:39.000Z</time>
      </trkpt>
      <trkpt lat="45.59879" lon="5.73243">
        <ele>599.5</ele>
        <time>2019-10-27T12:58:40.000Z</time>
      </trkpt>
      <trkpt lat="45.59879" lon="5.73244">
        <ele>600</ele>
        <time>2019-10-27T12:58:41.000Z</time>
      </trkpt>
      <trkpt lat="45.59879" lon="5.73244">
        <ele>600</ele>
        <time>2019-10-27T12:58:42.000Z</time>
      </trkpt>
      <trkpt lat="45.59879" lon="5.73244">
        <ele>600</ele>
        <time>2019-10-27T12:58:43.000Z</time>
      </trkpt>
      <trkpt lat="45.59879" lon="5.73245">
        <ele>600</ele>
        <time>2019-10-27T12:58:44.000Z</time>
      </trkpt>
      <trkpt lat="45.5988" lon="5.73245">
        <ele>600</ele>
        <time>2019-10-27T12:58:45.000Z</time>
      </trkpt>
      <trkpt lat="45.5988" lon="5.73246">
        <ele>600</ele>
        <time>2019-10-27T12:58:46.000Z</time>
      </trkpt>
      <trkpt lat="45.59881" lon="5.73246">
        <ele>600</ele>
        <time>2019-10-27T12:58:47.000Z</time>
      </trkpt>
      <trkpt lat="45.59881" lon="5.73246">
        <ele>600</ele>
        <time>2019-10-27T12:58:48.000Z</time>
      </trkpt>
      <trkpt lat="45.59881" lon="5.73247">
        <ele>600</ele>
        <time>2019-10-27T12:58:49.000Z</time>
      </trkpt>
      <trkpt lat="45.59881" lon="5.73248">
        <ele>600</ele>
        <time>2019-10-27T12:58:50.000Z</time>
      </trkpt>
      <trkpt lat="45.59881" lon="5.73248">
        <ele>600</ele>
        <time>2019-10-27T12:58:51.000Z</time>
      </trkpt>
      <trkpt lat="45.59882" lon="5.73249">
        <ele>600</ele>
        <time>2019-10-27T12:58:52.000Z</time>
      </trkpt>
      <trkpt lat="45.59882" lon="5.7325">
        <ele>600</ele>
        <time>2019-10-27T12:58:53.000Z</time>
      </trkpt>
      <trkpt lat="45.59882" lon="5.7325">
        <ele>600</ele>
        <time>2019-10-27T12:58:54.000Z</time>
      </trkpt>
      <trkpt lat="45.59882" lon="5.73251">
        <ele>600</ele>
        <time>2019-10-27T12:58:55.000Z</time>
      </trkpt>
      <trkpt lat="45.59883" lon="5.73252">
        <ele>600</ele>
        <time>2019-10-27T12:58:56.000Z</time>
      </trkpt>
      <trkpt lat="45.59883" lon="5.73252">
        <ele>600</ele>
        <time>2019-10-27T12:58:57.000Z</time>
      </trkpt>
      <trkpt lat="45.59884" lon="5.73253">
        <ele>600</ele>
        <time>2019-10-27T12:58:58.000Z</time>
      </trkpt>
      <trkpt lat="45.59884" lon="5.73253">
        <ele>600</ele>
        <time>2019-10-27T12:58:59.000Z</time>
      </trkpt>
      <trkpt lat="45.59885" lon="5.73254">
        <ele>600</ele>
        <time>2019-10-27T12:59:00.000Z</time>
      </trkpt>
      <trkpt lat="45.59885" lon="5.73254">
        <ele>600</ele>
        <time>2019-10-27T12:59:01.000Z</time>
      </trkpt>
      <trkpt lat="45.59886" lon="5.73255">
        <ele>600</ele>
        <time>2019-10-27T12:59:02.000Z</time>
      </trkpt>
      <trkpt lat="45.59887" lon="5.73255">
        <ele>600</ele>
        <time>2019-10-27T12:59:03.000Z</time>
      </trkpt>
      <trkpt lat="45.59888" lon="5.73256">
        <ele>600</ele>
        <time>2019-10-27T12:59:04.000Z</time>
      </trkpt>
      <trkpt lat="45.59888" lon="5.73257">
        <ele>600</ele>
        <time>2019-10-27T12:59:05.000Z</time>
      </trkpt>
      <trkpt lat="45.59889" lon="5.73257">
        <ele>600</ele>
        <time>2019-10-27T12:59:06.000Z</time>
      </trkpt>
      <trkpt lat="45.5989" lon="5.73257">
        <ele>600</ele>
        <time>2019-10-27T12:59:07.000Z</time>
      </trkpt>
      <trkpt lat="45.59891" lon="5.73258">
        <ele>600</ele>
        <time>2019-10-27T12:59:08.000Z</time>
      </trkpt>
      <trkpt lat="45.59892" lon="5.73258">
        <ele>600</ele>
        <time>2019-10-27T12:59:09.000Z</time>
      </trkpt>
      <trkpt lat="45.59893" lon="5.73259">
        <ele>600</ele>
        <time>2019-10-27T12:59:10.000Z</time>
      </trkpt>
      <trkpt lat="45.59894" lon="5.73259">
        <ele>600</ele>
        <time>2019-10-27T12:59:11.000Z</time>
      </trkpt>
      <trkpt lat="45.59895" lon="5.7326">
        <ele>600</ele>
        <time>2019-10-27T12:59:12.000Z</time>
      </trkpt>
      <trkpt lat="45.59896" lon="5.73261">
        <ele>600</ele>
        <time>2019-10-27T12:59:13.000Z</time>
      </trkpt>
      <trkpt lat="45.59897" lon="5.73261">
        <ele>600</ele>
        <time>2019-10-27T12:59:14.000Z</time>
      </trkpt>
      <trkpt lat="45.59898" lon="5.73262">
        <ele>600</ele>
        <time>2019-10-27T12:59:15.000Z</time>
      </trkpt>
      <trkpt lat="45.59898" lon="5.73262">
        <ele>600</ele>
        <time>2019-10-27T12:59:16.000Z</time>
      </trkpt>
      <trkpt lat="45.59899" lon="5.73262">
        <ele>600</ele>
        <time>2019-10-27T12:59:17.000Z</time>
      </trkpt>
      <trkpt lat="45.59899" lon="5.73262">
        <ele>601</ele>
        <time>2019-10-27T12:59:18.000Z</time>
      </trkpt>
      <trkpt lat="45.599" lon="5.73263">
        <ele>601</ele>
        <time>2019-10-27T12:59:19.000Z</time>
      </trkpt>
      <trkpt lat="45.59901" lon="5.73263">
        <ele>601</ele>
        <time>2019-10-27T12:59:20.000Z</time>
      </trkpt>
      <trkpt lat="45.59902" lon="5.73263">
        <ele>601</ele>
        <time>2019-10-27T12:59:21.000Z</time>
      </trkpt>
      <trkpt lat="45.59904" lon="5.73264">
        <ele>601</ele>
        <time>2019-10-27T12:59:22.000Z</time>
      </trkpt>
      <trkpt lat="45.59906" lon="5.73265">
        <ele>601</ele>
        <time>2019-10-27T12:59:23.000Z</time>
      </trkpt>
      <trkpt lat="45.59909" lon="5.73266">
        <ele>601</ele>
        <time>2019-10-27T12:59:24.000Z</time>
      </trkpt>
      <trkpt lat="45.59911" lon="5.73266">
        <ele>601</ele>
        <time>2019-10-27T12:59:25.000Z</time>
      </trkpt>
      <trkpt lat="45.59911" lon="5.73267">
        <ele>601</ele>
        <time>2019-10-27T12:59:26.000Z</time>
      </trkpt>
      <trkpt lat="45.59912" lon="5.73267">
        <ele>601</ele>
        <time>2019-10-27T12:59:27.000Z</time>
      </trkpt>
      <trkpt lat="45.59912" lon="5.73267">
        <ele>601</ele>
        <time>2019-10-27T12:59:28.000Z</time>
      </trkpt>
      <trkpt lat="45.59912" lon="5.73267">
        <ele>601</ele>
        <time>2019-10-27T12:59:29.000Z</time>
      </trkpt>
      <trkpt lat="45.59912" lon="5.73267">
        <ele>601</ele>
        <time>2019-10-27T12:59:30.000Z</time>
      </trkpt>
      <trkpt lat="45.59913" lon="5.73267">
        <ele>601</ele>
        <time>2019-10-27T12:59:31.000Z</time>
      </trkpt>
      <trkpt lat="45.59915" lon="5.73268">
        <ele>601</ele>
        <time>2019-10-27T12:59:32.000Z</time>
      </trkpt>
      <trkpt lat="45.59918" lon="5.73269">
        <ele>601</ele>
        <time>2019-10-27T12:59:33.000Z</time>
      </trkpt>
      <trkpt lat="45.59921" lon="5.7327">
        <ele>601</ele>
        <time>2019-10-27T12:59:34.000Z</time>
      </trkpt>
      <trkpt lat="45.59923" lon="5.73271">
        <ele>601.5</ele>
        <time>2019-10-27T12:59:35.000Z</time>
      </trkpt>
      <trkpt lat="45.59925" lon="5.73272">
        <ele>602</ele>
        <time>2019-10-27T12:59:36.000Z</time>
      </trkpt>
      <trkpt lat="45.59926" lon="5.73273">
        <ele>602</ele>
        <time>2019-10-27T12:59:37.000Z</time>
      </trkpt>
      <trkpt lat="45.59927" lon="5.73273">
        <ele>602</ele>
        <time>2019-10-27T12:59:38.000Z</time>
      </trkpt>
      <trkpt lat="45.59928" lon="5.73274">
        <ele>602</ele>
        <time>2019-10-27T12:59:39.000Z</time>
      </trkpt>
      <trkpt lat="45.5993" lon="5.73275">
        <ele>602</ele>
        <time>2019-10-27T12:59:40.000Z</time>
      </trkpt>
      <trkpt lat="45.59931" lon="5.73275">
        <ele>602</ele>
        <time>2019-10-27T12:59:41.000Z</time>
      </trkpt>
      <trkpt lat="45.59933" lon="5.73276">
        <ele>602</ele>
        <time>2019-10-27T12:59:42.000Z</time>
      </trkpt>
      <trkpt lat="45.59935" lon="5.73277">
        <ele>602</ele>
        <time>2019-10-27T12:59:43.000Z</time>
      </trkpt>
      <trkpt lat="45.59936" lon="5.73278">
        <ele>602</ele>
        <time>2019-10-27T12:59:44.000Z</time>
      </trkpt>
      <trkpt lat="45.59938" lon="5.73278">
        <ele>602</ele>
        <time>2019-10-27T12:59:45.000Z</time>
      </trkpt>
      <trkpt lat="45.5994" lon="5.73279">
        <ele>602</ele>
        <time>2019-10-27T12:59:46.000Z</time>
      </trkpt>
      <trkpt lat="45.59941" lon="5.73279">
        <ele>602</ele>
        <time>2019-10-27T12:59:47.000Z</time>
      </trkpt>
      <trkpt lat="45.59943" lon="5.7328">
        <ele>602</ele>
        <time>2019-10-27T12:59:48.000Z</time>
      </trkpt>
      <trkpt lat="45.59944" lon="5.7328">
        <ele>602</ele>
        <time>2019-10-27T12:59:49.000Z</time>
      </trkpt>
      <trkpt lat="45.59945" lon="5.7328">
        <ele>602</ele>
        <time>2019-10-27T12:59:50.000Z</time>
      </trkpt>
      <trkpt lat="45.59947" lon="5.7328">
        <ele>602</ele>
        <time>2019-10-27T12:59:51.000Z</time>
      </trkpt>
      <trkpt lat="45.59948" lon="5.7328">
        <ele>602</ele>
        <time>2019-10-27T12:59:52.000Z</time>
      </trkpt>
      <trkpt lat="45.59949" lon="5.7328">
        <ele>602.5</ele>
        <time>2019-10-27T12:59:53.000Z</time>
      </trkpt>
      <trkpt lat="45.59951" lon="5.7328">
        <ele>603</ele>
        <time>2019-10-27T12:59:54.000Z</time>
      </trkpt>
      <trkpt lat="45.59952" lon="5.7328">
        <ele>603</ele>
        <time>2019-10-27T12:59:55.000Z</time>
      </trkpt>
      <trkpt lat="45.59954" lon="5.73281">
        <ele>603</ele>
        <time>2019-10-27T12:59:56.000Z</time>
      </trkpt>
      <trkpt lat="45.59955" lon="5.73281">
        <ele>603</ele>
        <time>2019-10-27T12:59:57.000Z</time>
      </trkpt>
      <trkpt lat="45.59956" lon="5.73281">
        <ele>603</ele>
        <time>2019-10-27T12:59:58.000Z</time>
      </trkpt>
      <trkpt lat="45.59958" lon="5.73281">
        <ele>603</ele>
        <time>2019-10-27T12:59:59.000Z</time>
      </trkpt>
      <trkpt lat="45.59959" lon="5.73282">
        <ele>603</ele>
        <time>2019-10-27T13:00:00.000Z</time>
      </trkpt>
      <trkpt lat="45.59961" lon="5.73282">
        <ele>603</ele>
        <time>2019-10-27T13:00:01.000Z</time>
      </trkpt>
      <trkpt lat="45.59963" lon="5.73282">
        <ele>603</ele>
        <time>2019-10-27T13:00:02.000Z</time>
      </trkpt>
      <trkpt lat="45.59964" lon="5.73283">
        <ele>603</ele>
        <time>2019-10-27T13:00:03.000Z</time>
      </trkpt>
      <trkpt lat="45.59965" lon="5.73284">
        <ele>603</ele>
        <time>2019-10-27T13:00:04.000Z</time>
      </trkpt>
      <trkpt lat="45.59967" lon="5.73284">
        <ele>603</ele>
        <time>2019-10-27T13:00:05.000Z</time>
      </trkpt>
      <trkpt lat="45.59968" lon="5.73285">
        <ele>603</ele>
        <time>2019-10-27T13:00:06.000Z</time>
      </trkpt>
      <trkpt lat="45.59969" lon="5.73285">
        <ele>603</ele>
        <time>2019-10-27T13:00:07.000Z</time>
      </trkpt>
      <trkpt lat="45.59971" lon="5.73286">
        <ele>603</ele>
        <time>2019-10-27T13:00:08.000Z</time>
      </trkpt>
      <trkpt lat="45.59972" lon="5.73287">
        <ele>603.3</ele>
        <time>2019-10-27T13:00:09.000Z</time>
      </trkpt>
      <trkpt lat="45.59973" lon="5.73288">
        <ele>603.7</ele>
        <time>2019-10-27T13:00:10.000Z</time>
      </trkpt>
      <trkpt lat="45.59974" lon="5.73288">
        <ele>604</ele>
        <time>2019-10-27T13:00:11.000Z</time>
      </trkpt>
      <trkpt lat="45.59975" lon="5.73289">
        <ele>604</ele>
        <time>2019-10-27T13:00:12.000Z</time>
      </trkpt>
      <trkpt lat="45.59976" lon="5.7329">
        <ele>604</ele>
        <time>2019-10-27T13:00:13.000Z</time>
      </trkpt>
      <trkpt lat="45.59978" lon="5.73291">
        <ele>604</ele>
        <time>2019-10-27T13:00:14.000Z</time>
      </trkpt>
      <trkpt lat="45.59979" lon="5.73292">
        <ele>604</ele>
        <time>2019-10-27T13:00:15.000Z</time>
      </trkpt>
      <trkpt lat="45.5998" lon="5.73292">
        <ele>604</ele>
        <time>2019-10-27T13:00:16.000Z</time>
      </trkpt>
      <trkpt lat="45.59981" lon="5.73293">
        <ele>604</ele>
        <time>2019-10-27T13:00:17.000Z</time>
      </trkpt>
      <trkpt lat="45.59982" lon="5.73294">
        <ele>604</ele>
        <time>2019-10-27T13:00:18.000Z</time>
      </trkpt>
      <trkpt lat="45.59983" lon="5.73295">
        <ele>604</ele>
        <time>2019-10-27T13:00:19.000Z</time>
      </trkpt>
      <trkpt lat="45.59984" lon="5.73295">
        <ele>604</ele>
        <time>2019-10-27T13:00:20.000Z</time>
      </trkpt>
      <trkpt lat="45.59985" lon="5.73296">
        <ele>604</ele>
        <time>2019-10-27T13:00:21.000Z</time>
      </trkpt>
      <trkpt lat="45.59986" lon="5.73297">
        <ele>604</ele>
        <time>2019-10-27T13:00:22.000Z</time>
      </trkpt>
      <trkpt lat="45.59987" lon="5.73297">
        <ele>604</ele>
        <time>2019-10-27T13:00:23.000Z</time>
      </trkpt>
      <trkpt lat="45.59988" lon="5.73298">
        <ele>604</ele>
        <time>2019-10-27T13:00:24.000Z</time>
      </trkpt>
      <trkpt lat="45.59989" lon="5.73299">
        <ele>604</ele>
        <time>2019-10-27T13:00:25.000Z</time>
      </trkpt>
      <trkpt lat="45.5999" lon="5.73299">
        <ele>605</ele>
        <time>2019-10-27T13:00:26.000Z</time>
      </trkpt>
      <trkpt lat="45.59991" lon="5.733">
        <ele>605</ele>
        <time>2019-10-27T13:00:27.000Z</time>
      </trkpt>
      <trkpt lat="45.59992" lon="5.733">
        <ele>605</ele>
        <time>2019-10-27T13:00:28.000Z</time>
      </trkpt>
      <trkpt lat="45.59993" lon="5.73301">
        <ele>605</ele>
        <time>2019-10-27T13:00:29.000Z</time>
      </trkpt>
      <trkpt lat="45.59994" lon="5.73301">
        <ele>605</ele>
        <time>2019-10-27T13:00:30.000Z</time>
      </trkpt>
      <trkpt lat="45.59995" lon="5.73302">
        <ele>605</ele>
        <time>2019-10-27T13:00:31.000Z</time>
      </trkpt>
      <trkpt lat="45.59996" lon="5.73303">
        <ele>605</ele>
        <time>2019-10-27T13:00:32.000Z</time>
      </trkpt>
      <trkpt lat="45.59996" lon="5.73303">
        <ele>605</ele>
        <time>2019-10-27T13:00:33.000Z</time>
      </trkpt>
      <trkpt lat="45.59997" lon="5.73304">
        <ele>605</ele>
        <time>2019-10-27T13:00:34.000Z</time>
      </trkpt>
      <trkpt lat="45.59998" lon="5.73304">
        <ele>605</ele>
        <time>2019-10-27T13:00:35.000Z</time>
      </trkpt>
      <trkpt lat="45.59999" lon="5.73305">
        <ele>605</ele>
        <time>2019-10-27T13:00:36.000Z</time>
      </trkpt>
      <trkpt lat="45.6" lon="5.73306">
        <ele>605</ele>
        <time>2019-10-27T13:00:37.000Z</time>
      </trkpt>
      <trkpt lat="45.60001" lon="5.73307">
        <ele>606</ele>
        <time>2019-10-27T13:00:38.000Z</time>
      </trkpt>
      <trkpt lat="45.60002" lon="5.73307">
        <ele>606</ele>
        <time>2019-10-27T13:00:39.000Z</time>
      </trkpt>
      <trkpt lat="45.60004" lon="5.73308">
        <ele>606</ele>
        <time>2019-10-27T13:00:40.000Z</time>
      </trkpt>
      <trkpt lat="45.60005" lon="5.73309">
        <ele>606</ele>
        <time>2019-10-27T13:00:41.000Z</time>
      </trkpt>
      <trkpt lat="45.60007" lon="5.7331">
        <ele>606</ele>
        <time>2019-10-27T13:00:42.000Z</time>
      </trkpt>
      <trkpt lat="45.60008" lon="5.73311">
        <ele>606</ele>
        <time>2019-10-27T13:00:43.000Z</time>
      </trkpt>
      <trkpt lat="45.6001" lon="5.73312">
        <ele>606</ele>
        <time>2019-10-27T13:00:44.000Z</time>
      </trkpt>
      <trkpt lat="45.60011" lon="5.73313">
        <ele>606</ele>
        <time>2019-10-27T13:00:45.000Z</time>
      </trkpt>
      <trkpt lat="45.60013" lon="5.73314">
        <ele>606</ele>
        <time>2019-10-27T13:00:46.000Z</time>
      </trkpt>
      <trkpt lat="45.60014" lon="5.73314">
        <ele>606</ele>
        <time>2019-10-27T13:00:47.000Z</time>
      </trkpt>
      <trkpt lat="45.60016" lon="5.73315">
        <ele>606</ele>
        <time>2019-10-27T13:00:48.000Z</time>
      </trkpt>
      <trkpt lat="45.60017" lon="5.73316">
        <ele>606</ele>
        <time>2019-10-27T13:00:49.000Z</time>
      </trkpt>
      <trkpt lat="45.60018" lon="5.73316">
        <ele>606</ele>
        <time>2019-10-27T13:00:50.000Z</time>
      </trkpt>
      <trkpt lat="45.6002" lon="5.73317">
        <ele>606</ele>
        <time>2019-10-27T13:00:51.000Z</time>
      </trkpt>
      <trkpt lat="45.60021" lon="5.73318">
        <ele>606</ele>
        <time>2019-10-27T13:00:52.000Z</time>
      </trkpt>
      <trkpt lat="45.60023" lon="5.73318">
        <ele>606</ele>
        <time>2019-10-27T13:00:53.000Z</time>
      </trkpt>
      <trkpt lat="45.60024" lon="5.73319">
        <ele>606</ele>
        <time>2019-10-27T13:00:54.000Z</time>
      </trkpt>
      <trkpt lat="45.60025" lon="5.73319">
        <ele>606</ele>
        <time>2019-10-27T13:00:55.000Z</time>
      </trkpt>
      <trkpt lat="45.60026" lon="5.7332">
        <ele>607</ele>
        <time>2019-10-27T13:00:56.000Z</time>
      </trkpt>
      <trkpt lat="45.60028" lon="5.7332">
        <ele>607</ele>
        <time>2019-10-27T13:00:57.000Z</time>
      </trkpt>
      <trkpt lat="45.60029" lon="5.73321">
        <ele>607</ele>
        <time>2019-10-27T13:00:58.000Z</time>
      </trkpt>
      <trkpt lat="45.6003" lon="5.73321">
        <ele>607</ele>
        <time>2019-10-27T13:00:59.000Z</time>
      </trkpt>
      <trkpt lat="45.60031" lon="5.73321">
        <ele>607</ele>
        <time>2019-10-27T13:01:00.000Z</time>
      </trkpt>
      <trkpt lat="45.60032" lon="5.73322">
        <ele>607</ele>
        <time>2019-10-27T13:01:01.000Z</time>
      </trkpt>
      <trkpt lat="45.60033" lon="5.73322">
        <ele>607</ele>
        <time>2019-10-27T13:01:02.000Z</time>
      </trkpt>
      <trkpt lat="45.60034" lon="5.73323">
        <ele>607</ele>
        <time>2019-10-27T13:01:03.000Z</time>
      </trkpt>
      <trkpt lat="45.60036" lon="5.73323">
        <ele>607</ele>
        <time>2019-10-27T13:01:04.000Z</time>
      </trkpt>
      <trkpt lat="45.60037" lon="5.73324">
        <ele>607</ele>
        <time>2019-10-27T13:01:05.000Z</time>
      </trkpt>
      <trkpt lat="45.60038" lon="5.73324">
        <ele>607</ele>
        <time>2019-10-27T13:01:06.000Z</time>
      </trkpt>
      <trkpt lat="45.60038" lon="5.73325">
        <ele>607</ele>
        <time>2019-10-27T13:01:07.000Z</time>
      </trkpt>
      <trkpt lat="45.60039" lon="5.73326">
        <ele>607</ele>
        <time>2019-10-27T13:01:08.000Z</time>
      </trkpt>
      <trkpt lat="45.6004" lon="5.73327">
        <ele>607</ele>
        <time>2019-10-27T13:01:09.000Z</time>
      </trkpt>
      <trkpt lat="45.60041" lon="5.73328">
        <ele>607</ele>
        <time>2019-10-27T13:01:10.000Z</time>
      </trkpt>
      <trkpt lat="45.60042" lon="5.7333">
        <ele>607</ele>
        <time>2019-10-27T13:01:11.000Z</time>
      </trkpt>
      <trkpt lat="45.60043" lon="5.73331">
        <ele>608</ele>
        <time>2019-10-27T13:01:12.000Z</time>
      </trkpt>
      <trkpt lat="45.60044" lon="5.73333">
        <ele>608</ele>
        <time>2019-10-27T13:01:13.000Z</time>
      </trkpt>
      <trkpt lat="45.60045" lon="5.73335">
        <ele>608</ele>
        <time>2019-10-27T13:01:14.000Z</time>
      </trkpt>
      <trkpt lat="45.60046" lon="5.73336">
        <ele>608</ele>
        <time>2019-10-27T13:01:15.000Z</time>
      </trkpt>
      <trkpt lat="45.60047" lon="5.73337">
        <ele>607.5</ele>
        <time>2019-10-27T13:01:16.000Z</time>
      </trkpt>
      <trkpt lat="45.60048" lon="5.73339">
        <ele>607</ele>
        <time>2019-10-27T13:01:17.000Z</time>
      </trkpt>
      <trkpt lat="45.60049" lon="5.7334">
        <ele>607</ele>
        <time>2019-10-27T13:01:18.000Z</time>
      </trkpt>
      <trkpt lat="45.6005" lon="5.73342">
        <ele>607</ele>
        <time>2019-10-27T13:01:19.000Z</time>
      </trkpt>
      <trkpt lat="45.60051" lon="5.73343">
        <ele>607</ele>
        <time>2019-10-27T13:01:20.000Z</time>
      </trkpt>
      <trkpt lat="45.60051" lon="5.73345">
        <ele>607</ele>
        <time>2019-10-27T13:01:21.000Z</time>
      </trkpt>
      <trkpt lat="45.60052" lon="5.73346">
        <ele>607</ele>
        <time>2019-10-27T13:01:22.000Z</time>
      </trkpt>
      <trkpt lat="45.60053" lon="5.73348">
        <ele>607</ele>
        <time>2019-10-27T13:01:23.000Z</time>
      </trkpt>
      <trkpt lat="45.60054" lon="5.7335">
        <ele>607</ele>
        <time>2019-10-27T13:01:24.000Z</time>
      </trkpt>
      <trkpt lat="45.60055" lon="5.73352">
        <ele>607</ele>
        <time>2019-10-27T13:01:25.000Z</time>
      </trkpt>
      <trkpt lat="45.60056" lon="5.73353">
        <ele>606.5</ele>
        <time>2019-10-27T13:01:26.000Z</time>
      </trkpt>
      <trkpt lat="45.60056" lon="5.73355">
        <ele>606</ele>
        <time>2019-10-27T13:01:27.000Z</time>
      </trkpt>
      <trkpt lat="45.60057" lon="5.73357">
        <ele>606</ele>
        <time>2019-10-27T13:01:28.000Z</time>
      </trkpt>
      <trkpt lat="45.60057" lon="5.73359">
        <ele>606</ele>
        <time>2019-10-27T13:01:29.000Z</time>
      </trkpt>
      <trkpt lat="45.60058" lon="5.7336">
        <ele>606</ele>
        <time>2019-10-27T13:01:30.000Z</time>
      </trkpt>
      <trkpt lat="45.60058" lon="5.73362">
        <ele>606</ele>
        <time>2019-10-27T13:01:31.000Z</time>
      </trkpt>
      <trkpt lat="45.60058" lon="5.73364">
        <ele>606</ele>
        <time>2019-10-27T13:01:32.000Z</time>
      </trkpt>
      <trkpt lat="45.60058" lon="5.73365">
        <ele>606</ele>
        <time>2019-10-27T13:01:33.000Z</time>
      </trkpt>
      <trkpt lat="45.60058" lon="5.73367">
        <ele>606</ele>
        <time>2019-10-27T13:01:34.000Z</time>
      </trkpt>
      <trkpt lat="45.60058" lon="5.73368">
        <ele>605.7</ele>
        <time>2019-10-27T13:01:35.000Z</time>
      </trkpt>
      <trkpt lat="45.60058" lon="5.7337">
        <ele>605.3</ele>
        <time>2019-10-27T13:01:36.000Z</time>
      </trkpt>
      <trkpt lat="45.60058" lon="5.73372">
        <ele>605</ele>
        <time>2019-10-27T13:01:37.000Z</time>
      </trkpt>
      <trkpt lat="45.60058" lon="5.73374">
        <ele>605</ele>
        <time>2019-10-27T13:01:38.000Z</time>
      </trkpt>
      <trkpt lat="45.60058" lon="5.73376">
        <ele>605</ele>
        <time>2019-10-27T13:01:39.000Z</time>
      </trkpt>
      <trkpt lat="45.60059" lon="5.73378">
        <ele>605</ele>
        <time>2019-10-27T13:01:40.000Z</time>
      </trkpt>
      <trkpt lat="45.6006" lon="5.7338">
        <ele>605</ele>
        <time>2019-10-27T13:01:41.000Z</time>
      </trkpt>
      <trkpt lat="45.60061" lon="5.73382">
        <ele>605</ele>
        <time>2019-10-27T13:01:42.000Z</time>
      </trkpt>
      <trkpt lat="45.60061" lon="5.73384">
        <ele>605</ele>
        <time>2019-10-27T13:01:43.000Z</time>
      </trkpt>
      <trkpt lat="45.60061" lon="5.73386">
        <ele>604</ele>
        <time>2019-10-27T13:01:44.000Z</time>
      </trkpt>
      <trkpt lat="45.6006" lon="5.73387">
        <ele>604</ele>
        <time>2019-10-27T13:01:45.000Z</time>
      </trkpt>
      <trkpt lat="45.60059" lon="5.73389">
        <ele>604</ele>
        <time>2019-10-27T13:01:46.000Z</time>
      </trkpt>
      <trkpt lat="45.60059" lon="5.7339">
        <ele>604</ele>
        <time>2019-10-27T13:01:47.000Z</time>
      </trkpt>
      <trkpt lat="45.60058" lon="5.73391">
        <ele>604</ele>
        <time>2019-10-27T13:01:48.000Z</time>
      </trkpt>
      <trkpt lat="45.60058" lon="5.73392">
        <ele>604</ele>
        <time>2019-10-27T13:01:49.000Z</time>
      </trkpt>
      <trkpt lat="45.60057" lon="5.73393">
        <ele>604</ele>
        <time>2019-10-27T13:01:50.000Z</time>
      </trkpt>
      <trkpt lat="45.60057" lon="5.73394">
        <ele>604</ele>
        <time>2019-10-27T13:01:51.000Z</time>
      </trkpt>
      <trkpt lat="45.60056" lon="5.73395">
        <ele>604</ele>
        <time>2019-10-27T13:01:52.000Z</time>
      </trkpt>
      <trkpt lat="45.60056" lon="5.73396">
        <ele>604</ele>
        <time>2019-10-27T13:01:53.000Z</time>
      </trkpt>
      <trkpt lat="45.60055" lon="5.73397">
        <ele>604</ele>
        <time>2019-10-27T13:01:54.000Z</time>
      </trkpt>
      <trkpt lat="45.60055" lon="5.73399">
        <ele>604</ele>
        <time>2019-10-27T13:01:55.000Z</time>
      </trkpt>
      <trkpt lat="45.60054" lon="5.734">
        <ele>604</ele>
        <time>2019-10-27T13:01:56.000Z</time>
      </trkpt>
      <trkpt lat="45.60053" lon="5.73402">
        <ele>603.7</ele>
        <time>2019-10-27T13:01:57.000Z</time>
      </trkpt>
      <trkpt lat="45.60052" lon="5.73403">
        <ele>603.3</ele>
        <time>2019-10-27T13:01:58.000Z</time>
      </trkpt>
      <trkpt lat="45.60051" lon="5.73405">
        <ele>603</ele>
        <time>2019-10-27T13:01:59.000Z</time>
      </trkpt>
      <trkpt lat="45.60051" lon="5.73407">
        <ele>603</ele>
        <time>2019-10-27T13:02:00.000Z</time>
      </trkpt>
      <trkpt lat="45.60051" lon="5.73408">
        <ele>603</ele>
        <time>2019-10-27T13:02:01.000Z</time>
      </trkpt>
      <trkpt lat="45.60051" lon="5.73409">
        <ele>603</ele>
        <time>2019-10-27T13:02:02.000Z</time>
      </trkpt>
      <trkpt lat="45.60051" lon="5.73411">
        <ele>603</ele>
        <time>2019-10-27T13:02:03.000Z</time>
      </trkpt>
      <trkpt lat="45.6005" lon="5.73412">
        <ele>603</ele>
        <time>2019-10-27T13:02:04.000Z</time>
      </trkpt>
      <trkpt lat="45.60049" lon="5.73413">
        <ele>603</ele>
        <time>2019-10-27T13:02:05.000Z</time>
      </trkpt>
      <trkpt lat="45.60049" lon="5.73414">
        <ele>603</ele>
        <time>2019-10-27T13:02:06.000Z</time>
      </trkpt>
      <trkpt lat="45.60048" lon="5.73415">
        <ele>603</ele>
        <time>2019-10-27T13:02:07.000Z</time>
      </trkpt>
      <trkpt lat="45.60047" lon="5.73416">
        <ele>603</ele>
        <time>2019-10-27T13:02:08.000Z</time>
      </trkpt>
      <trkpt lat="45.60046" lon="5.73417">
        <ele>603</ele>
        <time>2019-10-27T13:02:09.000Z</time>
      </trkpt>
      <trkpt lat="45.60045" lon="5.73417">
        <ele>603</ele>
        <time>2019-10-27T13:02:10.000Z</time>
      </trkpt>
      <trkpt lat="45.60044" lon="5.73418">
        <ele>603</ele>
        <time>2019-10-27T13:02:11.000Z</time>
      </trkpt>
      <trkpt lat="45.60043" lon="5.73419">
        <ele>603</ele>
        <time>2019-10-27T13:02:12.000Z</time>
      </trkpt>
      <trkpt lat="45.60042" lon="5.7342">
        <ele>603</ele>
        <time>2019-10-27T13:02:13.000Z</time>
      </trkpt>
      <trkpt lat="45.6004" lon="5.73421">
        <ele>603</ele>
        <time>2019-10-27T13:02:14.000Z</time>
      </trkpt>
      <trkpt lat="45.60039" lon="5.73423">
        <ele>603</ele>
        <time>2019-10-27T13:02:15.000Z</time>
      </trkpt>
      <trkpt lat="45.60038" lon="5.73424">
        <ele>603</ele>
        <time>2019-10-27T13:02:16.000Z</time>
      </trkpt>
      <trkpt lat="45.60037" lon="5.73425">
        <ele>603</ele>
        <time>2019-10-27T13:02:17.000Z</time>
      </trkpt>
      <trkpt lat="45.60037" lon="5.73427">
        <ele>603</ele>
        <time>2019-10-27T13:02:18.000Z</time>
      </trkpt>
      <trkpt lat="45.60036" lon="5.73428">
        <ele>603</ele>
        <time>2019-10-27T13:02:19.000Z</time>
      </trkpt>
      <trkpt lat="45.60035" lon="5.7343">
        <ele>603</ele>
        <time>2019-10-27T13:02:20.000Z</time>
      </trkpt>
      <trkpt lat="45.60034" lon="5.73431">
        <ele>602.7</ele>
        <time>2019-10-27T13:02:21.000Z</time>
      </trkpt>
      <trkpt lat="45.60033" lon="5.73433">
        <ele>602.3</ele>
        <time>2019-10-27T13:02:22.000Z</time>
      </trkpt>
      <trkpt lat="45.60033" lon="5.73434">
        <ele>602</ele>
        <time>2019-10-27T13:02:23.000Z</time>
      </trkpt>
      <trkpt lat="45.60032" lon="5.73436">
        <ele>602</ele>
        <time>2019-10-27T13:02:24.000Z</time>
      </trkpt>
      <trkpt lat="45.60031" lon="5.73438">
        <ele>602</ele>
        <time>2019-10-27T13:02:25.000Z</time>
      </trkpt>
      <trkpt lat="45.60031" lon="5.73439">
        <ele>602</ele>
        <time>2019-10-27T13:02:26.000Z</time>
      </trkpt>
      <trkpt lat="45.6003" lon="5.73441">
        <ele>602</ele>
        <time>2019-10-27T13:02:27.000Z</time>
      </trkpt>
      <trkpt lat="45.6003" lon="5.73442">
        <ele>602</ele>
        <time>2019-10-27T13:02:28.000Z</time>
      </trkpt>
      <trkpt lat="45.6003" lon="5.73444">
        <ele>602</ele>
        <time>2019-10-27T13:02:29.000Z</time>
      </trkpt>
      <trkpt lat="45.60029" lon="5.73446">
        <ele>602</ele>
        <time>2019-10-27T13:02:30.000Z</time>
      </trkpt>
      <trkpt lat="45.60029" lon="5.73447">
        <ele>602</ele>
        <time>2019-10-27T13:02:31.000Z</time>
      </trkpt>
      <trkpt lat="45.60028" lon="5.73449">
        <ele>602</ele>
        <time>2019-10-27T13:02:32.000Z</time>
      </trkpt>
      <trkpt lat="45.60028" lon="5.7345">
        <ele>602</ele>
        <time>2019-10-27T13:02:33.000Z</time>
      </trkpt>
      <trkpt lat="45.60028" lon="5.73452">
        <ele>602</ele>
        <time>2019-10-27T13:02:34.000Z</time>
      </trkpt>
      <trkpt lat="45.60027" lon="5.73453">
        <ele>602</ele>
        <time>2019-10-27T13:02:35.000Z</time>
      </trkpt>
      <trkpt lat="45.60027" lon="5.73455">
        <ele>602</ele>
        <time>2019-10-27T13:02:36.000Z</time>
      </trkpt>
      <trkpt lat="45.60027" lon="5.73456">
        <ele>602</ele>
        <time>2019-10-27T13:02:37.000Z</time>
      </trkpt>
      <trkpt lat="45.60026" lon="5.73457">
        <ele>602</ele>
        <time>2019-10-27T13:02:38.000Z</time>
      </trkpt>
      <trkpt lat="45.60026" lon="5.73459">
        <ele>602</ele>
        <time>2019-10-27T13:02:39.000Z</time>
      </trkpt>
      <trkpt lat="45.60025" lon="5.7346">
        <ele>602</ele>
        <time>2019-10-27T13:02:40.000Z</time>
      </trkpt>
      <trkpt lat="45.60025" lon="5.73461">
        <ele>602</ele>
        <time>2019-10-27T13:02:41.000Z</time>
      </trkpt>
      <trkpt lat="45.60025" lon="5.73463">
        <ele>602</ele>
        <time>2019-10-27T13:02:42.000Z</time>
      </trkpt>
      <trkpt lat="45.60024" lon="5.73464">
        <ele>602</ele>
        <time>2019-10-27T13:02:43.000Z</time>
      </trkpt>
      <trkpt lat="45.60024" lon="5.73465">
        <ele>602</ele>
        <time>2019-10-27T13:02:44.000Z</time>
      </trkpt>
      <trkpt lat="45.60024" lon="5.73467">
        <ele>602</ele>
        <time>2019-10-27T13:02:45.000Z</time>
      </trkpt>
      <trkpt lat="45.60023" lon="5.73468">
        <ele>602</ele>
        <time>2019-10-27T13:02:46.000Z</time>
      </trkpt>
      <trkpt lat="45.60023" lon="5.7347">
        <ele>602</ele>
        <time>2019-10-27T13:02:47.000Z</time>
      </trkpt>
      <trkpt lat="45.60023" lon="5.73471">
        <ele>602</ele>
        <time>2019-10-27T13:02:48.000Z</time>
      </trkpt>
      <trkpt lat="45.60023" lon="5.73473">
        <ele>602</ele>
        <time>2019-10-27T13:02:49.000Z</time>
      </trkpt>
      <trkpt lat="45.60022" lon="5.73474">
        <ele>602</ele>
        <time>2019-10-27T13:02:50.000Z</time>
      </trkpt>
      <trkpt lat="45.60022" lon="5.73476">
        <ele>602</ele>
        <time>2019-10-27T13:02:51.000Z</time>
      </trkpt>
      <trkpt lat="45.60022" lon="5.73478">
        <ele>602</ele>
        <time>2019-10-27T13:02:52.000Z</time>
      </trkpt>
      <trkpt lat="45.60022" lon="5.73479">
        <ele>602</ele>
        <time>2019-10-27T13:02:53.000Z</time>
      </trkpt>
      <trkpt lat="45.60022" lon="5.73481">
        <ele>602</ele>
        <time>2019-10-27T13:02:54.000Z</time>
      </trkpt>
      <trkpt lat="45.60022" lon="5.73483">
        <ele>602</ele>
        <time>2019-10-27T13:02:55.000Z</time>
      </trkpt>
      <trkpt lat="45.60022" lon="5.73484">
        <ele>602</ele>
        <time>2019-10-27T13:02:56.000Z</time>
      </trkpt>
      <trkpt lat="45.60022" lon="5.73486">
        <ele>602</ele>
        <time>2019-10-27T13:02:57.000Z</time>
      </trkpt>
      <trkpt lat="45.60021" lon="5.73487">
        <ele>602</ele>
        <time>2019-10-27T13:02:58.000Z</time>
      </trkpt>
      <trkpt lat="45.60021" lon="5.73489">
        <ele>602</ele>
        <time>2019-10-27T13:02:59.000Z</time>
      </trkpt>
      <trkpt lat="45.60021" lon="5.7349">
        <ele>602</ele>
        <time>2019-10-27T13:03:00.000Z</time>
      </trkpt>
      <trkpt lat="45.6002" lon="5.73492">
        <ele>602</ele>
        <time>2019-10-27T13:03:01.000Z</time>
      </trkpt>
      <trkpt lat="45.6002" lon="5.73493">
        <ele>602</ele>
        <time>2019-10-27T13:03:02.000Z</time>
      </trkpt>
      <trkpt lat="45.6002" lon="5.73495">
        <ele>602</ele>
        <time>2019-10-27T13:03:03.000Z</time>
      </trkpt>
      <trkpt lat="45.60019" lon="5.73496">
        <ele>602</ele>
        <time>2019-10-27T13:03:04.000Z</time>
      </trkpt>
      <trkpt lat="45.60019" lon="5.73497">
        <ele>602</ele>
        <time>2019-10-27T13:03:05.000Z</time>
      </trkpt>
      <trkpt lat="45.60018" lon="5.73498">
        <ele>602</ele>
        <time>2019-10-27T13:03:06.000Z</time>
      </trkpt>
      <trkpt lat="45.60017" lon="5.73499">
        <ele>602</ele>
        <time>2019-10-27T13:03:07.000Z</time>
      </trkpt>
      <trkpt lat="45.60017" lon="5.735">
        <ele>601</ele>
        <time>2019-10-27T13:03:08.000Z</time>
      </trkpt>
      <trkpt lat="45.60016" lon="5.73501">
        <ele>601</ele>
        <time>2019-10-27T13:03:09.000Z</time>
      </trkpt>
      <trkpt lat="45.60015" lon="5.73502">
        <ele>601</ele>
        <time>2019-10-27T13:03:10.000Z</time>
      </trkpt>
      <trkpt lat="45.60014" lon="5.73503">
        <ele>601</ele>
        <time>2019-10-27T13:03:11.000Z</time>
      </trkpt>
      <trkpt lat="45.60014" lon="5.73504">
        <ele>601</ele>
        <time>2019-10-27T13:03:12.000Z</time>
      </trkpt>
      <trkpt lat="45.60013" lon="5.73504">
        <ele>601</ele>
        <time>2019-10-27T13:03:13.000Z</time>
      </trkpt>
      <trkpt lat="45.60012" lon="5.73505">
        <ele>601</ele>
        <time>2019-10-27T13:03:14.000Z</time>
      </trkpt>
      <trkpt lat="45.60011" lon="5.73505">
        <ele>601</ele>
        <time>2019-10-27T13:03:15.000Z</time>
      </trkpt>
      <trkpt lat="45.6001" lon="5.73505">
        <ele>601</ele>
        <time>2019-10-27T13:03:16.000Z</time>
      </trkpt>
      <trkpt lat="45.60009" lon="5.73506">
        <ele>601</ele>
        <time>2019-10-27T13:03:17.000Z</time>
      </trkpt>
      <trkpt lat="45.60008" lon="5.73506">
        <ele>601</ele>
        <time>2019-10-27T13:03:18.000Z</time>
      </trkpt>
      <trkpt lat="45.60007" lon="5.73506">
        <ele>600.7</ele>
        <time>2019-10-27T13:03:19.000Z</time>
      </trkpt>
      <trkpt lat="45.60007" lon="5.73506">
        <ele>600.3</ele>
        <time>2019-10-27T13:03:20.000Z</time>
      </trkpt>
      <trkpt lat="45.60006" lon="5.73506">
        <ele>600</ele>
        <time>2019-10-27T13:03:21.000Z</time>
      </trkpt>
      <trkpt lat="45.60006" lon="5.73506">
        <ele>600</ele>
        <time>2019-10-27T13:03:22.000Z</time>
      </trkpt>
      <trkpt lat="45.60005" lon="5.73507">
        <ele>600</ele>
        <time>2019-10-27T13:03:23.000Z</time>
      </trkpt>
      <trkpt lat="45.60005" lon="5.73507">
        <ele>600</ele>
        <time>2019-10-27T13:03:24.000Z</time>
      </trkpt>
      <trkpt lat="45.60004" lon="5.73507">
        <ele>600</ele>
        <time>2019-10-27T13:03:25.000Z</time>
      </trkpt>
      <trkpt lat="45.60004" lon="5.73508">
        <ele>600</ele>
        <time>2019-10-27T13:03:26.000Z</time>
      </trkpt>
      <trkpt lat="45.60003" lon="5.73509">
        <ele>600</ele>
        <time>2019-10-27T13:03:27.000Z</time>
      </trkpt>
      <trkpt lat="45.60003" lon="5.7351">
        <ele>600</ele>
        <time>2019-10-27T13:03:28.000Z</time>
      </trkpt>
      <trkpt lat="45.60002" lon="5.73512">
        <ele>600</ele>
        <time>2019-10-27T13:03:29.000Z</time>
      </trkpt>
      <trkpt lat="45.60002" lon="5.73513">
        <ele>600</ele>
        <time>2019-10-27T13:03:30.000Z</time>
      </trkpt>
      <trkpt lat="45.60001" lon="5.73515">
        <ele>600</ele>
        <time>2019-10-27T13:03:31.000Z</time>
      </trkpt>
      <trkpt lat="45.6" lon="5.73517">
        <ele>600</ele>
        <time>2019-10-27T13:03:32.000Z</time>
      </trkpt>
      <trkpt lat="45.6" lon="5.73518">
        <ele>600</ele>
        <time>2019-10-27T13:03:33.000Z</time>
      </trkpt>
      <trkpt lat="45.59999" lon="5.7352">
        <ele>600</ele>
        <time>2019-10-27T13:03:34.000Z</time>
      </trkpt>
      <trkpt lat="45.59999" lon="5.73521">
        <ele>600</ele>
        <time>2019-10-27T13:03:35.000Z</time>
      </trkpt>
      <trkpt lat="45.59998" lon="5.73523">
        <ele>600</ele>
        <time>2019-10-27T13:03:36.000Z</time>
      </trkpt>
      <trkpt lat="45.59998" lon="5.73524">
        <ele>600</ele>
        <time>2019-10-27T13:03:37.000Z</time>
      </trkpt>
      <trkpt lat="45.59998" lon="5.73526">
        <ele>600</ele>
        <time>2019-10-27T13:03:38.000Z</time>
      </trkpt>
      <trkpt lat="45.59997" lon="5.73527">
        <ele>600</ele>
        <time>2019-10-27T13:03:39.000Z</time>
      </trkpt>
      <trkpt lat="45.59997" lon="5.73529">
        <ele>600</ele>
        <time>2019-10-27T13:03:40.000Z</time>
      </trkpt>
      <trkpt lat="45.59996" lon="5.7353">
        <ele>600</ele>
        <time>2019-10-27T13:03:41.000Z</time>
      </trkpt>
      <trkpt lat="45.59996" lon="5.73532">
        <ele>600</ele>
        <time>2019-10-27T13:03:42.000Z</time>
      </trkpt>
      <trkpt lat="45.59996" lon="5.73533">
        <ele>600</ele>
        <time>2019-10-27T13:03:43.000Z</time>
      </trkpt>
      <trkpt lat="45.59995" lon="5.73535">
        <ele>600</ele>
        <time>2019-10-27T13:03:44.000Z</time>
      </trkpt>
      <trkpt lat="45.59995" lon="5.73536">
        <ele>600</ele>
        <time>2019-10-27T13:03:45.000Z</time>
      </trkpt>
      <trkpt lat="45.59995" lon="5.73538">
        <ele>600</ele>
        <time>2019-10-27T13:03:46.000Z</time>
      </trkpt>
      <trkpt lat="45.59994" lon="5.73539">
        <ele>600</ele>
        <time>2019-10-27T13:03:47.000Z</time>
      </trkpt>
      <trkpt lat="45.59994" lon="5.7354">
        <ele>600</ele>
        <time>2019-10-27T13:03:48.000Z</time>
      </trkpt>
      <trkpt lat="45.59994" lon="5.73542">
        <ele>600</ele>
        <time>2019-10-27T13:03:49.000Z</time>
      </trkpt>
      <trkpt lat="45.59993" lon="5.73543">
        <ele>600</ele>
        <time>2019-10-27T13:03:50.000Z</time>
      </trkpt>
      <trkpt lat="45.59993" lon="5.73544">
        <ele>600</ele>
        <time>2019-10-27T13:03:51.000Z</time>
      </trkpt>
      <trkpt lat="45.59993" lon="5.73545">
        <ele>600</ele>
        <time>2019-10-27T13:03:52.000Z</time>
      </trkpt>
      <trkpt lat="45.59992" lon="5.73547">
        <ele>600</ele>
        <time>2019-10-27T13:03:53.000Z</time>
      </trkpt>
      <trkpt lat="45.59992" lon="5.73548">
        <ele>600</ele>
        <time>2019-10-27T13:03:54.000Z</time>
      </trkpt>
      <trkpt lat="45.59991" lon="5.73549">
        <ele>600</ele>
        <time>2019-10-27T13:03:55.000Z</time>
      </trkpt>
      <trkpt lat="45.59991" lon="5.7355">
        <ele>600</ele>
        <time>2019-10-27T13:03:56.000Z</time>
      </trkpt>
      <trkpt lat="45.5999" lon="5.73551">
        <ele>600</ele>
        <time>2019-10-27T13:03:57.000Z</time>
      </trkpt>
      <trkpt lat="45.59989" lon="5.73552">
        <ele>600</ele>
        <time>2019-10-27T13:03:58.000Z</time>
      </trkpt>
      <trkpt lat="45.59989" lon="5.73553">
        <ele>600</ele>
        <time>2019-10-27T13:03:59.000Z</time>
      </trkpt>
      <trkpt lat="45.59988" lon="5.73554">
        <ele>600</ele>
        <time>2019-10-27T13:04:00.000Z</time>
      </trkpt>
      <trkpt lat="45.59987" lon="5.73555">
        <ele>600</ele>
        <time>2019-10-27T13:04:01.000Z</time>
      </trkpt>
      <trkpt lat="45.59986" lon="5.73556">
        <ele>600</ele>
        <time>2019-10-27T13:04:02.000Z</time>
      </trkpt>
      <trkpt lat="45.59985" lon="5.73557">
        <ele>600</ele>
        <time>2019-10-27T13:04:03.000Z</time>
      </trkpt>
      <trkpt lat="45.59984" lon="5.73558">
        <ele>600</ele>
        <time>2019-10-27T13:04:04.000Z</time>
      </trkpt>
      <trkpt lat="45.59983" lon="5.73559">
        <ele>600</ele>
        <time>2019-10-27T13:04:05.000Z</time>
      </trkpt>
      <trkpt lat="45.59982" lon="5.7356">
        <ele>600</ele>
        <time>2019-10-27T13:04:06.000Z</time>
      </trkpt>
      <trkpt lat="45.5998" lon="5.7356">
        <ele>600</ele>
        <time>2019-10-27T13:04:07.000Z</time>
      </trkpt>
      <trkpt lat="45.59979" lon="5.73561">
        <ele>600</ele>
        <time>2019-10-27T13:04:08.000Z</time>
      </trkpt>
      <trkpt lat="45.59978" lon="5.73562">
        <ele>600</ele>
        <time>2019-10-27T13:04:09.000Z</time>
      </trkpt>
      <trkpt lat="45.59976" lon="5.73562">
        <ele>600</ele>
        <time>2019-10-27T13:04:10.000Z</time>
      </trkpt>
      <trkpt lat="45.59975" lon="5.73563">
        <ele>599.5</ele>
        <time>2019-10-27T13:04:11.000Z</time>
      </trkpt>
      <trkpt lat="45.59974" lon="5.73563">
        <ele>599</ele>
        <time>2019-10-27T13:04:12.000Z</time>
      </trkpt>
      <trkpt lat="45.59973" lon="5.73563">
        <ele>599</ele>
        <time>2019-10-27T13:04:13.000Z</time>
      </trkpt>
      <trkpt lat="45.59973" lon="5.73563">
        <ele>599</ele>
        <time>2019-10-27T13:04:14.000Z</time>
      </trkpt>
      <trkpt lat="45.59972" lon="5.73563">
        <ele>599</ele>
        <time>2019-10-27T13:04:15.000Z</time>
      </trkpt>
      <trkpt lat="45.59972" lon="5.73563">
        <ele>599</ele>
        <time>2019-10-27T13:04:16.000Z</time>
      </trkpt>
      <trkpt lat="45.59971" lon="5.73564">
        <ele>599</ele>
        <time>2019-10-27T13:04:17.000Z</time>
      </trkpt>
      <trkpt lat="45.59971" lon="5.73564">
        <ele>599</ele>
        <time>2019-10-27T13:04:18.000Z</time>
      </trkpt>
      <trkpt lat="45.5997" lon="5.73564">
        <ele>599</ele>
        <time>2019-10-27T13:04:19.000Z</time>
      </trkpt>
      <trkpt lat="45.59969" lon="5.73565">
        <ele>599</ele>
        <time>2019-10-27T13:04:20.000Z</time>
      </trkpt>
      <trkpt lat="45.59968" lon="5.73565">
        <ele>599</ele>
        <time>2019-10-27T13:04:21.000Z</time>
      </trkpt>
      <trkpt lat="45.59967" lon="5.73566">
        <ele>599</ele>
        <time>2019-10-27T13:04:22.000Z</time>
      </trkpt>
      <trkpt lat="45.59966" lon="5.73566">
        <ele>598.5</ele>
        <time>2019-10-27T13:04:23.000Z</time>
      </trkpt>
      <trkpt lat="45.59965" lon="5.73566">
        <ele>598</ele>
        <time>2019-10-27T13:04:24.000Z</time>
      </trkpt>
      <trkpt lat="45.59964" lon="5.73567">
        <ele>598</ele>
        <time>2019-10-27T13:04:25.000Z</time>
      </trkpt>
      <trkpt lat="45.59964" lon="5.73567">
        <ele>598</ele>
        <time>2019-10-27T13:04:26.000Z</time>
      </trkpt>
      <trkpt lat="45.59963" lon="5.73567">
        <ele>598</ele>
        <time>2019-10-27T13:04:27.000Z</time>
      </trkpt>
      <trkpt lat="45.59962" lon="5.73567">
        <ele>598</ele>
        <time>2019-10-27T13:04:28.000Z</time>
      </trkpt>
      <trkpt lat="45.59962" lon="5.73568">
        <ele>598</ele>
        <time>2019-10-27T13:04:29.000Z</time>
      </trkpt>
      <trkpt lat="45.59961" lon="5.73568">
        <ele>598</ele>
        <time>2019-10-27T13:04:30.000Z</time>
      </trkpt>
      <trkpt lat="45.5996" lon="5.73568">
        <ele>598</ele>
        <time>2019-10-27T13:04:31.000Z</time>
      </trkpt>
      <trkpt lat="45.5996" lon="5.73568">
        <ele>597</ele>
        <time>2019-10-27T13:04:32.000Z</time>
      </trkpt>
      <trkpt lat="45.59959" lon="5.73568">
        <ele>597</ele>
        <time>2019-10-27T13:04:33.000Z</time>
      </trkpt>
      <trkpt lat="45.59958" lon="5.73568">
        <ele>597</ele>
        <time>2019-10-27T13:04:34.000Z</time>
      </trkpt>
      <trkpt lat="45.59957" lon="5.73567">
        <ele>597</ele>
        <time>2019-10-27T13:04:35.000Z</time>
      </trkpt>
      <trkpt lat="45.59956" lon="5.73567">
        <ele>597</ele>
        <time>2019-10-27T13:04:36.000Z</time>
      </trkpt>
      <trkpt lat="45.59955" lon="5.73567">
        <ele>597</ele>
        <time>2019-10-27T13:04:37.000Z</time>
      </trkpt>
      <trkpt lat="45.59954" lon="5.73567">
        <ele>597</ele>
        <time>2019-10-27T13:04:38.000Z</time>
      </trkpt>
      <trkpt lat="45.59953" lon="5.73567">
        <ele>597</ele>
        <time>2019-10-27T13:04:39.000Z</time>
      </trkpt>
      <trkpt lat="45.59952" lon="5.73568">
        <ele>597</ele>
        <time>2019-10-27T13:04:40.000Z</time>
      </trkpt>
      <trkpt lat="45.59951" lon="5.73568">
        <ele>596.7</ele>
        <time>2019-10-27T13:04:41.000Z</time>
      </trkpt>
      <trkpt lat="45.5995" lon="5.73568">
        <ele>596.3</ele>
        <time>2019-10-27T13:04:42.000Z</time>
      </trkpt>
      <trkpt lat="45.59949" lon="5.73569">
        <ele>596</ele>
        <time>2019-10-27T13:04:43.000Z</time>
      </trkpt>
      <trkpt lat="45.59948" lon="5.73569">
        <ele>596</ele>
        <time>2019-10-27T13:04:44.000Z</time>
      </trkpt>
      <trkpt lat="45.59947" lon="5.7357">
        <ele>596</ele>
        <time>2019-10-27T13:04:45.000Z</time>
      </trkpt>
      <trkpt lat="45.59946" lon="5.7357">
        <ele>596</ele>
        <time>2019-10-27T13:04:46.000Z</time>
      </trkpt>
      <trkpt lat="45.59945" lon="5.73571">
        <ele>596</ele>
        <time>2019-10-27T13:04:47.000Z</time>
      </trkpt>
      <trkpt lat="45.59943" lon="5.73571">
        <ele>596</ele>
        <time>2019-10-27T13:04:48.000Z</time>
      </trkpt>
      <trkpt lat="45.59942" lon="5.73572">
        <ele>596</ele>
        <time>2019-10-27T13:04:49.000Z</time>
      </trkpt>
      <trkpt lat="45.59941" lon="5.73573">
        <ele>596</ele>
        <time>2019-10-27T13:04:50.000Z</time>
      </trkpt>
      <trkpt lat="45.5994" lon="5.73573">
        <ele>596</ele>
        <time>2019-10-27T13:04:51.000Z</time>
      </trkpt>
      <trkpt lat="45.59938" lon="5.73574">
        <ele>595</ele>
        <time>2019-10-27T13:04:52.000Z</time>
      </trkpt>
      <trkpt lat="45.59937" lon="5.73575">
        <ele>595</ele>
        <time>2019-10-27T13:04:53.000Z</time>
      </trkpt>
      <trkpt lat="45.59936" lon="5.73575">
        <ele>595</ele>
        <time>2019-10-27T13:04:54.000Z</time>
      </trkpt>
      <trkpt lat="45.59935" lon="5.73576">
        <ele>595</ele>
        <time>2019-10-27T13:04:55.000Z</time>
      </trkpt>
      <trkpt lat="45.59934" lon="5.73577">
        <ele>595</ele>
        <time>2019-10-27T13:04:56.000Z</time>
      </trkpt>
      <trkpt lat="45.59933" lon="5.73578">
        <ele>595</ele>
        <time>2019-10-27T13:04:57.000Z</time>
      </trkpt>
      <trkpt lat="45.59931" lon="5.73579">
        <ele>595</ele>
        <time>2019-10-27T13:04:58.000Z</time>
      </trkpt>
      <trkpt lat="45.5993" lon="5.73579">
        <ele>594.7</ele>
        <time>2019-10-27T13:04:59.000Z</time>
      </trkpt>
      <trkpt lat="45.59929" lon="5.7358">
        <ele>594.3</ele>
        <time>2019-10-27T13:05:00.000Z</time>
      </trkpt>
      <trkpt lat="45.59928" lon="5.73581">
        <ele>594</ele>
        <time>2019-10-27T13:05:01.000Z</time>
      </trkpt>
      <trkpt lat="45.59927" lon="5.73582">
        <ele>594</ele>
        <time>2019-10-27T13:05:02.000Z</time>
      </trkpt>
      <trkpt lat="45.59926" lon="5.73583">
        <ele>594</ele>
        <time>2019-10-27T13:05:03.000Z</time>
      </trkpt>
      <trkpt lat="45.59925" lon="5.73583">
        <ele>594</ele>
        <time>2019-10-27T13:05:04.000Z</time>
      </trkpt>
      <trkpt lat="45.59924" lon="5.73584">
        <ele>594</ele>
        <time>2019-10-27T13:05:05.000Z</time>
      </trkpt>
      <trkpt lat="45.59922" lon="5.73585">
        <ele>594</ele>
        <time>2019-10-27T13:05:06.000Z</time>
      </trkpt>
      <trkpt lat="45.59921" lon="5.73586">
        <ele>594</ele>
        <time>2019-10-27T13:05:07.000Z</time>
      </trkpt>
      <trkpt lat="45.5992" lon="5.73586">
        <ele>593.5</ele>
        <time>2019-10-27T13:05:08.000Z</time>
      </trkpt>
      <trkpt lat="45.59918" lon="5.73587">
        <ele>593</ele>
        <time>2019-10-27T13:05:09.000Z</time>
      </trkpt>
      <trkpt lat="45.59917" lon="5.73588">
        <ele>593</ele>
        <time>2019-10-27T13:05:10.000Z</time>
      </trkpt>
      <trkpt lat="45.59916" lon="5.73588">
        <ele>593</ele>
        <time>2019-10-27T13:05:11.000Z</time>
      </trkpt>
      <trkpt lat="45.59915" lon="5.73588">
        <ele>593</ele>
        <time>2019-10-27T13:05:12.000Z</time>
      </trkpt>
      <trkpt lat="45.59913" lon="5.73589">
        <ele>593</ele>
        <time>2019-10-27T13:05:13.000Z</time>
      </trkpt>
      <trkpt lat="45.59912" lon="5.73589">
        <ele>593</ele>
        <time>2019-10-27T13:05:14.000Z</time>
      </trkpt>
      <trkpt lat="45.59911" lon="5.73589">
        <ele>593</ele>
        <time>2019-10-27T13:05:15.000Z</time>
      </trkpt>
      <trkpt lat="45.5991" lon="5.73589">
        <ele>593</ele>
        <time>2019-10-27T13:05:16.000Z</time>
      </trkpt>
      <trkpt lat="45.59909" lon="5.73588">
        <ele>593</ele>
        <time>2019-10-27T13:05:17.000Z</time>
      </trkpt>
      <trkpt lat="45.59908" lon="5.73588">
        <ele>593</ele>
        <time>2019-10-27T13:05:18.000Z</time>
      </trkpt>
      <trkpt lat="45.59907" lon="5.73588">
        <ele>593</ele>
        <time>2019-10-27T13:05:19.000Z</time>
      </trkpt>
      <trkpt lat="45.59906" lon="5.73588">
        <ele>592.5</ele>
        <time>2019-10-27T13:05:20.000Z</time>
      </trkpt>
      <trkpt lat="45.59905" lon="5.73588">
        <ele>592</ele>
        <time>2019-10-27T13:05:21.000Z</time>
      </trkpt>
      <trkpt lat="45.59904" lon="5.73587">
        <ele>592</ele>
        <time>2019-10-27T13:05:22.000Z</time>
      </trkpt>
      <trkpt lat="45.59902" lon="5.73587">
        <ele>592</ele>
        <time>2019-10-27T13:05:23.000Z</time>
      </trkpt>
      <trkpt lat="45.59901" lon="5.73587">
        <ele>592</ele>
        <time>2019-10-27T13:05:24.000Z</time>
      </trkpt>
      <trkpt lat="45.599" lon="5.73587">
        <ele>592</ele>
        <time>2019-10-27T13:05:25.000Z</time>
      </trkpt>
      <trkpt lat="45.59899" lon="5.73588">
        <ele>592</ele>
        <time>2019-10-27T13:05:26.000Z</time>
      </trkpt>
      <trkpt lat="45.59898" lon="5.73588">
        <ele>592</ele>
        <time>2019-10-27T13:05:27.000Z</time>
      </trkpt>
      <trkpt lat="45.59897" lon="5.73588">
        <ele>592</ele>
        <time>2019-10-27T13:05:28.000Z</time>
      </trkpt>
      <trkpt lat="45.59896" lon="5.73588">
        <ele>592</ele>
        <time>2019-10-27T13:05:29.000Z</time>
      </trkpt>
      <trkpt lat="45.59895" lon="5.73588">
        <ele>592</ele>
        <time>2019-10-27T13:05:30.000Z</time>
      </trkpt>
      <trkpt lat="45.59894" lon="5.73588">
        <ele>592</ele>
        <time>2019-10-27T13:05:31.000Z</time>
      </trkpt>
      <trkpt lat="45.59893" lon="5.73588">
        <ele>592</ele>
        <time>2019-10-27T13:05:32.000Z</time>
      </trkpt>
      <trkpt lat="45.59892" lon="5.73588">
        <ele>592</ele>
        <time>2019-10-27T13:05:33.000Z</time>
      </trkpt>
      <trkpt lat="45.59891" lon="5.73588">
        <ele>592</ele>
        <time>2019-10-27T13:05:34.000Z</time>
      </trkpt>
      <trkpt lat="45.5989" lon="5.73588">
        <ele>592</ele>
        <time>2019-10-27T13:05:35.000Z</time>
      </trkpt>
      <trkpt lat="45.59889" lon="5.73588">
        <ele>592</ele>
        <time>2019-10-27T13:05:36.000Z</time>
      </trkpt>
      <trkpt lat="45.59889" lon="5.73588">
        <ele>591.7</ele>
        <time>2019-10-27T13:05:37.000Z</time>
      </trkpt>
      <trkpt lat="45.59888" lon="5.73588">
        <ele>591.3</ele>
        <time>2019-10-27T13:05:38.000Z</time>
      </trkpt>
      <trkpt lat="45.59887" lon="5.73588">
        <ele>591</ele>
        <time>2019-10-27T13:05:39.000Z</time>
      </trkpt>
      <trkpt lat="45.59887" lon="5.73588">
        <ele>591</ele>
        <time>2019-10-27T13:05:40.000Z</time>
      </trkpt>
      <trkpt lat="45.59886" lon="5.73589">
        <ele>591</ele>
        <time>2019-10-27T13:05:41.000Z</time>
      </trkpt>
      <trkpt lat="45.59885" lon="5.73589">
        <ele>591</ele>
        <time>2019-10-27T13:05:42.000Z</time>
      </trkpt>
      <trkpt lat="45.59884" lon="5.73589">
        <ele>591</ele>
        <time>2019-10-27T13:05:43.000Z</time>
      </trkpt>
      <trkpt lat="45.59884" lon="5.73589">
        <ele>591</ele>
        <time>2019-10-27T13:05:44.000Z</time>
      </trkpt>
      <trkpt lat="45.59883" lon="5.7359">
        <ele>591</ele>
        <time>2019-10-27T13:05:45.000Z</time>
      </trkpt>
      <trkpt lat="45.59882" lon="5.7359">
        <ele>591</ele>
        <time>2019-10-27T13:05:46.000Z</time>
      </trkpt>
      <trkpt lat="45.59881" lon="5.73591">
        <ele>591</ele>
        <time>2019-10-27T13:05:47.000Z</time>
      </trkpt>
      <trkpt lat="45.5988" lon="5.73591">
        <ele>591</ele>
        <time>2019-10-27T13:05:48.000Z</time>
      </trkpt>
      <trkpt lat="45.59879" lon="5.73591">
        <ele>591</ele>
        <time>2019-10-27T13:05:49.000Z</time>
      </trkpt>
      <trkpt lat="45.59878" lon="5.73591">
        <ele>591</ele>
        <time>2019-10-27T13:05:50.000Z</time>
      </trkpt>
      <trkpt lat="45.59877" lon="5.73592">
        <ele>591</ele>
        <time>2019-10-27T13:05:51.000Z</time>
      </trkpt>
      <trkpt lat="45.59876" lon="5.73592">
        <ele>591</ele>
        <time>2019-10-27T13:05:52.000Z</time>
      </trkpt>
      <trkpt lat="45.59875" lon="5.73592">
        <ele>591</ele>
        <time>2019-10-27T13:05:53.000Z</time>
      </trkpt>
      <trkpt lat="45.59874" lon="5.73592">
        <ele>591</ele>
        <time>2019-10-27T13:05:54.000Z</time>
      </trkpt>
      <trkpt lat="45.59872" lon="5.73592">
        <ele>591</ele>
        <time>2019-10-27T13:05:55.000Z</time>
      </trkpt>
      <trkpt lat="45.59871" lon="5.73593">
        <ele>591</ele>
        <time>2019-10-27T13:05:56.000Z</time>
      </trkpt>
      <trkpt lat="45.5987" lon="5.73593">
        <ele>591</ele>
        <time>2019-10-27T13:05:57.000Z</time>
      </trkpt>
      <trkpt lat="45.59869" lon="5.73594">
        <ele>591</ele>
        <time>2019-10-27T13:05:58.000Z</time>
      </trkpt>
      <trkpt lat="45.59868" lon="5.73594">
        <ele>591</ele>
        <time>2019-10-27T13:05:59.000Z</time>
      </trkpt>
      <trkpt lat="45.59867" lon="5.73595">
        <ele>591</ele>
        <time>2019-10-27T13:06:00.000Z</time>
      </trkpt>
      <trkpt lat="45.59865" lon="5.73595">
        <ele>590.5</ele>
        <time>2019-10-27T13:06:01.000Z</time>
      </trkpt>
      <trkpt lat="45.59864" lon="5.73596">
        <ele>590</ele>
        <time>2019-10-27T13:06:02.000Z</time>
      </trkpt>
      <trkpt lat="45.59863" lon="5.73597">
        <ele>590.3</ele>
        <time>2019-10-27T13:06:03.000Z</time>
      </trkpt>
      <trkpt lat="45.59862" lon="5.73597">
        <ele>590.7</ele>
        <time>2019-10-27T13:06:04.000Z</time>
      </trkpt>
      <trkpt lat="45.59862" lon="5.73598">
        <ele>591</ele>
        <time>2019-10-27T13:06:05.000Z</time>
      </trkpt>
      <trkpt lat="45.59861" lon="5.73599">
        <ele>590</ele>
        <time>2019-10-27T13:06:06.000Z</time>
      </trkpt>
      <trkpt lat="45.5986" lon="5.736">
        <ele>590</ele>
        <time>2019-10-27T13:06:07.000Z</time>
      </trkpt>
      <trkpt lat="45.5986" lon="5.736">
        <ele>590</ele>
        <time>2019-10-27T13:06:08.000Z</time>
      </trkpt>
      <trkpt lat="45.59859" lon="5.73601">
        <ele>590</ele>
        <time>2019-10-27T13:06:09.000Z</time>
      </trkpt>
      <trkpt lat="45.59859" lon="5.73602">
        <ele>590.5</ele>
        <time>2019-10-27T13:06:10.000Z</time>
      </trkpt>
      <trkpt lat="45.59858" lon="5.73603">
        <ele>591</ele>
        <time>2019-10-27T13:06:11.000Z</time>
      </trkpt>
      <trkpt lat="45.59858" lon="5.73604">
        <ele>591</ele>
        <time>2019-10-27T13:06:12.000Z</time>
      </trkpt>
      <trkpt lat="45.59857" lon="5.73605">
        <ele>591</ele>
        <time>2019-10-27T13:06:13.000Z</time>
      </trkpt>
      <trkpt lat="45.59857" lon="5.73607">
        <ele>591</ele>
        <time>2019-10-27T13:06:14.000Z</time>
      </trkpt>
      <trkpt lat="45.59856" lon="5.73608">
        <ele>591</ele>
        <time>2019-10-27T13:06:15.000Z</time>
      </trkpt>
      <trkpt lat="45.59856" lon="5.73609">
        <ele>591</ele>
        <time>2019-10-27T13:06:16.000Z</time>
      </trkpt>
      <trkpt lat="45.59855" lon="5.73611">
        <ele>591</ele>
        <time>2019-10-27T13:06:17.000Z</time>
      </trkpt>
      <trkpt lat="45.59855" lon="5.73612">
        <ele>591</ele>
        <time>2019-10-27T13:06:18.000Z</time>
      </trkpt>
      <trkpt lat="45.59854" lon="5.73613">
        <ele>591</ele>
        <time>2019-10-27T13:06:19.000Z</time>
      </trkpt>
      <trkpt lat="45.59853" lon="5.73615">
        <ele>591</ele>
        <time>2019-10-27T13:06:20.000Z</time>
      </trkpt>
      <trkpt lat="45.59852" lon="5.73616">
        <ele>591</ele>
        <time>2019-10-27T13:06:21.000Z</time>
      </trkpt>
      <trkpt lat="45.59852" lon="5.73618">
        <ele>591</ele>
        <time>2019-10-27T13:06:22.000Z</time>
      </trkpt>
      <trkpt lat="45.59851" lon="5.73619">
        <ele>591</ele>
        <time>2019-10-27T13:06:23.000Z</time>
      </trkpt>
      <trkpt lat="45.5985" lon="5.73621">
        <ele>591</ele>
        <time>2019-10-27T13:06:24.000Z</time>
      </trkpt>
      <trkpt lat="45.59849" lon="5.73622">
        <ele>591</ele>
        <time>2019-10-27T13:06:25.000Z</time>
      </trkpt>
      <trkpt lat="45.59848" lon="5.73624">
        <ele>591</ele>
        <time>2019-10-27T13:06:26.000Z</time>
      </trkpt>
      <trkpt lat="45.59848" lon="5.73625">
        <ele>591</ele>
        <time>2019-10-27T13:06:27.000Z</time>
      </trkpt>
      <trkpt lat="45.59847" lon="5.73627">
        <ele>591</ele>
        <time>2019-10-27T13:06:28.000Z</time>
      </trkpt>
      <trkpt lat="45.59846" lon="5.73628">
        <ele>591</ele>
        <time>2019-10-27T13:06:29.000Z</time>
      </trkpt>
      <trkpt lat="45.59845" lon="5.73629">
        <ele>591</ele>
        <time>2019-10-27T13:06:30.000Z</time>
      </trkpt>
      <trkpt lat="45.59844" lon="5.73631">
        <ele>591</ele>
        <time>2019-10-27T13:06:31.000Z</time>
      </trkpt>
      <trkpt lat="45.59844" lon="5.73632">
        <ele>591</ele>
        <time>2019-10-27T13:06:32.000Z</time>
      </trkpt>
      <trkpt lat="45.59843" lon="5.73633">
        <ele>591</ele>
        <time>2019-10-27T13:06:33.000Z</time>
      </trkpt>
      <trkpt lat="45.59842" lon="5.73634">
        <ele>591</ele>
        <time>2019-10-27T13:06:34.000Z</time>
      </trkpt>
      <trkpt lat="45.59841" lon="5.73635">
        <ele>591</ele>
        <time>2019-10-27T13:06:35.000Z</time>
      </trkpt>
      <trkpt lat="45.59841" lon="5.73636">
        <ele>591</ele>
        <time>2019-10-27T13:06:36.000Z</time>
      </trkpt>
      <trkpt lat="45.5984" lon="5.73637">
        <ele>591</ele>
        <time>2019-10-27T13:06:37.000Z</time>
      </trkpt>
      <trkpt lat="45.59839" lon="5.73638">
        <ele>591</ele>
        <time>2019-10-27T13:06:38.000Z</time>
      </trkpt>
      <trkpt lat="45.59839" lon="5.73639">
        <ele>591</ele>
        <time>2019-10-27T13:06:39.000Z</time>
      </trkpt>
      <trkpt lat="45.59838" lon="5.7364">
        <ele>592</ele>
        <time>2019-10-27T13:06:40.000Z</time>
      </trkpt>
      <trkpt lat="45.59838" lon="5.73641">
        <ele>592</ele>
        <time>2019-10-27T13:06:41.000Z</time>
      </trkpt>
      <trkpt lat="45.59837" lon="5.73642">
        <ele>592</ele>
        <time>2019-10-27T13:06:42.000Z</time>
      </trkpt>
      <trkpt lat="45.59837" lon="5.73642">
        <ele>592</ele>
        <time>2019-10-27T13:06:43.000Z</time>
      </trkpt>
      <trkpt lat="45.59836" lon="5.73643">
        <ele>592</ele>
        <time>2019-10-27T13:06:44.000Z</time>
      </trkpt>
      <trkpt lat="45.59836" lon="5.73644">
        <ele>592</ele>
        <time>2019-10-27T13:06:45.000Z</time>
      </trkpt>
      <trkpt lat="45.59835" lon="5.73645">
        <ele>592</ele>
        <time>2019-10-27T13:06:46.000Z</time>
      </trkpt>
      <trkpt lat="45.59835" lon="5.73646">
        <ele>592</ele>
        <time>2019-10-27T13:06:47.000Z</time>
      </trkpt>
      <trkpt lat="45.59834" lon="5.73646">
        <ele>592</ele>
        <time>2019-10-27T13:06:48.000Z</time>
      </trkpt>
      <trkpt lat="45.59834" lon="5.73648">
        <ele>592</ele>
        <time>2019-10-27T13:06:49.000Z</time>
      </trkpt>
      <trkpt lat="45.59833" lon="5.73649">
        <ele>592</ele>
        <time>2019-10-27T13:06:50.000Z</time>
      </trkpt>
      <trkpt lat="45.59832" lon="5.7365">
        <ele>592</ele>
        <time>2019-10-27T13:06:51.000Z</time>
      </trkpt>
      <trkpt lat="45.59832" lon="5.73651">
        <ele>593</ele>
        <time>2019-10-27T13:06:52.000Z</time>
      </trkpt>
      <trkpt lat="45.59831" lon="5.73652">
        <ele>593</ele>
        <time>2019-10-27T13:06:53.000Z</time>
      </trkpt>
      <trkpt lat="45.5983" lon="5.73653">
        <ele>593</ele>
        <time>2019-10-27T13:06:54.000Z</time>
      </trkpt>
      <trkpt lat="45.5983" lon="5.73654">
        <ele>593</ele>
        <time>2019-10-27T13:06:55.000Z</time>
      </trkpt>
      <trkpt lat="45.59829" lon="5.73655">
        <ele>593</ele>
        <time>2019-10-27T13:06:56.000Z</time>
      </trkpt>
      <trkpt lat="45.59828" lon="5.73656">
        <ele>593</ele>
        <time>2019-10-27T13:06:57.000Z</time>
      </trkpt>
      <trkpt lat="45.59828" lon="5.73657">
        <ele>593</ele>
        <time>2019-10-27T13:06:58.000Z</time>
      </trkpt>
      <trkpt lat="45.59827" lon="5.73657">
        <ele>593</ele>
        <time>2019-10-27T13:06:59.000Z</time>
      </trkpt>
      <trkpt lat="45.59826" lon="5.73658">
        <ele>593</ele>
        <time>2019-10-27T13:07:00.000Z</time>
      </trkpt>
      <trkpt lat="45.59826" lon="5.73659">
        <ele>593</ele>
        <time>2019-10-27T13:07:01.000Z</time>
      </trkpt>
      <trkpt lat="45.59825" lon="5.7366">
        <ele>593.5</ele>
        <time>2019-10-27T13:07:02.000Z</time>
      </trkpt>
      <trkpt lat="45.59824" lon="5.73661">
        <ele>594</ele>
        <time>2019-10-27T13:07:03.000Z</time>
      </trkpt>
      <trkpt lat="45.59823" lon="5.73662">
        <ele>594</ele>
        <time>2019-10-27T13:07:04.000Z</time>
      </trkpt>
      <trkpt lat="45.59823" lon="5.73664">
        <ele>594</ele>
        <time>2019-10-27T13:07:05.000Z</time>
      </trkpt>
      <trkpt lat="45.59822" lon="5.73666">
        <ele>594</ele>
        <time>2019-10-27T13:07:06.000Z</time>
      </trkpt>
      <trkpt lat="45.59821" lon="5.73668">
        <ele>594</ele>
        <time>2019-10-27T13:07:07.000Z</time>
      </trkpt>
      <trkpt lat="45.5982" lon="5.7367">
        <ele>594</ele>
        <time>2019-10-27T13:07:08.000Z</time>
      </trkpt>
      <trkpt lat="45.5982" lon="5.73671">
        <ele>594</ele>
        <time>2019-10-27T13:07:09.000Z</time>
      </trkpt>
      <trkpt lat="45.59819" lon="5.73672">
        <ele>594</ele>
        <time>2019-10-27T13:07:10.000Z</time>
      </trkpt>
      <trkpt lat="45.5982" lon="5.73672">
        <ele>594</ele>
        <time>2019-10-27T13:07:11.000Z</time>
      </trkpt>
      <trkpt lat="45.5982" lon="5.73673">
        <ele>595</ele>
        <time>2019-10-27T13:07:12.000Z</time>
      </trkpt>
      <trkpt lat="45.5982" lon="5.73673">
        <ele>595</ele>
        <time>2019-10-27T13:07:13.000Z</time>
      </trkpt>
      <trkpt lat="45.5982" lon="5.73673">
        <ele>595</ele>
        <time>2019-10-27T13:07:14.000Z</time>
      </trkpt>
      <trkpt lat="45.5982" lon="5.73674">
        <ele>595</ele>
        <time>2019-10-27T13:07:15.000Z</time>
      </trkpt>
      <trkpt lat="45.5982" lon="5.73674">
        <ele>595</ele>
        <time>2019-10-27T13:07:16.000Z</time>
      </trkpt>
      <trkpt lat="45.5982" lon="5.73675">
        <ele>595</ele>
        <time>2019-10-27T13:07:17.000Z</time>
      </trkpt>
      <trkpt lat="45.5982" lon="5.73676">
        <ele>595</ele>
        <time>2019-10-27T13:07:18.000Z</time>
      </trkpt>
      <trkpt lat="45.5982" lon="5.73677">
        <ele>595</ele>
        <time>2019-10-27T13:07:19.000Z</time>
      </trkpt>
      <trkpt lat="45.59819" lon="5.73679">
        <ele>595</ele>
        <time>2019-10-27T13:07:20.000Z</time>
      </trkpt>
      <trkpt lat="45.59819" lon="5.7368">
        <ele>595</ele>
        <time>2019-10-27T13:07:21.000Z</time>
      </trkpt>
      <trkpt lat="45.59818" lon="5.73681">
        <ele>595</ele>
        <time>2019-10-27T13:07:22.000Z</time>
      </trkpt>
      <trkpt lat="45.59818" lon="5.73683">
        <ele>595</ele>
        <time>2019-10-27T13:07:23.000Z</time>
      </trkpt>
      <trkpt lat="45.59817" lon="5.73685">
        <ele>595</ele>
        <time>2019-10-27T13:07:24.000Z</time>
      </trkpt>
      <trkpt lat="45.59817" lon="5.73687">
        <ele>595</ele>
        <time>2019-10-27T13:07:25.000Z</time>
      </trkpt>
      <trkpt lat="45.59816" lon="5.73688">
        <ele>595.5</ele>
        <time>2019-10-27T13:07:26.000Z</time>
      </trkpt>
      <trkpt lat="45.59815" lon="5.7369">
        <ele>596</ele>
        <time>2019-10-27T13:07:27.000Z</time>
      </trkpt>
      <trkpt lat="45.59814" lon="5.73692">
        <ele>596</ele>
        <time>2019-10-27T13:07:28.000Z</time>
      </trkpt>
      <trkpt lat="45.59813" lon="5.73694">
        <ele>596</ele>
        <time>2019-10-27T13:07:29.000Z</time>
      </trkpt>
      <trkpt lat="45.59813" lon="5.73695">
        <ele>596</ele>
        <time>2019-10-27T13:07:30.000Z</time>
      </trkpt>
      <trkpt lat="45.59812" lon="5.73696">
        <ele>596</ele>
        <time>2019-10-27T13:07:31.000Z</time>
      </trkpt>
      <trkpt lat="45.59811" lon="5.73697">
        <ele>596</ele>
        <time>2019-10-27T13:07:32.000Z</time>
      </trkpt>
      <trkpt lat="45.5981" lon="5.73699">
        <ele>596</ele>
        <time>2019-10-27T13:07:33.000Z</time>
      </trkpt>
      <trkpt lat="45.59809" lon="5.73699">
        <ele>596</ele>
        <time>2019-10-27T13:07:34.000Z</time>
      </trkpt>
      <trkpt lat="45.59808" lon="5.737">
        <ele>596</ele>
        <time>2019-10-27T13:07:35.000Z</time>
      </trkpt>
      <trkpt lat="45.59807" lon="5.73701">
        <ele>596</ele>
        <time>2019-10-27T13:07:36.000Z</time>
      </trkpt>
      <trkpt lat="45.59805" lon="5.73702">
        <ele>596</ele>
        <time>2019-10-27T13:07:37.000Z</time>
      </trkpt>
      <trkpt lat="45.59804" lon="5.73702">
        <ele>596</ele>
        <time>2019-10-27T13:07:38.000Z</time>
      </trkpt>
      <trkpt lat="45.59803" lon="5.73703">
        <ele>596</ele>
        <time>2019-10-27T13:07:39.000Z</time>
      </trkpt>
      <trkpt lat="45.59802" lon="5.73704">
        <ele>596</ele>
        <time>2019-10-27T13:07:40.000Z</time>
      </trkpt>
      <trkpt lat="45.598" lon="5.73705">
        <ele>596</ele>
        <time>2019-10-27T13:07:41.000Z</time>
      </trkpt>
      <trkpt lat="45.59799" lon="5.73705">
        <ele>596</ele>
        <time>2019-10-27T13:07:42.000Z</time>
      </trkpt>
      <trkpt lat="45.59797" lon="5.73706">
        <ele>596</ele>
        <time>2019-10-27T13:07:43.000Z</time>
      </trkpt>
      <trkpt lat="45.59796" lon="5.73707">
        <ele>596</ele>
        <time>2019-10-27T13:07:44.000Z</time>
      </trkpt>
      <trkpt lat="45.59794" lon="5.73707">
        <ele>596</ele>
        <time>2019-10-27T13:07:45.000Z</time>
      </trkpt>
      <trkpt lat="45.59793" lon="5.73708">
        <ele>596</ele>
        <time>2019-10-27T13:07:46.000Z</time>
      </trkpt>
      <trkpt lat="45.59791" lon="5.73709">
        <ele>596</ele>
        <time>2019-10-27T13:07:47.000Z</time>
      </trkpt>
      <trkpt lat="45.5979" lon="5.73709">
        <ele>596</ele>
        <time>2019-10-27T13:07:48.000Z</time>
      </trkpt>
      <trkpt lat="45.59789" lon="5.7371">
        <ele>596</ele>
        <time>2019-10-27T13:07:49.000Z</time>
      </trkpt>
      <trkpt lat="45.59787" lon="5.73711">
        <ele>596</ele>
        <time>2019-10-27T13:07:50.000Z</time>
      </trkpt>
      <trkpt lat="45.59786" lon="5.73711">
        <ele>596</ele>
        <time>2019-10-27T13:07:51.000Z</time>
      </trkpt>
      <trkpt lat="45.59785" lon="5.73712">
        <ele>596</ele>
        <time>2019-10-27T13:07:52.000Z</time>
      </trkpt>
      <trkpt lat="45.59784" lon="5.73713">
        <ele>596</ele>
        <time>2019-10-27T13:07:53.000Z</time>
      </trkpt>
      <trkpt lat="45.59783" lon="5.73713">
        <ele>596</ele>
        <time>2019-10-27T13:07:54.000Z</time>
      </trkpt>
      <trkpt lat="45.59781" lon="5.73714">
        <ele>596</ele>
        <time>2019-10-27T13:07:55.000Z</time>
      </trkpt>
      <trkpt lat="45.5978" lon="5.73714">
        <ele>596</ele>
        <time>2019-10-27T13:07:56.000Z</time>
      </trkpt>
      <trkpt lat="45.59779" lon="5.73714">
        <ele>596</ele>
        <time>2019-10-27T13:07:57.000Z</time>
      </trkpt>
      <trkpt lat="45.59778" lon="5.73715">
        <ele>596</ele>
        <time>2019-10-27T13:07:58.000Z</time>
      </trkpt>
      <trkpt lat="45.59777" lon="5.73715">
        <ele>596</ele>
        <time>2019-10-27T13:07:59.000Z</time>
      </trkpt>
      <trkpt lat="45.59775" lon="5.73715">
        <ele>596</ele>
        <time>2019-10-27T13:08:00.000Z</time>
      </trkpt>
      <trkpt lat="45.59774" lon="5.73715">
        <ele>596</ele>
        <time>2019-10-27T13:08:01.000Z</time>
      </trkpt>
      <trkpt lat="45.59773" lon="5.73715">
        <ele>596</ele>
        <time>2019-10-27T13:08:02.000Z</time>
      </trkpt>
      <trkpt lat="45.59772" lon="5.73715">
        <ele>596</ele>
        <time>2019-10-27T13:08:03.000Z</time>
      </trkpt>
      <trkpt lat="45.59771" lon="5.73715">
        <ele>596</ele>
        <time>2019-10-27T13:08:04.000Z</time>
      </trkpt>
      <trkpt lat="45.5977" lon="5.73715">
        <ele>596</ele>
        <time>2019-10-27T13:08:05.000Z</time>
      </trkpt>
      <trkpt lat="45.5977" lon="5.73715">
        <ele>596</ele>
        <time>2019-10-27T13:08:06.000Z</time>
      </trkpt>
      <trkpt lat="45.59769" lon="5.73715">
        <ele>596</ele>
        <time>2019-10-27T13:08:07.000Z</time>
      </trkpt>
      <trkpt lat="45.59768" lon="5.73715">
        <ele>596</ele>
        <time>2019-10-27T13:08:08.000Z</time>
      </trkpt>
      <trkpt lat="45.59768" lon="5.73714">
        <ele>596</ele>
        <time>2019-10-27T13:08:09.000Z</time>
      </trkpt>
      <trkpt lat="45.59768" lon="5.73714">
        <ele>596</ele>
        <time>2019-10-27T13:08:10.000Z</time>
      </trkpt>
      <trkpt lat="45.59767" lon="5.73714">
        <ele>596</ele>
        <time>2019-10-27T13:08:11.000Z</time>
      </trkpt>
      <trkpt lat="45.59767" lon="5.73714">
        <ele>596</ele>
        <time>2019-10-27T13:08:12.000Z</time>
      </trkpt>
      <trkpt lat="45.59766" lon="5.73714">
        <ele>596</ele>
        <time>2019-10-27T13:08:13.000Z</time>
      </trkpt>
      <trkpt lat="45.59766" lon="5.73714">
        <ele>596</ele>
        <time>2019-10-27T13:08:14.000Z</time>
      </trkpt>
      <trkpt lat="45.59766" lon="5.73713">
        <ele>596</ele>
        <time>2019-10-27T13:08:15.000Z</time>
      </trkpt>
      <trkpt lat="45.59765" lon="5.73713">
        <ele>596</ele>
        <time>2019-10-27T13:08:16.000Z</time>
      </trkpt>
      <trkpt lat="45.59765" lon="5.73713">
        <ele>596</ele>
        <time>2019-10-27T13:08:17.000Z</time>
      </trkpt>
      <trkpt lat="45.59765" lon="5.73713">
        <ele>596</ele>
        <time>2019-10-27T13:08:18.000Z</time>
      </trkpt>
      <trkpt lat="45.59765" lon="5.73713">
        <ele>596</ele>
        <time>2019-10-27T13:08:19.000Z</time>
      </trkpt>
      <trkpt lat="45.59765" lon="5.73713">
        <ele>596</ele>
        <time>2019-10-27T13:08:20.000Z</time>
      </trkpt>
      <trkpt lat="45.59765" lon="5.73713">
        <ele>596</ele>
        <time>2019-10-27T13:08:21.000Z</time>
      </trkpt>
      <trkpt lat="45.59764" lon="5.73713">
        <ele>596</ele>
        <time>2019-10-27T13:08:22.000Z</time>
      </trkpt>
      <trkpt lat="45.59763" lon="5.73713">
        <ele>596</ele>
        <time>2019-10-27T13:08:23.000Z</time>
      </trkpt>
      <trkpt lat="45.59762" lon="5.73713">
        <ele>596</ele>
        <time>2019-10-27T13:08:24.000Z</time>
      </trkpt>
      <trkpt lat="45.59761" lon="5.73713">
        <ele>596</ele>
        <time>2019-10-27T13:08:25.000Z</time>
      </trkpt>
      <trkpt lat="45.5976" lon="5.73713">
        <ele>596</ele>
        <time>2019-10-27T13:08:26.000Z</time>
      </trkpt>
      <trkpt lat="45.59758" lon="5.73713">
        <ele>596</ele>
        <time>2019-10-27T13:08:27.000Z</time>
      </trkpt>
      <trkpt lat="45.59756" lon="5.73713">
        <ele>596</ele>
        <time>2019-10-27T13:08:28.000Z</time>
      </trkpt>
      <trkpt lat="45.59755" lon="5.73713">
        <ele>596</ele>
        <time>2019-10-27T13:08:29.000Z</time>
      </trkpt>
      <trkpt lat="45.59753" lon="5.73713">
        <ele>596</ele>
        <time>2019-10-27T13:08:30.000Z</time>
      </trkpt>
      <trkpt lat="45.59751" lon="5.73713">
        <ele>596</ele>
        <time>2019-10-27T13:08:31.000Z</time>
      </trkpt>
      <trkpt lat="45.5975" lon="5.73713">
        <ele>596</ele>
        <time>2019-10-27T13:08:32.000Z</time>
      </trkpt>
      <trkpt lat="45.59749" lon="5.73713">
        <ele>596</ele>
        <time>2019-10-27T13:08:33.000Z</time>
      </trkpt>
      <trkpt lat="45.59747" lon="5.73713">
        <ele>596</ele>
        <time>2019-10-27T13:08:34.000Z</time>
      </trkpt>
      <trkpt lat="45.59746" lon="5.73713">
        <ele>596</ele>
        <time>2019-10-27T13:08:35.000Z</time>
      </trkpt>
      <trkpt lat="45.59745" lon="5.73713">
        <ele>596</ele>
        <time>2019-10-27T13:08:36.000Z</time>
      </trkpt>
      <trkpt lat="45.59744" lon="5.73713">
        <ele>596</ele>
        <time>2019-10-27T13:08:37.000Z</time>
      </trkpt>
      <trkpt lat="45.59743" lon="5.73713">
        <ele>596</ele>
        <time>2019-10-27T13:08:38.000Z</time>
      </trkpt>
      <trkpt lat="45.59742" lon="5.73712">
        <ele>596</ele>
        <time>2019-10-27T13:08:39.000Z</time>
      </trkpt>
      <trkpt lat="45.59741" lon="5.73712">
        <ele>595.5</ele>
        <time>2019-10-27T13:08:40.000Z</time>
      </trkpt>
      <trkpt lat="45.5974" lon="5.73712">
        <ele>595</ele>
        <time>2019-10-27T13:08:41.000Z</time>
      </trkpt>
      <trkpt lat="45.59739" lon="5.73712">
        <ele>595</ele>
        <time>2019-10-27T13:08:42.000Z</time>
      </trkpt>
      <trkpt lat="45.59738" lon="5.73712">
        <ele>595</ele>
        <time>2019-10-27T13:08:43.000Z</time>
      </trkpt>
      <trkpt lat="45.59736" lon="5.73712">
        <ele>595</ele>
        <time>2019-10-27T13:08:44.000Z</time>
      </trkpt>
      <trkpt lat="45.59735" lon="5.73712">
        <ele>595</ele>
        <time>2019-10-27T13:08:45.000Z</time>
      </trkpt>
      <trkpt lat="45.59734" lon="5.73713">
        <ele>595</ele>
        <time>2019-10-27T13:08:46.000Z</time>
      </trkpt>
      <trkpt lat="45.59732" lon="5.73713">
        <ele>595</ele>
        <time>2019-10-27T13:08:47.000Z</time>
      </trkpt>
      <trkpt lat="45.59731" lon="5.73713">
        <ele>595</ele>
        <time>2019-10-27T13:08:48.000Z</time>
      </trkpt>
      <trkpt lat="45.5973" lon="5.73713">
        <ele>595</ele>
        <time>2019-10-27T13:08:49.000Z</time>
      </trkpt>
      <trkpt lat="45.59729" lon="5.73714">
        <ele>595</ele>
        <time>2019-10-27T13:08:50.000Z</time>
      </trkpt>
      <trkpt lat="45.59728" lon="5.73714">
        <ele>595</ele>
        <time>2019-10-27T13:08:51.000Z</time>
      </trkpt>
      <trkpt lat="45.59727" lon="5.73714">
        <ele>595</ele>
        <time>2019-10-27T13:08:52.000Z</time>
      </trkpt>
      <trkpt lat="45.59726" lon="5.73715">
        <ele>595</ele>
        <time>2019-10-27T13:08:53.000Z</time>
      </trkpt>
      <trkpt lat="45.59725" lon="5.73715">
        <ele>595</ele>
        <time>2019-10-27T13:08:54.000Z</time>
      </trkpt>
      <trkpt lat="45.59724" lon="5.73716">
        <ele>595</ele>
        <time>2019-10-27T13:08:55.000Z</time>
      </trkpt>
      <trkpt lat="45.59723" lon="5.73716">
        <ele>595</ele>
        <time>2019-10-27T13:08:56.000Z</time>
      </trkpt>
      <trkpt lat="45.59722" lon="5.73717">
        <ele>595</ele>
        <time>2019-10-27T13:08:57.000Z</time>
      </trkpt>
      <trkpt lat="45.59721" lon="5.73718">
        <ele>595</ele>
        <time>2019-10-27T13:08:58.000Z</time>
      </trkpt>
      <trkpt lat="45.5972" lon="5.73718">
        <ele>595</ele>
        <time>2019-10-27T13:08:59.000Z</time>
      </trkpt>
      <trkpt lat="45.59719" lon="5.73719">
        <ele>594.5</ele>
        <time>2019-10-27T13:09:00.000Z</time>
      </trkpt>
      <trkpt lat="45.59718" lon="5.7372">
        <ele>594</ele>
        <time>2019-10-27T13:09:01.000Z</time>
      </trkpt>
      <trkpt lat="45.59717" lon="5.7372">
        <ele>594</ele>
        <time>2019-10-27T13:09:02.000Z</time>
      </trkpt>
      <trkpt lat="45.59716" lon="5.73721">
        <ele>594</ele>
        <time>2019-10-27T13:09:03.000Z</time>
      </trkpt>
      <trkpt lat="45.59715" lon="5.73722">
        <ele>594</ele>
        <time>2019-10-27T13:09:04.000Z</time>
      </trkpt>
      <trkpt lat="45.59714" lon="5.73722">
        <ele>594</ele>
        <time>2019-10-27T13:09:05.000Z</time>
      </trkpt>
      <trkpt lat="45.59714" lon="5.73722">
        <ele>594</ele>
        <time>2019-10-27T13:09:06.000Z</time>
      </trkpt>
      <trkpt lat="45.59713" lon="5.73723">
        <ele>594</ele>
        <time>2019-10-27T13:09:07.000Z</time>
      </trkpt>
      <trkpt lat="45.59713" lon="5.73723">
        <ele>594</ele>
        <time>2019-10-27T13:09:08.000Z</time>
      </trkpt>
      <trkpt lat="45.59712" lon="5.73723">
        <ele>594</ele>
        <time>2019-10-27T13:09:09.000Z</time>
      </trkpt>
      <trkpt lat="45.59712" lon="5.73723">
        <ele>594</ele>
        <time>2019-10-27T13:09:10.000Z</time>
      </trkpt>
      <trkpt lat="45.59712" lon="5.73723">
        <ele>594</ele>
        <time>2019-10-27T13:09:11.000Z</time>
      </trkpt>
      <trkpt lat="45.59712" lon="5.73723">
        <ele>594</ele>
        <time>2019-10-27T13:09:12.000Z</time>
      </trkpt>
      <trkpt lat="45.59712" lon="5.73723">
        <ele>594</ele>
        <time>2019-10-27T13:09:13.000Z</time>
      </trkpt>
      <trkpt lat="45.59712" lon="5.73723">
        <ele>594</ele>
        <time>2019-10-27T13:09:14.000Z</time>
      </trkpt>
      <trkpt lat="45.59712" lon="5.73723">
        <ele>594</ele>
        <time>2019-10-27T13:09:15.000Z</time>
      </trkpt>
      <trkpt lat="45.59712" lon="5.73723">
        <ele>594</ele>
        <time>2019-10-27T13:09:16.000Z</time>
      </trkpt>
      <trkpt lat="45.59712" lon="5.73723">
        <ele>594</ele>
        <time>2019-10-27T13:09:17.000Z</time>
      </trkpt>
      <trkpt lat="45.59712" lon="5.73723">
        <ele>594</ele>
        <time>2019-10-27T13:09:18.000Z</time>
      </trkpt>
      <trkpt lat="45.59712" lon="5.73723">
        <ele>594</ele>
        <time>2019-10-27T13:09:19.000Z</time>
      </trkpt>
      <trkpt lat="45.59712" lon="5.73723">
        <ele>594</ele>
        <time>2019-10-27T13:09:20.000Z</time>
      </trkpt>
      <trkpt lat="45.59712" lon="5.73723">
        <ele>594</ele>
        <time>2019-10-27T13:09:21.000Z</time>
      </trkpt>
      <trkpt lat="45.59712" lon="5.73723">
        <ele>594</ele>
        <time>2019-10-27T13:09:22.000Z</time>
      </trkpt>
      <trkpt lat="45.59712" lon="5.73723">
        <ele>594</ele>
        <time>2019-10-27T13:09:23.000Z</time>
      </trkpt>
      <trkpt lat="45.59712" lon="5.73723">
        <ele>594</ele>
        <time>2019-10-27T13:09:24.000Z</time>
      </trkpt>
      <trkpt lat="45.59712" lon="5.73723">
        <ele>594</ele>
        <time>2019-10-27T13:09:25.000Z</time>
      </trkpt>
      <trkpt lat="45.59713" lon="5.73723">
        <ele>594</ele>
        <time>2019-10-27T13:09:26.000Z</time>
      </trkpt>
      <trkpt lat="45.59714" lon="5.73724">
        <ele>594</ele>
        <time>2019-10-27T13:09:27.000Z</time>
      </trkpt>
      <trkpt lat="45.59716" lon="5.73724">
        <ele>594</ele>
        <time>2019-10-27T13:09:28.000Z</time>
      </trkpt>
      <trkpt lat="45.59716" lon="5.73724">
        <ele>594</ele>
        <time>2019-10-27T13:09:29.000Z</time>
      </trkpt>
      <trkpt lat="45.59717" lon="5.73724">
        <ele>594</ele>
        <time>2019-10-27T13:09:30.000Z</time>
      </trkpt>
      <trkpt lat="45.59717" lon="5.73724">
        <ele>594</ele>
        <time>2019-10-27T13:09:31.000Z</time>
      </trkpt>
      <trkpt lat="45.59717" lon="5.73724">
        <ele>594</ele>
        <time>2019-10-27T13:09:32.000Z</time>
      </trkpt>
      <trkpt lat="45.59717" lon="5.73724">
        <ele>594</ele>
        <time>2019-10-27T13:09:33.000Z</time>
      </trkpt>
      <trkpt lat="45.59717" lon="5.73724">
        <ele>594</ele>
        <time>2019-10-27T13:09:34.000Z</time>
      </trkpt>
      <trkpt lat="45.59717" lon="5.73724">
        <ele>594</ele>
        <time>2019-10-27T13:09:35.000Z</time>
      </trkpt>
      <trkpt lat="45.59717" lon="5.73725">
        <ele>594</ele>
        <time>2019-10-27T13:09:36.000Z</time>
      </trkpt>
      <trkpt lat="45.59717" lon="5.73725">
        <ele>594</ele>
        <time>2019-10-27T13:09:37.000Z</time>
      </trkpt>
      <trkpt lat="45.59717" lon="5.73725">
        <ele>594</ele>
        <time>2019-10-27T13:09:38.000Z</time>
      </trkpt>
      <trkpt lat="45.59717" lon="5.73725">
        <ele>594</ele>
        <time>2019-10-27T13:09:39.000Z</time>
      </trkpt>
      <trkpt lat="45.59717" lon="5.73725">
        <ele>594</ele>
        <time>2019-10-27T13:09:40.000Z</time>
      </trkpt>
      <trkpt lat="45.59717" lon="5.73725">
        <ele>594</ele>
        <time>2019-10-27T13:09:41.000Z</time>
      </trkpt>
      <trkpt lat="45.59717" lon="5.73725">
        <ele>594</ele>
        <time>2019-10-27T13:09:42.000Z</time>
      </trkpt>
      <trkpt lat="45.59717" lon="5.73725">
        <ele>594</ele>
        <time>2019-10-27T13:09:43.000Z</time>
      </trkpt>
      <trkpt lat="45.59717" lon="5.73725">
        <ele>594</ele>
        <time>2019-10-27T13:09:44.000Z</time>
      </trkpt>
      <trkpt lat="45.59717" lon="5.73725">
        <ele>594</ele>
        <time>2019-10-27T13:09:45.000Z</time>
      </trkpt>
      <trkpt lat="45.59717" lon="5.73725">
        <ele>594</ele>
        <time>2019-10-27T13:09:46.000Z</time>
      </trkpt>
      <trkpt lat="45.59717" lon="5.73725">
        <ele>594</ele>
        <time>2019-10-27T13:09:47.000Z</time>
      </trkpt>
      <trkpt lat="45.59717" lon="5.73725">
        <ele>594</ele>
        <time>2019-10-27T13:09:48.000Z</time>
      </trkpt>
      <trkpt lat="45.59717" lon="5.73725">
        <ele>594</ele>
        <time>2019-10-27T13:09:49.000Z</time>
      </trkpt>
      <trkpt lat="45.59717" lon="5.73725">
        <ele>594</ele>
        <time>2019-10-27T13:09:50.000Z</time>
      </trkpt>
      <trkpt lat="45.59717" lon="5.73725">
        <ele>594</ele>
        <time>2019-10-27T13:09:51.000Z</time>
      </trkpt>
      <trkpt lat="45.59717" lon="5.73725">
        <ele>594</ele>
        <time>2019-10-27T13:09:52.000Z</time>
      </trkpt>
      <trkpt lat="45.59717" lon="5.73725">
        <ele>594</ele>
        <time>2019-10-27T13:09:53.000Z</time>
      </trkpt>
      <trkpt lat="45.59717" lon="5.73725">
        <ele>594</ele>
        <time>2019-10-27T13:09:54.000Z</time>
      </trkpt>
      <trkpt lat="45.59717" lon="5.73725">
        <ele>594</ele>
        <time>2019-10-27T13:09:55.000Z</time>
      </trkpt>
      <trkpt lat="45.59717" lon="5.73725">
        <ele>594</ele>
        <time>2019-10-27T13:09:56.000Z</time>
      </trkpt>
      <trkpt lat="45.59717" lon="5.73725">
        <ele>594</ele>
        <time>2019-10-27T13:09:57.000Z</time>
      </trkpt>
      <trkpt lat="45.59717" lon="5.73725">
        <ele>594</ele>
        <time>2019-10-27T13:09:58.000Z</time>
      </trkpt>
      <trkpt lat="45.59717" lon="5.73725">
        <ele>594</ele>
        <time>2019-10-27T13:09:59.000Z</time>
      </trkpt>
      <trkpt lat="45.59717" lon="5.73725">
        <ele>594</ele>
        <time>2019-10-27T13:10:00.000Z</time>
      </trkpt>
      <trkpt lat="45.59716" lon="5.73725">
        <ele>594</ele>
        <time>2019-10-27T13:10:01.000Z</time>
      </trkpt>
      <trkpt lat="45.59716" lon="5.73726">
        <ele>594</ele>
        <time>2019-10-27T13:10:02.000Z</time>
      </trkpt>
      <trkpt lat="45.59715" lon="5.73726">
        <ele>594</ele>
        <time>2019-10-27T13:10:03.000Z</time>
      </trkpt>
      <trkpt lat="45.59715" lon="5.73726">
        <ele>594</ele>
        <time>2019-10-27T13:10:04.000Z</time>
      </trkpt>
      <trkpt lat="45.59714" lon="5.73726">
        <ele>594</ele>
        <time>2019-10-27T13:10:05.000Z</time>
      </trkpt>
      <trkpt lat="45.59713" lon="5.73726">
        <ele>594</ele>
        <time>2019-10-27T13:10:06.000Z</time>
      </trkpt>
      <trkpt lat="45.59712" lon="5.73726">
        <ele>594</ele>
        <time>2019-10-27T13:10:07.000Z</time>
      </trkpt>
      <trkpt lat="45.59712" lon="5.73726">
        <ele>594</ele>
        <time>2019-10-27T13:10:08.000Z</time>
      </trkpt>
      <trkpt lat="45.59711" lon="5.73726">
        <ele>594</ele>
        <time>2019-10-27T13:10:09.000Z</time>
      </trkpt>
      <trkpt lat="45.59711" lon="5.73726">
        <ele>594</ele>
        <time>2019-10-27T13:10:10.000Z</time>
      </trkpt>
      <trkpt lat="45.59711" lon="5.73726">
        <ele>594</ele>
        <time>2019-10-27T13:10:11.000Z</time>
      </trkpt>
      <trkpt lat="45.5971" lon="5.73726">
        <ele>594</ele>
        <time>2019-10-27T13:10:12.000Z</time>
      </trkpt>
      <trkpt lat="45.5971" lon="5.73726">
        <ele>594</ele>
        <time>2019-10-27T13:10:13.000Z</time>
      </trkpt>
      <trkpt lat="45.5971" lon="5.73726">
        <ele>593</ele>
        <time>2019-10-27T13:10:14.000Z</time>
      </trkpt>
      <trkpt lat="45.5971" lon="5.73726">
        <ele>593</ele>
        <time>2019-10-27T13:10:15.000Z</time>
      </trkpt>
      <trkpt lat="45.5971" lon="5.73726">
        <ele>593</ele>
        <time>2019-10-27T13:10:16.000Z</time>
      </trkpt>
      <trkpt lat="45.5971" lon="5.73726">
        <ele>593</ele>
        <time>2019-10-27T13:10:17.000Z</time>
      </trkpt>
      <trkpt lat="45.5971" lon="5.73726">
        <ele>593</ele>
        <time>2019-10-27T13:10:18.000Z</time>
      </trkpt>
      <trkpt lat="45.5971" lon="5.73726">
        <ele>593</ele>
        <time>2019-10-27T13:10:19.000Z</time>
      </trkpt>
      <trkpt lat="45.5971" lon="5.73725">
        <ele>593</ele>
        <time>2019-10-27T13:10:20.000Z</time>
      </trkpt>
      <trkpt lat="45.59709" lon="5.73725">
        <ele>593</ele>
        <time>2019-10-27T13:10:21.000Z</time>
      </trkpt>
      <trkpt lat="45.59709" lon="5.73725">
        <ele>593</ele>
        <time>2019-10-27T13:10:22.000Z</time>
      </trkpt>
      <trkpt lat="45.59709" lon="5.73725">
        <ele>593</ele>
        <time>2019-10-27T13:10:23.000Z</time>
      </trkpt>
      <trkpt lat="45.59709" lon="5.73724">
        <ele>593.3</ele>
        <time>2019-10-27T13:10:24.000Z</time>
      </trkpt>
      <trkpt lat="45.59708" lon="5.73724">
        <ele>593.7</ele>
        <time>2019-10-27T13:10:25.000Z</time>
      </trkpt>
      <trkpt lat="45.59708" lon="5.73724">
        <ele>594</ele>
        <time>2019-10-27T13:10:26.000Z</time>
      </trkpt>
      <trkpt lat="45.59708" lon="5.73723">
        <ele>594</ele>
        <time>2019-10-27T13:10:27.000Z</time>
      </trkpt>
      <trkpt lat="45.59707" lon="5.73723">
        <ele>594</ele>
        <time>2019-10-27T13:10:28.000Z</time>
      </trkpt>
      <trkpt lat="45.59707" lon="5.73723">
        <ele>594</ele>
        <time>2019-10-27T13:10:29.000Z</time>
      </trkpt>
      <trkpt lat="45.59707" lon="5.73722">
        <ele>594</ele>
        <time>2019-10-27T13:10:30.000Z</time>
      </trkpt>
      <trkpt lat="45.59707" lon="5.73722">
        <ele>594</ele>
        <time>2019-10-27T13:10:31.000Z</time>
      </trkpt>
      <trkpt lat="45.59707" lon="5.73722">
        <ele>594</ele>
        <time>2019-10-27T13:10:32.000Z</time>
      </trkpt>
      <trkpt lat="45.59707" lon="5.73722">
        <ele>594</ele>
        <time>2019-10-27T13:10:33.000Z</time>
      </trkpt>
      <trkpt lat="45.59707" lon="5.73722">
        <ele>594</ele>
        <time>2019-10-27T13:10:34.000Z</time>
      </trkpt>
      <trkpt lat="45.59708" lon="5.73722">
        <ele>594</ele>
        <time>2019-10-27T13:10:35.000Z</time>
      </trkpt>
      <trkpt lat="45.59708" lon="5.73722">
        <ele>594</ele>
        <time>2019-10-27T13:10:36.000Z</time>
      </trkpt>
      <trkpt lat="45.59708" lon="5.73722">
        <ele>594</ele>
        <time>2019-10-27T13:10:37.000Z</time>
      </trkpt>
      <trkpt lat="45.59708" lon="5.73722">
        <ele>593.7</ele>
        <time>2019-10-27T13:10:38.000Z</time>
      </trkpt>
      <trkpt lat="45.59708" lon="5.73722">
        <ele>593.3</ele>
        <time>2019-10-27T13:10:39.000Z</time>
      </trkpt>
      <trkpt lat="45.59708" lon="5.73722">
        <ele>593</ele>
        <time>2019-10-27T13:10:40.000Z</time>
      </trkpt>
      <trkpt lat="45.59707" lon="5.73722">
        <ele>594</ele>
        <time>2019-10-27T13:10:41.000Z</time>
      </trkpt>
      <trkpt lat="45.59706" lon="5.73722">
        <ele>594</ele>
        <time>2019-10-27T13:10:42.000Z</time>
      </trkpt>
      <trkpt lat="45.59705" lon="5.73722">
        <ele>594</ele>
        <time>2019-10-27T13:10:43.000Z</time>
      </trkpt>
      <trkpt lat="45.59704" lon="5.73722">
        <ele>594</ele>
        <time>2019-10-27T13:10:44.000Z</time>
      </trkpt>
      <trkpt lat="45.59703" lon="5.73722">
        <ele>594</ele>
        <time>2019-10-27T13:10:45.000Z</time>
      </trkpt>
      <trkpt lat="45.59703" lon="5.73722">
        <ele>594</ele>
        <time>2019-10-27T13:10:46.000Z</time>
      </trkpt>
      <trkpt lat="45.59702" lon="5.73722">
        <ele>594</ele>
        <time>2019-10-27T13:10:47.000Z</time>
      </trkpt>
      <trkpt lat="45.59702" lon="5.73722">
        <ele>594</ele>
        <time>2019-10-27T13:10:48.000Z</time>
      </trkpt>
      <trkpt lat="45.59702" lon="5.73722">
        <ele>594</ele>
        <time>2019-10-27T13:10:49.000Z</time>
      </trkpt>
      <trkpt lat="45.59702" lon="5.73722">
        <ele>594</ele>
        <time>2019-10-27T13:10:50.000Z</time>
      </trkpt>
      <trkpt lat="45.59702" lon="5.73722">
        <ele>594</ele>
        <time>2019-10-27T13:10:51.000Z</time>
      </trkpt>
      <trkpt lat="45.59702" lon="5.73723">
        <ele>594</ele>
        <time>2019-10-27T13:10:52.000Z</time>
      </trkpt>
      <trkpt lat="45.59702" lon="5.73723">
        <ele>594</ele>
        <time>2019-10-27T13:10:53.000Z</time>
      </trkpt>
      <trkpt lat="45.59702" lon="5.73723">
        <ele>594</ele>
        <time>2019-10-27T13:10:54.000Z</time>
      </trkpt>
      <trkpt lat="45.59701" lon="5.73724">
        <ele>594</ele>
        <time>2019-10-27T13:10:55.000Z</time>
      </trkpt>
      <trkpt lat="45.59701" lon="5.73724">
        <ele>594</ele>
        <time>2019-10-27T13:10:56.000Z</time>
      </trkpt>
      <trkpt lat="45.59701" lon="5.73724">
        <ele>594</ele>
        <time>2019-10-27T13:10:57.000Z</time>
      </trkpt>
      <trkpt lat="45.59701" lon="5.73725">
        <ele>594</ele>
        <time>2019-10-27T13:10:58.000Z</time>
      </trkpt>
      <trkpt lat="45.59701" lon="5.73725">
        <ele>594</ele>
        <time>2019-10-27T13:10:59.000Z</time>
      </trkpt>
      <trkpt lat="45.597" lon="5.73726">
        <ele>594</ele>
        <time>2019-10-27T13:11:00.000Z</time>
      </trkpt>
      <trkpt lat="45.597" lon="5.73727">
        <ele>594</ele>
        <time>2019-10-27T13:11:01.000Z</time>
      </trkpt>
      <trkpt lat="45.597" lon="5.73727">
        <ele>594</ele>
        <time>2019-10-27T13:11:02.000Z</time>
      </trkpt>
      <trkpt lat="45.59699" lon="5.73728">
        <ele>593</ele>
        <time>2019-10-27T13:11:03.000Z</time>
      </trkpt>
      <trkpt lat="45.59698" lon="5.73729">
        <ele>593</ele>
        <time>2019-10-27T13:11:04.000Z</time>
      </trkpt>
      <trkpt lat="45.59698" lon="5.7373">
        <ele>593</ele>
        <time>2019-10-27T13:11:05.000Z</time>
      </trkpt>
      <trkpt lat="45.59697" lon="5.7373">
        <ele>593</ele>
        <time>2019-10-27T13:11:06.000Z</time>
      </trkpt>
      <trkpt lat="45.59697" lon="5.73731">
        <ele>593</ele>
        <time>2019-10-27T13:11:07.000Z</time>
      </trkpt>
      <trkpt lat="45.59696" lon="5.73732">
        <ele>593</ele>
        <time>2019-10-27T13:11:08.000Z</time>
      </trkpt>
      <trkpt lat="45.59696" lon="5.73733">
        <ele>593</ele>
        <time>2019-10-27T13:11:09.000Z</time>
      </trkpt>
      <trkpt lat="45.59695" lon="5.73734">
        <ele>593</ele>
        <time>2019-10-27T13:11:10.000Z</time>
      </trkpt>
      <trkpt lat="45.59695" lon="5.73734">
        <ele>593</ele>
        <time>2019-10-27T13:11:11.000Z</time>
      </trkpt>
      <trkpt lat="45.59695" lon="5.73735">
        <ele>593</ele>
        <time>2019-10-27T13:11:12.000Z</time>
      </trkpt>
      <trkpt lat="45.59695" lon="5.73736">
        <ele>593</ele>
        <time>2019-10-27T13:11:13.000Z</time>
      </trkpt>
      <trkpt lat="45.59694" lon="5.73736">
        <ele>593</ele>
        <time>2019-10-27T13:11:14.000Z</time>
      </trkpt>
      <trkpt lat="45.59694" lon="5.73737">
        <ele>593</ele>
        <time>2019-10-27T13:11:15.000Z</time>
      </trkpt>
      <trkpt lat="45.59694" lon="5.73737">
        <ele>593</ele>
        <time>2019-10-27T13:11:16.000Z</time>
      </trkpt>
      <trkpt lat="45.59694" lon="5.73738">
        <ele>593</ele>
        <time>2019-10-27T13:11:17.000Z</time>
      </trkpt>
      <trkpt lat="45.59695" lon="5.73738">
        <ele>593</ele>
        <time>2019-10-27T13:11:18.000Z</time>
      </trkpt>
      <trkpt lat="45.59695" lon="5.73738">
        <ele>593</ele>
        <time>2019-10-27T13:11:19.000Z</time>
      </trkpt>
      <trkpt lat="45.59695" lon="5.73739">
        <ele>593</ele>
        <time>2019-10-27T13:11:20.000Z</time>
      </trkpt>
      <trkpt lat="45.59695" lon="5.73739">
        <ele>593</ele>
        <time>2019-10-27T13:11:21.000Z</time>
      </trkpt>
      <trkpt lat="45.59696" lon="5.73739">
        <ele>593</ele>
        <time>2019-10-27T13:11:22.000Z</time>
      </trkpt>
      <trkpt lat="45.59696" lon="5.73739">
        <ele>593</ele>
        <time>2019-10-27T13:11:23.000Z</time>
      </trkpt>
      <trkpt lat="45.59696" lon="5.73739">
        <ele>593</ele>
        <time>2019-10-27T13:11:24.000Z</time>
      </trkpt>
      <trkpt lat="45.59696" lon="5.73739">
        <ele>593</ele>
        <time>2019-10-27T13:11:25.000Z</time>
      </trkpt>
      <trkpt lat="45.59696" lon="5.73739">
        <ele>593</ele>
        <time>2019-10-27T13:11:26.000Z</time>
      </trkpt>
      <trkpt lat="45.59696" lon="5.73739">
        <ele>593</ele>
        <time>2019-10-27T13:11:27.000Z</time>
      </trkpt>
      <trkpt lat="45.59697" lon="5.73739">
        <ele>593</ele>
        <time>2019-10-27T13:11:28.000Z</time>
      </trkpt>
      <trkpt lat="45.59697" lon="5.7374">
        <ele>593</ele>
        <time>2019-10-27T13:11:29.000Z</time>
      </trkpt>
      <trkpt lat="45.59697" lon="5.7374">
        <ele>593</ele>
        <time>2019-10-27T13:11:30.000Z</time>
      </trkpt>
      <trkpt lat="45.59697" lon="5.7374">
        <ele>593</ele>
        <time>2019-10-27T13:11:31.000Z</time>
      </trkpt>
      <trkpt lat="45.59697" lon="5.7374">
        <ele>593</ele>
        <time>2019-10-27T13:11:32.000Z</time>
      </trkpt>
      <trkpt lat="45.59697" lon="5.7374">
        <ele>593</ele>
        <time>2019-10-27T13:11:33.000Z</time>
      </trkpt>
      <trkpt lat="45.59697" lon="5.73741">
        <ele>593</ele>
        <time>2019-10-27T13:11:34.000Z</time>
      </trkpt>
      <trkpt lat="45.59697" lon="5.73741">
        <ele>593</ele>
        <time>2019-10-27T13:11:35.000Z</time>
      </trkpt>
      <trkpt lat="45.59697" lon="5.73742">
        <ele>593</ele>
        <time>2019-10-27T13:11:36.000Z</time>
      </trkpt>
      <trkpt lat="45.59697" lon="5.73742">
        <ele>593</ele>
        <time>2019-10-27T13:11:37.000Z</time>
      </trkpt>
      <trkpt lat="45.59698" lon="5.73743">
        <ele>593</ele>
        <time>2019-10-27T13:11:38.000Z</time>
      </trkpt>
      <trkpt lat="45.59698" lon="5.73743">
        <ele>593</ele>
        <time>2019-10-27T13:11:39.000Z</time>
      </trkpt>
      <trkpt lat="45.59698" lon="5.73744">
        <ele>593</ele>
        <time>2019-10-27T13:11:40.000Z</time>
      </trkpt>
      <trkpt lat="45.59698" lon="5.73744">
        <ele>593</ele>
        <time>2019-10-27T13:11:41.000Z</time>
      </trkpt>
      <trkpt lat="45.59698" lon="5.73744">
        <ele>593</ele>
        <time>2019-10-27T13:11:42.000Z</time>
      </trkpt>
      <trkpt lat="45.59699" lon="5.73745">
        <ele>593</ele>
        <time>2019-10-27T13:11:43.000Z</time>
      </trkpt>
      <trkpt lat="45.59699" lon="5.73745">
        <ele>593</ele>
        <time>2019-10-27T13:11:44.000Z</time>
      </trkpt>
      <trkpt lat="45.59699" lon="5.73745">
        <ele>593</ele>
        <time>2019-10-27T13:11:45.000Z</time>
      </trkpt>
      <trkpt lat="45.597" lon="5.73746">
        <ele>593</ele>
        <time>2019-10-27T13:11:46.000Z</time>
      </trkpt>
      <trkpt lat="45.597" lon="5.73746">
        <ele>593</ele>
        <time>2019-10-27T13:11:47.000Z</time>
      </trkpt>
      <trkpt lat="45.59701" lon="5.73746">
        <ele>593</ele>
        <time>2019-10-27T13:11:48.000Z</time>
      </trkpt>
      <trkpt lat="45.59701" lon="5.73746">
        <ele>593</ele>
        <time>2019-10-27T13:11:49.000Z</time>
      </trkpt>
      <trkpt lat="45.59701" lon="5.73746">
        <ele>593</ele>
        <time>2019-10-27T13:11:50.000Z</time>
      </trkpt>
      <trkpt lat="45.59701" lon="5.73746">
        <ele>593</ele>
        <time>2019-10-27T13:11:51.000Z</time>
      </trkpt>
      <trkpt lat="45.59701" lon="5.73745">
        <ele>593</ele>
        <time>2019-10-27T13:11:52.000Z</time>
      </trkpt>
      <trkpt lat="45.59701" lon="5.73745">
        <ele>593</ele>
        <time>2019-10-27T13:11:53.000Z</time>
      </trkpt>
      <trkpt lat="45.59701" lon="5.73745">
        <ele>593</ele>
        <time>2019-10-27T13:11:54.000Z</time>
      </trkpt>
      <trkpt lat="45.59701" lon="5.73745">
        <ele>593</ele>
        <time>2019-10-27T13:11:55.000Z</time>
      </trkpt>
      <trkpt lat="45.59701" lon="5.73745">
        <ele>593</ele>
        <time>2019-10-27T13:11:56.000Z</time>
      </trkpt>
      <trkpt lat="45.597" lon="5.73745">
        <ele>593</ele>
        <time>2019-10-27T13:11:57.000Z</time>
      </trkpt>
      <trkpt lat="45.597" lon="5.73745">
        <ele>593</ele>
        <time>2019-10-27T13:11:58.000Z</time>
      </trkpt>
      <trkpt lat="45.59699" lon="5.73745">
        <ele>593</ele>
        <time>2019-10-27T13:11:59.000Z</time>
      </trkpt>
      <trkpt lat="45.59698" lon="5.73746">
        <ele>593</ele>
        <time>2019-10-27T13:12:00.000Z</time>
      </trkpt>
      <trkpt lat="45.59697" lon="5.73746">
        <ele>593</ele>
        <time>2019-10-27T13:12:01.000Z</time>
      </trkpt>
      <trkpt lat="45.59696" lon="5.73747">
        <ele>593</ele>
        <time>2019-10-27T13:12:02.000Z</time>
      </trkpt>
      <trkpt lat="45.59695" lon="5.73747">
        <ele>593</ele>
        <time>2019-10-27T13:12:03.000Z</time>
      </trkpt>
      <trkpt lat="45.59694" lon="5.73748">
        <ele>593</ele>
        <time>2019-10-27T13:12:04.000Z</time>
      </trkpt>
      <trkpt lat="45.59693" lon="5.73749">
        <ele>593</ele>
        <time>2019-10-27T13:12:05.000Z</time>
      </trkpt>
      <trkpt lat="45.59692" lon="5.7375">
        <ele>593</ele>
        <time>2019-10-27T13:12:06.000Z</time>
      </trkpt>
      <trkpt lat="45.59692" lon="5.73751">
        <ele>593</ele>
        <time>2019-10-27T13:12:07.000Z</time>
      </trkpt>
      <trkpt lat="45.59691" lon="5.73752">
        <ele>593</ele>
        <time>2019-10-27T13:12:08.000Z</time>
      </trkpt>
      <trkpt lat="45.59691" lon="5.73753">
        <ele>593</ele>
        <time>2019-10-27T13:12:09.000Z</time>
      </trkpt>
      <trkpt lat="45.5969" lon="5.73754">
        <ele>593</ele>
        <time>2019-10-27T13:12:10.000Z</time>
      </trkpt>
      <trkpt lat="45.59689" lon="5.73756">
        <ele>593</ele>
        <time>2019-10-27T13:12:11.000Z</time>
      </trkpt>
      <trkpt lat="45.59689" lon="5.73757">
        <ele>593</ele>
        <time>2019-10-27T13:12:12.000Z</time>
      </trkpt>
      <trkpt lat="45.59688" lon="5.73758">
        <ele>593</ele>
        <time>2019-10-27T13:12:13.000Z</time>
      </trkpt>
      <trkpt lat="45.59688" lon="5.73759">
        <ele>593</ele>
        <time>2019-10-27T13:12:14.000Z</time>
      </trkpt>
      <trkpt lat="45.59687" lon="5.7376">
        <ele>593</ele>
        <time>2019-10-27T13:12:15.000Z</time>
      </trkpt>
      <trkpt lat="45.59686" lon="5.73761">
        <ele>593</ele>
        <time>2019-10-27T13:12:16.000Z</time>
      </trkpt>
      <trkpt lat="45.59685" lon="5.73763">
        <ele>593</ele>
        <time>2019-10-27T13:12:17.000Z</time>
      </trkpt>
      <trkpt lat="45.59684" lon="5.73764">
        <ele>593</ele>
        <time>2019-10-27T13:12:18.000Z</time>
      </trkpt>
      <trkpt lat="45.59683" lon="5.73765">
        <ele>593</ele>
        <time>2019-10-27T13:12:19.000Z</time>
      </trkpt>
      <trkpt lat="45.59683" lon="5.73766">
        <ele>593</ele>
        <time>2019-10-27T13:12:20.000Z</time>
      </trkpt>
      <trkpt lat="45.59682" lon="5.73767">
        <ele>593</ele>
        <time>2019-10-27T13:12:21.000Z</time>
      </trkpt>
      <trkpt lat="45.59681" lon="5.73768">
        <ele>592.7</ele>
        <time>2019-10-27T13:12:22.000Z</time>
      </trkpt>
      <trkpt lat="45.5968" lon="5.73769">
        <ele>592.3</ele>
        <time>2019-10-27T13:12:23.000Z</time>
      </trkpt>
      <trkpt lat="45.5968" lon="5.7377">
        <ele>592</ele>
        <time>2019-10-27T13:12:24.000Z</time>
      </trkpt>
      <trkpt lat="45.59679" lon="5.73771">
        <ele>593</ele>
        <time>2019-10-27T13:12:25.000Z</time>
      </trkpt>
      <trkpt lat="45.59678" lon="5.73773">
        <ele>592.7</ele>
        <time>2019-10-27T13:12:26.000Z</time>
      </trkpt>
      <trkpt lat="45.59678" lon="5.73774">
        <ele>592.3</ele>
        <time>2019-10-27T13:12:27.000Z</time>
      </trkpt>
      <trkpt lat="45.59677" lon="5.73775">
        <ele>592</ele>
        <time>2019-10-27T13:12:28.000Z</time>
      </trkpt>
      <trkpt lat="45.59676" lon="5.73776">
        <ele>592</ele>
        <time>2019-10-27T13:12:29.000Z</time>
      </trkpt>
      <trkpt lat="45.59676" lon="5.73777">
        <ele>592</ele>
        <time>2019-10-27T13:12:30.000Z</time>
      </trkpt>
      <trkpt lat="45.59675" lon="5.73779">
        <ele>592</ele>
        <time>2019-10-27T13:12:31.000Z</time>
      </trkpt>
      <trkpt lat="45.59674" lon="5.7378">
        <ele>592</ele>
        <time>2019-10-27T13:12:32.000Z</time>
      </trkpt>
      <trkpt lat="45.59673" lon="5.73781">
        <ele>592</ele>
        <time>2019-10-27T13:12:33.000Z</time>
      </trkpt>
      <trkpt lat="45.59672" lon="5.73783">
        <ele>592</ele>
        <time>2019-10-27T13:12:34.000Z</time>
      </trkpt>
      <trkpt lat="45.59671" lon="5.73784">
        <ele>592.5</ele>
        <time>2019-10-27T13:12:35.000Z</time>
      </trkpt>
      <trkpt lat="45.5967" lon="5.73785">
        <ele>593</ele>
        <time>2019-10-27T13:12:36.000Z</time>
      </trkpt>
      <trkpt lat="45.59669" lon="5.73787">
        <ele>593</ele>
        <time>2019-10-27T13:12:37.000Z</time>
      </trkpt>
      <trkpt lat="45.59668" lon="5.73788">
        <ele>592.7</ele>
        <time>2019-10-27T13:12:38.000Z</time>
      </trkpt>
      <trkpt lat="45.59667" lon="5.73789">
        <ele>592.3</ele>
        <time>2019-10-27T13:12:39.000Z</time>
      </trkpt>
      <trkpt lat="45.59666" lon="5.73791">
        <ele>592</ele>
        <time>2019-10-27T13:12:40.000Z</time>
      </trkpt>
      <trkpt lat="45.59665" lon="5.73792">
        <ele>592</ele>
        <time>2019-10-27T13:12:41.000Z</time>
      </trkpt>
      <trkpt lat="45.59664" lon="5.73793">
        <ele>592</ele>
        <time>2019-10-27T13:12:42.000Z</time>
      </trkpt>
      <trkpt lat="45.59662" lon="5.73794">
        <ele>592</ele>
        <time>2019-10-27T13:12:43.000Z</time>
      </trkpt>
      <trkpt lat="45.59661" lon="5.73795">
        <ele>592.3</ele>
        <time>2019-10-27T13:12:44.000Z</time>
      </trkpt>
      <trkpt lat="45.5966" lon="5.73796">
        <ele>592.7</ele>
        <time>2019-10-27T13:12:45.000Z</time>
      </trkpt>
      <trkpt lat="45.59659" lon="5.73797">
        <ele>593</ele>
        <time>2019-10-27T13:12:46.000Z</time>
      </trkpt>
      <trkpt lat="45.59658" lon="5.73799">
        <ele>593</ele>
        <time>2019-10-27T13:12:47.000Z</time>
      </trkpt>
      <trkpt lat="45.59657" lon="5.738">
        <ele>593</ele>
        <time>2019-10-27T13:12:48.000Z</time>
      </trkpt>
      <trkpt lat="45.59656" lon="5.73801">
        <ele>593</ele>
        <time>2019-10-27T13:12:49.000Z</time>
      </trkpt>
      <trkpt lat="45.59654" lon="5.73802">
        <ele>593</ele>
        <time>2019-10-27T13:12:50.000Z</time>
      </trkpt>
      <trkpt lat="45.59653" lon="5.73803">
        <ele>593</ele>
        <time>2019-10-27T13:12:51.000Z</time>
      </trkpt>
      <trkpt lat="45.59652" lon="5.73804">
        <ele>593.3</ele>
        <time>2019-10-27T13:12:52.000Z</time>
      </trkpt>
      <trkpt lat="45.59651" lon="5.73805">
        <ele>593.7</ele>
        <time>2019-10-27T13:12:53.000Z</time>
      </trkpt>
      <trkpt lat="45.5965" lon="5.73805">
        <ele>594</ele>
        <time>2019-10-27T13:12:54.000Z</time>
      </trkpt>
      <trkpt lat="45.59649" lon="5.73806">
        <ele>594</ele>
        <time>2019-10-27T13:12:55.000Z</time>
      </trkpt>
      <trkpt lat="45.59648" lon="5.73807">
        <ele>594</ele>
        <time>2019-10-27T13:12:56.000Z</time>
      </trkpt>
      <trkpt lat="45.59647" lon="5.73808">
        <ele>594</ele>
        <time>2019-10-27T13:12:57.000Z</time>
      </trkpt>
      <trkpt lat="45.59646" lon="5.73809">
        <ele>594</ele>
        <time>2019-10-27T13:12:58.000Z</time>
      </trkpt>
      <trkpt lat="45.59646" lon="5.73809">
        <ele>595</ele>
        <time>2019-10-27T13:12:59.000Z</time>
      </trkpt>
      <trkpt lat="45.59645" lon="5.7381">
        <ele>595</ele>
        <time>2019-10-27T13:13:00.000Z</time>
      </trkpt>
      <trkpt lat="45.59645" lon="5.7381">
        <ele>595</ele>
        <time>2019-10-27T13:13:01.000Z</time>
      </trkpt>
      <trkpt lat="45.59645" lon="5.7381">
        <ele>595</ele>
        <time>2019-10-27T13:13:02.000Z</time>
      </trkpt>
      <trkpt lat="45.59645" lon="5.73811">
        <ele>595</ele>
        <time>2019-10-27T13:13:03.000Z</time>
      </trkpt>
      <trkpt lat="45.59644" lon="5.73811">
        <ele>595</ele>
        <time>2019-10-27T13:13:04.000Z</time>
      </trkpt>
      <trkpt lat="45.59644" lon="5.73811">
        <ele>595</ele>
        <time>2019-10-27T13:13:05.000Z</time>
      </trkpt>
      <trkpt lat="45.59644" lon="5.73812">
        <ele>595</ele>
        <time>2019-10-27T13:13:06.000Z</time>
      </trkpt>
      <trkpt lat="45.59643" lon="5.73812">
        <ele>595</ele>
        <time>2019-10-27T13:13:07.000Z</time>
      </trkpt>
      <trkpt lat="45.59643" lon="5.73812">
        <ele>595</ele>
        <time>2019-10-27T13:13:08.000Z</time>
      </trkpt>
      <trkpt lat="45.59642" lon="5.73812">
        <ele>595</ele>
        <time>2019-10-27T13:13:09.000Z</time>
      </trkpt>
      <trkpt lat="45.59642" lon="5.73813">
        <ele>595</ele>
        <time>2019-10-27T13:13:10.000Z</time>
      </trkpt>
      <trkpt lat="45.59641" lon="5.73813">
        <ele>595</ele>
        <time>2019-10-27T13:13:11.000Z</time>
      </trkpt>
      <trkpt lat="45.59641" lon="5.73813">
        <ele>595</ele>
        <time>2019-10-27T13:13:12.000Z</time>
      </trkpt>
      <trkpt lat="45.5964" lon="5.73813">
        <ele>595</ele>
        <time>2019-10-27T13:13:13.000Z</time>
      </trkpt>
      <trkpt lat="45.59639" lon="5.73813">
        <ele>595</ele>
        <time>2019-10-27T13:13:14.000Z</time>
      </trkpt>
      <trkpt lat="45.59639" lon="5.73813">
        <ele>595</ele>
        <time>2019-10-27T13:13:15.000Z</time>
      </trkpt>
      <trkpt lat="45.59638" lon="5.73813">
        <ele>595</ele>
        <time>2019-10-27T13:13:16.000Z</time>
      </trkpt>
      <trkpt lat="45.59637" lon="5.73812">
        <ele>595.5</ele>
        <time>2019-10-27T13:13:17.000Z</time>
      </trkpt>
      <trkpt lat="45.59637" lon="5.73812">
        <ele>596</ele>
        <time>2019-10-27T13:13:18.000Z</time>
      </trkpt>
      <trkpt lat="45.59636" lon="5.73811">
        <ele>596</ele>
        <time>2019-10-27T13:13:19.000Z</time>
      </trkpt>
      <trkpt lat="45.59636" lon="5.73811">
        <ele>596</ele>
        <time>2019-10-27T13:13:20.000Z</time>
      </trkpt>
      <trkpt lat="45.59635" lon="5.7381">
        <ele>596</ele>
        <time>2019-10-27T13:13:21.000Z</time>
      </trkpt>
      <trkpt lat="45.59634" lon="5.73809">
        <ele>596</ele>
        <time>2019-10-27T13:13:22.000Z</time>
      </trkpt>
      <trkpt lat="45.59634" lon="5.73809">
        <ele>596</ele>
        <time>2019-10-27T13:13:23.000Z</time>
      </trkpt>
      <trkpt lat="45.59633" lon="5.73808">
        <ele>596</ele>
        <time>2019-10-27T13:13:24.000Z</time>
      </trkpt>
      <trkpt lat="45.59632" lon="5.73807">
        <ele>596</ele>
        <time>2019-10-27T13:13:25.000Z</time>
      </trkpt>
      <trkpt lat="45.59632" lon="5.73806">
        <ele>596</ele>
        <time>2019-10-27T13:13:26.000Z</time>
      </trkpt>
      <trkpt lat="45.59631" lon="5.73805">
        <ele>597</ele>
        <time>2019-10-27T13:13:27.000Z</time>
      </trkpt>
      <trkpt lat="45.59631" lon="5.73804">
        <ele>597</ele>
        <time>2019-10-27T13:13:28.000Z</time>
      </trkpt>
      <trkpt lat="45.5963" lon="5.73803">
        <ele>597</ele>
        <time>2019-10-27T13:13:29.000Z</time>
      </trkpt>
      <trkpt lat="45.5963" lon="5.73801">
        <ele>597</ele>
        <time>2019-10-27T13:13:30.000Z</time>
      </trkpt>
      <trkpt lat="45.59629" lon="5.738">
        <ele>597</ele>
        <time>2019-10-27T13:13:31.000Z</time>
      </trkpt>
      <trkpt lat="45.59629" lon="5.73799">
        <ele>597</ele>
        <time>2019-10-27T13:13:32.000Z</time>
      </trkpt>
      <trkpt lat="45.59628" lon="5.73798">
        <ele>597</ele>
        <time>2019-10-27T13:13:33.000Z</time>
      </trkpt>
      <trkpt lat="45.59628" lon="5.73797">
        <ele>597.3</ele>
        <time>2019-10-27T13:13:34.000Z</time>
      </trkpt>
      <trkpt lat="45.59627" lon="5.73795">
        <ele>597.7</ele>
        <time>2019-10-27T13:13:35.000Z</time>
      </trkpt>
      <trkpt lat="45.59627" lon="5.73794">
        <ele>598</ele>
        <time>2019-10-27T13:13:36.000Z</time>
      </trkpt>
      <trkpt lat="45.59626" lon="5.73793">
        <ele>598</ele>
        <time>2019-10-27T13:13:37.000Z</time>
      </trkpt>
      <trkpt lat="45.59626" lon="5.73791">
        <ele>598</ele>
        <time>2019-10-27T13:13:38.000Z</time>
      </trkpt>
      <trkpt lat="45.59625" lon="5.7379">
        <ele>598</ele>
        <time>2019-10-27T13:13:39.000Z</time>
      </trkpt>
      <trkpt lat="45.59625" lon="5.73789">
        <ele>598</ele>
        <time>2019-10-27T13:13:40.000Z</time>
      </trkpt>
      <trkpt lat="45.59624" lon="5.73787">
        <ele>598</ele>
        <time>2019-10-27T13:13:41.000Z</time>
      </trkpt>
      <trkpt lat="45.59624" lon="5.73786">
        <ele>598.3</ele>
        <time>2019-10-27T13:13:42.000Z</time>
      </trkpt>
      <trkpt lat="45.59623" lon="5.73785">
        <ele>598.7</ele>
        <time>2019-10-27T13:13:43.000Z</time>
      </trkpt>
      <trkpt lat="45.59623" lon="5.73783">
        <ele>599</ele>
        <time>2019-10-27T13:13:44.000Z</time>
      </trkpt>
      <trkpt lat="45.59622" lon="5.73782">
        <ele>599</ele>
        <time>2019-10-27T13:13:45.000Z</time>
      </trkpt>
      <trkpt lat="45.59622" lon="5.73781">
        <ele>599</ele>
        <time>2019-10-27T13:13:46.000Z</time>
      </trkpt>
      <trkpt lat="45.59621" lon="5.7378">
        <ele>599</ele>
        <time>2019-10-27T13:13:47.000Z</time>
      </trkpt>
      <trkpt lat="45.5962" lon="5.73778">
        <ele>599</ele>
        <time>2019-10-27T13:13:48.000Z</time>
      </trkpt>
      <trkpt lat="45.5962" lon="5.73777">
        <ele>599</ele>
        <time>2019-10-27T13:13:49.000Z</time>
      </trkpt>
      <trkpt lat="45.59619" lon="5.73776">
        <ele>599</ele>
        <time>2019-10-27T13:13:50.000Z</time>
      </trkpt>
      <trkpt lat="45.59619" lon="5.73775">
        <ele>599</ele>
        <time>2019-10-27T13:13:51.000Z</time>
      </trkpt>
      <trkpt lat="45.59618" lon="5.73774">
        <ele>599.3</ele>
        <time>2019-10-27T13:13:52.000Z</time>
      </trkpt>
      <trkpt lat="45.59617" lon="5.73773">
        <ele>599.7</ele>
        <time>2019-10-27T13:13:53.000Z</time>
      </trkpt>
      <trkpt lat="45.59616" lon="5.73772">
        <ele>600</ele>
        <time>2019-10-27T13:13:54.000Z</time>
      </trkpt>
      <trkpt lat="45.59616" lon="5.73771">
        <ele>600</ele>
        <time>2019-10-27T13:13:55.000Z</time>
      </trkpt>
      <trkpt lat="45.59615" lon="5.7377">
        <ele>600</ele>
        <time>2019-10-27T13:13:56.000Z</time>
      </trkpt>
      <trkpt lat="45.59614" lon="5.73769">
        <ele>600</ele>
        <time>2019-10-27T13:13:57.000Z</time>
      </trkpt>
      <trkpt lat="45.59613" lon="5.73768">
        <ele>600</ele>
        <time>2019-10-27T13:13:58.000Z</time>
      </trkpt>
      <trkpt lat="45.59612" lon="5.73767">
        <ele>600</ele>
        <time>2019-10-27T13:13:59.000Z</time>
      </trkpt>
      <trkpt lat="45.59611" lon="5.73766">
        <ele>600</ele>
        <time>2019-10-27T13:14:00.000Z</time>
      </trkpt>
      <trkpt lat="45.59611" lon="5.73765">
        <ele>600</ele>
        <time>2019-10-27T13:14:01.000Z</time>
      </trkpt>
      <trkpt lat="45.5961" lon="5.73764">
        <ele>600</ele>
        <time>2019-10-27T13:14:02.000Z</time>
      </trkpt>
      <trkpt lat="45.59609" lon="5.73764">
        <ele>600</ele>
        <time>2019-10-27T13:14:03.000Z</time>
      </trkpt>
      <trkpt lat="45.59608" lon="5.73763">
        <ele>600</ele>
        <time>2019-10-27T13:14:04.000Z</time>
      </trkpt>
      <trkpt lat="45.59606" lon="5.73762">
        <ele>600</ele>
        <time>2019-10-27T13:14:05.000Z</time>
      </trkpt>
      <trkpt lat="45.59605" lon="5.73762">
        <ele>600</ele>
        <time>2019-10-27T13:14:06.000Z</time>
      </trkpt>
      <trkpt lat="45.59604" lon="5.73761">
        <ele>599.5</ele>
        <time>2019-10-27T13:14:07.000Z</time>
      </trkpt>
      <trkpt lat="45.59603" lon="5.73761">
        <ele>599</ele>
        <time>2019-10-27T13:14:08.000Z</time>
      </trkpt>
      <trkpt lat="45.59602" lon="5.7376">
        <ele>599</ele>
        <time>2019-10-27T13:14:09.000Z</time>
      </trkpt>
      <trkpt lat="45.59601" lon="5.7376">
        <ele>599</ele>
        <time>2019-10-27T13:14:10.000Z</time>
      </trkpt>
      <trkpt lat="45.59599" lon="5.7376">
        <ele>599</ele>
        <time>2019-10-27T13:14:11.000Z</time>
      </trkpt>
      <trkpt lat="45.59598" lon="5.73759">
        <ele>599</ele>
        <time>2019-10-27T13:14:12.000Z</time>
      </trkpt>
      <trkpt lat="45.59597" lon="5.73759">
        <ele>599</ele>
        <time>2019-10-27T13:14:13.000Z</time>
      </trkpt>
      <trkpt lat="45.59595" lon="5.73759">
        <ele>599</ele>
        <time>2019-10-27T13:14:14.000Z</time>
      </trkpt>
      <trkpt lat="45.59594" lon="5.73759">
        <ele>599</ele>
        <time>2019-10-27T13:14:15.000Z</time>
      </trkpt>
      <trkpt lat="45.59592" lon="5.73758">
        <ele>599</ele>
        <time>2019-10-27T13:14:16.000Z</time>
      </trkpt>
      <trkpt lat="45.59591" lon="5.73758">
        <ele>599</ele>
        <time>2019-10-27T13:14:17.000Z</time>
      </trkpt>
      <trkpt lat="45.5959" lon="5.73758">
        <ele>599</ele>
        <time>2019-10-27T13:14:18.000Z</time>
      </trkpt>
      <trkpt lat="45.59588" lon="5.73758">
        <ele>599</ele>
        <time>2019-10-27T13:14:19.000Z</time>
      </trkpt>
      <trkpt lat="45.59587" lon="5.73758">
        <ele>599</ele>
        <time>2019-10-27T13:14:20.000Z</time>
      </trkpt>
      <trkpt lat="45.59585" lon="5.73758">
        <ele>599</ele>
        <time>2019-10-27T13:14:21.000Z</time>
      </trkpt>
      <trkpt lat="45.59584" lon="5.73757">
        <ele>599</ele>
        <time>2019-10-27T13:14:22.000Z</time>
      </trkpt>
      <trkpt lat="45.59582" lon="5.73757">
        <ele>599</ele>
        <time>2019-10-27T13:14:23.000Z</time>
      </trkpt>
      <trkpt lat="45.59581" lon="5.73757">
        <ele>599</ele>
        <time>2019-10-27T13:14:24.000Z</time>
      </trkpt>
      <trkpt lat="45.59579" lon="5.73757">
        <ele>599</ele>
        <time>2019-10-27T13:14:25.000Z</time>
      </trkpt>
      <trkpt lat="45.59577" lon="5.73757">
        <ele>599</ele>
        <time>2019-10-27T13:14:26.000Z</time>
      </trkpt>
      <trkpt lat="45.59576" lon="5.73756">
        <ele>599</ele>
        <time>2019-10-27T13:14:27.000Z</time>
      </trkpt>
      <trkpt lat="45.59574" lon="5.73756">
        <ele>599</ele>
        <time>2019-10-27T13:14:28.000Z</time>
      </trkpt>
      <trkpt lat="45.59573" lon="5.73756">
        <ele>599</ele>
        <time>2019-10-27T13:14:29.000Z</time>
      </trkpt>
      <trkpt lat="45.59571" lon="5.73756">
        <ele>599</ele>
        <time>2019-10-27T13:14:30.000Z</time>
      </trkpt>
      <trkpt lat="45.5957" lon="5.73756">
        <ele>598.5</ele>
        <time>2019-10-27T13:14:31.000Z</time>
      </trkpt>
      <trkpt lat="45.59568" lon="5.73755">
        <ele>598</ele>
        <time>2019-10-27T13:14:32.000Z</time>
      </trkpt>
      <trkpt lat="45.59567" lon="5.73755">
        <ele>598</ele>
        <time>2019-10-27T13:14:33.000Z</time>
      </trkpt>
      <trkpt lat="45.59566" lon="5.73755">
        <ele>598</ele>
        <time>2019-10-27T13:14:34.000Z</time>
      </trkpt>
      <trkpt lat="45.59564" lon="5.73754">
        <ele>598</ele>
        <time>2019-10-27T13:14:35.000Z</time>
      </trkpt>
      <trkpt lat="45.59563" lon="5.73754">
        <ele>598</ele>
        <time>2019-10-27T13:14:36.000Z</time>
      </trkpt>
      <trkpt lat="45.59562" lon="5.73754">
        <ele>598</ele>
        <time>2019-10-27T13:14:37.000Z</time>
      </trkpt>
      <trkpt lat="45.59561" lon="5.73754">
        <ele>598</ele>
        <time>2019-10-27T13:14:38.000Z</time>
      </trkpt>
      <trkpt lat="45.59559" lon="5.73753">
        <ele>598</ele>
        <time>2019-10-27T13:14:39.000Z</time>
      </trkpt>
      <trkpt lat="45.59558" lon="5.73753">
        <ele>598</ele>
        <time>2019-10-27T13:14:40.000Z</time>
      </trkpt>
      <trkpt lat="45.59557" lon="5.73753">
        <ele>598</ele>
        <time>2019-10-27T13:14:41.000Z</time>
      </trkpt>
      <trkpt lat="45.59556" lon="5.73752">
        <ele>598</ele>
        <time>2019-10-27T13:14:42.000Z</time>
      </trkpt>
      <trkpt lat="45.59555" lon="5.73752">
        <ele>598</ele>
        <time>2019-10-27T13:14:43.000Z</time>
      </trkpt>
      <trkpt lat="45.59554" lon="5.73752">
        <ele>598</ele>
        <time>2019-10-27T13:14:44.000Z</time>
      </trkpt>
      <trkpt lat="45.59553" lon="5.73752">
        <ele>598</ele>
        <time>2019-10-27T13:14:45.000Z</time>
      </trkpt>
      <trkpt lat="45.59552" lon="5.73751">
        <ele>598</ele>
        <time>2019-10-27T13:14:46.000Z</time>
      </trkpt>
      <trkpt lat="45.59551" lon="5.73751">
        <ele>598</ele>
        <time>2019-10-27T13:14:47.000Z</time>
      </trkpt>
      <trkpt lat="45.5955" lon="5.73751">
        <ele>598</ele>
        <time>2019-10-27T13:14:48.000Z</time>
      </trkpt>
      <trkpt lat="45.59549" lon="5.73751">
        <ele>598</ele>
        <time>2019-10-27T13:14:49.000Z</time>
      </trkpt>
      <trkpt lat="45.59547" lon="5.73751">
        <ele>598</ele>
        <time>2019-10-27T13:14:50.000Z</time>
      </trkpt>
      <trkpt lat="45.59546" lon="5.7375">
        <ele>598</ele>
        <time>2019-10-27T13:14:51.000Z</time>
      </trkpt>
      <trkpt lat="45.59545" lon="5.7375">
        <ele>598</ele>
        <time>2019-10-27T13:14:52.000Z</time>
      </trkpt>
      <trkpt lat="45.59543" lon="5.7375">
        <ele>598</ele>
        <time>2019-10-27T13:14:53.000Z</time>
      </trkpt>
      <trkpt lat="45.59542" lon="5.7375">
        <ele>598</ele>
        <time>2019-10-27T13:14:54.000Z</time>
      </trkpt>
      <trkpt lat="45.5954" lon="5.7375">
        <ele>597.5</ele>
        <time>2019-10-27T13:14:55.000Z</time>
      </trkpt>
      <trkpt lat="45.59539" lon="5.7375">
        <ele>597</ele>
        <time>2019-10-27T13:14:56.000Z</time>
      </trkpt>
      <trkpt lat="45.59537" lon="5.7375">
        <ele>597</ele>
        <time>2019-10-27T13:14:57.000Z</time>
      </trkpt>
      <trkpt lat="45.59536" lon="5.7375">
        <ele>597</ele>
        <time>2019-10-27T13:14:58.000Z</time>
      </trkpt>
      <trkpt lat="45.59535" lon="5.7375">
        <ele>597</ele>
        <time>2019-10-27T13:14:59.000Z</time>
      </trkpt>
      <trkpt lat="45.59533" lon="5.7375">
        <ele>597</ele>
        <time>2019-10-27T13:15:00.000Z</time>
      </trkpt>
      <trkpt lat="45.59532" lon="5.7375">
        <ele>597</ele>
        <time>2019-10-27T13:15:01.000Z</time>
      </trkpt>
      <trkpt lat="45.59531" lon="5.7375">
        <ele>597</ele>
        <time>2019-10-27T13:15:02.000Z</time>
      </trkpt>
      <trkpt lat="45.5953" lon="5.73751">
        <ele>597</ele>
        <time>2019-10-27T13:15:03.000Z</time>
      </trkpt>
      <trkpt lat="45.59529" lon="5.73751">
        <ele>597</ele>
        <time>2019-10-27T13:15:04.000Z</time>
      </trkpt>
      <trkpt lat="45.59528" lon="5.73751">
        <ele>597</ele>
        <time>2019-10-27T13:15:05.000Z</time>
      </trkpt>
      <trkpt lat="45.59526" lon="5.73751">
        <ele>597</ele>
        <time>2019-10-27T13:15:06.000Z</time>
      </trkpt>
      <trkpt lat="45.59525" lon="5.73752">
        <ele>597</ele>
        <time>2019-10-27T13:15:07.000Z</time>
      </trkpt>
      <trkpt lat="45.59524" lon="5.73752">
        <ele>597</ele>
        <time>2019-10-27T13:15:08.000Z</time>
      </trkpt>
      <trkpt lat="45.59523" lon="5.73753">
        <ele>597</ele>
        <time>2019-10-27T13:15:09.000Z</time>
      </trkpt>
      <trkpt lat="45.59522" lon="5.73754">
        <ele>597</ele>
        <time>2019-10-27T13:15:10.000Z</time>
      </trkpt>
      <trkpt lat="45.59521" lon="5.73754">
        <ele>597</ele>
        <time>2019-10-27T13:15:11.000Z</time>
      </trkpt>
      <trkpt lat="45.5952" lon="5.73755">
        <ele>597</ele>
        <time>2019-10-27T13:15:12.000Z</time>
      </trkpt>
      <trkpt lat="45.59519" lon="5.73756">
        <ele>596.5</ele>
        <time>2019-10-27T13:15:13.000Z</time>
      </trkpt>
      <trkpt lat="45.59518" lon="5.73757">
        <ele>596</ele>
        <time>2019-10-27T13:15:14.000Z</time>
      </trkpt>
      <trkpt lat="45.59517" lon="5.73758">
        <ele>596</ele>
        <time>2019-10-27T13:15:15.000Z</time>
      </trkpt>
      <trkpt lat="45.59516" lon="5.73759">
        <ele>596</ele>
        <time>2019-10-27T13:15:16.000Z</time>
      </trkpt>
      <trkpt lat="45.59515" lon="5.73761">
        <ele>596</ele>
        <time>2019-10-27T13:15:17.000Z</time>
      </trkpt>
      <trkpt lat="45.59514" lon="5.73762">
        <ele>596</ele>
        <time>2019-10-27T13:15:18.000Z</time>
      </trkpt>
      <trkpt lat="45.59513" lon="5.73763">
        <ele>596</ele>
        <time>2019-10-27T13:15:19.000Z</time>
      </trkpt>
      <trkpt lat="45.59512" lon="5.73765">
        <ele>596</ele>
        <time>2019-10-27T13:15:20.000Z</time>
      </trkpt>
      <trkpt lat="45.59511" lon="5.73766">
        <ele>596</ele>
        <time>2019-10-27T13:15:21.000Z</time>
      </trkpt>
      <trkpt lat="45.5951" lon="5.73768">
        <ele>596</ele>
        <time>2019-10-27T13:15:22.000Z</time>
      </trkpt>
      <trkpt lat="45.59509" lon="5.73769">
        <ele>596</ele>
        <time>2019-10-27T13:15:23.000Z</time>
      </trkpt>
      <trkpt lat="45.59508" lon="5.7377">
        <ele>596</ele>
        <time>2019-10-27T13:15:24.000Z</time>
      </trkpt>
      <trkpt lat="45.59508" lon="5.73772">
        <ele>595.5</ele>
        <time>2019-10-27T13:15:25.000Z</time>
      </trkpt>
      <trkpt lat="45.59507" lon="5.73773">
        <ele>595</ele>
        <time>2019-10-27T13:15:26.000Z</time>
      </trkpt>
      <trkpt lat="45.59506" lon="5.73774">
        <ele>595</ele>
        <time>2019-10-27T13:15:27.000Z</time>
      </trkpt>
      <trkpt lat="45.59506" lon="5.73775">
        <ele>595</ele>
        <time>2019-10-27T13:15:28.000Z</time>
      </trkpt>
      <trkpt lat="45.59505" lon="5.73776">
        <ele>595</ele>
        <time>2019-10-27T13:15:29.000Z</time>
      </trkpt>
      <trkpt lat="45.59504" lon="5.73777">
        <ele>595</ele>
        <time>2019-10-27T13:15:30.000Z</time>
      </trkpt>
      <trkpt lat="45.59504" lon="5.73778">
        <ele>595</ele>
        <time>2019-10-27T13:15:31.000Z</time>
      </trkpt>
      <trkpt lat="45.59503" lon="5.73779">
        <ele>595</ele>
        <time>2019-10-27T13:15:32.000Z</time>
      </trkpt>
      <trkpt lat="45.59503" lon="5.7378">
        <ele>595</ele>
        <time>2019-10-27T13:15:33.000Z</time>
      </trkpt>
      <trkpt lat="45.59502" lon="5.73781">
        <ele>595</ele>
        <time>2019-10-27T13:15:34.000Z</time>
      </trkpt>
      <trkpt lat="45.59502" lon="5.73783">
        <ele>594.5</ele>
        <time>2019-10-27T13:15:35.000Z</time>
      </trkpt>
      <trkpt lat="45.59501" lon="5.73783">
        <ele>594</ele>
        <time>2019-10-27T13:15:36.000Z</time>
      </trkpt>
      <trkpt lat="45.595" lon="5.73784">
        <ele>594</ele>
        <time>2019-10-27T13:15:37.000Z</time>
      </trkpt>
      <trkpt lat="45.595" lon="5.73785">
        <ele>594</ele>
        <time>2019-10-27T13:15:38.000Z</time>
      </trkpt>
      <trkpt lat="45.59501" lon="5.73789">
        <ele>594</ele>
        <time>2019-10-27T13:15:39.000Z</time>
      </trkpt>
      <trkpt lat="45.59503" lon="5.73793">
        <ele>594</ele>
        <time>2019-10-27T13:15:40.000Z</time>
      </trkpt>
      <trkpt lat="45.59506" lon="5.73797">
        <ele>594</ele>
        <time>2019-10-27T13:15:41.000Z</time>
      </trkpt>
      <trkpt lat="45.5951" lon="5.738">
        <ele>594</ele>
        <time>2019-10-27T13:15:42.000Z</time>
      </trkpt>
      <trkpt lat="45.59513" lon="5.73801">
        <ele>593.5</ele>
        <time>2019-10-27T13:15:43.000Z</time>
      </trkpt>
      <trkpt lat="45.59515" lon="5.73802">
        <ele>593</ele>
        <time>2019-10-27T13:15:44.000Z</time>
      </trkpt>
      <trkpt lat="45.59517" lon="5.73803">
        <ele>593</ele>
        <time>2019-10-27T13:15:45.000Z</time>
      </trkpt>
      <trkpt lat="45.59518" lon="5.73804">
        <ele>593</ele>
        <time>2019-10-27T13:15:46.000Z</time>
      </trkpt>
      <trkpt lat="45.59518" lon="5.73805">
        <ele>593</ele>
        <time>2019-10-27T13:15:47.000Z</time>
      </trkpt>
      <trkpt lat="45.59518" lon="5.73806">
        <ele>593</ele>
        <time>2019-10-27T13:15:48.000Z</time>
      </trkpt>
      <trkpt lat="45.59517" lon="5.73807">
        <ele>593</ele>
        <time>2019-10-27T13:15:49.000Z</time>
      </trkpt>
      <trkpt lat="45.59516" lon="5.73808">
        <ele>593</ele>
        <time>2019-10-27T13:15:50.000Z</time>
      </trkpt>
      <trkpt lat="45.59515" lon="5.73808">
        <ele>593</ele>
        <time>2019-10-27T13:15:51.000Z</time>
      </trkpt>
      <trkpt lat="45.59513" lon="5.73809">
        <ele>593</ele>
        <time>2019-10-27T13:15:52.000Z</time>
      </trkpt>
      <trkpt lat="45.59512" lon="5.7381">
        <ele>593</ele>
        <time>2019-10-27T13:15:53.000Z</time>
      </trkpt>
      <trkpt lat="45.5951" lon="5.7381">
        <ele>592.5</ele>
        <time>2019-10-27T13:15:54.000Z</time>
      </trkpt>
      <trkpt lat="45.59508" lon="5.73811">
        <ele>592</ele>
        <time>2019-10-27T13:15:55.000Z</time>
      </trkpt>
      <trkpt lat="45.59507" lon="5.73811">
        <ele>592</ele>
        <time>2019-10-27T13:15:56.000Z</time>
      </trkpt>
      <trkpt lat="45.59506" lon="5.73811">
        <ele>592</ele>
        <time>2019-10-27T13:15:57.000Z</time>
      </trkpt>
      <trkpt lat="45.59505" lon="5.73811">
        <ele>592</ele>
        <time>2019-10-27T13:15:58.000Z</time>
      </trkpt>
      <trkpt lat="45.59504" lon="5.73812">
        <ele>592</ele>
        <time>2019-10-27T13:15:59.000Z</time>
      </trkpt>
      <trkpt lat="45.59504" lon="5.73812">
        <ele>592</ele>
        <time>2019-10-27T13:16:00.000Z</time>
      </trkpt>
      <trkpt lat="45.59503" lon="5.73812">
        <ele>592</ele>
        <time>2019-10-27T13:16:01.000Z</time>
      </trkpt>
      <trkpt lat="45.59502" lon="5.73812">
        <ele>592</ele>
        <time>2019-10-27T13:16:02.000Z</time>
      </trkpt>
      <trkpt lat="45.59501" lon="5.73812">
        <ele>591.5</ele>
        <time>2019-10-27T13:16:03.000Z</time>
      </trkpt>
      <trkpt lat="45.59499" lon="5.73812">
        <ele>591</ele>
        <time>2019-10-27T13:16:04.000Z</time>
      </trkpt>
      <trkpt lat="45.59497" lon="5.73812">
        <ele>591</ele>
        <time>2019-10-27T13:16:05.000Z</time>
      </trkpt>
      <trkpt lat="45.59495" lon="5.73812">
        <ele>591</ele>
        <time>2019-10-27T13:16:06.000Z</time>
      </trkpt>
      <trkpt lat="45.59493" lon="5.73813">
        <ele>591</ele>
        <time>2019-10-27T13:16:07.000Z</time>
      </trkpt>
      <trkpt lat="45.59491" lon="5.73813">
        <ele>591</ele>
        <time>2019-10-27T13:16:08.000Z</time>
      </trkpt>
      <trkpt lat="45.5949" lon="5.73813">
        <ele>590.5</ele>
        <time>2019-10-27T13:16:09.000Z</time>
      </trkpt>
      <trkpt lat="45.59488" lon="5.73813">
        <ele>590</ele>
        <time>2019-10-27T13:16:10.000Z</time>
      </trkpt>
      <trkpt lat="45.59486" lon="5.73814">
        <ele>590</ele>
        <time>2019-10-27T13:16:11.000Z</time>
      </trkpt>
      <trkpt lat="45.59485" lon="5.73814">
        <ele>590</ele>
        <time>2019-10-27T13:16:12.000Z</time>
      </trkpt>
      <trkpt lat="45.59483" lon="5.73814">
        <ele>590</ele>
        <time>2019-10-27T13:16:13.000Z</time>
      </trkpt>
      <trkpt lat="45.59482" lon="5.73814">
        <ele>590</ele>
        <time>2019-10-27T13:16:14.000Z</time>
      </trkpt>
      <trkpt lat="45.5948" lon="5.73815">
        <ele>590</ele>
        <time>2019-10-27T13:16:15.000Z</time>
      </trkpt>
      <trkpt lat="45.59479" lon="5.73815">
        <ele>589.7</ele>
        <time>2019-10-27T13:16:16.000Z</time>
      </trkpt>
      <trkpt lat="45.59477" lon="5.73815">
        <ele>589.3</ele>
        <time>2019-10-27T13:16:17.000Z</time>
      </trkpt>
      <trkpt lat="45.59476" lon="5.73815">
        <ele>589</ele>
        <time>2019-10-27T13:16:18.000Z</time>
      </trkpt>
      <trkpt lat="45.59474" lon="5.73815">
        <ele>589</ele>
        <time>2019-10-27T13:16:19.000Z</time>
      </trkpt>
      <trkpt lat="45.59473" lon="5.73815">
        <ele>589</ele>
        <time>2019-10-27T13:16:20.000Z</time>
      </trkpt>
      <trkpt lat="45.59472" lon="5.73815">
        <ele>589</ele>
        <time>2019-10-27T13:16:21.000Z</time>
      </trkpt>
      <trkpt lat="45.5947" lon="5.73814">
        <ele>589</ele>
        <time>2019-10-27T13:16:22.000Z</time>
      </trkpt>
      <trkpt lat="45.5947" lon="5.73814">
        <ele>589</ele>
        <time>2019-10-27T13:16:23.000Z</time>
      </trkpt>
      <trkpt lat="45.59469" lon="5.73813">
        <ele>589</ele>
        <time>2019-10-27T13:16:24.000Z</time>
      </trkpt>
      <trkpt lat="45.59469" lon="5.73813">
        <ele>589</ele>
        <time>2019-10-27T13:16:25.000Z</time>
      </trkpt>
      <trkpt lat="45.59468" lon="5.73812">
        <ele>589</ele>
        <time>2019-10-27T13:16:26.000Z</time>
      </trkpt>
      <trkpt lat="45.59468" lon="5.73812">
        <ele>588.5</ele>
        <time>2019-10-27T13:16:27.000Z</time>
      </trkpt>
      <trkpt lat="45.59468" lon="5.73811">
        <ele>588</ele>
        <time>2019-10-27T13:16:28.000Z</time>
      </trkpt>
      <trkpt lat="45.59468" lon="5.73811">
        <ele>588</ele>
        <time>2019-10-27T13:16:29.000Z</time>
      </trkpt>
      <trkpt lat="45.59468" lon="5.73811">
        <ele>588</ele>
        <time>2019-10-27T13:16:30.000Z</time>
      </trkpt>
      <trkpt lat="45.59468" lon="5.7381">
        <ele>588</ele>
        <time>2019-10-27T13:16:31.000Z</time>
      </trkpt>
      <trkpt lat="45.59467" lon="5.7381">
        <ele>588</ele>
        <time>2019-10-27T13:16:32.000Z</time>
      </trkpt>
      <trkpt lat="45.59467" lon="5.7381">
        <ele>588</ele>
        <time>2019-10-27T13:16:33.000Z</time>
      </trkpt>
      <trkpt lat="45.59466" lon="5.7381">
        <ele>588</ele>
        <time>2019-10-27T13:16:34.000Z</time>
      </trkpt>
      <trkpt lat="45.59465" lon="5.73811">
        <ele>587.5</ele>
        <time>2019-10-27T13:16:35.000Z</time>
      </trkpt>
      <trkpt lat="45.59464" lon="5.73811">
        <ele>587</ele>
        <time>2019-10-27T13:16:36.000Z</time>
      </trkpt>
      <trkpt lat="45.59462" lon="5.7381">
        <ele>587</ele>
        <time>2019-10-27T13:16:37.000Z</time>
      </trkpt>
      <trkpt lat="45.5946" lon="5.7381">
        <ele>587</ele>
        <time>2019-10-27T13:16:38.000Z</time>
      </trkpt>
      <trkpt lat="45.59458" lon="5.73809">
        <ele>587</ele>
        <time>2019-10-27T13:16:39.000Z</time>
      </trkpt>
      <trkpt lat="45.59456" lon="5.73809">
        <ele>587</ele>
        <time>2019-10-27T13:16:40.000Z</time>
      </trkpt>
      <trkpt lat="45.59455" lon="5.73808">
        <ele>587</ele>
        <time>2019-10-27T13:16:41.000Z</time>
      </trkpt>
      <trkpt lat="45.59453" lon="5.73807">
        <ele>587</ele>
        <time>2019-10-27T13:16:42.000Z</time>
      </trkpt>
      <trkpt lat="45.59451" lon="5.73807">
        <ele>587</ele>
        <time>2019-10-27T13:16:43.000Z</time>
      </trkpt>
      <trkpt lat="45.5945" lon="5.73807">
        <ele>587</ele>
        <time>2019-10-27T13:16:44.000Z</time>
      </trkpt>
      <trkpt lat="45.59448" lon="5.73806">
        <ele>586</ele>
        <time>2019-10-27T13:16:45.000Z</time>
      </trkpt>
      <trkpt lat="45.59447" lon="5.73806">
        <ele>586</ele>
        <time>2019-10-27T13:16:46.000Z</time>
      </trkpt>
      <trkpt lat="45.59445" lon="5.73806">
        <ele>586</ele>
        <time>2019-10-27T13:16:47.000Z</time>
      </trkpt>
      <trkpt lat="45.59444" lon="5.73806">
        <ele>586</ele>
        <time>2019-10-27T13:16:48.000Z</time>
      </trkpt>
      <trkpt lat="45.59443" lon="5.73806">
        <ele>586</ele>
        <time>2019-10-27T13:16:49.000Z</time>
      </trkpt>
      <trkpt lat="45.59441" lon="5.73806">
        <ele>586</ele>
        <time>2019-10-27T13:16:50.000Z</time>
      </trkpt>
      <trkpt lat="45.5944" lon="5.73806">
        <ele>586</ele>
        <time>2019-10-27T13:16:51.000Z</time>
      </trkpt>
      <trkpt lat="45.59439" lon="5.73806">
        <ele>586</ele>
        <time>2019-10-27T13:16:52.000Z</time>
      </trkpt>
      <trkpt lat="45.59437" lon="5.73806">
        <ele>586</ele>
        <time>2019-10-27T13:16:53.000Z</time>
      </trkpt>
      <trkpt lat="45.59436" lon="5.73806">
        <ele>586</ele>
        <time>2019-10-27T13:16:54.000Z</time>
      </trkpt>
      <trkpt lat="45.59434" lon="5.73807">
        <ele>586</ele>
        <time>2019-10-27T13:16:55.000Z</time>
      </trkpt>
      <trkpt lat="45.59432" lon="5.73807">
        <ele>586</ele>
        <time>2019-10-27T13:16:56.000Z</time>
      </trkpt>
      <trkpt lat="45.59431" lon="5.73808">
        <ele>585</ele>
        <time>2019-10-27T13:16:57.000Z</time>
      </trkpt>
      <trkpt lat="45.59429" lon="5.73808">
        <ele>585</ele>
        <time>2019-10-27T13:16:58.000Z</time>
      </trkpt>
      <trkpt lat="45.59428" lon="5.73809">
        <ele>585</ele>
        <time>2019-10-27T13:16:59.000Z</time>
      </trkpt>
      <trkpt lat="45.59426" lon="5.73809">
        <ele>585</ele>
        <time>2019-10-27T13:17:00.000Z</time>
      </trkpt>
      <trkpt lat="45.59425" lon="5.7381">
        <ele>585</ele>
        <time>2019-10-27T13:17:01.000Z</time>
      </trkpt>
      <trkpt lat="45.59424" lon="5.7381">
        <ele>584.7</ele>
        <time>2019-10-27T13:17:02.000Z</time>
      </trkpt>
      <trkpt lat="45.59422" lon="5.73811">
        <ele>584.3</ele>
        <time>2019-10-27T13:17:03.000Z</time>
      </trkpt>
      <trkpt lat="45.59421" lon="5.73811">
        <ele>584</ele>
        <time>2019-10-27T13:17:04.000Z</time>
      </trkpt>
      <trkpt lat="45.5942" lon="5.73812">
        <ele>584</ele>
        <time>2019-10-27T13:17:05.000Z</time>
      </trkpt>
      <trkpt lat="45.59419" lon="5.73813">
        <ele>584</ele>
        <time>2019-10-27T13:17:06.000Z</time>
      </trkpt>
      <trkpt lat="45.59419" lon="5.73813">
        <ele>584</ele>
        <time>2019-10-27T13:17:07.000Z</time>
      </trkpt>
      <trkpt lat="45.59418" lon="5.73814">
        <ele>583.7</ele>
        <time>2019-10-27T13:17:08.000Z</time>
      </trkpt>
      <trkpt lat="45.59417" lon="5.73814">
        <ele>583.3</ele>
        <time>2019-10-27T13:17:09.000Z</time>
      </trkpt>
      <trkpt lat="45.59416" lon="5.73815">
        <ele>583</ele>
        <time>2019-10-27T13:17:10.000Z</time>
      </trkpt>
      <trkpt lat="45.59416" lon="5.73816">
        <ele>583</ele>
        <time>2019-10-27T13:17:11.000Z</time>
      </trkpt>
      <trkpt lat="45.59415" lon="5.73816">
        <ele>583</ele>
        <time>2019-10-27T13:17:12.000Z</time>
      </trkpt>
      <trkpt lat="45.59414" lon="5.73817">
        <ele>583</ele>
        <time>2019-10-27T13:17:13.000Z</time>
      </trkpt>
      <trkpt lat="45.59413" lon="5.73817">
        <ele>583</ele>
        <time>2019-10-27T13:17:14.000Z</time>
      </trkpt>
      <trkpt lat="45.59413" lon="5.73818">
        <ele>583</ele>
        <time>2019-10-27T13:17:15.000Z</time>
      </trkpt>
      <trkpt lat="45.59412" lon="5.73818">
        <ele>583</ele>
        <time>2019-10-27T13:17:16.000Z</time>
      </trkpt>
      <trkpt lat="45.59411" lon="5.73819">
        <ele>582</ele>
        <time>2019-10-27T13:17:17.000Z</time>
      </trkpt>
      <trkpt lat="45.5941" lon="5.73819">
        <ele>582</ele>
        <time>2019-10-27T13:17:18.000Z</time>
      </trkpt>
      <trkpt lat="45.59409" lon="5.7382">
        <ele>582</ele>
        <time>2019-10-27T13:17:19.000Z</time>
      </trkpt>
      <trkpt lat="45.59408" lon="5.7382">
        <ele>582</ele>
        <time>2019-10-27T13:17:20.000Z</time>
      </trkpt>
      <trkpt lat="45.59406" lon="5.73821">
        <ele>582</ele>
        <time>2019-10-27T13:17:21.000Z</time>
      </trkpt>
      <trkpt lat="45.59405" lon="5.73821">
        <ele>582</ele>
        <time>2019-10-27T13:17:22.000Z</time>
      </trkpt>
      <trkpt lat="45.59404" lon="5.73821">
        <ele>582</ele>
        <time>2019-10-27T13:17:23.000Z</time>
      </trkpt>
      <trkpt lat="45.59403" lon="5.73821">
        <ele>582</ele>
        <time>2019-10-27T13:17:24.000Z</time>
      </trkpt>
      <trkpt lat="45.59402" lon="5.73822">
        <ele>582</ele>
        <time>2019-10-27T13:17:25.000Z</time>
      </trkpt>
      <trkpt lat="45.59402" lon="5.73822">
        <ele>581.5</ele>
        <time>2019-10-27T13:17:26.000Z</time>
      </trkpt>
      <trkpt lat="45.59401" lon="5.73822">
        <ele>581</ele>
        <time>2019-10-27T13:17:27.000Z</time>
      </trkpt>
      <trkpt lat="45.594" lon="5.73822">
        <ele>581</ele>
        <time>2019-10-27T13:17:28.000Z</time>
      </trkpt>
      <trkpt lat="45.59399" lon="5.73821">
        <ele>581</ele>
        <time>2019-10-27T13:17:29.000Z</time>
      </trkpt>
      <trkpt lat="45.59398" lon="5.73821">
        <ele>581</ele>
        <time>2019-10-27T13:17:30.000Z</time>
      </trkpt>
      <trkpt lat="45.59398" lon="5.73821">
        <ele>581</ele>
        <time>2019-10-27T13:17:31.000Z</time>
      </trkpt>
      <trkpt lat="45.59397" lon="5.7382">
        <ele>581</ele>
        <time>2019-10-27T13:17:32.000Z</time>
      </trkpt>
      <trkpt lat="45.59396" lon="5.7382">
        <ele>581</ele>
        <time>2019-10-27T13:17:33.000Z</time>
      </trkpt>
      <trkpt lat="45.59396" lon="5.73819">
        <ele>581</ele>
        <time>2019-10-27T13:17:34.000Z</time>
      </trkpt>
      <trkpt lat="45.59395" lon="5.73818">
        <ele>581</ele>
        <time>2019-10-27T13:17:35.000Z</time>
      </trkpt>
      <trkpt lat="45.59395" lon="5.73818">
        <ele>581</ele>
        <time>2019-10-27T13:17:36.000Z</time>
      </trkpt>
      <trkpt lat="45.59394" lon="5.73817">
        <ele>580</ele>
        <time>2019-10-27T13:17:37.000Z</time>
      </trkpt>
      <trkpt lat="45.59394" lon="5.73817">
        <ele>580</ele>
        <time>2019-10-27T13:17:38.000Z</time>
      </trkpt>
      <trkpt lat="45.59394" lon="5.73816">
        <ele>580</ele>
        <time>2019-10-27T13:17:39.000Z</time>
      </trkpt>
      <trkpt lat="45.59393" lon="5.73816">
        <ele>580</ele>
        <time>2019-10-27T13:17:40.000Z</time>
      </trkpt>
      <trkpt lat="45.59393" lon="5.73816">
        <ele>580</ele>
        <time>2019-10-27T13:17:41.000Z</time>
      </trkpt>
      <trkpt lat="45.59393" lon="5.73815">
        <ele>580</ele>
        <time>2019-10-27T13:17:42.000Z</time>
      </trkpt>
      <trkpt lat="45.59392" lon="5.73815">
        <ele>580</ele>
        <time>2019-10-27T13:17:43.000Z</time>
      </trkpt>
      <trkpt lat="45.59392" lon="5.73815">
        <ele>580</ele>
        <time>2019-10-27T13:17:44.000Z</time>
      </trkpt>
      <trkpt lat="45.59391" lon="5.73814">
        <ele>580</ele>
        <time>2019-10-27T13:17:45.000Z</time>
      </trkpt>
      <trkpt lat="45.5939" lon="5.73813">
        <ele>580</ele>
        <time>2019-10-27T13:17:46.000Z</time>
      </trkpt>
      <trkpt lat="45.59388" lon="5.73812">
        <ele>580</ele>
        <time>2019-10-27T13:17:47.000Z</time>
      </trkpt>
      <trkpt lat="45.59387" lon="5.73811">
        <ele>580</ele>
        <time>2019-10-27T13:17:48.000Z</time>
      </trkpt>
      <trkpt lat="45.59385" lon="5.7381">
        <ele>580</ele>
        <time>2019-10-27T13:17:49.000Z</time>
      </trkpt>
      <trkpt lat="45.59383" lon="5.73809">
        <ele>580</ele>
        <time>2019-10-27T13:17:50.000Z</time>
      </trkpt>
      <trkpt lat="45.59382" lon="5.73808">
        <ele>580</ele>
        <time>2019-10-27T13:17:51.000Z</time>
      </trkpt>
      <trkpt lat="45.59381" lon="5.73807">
        <ele>580</ele>
        <time>2019-10-27T13:17:52.000Z</time>
      </trkpt>
      <trkpt lat="45.5938" lon="5.73806">
        <ele>580</ele>
        <time>2019-10-27T13:17:53.000Z</time>
      </trkpt>
      <trkpt lat="45.5938" lon="5.73805">
        <ele>580</ele>
        <time>2019-10-27T13:17:54.000Z</time>
      </trkpt>
      <trkpt lat="45.5938" lon="5.73803">
        <ele>580</ele>
        <time>2019-10-27T13:17:55.000Z</time>
      </trkpt>
      <trkpt lat="45.59381" lon="5.73802">
        <ele>580</ele>
        <time>2019-10-27T13:17:56.000Z</time>
      </trkpt>
      <trkpt lat="45.59382" lon="5.73801">
        <ele>580</ele>
        <time>2019-10-27T13:17:57.000Z</time>
      </trkpt>
      <trkpt lat="45.59382" lon="5.73801">
        <ele>580</ele>
        <time>2019-10-27T13:17:58.000Z</time>
      </trkpt>
      <trkpt lat="45.59382" lon="5.738">
        <ele>580</ele>
        <time>2019-10-27T13:17:59.000Z</time>
      </trkpt>
      <trkpt lat="45.5938" lon="5.738">
        <ele>580</ele>
        <time>2019-10-27T13:18:00.000Z</time>
      </trkpt>
      <trkpt lat="45.59379" lon="5.73801">
        <ele>580</ele>
        <time>2019-10-27T13:18:01.000Z</time>
      </trkpt>
      <trkpt lat="45.59377" lon="5.73801">
        <ele>580</ele>
        <time>2019-10-27T13:18:02.000Z</time>
      </trkpt>
      <trkpt lat="45.59375" lon="5.738">
        <ele>580</ele>
        <time>2019-10-27T13:18:03.000Z</time>
      </trkpt>
      <trkpt lat="45.59373" lon="5.738">
        <ele>580</ele>
        <time>2019-10-27T13:18:04.000Z</time>
      </trkpt>
      <trkpt lat="45.59372" lon="5.73799">
        <ele>580</ele>
        <time>2019-10-27T13:18:05.000Z</time>
      </trkpt>
      <trkpt lat="45.59371" lon="5.73799">
        <ele>580</ele>
        <time>2019-10-27T13:18:06.000Z</time>
      </trkpt>
      <trkpt lat="45.5937" lon="5.73798">
        <ele>579</ele>
        <time>2019-10-27T13:18:07.000Z</time>
      </trkpt>
      <trkpt lat="45.59369" lon="5.73798">
        <ele>579.3</ele>
        <time>2019-10-27T13:18:08.000Z</time>
      </trkpt>
      <trkpt lat="45.59368" lon="5.73797">
        <ele>579.7</ele>
        <time>2019-10-27T13:18:09.000Z</time>
      </trkpt>
      <trkpt lat="45.59367" lon="5.73797">
        <ele>580</ele>
        <time>2019-10-27T13:18:10.000Z</time>
      </trkpt>
      <trkpt lat="45.59366" lon="5.73797">
        <ele>580</ele>
        <time>2019-10-27T13:18:11.000Z</time>
      </trkpt>
      <trkpt lat="45.59365" lon="5.73797">
        <ele>580</ele>
        <time>2019-10-27T13:18:12.000Z</time>
      </trkpt>
      <trkpt lat="45.59363" lon="5.73798">
        <ele>580</ele>
        <time>2019-10-27T13:18:13.000Z</time>
      </trkpt>
      <trkpt lat="45.59362" lon="5.73798">
        <ele>580</ele>
        <time>2019-10-27T13:18:14.000Z</time>
      </trkpt>
      <trkpt lat="45.59361" lon="5.73798">
        <ele>580</ele>
        <time>2019-10-27T13:18:15.000Z</time>
      </trkpt>
      <trkpt lat="45.5936" lon="5.73799">
        <ele>579.5</ele>
        <time>2019-10-27T13:18:16.000Z</time>
      </trkpt>
      <trkpt lat="45.59358" lon="5.73799">
        <ele>579</ele>
        <time>2019-10-27T13:18:17.000Z</time>
      </trkpt>
      <trkpt lat="45.59357" lon="5.738">
        <ele>579</ele>
        <time>2019-10-27T13:18:18.000Z</time>
      </trkpt>
      <trkpt lat="45.59356" lon="5.738">
        <ele>579</ele>
        <time>2019-10-27T13:18:19.000Z</time>
      </trkpt>
      <trkpt lat="45.59355" lon="5.73801">
        <ele>579</ele>
        <time>2019-10-27T13:18:20.000Z</time>
      </trkpt>
      <trkpt lat="45.59353" lon="5.73801">
        <ele>579</ele>
        <time>2019-10-27T13:18:21.000Z</time>
      </trkpt>
      <trkpt lat="45.59352" lon="5.73802">
        <ele>579</ele>
        <time>2019-10-27T13:18:22.000Z</time>
      </trkpt>
      <trkpt lat="45.59351" lon="5.73802">
        <ele>580</ele>
        <time>2019-10-27T13:18:23.000Z</time>
      </trkpt>
      <trkpt lat="45.5935" lon="5.73802">
        <ele>579.7</ele>
        <time>2019-10-27T13:18:24.000Z</time>
      </trkpt>
      <trkpt lat="45.59349" lon="5.73803">
        <ele>579.3</ele>
        <time>2019-10-27T13:18:25.000Z</time>
      </trkpt>
      <trkpt lat="45.59348" lon="5.73803">
        <ele>579</ele>
        <time>2019-10-27T13:18:26.000Z</time>
      </trkpt>
      <trkpt lat="45.59347" lon="5.73803">
        <ele>579</ele>
        <time>2019-10-27T13:18:27.000Z</time>
      </trkpt>
      <trkpt lat="45.59345" lon="5.73804">
        <ele>579.3</ele>
        <time>2019-10-27T13:18:28.000Z</time>
      </trkpt>
      <trkpt lat="45.59344" lon="5.73804">
        <ele>579.7</ele>
        <time>2019-10-27T13:18:29.000Z</time>
      </trkpt>
      <trkpt lat="45.59342" lon="5.73804">
        <ele>580</ele>
        <time>2019-10-27T13:18:30.000Z</time>
      </trkpt>
      <trkpt lat="45.5934" lon="5.73804">
        <ele>579</ele>
        <time>2019-10-27T13:18:31.000Z</time>
      </trkpt>
      <trkpt lat="45.59339" lon="5.73805">
        <ele>579</ele>
        <time>2019-10-27T13:18:32.000Z</time>
      </trkpt>
      <trkpt lat="45.59337" lon="5.73805">
        <ele>579</ele>
        <time>2019-10-27T13:18:33.000Z</time>
      </trkpt>
      <trkpt lat="45.59336" lon="5.73805">
        <ele>579</ele>
        <time>2019-10-27T13:18:34.000Z</time>
      </trkpt>
      <trkpt lat="45.59334" lon="5.73805">
        <ele>580</ele>
        <time>2019-10-27T13:18:35.000Z</time>
      </trkpt>
      <trkpt lat="45.59333" lon="5.73805">
        <ele>579.7</ele>
        <time>2019-10-27T13:18:36.000Z</time>
      </trkpt>
      <trkpt lat="45.59333" lon="5.73805">
        <ele>579.3</ele>
        <time>2019-10-27T13:18:37.000Z</time>
      </trkpt>
      <trkpt lat="45.59332" lon="5.73805">
        <ele>579</ele>
        <time>2019-10-27T13:18:38.000Z</time>
      </trkpt>
      <trkpt lat="45.59332" lon="5.73805">
        <ele>579</ele>
        <time>2019-10-27T13:18:39.000Z</time>
      </trkpt>
      <trkpt lat="45.59331" lon="5.73805">
        <ele>579</ele>
        <time>2019-10-27T13:18:40.000Z</time>
      </trkpt>
      <trkpt lat="45.59331" lon="5.73805">
        <ele>579</ele>
        <time>2019-10-27T13:18:41.000Z</time>
      </trkpt>
      <trkpt lat="45.59331" lon="5.73805">
        <ele>579</ele>
        <time>2019-10-27T13:18:42.000Z</time>
      </trkpt>
      <trkpt lat="45.59331" lon="5.73805">
        <ele>579</ele>
        <time>2019-10-27T13:18:43.000Z</time>
      </trkpt>
      <trkpt lat="45.5933" lon="5.73805">
        <ele>579</ele>
        <time>2019-10-27T13:18:44.000Z</time>
      </trkpt>
      <trkpt lat="45.5933" lon="5.73805">
        <ele>579</ele>
        <time>2019-10-27T13:18:45.000Z</time>
      </trkpt>
      <trkpt lat="45.5933" lon="5.73805">
        <ele>579</ele>
        <time>2019-10-27T13:18:46.000Z</time>
      </trkpt>
      <trkpt lat="45.5933" lon="5.73805">
        <ele>579</ele>
        <time>2019-10-27T13:18:47.000Z</time>
      </trkpt>
      <trkpt lat="45.5933" lon="5.73805">
        <ele>579</ele>
        <time>2019-10-27T13:18:48.000Z</time>
      </trkpt>
      <trkpt lat="45.5933" lon="5.73805">
        <ele>579</ele>
        <time>2019-10-27T13:18:49.000Z</time>
      </trkpt>
      <trkpt lat="45.5933" lon="5.73805">
        <ele>579</ele>
        <time>2019-10-27T13:18:50.000Z</time>
      </trkpt>
      <trkpt lat="45.5933" lon="5.73805">
        <ele>579</ele>
        <time>2019-10-27T13:18:51.000Z</time>
      </trkpt>
      <trkpt lat="45.5933" lon="5.73805">
        <ele>579</ele>
        <time>2019-10-27T13:18:52.000Z</time>
      </trkpt>
      <trkpt lat="45.5933" lon="5.73805">
        <ele>579</ele>
        <time>2019-10-27T13:18:53.000Z</time>
      </trkpt>
      <trkpt lat="45.5933" lon="5.73805">
        <ele>579</ele>
        <time>2019-10-27T13:18:54.000Z</time>
      </trkpt>
      <trkpt lat="45.5933" lon="5.73805">
        <ele>579</ele>
        <time>2019-10-27T13:18:55.000Z</time>
      </trkpt>
      <trkpt lat="45.5933" lon="5.73805">
        <ele>579</ele>
        <time>2019-10-27T13:18:56.000Z</time>
      </trkpt>
      <trkpt lat="45.5933" lon="5.73805">
        <ele>579</ele>
        <time>2019-10-27T13:18:57.000Z</time>
      </trkpt>
      <trkpt lat="45.5933" lon="5.73805">
        <ele>579</ele>
        <time>2019-10-27T13:18:58.000Z</time>
      </trkpt>
      <trkpt lat="45.5933" lon="5.73805">
        <ele>579</ele>
        <time>2019-10-27T13:18:59.000Z</time>
      </trkpt>
      <trkpt lat="45.5933" lon="5.73805">
        <ele>579</ele>
        <time>2019-10-27T13:19:00.000Z</time>
      </trkpt>
      <trkpt lat="45.5933" lon="5.73805">
        <ele>579</ele>
        <time>2019-10-27T13:19:01.000Z</time>
      </trkpt>
      <trkpt lat="45.5933" lon="5.73805">
        <ele>579</ele>
        <time>2019-10-27T13:19:02.000Z</time>
      </trkpt>
      <trkpt lat="45.5933" lon="5.73805">
        <ele>579</ele>
        <time>2019-10-27T13:19:03.000Z</time>
      </trkpt>
      <trkpt lat="45.5933" lon="5.73805">
        <ele>579</ele>
        <time>2019-10-27T13:19:04.000Z</time>
      </trkpt>
      <trkpt lat="45.5933" lon="5.73804">
        <ele>579</ele>
        <time>2019-10-27T13:19:05.000Z</time>
      </trkpt>
      <trkpt lat="45.5933" lon="5.73804">
        <ele>579</ele>
        <time>2019-10-27T13:19:06.000Z</time>
      </trkpt>
      <trkpt lat="45.5933" lon="5.73804">
        <ele>579</ele>
        <time>2019-10-27T13:19:07.000Z</time>
      </trkpt>
      <trkpt lat="45.5933" lon="5.73804">
        <ele>579</ele>
        <time>2019-10-27T13:19:08.000Z</time>
      </trkpt>
      <trkpt lat="45.5933" lon="5.73803">
        <ele>579</ele>
        <time>2019-10-27T13:19:09.000Z</time>
      </trkpt>
      <trkpt lat="45.5933" lon="5.73803">
        <ele>579</ele>
        <time>2019-10-27T13:19:10.000Z</time>
      </trkpt>
      <trkpt lat="45.5933" lon="5.73803">
        <ele>579</ele>
        <time>2019-10-27T13:19:11.000Z</time>
      </trkpt>
      <trkpt lat="45.5933" lon="5.73803">
        <ele>579</ele>
        <time>2019-10-27T13:19:12.000Z</time>
      </trkpt>
      <trkpt lat="45.5933" lon="5.73802">
        <ele>579</ele>
        <time>2019-10-27T13:19:13.000Z</time>
      </trkpt>
      <trkpt lat="45.5933" lon="5.73802">
        <ele>579</ele>
        <time>2019-10-27T13:19:14.000Z</time>
      </trkpt>
      <trkpt lat="45.5933" lon="5.73802">
        <ele>579</ele>
        <time>2019-10-27T13:19:15.000Z</time>
      </trkpt>
      <trkpt lat="45.5933" lon="5.73802">
        <ele>579</ele>
        <time>2019-10-27T13:19:16.000Z</time>
      </trkpt>
      <trkpt lat="45.5933" lon="5.73802">
        <ele>579</ele>
        <time>2019-10-27T13:19:17.000Z</time>
      </trkpt>
      <trkpt lat="45.5933" lon="5.73802">
        <ele>579</ele>
        <time>2019-10-27T13:19:18.000Z</time>
      </trkpt>
      <trkpt lat="45.5933" lon="5.73803">
        <ele>579</ele>
        <time>2019-10-27T13:19:19.000Z</time>
      </trkpt>
      <trkpt lat="45.5933" lon="5.73803">
        <ele>579</ele>
        <time>2019-10-27T13:19:20.000Z</time>
      </trkpt>
      <trkpt lat="45.5933" lon="5.73804">
        <ele>579</ele>
        <time>2019-10-27T13:19:21.000Z</time>
      </trkpt>
      <trkpt lat="45.5933" lon="5.73804">
        <ele>579</ele>
        <time>2019-10-27T13:19:22.000Z</time>
      </trkpt>
      <trkpt lat="45.5933" lon="5.73805">
        <ele>579</ele>
        <time>2019-10-27T13:19:23.000Z</time>
      </trkpt>
      <trkpt lat="45.5933" lon="5.73805">
        <ele>579</ele>
        <time>2019-10-27T13:19:24.000Z</time>
      </trkpt>
      <trkpt lat="45.59329" lon="5.73806">
        <ele>579</ele>
        <time>2019-10-27T13:19:25.000Z</time>
      </trkpt>
      <trkpt lat="45.59329" lon="5.73806">
        <ele>579</ele>
        <time>2019-10-27T13:19:26.000Z</time>
      </trkpt>
      <trkpt lat="45.59329" lon="5.73806">
        <ele>579</ele>
        <time>2019-10-27T13:19:27.000Z</time>
      </trkpt>
      <trkpt lat="45.59329" lon="5.73807">
        <ele>579</ele>
        <time>2019-10-27T13:19:28.000Z</time>
      </trkpt>
      <trkpt lat="45.59329" lon="5.73807">
        <ele>579</ele>
        <time>2019-10-27T13:19:29.000Z</time>
      </trkpt>
      <trkpt lat="45.59329" lon="5.73807">
        <ele>579</ele>
        <time>2019-10-27T13:19:30.000Z</time>
      </trkpt>
      <trkpt lat="45.59329" lon="5.73807">
        <ele>579</ele>
        <time>2019-10-27T13:19:31.000Z</time>
      </trkpt>
      <trkpt lat="45.59328" lon="5.73807">
        <ele>579</ele>
        <time>2019-10-27T13:19:32.000Z</time>
      </trkpt>
      <trkpt lat="45.59328" lon="5.73807">
        <ele>579</ele>
        <time>2019-10-27T13:19:33.000Z</time>
      </trkpt>
      <trkpt lat="45.59328" lon="5.73807">
        <ele>579</ele>
        <time>2019-10-27T13:19:34.000Z</time>
      </trkpt>
      <trkpt lat="45.59327" lon="5.73807">
        <ele>579</ele>
        <time>2019-10-27T13:19:35.000Z</time>
      </trkpt>
      <trkpt lat="45.59327" lon="5.73808">
        <ele>579</ele>
        <time>2019-10-27T13:19:36.000Z</time>
      </trkpt>
      <trkpt lat="45.59326" lon="5.73808">
        <ele>579</ele>
        <time>2019-10-27T13:19:37.000Z</time>
      </trkpt>
      <trkpt lat="45.59326" lon="5.73808">
        <ele>579</ele>
        <time>2019-10-27T13:19:38.000Z</time>
      </trkpt>
      <trkpt lat="45.59325" lon="5.73808">
        <ele>579</ele>
        <time>2019-10-27T13:19:39.000Z</time>
      </trkpt>
      <trkpt lat="45.59325" lon="5.73808">
        <ele>579</ele>
        <time>2019-10-27T13:19:40.000Z</time>
      </trkpt>
      <trkpt lat="45.59325" lon="5.73808">
        <ele>579</ele>
        <time>2019-10-27T13:19:41.000Z</time>
      </trkpt>
      <trkpt lat="45.59325" lon="5.73808">
        <ele>579</ele>
        <time>2019-10-27T13:19:42.000Z</time>
      </trkpt>
      <trkpt lat="45.59324" lon="5.73808">
        <ele>579</ele>
        <time>2019-10-27T13:19:43.000Z</time>
      </trkpt>
      <trkpt lat="45.59324" lon="5.73808">
        <ele>579</ele>
        <time>2019-10-27T13:19:44.000Z</time>
      </trkpt>
      <trkpt lat="45.59324" lon="5.73808">
        <ele>579</ele>
        <time>2019-10-27T13:19:45.000Z</time>
      </trkpt>
      <trkpt lat="45.59324" lon="5.73807">
        <ele>579</ele>
        <time>2019-10-27T13:19:46.000Z</time>
      </trkpt>
      <trkpt lat="45.59324" lon="5.73807">
        <ele>579</ele>
        <time>2019-10-27T13:19:47.000Z</time>
      </trkpt>
      <trkpt lat="45.59324" lon="5.73807">
        <ele>579</ele>
        <time>2019-10-27T13:19:48.000Z</time>
      </trkpt>
      <trkpt lat="45.59324" lon="5.73807">
        <ele>579</ele>
        <time>2019-10-27T13:19:49.000Z</time>
      </trkpt>
      <trkpt lat="45.59324" lon="5.73807">
        <ele>579</ele>
        <time>2019-10-27T13:19:50.000Z</time>
      </trkpt>
      <trkpt lat="45.59324" lon="5.73807">
        <ele>579</ele>
        <time>2019-10-27T13:19:51.000Z</time>
      </trkpt>
      <trkpt lat="45.59324" lon="5.73807">
        <ele>579</ele>
        <time>2019-10-27T13:19:52.000Z</time>
      </trkpt>
      <trkpt lat="45.59325" lon="5.73807">
        <ele>579.5</ele>
        <time>2019-10-27T13:19:53.000Z</time>
      </trkpt>
      <trkpt lat="45.59325" lon="5.73807">
        <ele>580</ele>
        <time>2019-10-27T13:19:54.000Z</time>
      </trkpt>
      <trkpt lat="45.59324" lon="5.73808">
        <ele>579</ele>
        <time>2019-10-27T13:19:55.000Z</time>
      </trkpt>
      <trkpt lat="45.59324" lon="5.73808">
        <ele>579.3</ele>
        <time>2019-10-27T13:19:56.000Z</time>
      </trkpt>
      <trkpt lat="45.59324" lon="5.73808">
        <ele>579.7</ele>
        <time>2019-10-27T13:19:57.000Z</time>
      </trkpt>
      <trkpt lat="45.59324" lon="5.73808">
        <ele>580</ele>
        <time>2019-10-27T13:19:58.000Z</time>
      </trkpt>
      <trkpt lat="45.59324" lon="5.73808">
        <ele>580</ele>
        <time>2019-10-27T13:19:59.000Z</time>
      </trkpt>
      <trkpt lat="45.59324" lon="5.73809">
        <ele>580</ele>
        <time>2019-10-27T13:20:00.000Z</time>
      </trkpt>
      <trkpt lat="45.59324" lon="5.73809">
        <ele>580</ele>
        <time>2019-10-27T13:20:01.000Z</time>
      </trkpt>
      <trkpt lat="45.59324" lon="5.73809">
        <ele>580</ele>
        <time>2019-10-27T13:20:02.000Z</time>
      </trkpt>
      <trkpt lat="45.59323" lon="5.7381">
        <ele>580</ele>
        <time>2019-10-27T13:20:03.000Z</time>
      </trkpt>
      <trkpt lat="45.59323" lon="5.7381">
        <ele>580</ele>
        <time>2019-10-27T13:20:04.000Z</time>
      </trkpt>
      <trkpt lat="45.59323" lon="5.7381">
        <ele>580</ele>
        <time>2019-10-27T13:20:05.000Z</time>
      </trkpt>
      <trkpt lat="45.59322" lon="5.73811">
        <ele>580</ele>
        <time>2019-10-27T13:20:06.000Z</time>
      </trkpt>
      <trkpt lat="45.59322" lon="5.73811">
        <ele>580</ele>
        <time>2019-10-27T13:20:07.000Z</time>
      </trkpt>
      <trkpt lat="45.59321" lon="5.73812">
        <ele>580</ele>
        <time>2019-10-27T13:20:08.000Z</time>
      </trkpt>
      <trkpt lat="45.59321" lon="5.73812">
        <ele>580</ele>
        <time>2019-10-27T13:20:09.000Z</time>
      </trkpt>
      <trkpt lat="45.5932" lon="5.73813">
        <ele>580</ele>
        <time>2019-10-27T13:20:10.000Z</time>
      </trkpt>
      <trkpt lat="45.59319" lon="5.73813">
        <ele>580</ele>
        <time>2019-10-27T13:20:11.000Z</time>
      </trkpt>
      <trkpt lat="45.59319" lon="5.73814">
        <ele>580</ele>
        <time>2019-10-27T13:20:12.000Z</time>
      </trkpt>
      <trkpt lat="45.59318" lon="5.73815">
        <ele>580</ele>
        <time>2019-10-27T13:20:13.000Z</time>
      </trkpt>
      <trkpt lat="45.59317" lon="5.73815">
        <ele>580</ele>
        <time>2019-10-27T13:20:14.000Z</time>
      </trkpt>
      <trkpt lat="45.59316" lon="5.73816">
        <ele>580</ele>
        <time>2019-10-27T13:20:15.000Z</time>
      </trkpt>
      <trkpt lat="45.59315" lon="5.73816">
        <ele>580</ele>
        <time>2019-10-27T13:20:16.000Z</time>
      </trkpt>
      <trkpt lat="45.59314" lon="5.73817">
        <ele>580</ele>
        <time>2019-10-27T13:20:17.000Z</time>
      </trkpt>
      <trkpt lat="45.59313" lon="5.73818">
        <ele>580</ele>
        <time>2019-10-27T13:20:18.000Z</time>
      </trkpt>
      <trkpt lat="45.59312" lon="5.73818">
        <ele>580</ele>
        <time>2019-10-27T13:20:19.000Z</time>
      </trkpt>
      <trkpt lat="45.59311" lon="5.73819">
        <ele>580</ele>
        <time>2019-10-27T13:20:20.000Z</time>
      </trkpt>
      <trkpt lat="45.5931" lon="5.7382">
        <ele>580</ele>
        <time>2019-10-27T13:20:21.000Z</time>
      </trkpt>
      <trkpt lat="45.59309" lon="5.7382">
        <ele>580</ele>
        <time>2019-10-27T13:20:22.000Z</time>
      </trkpt>
      <trkpt lat="45.59308" lon="5.73821">
        <ele>580</ele>
        <time>2019-10-27T13:20:23.000Z</time>
      </trkpt>
      <trkpt lat="45.59307" lon="5.73822">
        <ele>580</ele>
        <time>2019-10-27T13:20:24.000Z</time>
      </trkpt>
      <trkpt lat="45.59306" lon="5.73823">
        <ele>580</ele>
        <time>2019-10-27T13:20:25.000Z</time>
      </trkpt>
      <trkpt lat="45.59305" lon="5.73823">
        <ele>580</ele>
        <time>2019-10-27T13:20:26.000Z</time>
      </trkpt>
      <trkpt lat="45.59303" lon="5.73824">
        <ele>580</ele>
        <time>2019-10-27T13:20:27.000Z</time>
      </trkpt>
      <trkpt lat="45.59302" lon="5.73825">
        <ele>580</ele>
        <time>2019-10-27T13:20:28.000Z</time>
      </trkpt>
      <trkpt lat="45.59301" lon="5.73826">
        <ele>580</ele>
        <time>2019-10-27T13:20:29.000Z</time>
      </trkpt>
      <trkpt lat="45.593" lon="5.73827">
        <ele>580</ele>
        <time>2019-10-27T13:20:30.000Z</time>
      </trkpt>
      <trkpt lat="45.59299" lon="5.73828">
        <ele>579</ele>
        <time>2019-10-27T13:20:31.000Z</time>
      </trkpt>
      <trkpt lat="45.59298" lon="5.73829">
        <ele>579</ele>
        <time>2019-10-27T13:20:32.000Z</time>
      </trkpt>
      <trkpt lat="45.59297" lon="5.7383">
        <ele>579</ele>
        <time>2019-10-27T13:20:33.000Z</time>
      </trkpt>
      <trkpt lat="45.59297" lon="5.73831">
        <ele>579</ele>
        <time>2019-10-27T13:20:34.000Z</time>
      </trkpt>
      <trkpt lat="45.59296" lon="5.73832">
        <ele>579</ele>
        <time>2019-10-27T13:20:35.000Z</time>
      </trkpt>
      <trkpt lat="45.59295" lon="5.73833">
        <ele>579</ele>
        <time>2019-10-27T13:20:36.000Z</time>
      </trkpt>
      <trkpt lat="45.59294" lon="5.73834">
        <ele>579</ele>
        <time>2019-10-27T13:20:37.000Z</time>
      </trkpt>
      <trkpt lat="45.59293" lon="5.73835">
        <ele>579</ele>
        <time>2019-10-27T13:20:38.000Z</time>
      </trkpt>
      <trkpt lat="45.59292" lon="5.73836">
        <ele>579</ele>
        <time>2019-10-27T13:20:39.000Z</time>
      </trkpt>
      <trkpt lat="45.59291" lon="5.73838">
        <ele>579</ele>
        <time>2019-10-27T13:20:40.000Z</time>
      </trkpt>
      <trkpt lat="45.59291" lon="5.73838">
        <ele>579.5</ele>
        <time>2019-10-27T13:20:41.000Z</time>
      </trkpt>
      <trkpt lat="45.5929" lon="5.73839">
        <ele>580</ele>
        <time>2019-10-27T13:20:42.000Z</time>
      </trkpt>
      <trkpt lat="45.59289" lon="5.7384">
        <ele>580</ele>
        <time>2019-10-27T13:20:43.000Z</time>
      </trkpt>
      <trkpt lat="45.59288" lon="5.73841">
        <ele>580</ele>
        <time>2019-10-27T13:20:44.000Z</time>
      </trkpt>
      <trkpt lat="45.59287" lon="5.73842">
        <ele>580</ele>
        <time>2019-10-27T13:20:45.000Z</time>
      </trkpt>
      <trkpt lat="45.59286" lon="5.73843">
        <ele>580</ele>
        <time>2019-10-27T13:20:46.000Z</time>
      </trkpt>
      <trkpt lat="45.59285" lon="5.73843">
        <ele>580</ele>
        <time>2019-10-27T13:20:47.000Z</time>
      </trkpt>
      <trkpt lat="45.59284" lon="5.73844">
        <ele>580</ele>
        <time>2019-10-27T13:20:48.000Z</time>
      </trkpt>
      <trkpt lat="45.59284" lon="5.73845">
        <ele>580</ele>
        <time>2019-10-27T13:20:49.000Z</time>
      </trkpt>
      <trkpt lat="45.59283" lon="5.73846">
        <ele>580</ele>
        <time>2019-10-27T13:20:50.000Z</time>
      </trkpt>
      <trkpt lat="45.59282" lon="5.73846">
        <ele>580</ele>
        <time>2019-10-27T13:20:51.000Z</time>
      </trkpt>
      <trkpt lat="45.59281" lon="5.73847">
        <ele>580</ele>
        <time>2019-10-27T13:20:52.000Z</time>
      </trkpt>
      <trkpt lat="45.5928" lon="5.73848">
        <ele>580</ele>
        <time>2019-10-27T13:20:53.000Z</time>
      </trkpt>
      <trkpt lat="45.59279" lon="5.73848">
        <ele>580</ele>
        <time>2019-10-27T13:20:54.000Z</time>
      </trkpt>
      <trkpt lat="45.59278" lon="5.73849">
        <ele>580</ele>
        <time>2019-10-27T13:20:55.000Z</time>
      </trkpt>
      <trkpt lat="45.59277" lon="5.7385">
        <ele>580</ele>
        <time>2019-10-27T13:20:56.000Z</time>
      </trkpt>
      <trkpt lat="45.59277" lon="5.73851">
        <ele>580</ele>
        <time>2019-10-27T13:20:57.000Z</time>
      </trkpt>
      <trkpt lat="45.59276" lon="5.73852">
        <ele>580</ele>
        <time>2019-10-27T13:20:58.000Z</time>
      </trkpt>
      <trkpt lat="45.59275" lon="5.73853">
        <ele>580</ele>
        <time>2019-10-27T13:20:59.000Z</time>
      </trkpt>
      <trkpt lat="45.59274" lon="5.73854">
        <ele>580</ele>
        <time>2019-10-27T13:21:00.000Z</time>
      </trkpt>
      <trkpt lat="45.59273" lon="5.73854">
        <ele>580</ele>
        <time>2019-10-27T13:21:01.000Z</time>
      </trkpt>
      <trkpt lat="45.59272" lon="5.73855">
        <ele>580</ele>
        <time>2019-10-27T13:21:02.000Z</time>
      </trkpt>
      <trkpt lat="45.59272" lon="5.73856">
        <ele>580</ele>
        <time>2019-10-27T13:21:03.000Z</time>
      </trkpt>
      <trkpt lat="45.59271" lon="5.73856">
        <ele>580</ele>
        <time>2019-10-27T13:21:04.000Z</time>
      </trkpt>
      <trkpt lat="45.5927" lon="5.73857">
        <ele>580</ele>
        <time>2019-10-27T13:21:05.000Z</time>
      </trkpt>
      <trkpt lat="45.59269" lon="5.73857">
        <ele>580</ele>
        <time>2019-10-27T13:21:06.000Z</time>
      </trkpt>
      <trkpt lat="45.59268" lon="5.73858">
        <ele>580</ele>
        <time>2019-10-27T13:21:07.000Z</time>
      </trkpt>
      <trkpt lat="45.59267" lon="5.73859">
        <ele>581</ele>
        <time>2019-10-27T13:21:08.000Z</time>
      </trkpt>
      <trkpt lat="45.59266" lon="5.73859">
        <ele>581</ele>
        <time>2019-10-27T13:21:09.000Z</time>
      </trkpt>
      <trkpt lat="45.59265" lon="5.7386">
        <ele>581</ele>
        <time>2019-10-27T13:21:10.000Z</time>
      </trkpt>
      <trkpt lat="45.59264" lon="5.7386">
        <ele>581</ele>
        <time>2019-10-27T13:21:11.000Z</time>
      </trkpt>
      <trkpt lat="45.59263" lon="5.73861">
        <ele>581</ele>
        <time>2019-10-27T13:21:12.000Z</time>
      </trkpt>
      <trkpt lat="45.59262" lon="5.73862">
        <ele>581</ele>
        <time>2019-10-27T13:21:13.000Z</time>
      </trkpt>
      <trkpt lat="45.5926" lon="5.73862">
        <ele>581</ele>
        <time>2019-10-27T13:21:14.000Z</time>
      </trkpt>
      <trkpt lat="45.59259" lon="5.73863">
        <ele>581</ele>
        <time>2019-10-27T13:21:15.000Z</time>
      </trkpt>
      <trkpt lat="45.59258" lon="5.73863">
        <ele>581</ele>
        <time>2019-10-27T13:21:16.000Z</time>
      </trkpt>
      <trkpt lat="45.59257" lon="5.73864">
        <ele>581</ele>
        <time>2019-10-27T13:21:17.000Z</time>
      </trkpt>
      <trkpt lat="45.59256" lon="5.73864">
        <ele>581</ele>
        <time>2019-10-27T13:21:18.000Z</time>
      </trkpt>
      <trkpt lat="45.59256" lon="5.73864">
        <ele>581</ele>
        <time>2019-10-27T13:21:19.000Z</time>
      </trkpt>
      <trkpt lat="45.59255" lon="5.73865">
        <ele>581</ele>
        <time>2019-10-27T13:21:20.000Z</time>
      </trkpt>
      <trkpt lat="45.59254" lon="5.73865">
        <ele>581</ele>
        <time>2019-10-27T13:21:21.000Z</time>
      </trkpt>
      <trkpt lat="45.59253" lon="5.73865">
        <ele>581</ele>
        <time>2019-10-27T13:21:22.000Z</time>
      </trkpt>
      <trkpt lat="45.59252" lon="5.73866">
        <ele>581</ele>
        <time>2019-10-27T13:21:23.000Z</time>
      </trkpt>
      <trkpt lat="45.59252" lon="5.73866">
        <ele>581</ele>
        <time>2019-10-27T13:21:24.000Z</time>
      </trkpt>
      <trkpt lat="45.59251" lon="5.73867">
        <ele>581</ele>
        <time>2019-10-27T13:21:25.000Z</time>
      </trkpt>
      <trkpt lat="45.5925" lon="5.73867">
        <ele>581</ele>
        <time>2019-10-27T13:21:26.000Z</time>
      </trkpt>
      <trkpt lat="45.59249" lon="5.73868">
        <ele>581</ele>
        <time>2019-10-27T13:21:27.000Z</time>
      </trkpt>
      <trkpt lat="45.59248" lon="5.73869">
        <ele>582</ele>
        <time>2019-10-27T13:21:28.000Z</time>
      </trkpt>
      <trkpt lat="45.59246" lon="5.73869">
        <ele>582</ele>
        <time>2019-10-27T13:21:29.000Z</time>
      </trkpt>
      <trkpt lat="45.59245" lon="5.7387">
        <ele>582</ele>
        <time>2019-10-27T13:21:30.000Z</time>
      </trkpt>
      <trkpt lat="45.59244" lon="5.73871">
        <ele>582</ele>
        <time>2019-10-27T13:21:31.000Z</time>
      </trkpt>
      <trkpt lat="45.59243" lon="5.73871">
        <ele>582</ele>
        <time>2019-10-27T13:21:32.000Z</time>
      </trkpt>
      <trkpt lat="45.59243" lon="5.73872">
        <ele>582</ele>
        <time>2019-10-27T13:21:33.000Z</time>
      </trkpt>
      <trkpt lat="45.59242" lon="5.73872">
        <ele>582</ele>
        <time>2019-10-27T13:21:34.000Z</time>
      </trkpt>
      <trkpt lat="45.59241" lon="5.73873">
        <ele>582</ele>
        <time>2019-10-27T13:21:35.000Z</time>
      </trkpt>
      <trkpt lat="45.5924" lon="5.73873">
        <ele>582</ele>
        <time>2019-10-27T13:21:36.000Z</time>
      </trkpt>
      <trkpt lat="45.59239" lon="5.73874">
        <ele>582</ele>
        <time>2019-10-27T13:21:37.000Z</time>
      </trkpt>
      <trkpt lat="45.59238" lon="5.73874">
        <ele>582</ele>
        <time>2019-10-27T13:21:38.000Z</time>
      </trkpt>
      <trkpt lat="45.59237" lon="5.73875">
        <ele>582</ele>
        <time>2019-10-27T13:21:39.000Z</time>
      </trkpt>
      <trkpt lat="45.59236" lon="5.73876">
        <ele>582</ele>
        <time>2019-10-27T13:21:40.000Z</time>
      </trkpt>
      <trkpt lat="45.59235" lon="5.73877">
        <ele>582</ele>
        <time>2019-10-27T13:21:41.000Z</time>
      </trkpt>
      <trkpt lat="45.59234" lon="5.73877">
        <ele>582</ele>
        <time>2019-10-27T13:21:42.000Z</time>
      </trkpt>
      <trkpt lat="45.59233" lon="5.73878">
        <ele>582</ele>
        <time>2019-10-27T13:21:43.000Z</time>
      </trkpt>
      <trkpt lat="45.59232" lon="5.73879">
        <ele>582</ele>
        <time>2019-10-27T13:21:44.000Z</time>
      </trkpt>
      <trkpt lat="45.59231" lon="5.7388">
        <ele>583</ele>
        <time>2019-10-27T13:21:45.000Z</time>
      </trkpt>
      <trkpt lat="45.5923" lon="5.73881">
        <ele>583</ele>
        <time>2019-10-27T13:21:46.000Z</time>
      </trkpt>
      <trkpt lat="45.5923" lon="5.73882">
        <ele>583</ele>
        <time>2019-10-27T13:21:47.000Z</time>
      </trkpt>
      <trkpt lat="45.59229" lon="5.73883">
        <ele>583</ele>
        <time>2019-10-27T13:21:48.000Z</time>
      </trkpt>
      <trkpt lat="45.59228" lon="5.73883">
        <ele>583</ele>
        <time>2019-10-27T13:21:49.000Z</time>
      </trkpt>
      <trkpt lat="45.59227" lon="5.73884">
        <ele>583</ele>
        <time>2019-10-27T13:21:50.000Z</time>
      </trkpt>
      <trkpt lat="45.59226" lon="5.73885">
        <ele>583</ele>
        <time>2019-10-27T13:21:51.000Z</time>
      </trkpt>
      <trkpt lat="45.59224" lon="5.73886">
        <ele>583</ele>
        <time>2019-10-27T13:21:52.000Z</time>
      </trkpt>
      <trkpt lat="45.59222" lon="5.73887">
        <ele>583</ele>
        <time>2019-10-27T13:21:53.000Z</time>
      </trkpt>
      <trkpt lat="45.59221" lon="5.73887">
        <ele>583</ele>
        <time>2019-10-27T13:21:54.000Z</time>
      </trkpt>
      <trkpt lat="45.5922" lon="5.73888">
        <ele>583</ele>
        <time>2019-10-27T13:21:55.000Z</time>
      </trkpt>
      <trkpt lat="45.59219" lon="5.73888">
        <ele>583</ele>
        <time>2019-10-27T13:21:56.000Z</time>
      </trkpt>
      <trkpt lat="45.59218" lon="5.73888">
        <ele>583</ele>
        <time>2019-10-27T13:21:57.000Z</time>
      </trkpt>
      <trkpt lat="45.59217" lon="5.73888">
        <ele>583</ele>
        <time>2019-10-27T13:21:58.000Z</time>
      </trkpt>
      <trkpt lat="45.59216" lon="5.73889">
        <ele>583</ele>
        <time>2019-10-27T13:21:59.000Z</time>
      </trkpt>
      <trkpt lat="45.59215" lon="5.73889">
        <ele>583</ele>
        <time>2019-10-27T13:22:00.000Z</time>
      </trkpt>
      <trkpt lat="45.59214" lon="5.73889">
        <ele>583.5</ele>
        <time>2019-10-27T13:22:01.000Z</time>
      </trkpt>
      <trkpt lat="45.59213" lon="5.73889">
        <ele>584</ele>
        <time>2019-10-27T13:22:02.000Z</time>
      </trkpt>
      <trkpt lat="45.59212" lon="5.73889">
        <ele>584</ele>
        <time>2019-10-27T13:22:03.000Z</time>
      </trkpt>
      <trkpt lat="45.59212" lon="5.73889">
        <ele>584</ele>
        <time>2019-10-27T13:22:04.000Z</time>
      </trkpt>
      <trkpt lat="45.59211" lon="5.7389">
        <ele>584</ele>
        <time>2019-10-27T13:22:05.000Z</time>
      </trkpt>
      <trkpt lat="45.59211" lon="5.7389">
        <ele>584</ele>
        <time>2019-10-27T13:22:06.000Z</time>
      </trkpt>
      <trkpt lat="45.59211" lon="5.7389">
        <ele>584</ele>
        <time>2019-10-27T13:22:07.000Z</time>
      </trkpt>
      <trkpt lat="45.5921" lon="5.7389">
        <ele>584</ele>
        <time>2019-10-27T13:22:08.000Z</time>
      </trkpt>
      <trkpt lat="45.5921" lon="5.7389">
        <ele>584</ele>
        <time>2019-10-27T13:22:09.000Z</time>
      </trkpt>
      <trkpt lat="45.5921" lon="5.73889">
        <ele>584</ele>
        <time>2019-10-27T13:22:10.000Z</time>
      </trkpt>
      <trkpt lat="45.5921" lon="5.73889">
        <ele>584</ele>
        <time>2019-10-27T13:22:11.000Z</time>
      </trkpt>
      <trkpt lat="45.59209" lon="5.73889">
        <ele>584</ele>
        <time>2019-10-27T13:22:12.000Z</time>
      </trkpt>
      <trkpt lat="45.59208" lon="5.73889">
        <ele>584</ele>
        <time>2019-10-27T13:22:13.000Z</time>
      </trkpt>
      <trkpt lat="45.59207" lon="5.73888">
        <ele>584</ele>
        <time>2019-10-27T13:22:14.000Z</time>
      </trkpt>
      <trkpt lat="45.59206" lon="5.73888">
        <ele>584</ele>
        <time>2019-10-27T13:22:15.000Z</time>
      </trkpt>
      <trkpt lat="45.59206" lon="5.73888">
        <ele>584</ele>
        <time>2019-10-27T13:22:16.000Z</time>
      </trkpt>
      <trkpt lat="45.59205" lon="5.73888">
        <ele>584</ele>
        <time>2019-10-27T13:22:17.000Z</time>
      </trkpt>
      <trkpt lat="45.59205" lon="5.73888">
        <ele>584</ele>
        <time>2019-10-27T13:22:18.000Z</time>
      </trkpt>
      <trkpt lat="45.59205" lon="5.73889">
        <ele>584</ele>
        <time>2019-10-27T13:22:19.000Z</time>
      </trkpt>
      <trkpt lat="45.59205" lon="5.73889">
        <ele>584</ele>
        <time>2019-10-27T13:22:20.000Z</time>
      </trkpt>
      <trkpt lat="45.59205" lon="5.73889">
        <ele>584</ele>
        <time>2019-10-27T13:22:21.000Z</time>
      </trkpt>
      <trkpt lat="45.59204" lon="5.73889">
        <ele>584</ele>
        <time>2019-10-27T13:22:22.000Z</time>
      </trkpt>
      <trkpt lat="45.59204" lon="5.73889">
        <ele>584</ele>
        <time>2019-10-27T13:22:23.000Z</time>
      </trkpt>
      <trkpt lat="45.59203" lon="5.73889">
        <ele>584</ele>
        <time>2019-10-27T13:22:24.000Z</time>
      </trkpt>
      <trkpt lat="45.59202" lon="5.7389">
        <ele>584</ele>
        <time>2019-10-27T13:22:25.000Z</time>
      </trkpt>
      <trkpt lat="45.59201" lon="5.7389">
        <ele>584</ele>
        <time>2019-10-27T13:22:26.000Z</time>
      </trkpt>
      <trkpt lat="45.592" lon="5.73891">
        <ele>584</ele>
        <time>2019-10-27T13:22:27.000Z</time>
      </trkpt>
      <trkpt lat="45.59199" lon="5.73891">
        <ele>584</ele>
        <time>2019-10-27T13:22:28.000Z</time>
      </trkpt>
      <trkpt lat="45.59198" lon="5.73892">
        <ele>584</ele>
        <time>2019-10-27T13:22:29.000Z</time>
      </trkpt>
      <trkpt lat="45.59196" lon="5.73892">
        <ele>584</ele>
        <time>2019-10-27T13:22:30.000Z</time>
      </trkpt>
      <trkpt lat="45.59195" lon="5.73892">
        <ele>584.5</ele>
        <time>2019-10-27T13:22:31.000Z</time>
      </trkpt>
      <trkpt lat="45.59194" lon="5.73893">
        <ele>585</ele>
        <time>2019-10-27T13:22:32.000Z</time>
      </trkpt>
      <trkpt lat="45.59193" lon="5.73893">
        <ele>585</ele>
        <time>2019-10-27T13:22:33.000Z</time>
      </trkpt>
      <trkpt lat="45.59192" lon="5.73892">
        <ele>585</ele>
        <time>2019-10-27T13:22:34.000Z</time>
      </trkpt>
      <trkpt lat="45.59191" lon="5.73892">
        <ele>585</ele>
        <time>2019-10-27T13:22:35.000Z</time>
      </trkpt>
      <trkpt lat="45.5919" lon="5.73892">
        <ele>585</ele>
        <time>2019-10-27T13:22:36.000Z</time>
      </trkpt>
      <trkpt lat="45.59189" lon="5.73891">
        <ele>585</ele>
        <time>2019-10-27T13:22:37.000Z</time>
      </trkpt>
      <trkpt lat="45.59188" lon="5.7389">
        <ele>585</ele>
        <time>2019-10-27T13:22:38.000Z</time>
      </trkpt>
      <trkpt lat="45.59187" lon="5.73889">
        <ele>585</ele>
        <time>2019-10-27T13:22:39.000Z</time>
      </trkpt>
      <trkpt lat="45.59187" lon="5.73888">
        <ele>585</ele>
        <time>2019-10-27T13:22:40.000Z</time>
      </trkpt>
      <trkpt lat="45.59186" lon="5.73887">
        <ele>585</ele>
        <time>2019-10-27T13:22:41.000Z</time>
      </trkpt>
      <trkpt lat="45.59185" lon="5.73887">
        <ele>585</ele>
        <time>2019-10-27T13:22:42.000Z</time>
      </trkpt>
      <trkpt lat="45.59185" lon="5.73886">
        <ele>585</ele>
        <time>2019-10-27T13:22:43.000Z</time>
      </trkpt>
      <trkpt lat="45.59184" lon="5.73885">
        <ele>585</ele>
        <time>2019-10-27T13:22:44.000Z</time>
      </trkpt>
      <trkpt lat="45.59183" lon="5.73884">
        <ele>585</ele>
        <time>2019-10-27T13:22:45.000Z</time>
      </trkpt>
      <trkpt lat="45.59183" lon="5.73883">
        <ele>585</ele>
        <time>2019-10-27T13:22:46.000Z</time>
      </trkpt>
      <trkpt lat="45.59182" lon="5.73882">
        <ele>585</ele>
        <time>2019-10-27T13:22:47.000Z</time>
      </trkpt>
      <trkpt lat="45.59181" lon="5.73881">
        <ele>585.3</ele>
        <time>2019-10-27T13:22:48.000Z</time>
      </trkpt>
      <trkpt lat="45.5918" lon="5.7388">
        <ele>585.7</ele>
        <time>2019-10-27T13:22:49.000Z</time>
      </trkpt>
      <trkpt lat="45.59179" lon="5.73879">
        <ele>586</ele>
        <time>2019-10-27T13:22:50.000Z</time>
      </trkpt>
      <trkpt lat="45.59177" lon="5.73877">
        <ele>585</ele>
        <time>2019-10-27T13:22:51.000Z</time>
      </trkpt>
      <trkpt lat="45.59176" lon="5.73876">
        <ele>585.3</ele>
        <time>2019-10-27T13:22:52.000Z</time>
      </trkpt>
      <trkpt lat="45.59175" lon="5.73875">
        <ele>585.7</ele>
        <time>2019-10-27T13:22:53.000Z</time>
      </trkpt>
      <trkpt lat="45.59173" lon="5.73873">
        <ele>586</ele>
        <time>2019-10-27T13:22:54.000Z</time>
      </trkpt>
      <trkpt lat="45.59172" lon="5.73872">
        <ele>586</ele>
        <time>2019-10-27T13:22:55.000Z</time>
      </trkpt>
      <trkpt lat="45.59171" lon="5.73871">
        <ele>586</ele>
        <time>2019-10-27T13:22:56.000Z</time>
      </trkpt>
      <trkpt lat="45.5917" lon="5.7387">
        <ele>586</ele>
        <time>2019-10-27T13:22:57.000Z</time>
      </trkpt>
      <trkpt lat="45.5917" lon="5.73869">
        <ele>586</ele>
        <time>2019-10-27T13:22:58.000Z</time>
      </trkpt>
      <trkpt lat="45.59169" lon="5.73868">
        <ele>586</ele>
        <time>2019-10-27T13:22:59.000Z</time>
      </trkpt>
      <trkpt lat="45.59169" lon="5.73867">
        <ele>586</ele>
        <time>2019-10-27T13:23:00.000Z</time>
      </trkpt>
      <trkpt lat="45.59168" lon="5.73866">
        <ele>586</ele>
        <time>2019-10-27T13:23:01.000Z</time>
      </trkpt>
      <trkpt lat="45.59167" lon="5.73865">
        <ele>586</ele>
        <time>2019-10-27T13:23:02.000Z</time>
      </trkpt>
      <trkpt lat="45.59165" lon="5.73864">
        <ele>586</ele>
        <time>2019-10-27T13:23:03.000Z</time>
      </trkpt>
      <trkpt lat="45.59163" lon="5.73864">
        <ele>586</ele>
        <time>2019-10-27T13:23:04.000Z</time>
      </trkpt>
      <trkpt lat="45.59161" lon="5.73864">
        <ele>586</ele>
        <time>2019-10-27T13:23:05.000Z</time>
      </trkpt>
      <trkpt lat="45.59159" lon="5.73864">
        <ele>586</ele>
        <time>2019-10-27T13:23:06.000Z</time>
      </trkpt>
      <trkpt lat="45.59158" lon="5.73864">
        <ele>586</ele>
        <time>2019-10-27T13:23:07.000Z</time>
      </trkpt>
      <trkpt lat="45.59158" lon="5.73864">
        <ele>586</ele>
        <time>2019-10-27T13:23:08.000Z</time>
      </trkpt>
      <trkpt lat="45.59157" lon="5.73864">
        <ele>586</ele>
        <time>2019-10-27T13:23:09.000Z</time>
      </trkpt>
      <trkpt lat="45.59157" lon="5.73864">
        <ele>586</ele>
        <time>2019-10-27T13:23:10.000Z</time>
      </trkpt>
      <trkpt lat="45.59156" lon="5.73864">
        <ele>586</ele>
        <time>2019-10-27T13:23:11.000Z</time>
      </trkpt>
      <trkpt lat="45.59156" lon="5.73864">
        <ele>586</ele>
        <time>2019-10-27T13:23:12.000Z</time>
      </trkpt>
      <trkpt lat="45.59156" lon="5.73864">
        <ele>586</ele>
        <time>2019-10-27T13:23:13.000Z</time>
      </trkpt>
      <trkpt lat="45.59156" lon="5.73864">
        <ele>586</ele>
        <time>2019-10-27T13:23:14.000Z</time>
      </trkpt>
      <trkpt lat="45.59156" lon="5.73864">
        <ele>586</ele>
        <time>2019-10-27T13:23:15.000Z</time>
      </trkpt>
      <trkpt lat="45.59156" lon="5.73864">
        <ele>586</ele>
        <time>2019-10-27T13:23:16.000Z</time>
      </trkpt>
      <trkpt lat="45.59156" lon="5.73864">
        <ele>586</ele>
        <time>2019-10-27T13:23:17.000Z</time>
      </trkpt>
      <trkpt lat="45.59156" lon="5.73863">
        <ele>586</ele>
        <time>2019-10-27T13:23:18.000Z</time>
      </trkpt>
      <trkpt lat="45.59155" lon="5.73864">
        <ele>586</ele>
        <time>2019-10-27T13:23:19.000Z</time>
      </trkpt>
      <trkpt lat="45.59155" lon="5.73864">
        <ele>586</ele>
        <time>2019-10-27T13:23:20.000Z</time>
      </trkpt>
      <trkpt lat="45.59154" lon="5.73864">
        <ele>586</ele>
        <time>2019-10-27T13:23:21.000Z</time>
      </trkpt>
      <trkpt lat="45.59153" lon="5.73865">
        <ele>586</ele>
        <time>2019-10-27T13:23:22.000Z</time>
      </trkpt>
      <trkpt lat="45.59153" lon="5.73865">
        <ele>586</ele>
        <time>2019-10-27T13:23:23.000Z</time>
      </trkpt>
      <trkpt lat="45.59152" lon="5.73865">
        <ele>586</ele>
        <time>2019-10-27T13:23:24.000Z</time>
      </trkpt>
      <trkpt lat="45.59152" lon="5.73865">
        <ele>587</ele>
        <time>2019-10-27T13:23:25.000Z</time>
      </trkpt>
      <trkpt lat="45.59151" lon="5.73865">
        <ele>587</ele>
        <time>2019-10-27T13:23:26.000Z</time>
      </trkpt>
      <trkpt lat="45.59151" lon="5.73865">
        <ele>587</ele>
        <time>2019-10-27T13:23:27.000Z</time>
      </trkpt>
      <trkpt lat="45.59151" lon="5.73865">
        <ele>587</ele>
        <time>2019-10-27T13:23:28.000Z</time>
      </trkpt>
      <trkpt lat="45.59151" lon="5.73864">
        <ele>587</ele>
        <time>2019-10-27T13:23:29.000Z</time>
      </trkpt>
      <trkpt lat="45.5915" lon="5.73863">
        <ele>587</ele>
        <time>2019-10-27T13:23:30.000Z</time>
      </trkpt>
      <trkpt lat="45.5915" lon="5.73861">
        <ele>587</ele>
        <time>2019-10-27T13:23:31.000Z</time>
      </trkpt>
      <trkpt lat="45.5915" lon="5.73859">
        <ele>587</ele>
        <time>2019-10-27T13:23:32.000Z</time>
      </trkpt>
      <trkpt lat="45.5915" lon="5.73857">
        <ele>587</ele>
        <time>2019-10-27T13:23:33.000Z</time>
      </trkpt>
      <trkpt lat="45.59151" lon="5.73854">
        <ele>587</ele>
        <time>2019-10-27T13:23:34.000Z</time>
      </trkpt>
      <trkpt lat="45.59151" lon="5.73852">
        <ele>587</ele>
        <time>2019-10-27T13:23:35.000Z</time>
      </trkpt>
      <trkpt lat="45.59152" lon="5.73849">
        <ele>587</ele>
        <time>2019-10-27T13:23:36.000Z</time>
      </trkpt>
      <trkpt lat="45.59153" lon="5.73847">
        <ele>587</ele>
        <time>2019-10-27T13:23:37.000Z</time>
      </trkpt>
      <trkpt lat="45.59154" lon="5.73845">
        <ele>587</ele>
        <time>2019-10-27T13:23:38.000Z</time>
      </trkpt>
      <trkpt lat="45.59154" lon="5.73843">
        <ele>587</ele>
        <time>2019-10-27T13:23:39.000Z</time>
      </trkpt>
      <trkpt lat="45.59154" lon="5.73842">
        <ele>587</ele>
        <time>2019-10-27T13:23:40.000Z</time>
      </trkpt>
      <trkpt lat="45.59154" lon="5.7384">
        <ele>588</ele>
        <time>2019-10-27T13:23:41.000Z</time>
      </trkpt>
      <trkpt lat="45.59154" lon="5.73839">
        <ele>588</ele>
        <time>2019-10-27T13:23:42.000Z</time>
      </trkpt>
      <trkpt lat="45.59154" lon="5.73839">
        <ele>588</ele>
        <time>2019-10-27T13:23:43.000Z</time>
      </trkpt>
      <trkpt lat="45.59154" lon="5.73838">
        <ele>588</ele>
        <time>2019-10-27T13:23:44.000Z</time>
      </trkpt>
      <trkpt lat="45.59154" lon="5.73838">
        <ele>588</ele>
        <time>2019-10-27T13:23:45.000Z</time>
      </trkpt>
      <trkpt lat="45.59154" lon="5.73838">
        <ele>588</ele>
        <time>2019-10-27T13:23:46.000Z</time>
      </trkpt>
      <trkpt lat="45.59154" lon="5.73838">
        <ele>588</ele>
        <time>2019-10-27T13:23:47.000Z</time>
      </trkpt>
      <trkpt lat="45.59154" lon="5.73838">
        <ele>588</ele>
        <time>2019-10-27T13:23:48.000Z</time>
      </trkpt>
      <trkpt lat="45.59154" lon="5.73838">
        <ele>588</ele>
        <time>2019-10-27T13:23:49.000Z</time>
      </trkpt>
      <trkpt lat="45.59154" lon="5.73838">
        <ele>588</ele>
        <time>2019-10-27T13:23:50.000Z</time>
      </trkpt>
      <trkpt lat="45.59154" lon="5.73838">
        <ele>588</ele>
        <time>2019-10-27T13:23:51.000Z</time>
      </trkpt>
      <trkpt lat="45.59155" lon="5.73838">
        <ele>588</ele>
        <time>2019-10-27T13:23:52.000Z</time>
      </trkpt>
      <trkpt lat="45.59155" lon="5.73838">
        <ele>588</ele>
        <time>2019-10-27T13:23:53.000Z</time>
      </trkpt>
      <trkpt lat="45.59155" lon="5.73838">
        <ele>588</ele>
        <time>2019-10-27T13:23:54.000Z</time>
      </trkpt>
      <trkpt lat="45.59156" lon="5.73838">
        <ele>588</ele>
        <time>2019-10-27T13:23:55.000Z</time>
      </trkpt>
      <trkpt lat="45.59156" lon="5.73838">
        <ele>588</ele>
        <time>2019-10-27T13:23:56.000Z</time>
      </trkpt>
      <trkpt lat="45.59156" lon="5.73838">
        <ele>588</ele>
        <time>2019-10-27T13:23:57.000Z</time>
      </trkpt>
      <trkpt lat="45.59156" lon="5.73838">
        <ele>588</ele>
        <time>2019-10-27T13:23:58.000Z</time>
      </trkpt>
      <trkpt lat="45.59156" lon="5.73838">
        <ele>588</ele>
        <time>2019-10-27T13:23:59.000Z</time>
      </trkpt>
      <trkpt lat="45.59156" lon="5.73838">
        <ele>588</ele>
        <time>2019-10-27T13:24:00.000Z</time>
      </trkpt>
      <trkpt lat="45.59155" lon="5.73837">
        <ele>588</ele>
        <time>2019-10-27T13:24:01.000Z</time>
      </trkpt>
      <trkpt lat="45.59155" lon="5.73837">
        <ele>588</ele>
        <time>2019-10-27T13:24:02.000Z</time>
      </trkpt>
      <trkpt lat="45.59154" lon="5.73837">
        <ele>588</ele>
        <time>2019-10-27T13:24:03.000Z</time>
      </trkpt>
      <trkpt lat="45.59153" lon="5.73836">
        <ele>588</ele>
        <time>2019-10-27T13:24:04.000Z</time>
      </trkpt>
      <trkpt lat="45.59153" lon="5.73835">
        <ele>588</ele>
        <time>2019-10-27T13:24:05.000Z</time>
      </trkpt>
      <trkpt lat="45.59152" lon="5.73835">
        <ele>588</ele>
        <time>2019-10-27T13:24:06.000Z</time>
      </trkpt>
      <trkpt lat="45.59151" lon="5.73834">
        <ele>588</ele>
        <time>2019-10-27T13:24:07.000Z</time>
      </trkpt>
      <trkpt lat="45.5915" lon="5.73833">
        <ele>588</ele>
        <time>2019-10-27T13:24:08.000Z</time>
      </trkpt>
      <trkpt lat="45.5915" lon="5.73832">
        <ele>588</ele>
        <time>2019-10-27T13:24:09.000Z</time>
      </trkpt>
      <trkpt lat="45.59149" lon="5.73831">
        <ele>588</ele>
        <time>2019-10-27T13:24:10.000Z</time>
      </trkpt>
      <trkpt lat="45.59148" lon="5.7383">
        <ele>588</ele>
        <time>2019-10-27T13:24:11.000Z</time>
      </trkpt>
      <trkpt lat="45.59148" lon="5.73829">
        <ele>588</ele>
        <time>2019-10-27T13:24:12.000Z</time>
      </trkpt>
      <trkpt lat="45.59147" lon="5.73828">
        <ele>588.5</ele>
        <time>2019-10-27T13:24:13.000Z</time>
      </trkpt>
      <trkpt lat="45.59146" lon="5.73827">
        <ele>589</ele>
        <time>2019-10-27T13:24:14.000Z</time>
      </trkpt>
      <trkpt lat="45.59146" lon="5.73826">
        <ele>589</ele>
        <time>2019-10-27T13:24:15.000Z</time>
      </trkpt>
      <trkpt lat="45.59145" lon="5.73825">
        <ele>589</ele>
        <time>2019-10-27T13:24:16.000Z</time>
      </trkpt>
      <trkpt lat="45.59144" lon="5.73824">
        <ele>589</ele>
        <time>2019-10-27T13:24:17.000Z</time>
      </trkpt>
      <trkpt lat="45.59144" lon="5.73823">
        <ele>589</ele>
        <time>2019-10-27T13:24:18.000Z</time>
      </trkpt>
      <trkpt lat="45.59143" lon="5.73822">
        <ele>589</ele>
        <time>2019-10-27T13:24:19.000Z</time>
      </trkpt>
      <trkpt lat="45.59142" lon="5.73821">
        <ele>589</ele>
        <time>2019-10-27T13:24:20.000Z</time>
      </trkpt>
      <trkpt lat="45.59142" lon="5.7382">
        <ele>589</ele>
        <time>2019-10-27T13:24:21.000Z</time>
      </trkpt>
      <trkpt lat="45.59141" lon="5.73819">
        <ele>589</ele>
        <time>2019-10-27T13:24:22.000Z</time>
      </trkpt>
      <trkpt lat="45.5914" lon="5.73818">
        <ele>589</ele>
        <time>2019-10-27T13:24:23.000Z</time>
      </trkpt>
      <trkpt lat="45.5914" lon="5.73817">
        <ele>589</ele>
        <time>2019-10-27T13:24:24.000Z</time>
      </trkpt>
      <trkpt lat="45.59139" lon="5.73816">
        <ele>589</ele>
        <time>2019-10-27T13:24:25.000Z</time>
      </trkpt>
      <trkpt lat="45.59139" lon="5.73815">
        <ele>589</ele>
        <time>2019-10-27T13:24:26.000Z</time>
      </trkpt>
      <trkpt lat="45.59138" lon="5.73814">
        <ele>589</ele>
        <time>2019-10-27T13:24:27.000Z</time>
      </trkpt>
      <trkpt lat="45.59138" lon="5.73813">
        <ele>589</ele>
        <time>2019-10-27T13:24:28.000Z</time>
      </trkpt>
      <trkpt lat="45.59137" lon="5.73811">
        <ele>589</ele>
        <time>2019-10-27T13:24:29.000Z</time>
      </trkpt>
      <trkpt lat="45.59136" lon="5.7381">
        <ele>589</ele>
        <time>2019-10-27T13:24:30.000Z</time>
      </trkpt>
      <trkpt lat="45.59135" lon="5.73808">
        <ele>589</ele>
        <time>2019-10-27T13:24:31.000Z</time>
      </trkpt>
      <trkpt lat="45.59135" lon="5.73807">
        <ele>589.3</ele>
        <time>2019-10-27T13:24:32.000Z</time>
      </trkpt>
      <trkpt lat="45.59134" lon="5.73805">
        <ele>589.7</ele>
        <time>2019-10-27T13:24:33.000Z</time>
      </trkpt>
      <trkpt lat="45.59133" lon="5.73804">
        <ele>590</ele>
        <time>2019-10-27T13:24:34.000Z</time>
      </trkpt>
      <trkpt lat="45.59132" lon="5.73802">
        <ele>590</ele>
        <time>2019-10-27T13:24:35.000Z</time>
      </trkpt>
      <trkpt lat="45.59131" lon="5.738">
        <ele>590</ele>
        <time>2019-10-27T13:24:36.000Z</time>
      </trkpt>
      <trkpt lat="45.59131" lon="5.73799">
        <ele>590</ele>
        <time>2019-10-27T13:24:37.000Z</time>
      </trkpt>
      <trkpt lat="45.59131" lon="5.73797">
        <ele>590</ele>
        <time>2019-10-27T13:24:38.000Z</time>
      </trkpt>
      <trkpt lat="45.59131" lon="5.73795">
        <ele>590</ele>
        <time>2019-10-27T13:24:39.000Z</time>
      </trkpt>
      <trkpt lat="45.59132" lon="5.73793">
        <ele>590</ele>
        <time>2019-10-27T13:24:40.000Z</time>
      </trkpt>
      <trkpt lat="45.59131" lon="5.73791">
        <ele>590</ele>
        <time>2019-10-27T13:24:41.000Z</time>
      </trkpt>
      <trkpt lat="45.59131" lon="5.73789">
        <ele>590</ele>
        <time>2019-10-27T13:24:42.000Z</time>
      </trkpt>
      <trkpt lat="45.5913" lon="5.73787">
        <ele>590</ele>
        <time>2019-10-27T13:24:43.000Z</time>
      </trkpt>
      <trkpt lat="45.59129" lon="5.73786">
        <ele>590</ele>
        <time>2019-10-27T13:24:44.000Z</time>
      </trkpt>
      <trkpt lat="45.59127" lon="5.73785">
        <ele>590</ele>
        <time>2019-10-27T13:24:45.000Z</time>
      </trkpt>
      <trkpt lat="45.59126" lon="5.73785">
        <ele>590</ele>
        <time>2019-10-27T13:24:46.000Z</time>
      </trkpt>
      <trkpt lat="45.59124" lon="5.73784">
        <ele>590</ele>
        <time>2019-10-27T13:24:47.000Z</time>
      </trkpt>
      <trkpt lat="45.59123" lon="5.73784">
        <ele>590</ele>
        <time>2019-10-27T13:24:48.000Z</time>
      </trkpt>
      <trkpt lat="45.59122" lon="5.73784">
        <ele>590</ele>
        <time>2019-10-27T13:24:49.000Z</time>
      </trkpt>
      <trkpt lat="45.59122" lon="5.73784">
        <ele>590</ele>
        <time>2019-10-27T13:24:50.000Z</time>
      </trkpt>
      <trkpt lat="45.59121" lon="5.73784">
        <ele>590.5</ele>
        <time>2019-10-27T13:24:51.000Z</time>
      </trkpt>
      <trkpt lat="45.59121" lon="5.73784">
        <ele>591</ele>
        <time>2019-10-27T13:24:52.000Z</time>
      </trkpt>
      <trkpt lat="45.5912" lon="5.73783">
        <ele>591</ele>
        <time>2019-10-27T13:24:53.000Z</time>
      </trkpt>
      <trkpt lat="45.59119" lon="5.73783">
        <ele>591</ele>
        <time>2019-10-27T13:24:54.000Z</time>
      </trkpt>
      <trkpt lat="45.59118" lon="5.73783">
        <ele>591</ele>
        <time>2019-10-27T13:24:55.000Z</time>
      </trkpt>
      <trkpt lat="45.59117" lon="5.73782">
        <ele>591</ele>
        <time>2019-10-27T13:24:56.000Z</time>
      </trkpt>
      <trkpt lat="45.59116" lon="5.73782">
        <ele>591</ele>
        <time>2019-10-27T13:24:57.000Z</time>
      </trkpt>
      <trkpt lat="45.59116" lon="5.73781">
        <ele>591</ele>
        <time>2019-10-27T13:24:58.000Z</time>
      </trkpt>
      <trkpt lat="45.59115" lon="5.7378">
        <ele>591</ele>
        <time>2019-10-27T13:24:59.000Z</time>
      </trkpt>
      <trkpt lat="45.59114" lon="5.73778">
        <ele>591.3</ele>
        <time>2019-10-27T13:25:00.000Z</time>
      </trkpt>
      <trkpt lat="45.59113" lon="5.73776">
        <ele>591.7</ele>
        <time>2019-10-27T13:25:01.000Z</time>
      </trkpt>
      <trkpt lat="45.59113" lon="5.73774">
        <ele>592</ele>
        <time>2019-10-27T13:25:02.000Z</time>
      </trkpt>
      <trkpt lat="45.59113" lon="5.73772">
        <ele>592</ele>
        <time>2019-10-27T13:25:03.000Z</time>
      </trkpt>
      <trkpt lat="45.59112" lon="5.7377">
        <ele>592</ele>
        <time>2019-10-27T13:25:04.000Z</time>
      </trkpt>
      <trkpt lat="45.59112" lon="5.73768">
        <ele>592</ele>
        <time>2019-10-27T13:25:05.000Z</time>
      </trkpt>
      <trkpt lat="45.59112" lon="5.73766">
        <ele>592</ele>
        <time>2019-10-27T13:25:06.000Z</time>
      </trkpt>
      <trkpt lat="45.59111" lon="5.73764">
        <ele>592</ele>
        <time>2019-10-27T13:25:07.000Z</time>
      </trkpt>
      <trkpt lat="45.59111" lon="5.73763">
        <ele>592</ele>
        <time>2019-10-27T13:25:08.000Z</time>
      </trkpt>
      <trkpt lat="45.59111" lon="5.73761">
        <ele>592</ele>
        <time>2019-10-27T13:25:09.000Z</time>
      </trkpt>
      <trkpt lat="45.59111" lon="5.7376">
        <ele>592</ele>
        <time>2019-10-27T13:25:10.000Z</time>
      </trkpt>
      <trkpt lat="45.59111" lon="5.73759">
        <ele>592</ele>
        <time>2019-10-27T13:25:11.000Z</time>
      </trkpt>
      <trkpt lat="45.59111" lon="5.73758">
        <ele>592</ele>
        <time>2019-10-27T13:25:12.000Z</time>
      </trkpt>
      <trkpt lat="45.59112" lon="5.73758">
        <ele>592</ele>
        <time>2019-10-27T13:25:13.000Z</time>
      </trkpt>
      <trkpt lat="45.59112" lon="5.73758">
        <ele>592</ele>
        <time>2019-10-27T13:25:14.000Z</time>
      </trkpt>
      <trkpt lat="45.59112" lon="5.73757">
        <ele>592.5</ele>
        <time>2019-10-27T13:25:15.000Z</time>
      </trkpt>
      <trkpt lat="45.59112" lon="5.73757">
        <ele>593</ele>
        <time>2019-10-27T13:25:16.000Z</time>
      </trkpt>
      <trkpt lat="45.59112" lon="5.73757">
        <ele>593</ele>
        <time>2019-10-27T13:25:17.000Z</time>
      </trkpt>
      <trkpt lat="45.59112" lon="5.73757">
        <ele>593</ele>
        <time>2019-10-27T13:25:18.000Z</time>
      </trkpt>
      <trkpt lat="45.59112" lon="5.73757">
        <ele>593</ele>
        <time>2019-10-27T13:25:19.000Z</time>
      </trkpt>
      <trkpt lat="45.59112" lon="5.73757">
        <ele>593</ele>
        <time>2019-10-27T13:25:20.000Z</time>
      </trkpt>
      <trkpt lat="45.59112" lon="5.73757">
        <ele>593</ele>
        <time>2019-10-27T13:25:21.000Z</time>
      </trkpt>
      <trkpt lat="45.59112" lon="5.73757">
        <ele>593</ele>
        <time>2019-10-27T13:25:22.000Z</time>
      </trkpt>
      <trkpt lat="45.59112" lon="5.73756">
        <ele>593</ele>
        <time>2019-10-27T13:25:23.000Z</time>
      </trkpt>
      <trkpt lat="45.59112" lon="5.73756">
        <ele>593</ele>
        <time>2019-10-27T13:25:24.000Z</time>
      </trkpt>
      <trkpt lat="45.59112" lon="5.73756">
        <ele>593</ele>
        <time>2019-10-27T13:25:25.000Z</time>
      </trkpt>
      <trkpt lat="45.59112" lon="5.73755">
        <ele>593</ele>
        <time>2019-10-27T13:25:26.000Z</time>
      </trkpt>
      <trkpt lat="45.59112" lon="5.73754">
        <ele>593</ele>
        <time>2019-10-27T13:25:27.000Z</time>
      </trkpt>
      <trkpt lat="45.59112" lon="5.73753">
        <ele>593</ele>
        <time>2019-10-27T13:25:28.000Z</time>
      </trkpt>
      <trkpt lat="45.59112" lon="5.73753">
        <ele>593</ele>
        <time>2019-10-27T13:25:29.000Z</time>
      </trkpt>
      <trkpt lat="45.59111" lon="5.73752">
        <ele>592.7</ele>
        <time>2019-10-27T13:25:30.000Z</time>
      </trkpt>
      <trkpt lat="45.5911" lon="5.73752">
        <ele>592.3</ele>
        <time>2019-10-27T13:25:31.000Z</time>
      </trkpt>
      <trkpt lat="45.59109" lon="5.73753">
        <ele>592</ele>
        <time>2019-10-27T13:25:32.000Z</time>
      </trkpt>
      <trkpt lat="45.59109" lon="5.73754">
        <ele>592</ele>
        <time>2019-10-27T13:25:33.000Z</time>
      </trkpt>
      <trkpt lat="45.59108" lon="5.73754">
        <ele>592</ele>
        <time>2019-10-27T13:25:34.000Z</time>
      </trkpt>
      <trkpt lat="45.59107" lon="5.73754">
        <ele>592</ele>
        <time>2019-10-27T13:25:35.000Z</time>
      </trkpt>
      <trkpt lat="45.59107" lon="5.73754">
        <ele>592</ele>
        <time>2019-10-27T13:25:36.000Z</time>
      </trkpt>
      <trkpt lat="45.59106" lon="5.73754">
        <ele>592</ele>
        <time>2019-10-27T13:25:37.000Z</time>
      </trkpt>
      <trkpt lat="45.59105" lon="5.73753">
        <ele>592</ele>
        <time>2019-10-27T13:25:38.000Z</time>
      </trkpt>
      <trkpt lat="45.59104" lon="5.73751">
        <ele>592</ele>
        <time>2019-10-27T13:25:39.000Z</time>
      </trkpt>
      <trkpt lat="45.59103" lon="5.7375">
        <ele>592</ele>
        <time>2019-10-27T13:25:40.000Z</time>
      </trkpt>
      <trkpt lat="45.59103" lon="5.73748">
        <ele>592</ele>
        <time>2019-10-27T13:25:41.000Z</time>
      </trkpt>
      <trkpt lat="45.59103" lon="5.73746">
        <ele>592</ele>
        <time>2019-10-27T13:25:42.000Z</time>
      </trkpt>
      <trkpt lat="45.59103" lon="5.73744">
        <ele>592</ele>
        <time>2019-10-27T13:25:43.000Z</time>
      </trkpt>
      <trkpt lat="45.59103" lon="5.73742">
        <ele>592</ele>
        <time>2019-10-27T13:25:44.000Z</time>
      </trkpt>
      <trkpt lat="45.59103" lon="5.73741">
        <ele>592</ele>
        <time>2019-10-27T13:25:45.000Z</time>
      </trkpt>
      <trkpt lat="45.59103" lon="5.73739">
        <ele>592</ele>
        <time>2019-10-27T13:25:46.000Z</time>
      </trkpt>
      <trkpt lat="45.59104" lon="5.73737">
        <ele>592</ele>
        <time>2019-10-27T13:25:47.000Z</time>
      </trkpt>
      <trkpt lat="45.59104" lon="5.73735">
        <ele>592</ele>
        <time>2019-10-27T13:25:48.000Z</time>
      </trkpt>
      <trkpt lat="45.59104" lon="5.73734">
        <ele>592</ele>
        <time>2019-10-27T13:25:49.000Z</time>
      </trkpt>
      <trkpt lat="45.59104" lon="5.73732">
        <ele>592</ele>
        <time>2019-10-27T13:25:50.000Z</time>
      </trkpt>
      <trkpt lat="45.59103" lon="5.73731">
        <ele>592</ele>
        <time>2019-10-27T13:25:51.000Z</time>
      </trkpt>
      <trkpt lat="45.59103" lon="5.73729">
        <ele>592</ele>
        <time>2019-10-27T13:25:52.000Z</time>
      </trkpt>
      <trkpt lat="45.59102" lon="5.73728">
        <ele>592</ele>
        <time>2019-10-27T13:25:53.000Z</time>
      </trkpt>
      <trkpt lat="45.59102" lon="5.73728">
        <ele>592</ele>
        <time>2019-10-27T13:25:54.000Z</time>
      </trkpt>
      <trkpt lat="45.59101" lon="5.73727">
        <ele>592</ele>
        <time>2019-10-27T13:25:55.000Z</time>
      </trkpt>
      <trkpt lat="45.59101" lon="5.73727">
        <ele>592</ele>
        <time>2019-10-27T13:25:56.000Z</time>
      </trkpt>
      <trkpt lat="45.59101" lon="5.73726">
        <ele>592</ele>
        <time>2019-10-27T13:25:57.000Z</time>
      </trkpt>
      <trkpt lat="45.591" lon="5.73726">
        <ele>592.3</ele>
        <time>2019-10-27T13:25:58.000Z</time>
      </trkpt>
      <trkpt lat="45.591" lon="5.73726">
        <ele>592.7</ele>
        <time>2019-10-27T13:25:59.000Z</time>
      </trkpt>
      <trkpt lat="45.59099" lon="5.73725">
        <ele>593</ele>
        <time>2019-10-27T13:26:00.000Z</time>
      </trkpt>
      <trkpt lat="45.59099" lon="5.73724">
        <ele>593</ele>
        <time>2019-10-27T13:26:01.000Z</time>
      </trkpt>
      <trkpt lat="45.59098" lon="5.73723">
        <ele>593</ele>
        <time>2019-10-27T13:26:02.000Z</time>
      </trkpt>
      <trkpt lat="45.59097" lon="5.73722">
        <ele>593</ele>
        <time>2019-10-27T13:26:03.000Z</time>
      </trkpt>
      <trkpt lat="45.59097" lon="5.7372">
        <ele>593</ele>
        <time>2019-10-27T13:26:04.000Z</time>
      </trkpt>
      <trkpt lat="45.59096" lon="5.73719">
        <ele>594</ele>
        <time>2019-10-27T13:26:05.000Z</time>
      </trkpt>
      <trkpt lat="45.59096" lon="5.73717">
        <ele>594</ele>
        <time>2019-10-27T13:26:06.000Z</time>
      </trkpt>
      <trkpt lat="45.59095" lon="5.73716">
        <ele>594</ele>
        <time>2019-10-27T13:26:07.000Z</time>
      </trkpt>
      <trkpt lat="45.59095" lon="5.73714">
        <ele>594</ele>
        <time>2019-10-27T13:26:08.000Z</time>
      </trkpt>
      <trkpt lat="45.59095" lon="5.73713">
        <ele>594</ele>
        <time>2019-10-27T13:26:09.000Z</time>
      </trkpt>
      <trkpt lat="45.59094" lon="5.73711">
        <ele>594</ele>
        <time>2019-10-27T13:26:10.000Z</time>
      </trkpt>
      <trkpt lat="45.59094" lon="5.7371">
        <ele>594</ele>
        <time>2019-10-27T13:26:11.000Z</time>
      </trkpt>
      <trkpt lat="45.59094" lon="5.73708">
        <ele>594</ele>
        <time>2019-10-27T13:26:12.000Z</time>
      </trkpt>
      <trkpt lat="45.59094" lon="5.73707">
        <ele>594</ele>
        <time>2019-10-27T13:26:13.000Z</time>
      </trkpt>
      <trkpt lat="45.59095" lon="5.73705">
        <ele>594</ele>
        <time>2019-10-27T13:26:14.000Z</time>
      </trkpt>
      <trkpt lat="45.59095" lon="5.73704">
        <ele>594</ele>
        <time>2019-10-27T13:26:15.000Z</time>
      </trkpt>
      <trkpt lat="45.59095" lon="5.73702">
        <ele>594</ele>
        <time>2019-10-27T13:26:16.000Z</time>
      </trkpt>
      <trkpt lat="45.59095" lon="5.73701">
        <ele>594</ele>
        <time>2019-10-27T13:26:17.000Z</time>
      </trkpt>
      <trkpt lat="45.59095" lon="5.737">
        <ele>594</ele>
        <time>2019-10-27T13:26:18.000Z</time>
      </trkpt>
      <trkpt lat="45.59095" lon="5.73698">
        <ele>594</ele>
        <time>2019-10-27T13:26:19.000Z</time>
      </trkpt>
      <trkpt lat="45.59095" lon="5.73697">
        <ele>594</ele>
        <time>2019-10-27T13:26:20.000Z</time>
      </trkpt>
      <trkpt lat="45.59095" lon="5.73696">
        <ele>594</ele>
        <time>2019-10-27T13:26:21.000Z</time>
      </trkpt>
      <trkpt lat="45.59094" lon="5.73695">
        <ele>594</ele>
        <time>2019-10-27T13:26:22.000Z</time>
      </trkpt>
      <trkpt lat="45.59094" lon="5.73694">
        <ele>594</ele>
        <time>2019-10-27T13:26:23.000Z</time>
      </trkpt>
      <trkpt lat="45.59093" lon="5.73693">
        <ele>594</ele>
        <time>2019-10-27T13:26:24.000Z</time>
      </trkpt>
      <trkpt lat="45.59093" lon="5.73692">
        <ele>594</ele>
        <time>2019-10-27T13:26:25.000Z</time>
      </trkpt>
      <trkpt lat="45.59092" lon="5.73691">
        <ele>594</ele>
        <time>2019-10-27T13:26:26.000Z</time>
      </trkpt>
      <trkpt lat="45.59091" lon="5.7369">
        <ele>594</ele>
        <time>2019-10-27T13:26:27.000Z</time>
      </trkpt>
      <trkpt lat="45.59089" lon="5.73689">
        <ele>594</ele>
        <time>2019-10-27T13:26:28.000Z</time>
      </trkpt>
      <trkpt lat="45.59088" lon="5.73688">
        <ele>594</ele>
        <time>2019-10-27T13:26:29.000Z</time>
      </trkpt>
      <trkpt lat="45.59087" lon="5.73688">
        <ele>594</ele>
        <time>2019-10-27T13:26:30.000Z</time>
      </trkpt>
      <trkpt lat="45.59085" lon="5.73687">
        <ele>594</ele>
        <time>2019-10-27T13:26:31.000Z</time>
      </trkpt>
      <trkpt lat="45.59084" lon="5.73686">
        <ele>594</ele>
        <time>2019-10-27T13:26:32.000Z</time>
      </trkpt>
      <trkpt lat="45.59082" lon="5.73686">
        <ele>594</ele>
        <time>2019-10-27T13:26:33.000Z</time>
      </trkpt>
      <trkpt lat="45.5908" lon="5.73685">
        <ele>594</ele>
        <time>2019-10-27T13:26:34.000Z</time>
      </trkpt>
      <trkpt lat="45.59079" lon="5.73685">
        <ele>594</ele>
        <time>2019-10-27T13:26:35.000Z</time>
      </trkpt>
      <trkpt lat="45.59077" lon="5.73684">
        <ele>594</ele>
        <time>2019-10-27T13:26:36.000Z</time>
      </trkpt>
      <trkpt lat="45.59076" lon="5.73684">
        <ele>594</ele>
        <time>2019-10-27T13:26:37.000Z</time>
      </trkpt>
      <trkpt lat="45.59074" lon="5.73683">
        <ele>594</ele>
        <time>2019-10-27T13:26:38.000Z</time>
      </trkpt>
      <trkpt lat="45.59073" lon="5.73683">
        <ele>594</ele>
        <time>2019-10-27T13:26:39.000Z</time>
      </trkpt>
      <trkpt lat="45.59072" lon="5.73682">
        <ele>594</ele>
        <time>2019-10-27T13:26:40.000Z</time>
      </trkpt>
      <trkpt lat="45.5907" lon="5.73682">
        <ele>593</ele>
        <time>2019-10-27T13:26:41.000Z</time>
      </trkpt>
      <trkpt lat="45.59069" lon="5.73682">
        <ele>593</ele>
        <time>2019-10-27T13:26:42.000Z</time>
      </trkpt>
      <trkpt lat="45.59068" lon="5.73681">
        <ele>593</ele>
        <time>2019-10-27T13:26:43.000Z</time>
      </trkpt>
      <trkpt lat="45.59067" lon="5.73681">
        <ele>593</ele>
        <time>2019-10-27T13:26:44.000Z</time>
      </trkpt>
      <trkpt lat="45.59067" lon="5.73681">
        <ele>593</ele>
        <time>2019-10-27T13:26:45.000Z</time>
      </trkpt>
      <trkpt lat="45.59066" lon="5.73681">
        <ele>593</ele>
        <time>2019-10-27T13:26:46.000Z</time>
      </trkpt>
      <trkpt lat="45.59065" lon="5.73681">
        <ele>593</ele>
        <time>2019-10-27T13:26:47.000Z</time>
      </trkpt>
      <trkpt lat="45.59064" lon="5.73682">
        <ele>593</ele>
        <time>2019-10-27T13:26:48.000Z</time>
      </trkpt>
      <trkpt lat="45.59062" lon="5.73682">
        <ele>593</ele>
        <time>2019-10-27T13:26:49.000Z</time>
      </trkpt>
      <trkpt lat="45.59061" lon="5.73683">
        <ele>593</ele>
        <time>2019-10-27T13:26:50.000Z</time>
      </trkpt>
      <trkpt lat="45.5906" lon="5.73683">
        <ele>593</ele>
        <time>2019-10-27T13:26:51.000Z</time>
      </trkpt>
      <trkpt lat="45.59059" lon="5.73684">
        <ele>593</ele>
        <time>2019-10-27T13:26:52.000Z</time>
      </trkpt>
      <trkpt lat="45.59057" lon="5.73684">
        <ele>593</ele>
        <time>2019-10-27T13:26:53.000Z</time>
      </trkpt>
      <trkpt lat="45.59056" lon="5.73684">
        <ele>593</ele>
        <time>2019-10-27T13:26:54.000Z</time>
      </trkpt>
      <trkpt lat="45.59055" lon="5.73685">
        <ele>593</ele>
        <time>2019-10-27T13:26:55.000Z</time>
      </trkpt>
      <trkpt lat="45.59054" lon="5.73685">
        <ele>593</ele>
        <time>2019-10-27T13:26:56.000Z</time>
      </trkpt>
      <trkpt lat="45.59053" lon="5.73685">
        <ele>593</ele>
        <time>2019-10-27T13:26:57.000Z</time>
      </trkpt>
      <trkpt lat="45.59052" lon="5.73685">
        <ele>593</ele>
        <time>2019-10-27T13:26:58.000Z</time>
      </trkpt>
      <trkpt lat="45.59051" lon="5.73685">
        <ele>593</ele>
        <time>2019-10-27T13:26:59.000Z</time>
      </trkpt>
      <trkpt lat="45.5905" lon="5.73685">
        <ele>593</ele>
        <time>2019-10-27T13:27:00.000Z</time>
      </trkpt>
      <trkpt lat="45.59049" lon="5.73685">
        <ele>593</ele>
        <time>2019-10-27T13:27:01.000Z</time>
      </trkpt>
      <trkpt lat="45.59048" lon="5.73685">
        <ele>593</ele>
        <time>2019-10-27T13:27:02.000Z</time>
      </trkpt>
      <trkpt lat="45.59047" lon="5.73685">
        <ele>593</ele>
        <time>2019-10-27T13:27:03.000Z</time>
      </trkpt>
      <trkpt lat="45.59045" lon="5.73685">
        <ele>593</ele>
        <time>2019-10-27T13:27:04.000Z</time>
      </trkpt>
      <trkpt lat="45.59044" lon="5.73685">
        <ele>593</ele>
        <time>2019-10-27T13:27:05.000Z</time>
      </trkpt>
      <trkpt lat="45.59043" lon="5.73686">
        <ele>593</ele>
        <time>2019-10-27T13:27:06.000Z</time>
      </trkpt>
      <trkpt lat="45.59041" lon="5.73686">
        <ele>593</ele>
        <time>2019-10-27T13:27:07.000Z</time>
      </trkpt>
      <trkpt lat="45.5904" lon="5.73686">
        <ele>593</ele>
        <time>2019-10-27T13:27:08.000Z</time>
      </trkpt>
      <trkpt lat="45.59039" lon="5.73686">
        <ele>593</ele>
        <time>2019-10-27T13:27:09.000Z</time>
      </trkpt>
      <trkpt lat="45.59038" lon="5.73686">
        <ele>593</ele>
        <time>2019-10-27T13:27:10.000Z</time>
      </trkpt>
      <trkpt lat="45.59037" lon="5.73686">
        <ele>593</ele>
        <time>2019-10-27T13:27:11.000Z</time>
      </trkpt>
      <trkpt lat="45.59037" lon="5.73685">
        <ele>593</ele>
        <time>2019-10-27T13:27:12.000Z</time>
      </trkpt>
      <trkpt lat="45.59036" lon="5.73685">
        <ele>593</ele>
        <time>2019-10-27T13:27:13.000Z</time>
      </trkpt>
      <trkpt lat="45.59036" lon="5.73685">
        <ele>593</ele>
        <time>2019-10-27T13:27:14.000Z</time>
      </trkpt>
      <trkpt lat="45.59035" lon="5.73685">
        <ele>593</ele>
        <time>2019-10-27T13:27:15.000Z</time>
      </trkpt>
      <trkpt lat="45.59035" lon="5.73685">
        <ele>593.3</ele>
        <time>2019-10-27T13:27:16.000Z</time>
      </trkpt>
      <trkpt lat="45.59034" lon="5.73685">
        <ele>593.7</ele>
        <time>2019-10-27T13:27:17.000Z</time>
      </trkpt>
      <trkpt lat="45.59034" lon="5.73684">
        <ele>594</ele>
        <time>2019-10-27T13:27:18.000Z</time>
      </trkpt>
      <trkpt lat="45.59033" lon="5.73684">
        <ele>594</ele>
        <time>2019-10-27T13:27:19.000Z</time>
      </trkpt>
      <trkpt lat="45.59032" lon="5.73684">
        <ele>594</ele>
        <time>2019-10-27T13:27:20.000Z</time>
      </trkpt>
      <trkpt lat="45.59031" lon="5.73684">
        <ele>594</ele>
        <time>2019-10-27T13:27:21.000Z</time>
      </trkpt>
      <trkpt lat="45.5903" lon="5.73684">
        <ele>594</ele>
        <time>2019-10-27T13:27:22.000Z</time>
      </trkpt>
      <trkpt lat="45.59028" lon="5.73684">
        <ele>594</ele>
        <time>2019-10-27T13:27:23.000Z</time>
      </trkpt>
      <trkpt lat="45.59027" lon="5.73684">
        <ele>594</ele>
        <time>2019-10-27T13:27:24.000Z</time>
      </trkpt>
      <trkpt lat="45.59026" lon="5.73684">
        <ele>594</ele>
        <time>2019-10-27T13:27:25.000Z</time>
      </trkpt>
      <trkpt lat="45.59025" lon="5.73684">
        <ele>594</ele>
        <time>2019-10-27T13:27:26.000Z</time>
      </trkpt>
      <trkpt lat="45.59024" lon="5.73684">
        <ele>595</ele>
        <time>2019-10-27T13:27:27.000Z</time>
      </trkpt>
      <trkpt lat="45.59024" lon="5.73684">
        <ele>595</ele>
        <time>2019-10-27T13:27:28.000Z</time>
      </trkpt>
      <trkpt lat="45.59023" lon="5.73684">
        <ele>595</ele>
        <time>2019-10-27T13:27:29.000Z</time>
      </trkpt>
      <trkpt lat="45.59022" lon="5.73683">
        <ele>595</ele>
        <time>2019-10-27T13:27:30.000Z</time>
      </trkpt>
      <trkpt lat="45.59021" lon="5.73683">
        <ele>595</ele>
        <time>2019-10-27T13:27:31.000Z</time>
      </trkpt>
      <trkpt lat="45.5902" lon="5.73683">
        <ele>595</ele>
        <time>2019-10-27T13:27:32.000Z</time>
      </trkpt>
      <trkpt lat="45.5902" lon="5.73683">
        <ele>595</ele>
        <time>2019-10-27T13:27:33.000Z</time>
      </trkpt>
      <trkpt lat="45.59019" lon="5.73683">
        <ele>595</ele>
        <time>2019-10-27T13:27:34.000Z</time>
      </trkpt>
      <trkpt lat="45.59018" lon="5.73683">
        <ele>595</ele>
        <time>2019-10-27T13:27:35.000Z</time>
      </trkpt>
      <trkpt lat="45.59017" lon="5.73683">
        <ele>595</ele>
        <time>2019-10-27T13:27:36.000Z</time>
      </trkpt>
      <trkpt lat="45.59016" lon="5.73683">
        <ele>595</ele>
        <time>2019-10-27T13:27:37.000Z</time>
      </trkpt>
      <trkpt lat="45.59015" lon="5.73683">
        <ele>595.3</ele>
        <time>2019-10-27T13:27:38.000Z</time>
      </trkpt>
      <trkpt lat="45.59014" lon="5.73683">
        <ele>595.7</ele>
        <time>2019-10-27T13:27:39.000Z</time>
      </trkpt>
      <trkpt lat="45.59013" lon="5.73684">
        <ele>596</ele>
        <time>2019-10-27T13:27:40.000Z</time>
      </trkpt>
      <trkpt lat="45.59012" lon="5.73684">
        <ele>596</ele>
        <time>2019-10-27T13:27:41.000Z</time>
      </trkpt>
      <trkpt lat="45.59012" lon="5.73684">
        <ele>596</ele>
        <time>2019-10-27T13:27:42.000Z</time>
      </trkpt>
      <trkpt lat="45.59011" lon="5.73684">
        <ele>596</ele>
        <time>2019-10-27T13:27:43.000Z</time>
      </trkpt>
      <trkpt lat="45.5901" lon="5.73684">
        <ele>596</ele>
        <time>2019-10-27T13:27:44.000Z</time>
      </trkpt>
      <trkpt lat="45.5901" lon="5.73684">
        <ele>596</ele>
        <time>2019-10-27T13:27:45.000Z</time>
      </trkpt>
      <trkpt lat="45.59009" lon="5.73684">
        <ele>596</ele>
        <time>2019-10-27T13:27:46.000Z</time>
      </trkpt>
      <trkpt lat="45.59009" lon="5.73684">
        <ele>596</ele>
        <time>2019-10-27T13:27:47.000Z</time>
      </trkpt>
      <trkpt lat="45.59008" lon="5.73684">
        <ele>596</ele>
        <time>2019-10-27T13:27:48.000Z</time>
      </trkpt>
      <trkpt lat="45.59007" lon="5.73684">
        <ele>596</ele>
        <time>2019-10-27T13:27:49.000Z</time>
      </trkpt>
      <trkpt lat="45.59007" lon="5.73684">
        <ele>596</ele>
        <time>2019-10-27T13:27:50.000Z</time>
      </trkpt>
      <trkpt lat="45.59006" lon="5.73684">
        <ele>596</ele>
        <time>2019-10-27T13:27:51.000Z</time>
      </trkpt>
      <trkpt lat="45.59005" lon="5.73684">
        <ele>596</ele>
        <time>2019-10-27T13:27:52.000Z</time>
      </trkpt>
      <trkpt lat="45.59004" lon="5.73684">
        <ele>596</ele>
        <time>2019-10-27T13:27:53.000Z</time>
      </trkpt>
      <trkpt lat="45.59003" lon="5.73684">
        <ele>596</ele>
        <time>2019-10-27T13:27:54.000Z</time>
      </trkpt>
      <trkpt lat="45.59002" lon="5.73684">
        <ele>596</ele>
        <time>2019-10-27T13:27:55.000Z</time>
      </trkpt>
      <trkpt lat="45.59001" lon="5.73684">
        <ele>596</ele>
        <time>2019-10-27T13:27:56.000Z</time>
      </trkpt>
      <trkpt lat="45.58999" lon="5.73684">
        <ele>596</ele>
        <time>2019-10-27T13:27:57.000Z</time>
      </trkpt>
      <trkpt lat="45.58998" lon="5.73684">
        <ele>596</ele>
        <time>2019-10-27T13:27:58.000Z</time>
      </trkpt>
      <trkpt lat="45.58997" lon="5.73684">
        <ele>596</ele>
        <time>2019-10-27T13:27:59.000Z</time>
      </trkpt>
      <trkpt lat="45.58996" lon="5.73684">
        <ele>596</ele>
        <time>2019-10-27T13:28:00.000Z</time>
      </trkpt>
      <trkpt lat="45.58994" lon="5.73684">
        <ele>596</ele>
        <time>2019-10-27T13:28:01.000Z</time>
      </trkpt>
      <trkpt lat="45.58993" lon="5.73684">
        <ele>596</ele>
        <time>2019-10-27T13:28:02.000Z</time>
      </trkpt>
      <trkpt lat="45.58992" lon="5.73684">
        <ele>596</ele>
        <time>2019-10-27T13:28:03.000Z</time>
      </trkpt>
      <trkpt lat="45.5899" lon="5.73684">
        <ele>596</ele>
        <time>2019-10-27T13:28:04.000Z</time>
      </trkpt>
      <trkpt lat="45.58989" lon="5.73684">
        <ele>596</ele>
        <time>2019-10-27T13:28:05.000Z</time>
      </trkpt>
      <trkpt lat="45.58988" lon="5.73683">
        <ele>596</ele>
        <time>2019-10-27T13:28:06.000Z</time>
      </trkpt>
      <trkpt lat="45.58987" lon="5.73683">
        <ele>596</ele>
        <time>2019-10-27T13:28:07.000Z</time>
      </trkpt>
      <trkpt lat="45.58986" lon="5.73683">
        <ele>596</ele>
        <time>2019-10-27T13:28:08.000Z</time>
      </trkpt>
      <trkpt lat="45.58985" lon="5.73683">
        <ele>596</ele>
        <time>2019-10-27T13:28:09.000Z</time>
      </trkpt>
      <trkpt lat="45.58984" lon="5.73682">
        <ele>596</ele>
        <time>2019-10-27T13:28:10.000Z</time>
      </trkpt>
      <trkpt lat="45.58983" lon="5.73682">
        <ele>597</ele>
        <time>2019-10-27T13:28:11.000Z</time>
      </trkpt>
      <trkpt lat="45.58982" lon="5.73682">
        <ele>597</ele>
        <time>2019-10-27T13:28:12.000Z</time>
      </trkpt>
      <trkpt lat="45.58981" lon="5.73681">
        <ele>597</ele>
        <time>2019-10-27T13:28:13.000Z</time>
      </trkpt>
      <trkpt lat="45.5898" lon="5.73681">
        <ele>597</ele>
        <time>2019-10-27T13:28:14.000Z</time>
      </trkpt>
      <trkpt lat="45.58979" lon="5.7368">
        <ele>597</ele>
        <time>2019-10-27T13:28:15.000Z</time>
      </trkpt>
      <trkpt lat="45.58978" lon="5.73679">
        <ele>597</ele>
        <time>2019-10-27T13:28:16.000Z</time>
      </trkpt>
      <trkpt lat="45.58977" lon="5.73678">
        <ele>597</ele>
        <time>2019-10-27T13:28:17.000Z</time>
      </trkpt>
      <trkpt lat="45.58976" lon="5.73677">
        <ele>597</ele>
        <time>2019-10-27T13:28:18.000Z</time>
      </trkpt>
      <trkpt lat="45.58975" lon="5.73676">
        <ele>597</ele>
        <time>2019-10-27T13:28:19.000Z</time>
      </trkpt>
      <trkpt lat="45.58974" lon="5.73675">
        <ele>597</ele>
        <time>2019-10-27T13:28:20.000Z</time>
      </trkpt>
      <trkpt lat="45.58973" lon="5.73674">
        <ele>597</ele>
        <time>2019-10-27T13:28:21.000Z</time>
      </trkpt>
      <trkpt lat="45.58972" lon="5.73672">
        <ele>597</ele>
        <time>2019-10-27T13:28:22.000Z</time>
      </trkpt>
      <trkpt lat="45.58972" lon="5.73671">
        <ele>597</ele>
        <time>2019-10-27T13:28:23.000Z</time>
      </trkpt>
      <trkpt lat="45.58971" lon="5.7367">
        <ele>597</ele>
        <time>2019-10-27T13:28:24.000Z</time>
      </trkpt>
      <trkpt lat="45.58968" lon="5.7367">
        <ele>596</ele>
        <time>2019-10-27T13:28:25.000Z</time>
      </trkpt>
      <trkpt lat="45.58965" lon="5.73671">
        <ele>596</ele>
        <time>2019-10-27T13:28:26.000Z</time>
      </trkpt>
      <trkpt lat="45.58962" lon="5.73671">
        <ele>596</ele>
        <time>2019-10-27T13:28:27.000Z</time>
      </trkpt>
      <trkpt lat="45.5896" lon="5.73671">
        <ele>596</ele>
        <time>2019-10-27T13:28:28.000Z</time>
      </trkpt>
      <trkpt lat="45.58957" lon="5.73671">
        <ele>596</ele>
        <time>2019-10-27T13:28:29.000Z</time>
      </trkpt>
      <trkpt lat="45.58955" lon="5.73671">
        <ele>596</ele>
        <time>2019-10-27T13:28:30.000Z</time>
      </trkpt>
      <trkpt lat="45.58953" lon="5.7367">
        <ele>596</ele>
        <time>2019-10-27T13:28:31.000Z</time>
      </trkpt>
      <trkpt lat="45.58954" lon="5.73667">
        <ele>596</ele>
        <time>2019-10-27T13:28:32.000Z</time>
      </trkpt>
      <trkpt lat="45.58957" lon="5.73663">
        <ele>596</ele>
        <time>2019-10-27T13:28:33.000Z</time>
      </trkpt>
      <trkpt lat="45.58961" lon="5.73657">
        <ele>596</ele>
        <time>2019-10-27T13:28:34.000Z</time>
      </trkpt>
      <trkpt lat="45.58967" lon="5.73648">
        <ele>595</ele>
        <time>2019-10-27T13:28:35.000Z</time>
      </trkpt>
      <trkpt lat="45.58974" lon="5.73639">
        <ele>595</ele>
        <time>2019-10-27T13:28:36.000Z</time>
      </trkpt>
      <trkpt lat="45.58979" lon="5.73631">
        <ele>595</ele>
        <time>2019-10-27T13:28:37.000Z</time>
      </trkpt>
      <trkpt lat="45.5898" lon="5.73628">
        <ele>595</ele>
        <time>2019-10-27T13:28:38.000Z</time>
      </trkpt>
      <trkpt lat="45.58979" lon="5.73628">
        <ele>595</ele>
        <time>2019-10-27T13:28:39.000Z</time>
      </trkpt>
      <trkpt lat="45.58978" lon="5.73628">
        <ele>595</ele>
        <time>2019-10-27T13:28:40.000Z</time>
      </trkpt>
      <trkpt lat="45.58978" lon="5.73627">
        <ele>595</ele>
        <time>2019-10-27T13:28:41.000Z</time>
      </trkpt>
      <trkpt lat="45.58978" lon="5.73625">
        <ele>595</ele>
        <time>2019-10-27T13:28:42.000Z</time>
      </trkpt>
      <trkpt lat="45.58979" lon="5.73624">
        <ele>595</ele>
        <time>2019-10-27T13:28:43.000Z</time>
      </trkpt>
      <trkpt lat="45.58979" lon="5.73622">
        <ele>595</ele>
        <time>2019-10-27T13:28:44.000Z</time>
      </trkpt>
      <trkpt lat="45.58979" lon="5.7362">
        <ele>595</ele>
        <time>2019-10-27T13:28:45.000Z</time>
      </trkpt>
      <trkpt lat="45.58978" lon="5.73619">
        <ele>595</ele>
        <time>2019-10-27T13:28:46.000Z</time>
      </trkpt>
      <trkpt lat="45.58978" lon="5.73618">
        <ele>594</ele>
        <time>2019-10-27T13:28:47.000Z</time>
      </trkpt>
      <trkpt lat="45.58977" lon="5.73617">
        <ele>594</ele>
        <time>2019-10-27T13:28:48.000Z</time>
      </trkpt>
      <trkpt lat="45.58976" lon="5.73616">
        <ele>594</ele>
        <time>2019-10-27T13:28:49.000Z</time>
      </trkpt>
      <trkpt lat="45.58974" lon="5.73615">
        <ele>594</ele>
        <time>2019-10-27T13:28:50.000Z</time>
      </trkpt>
      <trkpt lat="45.58973" lon="5.73614">
        <ele>594</ele>
        <time>2019-10-27T13:28:51.000Z</time>
      </trkpt>
      <trkpt lat="45.58971" lon="5.73614">
        <ele>594</ele>
        <time>2019-10-27T13:28:52.000Z</time>
      </trkpt>
      <trkpt lat="45.58969" lon="5.73614">
        <ele>594</ele>
        <time>2019-10-27T13:28:53.000Z</time>
      </trkpt>
      <trkpt lat="45.58967" lon="5.73613">
        <ele>594</ele>
        <time>2019-10-27T13:28:54.000Z</time>
      </trkpt>
      <trkpt lat="45.58965" lon="5.73614">
        <ele>594</ele>
        <time>2019-10-27T13:28:55.000Z</time>
      </trkpt>
      <trkpt lat="45.58963" lon="5.73614">
        <ele>594</ele>
        <time>2019-10-27T13:28:56.000Z</time>
      </trkpt>
      <trkpt lat="45.5896" lon="5.73614">
        <ele>594</ele>
        <time>2019-10-27T13:28:57.000Z</time>
      </trkpt>
      <trkpt lat="45.58958" lon="5.73614">
        <ele>594</ele>
        <time>2019-10-27T13:28:58.000Z</time>
      </trkpt>
      <trkpt lat="45.58956" lon="5.73614">
        <ele>594</ele>
        <time>2019-10-27T13:28:59.000Z</time>
      </trkpt>
      <trkpt lat="45.58954" lon="5.73614">
        <ele>594</ele>
        <time>2019-10-27T13:29:00.000Z</time>
      </trkpt>
      <trkpt lat="45.58951" lon="5.73614">
        <ele>594</ele>
        <time>2019-10-27T13:29:01.000Z</time>
      </trkpt>
      <trkpt lat="45.58949" lon="5.73613">
        <ele>594</ele>
        <time>2019-10-27T13:29:02.000Z</time>
      </trkpt>
      <trkpt lat="45.58947" lon="5.73613">
        <ele>594</ele>
        <time>2019-10-27T13:29:03.000Z</time>
      </trkpt>
      <trkpt lat="45.58946" lon="5.73612">
        <ele>594</ele>
        <time>2019-10-27T13:29:04.000Z</time>
      </trkpt>
      <trkpt lat="45.58944" lon="5.73611">
        <ele>594</ele>
        <time>2019-10-27T13:29:05.000Z</time>
      </trkpt>
      <trkpt lat="45.58943" lon="5.73611">
        <ele>594</ele>
        <time>2019-10-27T13:29:06.000Z</time>
      </trkpt>
      <trkpt lat="45.58943" lon="5.7361">
        <ele>594</ele>
        <time>2019-10-27T13:29:07.000Z</time>
      </trkpt>
      <trkpt lat="45.58942" lon="5.73609">
        <ele>594</ele>
        <time>2019-10-27T13:29:08.000Z</time>
      </trkpt>
      <trkpt lat="45.58942" lon="5.73609">
        <ele>594</ele>
        <time>2019-10-27T13:29:09.000Z</time>
      </trkpt>
      <trkpt lat="45.58942" lon="5.73609">
        <ele>594</ele>
        <time>2019-10-27T13:29:10.000Z</time>
      </trkpt>
      <trkpt lat="45.58942" lon="5.73608">
        <ele>594</ele>
        <time>2019-10-27T13:29:11.000Z</time>
      </trkpt>
      <trkpt lat="45.58942" lon="5.73608">
        <ele>594</ele>
        <time>2019-10-27T13:29:12.000Z</time>
      </trkpt>
      <trkpt lat="45.58942" lon="5.73608">
        <ele>594</ele>
        <time>2019-10-27T13:29:13.000Z</time>
      </trkpt>
      <trkpt lat="45.58943" lon="5.73608">
        <ele>594</ele>
        <time>2019-10-27T13:29:14.000Z</time>
      </trkpt>
      <trkpt lat="45.58943" lon="5.73608">
        <ele>594</ele>
        <time>2019-10-27T13:29:15.000Z</time>
      </trkpt>
      <trkpt lat="45.58943" lon="5.73608">
        <ele>594</ele>
        <time>2019-10-27T13:29:16.000Z</time>
      </trkpt>
      <trkpt lat="45.58943" lon="5.73608">
        <ele>594</ele>
        <time>2019-10-27T13:29:17.000Z</time>
      </trkpt>
      <trkpt lat="45.58943" lon="5.73608">
        <ele>594</ele>
        <time>2019-10-27T13:29:18.000Z</time>
      </trkpt>
      <trkpt lat="45.58942" lon="5.73607">
        <ele>594</ele>
        <time>2019-10-27T13:29:19.000Z</time>
      </trkpt>
      <trkpt lat="45.58942" lon="5.73606">
        <ele>594</ele>
        <time>2019-10-27T13:29:20.000Z</time>
      </trkpt>
      <trkpt lat="45.58942" lon="5.73605">
        <ele>594</ele>
        <time>2019-10-27T13:29:21.000Z</time>
      </trkpt>
      <trkpt lat="45.58942" lon="5.73603">
        <ele>594</ele>
        <time>2019-10-27T13:29:22.000Z</time>
      </trkpt>
      <trkpt lat="45.58942" lon="5.73601">
        <ele>594</ele>
        <time>2019-10-27T13:29:23.000Z</time>
      </trkpt>
      <trkpt lat="45.58942" lon="5.73598">
        <ele>594</ele>
        <time>2019-10-27T13:29:24.000Z</time>
      </trkpt>
      <trkpt lat="45.58942" lon="5.73595">
        <ele>594</ele>
        <time>2019-10-27T13:29:25.000Z</time>
      </trkpt>
      <trkpt lat="45.58942" lon="5.73593">
        <ele>594</ele>
        <time>2019-10-27T13:29:26.000Z</time>
      </trkpt>
      <trkpt lat="45.58941" lon="5.73591">
        <ele>594</ele>
        <time>2019-10-27T13:29:27.000Z</time>
      </trkpt>
      <trkpt lat="45.58941" lon="5.73589">
        <ele>594</ele>
        <time>2019-10-27T13:29:28.000Z</time>
      </trkpt>
      <trkpt lat="45.5894" lon="5.73587">
        <ele>594</ele>
        <time>2019-10-27T13:29:29.000Z</time>
      </trkpt>
      <trkpt lat="45.5894" lon="5.73585">
        <ele>594</ele>
        <time>2019-10-27T13:29:30.000Z</time>
      </trkpt>
      <trkpt lat="45.58939" lon="5.73584">
        <ele>594</ele>
        <time>2019-10-27T13:29:31.000Z</time>
      </trkpt>
      <trkpt lat="45.58939" lon="5.73583">
        <ele>594</ele>
        <time>2019-10-27T13:29:32.000Z</time>
      </trkpt>
      <trkpt lat="45.58938" lon="5.73582">
        <ele>594</ele>
        <time>2019-10-27T13:29:33.000Z</time>
      </trkpt>
      <trkpt lat="45.58938" lon="5.73582">
        <ele>594</ele>
        <time>2019-10-27T13:29:34.000Z</time>
      </trkpt>
      <trkpt lat="45.58937" lon="5.73581">
        <ele>594</ele>
        <time>2019-10-27T13:29:35.000Z</time>
      </trkpt>
      <trkpt lat="45.58937" lon="5.7358">
        <ele>594</ele>
        <time>2019-10-27T13:29:36.000Z</time>
      </trkpt>
      <trkpt lat="45.58937" lon="5.7358">
        <ele>594</ele>
        <time>2019-10-27T13:29:37.000Z</time>
      </trkpt>
      <trkpt lat="45.58936" lon="5.7358">
        <ele>594</ele>
        <time>2019-10-27T13:29:38.000Z</time>
      </trkpt>
      <trkpt lat="45.58936" lon="5.7358">
        <ele>594</ele>
        <time>2019-10-27T13:29:39.000Z</time>
      </trkpt>
      <trkpt lat="45.58936" lon="5.73579">
        <ele>594</ele>
        <time>2019-10-27T13:29:40.000Z</time>
      </trkpt>
      <trkpt lat="45.58936" lon="5.73579">
        <ele>594</ele>
        <time>2019-10-27T13:29:41.000Z</time>
      </trkpt>
      <trkpt lat="45.58935" lon="5.7358">
        <ele>594</ele>
        <time>2019-10-27T13:29:42.000Z</time>
      </trkpt>
      <trkpt lat="45.58935" lon="5.7358">
        <ele>594</ele>
        <time>2019-10-27T13:29:43.000Z</time>
      </trkpt>
      <trkpt lat="45.58935" lon="5.7358">
        <ele>594</ele>
        <time>2019-10-27T13:29:44.000Z</time>
      </trkpt>
      <trkpt lat="45.58935" lon="5.73581">
        <ele>594</ele>
        <time>2019-10-27T13:29:45.000Z</time>
      </trkpt>
      <trkpt lat="45.58934" lon="5.73581">
        <ele>594</ele>
        <time>2019-10-27T13:29:46.000Z</time>
      </trkpt>
      <trkpt lat="45.58934" lon="5.73581">
        <ele>594</ele>
        <time>2019-10-27T13:29:47.000Z</time>
      </trkpt>
      <trkpt lat="45.58934" lon="5.73581">
        <ele>594</ele>
        <time>2019-10-27T13:29:48.000Z</time>
      </trkpt>
      <trkpt lat="45.58934" lon="5.73582">
        <ele>594</ele>
        <time>2019-10-27T13:29:49.000Z</time>
      </trkpt>
      <trkpt lat="45.58934" lon="5.73582">
        <ele>594</ele>
        <time>2019-10-27T13:29:50.000Z</time>
      </trkpt>
      <trkpt lat="45.58934" lon="5.73581">
        <ele>594</ele>
        <time>2019-10-27T13:29:51.000Z</time>
      </trkpt>
      <trkpt lat="45.58934" lon="5.73581">
        <ele>594</ele>
        <time>2019-10-27T13:29:52.000Z</time>
      </trkpt>
      <trkpt lat="45.58934" lon="5.73581">
        <ele>594</ele>
        <time>2019-10-27T13:29:53.000Z</time>
      </trkpt>
      <trkpt lat="45.58934" lon="5.73581">
        <ele>594</ele>
        <time>2019-10-27T13:29:54.000Z</time>
      </trkpt>
      <trkpt lat="45.58934" lon="5.73581">
        <ele>594</ele>
        <time>2019-10-27T13:29:55.000Z</time>
      </trkpt>
      <trkpt lat="45.58934" lon="5.73581">
        <ele>594</ele>
        <time>2019-10-27T13:29:56.000Z</time>
      </trkpt>
      <trkpt lat="45.58934" lon="5.73581">
        <ele>594</ele>
        <time>2019-10-27T13:29:57.000Z</time>
      </trkpt>
      <trkpt lat="45.58934" lon="5.73581">
        <ele>594</ele>
        <time>2019-10-27T13:29:58.000Z</time>
      </trkpt>
      <trkpt lat="45.58934" lon="5.73581">
        <ele>594</ele>
        <time>2019-10-27T13:29:59.000Z</time>
      </trkpt>
      <trkpt lat="45.58934" lon="5.73581">
        <ele>594</ele>
        <time>2019-10-27T13:30:00.000Z</time>
      </trkpt>
      <trkpt lat="45.58934" lon="5.73581">
        <ele>594</ele>
        <time>2019-10-27T13:30:01.000Z</time>
      </trkpt>
      <trkpt lat="45.58934" lon="5.73581">
        <ele>594</ele>
        <time>2019-10-27T13:30:02.000Z</time>
      </trkpt>
      <trkpt lat="45.58933" lon="5.73582">
        <ele>594</ele>
        <time>2019-10-27T13:30:03.000Z</time>
      </trkpt>
      <trkpt lat="45.58933" lon="5.73582">
        <ele>594</ele>
        <time>2019-10-27T13:30:04.000Z</time>
      </trkpt>
      <trkpt lat="45.58933" lon="5.73582">
        <ele>594</ele>
        <time>2019-10-27T13:30:05.000Z</time>
      </trkpt>
      <trkpt lat="45.58932" lon="5.73583">
        <ele>594</ele>
        <time>2019-10-27T13:30:06.000Z</time>
      </trkpt>
      <trkpt lat="45.58932" lon="5.73583">
        <ele>594</ele>
        <time>2019-10-27T13:30:07.000Z</time>
      </trkpt>
      <trkpt lat="45.58932" lon="5.73584">
        <ele>594</ele>
        <time>2019-10-27T13:30:08.000Z</time>
      </trkpt>
      <trkpt lat="45.58932" lon="5.73585">
        <ele>594</ele>
        <time>2019-10-27T13:30:09.000Z</time>
      </trkpt>
      <trkpt lat="45.58931" lon="5.73586">
        <ele>594</ele>
        <time>2019-10-27T13:30:10.000Z</time>
      </trkpt>
      <trkpt lat="45.58931" lon="5.73586">
        <ele>594</ele>
        <time>2019-10-27T13:30:11.000Z</time>
      </trkpt>
      <trkpt lat="45.58931" lon="5.73586">
        <ele>594</ele>
        <time>2019-10-27T13:30:12.000Z</time>
      </trkpt>
      <trkpt lat="45.58931" lon="5.73587">
        <ele>594</ele>
        <time>2019-10-27T13:30:13.000Z</time>
      </trkpt>
      <trkpt lat="45.58931" lon="5.73587">
        <ele>594</ele>
        <time>2019-10-27T13:30:14.000Z</time>
      </trkpt>
      <trkpt lat="45.58931" lon="5.73587">
        <ele>594</ele>
        <time>2019-10-27T13:30:15.000Z</time>
      </trkpt>
      <trkpt lat="45.5893" lon="5.73588">
        <ele>594</ele>
        <time>2019-10-27T13:30:16.000Z</time>
      </trkpt>
      <trkpt lat="45.5893" lon="5.73588">
        <ele>594</ele>
        <time>2019-10-27T13:30:17.000Z</time>
      </trkpt>
      <trkpt lat="45.5893" lon="5.73588">
        <ele>594</ele>
        <time>2019-10-27T13:30:18.000Z</time>
      </trkpt>
      <trkpt lat="45.5893" lon="5.73588">
        <ele>594</ele>
        <time>2019-10-27T13:30:19.000Z</time>
      </trkpt>
      <trkpt lat="45.5893" lon="5.73588">
        <ele>594</ele>
        <time>2019-10-27T13:30:20.000Z</time>
      </trkpt>
      <trkpt lat="45.5893" lon="5.73588">
        <ele>594</ele>
        <time>2019-10-27T13:30:21.000Z</time>
      </trkpt>
      <trkpt lat="45.5893" lon="5.73588">
        <ele>594</ele>
        <time>2019-10-27T13:30:22.000Z</time>
      </trkpt>
      <trkpt lat="45.5893" lon="5.73588">
        <ele>594</ele>
        <time>2019-10-27T13:30:23.000Z</time>
      </trkpt>
      <trkpt lat="45.5893" lon="5.73588">
        <ele>594</ele>
        <time>2019-10-27T13:30:24.000Z</time>
      </trkpt>
      <trkpt lat="45.5893" lon="5.73588">
        <ele>594</ele>
        <time>2019-10-27T13:30:25.000Z</time>
      </trkpt>
      <trkpt lat="45.5893" lon="5.73588">
        <ele>594</ele>
        <time>2019-10-27T13:30:26.000Z</time>
      </trkpt>
      <trkpt lat="45.5893" lon="5.73588">
        <ele>594</ele>
        <time>2019-10-27T13:30:27.000Z</time>
      </trkpt>
      <trkpt lat="45.5893" lon="5.73588">
        <ele>594</ele>
        <time>2019-10-27T13:30:28.000Z</time>
      </trkpt>
      <trkpt lat="45.5893" lon="5.73588">
        <ele>594</ele>
        <time>2019-10-27T13:30:29.000Z</time>
      </trkpt>
      <trkpt lat="45.5893" lon="5.73588">
        <ele>594</ele>
        <time>2019-10-27T13:30:30.000Z</time>
      </trkpt>
      <trkpt lat="45.58929" lon="5.73588">
        <ele>594</ele>
        <time>2019-10-27T13:30:31.000Z</time>
      </trkpt>
      <trkpt lat="45.58928" lon="5.73589">
        <ele>594</ele>
        <time>2019-10-27T13:30:32.000Z</time>
      </trkpt>
      <trkpt lat="45.58927" lon="5.7359">
        <ele>594</ele>
        <time>2019-10-27T13:30:33.000Z</time>
      </trkpt>
      <trkpt lat="45.58927" lon="5.7359">
        <ele>594</ele>
        <time>2019-10-27T13:30:34.000Z</time>
      </trkpt>
      <trkpt lat="45.58927" lon="5.73591">
        <ele>594</ele>
        <time>2019-10-27T13:30:35.000Z</time>
      </trkpt>
      <trkpt lat="45.58926" lon="5.73591">
        <ele>594</ele>
        <time>2019-10-27T13:30:36.000Z</time>
      </trkpt>
      <trkpt lat="45.58926" lon="5.73591">
        <ele>594</ele>
        <time>2019-10-27T13:30:37.000Z</time>
      </trkpt>
      <trkpt lat="45.58926" lon="5.73591">
        <ele>594</ele>
        <time>2019-10-27T13:30:38.000Z</time>
      </trkpt>
      <trkpt lat="45.58926" lon="5.73591">
        <ele>594</ele>
        <time>2019-10-27T13:30:39.000Z</time>
      </trkpt>
      <trkpt lat="45.58926" lon="5.73591">
        <ele>594</ele>
        <time>2019-10-27T13:30:40.000Z</time>
      </trkpt>
      <trkpt lat="45.58926" lon="5.73591">
        <ele>594</ele>
        <time>2019-10-27T13:30:41.000Z</time>
      </trkpt>
      <trkpt lat="45.58925" lon="5.73591">
        <ele>594</ele>
        <time>2019-10-27T13:30:42.000Z</time>
      </trkpt>
      <trkpt lat="45.58925" lon="5.73591">
        <ele>594</ele>
        <time>2019-10-27T13:30:43.000Z</time>
      </trkpt>
      <trkpt lat="45.58925" lon="5.73592">
        <ele>594</ele>
        <time>2019-10-27T13:30:44.000Z</time>
      </trkpt>
      <trkpt lat="45.58925" lon="5.73592">
        <ele>594</ele>
        <time>2019-10-27T13:30:45.000Z</time>
      </trkpt>
      <trkpt lat="45.58926" lon="5.73593">
        <ele>594</ele>
        <time>2019-10-27T13:30:46.000Z</time>
      </trkpt>
      <trkpt lat="45.58926" lon="5.73594">
        <ele>594</ele>
        <time>2019-10-27T13:30:47.000Z</time>
      </trkpt>
      <trkpt lat="45.58926" lon="5.73594">
        <ele>594</ele>
        <time>2019-10-27T13:30:48.000Z</time>
      </trkpt>
      <trkpt lat="45.58926" lon="5.73595">
        <ele>594</ele>
        <time>2019-10-27T13:30:49.000Z</time>
      </trkpt>
      <trkpt lat="45.58926" lon="5.73596">
        <ele>594</ele>
        <time>2019-10-27T13:30:50.000Z</time>
      </trkpt>
      <trkpt lat="45.58927" lon="5.73596">
        <ele>594</ele>
        <time>2019-10-27T13:30:51.000Z</time>
      </trkpt>
      <trkpt lat="45.58927" lon="5.73597">
        <ele>594</ele>
        <time>2019-10-27T13:30:52.000Z</time>
      </trkpt>
      <trkpt lat="45.58927" lon="5.73597">
        <ele>594</ele>
        <time>2019-10-27T13:30:53.000Z</time>
      </trkpt>
      <trkpt lat="45.58927" lon="5.73597">
        <ele>594</ele>
        <time>2019-10-27T13:30:54.000Z</time>
      </trkpt>
      <trkpt lat="45.58927" lon="5.73597">
        <ele>594</ele>
        <time>2019-10-27T13:30:55.000Z</time>
      </trkpt>
      <trkpt lat="45.58927" lon="5.73597">
        <ele>594</ele>
        <time>2019-10-27T13:30:56.000Z</time>
      </trkpt>
      <trkpt lat="45.58927" lon="5.73597">
        <ele>594</ele>
        <time>2019-10-27T13:30:57.000Z</time>
      </trkpt>
      <trkpt lat="45.58927" lon="5.73597">
        <ele>594</ele>
        <time>2019-10-27T13:30:58.000Z</time>
      </trkpt>
      <trkpt lat="45.58927" lon="5.73597">
        <ele>594</ele>
        <time>2019-10-27T13:30:59.000Z</time>
      </trkpt>
      <trkpt lat="45.58927" lon="5.73598">
        <ele>594</ele>
        <time>2019-10-27T13:31:00.000Z</time>
      </trkpt>
      <trkpt lat="45.58927" lon="5.73598">
        <ele>594</ele>
        <time>2019-10-27T13:31:01.000Z</time>
      </trkpt>
      <trkpt lat="45.58927" lon="5.73598">
        <ele>594</ele>
        <time>2019-10-27T13:31:02.000Z</time>
      </trkpt>
      <trkpt lat="45.58927" lon="5.73598">
        <ele>594</ele>
        <time>2019-10-27T13:31:03.000Z</time>
      </trkpt>
      <trkpt lat="45.58927" lon="5.73598">
        <ele>594</ele>
        <time>2019-10-27T13:31:04.000Z</time>
      </trkpt>
      <trkpt lat="45.58927" lon="5.73598">
        <ele>594</ele>
        <time>2019-10-27T13:31:05.000Z</time>
      </trkpt>
      <trkpt lat="45.58927" lon="5.73599">
        <ele>594</ele>
        <time>2019-10-27T13:31:06.000Z</time>
      </trkpt>
      <trkpt lat="45.58928" lon="5.73599">
        <ele>594</ele>
        <time>2019-10-27T13:31:07.000Z</time>
      </trkpt>
      <trkpt lat="45.58928" lon="5.73599">
        <ele>594</ele>
        <time>2019-10-27T13:31:08.000Z</time>
      </trkpt>
      <trkpt lat="45.58928" lon="5.73599">
        <ele>594</ele>
        <time>2019-10-27T13:31:09.000Z</time>
      </trkpt>
      <trkpt lat="45.58928" lon="5.73599">
        <ele>594</ele>
        <time>2019-10-27T13:31:10.000Z</time>
      </trkpt>
      <trkpt lat="45.58928" lon="5.73599">
        <ele>594</ele>
        <time>2019-10-27T13:31:11.000Z</time>
      </trkpt>
      <trkpt lat="45.58928" lon="5.73599">
        <ele>594</ele>
        <time>2019-10-27T13:31:12.000Z</time>
      </trkpt>
      <trkpt lat="45.58928" lon="5.73599">
        <ele>594</ele>
        <time>2019-10-27T13:31:13.000Z</time>
      </trkpt>
      <trkpt lat="45.58928" lon="5.73599">
        <ele>594</ele>
        <time>2019-10-27T13:31:14.000Z</time>
      </trkpt>
      <trkpt lat="45.58928" lon="5.73599">
        <ele>594</ele>
        <time>2019-10-27T13:31:15.000Z</time>
      </trkpt>
      <trkpt lat="45.58928" lon="5.73599">
        <ele>594</ele>
        <time>2019-10-27T13:31:16.000Z</time>
      </trkpt>
      <trkpt lat="45.58928" lon="5.73599">
        <ele>594</ele>
        <time>2019-10-27T13:31:17.000Z</time>
      </trkpt>
      <trkpt lat="45.58928" lon="5.73599">
        <ele>594</ele>
        <time>2019-10-27T13:31:18.000Z</time>
      </trkpt>
      <trkpt lat="45.58928" lon="5.73599">
        <ele>594</ele>
        <time>2019-10-27T13:31:19.000Z</time>
      </trkpt>
      <trkpt lat="45.58928" lon="5.73598">
        <ele>594</ele>
        <time>2019-10-27T13:31:20.000Z</time>
      </trkpt>
      <trkpt lat="45.58928" lon="5.73598">
        <ele>594</ele>
        <time>2019-10-27T13:31:21.000Z</time>
      </trkpt>
      <trkpt lat="45.58928" lon="5.73598">
        <ele>594</ele>
        <time>2019-10-27T13:31:22.000Z</time>
      </trkpt>
      <trkpt lat="45.58928" lon="5.73598">
        <ele>594</ele>
        <time>2019-10-27T13:31:23.000Z</time>
      </trkpt>
      <trkpt lat="45.58928" lon="5.73598">
        <ele>594</ele>
        <time>2019-10-27T13:31:24.000Z</time>
      </trkpt>
      <trkpt lat="45.58928" lon="5.73597">
        <ele>594</ele>
        <time>2019-10-27T13:31:25.000Z</time>
      </trkpt>
      <trkpt lat="45.58928" lon="5.73597">
        <ele>594</ele>
        <time>2019-10-27T13:31:26.000Z</time>
      </trkpt>
      <trkpt lat="45.58928" lon="5.73597">
        <ele>594</ele>
        <time>2019-10-27T13:31:27.000Z</time>
      </trkpt>
      <trkpt lat="45.58928" lon="5.73598">
        <ele>594</ele>
        <time>2019-10-27T13:31:28.000Z</time>
      </trkpt>
      <trkpt lat="45.58929" lon="5.73598">
        <ele>594</ele>
        <time>2019-10-27T13:31:29.000Z</time>
      </trkpt>
      <trkpt lat="45.58929" lon="5.73598">
        <ele>594</ele>
        <time>2019-10-27T13:31:30.000Z</time>
      </trkpt>
      <trkpt lat="45.5893" lon="5.73598">
        <ele>594</ele>
        <time>2019-10-27T13:31:31.000Z</time>
      </trkpt>
      <trkpt lat="45.5893" lon="5.73599">
        <ele>594</ele>
        <time>2019-10-27T13:31:32.000Z</time>
      </trkpt>
      <trkpt lat="45.5893" lon="5.73599">
        <ele>594</ele>
        <time>2019-10-27T13:31:33.000Z</time>
      </trkpt>
      <trkpt lat="45.58931" lon="5.73599">
        <ele>594</ele>
        <time>2019-10-27T13:31:34.000Z</time>
      </trkpt>
      <trkpt lat="45.58931" lon="5.73599">
        <ele>594</ele>
        <time>2019-10-27T13:31:35.000Z</time>
      </trkpt>
      <trkpt lat="45.58931" lon="5.736">
        <ele>594</ele>
        <time>2019-10-27T13:31:36.000Z</time>
      </trkpt>
      <trkpt lat="45.58931" lon="5.736">
        <ele>594</ele>
        <time>2019-10-27T13:31:37.000Z</time>
      </trkpt>
      <trkpt lat="45.58931" lon="5.736">
        <ele>594</ele>
        <time>2019-10-27T13:31:38.000Z</time>
      </trkpt>
      <trkpt lat="45.58931" lon="5.736">
        <ele>594</ele>
        <time>2019-10-27T13:31:39.000Z</time>
      </trkpt>
      <trkpt lat="45.58931" lon="5.736">
        <ele>594</ele>
        <time>2019-10-27T13:31:40.000Z</time>
      </trkpt>
      <trkpt lat="45.58931" lon="5.73599">
        <ele>594</ele>
        <time>2019-10-27T13:31:41.000Z</time>
      </trkpt>
      <trkpt lat="45.58931" lon="5.73599">
        <ele>594</ele>
        <time>2019-10-27T13:31:42.000Z</time>
      </trkpt>
      <trkpt lat="45.58931" lon="5.73599">
        <ele>594</ele>
        <time>2019-10-27T13:31:43.000Z</time>
      </trkpt>
      <trkpt lat="45.58931" lon="5.73599">
        <ele>594</ele>
        <time>2019-10-27T13:31:44.000Z</time>
      </trkpt>
      <trkpt lat="45.58932" lon="5.73599">
        <ele>594</ele>
        <time>2019-10-27T13:31:45.000Z</time>
      </trkpt>
      <trkpt lat="45.58932" lon="5.73599">
        <ele>594</ele>
        <time>2019-10-27T13:31:46.000Z</time>
      </trkpt>
      <trkpt lat="45.58932" lon="5.73599">
        <ele>594</ele>
        <time>2019-10-27T13:31:47.000Z</time>
      </trkpt>
      <trkpt lat="45.58933" lon="5.73599">
        <ele>594</ele>
        <time>2019-10-27T13:31:48.000Z</time>
      </trkpt>
      <trkpt lat="45.58933" lon="5.73599">
        <ele>594</ele>
        <time>2019-10-27T13:31:49.000Z</time>
      </trkpt>
      <trkpt lat="45.58933" lon="5.73599">
        <ele>594</ele>
        <time>2019-10-27T13:31:50.000Z</time>
      </trkpt>
      <trkpt lat="45.58933" lon="5.73599">
        <ele>594</ele>
        <time>2019-10-27T13:31:51.000Z</time>
      </trkpt>
      <trkpt lat="45.58933" lon="5.73599">
        <ele>594</ele>
        <time>2019-10-27T13:31:52.000Z</time>
      </trkpt>
      <trkpt lat="45.58933" lon="5.73599">
        <ele>594</ele>
        <time>2019-10-27T13:31:53.000Z</time>
      </trkpt>
      <trkpt lat="45.58933" lon="5.73599">
        <ele>594</ele>
        <time>2019-10-27T13:31:54.000Z</time>
      </trkpt>
      <trkpt lat="45.58933" lon="5.73599">
        <ele>594</ele>
        <time>2019-10-27T13:31:55.000Z</time>
      </trkpt>
      <trkpt lat="45.58933" lon="5.73599">
        <ele>594</ele>
        <time>2019-10-27T13:31:56.000Z</time>
      </trkpt>
      <trkpt lat="45.58933" lon="5.73599">
        <ele>594</ele>
        <time>2019-10-27T13:31:57.000Z</time>
      </trkpt>
      <trkpt lat="45.58933" lon="5.73599">
        <ele>594</ele>
        <time>2019-10-27T13:31:58.000Z</time>
      </trkpt>
      <trkpt lat="45.58933" lon="5.73599">
        <ele>594</ele>
        <time>2019-10-27T13:31:59.000Z</time>
      </trkpt>
      <trkpt lat="45.58933" lon="5.73599">
        <ele>594</ele>
        <time>2019-10-27T13:32:00.000Z</time>
      </trkpt>
      <trkpt lat="45.58933" lon="5.73599">
        <ele>594</ele>
        <time>2019-10-27T13:32:01.000Z</time>
      </trkpt>
      <trkpt lat="45.58933" lon="5.73599">
        <ele>594</ele>
        <time>2019-10-27T13:32:02.000Z</time>
      </trkpt>
      <trkpt lat="45.58933" lon="5.73599">
        <ele>594</ele>
        <time>2019-10-27T13:32:03.000Z</time>
      </trkpt>
      <trkpt lat="45.58933" lon="5.73599">
        <ele>594</ele>
        <time>2019-10-27T13:32:04.000Z</time>
      </trkpt>
      <trkpt lat="45.58933" lon="5.73599">
        <ele>594</ele>
        <time>2019-10-27T13:32:05.000Z</time>
      </trkpt>
      <trkpt lat="45.58933" lon="5.73599">
        <ele>594</ele>
        <time>2019-10-27T13:32:06.000Z</time>
      </trkpt>
      <trkpt lat="45.58933" lon="5.73599">
        <ele>594</ele>
        <time>2019-10-27T13:32:07.000Z</time>
      </trkpt>
      <trkpt lat="45.58933" lon="5.73599">
        <ele>594</ele>
        <time>2019-10-27T13:32:08.000Z</time>
      </trkpt>
      <trkpt lat="45.58933" lon="5.73599">
        <ele>594</ele>
        <time>2019-10-27T13:32:09.000Z</time>
      </trkpt>
      <trkpt lat="45.58933" lon="5.73599">
        <ele>594</ele>
        <time>2019-10-27T13:32:10.000Z</time>
      </trkpt>
      <trkpt lat="45.58933" lon="5.73599">
        <ele>594</ele>
        <time>2019-10-27T13:32:11.000Z</time>
      </trkpt>
      <trkpt lat="45.58933" lon="5.73599">
        <ele>594</ele>
        <time>2019-10-27T13:32:12.000Z</time>
      </trkpt>
      <trkpt lat="45.58933" lon="5.73599">
        <ele>594</ele>
        <time>2019-10-27T13:32:13.000Z</time>
      </trkpt>
      <trkpt lat="45.58933" lon="5.73598">
        <ele>594</ele>
        <time>2019-10-27T13:32:14.000Z</time>
      </trkpt>
      <trkpt lat="45.58933" lon="5.73598">
        <ele>594</ele>
        <time>2019-10-27T13:32:15.000Z</time>
      </trkpt>
      <trkpt lat="45.58932" lon="5.73598">
        <ele>594</ele>
        <time>2019-10-27T13:32:16.000Z</time>
      </trkpt>
      <trkpt lat="45.58932" lon="5.73597">
        <ele>594</ele>
        <time>2019-10-27T13:32:17.000Z</time>
      </trkpt>
      <trkpt lat="45.58931" lon="5.73597">
        <ele>594</ele>
        <time>2019-10-27T13:32:18.000Z</time>
      </trkpt>
      <trkpt lat="45.5893" lon="5.73596">
        <ele>594</ele>
        <time>2019-10-27T13:32:19.000Z</time>
      </trkpt>
      <trkpt lat="45.5893" lon="5.73595">
        <ele>594</ele>
        <time>2019-10-27T13:32:20.000Z</time>
      </trkpt>
      <trkpt lat="45.58929" lon="5.73595">
        <ele>594</ele>
        <time>2019-10-27T13:32:21.000Z</time>
      </trkpt>
      <trkpt lat="45.58928" lon="5.73594">
        <ele>594</ele>
        <time>2019-10-27T13:32:22.000Z</time>
      </trkpt>
      <trkpt lat="45.58928" lon="5.73594">
        <ele>594</ele>
        <time>2019-10-27T13:32:23.000Z</time>
      </trkpt>
      <trkpt lat="45.58928" lon="5.73594">
        <ele>594</ele>
        <time>2019-10-27T13:32:24.000Z</time>
      </trkpt>
      <trkpt lat="45.58928" lon="5.73594">
        <ele>594</ele>
        <time>2019-10-27T13:32:25.000Z</time>
      </trkpt>
      <trkpt lat="45.58928" lon="5.73594">
        <ele>594</ele>
        <time>2019-10-27T13:32:26.000Z</time>
      </trkpt>
      <trkpt lat="45.58928" lon="5.73594">
        <ele>594</ele>
        <time>2019-10-27T13:32:27.000Z</time>
      </trkpt>
      <trkpt lat="45.58928" lon="5.73594">
        <ele>594</ele>
        <time>2019-10-27T13:32:28.000Z</time>
      </trkpt>
      <trkpt lat="45.58928" lon="5.73594">
        <ele>594</ele>
        <time>2019-10-27T13:32:29.000Z</time>
      </trkpt>
      <trkpt lat="45.58928" lon="5.73594">
        <ele>594</ele>
        <time>2019-10-27T13:32:30.000Z</time>
      </trkpt>
      <trkpt lat="45.58928" lon="5.73594">
        <ele>594</ele>
        <time>2019-10-27T13:32:31.000Z</time>
      </trkpt>
      <trkpt lat="45.58928" lon="5.73594">
        <ele>594</ele>
        <time>2019-10-27T13:32:32.000Z</time>
      </trkpt>
      <trkpt lat="45.58927" lon="5.73594">
        <ele>594</ele>
        <time>2019-10-27T13:32:33.000Z</time>
      </trkpt>
      <trkpt lat="45.58927" lon="5.73594">
        <ele>594</ele>
        <time>2019-10-27T13:32:34.000Z</time>
      </trkpt>
      <trkpt lat="45.58927" lon="5.73594">
        <ele>594</ele>
        <time>2019-10-27T13:32:35.000Z</time>
      </trkpt>
      <trkpt lat="45.58927" lon="5.73593">
        <ele>594</ele>
        <time>2019-10-27T13:32:36.000Z</time>
      </trkpt>
      <trkpt lat="45.58927" lon="5.73593">
        <ele>594</ele>
        <time>2019-10-27T13:32:37.000Z</time>
      </trkpt>
      <trkpt lat="45.58927" lon="5.73593">
        <ele>594</ele>
        <time>2019-10-27T13:32:38.000Z</time>
      </trkpt>
      <trkpt lat="45.58927" lon="5.73594">
        <ele>594</ele>
        <time>2019-10-27T13:32:39.000Z</time>
      </trkpt>
      <trkpt lat="45.58927" lon="5.73594">
        <ele>594</ele>
        <time>2019-10-27T13:32:40.000Z</time>
      </trkpt>
      <trkpt lat="45.58927" lon="5.73594">
        <ele>594</ele>
        <time>2019-10-27T13:32:41.000Z</time>
      </trkpt>
      <trkpt lat="45.58927" lon="5.73594">
        <ele>594</ele>
        <time>2019-10-27T13:32:42.000Z</time>
      </trkpt>
      <trkpt lat="45.58927" lon="5.73595">
        <ele>594</ele>
        <time>2019-10-27T13:32:43.000Z</time>
      </trkpt>
      <trkpt lat="45.58928" lon="5.73595">
        <ele>594</ele>
        <time>2019-10-27T13:32:44.000Z</time>
      </trkpt>
      <trkpt lat="45.58928" lon="5.73595">
        <ele>594</ele>
        <time>2019-10-27T13:32:45.000Z</time>
      </trkpt>
      <trkpt lat="45.58928" lon="5.73596">
        <ele>594</ele>
        <time>2019-10-27T13:32:46.000Z</time>
      </trkpt>
      <trkpt lat="45.58928" lon="5.73596">
        <ele>594</ele>
        <time>2019-10-27T13:32:47.000Z</time>
      </trkpt>
      <trkpt lat="45.58928" lon="5.73596">
        <ele>594</ele>
        <time>2019-10-27T13:32:48.000Z</time>
      </trkpt>
      <trkpt lat="45.58928" lon="5.73596">
        <ele>594</ele>
        <time>2019-10-27T13:32:49.000Z</time>
      </trkpt>
      <trkpt lat="45.58928" lon="5.73596">
        <ele>594</ele>
        <time>2019-10-27T13:32:50.000Z</time>
      </trkpt>
      <trkpt lat="45.58928" lon="5.73596">
        <ele>594</ele>
        <time>2019-10-27T13:32:51.000Z</time>
      </trkpt>
      <trkpt lat="45.58927" lon="5.73596">
        <ele>594</ele>
        <time>2019-10-27T13:32:52.000Z</time>
      </trkpt>
      <trkpt lat="45.58927" lon="5.73596">
        <ele>594</ele>
        <time>2019-10-27T13:32:53.000Z</time>
      </trkpt>
      <trkpt lat="45.58927" lon="5.73596">
        <ele>594</ele>
        <time>2019-10-27T13:32:54.000Z</time>
      </trkpt>
      <trkpt lat="45.58926" lon="5.73596">
        <ele>594</ele>
        <time>2019-10-27T13:32:55.000Z</time>
      </trkpt>
      <trkpt lat="45.58926" lon="5.73596">
        <ele>594</ele>
        <time>2019-10-27T13:32:56.000Z</time>
      </trkpt>
      <trkpt lat="45.58925" lon="5.73596">
        <ele>594</ele>
        <time>2019-10-27T13:32:57.000Z</time>
      </trkpt>
      <trkpt lat="45.58925" lon="5.73597">
        <ele>594</ele>
        <time>2019-10-27T13:32:58.000Z</time>
      </trkpt>
      <trkpt lat="45.58925" lon="5.73597">
        <ele>594</ele>
        <time>2019-10-27T13:32:59.000Z</time>
      </trkpt>
      <trkpt lat="45.58925" lon="5.73597">
        <ele>594</ele>
        <time>2019-10-27T13:33:00.000Z</time>
      </trkpt>
      <trkpt lat="45.58924" lon="5.73597">
        <ele>594</ele>
        <time>2019-10-27T13:33:01.000Z</time>
      </trkpt>
      <trkpt lat="45.58924" lon="5.73596">
        <ele>594</ele>
        <time>2019-10-27T13:33:02.000Z</time>
      </trkpt>
      <trkpt lat="45.58924" lon="5.73596">
        <ele>594</ele>
        <time>2019-10-27T13:33:03.000Z</time>
      </trkpt>
      <trkpt lat="45.58923" lon="5.73596">
        <ele>594</ele>
        <time>2019-10-27T13:33:04.000Z</time>
      </trkpt>
      <trkpt lat="45.58923" lon="5.73595">
        <ele>594</ele>
        <time>2019-10-27T13:33:05.000Z</time>
      </trkpt>
      <trkpt lat="45.58923" lon="5.73595">
        <ele>594</ele>
        <time>2019-10-27T13:33:06.000Z</time>
      </trkpt>
      <trkpt lat="45.58922" lon="5.73594">
        <ele>594</ele>
        <time>2019-10-27T13:33:07.000Z</time>
      </trkpt>
      <trkpt lat="45.58922" lon="5.73593">
        <ele>594</ele>
        <time>2019-10-27T13:33:08.000Z</time>
      </trkpt>
      <trkpt lat="45.5892" lon="5.73593">
        <ele>594</ele>
        <time>2019-10-27T13:33:09.000Z</time>
      </trkpt>
      <trkpt lat="45.58918" lon="5.73593">
        <ele>594</ele>
        <time>2019-10-27T13:33:10.000Z</time>
      </trkpt>
      <trkpt lat="45.58917" lon="5.73592">
        <ele>594</ele>
        <time>2019-10-27T13:33:11.000Z</time>
      </trkpt>
      <trkpt lat="45.58916" lon="5.73591">
        <ele>594</ele>
        <time>2019-10-27T13:33:12.000Z</time>
      </trkpt>
      <trkpt lat="45.58916" lon="5.7359">
        <ele>594</ele>
        <time>2019-10-27T13:33:13.000Z</time>
      </trkpt>
      <trkpt lat="45.58916" lon="5.7359">
        <ele>594</ele>
        <time>2019-10-27T13:33:14.000Z</time>
      </trkpt>
      <trkpt lat="45.58916" lon="5.7359">
        <ele>594</ele>
        <time>2019-10-27T13:33:15.000Z</time>
      </trkpt>
      <trkpt lat="45.58916" lon="5.7359">
        <ele>594</ele>
        <time>2019-10-27T13:33:16.000Z</time>
      </trkpt>
      <trkpt lat="45.58916" lon="5.7359">
        <ele>594</ele>
        <time>2019-10-27T13:33:17.000Z</time>
      </trkpt>
      <trkpt lat="45.58916" lon="5.7359">
        <ele>594</ele>
        <time>2019-10-27T13:33:18.000Z</time>
      </trkpt>
      <trkpt lat="45.58916" lon="5.73589">
        <ele>594</ele>
        <time>2019-10-27T13:33:19.000Z</time>
      </trkpt>
      <trkpt lat="45.58916" lon="5.73589">
        <ele>594</ele>
        <time>2019-10-27T13:33:20.000Z</time>
      </trkpt>
      <trkpt lat="45.58915" lon="5.73589">
        <ele>594</ele>
        <time>2019-10-27T13:33:21.000Z</time>
      </trkpt>
      <trkpt lat="45.58915" lon="5.73588">
        <ele>594</ele>
        <time>2019-10-27T13:33:22.000Z</time>
      </trkpt>
      <trkpt lat="45.58915" lon="5.73588">
        <ele>594</ele>
        <time>2019-10-27T13:33:23.000Z</time>
      </trkpt>
      <trkpt lat="45.58915" lon="5.73587">
        <ele>594</ele>
        <time>2019-10-27T13:33:24.000Z</time>
      </trkpt>
      <trkpt lat="45.58914" lon="5.73586">
        <ele>594</ele>
        <time>2019-10-27T13:33:25.000Z</time>
      </trkpt>
      <trkpt lat="45.58914" lon="5.73585">
        <ele>594</ele>
        <time>2019-10-27T13:33:26.000Z</time>
      </trkpt>
      <trkpt lat="45.58913" lon="5.73584">
        <ele>594</ele>
        <time>2019-10-27T13:33:27.000Z</time>
      </trkpt>
      <trkpt lat="45.58912" lon="5.73583">
        <ele>594</ele>
        <time>2019-10-27T13:33:28.000Z</time>
      </trkpt>
      <trkpt lat="45.58912" lon="5.73582">
        <ele>594</ele>
        <time>2019-10-27T13:33:29.000Z</time>
      </trkpt>
      <trkpt lat="45.58911" lon="5.73581">
        <ele>594</ele>
        <time>2019-10-27T13:33:30.000Z</time>
      </trkpt>
      <trkpt lat="45.58911" lon="5.73581">
        <ele>594</ele>
        <time>2019-10-27T13:33:31.000Z</time>
      </trkpt>
      <trkpt lat="45.5891" lon="5.7358">
        <ele>594</ele>
        <time>2019-10-27T13:33:32.000Z</time>
      </trkpt>
      <trkpt lat="45.5891" lon="5.7358">
        <ele>594</ele>
        <time>2019-10-27T13:33:33.000Z</time>
      </trkpt>
      <trkpt lat="45.5891" lon="5.73579">
        <ele>594</ele>
        <time>2019-10-27T13:33:34.000Z</time>
      </trkpt>
      <trkpt lat="45.5891" lon="5.73579">
        <ele>594</ele>
        <time>2019-10-27T13:33:35.000Z</time>
      </trkpt>
      <trkpt lat="45.5891" lon="5.73579">
        <ele>594</ele>
        <time>2019-10-27T13:33:36.000Z</time>
      </trkpt>
      <trkpt lat="45.5891" lon="5.73579">
        <ele>594</ele>
        <time>2019-10-27T13:33:37.000Z</time>
      </trkpt>
      <trkpt lat="45.5891" lon="5.73579">
        <ele>594</ele>
        <time>2019-10-27T13:33:38.000Z</time>
      </trkpt>
      <trkpt lat="45.5891" lon="5.73578">
        <ele>594</ele>
        <time>2019-10-27T13:33:39.000Z</time>
      </trkpt>
      <trkpt lat="45.5891" lon="5.73578">
        <ele>594</ele>
        <time>2019-10-27T13:33:40.000Z</time>
      </trkpt>
      <trkpt lat="45.5891" lon="5.73578">
        <ele>594</ele>
        <time>2019-10-27T13:33:41.000Z</time>
      </trkpt>
      <trkpt lat="45.5891" lon="5.73578">
        <ele>594</ele>
        <time>2019-10-27T13:33:42.000Z</time>
      </trkpt>
      <trkpt lat="45.5891" lon="5.73578">
        <ele>594</ele>
        <time>2019-10-27T13:33:43.000Z</time>
      </trkpt>
      <trkpt lat="45.58909" lon="5.73578">
        <ele>594</ele>
        <time>2019-10-27T13:33:44.000Z</time>
      </trkpt>
      <trkpt lat="45.58909" lon="5.73578">
        <ele>594</ele>
        <time>2019-10-27T13:33:45.000Z</time>
      </trkpt>
      <trkpt lat="45.58909" lon="5.73578">
        <ele>594</ele>
        <time>2019-10-27T13:33:46.000Z</time>
      </trkpt>
      <trkpt lat="45.58909" lon="5.73578">
        <ele>594</ele>
        <time>2019-10-27T13:33:47.000Z</time>
      </trkpt>
      <trkpt lat="45.58909" lon="5.73577">
        <ele>594</ele>
        <time>2019-10-27T13:33:48.000Z</time>
      </trkpt>
      <trkpt lat="45.58909" lon="5.73577">
        <ele>594</ele>
        <time>2019-10-27T13:33:49.000Z</time>
      </trkpt>
      <trkpt lat="45.58909" lon="5.73577">
        <ele>594</ele>
        <time>2019-10-27T13:33:50.000Z</time>
      </trkpt>
      <trkpt lat="45.58908" lon="5.73577">
        <ele>594</ele>
        <time>2019-10-27T13:33:51.000Z</time>
      </trkpt>
      <trkpt lat="45.58908" lon="5.73576">
        <ele>594</ele>
        <time>2019-10-27T13:33:52.000Z</time>
      </trkpt>
      <trkpt lat="45.58908" lon="5.73576">
        <ele>594</ele>
        <time>2019-10-27T13:33:53.000Z</time>
      </trkpt>
      <trkpt lat="45.58907" lon="5.73575">
        <ele>593.5</ele>
        <time>2019-10-27T13:33:54.000Z</time>
      </trkpt>
      <trkpt lat="45.58907" lon="5.73574">
        <ele>593</ele>
        <time>2019-10-27T13:33:55.000Z</time>
      </trkpt>
      <trkpt lat="45.58906" lon="5.73574">
        <ele>594</ele>
        <time>2019-10-27T13:33:56.000Z</time>
      </trkpt>
      <trkpt lat="45.58906" lon="5.73573">
        <ele>594</ele>
        <time>2019-10-27T13:33:57.000Z</time>
      </trkpt>
      <trkpt lat="45.58905" lon="5.73572">
        <ele>594</ele>
        <time>2019-10-27T13:33:58.000Z</time>
      </trkpt>
      <trkpt lat="45.58904" lon="5.73571">
        <ele>594</ele>
        <time>2019-10-27T13:33:59.000Z</time>
      </trkpt>
      <trkpt lat="45.58903" lon="5.7357">
        <ele>594</ele>
        <time>2019-10-27T13:34:00.000Z</time>
      </trkpt>
      <trkpt lat="45.58903" lon="5.73569">
        <ele>594</ele>
        <time>2019-10-27T13:34:01.000Z</time>
      </trkpt>
      <trkpt lat="45.58902" lon="5.73568">
        <ele>594</ele>
        <time>2019-10-27T13:34:02.000Z</time>
      </trkpt>
      <trkpt lat="45.58902" lon="5.73568">
        <ele>594</ele>
        <time>2019-10-27T13:34:03.000Z</time>
      </trkpt>
      <trkpt lat="45.58902" lon="5.73567">
        <ele>594</ele>
        <time>2019-10-27T13:34:04.000Z</time>
      </trkpt>
      <trkpt lat="45.58902" lon="5.73566">
        <ele>594</ele>
        <time>2019-10-27T13:34:05.000Z</time>
      </trkpt>
      <trkpt lat="45.58902" lon="5.73566">
        <ele>594</ele>
        <time>2019-10-27T13:34:06.000Z</time>
      </trkpt>
      <trkpt lat="45.58902" lon="5.73565">
        <ele>594</ele>
        <time>2019-10-27T13:34:07.000Z</time>
      </trkpt>
      <trkpt lat="45.58902" lon="5.73565">
        <ele>594</ele>
        <time>2019-10-27T13:34:08.000Z</time>
      </trkpt>
      <trkpt lat="45.58902" lon="5.73565">
        <ele>594</ele>
        <time>2019-10-27T13:34:09.000Z</time>
      </trkpt>
      <trkpt lat="45.58902" lon="5.73564">
        <ele>594</ele>
        <time>2019-10-27T13:34:10.000Z</time>
      </trkpt>
      <trkpt lat="45.58902" lon="5.73564">
        <ele>594</ele>
        <time>2019-10-27T13:34:11.000Z</time>
      </trkpt>
      <trkpt lat="45.58902" lon="5.73564">
        <ele>595</ele>
        <time>2019-10-27T13:34:12.000Z</time>
      </trkpt>
      <trkpt lat="45.58902" lon="5.73564">
        <ele>595</ele>
        <time>2019-10-27T13:34:13.000Z</time>
      </trkpt>
      <trkpt lat="45.58902" lon="5.73564">
        <ele>595</ele>
        <time>2019-10-27T13:34:14.000Z</time>
      </trkpt>
      <trkpt lat="45.58902" lon="5.73564">
        <ele>595</ele>
        <time>2019-10-27T13:34:15.000Z</time>
      </trkpt>
      <trkpt lat="45.58902" lon="5.73564">
        <ele>595</ele>
        <time>2019-10-27T13:34:16.000Z</time>
      </trkpt>
      <trkpt lat="45.58902" lon="5.73563">
        <ele>595</ele>
        <time>2019-10-27T13:34:17.000Z</time>
      </trkpt>
      <trkpt lat="45.58901" lon="5.73562">
        <ele>596</ele>
        <time>2019-10-27T13:34:18.000Z</time>
      </trkpt>
      <trkpt lat="45.58901" lon="5.73559">
        <ele>596</ele>
        <time>2019-10-27T13:34:19.000Z</time>
      </trkpt>
      <trkpt lat="45.589" lon="5.73556">
        <ele>596</ele>
        <time>2019-10-27T13:34:20.000Z</time>
      </trkpt>
      <trkpt lat="45.589" lon="5.73553">
        <ele>596</ele>
        <time>2019-10-27T13:34:21.000Z</time>
      </trkpt>
      <trkpt lat="45.58899" lon="5.7355">
        <ele>596</ele>
        <time>2019-10-27T13:34:22.000Z</time>
      </trkpt>
      <trkpt lat="45.58899" lon="5.73548">
        <ele>596</ele>
        <time>2019-10-27T13:34:23.000Z</time>
      </trkpt>
      <trkpt lat="45.58899" lon="5.73548">
        <ele>597</ele>
        <time>2019-10-27T13:34:24.000Z</time>
      </trkpt>
      <trkpt lat="45.58899" lon="5.73547">
        <ele>597</ele>
        <time>2019-10-27T13:34:25.000Z</time>
      </trkpt>
      <trkpt lat="45.58899" lon="5.73547">
        <ele>597</ele>
        <time>2019-10-27T13:34:26.000Z</time>
      </trkpt>
      <trkpt lat="45.58899" lon="5.73547">
        <ele>597</ele>
        <time>2019-10-27T13:34:27.000Z</time>
      </trkpt>
      <trkpt lat="45.58899" lon="5.73547">
        <ele>598</ele>
        <time>2019-10-27T13:34:28.000Z</time>
      </trkpt>
      <trkpt lat="45.58899" lon="5.73547">
        <ele>598</ele>
        <time>2019-10-27T13:34:29.000Z</time>
      </trkpt>
      <trkpt lat="45.58899" lon="5.73547">
        <ele>598</ele>
        <time>2019-10-27T13:34:30.000Z</time>
      </trkpt>
      <trkpt lat="45.58899" lon="5.73546">
        <ele>598</ele>
        <time>2019-10-27T13:34:31.000Z</time>
      </trkpt>
      <trkpt lat="45.58898" lon="5.73545">
        <ele>598</ele>
        <time>2019-10-27T13:34:32.000Z</time>
      </trkpt>
      <trkpt lat="45.58897" lon="5.73542">
        <ele>598</ele>
        <time>2019-10-27T13:34:33.000Z</time>
      </trkpt>
      <trkpt lat="45.58894" lon="5.73539">
        <ele>599</ele>
        <time>2019-10-27T13:34:34.000Z</time>
      </trkpt>
      <trkpt lat="45.58891" lon="5.73537">
        <ele>599</ele>
        <time>2019-10-27T13:34:35.000Z</time>
      </trkpt>
      <trkpt lat="45.58889" lon="5.73536">
        <ele>599</ele>
        <time>2019-10-27T13:34:36.000Z</time>
      </trkpt>
      <trkpt lat="45.58888" lon="5.73535">
        <ele>599</ele>
        <time>2019-10-27T13:34:37.000Z</time>
      </trkpt>
      <trkpt lat="45.58887" lon="5.73535">
        <ele>599</ele>
        <time>2019-10-27T13:34:38.000Z</time>
      </trkpt>
      <trkpt lat="45.58886" lon="5.73534">
        <ele>599</ele>
        <time>2019-10-27T13:34:39.000Z</time>
      </trkpt>
      <trkpt lat="45.58886" lon="5.73533">
        <ele>600</ele>
        <time>2019-10-27T13:34:40.000Z</time>
      </trkpt>
      <trkpt lat="45.58885" lon="5.73532">
        <ele>600</ele>
        <time>2019-10-27T13:34:41.000Z</time>
      </trkpt>
      <trkpt lat="45.58885" lon="5.7353">
        <ele>600</ele>
        <time>2019-10-27T13:34:42.000Z</time>
      </trkpt>
      <trkpt lat="45.58885" lon="5.7353">
        <ele>600</ele>
        <time>2019-10-27T13:34:43.000Z</time>
      </trkpt>
      <trkpt lat="45.58885" lon="5.73529">
        <ele>600.5</ele>
        <time>2019-10-27T13:34:44.000Z</time>
      </trkpt>
      <trkpt lat="45.58885" lon="5.73529">
        <ele>601</ele>
        <time>2019-10-27T13:34:45.000Z</time>
      </trkpt>
      <trkpt lat="45.58885" lon="5.73529">
        <ele>601</ele>
        <time>2019-10-27T13:34:46.000Z</time>
      </trkpt>
      <trkpt lat="45.58885" lon="5.73529">
        <ele>601</ele>
        <time>2019-10-27T13:34:47.000Z</time>
      </trkpt>
      <trkpt lat="45.58885" lon="5.73528">
        <ele>601</ele>
        <time>2019-10-27T13:34:48.000Z</time>
      </trkpt>
      <trkpt lat="45.58885" lon="5.73526">
        <ele>601</ele>
        <time>2019-10-27T13:34:49.000Z</time>
      </trkpt>
      <trkpt lat="45.58885" lon="5.73523">
        <ele>601.5</ele>
        <time>2019-10-27T13:34:50.000Z</time>
      </trkpt>
      <trkpt lat="45.58885" lon="5.73518">
        <ele>602</ele>
        <time>2019-10-27T13:34:51.000Z</time>
      </trkpt>
      <trkpt lat="45.58884" lon="5.73514">
        <ele>602</ele>
        <time>2019-10-27T13:34:52.000Z</time>
      </trkpt>
      <trkpt lat="45.58883" lon="5.73511">
        <ele>602</ele>
        <time>2019-10-27T13:34:53.000Z</time>
      </trkpt>
      <trkpt lat="45.58883" lon="5.73509">
        <ele>602</ele>
        <time>2019-10-27T13:34:54.000Z</time>
      </trkpt>
      <trkpt lat="45.58883" lon="5.73509">
        <ele>602</ele>
        <time>2019-10-27T13:34:55.000Z</time>
      </trkpt>
      <trkpt lat="45.58882" lon="5.73509">
        <ele>602</ele>
        <time>2019-10-27T13:34:56.000Z</time>
      </trkpt>
      <trkpt lat="45.58882" lon="5.73508">
        <ele>602.3</ele>
        <time>2019-10-27T13:34:57.000Z</time>
      </trkpt>
      <trkpt lat="45.58882" lon="5.73507">
        <ele>602.7</ele>
        <time>2019-10-27T13:34:58.000Z</time>
      </trkpt>
      <trkpt lat="45.58882" lon="5.73505">
        <ele>603</ele>
        <time>2019-10-27T13:34:59.000Z</time>
      </trkpt>
      <trkpt lat="45.58882" lon="5.73504">
        <ele>603</ele>
        <time>2019-10-27T13:35:00.000Z</time>
      </trkpt>
      <trkpt lat="45.58882" lon="5.73504">
        <ele>603</ele>
        <time>2019-10-27T13:35:01.000Z</time>
      </trkpt>
      <trkpt lat="45.58882" lon="5.73503">
        <ele>603</ele>
        <time>2019-10-27T13:35:02.000Z</time>
      </trkpt>
      <trkpt lat="45.58882" lon="5.73503">
        <ele>603</ele>
        <time>2019-10-27T13:35:03.000Z</time>
      </trkpt>
      <trkpt lat="45.58882" lon="5.73503">
        <ele>603</ele>
        <time>2019-10-27T13:35:04.000Z</time>
      </trkpt>
      <trkpt lat="45.58882" lon="5.73503">
        <ele>603</ele>
        <time>2019-10-27T13:35:05.000Z</time>
      </trkpt>
      <trkpt lat="45.58881" lon="5.73502">
        <ele>604</ele>
        <time>2019-10-27T13:35:06.000Z</time>
      </trkpt>
      <trkpt lat="45.5888" lon="5.73498">
        <ele>604</ele>
        <time>2019-10-27T13:35:07.000Z</time>
      </trkpt>
      <trkpt lat="45.58878" lon="5.73495">
        <ele>604</ele>
        <time>2019-10-27T13:35:08.000Z</time>
      </trkpt>
      <trkpt lat="45.58878" lon="5.73493">
        <ele>604</ele>
        <time>2019-10-27T13:35:09.000Z</time>
      </trkpt>
      <trkpt lat="45.58877" lon="5.73491">
        <ele>604</ele>
        <time>2019-10-27T13:35:10.000Z</time>
      </trkpt>
      <trkpt lat="45.58877" lon="5.73489">
        <ele>604</ele>
        <time>2019-10-27T13:35:11.000Z</time>
      </trkpt>
      <trkpt lat="45.58876" lon="5.73488">
        <ele>604</ele>
        <time>2019-10-27T13:35:12.000Z</time>
      </trkpt>
      <trkpt lat="45.58875" lon="5.73486">
        <ele>604</ele>
        <time>2019-10-27T13:35:13.000Z</time>
      </trkpt>
      <trkpt lat="45.58874" lon="5.73485">
        <ele>604</ele>
        <time>2019-10-27T13:35:14.000Z</time>
      </trkpt>
      <trkpt lat="45.58873" lon="5.73483">
        <ele>604.3</ele>
        <time>2019-10-27T13:35:15.000Z</time>
      </trkpt>
      <trkpt lat="45.58871" lon="5.73482">
        <ele>604.7</ele>
        <time>2019-10-27T13:35:16.000Z</time>
      </trkpt>
      <trkpt lat="45.5887" lon="5.73481">
        <ele>605</ele>
        <time>2019-10-27T13:35:17.000Z</time>
      </trkpt>
      <trkpt lat="45.58869" lon="5.73481">
        <ele>605</ele>
        <time>2019-10-27T13:35:18.000Z</time>
      </trkpt>
      <trkpt lat="45.58868" lon="5.7348">
        <ele>605</ele>
        <time>2019-10-27T13:35:19.000Z</time>
      </trkpt>
      <trkpt lat="45.58867" lon="5.73479">
        <ele>605</ele>
        <time>2019-10-27T13:35:20.000Z</time>
      </trkpt>
      <trkpt lat="45.58866" lon="5.73479">
        <ele>605</ele>
        <time>2019-10-27T13:35:21.000Z</time>
      </trkpt>
      <trkpt lat="45.58865" lon="5.73479">
        <ele>605</ele>
        <time>2019-10-27T13:35:22.000Z</time>
      </trkpt>
      <trkpt lat="45.58863" lon="5.73478">
        <ele>605</ele>
        <time>2019-10-27T13:35:23.000Z</time>
      </trkpt>
      <trkpt lat="45.58862" lon="5.73478">
        <ele>606</ele>
        <time>2019-10-27T13:35:24.000Z</time>
      </trkpt>
      <trkpt lat="45.58861" lon="5.73478">
        <ele>606</ele>
        <time>2019-10-27T13:35:25.000Z</time>
      </trkpt>
      <trkpt lat="45.5886" lon="5.73478">
        <ele>606</ele>
        <time>2019-10-27T13:35:26.000Z</time>
      </trkpt>
      <trkpt lat="45.58859" lon="5.73478">
        <ele>606</ele>
        <time>2019-10-27T13:35:27.000Z</time>
      </trkpt>
      <trkpt lat="45.58857" lon="5.73477">
        <ele>606</ele>
        <time>2019-10-27T13:35:28.000Z</time>
      </trkpt>
      <trkpt lat="45.58856" lon="5.73477">
        <ele>606</ele>
        <time>2019-10-27T13:35:29.000Z</time>
      </trkpt>
      <trkpt lat="45.58855" lon="5.73477">
        <ele>606</ele>
        <time>2019-10-27T13:35:30.000Z</time>
      </trkpt>
      <trkpt lat="45.58853" lon="5.73477">
        <ele>606</ele>
        <time>2019-10-27T13:35:31.000Z</time>
      </trkpt>
      <trkpt lat="45.58852" lon="5.73476">
        <ele>606</ele>
        <time>2019-10-27T13:35:32.000Z</time>
      </trkpt>
      <trkpt lat="45.58851" lon="5.73476">
        <ele>606.3</ele>
        <time>2019-10-27T13:35:33.000Z</time>
      </trkpt>
      <trkpt lat="45.5885" lon="5.73476">
        <ele>606.7</ele>
        <time>2019-10-27T13:35:34.000Z</time>
      </trkpt>
      <trkpt lat="45.58849" lon="5.73475">
        <ele>607</ele>
        <time>2019-10-27T13:35:35.000Z</time>
      </trkpt>
      <trkpt lat="45.58848" lon="5.73475">
        <ele>607</ele>
        <time>2019-10-27T13:35:36.000Z</time>
      </trkpt>
      <trkpt lat="45.58847" lon="5.73475">
        <ele>607</ele>
        <time>2019-10-27T13:35:37.000Z</time>
      </trkpt>
      <trkpt lat="45.58846" lon="5.73475">
        <ele>607</ele>
        <time>2019-10-27T13:35:38.000Z</time>
      </trkpt>
      <trkpt lat="45.58845" lon="5.73475">
        <ele>607</ele>
        <time>2019-10-27T13:35:39.000Z</time>
      </trkpt>
      <trkpt lat="45.58845" lon="5.73475">
        <ele>607</ele>
        <time>2019-10-27T13:35:40.000Z</time>
      </trkpt>
      <trkpt lat="45.58844" lon="5.73476">
        <ele>607</ele>
        <time>2019-10-27T13:35:41.000Z</time>
      </trkpt>
      <trkpt lat="45.58843" lon="5.73476">
        <ele>607</ele>
        <time>2019-10-27T13:35:42.000Z</time>
      </trkpt>
      <trkpt lat="45.58842" lon="5.73476">
        <ele>607.3</ele>
        <time>2019-10-27T13:35:43.000Z</time>
      </trkpt>
      <trkpt lat="45.58842" lon="5.73476">
        <ele>607.7</ele>
        <time>2019-10-27T13:35:44.000Z</time>
      </trkpt>
      <trkpt lat="45.58841" lon="5.73476">
        <ele>608</ele>
        <time>2019-10-27T13:35:45.000Z</time>
      </trkpt>
      <trkpt lat="45.58841" lon="5.73475">
        <ele>608</ele>
        <time>2019-10-27T13:35:46.000Z</time>
      </trkpt>
      <trkpt lat="45.5884" lon="5.73475">
        <ele>608</ele>
        <time>2019-10-27T13:35:47.000Z</time>
      </trkpt>
      <trkpt lat="45.5884" lon="5.73475">
        <ele>608</ele>
        <time>2019-10-27T13:35:48.000Z</time>
      </trkpt>
      <trkpt lat="45.5884" lon="5.73474">
        <ele>608</ele>
        <time>2019-10-27T13:35:49.000Z</time>
      </trkpt>
      <trkpt lat="45.58839" lon="5.73474">
        <ele>608</ele>
        <time>2019-10-27T13:35:50.000Z</time>
      </trkpt>
      <trkpt lat="45.58838" lon="5.73473">
        <ele>608</ele>
        <time>2019-10-27T13:35:51.000Z</time>
      </trkpt>
      <trkpt lat="45.58837" lon="5.73473">
        <ele>608</ele>
        <time>2019-10-27T13:35:52.000Z</time>
      </trkpt>
      <trkpt lat="45.58836" lon="5.73473">
        <ele>608</ele>
        <time>2019-10-27T13:35:53.000Z</time>
      </trkpt>
      <trkpt lat="45.58835" lon="5.73473">
        <ele>608</ele>
        <time>2019-10-27T13:35:54.000Z</time>
      </trkpt>
      <trkpt lat="45.58834" lon="5.73473">
        <ele>608</ele>
        <time>2019-10-27T13:35:55.000Z</time>
      </trkpt>
      <trkpt lat="45.58832" lon="5.73474">
        <ele>608</ele>
        <time>2019-10-27T13:35:56.000Z</time>
      </trkpt>
      <trkpt lat="45.58831" lon="5.73474">
        <ele>608</ele>
        <time>2019-10-27T13:35:57.000Z</time>
      </trkpt>
      <trkpt lat="45.58829" lon="5.73474">
        <ele>608</ele>
        <time>2019-10-27T13:35:58.000Z</time>
      </trkpt>
      <trkpt lat="45.58828" lon="5.73475">
        <ele>608</ele>
        <time>2019-10-27T13:35:59.000Z</time>
      </trkpt>
      <trkpt lat="45.58826" lon="5.73475">
        <ele>608</ele>
        <time>2019-10-27T13:36:00.000Z</time>
      </trkpt>
      <trkpt lat="45.58825" lon="5.73475">
        <ele>608</ele>
        <time>2019-10-27T13:36:01.000Z</time>
      </trkpt>
      <trkpt lat="45.58824" lon="5.73475">
        <ele>608</ele>
        <time>2019-10-27T13:36:02.000Z</time>
      </trkpt>
      <trkpt lat="45.58823" lon="5.73474">
        <ele>608</ele>
        <time>2019-10-27T13:36:03.000Z</time>
      </trkpt>
      <trkpt lat="45.58822" lon="5.73474">
        <ele>608</ele>
        <time>2019-10-27T13:36:04.000Z</time>
      </trkpt>
      <trkpt lat="45.58821" lon="5.73474">
        <ele>608</ele>
        <time>2019-10-27T13:36:05.000Z</time>
      </trkpt>
      <trkpt lat="45.5882" lon="5.73474">
        <ele>608</ele>
        <time>2019-10-27T13:36:06.000Z</time>
      </trkpt>
      <trkpt lat="45.58819" lon="5.73473">
        <ele>608</ele>
        <time>2019-10-27T13:36:07.000Z</time>
      </trkpt>
      <trkpt lat="45.58819" lon="5.73473">
        <ele>608</ele>
        <time>2019-10-27T13:36:08.000Z</time>
      </trkpt>
      <trkpt lat="45.58818" lon="5.73473">
        <ele>608</ele>
        <time>2019-10-27T13:36:09.000Z</time>
      </trkpt>
      <trkpt lat="45.58817" lon="5.73472">
        <ele>608</ele>
        <time>2019-10-27T13:36:10.000Z</time>
      </trkpt>
      <trkpt lat="45.58817" lon="5.73472">
        <ele>608</ele>
        <time>2019-10-27T13:36:11.000Z</time>
      </trkpt>
      <trkpt lat="45.58816" lon="5.73471">
        <ele>608</ele>
        <time>2019-10-27T13:36:12.000Z</time>
      </trkpt>
      <trkpt lat="45.58815" lon="5.7347">
        <ele>608</ele>
        <time>2019-10-27T13:36:13.000Z</time>
      </trkpt>
      <trkpt lat="45.58814" lon="5.73469">
        <ele>608</ele>
        <time>2019-10-27T13:36:14.000Z</time>
      </trkpt>
      <trkpt lat="45.58813" lon="5.73469">
        <ele>608</ele>
        <time>2019-10-27T13:36:15.000Z</time>
      </trkpt>
      <trkpt lat="45.58813" lon="5.73468">
        <ele>608</ele>
        <time>2019-10-27T13:36:16.000Z</time>
      </trkpt>
      <trkpt lat="45.58812" lon="5.73467">
        <ele>608</ele>
        <time>2019-10-27T13:36:17.000Z</time>
      </trkpt>
      <trkpt lat="45.58811" lon="5.73466">
        <ele>608</ele>
        <time>2019-10-27T13:36:18.000Z</time>
      </trkpt>
      <trkpt lat="45.5881" lon="5.73466">
        <ele>608</ele>
        <time>2019-10-27T13:36:19.000Z</time>
      </trkpt>
      <trkpt lat="45.58809" lon="5.73465">
        <ele>608</ele>
        <time>2019-10-27T13:36:20.000Z</time>
      </trkpt>
      <trkpt lat="45.58808" lon="5.73464">
        <ele>608</ele>
        <time>2019-10-27T13:36:21.000Z</time>
      </trkpt>
      <trkpt lat="45.58807" lon="5.73463">
        <ele>608</ele>
        <time>2019-10-27T13:36:22.000Z</time>
      </trkpt>
      <trkpt lat="45.58806" lon="5.73462">
        <ele>608</ele>
        <time>2019-10-27T13:36:23.000Z</time>
      </trkpt>
      <trkpt lat="45.58805" lon="5.73462">
        <ele>608</ele>
        <time>2019-10-27T13:36:24.000Z</time>
      </trkpt>
      <trkpt lat="45.58804" lon="5.73461">
        <ele>608</ele>
        <time>2019-10-27T13:36:25.000Z</time>
      </trkpt>
      <trkpt lat="45.58803" lon="5.7346">
        <ele>608</ele>
        <time>2019-10-27T13:36:26.000Z</time>
      </trkpt>
      <trkpt lat="45.58802" lon="5.73459">
        <ele>608</ele>
        <time>2019-10-27T13:36:27.000Z</time>
      </trkpt>
      <trkpt lat="45.58802" lon="5.73458">
        <ele>608</ele>
        <time>2019-10-27T13:36:28.000Z</time>
      </trkpt>
      <trkpt lat="45.58801" lon="5.73458">
        <ele>608</ele>
        <time>2019-10-27T13:36:29.000Z</time>
      </trkpt>
      <trkpt lat="45.588" lon="5.73457">
        <ele>608</ele>
        <time>2019-10-27T13:36:30.000Z</time>
      </trkpt>
      <trkpt lat="45.588" lon="5.73456">
        <ele>608</ele>
        <time>2019-10-27T13:36:31.000Z</time>
      </trkpt>
      <trkpt lat="45.58799" lon="5.73455">
        <ele>608</ele>
        <time>2019-10-27T13:36:32.000Z</time>
      </trkpt>
      <trkpt lat="45.58798" lon="5.73454">
        <ele>608</ele>
        <time>2019-10-27T13:36:33.000Z</time>
      </trkpt>
      <trkpt lat="45.58797" lon="5.73453">
        <ele>608</ele>
        <time>2019-10-27T13:36:34.000Z</time>
      </trkpt>
      <trkpt lat="45.58796" lon="5.73452">
        <ele>608</ele>
        <time>2019-10-27T13:36:35.000Z</time>
      </trkpt>
      <trkpt lat="45.58796" lon="5.73452">
        <ele>608</ele>
        <time>2019-10-27T13:36:36.000Z</time>
      </trkpt>
      <trkpt lat="45.58794" lon="5.73451">
        <ele>608.3</ele>
        <time>2019-10-27T13:36:37.000Z</time>
      </trkpt>
      <trkpt lat="45.58793" lon="5.7345">
        <ele>608.7</ele>
        <time>2019-10-27T13:36:38.000Z</time>
      </trkpt>
      <trkpt lat="45.58792" lon="5.73449">
        <ele>609</ele>
        <time>2019-10-27T13:36:39.000Z</time>
      </trkpt>
      <trkpt lat="45.58791" lon="5.73448">
        <ele>609</ele>
        <time>2019-10-27T13:36:40.000Z</time>
      </trkpt>
      <trkpt lat="45.5879" lon="5.73447">
        <ele>609</ele>
        <time>2019-10-27T13:36:41.000Z</time>
      </trkpt>
      <trkpt lat="45.58788" lon="5.73446">
        <ele>609</ele>
        <time>2019-10-27T13:36:42.000Z</time>
      </trkpt>
      <trkpt lat="45.58787" lon="5.73445">
        <ele>609</ele>
        <time>2019-10-27T13:36:43.000Z</time>
      </trkpt>
      <trkpt lat="45.58786" lon="5.73444">
        <ele>609</ele>
        <time>2019-10-27T13:36:44.000Z</time>
      </trkpt>
      <trkpt lat="45.58785" lon="5.73443">
        <ele>609</ele>
        <time>2019-10-27T13:36:45.000Z</time>
      </trkpt>
      <trkpt lat="45.58784" lon="5.73443">
        <ele>609</ele>
        <time>2019-10-27T13:36:46.000Z</time>
      </trkpt>
      <trkpt lat="45.58783" lon="5.73442">
        <ele>609</ele>
        <time>2019-10-27T13:36:47.000Z</time>
      </trkpt>
      <trkpt lat="45.58783" lon="5.73441">
        <ele>609</ele>
        <time>2019-10-27T13:36:48.000Z</time>
      </trkpt>
      <trkpt lat="45.58782" lon="5.7344">
        <ele>609</ele>
        <time>2019-10-27T13:36:49.000Z</time>
      </trkpt>
      <trkpt lat="45.58782" lon="5.73439">
        <ele>609</ele>
        <time>2019-10-27T13:36:50.000Z</time>
      </trkpt>
      <trkpt lat="45.58781" lon="5.73438">
        <ele>609</ele>
        <time>2019-10-27T13:36:51.000Z</time>
      </trkpt>
      <trkpt lat="45.58781" lon="5.73437">
        <ele>609</ele>
        <time>2019-10-27T13:36:52.000Z</time>
      </trkpt>
      <trkpt lat="45.5878" lon="5.73436">
        <ele>609</ele>
        <time>2019-10-27T13:36:53.000Z</time>
      </trkpt>
      <trkpt lat="45.5878" lon="5.73435">
        <ele>610</ele>
        <time>2019-10-27T13:36:54.000Z</time>
      </trkpt>
      <trkpt lat="45.58779" lon="5.73434">
        <ele>610</ele>
        <time>2019-10-27T13:36:55.000Z</time>
      </trkpt>
      <trkpt lat="45.58777" lon="5.73434">
        <ele>610</ele>
        <time>2019-10-27T13:36:56.000Z</time>
      </trkpt>
      <trkpt lat="45.58776" lon="5.73433">
        <ele>610</ele>
        <time>2019-10-27T13:36:57.000Z</time>
      </trkpt>
      <trkpt lat="45.58775" lon="5.73432">
        <ele>610</ele>
        <time>2019-10-27T13:36:58.000Z</time>
      </trkpt>
      <trkpt lat="45.58774" lon="5.73431">
        <ele>610</ele>
        <time>2019-10-27T13:36:59.000Z</time>
      </trkpt>
      <trkpt lat="45.58773" lon="5.7343">
        <ele>610</ele>
        <time>2019-10-27T13:37:00.000Z</time>
      </trkpt>
      <trkpt lat="45.58772" lon="5.73429">
        <ele>610</ele>
        <time>2019-10-27T13:37:01.000Z</time>
      </trkpt>
      <trkpt lat="45.58771" lon="5.73428">
        <ele>611</ele>
        <time>2019-10-27T13:37:02.000Z</time>
      </trkpt>
      <trkpt lat="45.5877" lon="5.73427">
        <ele>611</ele>
        <time>2019-10-27T13:37:03.000Z</time>
      </trkpt>
      <trkpt lat="45.58769" lon="5.73426">
        <ele>611</ele>
        <time>2019-10-27T13:37:04.000Z</time>
      </trkpt>
      <trkpt lat="45.58768" lon="5.73425">
        <ele>611</ele>
        <time>2019-10-27T13:37:05.000Z</time>
      </trkpt>
      <trkpt lat="45.58767" lon="5.73424">
        <ele>611</ele>
        <time>2019-10-27T13:37:06.000Z</time>
      </trkpt>
      <trkpt lat="45.58766" lon="5.73423">
        <ele>611</ele>
        <time>2019-10-27T13:37:07.000Z</time>
      </trkpt>
      <trkpt lat="45.58765" lon="5.73422">
        <ele>611</ele>
        <time>2019-10-27T13:37:08.000Z</time>
      </trkpt>
      <trkpt lat="45.58764" lon="5.73422">
        <ele>611</ele>
        <time>2019-10-27T13:37:09.000Z</time>
      </trkpt>
      <trkpt lat="45.58764" lon="5.73421">
        <ele>611</ele>
        <time>2019-10-27T13:37:10.000Z</time>
      </trkpt>
      <trkpt lat="45.58763" lon="5.7342">
        <ele>611.3</ele>
        <time>2019-10-27T13:37:11.000Z</time>
      </trkpt>
      <trkpt lat="45.58763" lon="5.7342">
        <ele>611.7</ele>
        <time>2019-10-27T13:37:12.000Z</time>
      </trkpt>
      <trkpt lat="45.58762" lon="5.73419">
        <ele>612</ele>
        <time>2019-10-27T13:37:13.000Z</time>
      </trkpt>
      <trkpt lat="45.58761" lon="5.73418">
        <ele>612</ele>
        <time>2019-10-27T13:37:14.000Z</time>
      </trkpt>
      <trkpt lat="45.5876" lon="5.73417">
        <ele>612</ele>
        <time>2019-10-27T13:37:15.000Z</time>
      </trkpt>
      <trkpt lat="45.58759" lon="5.73416">
        <ele>612</ele>
        <time>2019-10-27T13:37:16.000Z</time>
      </trkpt>
      <trkpt lat="45.58758" lon="5.73415">
        <ele>612</ele>
        <time>2019-10-27T13:37:17.000Z</time>
      </trkpt>
      <trkpt lat="45.58756" lon="5.73415">
        <ele>612</ele>
        <time>2019-10-27T13:37:18.000Z</time>
      </trkpt>
      <trkpt lat="45.58755" lon="5.73414">
        <ele>612</ele>
        <time>2019-10-27T13:37:19.000Z</time>
      </trkpt>
      <trkpt lat="45.58754" lon="5.73414">
        <ele>612</ele>
        <time>2019-10-27T13:37:20.000Z</time>
      </trkpt>
      <trkpt lat="45.58752" lon="5.73413">
        <ele>612</ele>
        <time>2019-10-27T13:37:21.000Z</time>
      </trkpt>
      <trkpt lat="45.58751" lon="5.73413">
        <ele>613</ele>
        <time>2019-10-27T13:37:22.000Z</time>
      </trkpt>
      <trkpt lat="45.58749" lon="5.73413">
        <ele>613</ele>
        <time>2019-10-27T13:37:23.000Z</time>
      </trkpt>
      <trkpt lat="45.58747" lon="5.73412">
        <ele>613</ele>
        <time>2019-10-27T13:37:24.000Z</time>
      </trkpt>
      <trkpt lat="45.58744" lon="5.73411">
        <ele>613</ele>
        <time>2019-10-27T13:37:25.000Z</time>
      </trkpt>
      <trkpt lat="45.58742" lon="5.7341">
        <ele>613</ele>
        <time>2019-10-27T13:37:26.000Z</time>
      </trkpt>
      <trkpt lat="45.58741" lon="5.7341">
        <ele>613</ele>
        <time>2019-10-27T13:37:27.000Z</time>
      </trkpt>
      <trkpt lat="45.5874" lon="5.7341">
        <ele>613</ele>
        <time>2019-10-27T13:37:28.000Z</time>
      </trkpt>
      <trkpt lat="45.58739" lon="5.7341">
        <ele>613</ele>
        <time>2019-10-27T13:37:29.000Z</time>
      </trkpt>
      <trkpt lat="45.58739" lon="5.73409">
        <ele>613</ele>
        <time>2019-10-27T13:37:30.000Z</time>
      </trkpt>
      <trkpt lat="45.58738" lon="5.73409">
        <ele>613</ele>
        <time>2019-10-27T13:37:31.000Z</time>
      </trkpt>
      <trkpt lat="45.58737" lon="5.73408">
        <ele>613</ele>
        <time>2019-10-27T13:37:32.000Z</time>
      </trkpt>
      <trkpt lat="45.58736" lon="5.73408">
        <ele>613</ele>
        <time>2019-10-27T13:37:33.000Z</time>
      </trkpt>
      <trkpt lat="45.58735" lon="5.73407">
        <ele>613</ele>
        <time>2019-10-27T13:37:34.000Z</time>
      </trkpt>
      <trkpt lat="45.58734" lon="5.73407">
        <ele>613</ele>
        <time>2019-10-27T13:37:35.000Z</time>
      </trkpt>
      <trkpt lat="45.58733" lon="5.73406">
        <ele>613</ele>
        <time>2019-10-27T13:37:36.000Z</time>
      </trkpt>
      <trkpt lat="45.58732" lon="5.73406">
        <ele>613</ele>
        <time>2019-10-27T13:37:37.000Z</time>
      </trkpt>
      <trkpt lat="45.58731" lon="5.73405">
        <ele>613</ele>
        <time>2019-10-27T13:37:38.000Z</time>
      </trkpt>
      <trkpt lat="45.58731" lon="5.73405">
        <ele>613</ele>
        <time>2019-10-27T13:37:39.000Z</time>
      </trkpt>
      <trkpt lat="45.5873" lon="5.73405">
        <ele>613</ele>
        <time>2019-10-27T13:37:40.000Z</time>
      </trkpt>
      <trkpt lat="45.58729" lon="5.73404">
        <ele>613</ele>
        <time>2019-10-27T13:37:41.000Z</time>
      </trkpt>
      <trkpt lat="45.58728" lon="5.73404">
        <ele>613</ele>
        <time>2019-10-27T13:37:42.000Z</time>
      </trkpt>
      <trkpt lat="45.58727" lon="5.73403">
        <ele>613</ele>
        <time>2019-10-27T13:37:43.000Z</time>
      </trkpt>
      <trkpt lat="45.58726" lon="5.73403">
        <ele>613</ele>
        <time>2019-10-27T13:37:44.000Z</time>
      </trkpt>
      <trkpt lat="45.58726" lon="5.73402">
        <ele>613</ele>
        <time>2019-10-27T13:37:45.000Z</time>
      </trkpt>
      <trkpt lat="45.58725" lon="5.73401">
        <ele>613</ele>
        <time>2019-10-27T13:37:46.000Z</time>
      </trkpt>
      <trkpt lat="45.58724" lon="5.73401">
        <ele>613</ele>
        <time>2019-10-27T13:37:47.000Z</time>
      </trkpt>
      <trkpt lat="45.58723" lon="5.734">
        <ele>613</ele>
        <time>2019-10-27T13:37:48.000Z</time>
      </trkpt>
      <trkpt lat="45.58722" lon="5.734">
        <ele>613</ele>
        <time>2019-10-27T13:37:49.000Z</time>
      </trkpt>
      <trkpt lat="45.58721" lon="5.734">
        <ele>613</ele>
        <time>2019-10-27T13:37:50.000Z</time>
      </trkpt>
      <trkpt lat="45.58719" lon="5.734">
        <ele>613</ele>
        <time>2019-10-27T13:37:51.000Z</time>
      </trkpt>
      <trkpt lat="45.58718" lon="5.73401">
        <ele>613</ele>
        <time>2019-10-27T13:37:52.000Z</time>
      </trkpt>
      <trkpt lat="45.58717" lon="5.73401">
        <ele>613</ele>
        <time>2019-10-27T13:37:53.000Z</time>
      </trkpt>
      <trkpt lat="45.58716" lon="5.73401">
        <ele>613</ele>
        <time>2019-10-27T13:37:54.000Z</time>
      </trkpt>
      <trkpt lat="45.58715" lon="5.73402">
        <ele>613</ele>
        <time>2019-10-27T13:37:55.000Z</time>
      </trkpt>
      <trkpt lat="45.58714" lon="5.73402">
        <ele>613</ele>
        <time>2019-10-27T13:37:56.000Z</time>
      </trkpt>
      <trkpt lat="45.58713" lon="5.73402">
        <ele>613</ele>
        <time>2019-10-27T13:37:57.000Z</time>
      </trkpt>
      <trkpt lat="45.58712" lon="5.73402">
        <ele>613</ele>
        <time>2019-10-27T13:37:58.000Z</time>
      </trkpt>
      <trkpt lat="45.58711" lon="5.73402">
        <ele>613</ele>
        <time>2019-10-27T13:37:59.000Z</time>
      </trkpt>
      <trkpt lat="45.5871" lon="5.73402">
        <ele>613</ele>
        <time>2019-10-27T13:38:00.000Z</time>
      </trkpt>
      <trkpt lat="45.58709" lon="5.73402">
        <ele>613</ele>
        <time>2019-10-27T13:38:01.000Z</time>
      </trkpt>
      <trkpt lat="45.58707" lon="5.73402">
        <ele>613</ele>
        <time>2019-10-27T13:38:02.000Z</time>
      </trkpt>
      <trkpt lat="45.58706" lon="5.73401">
        <ele>613</ele>
        <time>2019-10-27T13:38:03.000Z</time>
      </trkpt>
      <trkpt lat="45.58705" lon="5.73401">
        <ele>613</ele>
        <time>2019-10-27T13:38:04.000Z</time>
      </trkpt>
      <trkpt lat="45.58704" lon="5.73401">
        <ele>613</ele>
        <time>2019-10-27T13:38:05.000Z</time>
      </trkpt>
      <trkpt lat="45.58703" lon="5.734">
        <ele>613</ele>
        <time>2019-10-27T13:38:06.000Z</time>
      </trkpt>
      <trkpt lat="45.58702" lon="5.734">
        <ele>613</ele>
        <time>2019-10-27T13:38:07.000Z</time>
      </trkpt>
      <trkpt lat="45.587" lon="5.73399">
        <ele>613</ele>
        <time>2019-10-27T13:38:08.000Z</time>
      </trkpt>
      <trkpt lat="45.58699" lon="5.73398">
        <ele>613</ele>
        <time>2019-10-27T13:38:09.000Z</time>
      </trkpt>
      <trkpt lat="45.58698" lon="5.73398">
        <ele>614</ele>
        <time>2019-10-27T13:38:10.000Z</time>
      </trkpt>
      <trkpt lat="45.58697" lon="5.73397">
        <ele>614</ele>
        <time>2019-10-27T13:38:11.000Z</time>
      </trkpt>
      <trkpt lat="45.58696" lon="5.73396">
        <ele>614</ele>
        <time>2019-10-27T13:38:12.000Z</time>
      </trkpt>
      <trkpt lat="45.58695" lon="5.73395">
        <ele>614</ele>
        <time>2019-10-27T13:38:13.000Z</time>
      </trkpt>
      <trkpt lat="45.58695" lon="5.73394">
        <ele>614</ele>
        <time>2019-10-27T13:38:14.000Z</time>
      </trkpt>
      <trkpt lat="45.58694" lon="5.73393">
        <ele>614</ele>
        <time>2019-10-27T13:38:15.000Z</time>
      </trkpt>
      <trkpt lat="45.58693" lon="5.73392">
        <ele>614</ele>
        <time>2019-10-27T13:38:16.000Z</time>
      </trkpt>
      <trkpt lat="45.58692" lon="5.73392">
        <ele>614</ele>
        <time>2019-10-27T13:38:17.000Z</time>
      </trkpt>
      <trkpt lat="45.58692" lon="5.73391">
        <ele>614</ele>
        <time>2019-10-27T13:38:18.000Z</time>
      </trkpt>
      <trkpt lat="45.58691" lon="5.7339">
        <ele>614.3</ele>
        <time>2019-10-27T13:38:19.000Z</time>
      </trkpt>
      <trkpt lat="45.5869" lon="5.73389">
        <ele>614.7</ele>
        <time>2019-10-27T13:38:20.000Z</time>
      </trkpt>
      <trkpt lat="45.58689" lon="5.73389">
        <ele>615</ele>
        <time>2019-10-27T13:38:21.000Z</time>
      </trkpt>
      <trkpt lat="45.58689" lon="5.73388">
        <ele>615</ele>
        <time>2019-10-27T13:38:22.000Z</time>
      </trkpt>
      <trkpt lat="45.58688" lon="5.73388">
        <ele>615</ele>
        <time>2019-10-27T13:38:23.000Z</time>
      </trkpt>
      <trkpt lat="45.58688" lon="5.73387">
        <ele>615</ele>
        <time>2019-10-27T13:38:24.000Z</time>
      </trkpt>
      <trkpt lat="45.58687" lon="5.73387">
        <ele>615</ele>
        <time>2019-10-27T13:38:25.000Z</time>
      </trkpt>
      <trkpt lat="45.58687" lon="5.73386">
        <ele>615</ele>
        <time>2019-10-27T13:38:26.000Z</time>
      </trkpt>
      <trkpt lat="45.58687" lon="5.73386">
        <ele>615</ele>
        <time>2019-10-27T13:38:27.000Z</time>
      </trkpt>
      <trkpt lat="45.58686" lon="5.73386">
        <ele>615</ele>
        <time>2019-10-27T13:38:28.000Z</time>
      </trkpt>
      <trkpt lat="45.58686" lon="5.73386">
        <ele>615</ele>
        <time>2019-10-27T13:38:29.000Z</time>
      </trkpt>
      <trkpt lat="45.58686" lon="5.73386">
        <ele>615</ele>
        <time>2019-10-27T13:38:30.000Z</time>
      </trkpt>
      <trkpt lat="45.58686" lon="5.73386">
        <ele>615</ele>
        <time>2019-10-27T13:38:31.000Z</time>
      </trkpt>
      <trkpt lat="45.58686" lon="5.73386">
        <ele>616</ele>
        <time>2019-10-27T13:38:32.000Z</time>
      </trkpt>
      <trkpt lat="45.58686" lon="5.73386">
        <ele>616</ele>
        <time>2019-10-27T13:38:33.000Z</time>
      </trkpt>
      <trkpt lat="45.58686" lon="5.73386">
        <ele>616</ele>
        <time>2019-10-27T13:38:34.000Z</time>
      </trkpt>
      <trkpt lat="45.58686" lon="5.73386">
        <ele>616</ele>
        <time>2019-10-27T13:38:35.000Z</time>
      </trkpt>
      <trkpt lat="45.58686" lon="5.73386">
        <ele>616</ele>
        <time>2019-10-27T13:38:36.000Z</time>
      </trkpt>
      <trkpt lat="45.58686" lon="5.73386">
        <ele>616</ele>
        <time>2019-10-27T13:38:37.000Z</time>
      </trkpt>
      <trkpt lat="45.58686" lon="5.73386">
        <ele>616</ele>
        <time>2019-10-27T13:38:38.000Z</time>
      </trkpt>
      <trkpt lat="45.58685" lon="5.73385">
        <ele>616</ele>
        <time>2019-10-27T13:38:39.000Z</time>
      </trkpt>
      <trkpt lat="45.58683" lon="5.73384">
        <ele>616</ele>
        <time>2019-10-27T13:38:40.000Z</time>
      </trkpt>
      <trkpt lat="45.5868" lon="5.73383">
        <ele>616</ele>
        <time>2019-10-27T13:38:41.000Z</time>
      </trkpt>
      <trkpt lat="45.58679" lon="5.73382">
        <ele>617</ele>
        <time>2019-10-27T13:38:42.000Z</time>
      </trkpt>
      <trkpt lat="45.58677" lon="5.73382">
        <ele>617</ele>
        <time>2019-10-27T13:38:43.000Z</time>
      </trkpt>
      <trkpt lat="45.58676" lon="5.73382">
        <ele>617</ele>
        <time>2019-10-27T13:38:44.000Z</time>
      </trkpt>
      <trkpt lat="45.58674" lon="5.73382">
        <ele>617</ele>
        <time>2019-10-27T13:38:45.000Z</time>
      </trkpt>
      <trkpt lat="45.58673" lon="5.73382">
        <ele>617</ele>
        <time>2019-10-27T13:38:46.000Z</time>
      </trkpt>
      <trkpt lat="45.58671" lon="5.73381">
        <ele>617</ele>
        <time>2019-10-27T13:38:47.000Z</time>
      </trkpt>
      <trkpt lat="45.5867" lon="5.73381">
        <ele>617</ele>
        <time>2019-10-27T13:38:48.000Z</time>
      </trkpt>
      <trkpt lat="45.58669" lon="5.73381">
        <ele>617</ele>
        <time>2019-10-27T13:38:49.000Z</time>
      </trkpt>
      <trkpt lat="45.58668" lon="5.73381">
        <ele>618</ele>
        <time>2019-10-27T13:38:50.000Z</time>
      </trkpt>
      <trkpt lat="45.58667" lon="5.73381">
        <ele>618</ele>
        <time>2019-10-27T13:38:51.000Z</time>
      </trkpt>
      <trkpt lat="45.58666" lon="5.7338">
        <ele>618</ele>
        <time>2019-10-27T13:38:52.000Z</time>
      </trkpt>
      <trkpt lat="45.58665" lon="5.7338">
        <ele>618</ele>
        <time>2019-10-27T13:38:53.000Z</time>
      </trkpt>
      <trkpt lat="45.58664" lon="5.7338">
        <ele>618</ele>
        <time>2019-10-27T13:38:54.000Z</time>
      </trkpt>
      <trkpt lat="45.58663" lon="5.7338">
        <ele>618</ele>
        <time>2019-10-27T13:38:55.000Z</time>
      </trkpt>
      <trkpt lat="45.58662" lon="5.7338">
        <ele>618</ele>
        <time>2019-10-27T13:38:56.000Z</time>
      </trkpt>
      <trkpt lat="45.58661" lon="5.7338">
        <ele>618</ele>
        <time>2019-10-27T13:38:57.000Z</time>
      </trkpt>
      <trkpt lat="45.58661" lon="5.7338">
        <ele>618</ele>
        <time>2019-10-27T13:38:58.000Z</time>
      </trkpt>
      <trkpt lat="45.5866" lon="5.7338">
        <ele>618</ele>
        <time>2019-10-27T13:38:59.000Z</time>
      </trkpt>
      <trkpt lat="45.5866" lon="5.7338">
        <ele>618.5</ele>
        <time>2019-10-27T13:39:00.000Z</time>
      </trkpt>
      <trkpt lat="45.5866" lon="5.7338">
        <ele>619</ele>
        <time>2019-10-27T13:39:01.000Z</time>
      </trkpt>
      <trkpt lat="45.5866" lon="5.7338">
        <ele>619</ele>
        <time>2019-10-27T13:39:02.000Z</time>
      </trkpt>
      <trkpt lat="45.58659" lon="5.7338">
        <ele>619</ele>
        <time>2019-10-27T13:39:03.000Z</time>
      </trkpt>
      <trkpt lat="45.58659" lon="5.7338">
        <ele>619</ele>
        <time>2019-10-27T13:39:04.000Z</time>
      </trkpt>
      <trkpt lat="45.58658" lon="5.7338">
        <ele>619</ele>
        <time>2019-10-27T13:39:05.000Z</time>
      </trkpt>
      <trkpt lat="45.58657" lon="5.7338">
        <ele>619</ele>
        <time>2019-10-27T13:39:06.000Z</time>
      </trkpt>
      <trkpt lat="45.58655" lon="5.73381">
        <ele>619</ele>
        <time>2019-10-27T13:39:07.000Z</time>
      </trkpt>
      <trkpt lat="45.58653" lon="5.73381">
        <ele>619</ele>
        <time>2019-10-27T13:39:08.000Z</time>
      </trkpt>
      <trkpt lat="45.58652" lon="5.73382">
        <ele>619</ele>
        <time>2019-10-27T13:39:09.000Z</time>
      </trkpt>
      <trkpt lat="45.5865" lon="5.73382">
        <ele>619</ele>
        <time>2019-10-27T13:39:10.000Z</time>
      </trkpt>
      <trkpt lat="45.58649" lon="5.73382">
        <ele>619</ele>
        <time>2019-10-27T13:39:11.000Z</time>
      </trkpt>
      <trkpt lat="45.58648" lon="5.73382">
        <ele>619</ele>
        <time>2019-10-27T13:39:12.000Z</time>
      </trkpt>
      <trkpt lat="45.58647" lon="5.73382">
        <ele>619</ele>
        <time>2019-10-27T13:39:13.000Z</time>
      </trkpt>
      <trkpt lat="45.58646" lon="5.73381">
        <ele>619</ele>
        <time>2019-10-27T13:39:14.000Z</time>
      </trkpt>
      <trkpt lat="45.58644" lon="5.73381">
        <ele>619</ele>
        <time>2019-10-27T13:39:15.000Z</time>
      </trkpt>
      <trkpt lat="45.58643" lon="5.73381">
        <ele>619</ele>
        <time>2019-10-27T13:39:16.000Z</time>
      </trkpt>
      <trkpt lat="45.58642" lon="5.73381">
        <ele>619</ele>
        <time>2019-10-27T13:39:17.000Z</time>
      </trkpt>
      <trkpt lat="45.58641" lon="5.73381">
        <ele>619</ele>
        <time>2019-10-27T13:39:18.000Z</time>
      </trkpt>
      <trkpt lat="45.5864" lon="5.73381">
        <ele>619</ele>
        <time>2019-10-27T13:39:19.000Z</time>
      </trkpt>
      <trkpt lat="45.58639" lon="5.73382">
        <ele>619</ele>
        <time>2019-10-27T13:39:20.000Z</time>
      </trkpt>
      <trkpt lat="45.58638" lon="5.73382">
        <ele>619</ele>
        <time>2019-10-27T13:39:21.000Z</time>
      </trkpt>
      <trkpt lat="45.58638" lon="5.73382">
        <ele>619</ele>
        <time>2019-10-27T13:39:22.000Z</time>
      </trkpt>
      <trkpt lat="45.58637" lon="5.73381">
        <ele>619</ele>
        <time>2019-10-27T13:39:23.000Z</time>
      </trkpt>
      <trkpt lat="45.58636" lon="5.73381">
        <ele>619</ele>
        <time>2019-10-27T13:39:24.000Z</time>
      </trkpt>
      <trkpt lat="45.58635" lon="5.7338">
        <ele>619</ele>
        <time>2019-10-27T13:39:25.000Z</time>
      </trkpt>
      <trkpt lat="45.58634" lon="5.7338">
        <ele>619</ele>
        <time>2019-10-27T13:39:26.000Z</time>
      </trkpt>
      <trkpt lat="45.58632" lon="5.7338">
        <ele>619</ele>
        <time>2019-10-27T13:39:27.000Z</time>
      </trkpt>
      <trkpt lat="45.58631" lon="5.7338">
        <ele>619</ele>
        <time>2019-10-27T13:39:28.000Z</time>
      </trkpt>
      <trkpt lat="45.5863" lon="5.73379">
        <ele>619</ele>
        <time>2019-10-27T13:39:29.000Z</time>
      </trkpt>
      <trkpt lat="45.58629" lon="5.73378">
        <ele>620</ele>
        <time>2019-10-27T13:39:30.000Z</time>
      </trkpt>
      <trkpt lat="45.58628" lon="5.73378">
        <ele>620</ele>
        <time>2019-10-27T13:39:31.000Z</time>
      </trkpt>
      <trkpt lat="45.58627" lon="5.73378">
        <ele>620</ele>
        <time>2019-10-27T13:39:32.000Z</time>
      </trkpt>
      <trkpt lat="45.58626" lon="5.73378">
        <ele>620</ele>
        <time>2019-10-27T13:39:33.000Z</time>
      </trkpt>
      <trkpt lat="45.58625" lon="5.73378">
        <ele>620</ele>
        <time>2019-10-27T13:39:34.000Z</time>
      </trkpt>
      <trkpt lat="45.58623" lon="5.73378">
        <ele>620</ele>
        <time>2019-10-27T13:39:35.000Z</time>
      </trkpt>
      <trkpt lat="45.58622" lon="5.73378">
        <ele>620</ele>
        <time>2019-10-27T13:39:36.000Z</time>
      </trkpt>
      <trkpt lat="45.58621" lon="5.73378">
        <ele>620</ele>
        <time>2019-10-27T13:39:37.000Z</time>
      </trkpt>
      <trkpt lat="45.5862" lon="5.73378">
        <ele>619</ele>
        <time>2019-10-27T13:39:38.000Z</time>
      </trkpt>
      <trkpt lat="45.58619" lon="5.73378">
        <ele>619.3</ele>
        <time>2019-10-27T13:39:39.000Z</time>
      </trkpt>
      <trkpt lat="45.58618" lon="5.73378">
        <ele>619.7</ele>
        <time>2019-10-27T13:39:40.000Z</time>
      </trkpt>
      <trkpt lat="45.58616" lon="5.73377">
        <ele>620</ele>
        <time>2019-10-27T13:39:41.000Z</time>
      </trkpt>
      <trkpt lat="45.58615" lon="5.73377">
        <ele>620</ele>
        <time>2019-10-27T13:39:42.000Z</time>
      </trkpt>
      <trkpt lat="45.58614" lon="5.73377">
        <ele>620</ele>
        <time>2019-10-27T13:39:43.000Z</time>
      </trkpt>
      <trkpt lat="45.58612" lon="5.73377">
        <ele>620</ele>
        <time>2019-10-27T13:39:44.000Z</time>
      </trkpt>
      <trkpt lat="45.58611" lon="5.73377">
        <ele>620</ele>
        <time>2019-10-27T13:39:45.000Z</time>
      </trkpt>
      <trkpt lat="45.5861" lon="5.73377">
        <ele>620</ele>
        <time>2019-10-27T13:39:46.000Z</time>
      </trkpt>
      <trkpt lat="45.58608" lon="5.73377">
        <ele>620</ele>
        <time>2019-10-27T13:39:47.000Z</time>
      </trkpt>
      <trkpt lat="45.58607" lon="5.73378">
        <ele>620</ele>
        <time>2019-10-27T13:39:48.000Z</time>
      </trkpt>
      <trkpt lat="45.58605" lon="5.73378">
        <ele>620</ele>
        <time>2019-10-27T13:39:49.000Z</time>
      </trkpt>
      <trkpt lat="45.58604" lon="5.73379">
        <ele>620</ele>
        <time>2019-10-27T13:39:50.000Z</time>
      </trkpt>
      <trkpt lat="45.58603" lon="5.73379">
        <ele>620</ele>
        <time>2019-10-27T13:39:51.000Z</time>
      </trkpt>
      <trkpt lat="45.58601" lon="5.7338">
        <ele>620</ele>
        <time>2019-10-27T13:39:52.000Z</time>
      </trkpt>
      <trkpt lat="45.586" lon="5.7338">
        <ele>620.3</ele>
        <time>2019-10-27T13:39:53.000Z</time>
      </trkpt>
      <trkpt lat="45.58599" lon="5.7338">
        <ele>620.7</ele>
        <time>2019-10-27T13:39:54.000Z</time>
      </trkpt>
      <trkpt lat="45.58598" lon="5.7338">
        <ele>621</ele>
        <time>2019-10-27T13:39:55.000Z</time>
      </trkpt>
      <trkpt lat="45.58597" lon="5.73379">
        <ele>621</ele>
        <time>2019-10-27T13:39:56.000Z</time>
      </trkpt>
      <trkpt lat="45.58596" lon="5.73378">
        <ele>621</ele>
        <time>2019-10-27T13:39:57.000Z</time>
      </trkpt>
      <trkpt lat="45.58595" lon="5.73378">
        <ele>621</ele>
        <time>2019-10-27T13:39:58.000Z</time>
      </trkpt>
      <trkpt lat="45.58594" lon="5.73377">
        <ele>621</ele>
        <time>2019-10-27T13:39:59.000Z</time>
      </trkpt>
      <trkpt lat="45.58594" lon="5.73376">
        <ele>621.5</ele>
        <time>2019-10-27T13:40:00.000Z</time>
      </trkpt>
      <trkpt lat="45.58593" lon="5.73374">
        <ele>622</ele>
        <time>2019-10-27T13:40:01.000Z</time>
      </trkpt>
      <trkpt lat="45.58592" lon="5.73373">
        <ele>622</ele>
        <time>2019-10-27T13:40:02.000Z</time>
      </trkpt>
      <trkpt lat="45.58591" lon="5.73373">
        <ele>622</ele>
        <time>2019-10-27T13:40:03.000Z</time>
      </trkpt>
      <trkpt lat="45.5859" lon="5.73372">
        <ele>622</ele>
        <time>2019-10-27T13:40:04.000Z</time>
      </trkpt>
      <trkpt lat="45.58589" lon="5.73371">
        <ele>622</ele>
        <time>2019-10-27T13:40:05.000Z</time>
      </trkpt>
      <trkpt lat="45.58588" lon="5.7337">
        <ele>623</ele>
        <time>2019-10-27T13:40:06.000Z</time>
      </trkpt>
      <trkpt lat="45.58587" lon="5.73369">
        <ele>623</ele>
        <time>2019-10-27T13:40:07.000Z</time>
      </trkpt>
      <trkpt lat="45.58586" lon="5.73368">
        <ele>623</ele>
        <time>2019-10-27T13:40:08.000Z</time>
      </trkpt>
      <trkpt lat="45.58585" lon="5.73367">
        <ele>623</ele>
        <time>2019-10-27T13:40:09.000Z</time>
      </trkpt>
      <trkpt lat="45.58584" lon="5.73367">
        <ele>623</ele>
        <time>2019-10-27T13:40:10.000Z</time>
      </trkpt>
      <trkpt lat="45.58583" lon="5.73366">
        <ele>623</ele>
        <time>2019-10-27T13:40:11.000Z</time>
      </trkpt>
      <trkpt lat="45.58582" lon="5.73365">
        <ele>623</ele>
        <time>2019-10-27T13:40:12.000Z</time>
      </trkpt>
      <trkpt lat="45.58581" lon="5.73364">
        <ele>623.3</ele>
        <time>2019-10-27T13:40:13.000Z</time>
      </trkpt>
      <trkpt lat="45.5858" lon="5.73363">
        <ele>623.7</ele>
        <time>2019-10-27T13:40:14.000Z</time>
      </trkpt>
      <trkpt lat="45.5858" lon="5.73363">
        <ele>624</ele>
        <time>2019-10-27T13:40:15.000Z</time>
      </trkpt>
      <trkpt lat="45.5858" lon="5.73362">
        <ele>624</ele>
        <time>2019-10-27T13:40:16.000Z</time>
      </trkpt>
      <trkpt lat="45.5858" lon="5.73362">
        <ele>624.3</ele>
        <time>2019-10-27T13:40:17.000Z</time>
      </trkpt>
      <trkpt lat="45.58579" lon="5.73361">
        <ele>624.7</ele>
        <time>2019-10-27T13:40:18.000Z</time>
      </trkpt>
      <trkpt lat="45.58579" lon="5.7336">
        <ele>625</ele>
        <time>2019-10-27T13:40:19.000Z</time>
      </trkpt>
      <trkpt lat="45.58577" lon="5.73357">
        <ele>625</ele>
        <time>2019-10-27T13:40:20.000Z</time>
      </trkpt>
      <trkpt lat="45.58575" lon="5.73355">
        <ele>625.3</ele>
        <time>2019-10-27T13:40:21.000Z</time>
      </trkpt>
      <trkpt lat="45.58574" lon="5.73353">
        <ele>625.7</ele>
        <time>2019-10-27T13:40:22.000Z</time>
      </trkpt>
      <trkpt lat="45.58573" lon="5.73352">
        <ele>626</ele>
        <time>2019-10-27T13:40:23.000Z</time>
      </trkpt>
      <trkpt lat="45.58573" lon="5.73351">
        <ele>626</ele>
        <time>2019-10-27T13:40:24.000Z</time>
      </trkpt>
      <trkpt lat="45.58572" lon="5.73349">
        <ele>626</ele>
        <time>2019-10-27T13:40:25.000Z</time>
      </trkpt>
      <trkpt lat="45.58572" lon="5.73348">
        <ele>626</ele>
        <time>2019-10-27T13:40:26.000Z</time>
      </trkpt>
      <trkpt lat="45.58571" lon="5.73346">
        <ele>626.3</ele>
        <time>2019-10-27T13:40:27.000Z</time>
      </trkpt>
      <trkpt lat="45.58571" lon="5.73345">
        <ele>626.7</ele>
        <time>2019-10-27T13:40:28.000Z</time>
      </trkpt>
      <trkpt lat="45.5857" lon="5.73344">
        <ele>627</ele>
        <time>2019-10-27T13:40:29.000Z</time>
      </trkpt>
      <trkpt lat="45.58569" lon="5.73343">
        <ele>627</ele>
        <time>2019-10-27T13:40:30.000Z</time>
      </trkpt>
      <trkpt lat="45.58568" lon="5.73342">
        <ele>627</ele>
        <time>2019-10-27T13:40:31.000Z</time>
      </trkpt>
      <trkpt lat="45.58567" lon="5.73341">
        <ele>627</ele>
        <time>2019-10-27T13:40:32.000Z</time>
      </trkpt>
      <trkpt lat="45.58566" lon="5.7334">
        <ele>627</ele>
        <time>2019-10-27T13:40:33.000Z</time>
      </trkpt>
      <trkpt lat="45.58565" lon="5.73339">
        <ele>627</ele>
        <time>2019-10-27T13:40:34.000Z</time>
      </trkpt>
      <trkpt lat="45.58564" lon="5.73338">
        <ele>627</ele>
        <time>2019-10-27T13:40:35.000Z</time>
      </trkpt>
      <trkpt lat="45.58563" lon="5.73338">
        <ele>627.5</ele>
        <time>2019-10-27T13:40:36.000Z</time>
      </trkpt>
      <trkpt lat="45.58562" lon="5.73337">
        <ele>628</ele>
        <time>2019-10-27T13:40:37.000Z</time>
      </trkpt>
      <trkpt lat="45.58561" lon="5.73337">
        <ele>628</ele>
        <time>2019-10-27T13:40:38.000Z</time>
      </trkpt>
      <trkpt lat="45.58561" lon="5.73336">
        <ele>628</ele>
        <time>2019-10-27T13:40:39.000Z</time>
      </trkpt>
      <trkpt lat="45.58561" lon="5.73336">
        <ele>628</ele>
        <time>2019-10-27T13:40:40.000Z</time>
      </trkpt>
      <trkpt lat="45.5856" lon="5.73335">
        <ele>628</ele>
        <time>2019-10-27T13:40:41.000Z</time>
      </trkpt>
      <trkpt lat="45.5856" lon="5.73334">
        <ele>629</ele>
        <time>2019-10-27T13:40:42.000Z</time>
      </trkpt>
      <trkpt lat="45.5856" lon="5.73333">
        <ele>629</ele>
        <time>2019-10-27T13:40:43.000Z</time>
      </trkpt>
      <trkpt lat="45.58559" lon="5.73332">
        <ele>629</ele>
        <time>2019-10-27T13:40:44.000Z</time>
      </trkpt>
      <trkpt lat="45.58559" lon="5.7333">
        <ele>629</ele>
        <time>2019-10-27T13:40:45.000Z</time>
      </trkpt>
      <trkpt lat="45.58558" lon="5.73328">
        <ele>629</ele>
        <time>2019-10-27T13:40:46.000Z</time>
      </trkpt>
      <trkpt lat="45.58558" lon="5.73327">
        <ele>629.3</ele>
        <time>2019-10-27T13:40:47.000Z</time>
      </trkpt>
      <trkpt lat="45.58557" lon="5.73325">
        <ele>629.7</ele>
        <time>2019-10-27T13:40:48.000Z</time>
      </trkpt>
      <trkpt lat="45.58557" lon="5.73323">
        <ele>630</ele>
        <time>2019-10-27T13:40:49.000Z</time>
      </trkpt>
      <trkpt lat="45.58556" lon="5.73321">
        <ele>630</ele>
        <time>2019-10-27T13:40:50.000Z</time>
      </trkpt>
      <trkpt lat="45.58556" lon="5.73319">
        <ele>630.3</ele>
        <time>2019-10-27T13:40:51.000Z</time>
      </trkpt>
      <trkpt lat="45.58555" lon="5.73317">
        <ele>630.7</ele>
        <time>2019-10-27T13:40:52.000Z</time>
      </trkpt>
      <trkpt lat="45.58555" lon="5.73316">
        <ele>631</ele>
        <time>2019-10-27T13:40:53.000Z</time>
      </trkpt>
      <trkpt lat="45.58555" lon="5.73315">
        <ele>631</ele>
        <time>2019-10-27T13:40:54.000Z</time>
      </trkpt>
      <trkpt lat="45.58554" lon="5.73314">
        <ele>631.3</ele>
        <time>2019-10-27T13:40:55.000Z</time>
      </trkpt>
      <trkpt lat="45.58554" lon="5.73313">
        <ele>631.7</ele>
        <time>2019-10-27T13:40:56.000Z</time>
      </trkpt>
      <trkpt lat="45.58554" lon="5.73312">
        <ele>632</ele>
        <time>2019-10-27T13:40:57.000Z</time>
      </trkpt>
      <trkpt lat="45.58553" lon="5.73312">
        <ele>632</ele>
        <time>2019-10-27T13:40:58.000Z</time>
      </trkpt>
      <trkpt lat="45.58553" lon="5.73311">
        <ele>632</ele>
        <time>2019-10-27T13:40:59.000Z</time>
      </trkpt>
      <trkpt lat="45.58552" lon="5.7331">
        <ele>632</ele>
        <time>2019-10-27T13:41:00.000Z</time>
      </trkpt>
      <trkpt lat="45.58552" lon="5.73309">
        <ele>632.3</ele>
        <time>2019-10-27T13:41:01.000Z</time>
      </trkpt>
      <trkpt lat="45.58551" lon="5.73307">
        <ele>632.7</ele>
        <time>2019-10-27T13:41:02.000Z</time>
      </trkpt>
      <trkpt lat="45.58551" lon="5.73305">
        <ele>633</ele>
        <time>2019-10-27T13:41:03.000Z</time>
      </trkpt>
      <trkpt lat="45.5855" lon="5.73303">
        <ele>633</ele>
        <time>2019-10-27T13:41:04.000Z</time>
      </trkpt>
      <trkpt lat="45.5855" lon="5.73301">
        <ele>633.3</ele>
        <time>2019-10-27T13:41:05.000Z</time>
      </trkpt>
      <trkpt lat="45.58549" lon="5.733">
        <ele>633.7</ele>
        <time>2019-10-27T13:41:06.000Z</time>
      </trkpt>
      <trkpt lat="45.58549" lon="5.73299">
        <ele>634</ele>
        <time>2019-10-27T13:41:07.000Z</time>
      </trkpt>
      <trkpt lat="45.58549" lon="5.73299">
        <ele>634</ele>
        <time>2019-10-27T13:41:08.000Z</time>
      </trkpt>
      <trkpt lat="45.58549" lon="5.73299">
        <ele>634</ele>
        <time>2019-10-27T13:41:09.000Z</time>
      </trkpt>
      <trkpt lat="45.58549" lon="5.73298">
        <ele>634</ele>
        <time>2019-10-27T13:41:10.000Z</time>
      </trkpt>
      <trkpt lat="45.58549" lon="5.73297">
        <ele>634</ele>
        <time>2019-10-27T13:41:11.000Z</time>
      </trkpt>
      <trkpt lat="45.58548" lon="5.73295">
        <ele>635</ele>
        <time>2019-10-27T13:41:12.000Z</time>
      </trkpt>
      <trkpt lat="45.58548" lon="5.73293">
        <ele>635</ele>
        <time>2019-10-27T13:41:13.000Z</time>
      </trkpt>
      <trkpt lat="45.58547" lon="5.73291">
        <ele>635</ele>
        <time>2019-10-27T13:41:14.000Z</time>
      </trkpt>
      <trkpt lat="45.58546" lon="5.73289">
        <ele>635</ele>
        <time>2019-10-27T13:41:15.000Z</time>
      </trkpt>
      <trkpt lat="45.58545" lon="5.73289">
        <ele>635</ele>
        <time>2019-10-27T13:41:16.000Z</time>
      </trkpt>
      <trkpt lat="45.58544" lon="5.73288">
        <ele>635.3</ele>
        <time>2019-10-27T13:41:17.000Z</time>
      </trkpt>
      <trkpt lat="45.58543" lon="5.73288">
        <ele>635.7</ele>
        <time>2019-10-27T13:41:18.000Z</time>
      </trkpt>
      <trkpt lat="45.58543" lon="5.73288">
        <ele>636</ele>
        <time>2019-10-27T13:41:19.000Z</time>
      </trkpt>
      <trkpt lat="45.58543" lon="5.73287">
        <ele>636</ele>
        <time>2019-10-27T13:41:20.000Z</time>
      </trkpt>
      <trkpt lat="45.58542" lon="5.73286">
        <ele>636</ele>
        <time>2019-10-27T13:41:21.000Z</time>
      </trkpt>
      <trkpt lat="45.58542" lon="5.73284">
        <ele>637</ele>
        <time>2019-10-27T13:41:22.000Z</time>
      </trkpt>
      <trkpt lat="45.58541" lon="5.73282">
        <ele>637</ele>
        <time>2019-10-27T13:41:23.000Z</time>
      </trkpt>
      <trkpt lat="45.5854" lon="5.7328">
        <ele>637</ele>
        <time>2019-10-27T13:41:24.000Z</time>
      </trkpt>
      <trkpt lat="45.5854" lon="5.73279">
        <ele>637</ele>
        <time>2019-10-27T13:41:25.000Z</time>
      </trkpt>
      <trkpt lat="45.58539" lon="5.73277">
        <ele>638</ele>
        <time>2019-10-27T13:41:26.000Z</time>
      </trkpt>
      <trkpt lat="45.58538" lon="5.73276">
        <ele>638</ele>
        <time>2019-10-27T13:41:27.000Z</time>
      </trkpt>
      <trkpt lat="45.58538" lon="5.73275">
        <ele>638</ele>
        <time>2019-10-27T13:41:28.000Z</time>
      </trkpt>
      <trkpt lat="45.58537" lon="5.73274">
        <ele>638</ele>
        <time>2019-10-27T13:41:29.000Z</time>
      </trkpt>
      <trkpt lat="45.58536" lon="5.73273">
        <ele>638</ele>
        <time>2019-10-27T13:41:30.000Z</time>
      </trkpt>
      <trkpt lat="45.58536" lon="5.73272">
        <ele>638.3</ele>
        <time>2019-10-27T13:41:31.000Z</time>
      </trkpt>
      <trkpt lat="45.58535" lon="5.73272">
        <ele>638.7</ele>
        <time>2019-10-27T13:41:32.000Z</time>
      </trkpt>
      <trkpt lat="45.58535" lon="5.73271">
        <ele>639</ele>
        <time>2019-10-27T13:41:33.000Z</time>
      </trkpt>
      <trkpt lat="45.58534" lon="5.7327">
        <ele>639</ele>
        <time>2019-10-27T13:41:34.000Z</time>
      </trkpt>
      <trkpt lat="45.58534" lon="5.7327">
        <ele>639</ele>
        <time>2019-10-27T13:41:35.000Z</time>
      </trkpt>
      <trkpt lat="45.58533" lon="5.73269">
        <ele>639</ele>
        <time>2019-10-27T13:41:36.000Z</time>
      </trkpt>
      <trkpt lat="45.58533" lon="5.73268">
        <ele>639.5</ele>
        <time>2019-10-27T13:41:37.000Z</time>
      </trkpt>
      <trkpt lat="45.58532" lon="5.73267">
        <ele>640</ele>
        <time>2019-10-27T13:41:38.000Z</time>
      </trkpt>
      <trkpt lat="45.58531" lon="5.73266">
        <ele>640</ele>
        <time>2019-10-27T13:41:39.000Z</time>
      </trkpt>
      <trkpt lat="45.58531" lon="5.73265">
        <ele>640</ele>
        <time>2019-10-27T13:41:40.000Z</time>
      </trkpt>
      <trkpt lat="45.58531" lon="5.73265">
        <ele>640</ele>
        <time>2019-10-27T13:41:41.000Z</time>
      </trkpt>
      <trkpt lat="45.5853" lon="5.73264">
        <ele>641</ele>
        <time>2019-10-27T13:41:42.000Z</time>
      </trkpt>
      <trkpt lat="45.5853" lon="5.73263">
        <ele>641</ele>
        <time>2019-10-27T13:41:43.000Z</time>
      </trkpt>
      <trkpt lat="45.58529" lon="5.73262">
        <ele>641</ele>
        <time>2019-10-27T13:41:44.000Z</time>
      </trkpt>
      <trkpt lat="45.58529" lon="5.73261">
        <ele>641</ele>
        <time>2019-10-27T13:41:45.000Z</time>
      </trkpt>
      <trkpt lat="45.58529" lon="5.7326">
        <ele>642</ele>
        <time>2019-10-27T13:41:46.000Z</time>
      </trkpt>
      <trkpt lat="45.58528" lon="5.73259">
        <ele>642</ele>
        <time>2019-10-27T13:41:47.000Z</time>
      </trkpt>
      <trkpt lat="45.58528" lon="5.73258">
        <ele>642</ele>
        <time>2019-10-27T13:41:48.000Z</time>
      </trkpt>
      <trkpt lat="45.58528" lon="5.73258">
        <ele>642</ele>
        <time>2019-10-27T13:41:49.000Z</time>
      </trkpt>
      <trkpt lat="45.58527" lon="5.73257">
        <ele>643</ele>
        <time>2019-10-27T13:41:50.000Z</time>
      </trkpt>
      <trkpt lat="45.58527" lon="5.73256">
        <ele>643</ele>
        <time>2019-10-27T13:41:51.000Z</time>
      </trkpt>
      <trkpt lat="45.58527" lon="5.73255">
        <ele>643</ele>
        <time>2019-10-27T13:41:52.000Z</time>
      </trkpt>
      <trkpt lat="45.58526" lon="5.73253">
        <ele>643</ele>
        <time>2019-10-27T13:41:53.000Z</time>
      </trkpt>
      <trkpt lat="45.58526" lon="5.73252">
        <ele>643</ele>
        <time>2019-10-27T13:41:54.000Z</time>
      </trkpt>
      <trkpt lat="45.58525" lon="5.73251">
        <ele>643.5</ele>
        <time>2019-10-27T13:41:55.000Z</time>
      </trkpt>
      <trkpt lat="45.58524" lon="5.73249">
        <ele>644</ele>
        <time>2019-10-27T13:41:56.000Z</time>
      </trkpt>
      <trkpt lat="45.58524" lon="5.73248">
        <ele>644</ele>
        <time>2019-10-27T13:41:57.000Z</time>
      </trkpt>
      <trkpt lat="45.58523" lon="5.73248">
        <ele>644</ele>
        <time>2019-10-27T13:41:58.000Z</time>
      </trkpt>
      <trkpt lat="45.58523" lon="5.73247">
        <ele>644</ele>
        <time>2019-10-27T13:41:59.000Z</time>
      </trkpt>
      <trkpt lat="45.58523" lon="5.73247">
        <ele>644</ele>
        <time>2019-10-27T13:42:00.000Z</time>
      </trkpt>
      <trkpt lat="45.58523" lon="5.73247">
        <ele>644.3</ele>
        <time>2019-10-27T13:42:01.000Z</time>
      </trkpt>
      <trkpt lat="45.58523" lon="5.73247">
        <ele>644.7</ele>
        <time>2019-10-27T13:42:02.000Z</time>
      </trkpt>
      <trkpt lat="45.58523" lon="5.73247">
        <ele>645</ele>
        <time>2019-10-27T13:42:03.000Z</time>
      </trkpt>
      <trkpt lat="45.58523" lon="5.73247">
        <ele>645</ele>
        <time>2019-10-27T13:42:04.000Z</time>
      </trkpt>
      <trkpt lat="45.58523" lon="5.73247">
        <ele>645.3</ele>
        <time>2019-10-27T13:42:05.000Z</time>
      </trkpt>
      <trkpt lat="45.58523" lon="5.73247">
        <ele>645.7</ele>
        <time>2019-10-27T13:42:06.000Z</time>
      </trkpt>
      <trkpt lat="45.58521" lon="5.73245">
        <ele>646</ele>
        <time>2019-10-27T13:42:07.000Z</time>
      </trkpt>
      <trkpt lat="45.58518" lon="5.7324">
        <ele>646</ele>
        <time>2019-10-27T13:42:08.000Z</time>
      </trkpt>
      <trkpt lat="45.58516" lon="5.73235">
        <ele>647</ele>
        <time>2019-10-27T13:42:09.000Z</time>
      </trkpt>
      <trkpt lat="45.58515" lon="5.73232">
        <ele>647</ele>
        <time>2019-10-27T13:42:10.000Z</time>
      </trkpt>
      <trkpt lat="45.58515" lon="5.73229">
        <ele>647</ele>
        <time>2019-10-27T13:42:11.000Z</time>
      </trkpt>
      <trkpt lat="45.58514" lon="5.73227">
        <ele>647</ele>
        <time>2019-10-27T13:42:12.000Z</time>
      </trkpt>
      <trkpt lat="45.58512" lon="5.73224">
        <ele>647</ele>
        <time>2019-10-27T13:42:13.000Z</time>
      </trkpt>
      <trkpt lat="45.5851" lon="5.73221">
        <ele>648</ele>
        <time>2019-10-27T13:42:14.000Z</time>
      </trkpt>
      <trkpt lat="45.58508" lon="5.73219">
        <ele>648</ele>
        <time>2019-10-27T13:42:15.000Z</time>
      </trkpt>
      <trkpt lat="45.58506" lon="5.73217">
        <ele>648</ele>
        <time>2019-10-27T13:42:16.000Z</time>
      </trkpt>
      <trkpt lat="45.58505" lon="5.73216">
        <ele>648</ele>
        <time>2019-10-27T13:42:17.000Z</time>
      </trkpt>
      <trkpt lat="45.58505" lon="5.73215">
        <ele>648</ele>
        <time>2019-10-27T13:42:18.000Z</time>
      </trkpt>
      <trkpt lat="45.58505" lon="5.73215">
        <ele>648.5</ele>
        <time>2019-10-27T13:42:19.000Z</time>
      </trkpt>
      <trkpt lat="45.58504" lon="5.73214">
        <ele>649</ele>
        <time>2019-10-27T13:42:20.000Z</time>
      </trkpt>
      <trkpt lat="45.58504" lon="5.73213">
        <ele>649</ele>
        <time>2019-10-27T13:42:21.000Z</time>
      </trkpt>
      <trkpt lat="45.58503" lon="5.73213">
        <ele>649</ele>
        <time>2019-10-27T13:42:22.000Z</time>
      </trkpt>
      <trkpt lat="45.58502" lon="5.73212">
        <ele>649</ele>
        <time>2019-10-27T13:42:23.000Z</time>
      </trkpt>
      <trkpt lat="45.58502" lon="5.73212">
        <ele>649</ele>
        <time>2019-10-27T13:42:24.000Z</time>
      </trkpt>
      <trkpt lat="45.58501" lon="5.73211">
        <ele>649</ele>
        <time>2019-10-27T13:42:25.000Z</time>
      </trkpt>
      <trkpt lat="45.585" lon="5.73211">
        <ele>649</ele>
        <time>2019-10-27T13:42:26.000Z</time>
      </trkpt>
      <trkpt lat="45.58499" lon="5.7321">
        <ele>649.5</ele>
        <time>2019-10-27T13:42:27.000Z</time>
      </trkpt>
      <trkpt lat="45.58498" lon="5.7321">
        <ele>650</ele>
        <time>2019-10-27T13:42:28.000Z</time>
      </trkpt>
      <trkpt lat="45.58497" lon="5.73209">
        <ele>650</ele>
        <time>2019-10-27T13:42:29.000Z</time>
      </trkpt>
      <trkpt lat="45.58497" lon="5.73209">
        <ele>650</ele>
        <time>2019-10-27T13:42:30.000Z</time>
      </trkpt>
      <trkpt lat="45.58496" lon="5.73208">
        <ele>650</ele>
        <time>2019-10-27T13:42:31.000Z</time>
      </trkpt>
      <trkpt lat="45.58495" lon="5.73208">
        <ele>650</ele>
        <time>2019-10-27T13:42:32.000Z</time>
      </trkpt>
      <trkpt lat="45.58494" lon="5.73207">
        <ele>650</ele>
        <time>2019-10-27T13:42:33.000Z</time>
      </trkpt>
      <trkpt lat="45.58494" lon="5.73207">
        <ele>650</ele>
        <time>2019-10-27T13:42:34.000Z</time>
      </trkpt>
      <trkpt lat="45.58493" lon="5.73206">
        <ele>650</ele>
        <time>2019-10-27T13:42:35.000Z</time>
      </trkpt>
      <trkpt lat="45.58492" lon="5.73206">
        <ele>651</ele>
        <time>2019-10-27T13:42:36.000Z</time>
      </trkpt>
      <trkpt lat="45.58492" lon="5.73205">
        <ele>651</ele>
        <time>2019-10-27T13:42:37.000Z</time>
      </trkpt>
      <trkpt lat="45.58491" lon="5.73204">
        <ele>651</ele>
        <time>2019-10-27T13:42:38.000Z</time>
      </trkpt>
      <trkpt lat="45.58491" lon="5.73204">
        <ele>651</ele>
        <time>2019-10-27T13:42:39.000Z</time>
      </trkpt>
      <trkpt lat="45.5849" lon="5.73203">
        <ele>651</ele>
        <time>2019-10-27T13:42:40.000Z</time>
      </trkpt>
      <trkpt lat="45.5849" lon="5.73202">
        <ele>651</ele>
        <time>2019-10-27T13:42:41.000Z</time>
      </trkpt>
      <trkpt lat="45.58489" lon="5.73202">
        <ele>651</ele>
        <time>2019-10-27T13:42:42.000Z</time>
      </trkpt>
      <trkpt lat="45.58489" lon="5.73201">
        <ele>651</ele>
        <time>2019-10-27T13:42:43.000Z</time>
      </trkpt>
      <trkpt lat="45.58488" lon="5.73201">
        <ele>651</ele>
        <time>2019-10-27T13:42:44.000Z</time>
      </trkpt>
      <trkpt lat="45.58488" lon="5.732">
        <ele>651</ele>
        <time>2019-10-27T13:42:45.000Z</time>
      </trkpt>
      <trkpt lat="45.58488" lon="5.732">
        <ele>651</ele>
        <time>2019-10-27T13:42:46.000Z</time>
      </trkpt>
      <trkpt lat="45.58488" lon="5.732">
        <ele>651</ele>
        <time>2019-10-27T13:42:47.000Z</time>
      </trkpt>
      <trkpt lat="45.58488" lon="5.73199">
        <ele>651</ele>
        <time>2019-10-27T13:42:48.000Z</time>
      </trkpt>
      <trkpt lat="45.58488" lon="5.73199">
        <ele>651</ele>
        <time>2019-10-27T13:42:49.000Z</time>
      </trkpt>
      <trkpt lat="45.58487" lon="5.73199">
        <ele>651</ele>
        <time>2019-10-27T13:42:50.000Z</time>
      </trkpt>
      <trkpt lat="45.58487" lon="5.73199">
        <ele>651</ele>
        <time>2019-10-27T13:42:51.000Z</time>
      </trkpt>
      <trkpt lat="45.58487" lon="5.73199">
        <ele>651</ele>
        <time>2019-10-27T13:42:52.000Z</time>
      </trkpt>
      <trkpt lat="45.58487" lon="5.73199">
        <ele>651</ele>
        <time>2019-10-27T13:42:53.000Z</time>
      </trkpt>
      <trkpt lat="45.58487" lon="5.73198">
        <ele>651</ele>
        <time>2019-10-27T13:42:54.000Z</time>
      </trkpt>
      <trkpt lat="45.58487" lon="5.73198">
        <ele>651</ele>
        <time>2019-10-27T13:42:55.000Z</time>
      </trkpt>
      <trkpt lat="45.58487" lon="5.73198">
        <ele>651</ele>
        <time>2019-10-27T13:42:56.000Z</time>
      </trkpt>
      <trkpt lat="45.58487" lon="5.73197">
        <ele>651</ele>
        <time>2019-10-27T13:42:57.000Z</time>
      </trkpt>
      <trkpt lat="45.58486" lon="5.73197">
        <ele>651</ele>
        <time>2019-10-27T13:42:58.000Z</time>
      </trkpt>
      <trkpt lat="45.58486" lon="5.73196">
        <ele>651</ele>
        <time>2019-10-27T13:42:59.000Z</time>
      </trkpt>
      <trkpt lat="45.58486" lon="5.73196">
        <ele>651</ele>
        <time>2019-10-27T13:43:00.000Z</time>
      </trkpt>
      <trkpt lat="45.58485" lon="5.73195">
        <ele>651</ele>
        <time>2019-10-27T13:43:01.000Z</time>
      </trkpt>
      <trkpt lat="45.58485" lon="5.73195">
        <ele>651</ele>
        <time>2019-10-27T13:43:02.000Z</time>
      </trkpt>
      <trkpt lat="45.58485" lon="5.73195">
        <ele>651</ele>
        <time>2019-10-27T13:43:03.000Z</time>
      </trkpt>
      <trkpt lat="45.58484" lon="5.73194">
        <ele>651</ele>
        <time>2019-10-27T13:43:04.000Z</time>
      </trkpt>
      <trkpt lat="45.58483" lon="5.73194">
        <ele>651.3</ele>
        <time>2019-10-27T13:43:05.000Z</time>
      </trkpt>
      <trkpt lat="45.58483" lon="5.73194">
        <ele>651.7</ele>
        <time>2019-10-27T13:43:06.000Z</time>
      </trkpt>
      <trkpt lat="45.58482" lon="5.73194">
        <ele>652</ele>
        <time>2019-10-27T13:43:07.000Z</time>
      </trkpt>
      <trkpt lat="45.58482" lon="5.73194">
        <ele>652</ele>
        <time>2019-10-27T13:43:08.000Z</time>
      </trkpt>
      <trkpt lat="45.58481" lon="5.73194">
        <ele>652</ele>
        <time>2019-10-27T13:43:09.000Z</time>
      </trkpt>
      <trkpt lat="45.5848" lon="5.73194">
        <ele>652</ele>
        <time>2019-10-27T13:43:10.000Z</time>
      </trkpt>
      <trkpt lat="45.5848" lon="5.73194">
        <ele>652</ele>
        <time>2019-10-27T13:43:11.000Z</time>
      </trkpt>
      <trkpt lat="45.58479" lon="5.73194">
        <ele>652</ele>
        <time>2019-10-27T13:43:12.000Z</time>
      </trkpt>
      <trkpt lat="45.58478" lon="5.73194">
        <ele>652</ele>
        <time>2019-10-27T13:43:13.000Z</time>
      </trkpt>
      <trkpt lat="45.58478" lon="5.73194">
        <ele>652</ele>
        <time>2019-10-27T13:43:14.000Z</time>
      </trkpt>
      <trkpt lat="45.58477" lon="5.73194">
        <ele>652</ele>
        <time>2019-10-27T13:43:15.000Z</time>
      </trkpt>
      <trkpt lat="45.58476" lon="5.73194">
        <ele>653</ele>
        <time>2019-10-27T13:43:16.000Z</time>
      </trkpt>
      <trkpt lat="45.58476" lon="5.73193">
        <ele>653</ele>
        <time>2019-10-27T13:43:17.000Z</time>
      </trkpt>
      <trkpt lat="45.58475" lon="5.73193">
        <ele>653</ele>
        <time>2019-10-27T13:43:18.000Z</time>
      </trkpt>
      <trkpt lat="45.58474" lon="5.73192">
        <ele>653</ele>
        <time>2019-10-27T13:43:19.000Z</time>
      </trkpt>
      <trkpt lat="45.58474" lon="5.73192">
        <ele>653</ele>
        <time>2019-10-27T13:43:20.000Z</time>
      </trkpt>
      <trkpt lat="45.58473" lon="5.73191">
        <ele>653</ele>
        <time>2019-10-27T13:43:21.000Z</time>
      </trkpt>
      <trkpt lat="45.58473" lon="5.7319">
        <ele>653</ele>
        <time>2019-10-27T13:43:22.000Z</time>
      </trkpt>
      <trkpt lat="45.58472" lon="5.7319">
        <ele>653</ele>
        <time>2019-10-27T13:43:23.000Z</time>
      </trkpt>
      <trkpt lat="45.58472" lon="5.73189">
        <ele>653</ele>
        <time>2019-10-27T13:43:24.000Z</time>
      </trkpt>
      <trkpt lat="45.58472" lon="5.73189">
        <ele>653</ele>
        <time>2019-10-27T13:43:25.000Z</time>
      </trkpt>
      <trkpt lat="45.58472" lon="5.73189">
        <ele>653</ele>
        <time>2019-10-27T13:43:26.000Z</time>
      </trkpt>
      <trkpt lat="45.58472" lon="5.73189">
        <ele>653</ele>
        <time>2019-10-27T13:43:27.000Z</time>
      </trkpt>
      <trkpt lat="45.58472" lon="5.73189">
        <ele>653</ele>
        <time>2019-10-27T13:43:28.000Z</time>
      </trkpt>
      <trkpt lat="45.58472" lon="5.73189">
        <ele>653</ele>
        <time>2019-10-27T13:43:29.000Z</time>
      </trkpt>
      <trkpt lat="45.58472" lon="5.73188">
        <ele>653</ele>
        <time>2019-10-27T13:43:30.000Z</time>
      </trkpt>
      <trkpt lat="45.58471" lon="5.73187">
        <ele>653</ele>
        <time>2019-10-27T13:43:31.000Z</time>
      </trkpt>
      <trkpt lat="45.58471" lon="5.73186">
        <ele>653</ele>
        <time>2019-10-27T13:43:32.000Z</time>
      </trkpt>
      <trkpt lat="45.5847" lon="5.73184">
        <ele>653</ele>
        <time>2019-10-27T13:43:33.000Z</time>
      </trkpt>
      <trkpt lat="45.58469" lon="5.73182">
        <ele>653</ele>
        <time>2019-10-27T13:43:34.000Z</time>
      </trkpt>
      <trkpt lat="45.58468" lon="5.7318">
        <ele>653</ele>
        <time>2019-10-27T13:43:35.000Z</time>
      </trkpt>
      <trkpt lat="45.58468" lon="5.7318">
        <ele>653</ele>
        <time>2019-10-27T13:43:36.000Z</time>
      </trkpt>
      <trkpt lat="45.58468" lon="5.73179">
        <ele>653</ele>
        <time>2019-10-27T13:43:37.000Z</time>
      </trkpt>
      <trkpt lat="45.58467" lon="5.73179">
        <ele>653</ele>
        <time>2019-10-27T13:43:38.000Z</time>
      </trkpt>
      <trkpt lat="45.58467" lon="5.73179">
        <ele>653</ele>
        <time>2019-10-27T13:43:39.000Z</time>
      </trkpt>
      <trkpt lat="45.58467" lon="5.73178">
        <ele>653</ele>
        <time>2019-10-27T13:43:40.000Z</time>
      </trkpt>
      <trkpt lat="45.58467" lon="5.73178">
        <ele>653</ele>
        <time>2019-10-27T13:43:41.000Z</time>
      </trkpt>
      <trkpt lat="45.58467" lon="5.73179">
        <ele>653</ele>
        <time>2019-10-27T13:43:42.000Z</time>
      </trkpt>
      <trkpt lat="45.58467" lon="5.73179">
        <ele>653</ele>
        <time>2019-10-27T13:43:43.000Z</time>
      </trkpt>
      <trkpt lat="45.58467" lon="5.73179">
        <ele>653</ele>
        <time>2019-10-27T13:43:44.000Z</time>
      </trkpt>
      <trkpt lat="45.58467" lon="5.73179">
        <ele>653</ele>
        <time>2019-10-27T13:43:45.000Z</time>
      </trkpt>
      <trkpt lat="45.58467" lon="5.73179">
        <ele>653</ele>
        <time>2019-10-27T13:43:46.000Z</time>
      </trkpt>
      <trkpt lat="45.58467" lon="5.7318">
        <ele>653</ele>
        <time>2019-10-27T13:43:47.000Z</time>
      </trkpt>
      <trkpt lat="45.58467" lon="5.7318">
        <ele>653</ele>
        <time>2019-10-27T13:43:48.000Z</time>
      </trkpt>
      <trkpt lat="45.58467" lon="5.7318">
        <ele>653</ele>
        <time>2019-10-27T13:43:49.000Z</time>
      </trkpt>
      <trkpt lat="45.58467" lon="5.7318">
        <ele>653</ele>
        <time>2019-10-27T13:43:50.000Z</time>
      </trkpt>
      <trkpt lat="45.58467" lon="5.73181">
        <ele>653</ele>
        <time>2019-10-27T13:43:51.000Z</time>
      </trkpt>
      <trkpt lat="45.58467" lon="5.73181">
        <ele>653</ele>
        <time>2019-10-27T13:43:52.000Z</time>
      </trkpt>
      <trkpt lat="45.58467" lon="5.73181">
        <ele>653</ele>
        <time>2019-10-27T13:43:53.000Z</time>
      </trkpt>
      <trkpt lat="45.58467" lon="5.73181">
        <ele>653</ele>
        <time>2019-10-27T13:43:54.000Z</time>
      </trkpt>
      <trkpt lat="45.58467" lon="5.73181">
        <ele>653</ele>
        <time>2019-10-27T13:43:55.000Z</time>
      </trkpt>
      <trkpt lat="45.58467" lon="5.73181">
        <ele>653</ele>
        <time>2019-10-27T13:43:56.000Z</time>
      </trkpt>
      <trkpt lat="45.58467" lon="5.73181">
        <ele>653</ele>
        <time>2019-10-27T13:43:57.000Z</time>
      </trkpt>
      <trkpt lat="45.58467" lon="5.73181">
        <ele>653</ele>
        <time>2019-10-27T13:43:58.000Z</time>
      </trkpt>
      <trkpt lat="45.58467" lon="5.73181">
        <ele>653</ele>
        <time>2019-10-27T13:43:59.000Z</time>
      </trkpt>
      <trkpt lat="45.58467" lon="5.73181">
        <ele>653</ele>
        <time>2019-10-27T13:44:00.000Z</time>
      </trkpt>
      <trkpt lat="45.58467" lon="5.73181">
        <ele>653</ele>
        <time>2019-10-27T13:44:01.000Z</time>
      </trkpt>
      <trkpt lat="45.58467" lon="5.73181">
        <ele>653</ele>
        <time>2019-10-27T13:44:02.000Z</time>
      </trkpt>
      <trkpt lat="45.58466" lon="5.73181">
        <ele>653</ele>
        <time>2019-10-27T13:44:03.000Z</time>
      </trkpt>
      <trkpt lat="45.58466" lon="5.73181">
        <ele>653</ele>
        <time>2019-10-27T13:44:04.000Z</time>
      </trkpt>
      <trkpt lat="45.58466" lon="5.73182">
        <ele>653</ele>
        <time>2019-10-27T13:44:05.000Z</time>
      </trkpt>
      <trkpt lat="45.58466" lon="5.73182">
        <ele>653</ele>
        <time>2019-10-27T13:44:06.000Z</time>
      </trkpt>
      <trkpt lat="45.58467" lon="5.73182">
        <ele>653</ele>
        <time>2019-10-27T13:44:07.000Z</time>
      </trkpt>
      <trkpt lat="45.58467" lon="5.73182">
        <ele>653</ele>
        <time>2019-10-27T13:44:08.000Z</time>
      </trkpt>
      <trkpt lat="45.58467" lon="5.73183">
        <ele>653</ele>
        <time>2019-10-27T13:44:09.000Z</time>
      </trkpt>
      <trkpt lat="45.58467" lon="5.73183">
        <ele>653</ele>
        <time>2019-10-27T13:44:10.000Z</time>
      </trkpt>
      <trkpt lat="45.58468" lon="5.73184">
        <ele>653</ele>
        <time>2019-10-27T13:44:11.000Z</time>
      </trkpt>
      <trkpt lat="45.58468" lon="5.73184">
        <ele>653</ele>
        <time>2019-10-27T13:44:12.000Z</time>
      </trkpt>
      <trkpt lat="45.58468" lon="5.73184">
        <ele>653</ele>
        <time>2019-10-27T13:44:13.000Z</time>
      </trkpt>
      <trkpt lat="45.58468" lon="5.73185">
        <ele>653</ele>
        <time>2019-10-27T13:44:14.000Z</time>
      </trkpt>
      <trkpt lat="45.58468" lon="5.73185">
        <ele>653</ele>
        <time>2019-10-27T13:44:15.000Z</time>
      </trkpt>
      <trkpt lat="45.58468" lon="5.73185">
        <ele>653</ele>
        <time>2019-10-27T13:44:16.000Z</time>
      </trkpt>
      <trkpt lat="45.58468" lon="5.73185">
        <ele>653</ele>
        <time>2019-10-27T13:44:17.000Z</time>
      </trkpt>
      <trkpt lat="45.58468" lon="5.73185">
        <ele>653</ele>
        <time>2019-10-27T13:44:18.000Z</time>
      </trkpt>
      <trkpt lat="45.58468" lon="5.73185">
        <ele>653</ele>
        <time>2019-10-27T13:44:19.000Z</time>
      </trkpt>
      <trkpt lat="45.58468" lon="5.73185">
        <ele>653</ele>
        <time>2019-10-27T13:44:20.000Z</time>
      </trkpt>
      <trkpt lat="45.58468" lon="5.73185">
        <ele>653</ele>
        <time>2019-10-27T13:44:21.000Z</time>
      </trkpt>
      <trkpt lat="45.58468" lon="5.73185">
        <ele>653</ele>
        <time>2019-10-27T13:44:22.000Z</time>
      </trkpt>
      <trkpt lat="45.58468" lon="5.73184">
        <ele>653</ele>
        <time>2019-10-27T13:44:23.000Z</time>
      </trkpt>
      <trkpt lat="45.58467" lon="5.73185">
        <ele>653</ele>
        <time>2019-10-27T13:44:24.000Z</time>
      </trkpt>
      <trkpt lat="45.58467" lon="5.73185">
        <ele>653</ele>
        <time>2019-10-27T13:44:25.000Z</time>
      </trkpt>
      <trkpt lat="45.58466" lon="5.73185">
        <ele>653</ele>
        <time>2019-10-27T13:44:26.000Z</time>
      </trkpt>
      <trkpt lat="45.58465" lon="5.73185">
        <ele>653</ele>
        <time>2019-10-27T13:44:27.000Z</time>
      </trkpt>
      <trkpt lat="45.58464" lon="5.73185">
        <ele>653</ele>
        <time>2019-10-27T13:44:28.000Z</time>
      </trkpt>
      <trkpt lat="45.58462" lon="5.73184">
        <ele>654</ele>
        <time>2019-10-27T13:44:29.000Z</time>
      </trkpt>
      <trkpt lat="45.5846" lon="5.73182">
        <ele>654.5</ele>
        <time>2019-10-27T13:44:30.000Z</time>
      </trkpt>
      <trkpt lat="45.58458" lon="5.73179">
        <ele>655</ele>
        <time>2019-10-27T13:44:31.000Z</time>
      </trkpt>
      <trkpt lat="45.58456" lon="5.73177">
        <ele>655</ele>
        <time>2019-10-27T13:44:32.000Z</time>
      </trkpt>
      <trkpt lat="45.58454" lon="5.73175">
        <ele>655</ele>
        <time>2019-10-27T13:44:33.000Z</time>
      </trkpt>
      <trkpt lat="45.58451" lon="5.73173">
        <ele>655</ele>
        <time>2019-10-27T13:44:34.000Z</time>
      </trkpt>
      <trkpt lat="45.5845" lon="5.73173">
        <ele>655</ele>
        <time>2019-10-27T13:44:35.000Z</time>
      </trkpt>
      <trkpt lat="45.58449" lon="5.73173">
        <ele>655.3</ele>
        <time>2019-10-27T13:44:36.000Z</time>
      </trkpt>
      <trkpt lat="45.58448" lon="5.73174">
        <ele>655.7</ele>
        <time>2019-10-27T13:44:37.000Z</time>
      </trkpt>
      <trkpt lat="45.58448" lon="5.73175">
        <ele>656</ele>
        <time>2019-10-27T13:44:38.000Z</time>
      </trkpt>
      <trkpt lat="45.58448" lon="5.73175">
        <ele>656</ele>
        <time>2019-10-27T13:44:39.000Z</time>
      </trkpt>
      <trkpt lat="45.58448" lon="5.73175">
        <ele>656</ele>
        <time>2019-10-27T13:44:40.000Z</time>
      </trkpt>
      <trkpt lat="45.58448" lon="5.73176">
        <ele>656</ele>
        <time>2019-10-27T13:44:41.000Z</time>
      </trkpt>
      <trkpt lat="45.58447" lon="5.73176">
        <ele>656</ele>
        <time>2019-10-27T13:44:42.000Z</time>
      </trkpt>
      <trkpt lat="45.58447" lon="5.73176">
        <ele>656</ele>
        <time>2019-10-27T13:44:43.000Z</time>
      </trkpt>
      <trkpt lat="45.58447" lon="5.73176">
        <ele>656</ele>
        <time>2019-10-27T13:44:44.000Z</time>
      </trkpt>
      <trkpt lat="45.58447" lon="5.73176">
        <ele>656</ele>
        <time>2019-10-27T13:44:45.000Z</time>
      </trkpt>
      <trkpt lat="45.58447" lon="5.73176">
        <ele>656</ele>
        <time>2019-10-27T13:44:46.000Z</time>
      </trkpt>
      <trkpt lat="45.58447" lon="5.73176">
        <ele>656</ele>
        <time>2019-10-27T13:44:47.000Z</time>
      </trkpt>
      <trkpt lat="45.58447" lon="5.73176">
        <ele>656</ele>
        <time>2019-10-27T13:44:48.000Z</time>
      </trkpt>
      <trkpt lat="45.58447" lon="5.73176">
        <ele>656</ele>
        <time>2019-10-27T13:44:49.000Z</time>
      </trkpt>
      <trkpt lat="45.58447" lon="5.73176">
        <ele>656</ele>
        <time>2019-10-27T13:44:50.000Z</time>
      </trkpt>
      <trkpt lat="45.58447" lon="5.73176">
        <ele>656</ele>
        <time>2019-10-27T13:44:51.000Z</time>
      </trkpt>
      <trkpt lat="45.58447" lon="5.73176">
        <ele>656</ele>
        <time>2019-10-27T13:44:52.000Z</time>
      </trkpt>
      <trkpt lat="45.58447" lon="5.73176">
        <ele>656</ele>
        <time>2019-10-27T13:44:53.000Z</time>
      </trkpt>
      <trkpt lat="45.58447" lon="5.73176">
        <ele>656</ele>
        <time>2019-10-27T13:44:54.000Z</time>
      </trkpt>
      <trkpt lat="45.58447" lon="5.73176">
        <ele>656</ele>
        <time>2019-10-27T13:44:55.000Z</time>
      </trkpt>
      <trkpt lat="45.58447" lon="5.73176">
        <ele>656</ele>
        <time>2019-10-27T13:44:56.000Z</time>
      </trkpt>
      <trkpt lat="45.58447" lon="5.73176">
        <ele>656</ele>
        <time>2019-10-27T13:44:57.000Z</time>
      </trkpt>
      <trkpt lat="45.58447" lon="5.73176">
        <ele>656</ele>
        <time>2019-10-27T13:44:58.000Z</time>
      </trkpt>
      <trkpt lat="45.58447" lon="5.73176">
        <ele>656</ele>
        <time>2019-10-27T13:44:59.000Z</time>
      </trkpt>
      <trkpt lat="45.58447" lon="5.73175">
        <ele>656</ele>
        <time>2019-10-27T13:45:00.000Z</time>
      </trkpt>
      <trkpt lat="45.58447" lon="5.73175">
        <ele>656</ele>
        <time>2019-10-27T13:45:01.000Z</time>
      </trkpt>
      <trkpt lat="45.58447" lon="5.73175">
        <ele>656</ele>
        <time>2019-10-27T13:45:02.000Z</time>
      </trkpt>
      <trkpt lat="45.58447" lon="5.73175">
        <ele>656</ele>
        <time>2019-10-27T13:45:03.000Z</time>
      </trkpt>
      <trkpt lat="45.58447" lon="5.73175">
        <ele>656</ele>
        <time>2019-10-27T13:45:04.000Z</time>
      </trkpt>
      <trkpt lat="45.58446" lon="5.73175">
        <ele>656</ele>
        <time>2019-10-27T13:45:05.000Z</time>
      </trkpt>
      <trkpt lat="45.58446" lon="5.73175">
        <ele>656</ele>
        <time>2019-10-27T13:45:06.000Z</time>
      </trkpt>
      <trkpt lat="45.58445" lon="5.73175">
        <ele>656</ele>
        <time>2019-10-27T13:45:07.000Z</time>
      </trkpt>
      <trkpt lat="45.58444" lon="5.73175">
        <ele>656</ele>
        <time>2019-10-27T13:45:08.000Z</time>
      </trkpt>
      <trkpt lat="45.58442" lon="5.73175">
        <ele>656</ele>
        <time>2019-10-27T13:45:09.000Z</time>
      </trkpt>
      <trkpt lat="45.58442" lon="5.73175">
        <ele>656</ele>
        <time>2019-10-27T13:45:10.000Z</time>
      </trkpt>
      <trkpt lat="45.58441" lon="5.73175">
        <ele>656</ele>
        <time>2019-10-27T13:45:11.000Z</time>
      </trkpt>
      <trkpt lat="45.5844" lon="5.73175">
        <ele>656</ele>
        <time>2019-10-27T13:45:12.000Z</time>
      </trkpt>
      <trkpt lat="45.58439" lon="5.73175">
        <ele>656</ele>
        <time>2019-10-27T13:45:13.000Z</time>
      </trkpt>
      <trkpt lat="45.58438" lon="5.73175">
        <ele>656</ele>
        <time>2019-10-27T13:45:14.000Z</time>
      </trkpt>
      <trkpt lat="45.58437" lon="5.73175">
        <ele>656</ele>
        <time>2019-10-27T13:45:15.000Z</time>
      </trkpt>
      <trkpt lat="45.58436" lon="5.73175">
        <ele>656</ele>
        <time>2019-10-27T13:45:16.000Z</time>
      </trkpt>
      <trkpt lat="45.58434" lon="5.73175">
        <ele>655</ele>
        <time>2019-10-27T13:45:17.000Z</time>
      </trkpt>
      <trkpt lat="45.58433" lon="5.73175">
        <ele>655</ele>
        <time>2019-10-27T13:45:18.000Z</time>
      </trkpt>
      <trkpt lat="45.58432" lon="5.73176">
        <ele>655</ele>
        <time>2019-10-27T13:45:19.000Z</time>
      </trkpt>
      <trkpt lat="45.58432" lon="5.73176">
        <ele>655</ele>
        <time>2019-10-27T13:45:20.000Z</time>
      </trkpt>
      <trkpt lat="45.58431" lon="5.73176">
        <ele>655</ele>
        <time>2019-10-27T13:45:21.000Z</time>
      </trkpt>
      <trkpt lat="45.58431" lon="5.73176">
        <ele>655</ele>
        <time>2019-10-27T13:45:22.000Z</time>
      </trkpt>
      <trkpt lat="45.5843" lon="5.73177">
        <ele>654.5</ele>
        <time>2019-10-27T13:45:23.000Z</time>
      </trkpt>
      <trkpt lat="45.58429" lon="5.73177">
        <ele>654</ele>
        <time>2019-10-27T13:45:24.000Z</time>
      </trkpt>
      <trkpt lat="45.58428" lon="5.73178">
        <ele>654</ele>
        <time>2019-10-27T13:45:25.000Z</time>
      </trkpt>
      <trkpt lat="45.58426" lon="5.73179">
        <ele>654</ele>
        <time>2019-10-27T13:45:26.000Z</time>
      </trkpt>
      <trkpt lat="45.58424" lon="5.7318">
        <ele>654</ele>
        <time>2019-10-27T13:45:27.000Z</time>
      </trkpt>
      <trkpt lat="45.58423" lon="5.73181">
        <ele>654</ele>
        <time>2019-10-27T13:45:28.000Z</time>
      </trkpt>
      <trkpt lat="45.58421" lon="5.73182">
        <ele>654</ele>
        <time>2019-10-27T13:45:29.000Z</time>
      </trkpt>
      <trkpt lat="45.5842" lon="5.73182">
        <ele>654</ele>
        <time>2019-10-27T13:45:30.000Z</time>
      </trkpt>
      <trkpt lat="45.58419" lon="5.73183">
        <ele>653.5</ele>
        <time>2019-10-27T13:45:31.000Z</time>
      </trkpt>
      <trkpt lat="45.58418" lon="5.73183">
        <ele>653</ele>
        <time>2019-10-27T13:45:32.000Z</time>
      </trkpt>
      <trkpt lat="45.58418" lon="5.73183">
        <ele>653</ele>
        <time>2019-10-27T13:45:33.000Z</time>
      </trkpt>
      <trkpt lat="45.58417" lon="5.73184">
        <ele>652.7</ele>
        <time>2019-10-27T13:45:34.000Z</time>
      </trkpt>
      <trkpt lat="45.58417" lon="5.73184">
        <ele>652.3</ele>
        <time>2019-10-27T13:45:35.000Z</time>
      </trkpt>
      <trkpt lat="45.58416" lon="5.73184">
        <ele>652</ele>
        <time>2019-10-27T13:45:36.000Z</time>
      </trkpt>
      <trkpt lat="45.58415" lon="5.73185">
        <ele>652</ele>
        <time>2019-10-27T13:45:37.000Z</time>
      </trkpt>
      <trkpt lat="45.58414" lon="5.73185">
        <ele>652</ele>
        <time>2019-10-27T13:45:38.000Z</time>
      </trkpt>
      <trkpt lat="45.58413" lon="5.73186">
        <ele>652</ele>
        <time>2019-10-27T13:45:39.000Z</time>
      </trkpt>
      <trkpt lat="45.58412" lon="5.73186">
        <ele>652</ele>
        <time>2019-10-27T13:45:40.000Z</time>
      </trkpt>
      <trkpt lat="45.58411" lon="5.73187">
        <ele>652</ele>
        <time>2019-10-27T13:45:41.000Z</time>
      </trkpt>
      <trkpt lat="45.5841" lon="5.73188">
        <ele>652</ele>
        <time>2019-10-27T13:45:42.000Z</time>
      </trkpt>
      <trkpt lat="45.58409" lon="5.73188">
        <ele>651.5</ele>
        <time>2019-10-27T13:45:43.000Z</time>
      </trkpt>
      <trkpt lat="45.58408" lon="5.73189">
        <ele>651</ele>
        <time>2019-10-27T13:45:44.000Z</time>
      </trkpt>
      <trkpt lat="45.58407" lon="5.73189">
        <ele>651</ele>
        <time>2019-10-27T13:45:45.000Z</time>
      </trkpt>
      <trkpt lat="45.58406" lon="5.7319">
        <ele>651</ele>
        <time>2019-10-27T13:45:46.000Z</time>
      </trkpt>
      <trkpt lat="45.58405" lon="5.7319">
        <ele>651</ele>
        <time>2019-10-27T13:45:47.000Z</time>
      </trkpt>
      <trkpt lat="45.58404" lon="5.7319">
        <ele>651</ele>
        <time>2019-10-27T13:45:48.000Z</time>
      </trkpt>
      <trkpt lat="45.58403" lon="5.7319">
        <ele>651</ele>
        <time>2019-10-27T13:45:49.000Z</time>
      </trkpt>
      <trkpt lat="45.58402" lon="5.73189">
        <ele>651</ele>
        <time>2019-10-27T13:45:50.000Z</time>
      </trkpt>
      <trkpt lat="45.58401" lon="5.73187">
        <ele>651</ele>
        <time>2019-10-27T13:45:51.000Z</time>
      </trkpt>
      <trkpt lat="45.584" lon="5.73186">
        <ele>651</ele>
        <time>2019-10-27T13:45:52.000Z</time>
      </trkpt>
      <trkpt lat="45.58398" lon="5.73185">
        <ele>650</ele>
        <time>2019-10-27T13:45:53.000Z</time>
      </trkpt>
      <trkpt lat="45.58397" lon="5.73185">
        <ele>650</ele>
        <time>2019-10-27T13:45:54.000Z</time>
      </trkpt>
      <trkpt lat="45.58395" lon="5.73184">
        <ele>650</ele>
        <time>2019-10-27T13:45:55.000Z</time>
      </trkpt>
      <trkpt lat="45.58394" lon="5.73184">
        <ele>650</ele>
        <time>2019-10-27T13:45:56.000Z</time>
      </trkpt>
      <trkpt lat="45.58393" lon="5.73183">
        <ele>650</ele>
        <time>2019-10-27T13:45:57.000Z</time>
      </trkpt>
      <trkpt lat="45.58393" lon="5.73182">
        <ele>649.7</ele>
        <time>2019-10-27T13:45:58.000Z</time>
      </trkpt>
      <trkpt lat="45.58392" lon="5.7318">
        <ele>649.3</ele>
        <time>2019-10-27T13:45:59.000Z</time>
      </trkpt>
      <trkpt lat="45.58391" lon="5.73179">
        <ele>649</ele>
        <time>2019-10-27T13:46:00.000Z</time>
      </trkpt>
      <trkpt lat="45.58391" lon="5.73178">
        <ele>649</ele>
        <time>2019-10-27T13:46:01.000Z</time>
      </trkpt>
      <trkpt lat="45.5839" lon="5.73177">
        <ele>649</ele>
        <time>2019-10-27T13:46:02.000Z</time>
      </trkpt>
      <trkpt lat="45.5839" lon="5.73176">
        <ele>648</ele>
        <time>2019-10-27T13:46:03.000Z</time>
      </trkpt>
      <trkpt lat="45.58389" lon="5.73175">
        <ele>648</ele>
        <time>2019-10-27T13:46:04.000Z</time>
      </trkpt>
      <trkpt lat="45.58388" lon="5.73174">
        <ele>648</ele>
        <time>2019-10-27T13:46:05.000Z</time>
      </trkpt>
      <trkpt lat="45.58387" lon="5.73173">
        <ele>648</ele>
        <time>2019-10-27T13:46:06.000Z</time>
      </trkpt>
      <trkpt lat="45.58386" lon="5.73172">
        <ele>648</ele>
        <time>2019-10-27T13:46:07.000Z</time>
      </trkpt>
      <trkpt lat="45.58385" lon="5.73172">
        <ele>648</ele>
        <time>2019-10-27T13:46:08.000Z</time>
      </trkpt>
      <trkpt lat="45.58385" lon="5.73172">
        <ele>648</ele>
        <time>2019-10-27T13:46:09.000Z</time>
      </trkpt>
      <trkpt lat="45.58384" lon="5.73171">
        <ele>648</ele>
        <time>2019-10-27T13:46:10.000Z</time>
      </trkpt>
      <trkpt lat="45.58383" lon="5.73172">
        <ele>648</ele>
        <time>2019-10-27T13:46:11.000Z</time>
      </trkpt>
      <trkpt lat="45.58382" lon="5.73172">
        <ele>648</ele>
        <time>2019-10-27T13:46:12.000Z</time>
      </trkpt>
      <trkpt lat="45.58382" lon="5.73172">
        <ele>648</ele>
        <time>2019-10-27T13:46:13.000Z</time>
      </trkpt>
      <trkpt lat="45.58381" lon="5.73173">
        <ele>648</ele>
        <time>2019-10-27T13:46:14.000Z</time>
      </trkpt>
      <trkpt lat="45.5838" lon="5.73174">
        <ele>648</ele>
        <time>2019-10-27T13:46:15.000Z</time>
      </trkpt>
      <trkpt lat="45.5838" lon="5.73174">
        <ele>648</ele>
        <time>2019-10-27T13:46:16.000Z</time>
      </trkpt>
      <trkpt lat="45.58379" lon="5.73175">
        <ele>648</ele>
        <time>2019-10-27T13:46:17.000Z</time>
      </trkpt>
      <trkpt lat="45.58378" lon="5.73176">
        <ele>648</ele>
        <time>2019-10-27T13:46:18.000Z</time>
      </trkpt>
      <trkpt lat="45.58378" lon="5.73176">
        <ele>648</ele>
        <time>2019-10-27T13:46:19.000Z</time>
      </trkpt>
      <trkpt lat="45.58376" lon="5.73177">
        <ele>648</ele>
        <time>2019-10-27T13:46:20.000Z</time>
      </trkpt>
      <trkpt lat="45.58375" lon="5.73177">
        <ele>648</ele>
        <time>2019-10-27T13:46:21.000Z</time>
      </trkpt>
      <trkpt lat="45.58374" lon="5.73177">
        <ele>648</ele>
        <time>2019-10-27T13:46:22.000Z</time>
      </trkpt>
      <trkpt lat="45.58373" lon="5.73177">
        <ele>648</ele>
        <time>2019-10-27T13:46:23.000Z</time>
      </trkpt>
      <trkpt lat="45.58371" lon="5.73177">
        <ele>648</ele>
        <time>2019-10-27T13:46:24.000Z</time>
      </trkpt>
      <trkpt lat="45.5837" lon="5.73177">
        <ele>648</ele>
        <time>2019-10-27T13:46:25.000Z</time>
      </trkpt>
      <trkpt lat="45.58369" lon="5.73177">
        <ele>648</ele>
        <time>2019-10-27T13:46:26.000Z</time>
      </trkpt>
      <trkpt lat="45.58368" lon="5.73178">
        <ele>648</ele>
        <time>2019-10-27T13:46:27.000Z</time>
      </trkpt>
      <trkpt lat="45.58367" lon="5.73178">
        <ele>648</ele>
        <time>2019-10-27T13:46:28.000Z</time>
      </trkpt>
      <trkpt lat="45.58366" lon="5.7318">
        <ele>648</ele>
        <time>2019-10-27T13:46:29.000Z</time>
      </trkpt>
      <trkpt lat="45.58365" lon="5.73181">
        <ele>648</ele>
        <time>2019-10-27T13:46:30.000Z</time>
      </trkpt>
      <trkpt lat="45.58364" lon="5.73182">
        <ele>648.5</ele>
        <time>2019-10-27T13:46:31.000Z</time>
      </trkpt>
      <trkpt lat="45.58363" lon="5.73184">
        <ele>649</ele>
        <time>2019-10-27T13:46:32.000Z</time>
      </trkpt>
      <trkpt lat="45.58361" lon="5.73185">
        <ele>649</ele>
        <time>2019-10-27T13:46:33.000Z</time>
      </trkpt>
      <trkpt lat="45.5836" lon="5.73186">
        <ele>649</ele>
        <time>2019-10-27T13:46:34.000Z</time>
      </trkpt>
      <trkpt lat="45.58359" lon="5.73186">
        <ele>649</ele>
        <time>2019-10-27T13:46:35.000Z</time>
      </trkpt>
      <trkpt lat="45.58358" lon="5.73187">
        <ele>649.3</ele>
        <time>2019-10-27T13:46:36.000Z</time>
      </trkpt>
      <trkpt lat="45.58357" lon="5.73187">
        <ele>649.7</ele>
        <time>2019-10-27T13:46:37.000Z</time>
      </trkpt>
      <trkpt lat="45.58356" lon="5.73187">
        <ele>650</ele>
        <time>2019-10-27T13:46:38.000Z</time>
      </trkpt>
      <trkpt lat="45.58354" lon="5.73187">
        <ele>650</ele>
        <time>2019-10-27T13:46:39.000Z</time>
      </trkpt>
      <trkpt lat="45.58353" lon="5.73187">
        <ele>650</ele>
        <time>2019-10-27T13:46:40.000Z</time>
      </trkpt>
      <trkpt lat="45.58352" lon="5.73188">
        <ele>650</ele>
        <time>2019-10-27T13:46:41.000Z</time>
      </trkpt>
      <trkpt lat="45.58351" lon="5.73188">
        <ele>650</ele>
        <time>2019-10-27T13:46:42.000Z</time>
      </trkpt>
      <trkpt lat="45.5835" lon="5.73187">
        <ele>651</ele>
        <time>2019-10-27T13:46:43.000Z</time>
      </trkpt>
      <trkpt lat="45.58349" lon="5.73187">
        <ele>651</ele>
        <time>2019-10-27T13:46:44.000Z</time>
      </trkpt>
      <trkpt lat="45.58348" lon="5.73187">
        <ele>651</ele>
        <time>2019-10-27T13:46:45.000Z</time>
      </trkpt>
      <trkpt lat="45.58346" lon="5.73186">
        <ele>651</ele>
        <time>2019-10-27T13:46:46.000Z</time>
      </trkpt>
      <trkpt lat="45.58345" lon="5.73186">
        <ele>651</ele>
        <time>2019-10-27T13:46:47.000Z</time>
      </trkpt>
      <trkpt lat="45.58344" lon="5.73185">
        <ele>651</ele>
        <time>2019-10-27T13:46:48.000Z</time>
      </trkpt>
      <trkpt lat="45.58343" lon="5.73184">
        <ele>651</ele>
        <time>2019-10-27T13:46:49.000Z</time>
      </trkpt>
      <trkpt lat="45.58341" lon="5.73183">
        <ele>651</ele>
        <time>2019-10-27T13:46:50.000Z</time>
      </trkpt>
      <trkpt lat="45.5834" lon="5.73182">
        <ele>651</ele>
        <time>2019-10-27T13:46:51.000Z</time>
      </trkpt>
      <trkpt lat="45.58338" lon="5.73181">
        <ele>651</ele>
        <time>2019-10-27T13:46:52.000Z</time>
      </trkpt>
      <trkpt lat="45.58337" lon="5.7318">
        <ele>652</ele>
        <time>2019-10-27T13:46:53.000Z</time>
      </trkpt>
      <trkpt lat="45.58335" lon="5.73179">
        <ele>652</ele>
        <time>2019-10-27T13:46:54.000Z</time>
      </trkpt>
      <trkpt lat="45.58334" lon="5.73179">
        <ele>652</ele>
        <time>2019-10-27T13:46:55.000Z</time>
      </trkpt>
      <trkpt lat="45.58332" lon="5.73178">
        <ele>652</ele>
        <time>2019-10-27T13:46:56.000Z</time>
      </trkpt>
      <trkpt lat="45.58331" lon="5.73177">
        <ele>652</ele>
        <time>2019-10-27T13:46:57.000Z</time>
      </trkpt>
      <trkpt lat="45.58329" lon="5.73177">
        <ele>652</ele>
        <time>2019-10-27T13:46:58.000Z</time>
      </trkpt>
      <trkpt lat="45.58328" lon="5.73176">
        <ele>652</ele>
        <time>2019-10-27T13:46:59.000Z</time>
      </trkpt>
      <trkpt lat="45.58326" lon="5.73176">
        <ele>652</ele>
        <time>2019-10-27T13:47:00.000Z</time>
      </trkpt>
      <trkpt lat="45.58325" lon="5.73175">
        <ele>652</ele>
        <time>2019-10-27T13:47:01.000Z</time>
      </trkpt>
      <trkpt lat="45.58324" lon="5.73175">
        <ele>652.3</ele>
        <time>2019-10-27T13:47:02.000Z</time>
      </trkpt>
      <trkpt lat="45.58322" lon="5.73174">
        <ele>652.7</ele>
        <time>2019-10-27T13:47:03.000Z</time>
      </trkpt>
      <trkpt lat="45.58321" lon="5.73174">
        <ele>653</ele>
        <time>2019-10-27T13:47:04.000Z</time>
      </trkpt>
      <trkpt lat="45.58321" lon="5.73173">
        <ele>653</ele>
        <time>2019-10-27T13:47:05.000Z</time>
      </trkpt>
      <trkpt lat="45.5832" lon="5.73172">
        <ele>653</ele>
        <time>2019-10-27T13:47:06.000Z</time>
      </trkpt>
      <trkpt lat="45.58319" lon="5.73171">
        <ele>653</ele>
        <time>2019-10-27T13:47:07.000Z</time>
      </trkpt>
      <trkpt lat="45.58319" lon="5.73171">
        <ele>653</ele>
        <time>2019-10-27T13:47:08.000Z</time>
      </trkpt>
      <trkpt lat="45.58319" lon="5.7317">
        <ele>653</ele>
        <time>2019-10-27T13:47:09.000Z</time>
      </trkpt>
      <trkpt lat="45.58318" lon="5.73169">
        <ele>653.3</ele>
        <time>2019-10-27T13:47:10.000Z</time>
      </trkpt>
      <trkpt lat="45.58318" lon="5.73169">
        <ele>653.7</ele>
        <time>2019-10-27T13:47:11.000Z</time>
      </trkpt>
      <trkpt lat="45.58317" lon="5.73167">
        <ele>654</ele>
        <time>2019-10-27T13:47:12.000Z</time>
      </trkpt>
      <trkpt lat="45.58315" lon="5.73165">
        <ele>654</ele>
        <time>2019-10-27T13:47:13.000Z</time>
      </trkpt>
      <trkpt lat="45.58314" lon="5.73164">
        <ele>654</ele>
        <time>2019-10-27T13:47:14.000Z</time>
      </trkpt>
      <trkpt lat="45.58313" lon="5.73163">
        <ele>654</ele>
        <time>2019-10-27T13:47:15.000Z</time>
      </trkpt>
      <trkpt lat="45.58312" lon="5.73163">
        <ele>654</ele>
        <time>2019-10-27T13:47:16.000Z</time>
      </trkpt>
      <trkpt lat="45.5831" lon="5.73163">
        <ele>654</ele>
        <time>2019-10-27T13:47:17.000Z</time>
      </trkpt>
      <trkpt lat="45.58309" lon="5.73162">
        <ele>654</ele>
        <time>2019-10-27T13:47:18.000Z</time>
      </trkpt>
      <trkpt lat="45.58308" lon="5.73162">
        <ele>654</ele>
        <time>2019-10-27T13:47:19.000Z</time>
      </trkpt>
      <trkpt lat="45.58307" lon="5.73162">
        <ele>654</ele>
        <time>2019-10-27T13:47:20.000Z</time>
      </trkpt>
      <trkpt lat="45.58306" lon="5.73161">
        <ele>655</ele>
        <time>2019-10-27T13:47:21.000Z</time>
      </trkpt>
      <trkpt lat="45.58305" lon="5.73161">
        <ele>655</ele>
        <time>2019-10-27T13:47:22.000Z</time>
      </trkpt>
      <trkpt lat="45.58304" lon="5.73161">
        <ele>655</ele>
        <time>2019-10-27T13:47:23.000Z</time>
      </trkpt>
      <trkpt lat="45.58303" lon="5.73161">
        <ele>655</ele>
        <time>2019-10-27T13:47:24.000Z</time>
      </trkpt>
      <trkpt lat="45.58301" lon="5.73161">
        <ele>655</ele>
        <time>2019-10-27T13:47:25.000Z</time>
      </trkpt>
      <trkpt lat="45.583" lon="5.7316">
        <ele>655</ele>
        <time>2019-10-27T13:47:26.000Z</time>
      </trkpt>
      <trkpt lat="45.58299" lon="5.7316">
        <ele>655</ele>
        <time>2019-10-27T13:47:27.000Z</time>
      </trkpt>
      <trkpt lat="45.58298" lon="5.7316">
        <ele>655.3</ele>
        <time>2019-10-27T13:47:28.000Z</time>
      </trkpt>
      <trkpt lat="45.58297" lon="5.73159">
        <ele>655.7</ele>
        <time>2019-10-27T13:47:29.000Z</time>
      </trkpt>
      <trkpt lat="45.58295" lon="5.73159">
        <ele>656</ele>
        <time>2019-10-27T13:47:30.000Z</time>
      </trkpt>
      <trkpt lat="45.58294" lon="5.73158">
        <ele>656</ele>
        <time>2019-10-27T13:47:31.000Z</time>
      </trkpt>
      <trkpt lat="45.58293" lon="5.73157">
        <ele>656</ele>
        <time>2019-10-27T13:47:32.000Z</time>
      </trkpt>
      <trkpt lat="45.58292" lon="5.73156">
        <ele>656</ele>
        <time>2019-10-27T13:47:33.000Z</time>
      </trkpt>
      <trkpt lat="45.58291" lon="5.73155">
        <ele>656</ele>
        <time>2019-10-27T13:47:34.000Z</time>
      </trkpt>
      <trkpt lat="45.5829" lon="5.73154">
        <ele>656</ele>
        <time>2019-10-27T13:47:35.000Z</time>
      </trkpt>
      <trkpt lat="45.58289" lon="5.73153">
        <ele>656</ele>
        <time>2019-10-27T13:47:36.000Z</time>
      </trkpt>
      <trkpt lat="45.58288" lon="5.73152">
        <ele>656</ele>
        <time>2019-10-27T13:47:37.000Z</time>
      </trkpt>
      <trkpt lat="45.58287" lon="5.73151">
        <ele>656</ele>
        <time>2019-10-27T13:47:38.000Z</time>
      </trkpt>
      <trkpt lat="45.58286" lon="5.73151">
        <ele>656</ele>
        <time>2019-10-27T13:47:39.000Z</time>
      </trkpt>
      <trkpt lat="45.58285" lon="5.7315">
        <ele>656</ele>
        <time>2019-10-27T13:47:40.000Z</time>
      </trkpt>
      <trkpt lat="45.58284" lon="5.73149">
        <ele>656</ele>
        <time>2019-10-27T13:47:41.000Z</time>
      </trkpt>
      <trkpt lat="45.58283" lon="5.73148">
        <ele>656</ele>
        <time>2019-10-27T13:47:42.000Z</time>
      </trkpt>
      <trkpt lat="45.58282" lon="5.73148">
        <ele>657</ele>
        <time>2019-10-27T13:47:43.000Z</time>
      </trkpt>
      <trkpt lat="45.58281" lon="5.73147">
        <ele>657</ele>
        <time>2019-10-27T13:47:44.000Z</time>
      </trkpt>
      <trkpt lat="45.5828" lon="5.73147">
        <ele>657</ele>
        <time>2019-10-27T13:47:45.000Z</time>
      </trkpt>
      <trkpt lat="45.58279" lon="5.73146">
        <ele>657</ele>
        <time>2019-10-27T13:47:46.000Z</time>
      </trkpt>
      <trkpt lat="45.58278" lon="5.73145">
        <ele>657</ele>
        <time>2019-10-27T13:47:47.000Z</time>
      </trkpt>
      <trkpt lat="45.58278" lon="5.73145">
        <ele>657</ele>
        <time>2019-10-27T13:47:48.000Z</time>
      </trkpt>
      <trkpt lat="45.58277" lon="5.73144">
        <ele>657</ele>
        <time>2019-10-27T13:47:49.000Z</time>
      </trkpt>
      <trkpt lat="45.58276" lon="5.73144">
        <ele>657</ele>
        <time>2019-10-27T13:47:50.000Z</time>
      </trkpt>
      <trkpt lat="45.58275" lon="5.73143">
        <ele>657</ele>
        <time>2019-10-27T13:47:51.000Z</time>
      </trkpt>
      <trkpt lat="45.58274" lon="5.73143">
        <ele>657</ele>
        <time>2019-10-27T13:47:52.000Z</time>
      </trkpt>
      <trkpt lat="45.58273" lon="5.73143">
        <ele>657</ele>
        <time>2019-10-27T13:47:53.000Z</time>
      </trkpt>
      <trkpt lat="45.58272" lon="5.73142">
        <ele>657</ele>
        <time>2019-10-27T13:47:54.000Z</time>
      </trkpt>
      <trkpt lat="45.58271" lon="5.73142">
        <ele>657</ele>
        <time>2019-10-27T13:47:55.000Z</time>
      </trkpt>
      <trkpt lat="45.5827" lon="5.73142">
        <ele>657</ele>
        <time>2019-10-27T13:47:56.000Z</time>
      </trkpt>
      <trkpt lat="45.5827" lon="5.73142">
        <ele>657</ele>
        <time>2019-10-27T13:47:57.000Z</time>
      </trkpt>
      <trkpt lat="45.58269" lon="5.73141">
        <ele>657</ele>
        <time>2019-10-27T13:47:58.000Z</time>
      </trkpt>
      <trkpt lat="45.58268" lon="5.73141">
        <ele>657</ele>
        <time>2019-10-27T13:47:59.000Z</time>
      </trkpt>
      <trkpt lat="45.58267" lon="5.7314">
        <ele>657</ele>
        <time>2019-10-27T13:48:00.000Z</time>
      </trkpt>
      <trkpt lat="45.58266" lon="5.73139">
        <ele>657</ele>
        <time>2019-10-27T13:48:01.000Z</time>
      </trkpt>
      <trkpt lat="45.58265" lon="5.73139">
        <ele>657</ele>
        <time>2019-10-27T13:48:02.000Z</time>
      </trkpt>
      <trkpt lat="45.58265" lon="5.73138">
        <ele>657</ele>
        <time>2019-10-27T13:48:03.000Z</time>
      </trkpt>
      <trkpt lat="45.58265" lon="5.73138">
        <ele>657</ele>
        <time>2019-10-27T13:48:04.000Z</time>
      </trkpt>
      <trkpt lat="45.58264" lon="5.73137">
        <ele>657</ele>
        <time>2019-10-27T13:48:05.000Z</time>
      </trkpt>
      <trkpt lat="45.58264" lon="5.73137">
        <ele>657</ele>
        <time>2019-10-27T13:48:06.000Z</time>
      </trkpt>
      <trkpt lat="45.58264" lon="5.73137">
        <ele>657</ele>
        <time>2019-10-27T13:48:07.000Z</time>
      </trkpt>
      <trkpt lat="45.58263" lon="5.73136">
        <ele>657</ele>
        <time>2019-10-27T13:48:08.000Z</time>
      </trkpt>
      <trkpt lat="45.5826" lon="5.73133">
        <ele>657</ele>
        <time>2019-10-27T13:48:09.000Z</time>
      </trkpt>
      <trkpt lat="45.58258" lon="5.73132">
        <ele>657.5</ele>
        <time>2019-10-27T13:48:10.000Z</time>
      </trkpt>
      <trkpt lat="45.58257" lon="5.73131">
        <ele>658</ele>
        <time>2019-10-27T13:48:11.000Z</time>
      </trkpt>
      <trkpt lat="45.58256" lon="5.73131">
        <ele>658</ele>
        <time>2019-10-27T13:48:12.000Z</time>
      </trkpt>
      <trkpt lat="45.58255" lon="5.7313">
        <ele>658</ele>
        <time>2019-10-27T13:48:13.000Z</time>
      </trkpt>
      <trkpt lat="45.58254" lon="5.73129">
        <ele>658</ele>
        <time>2019-10-27T13:48:14.000Z</time>
      </trkpt>
      <trkpt lat="45.58253" lon="5.73128">
        <ele>658</ele>
        <time>2019-10-27T13:48:15.000Z</time>
      </trkpt>
      <trkpt lat="45.58252" lon="5.73126">
        <ele>658</ele>
        <time>2019-10-27T13:48:16.000Z</time>
      </trkpt>
      <trkpt lat="45.58251" lon="5.73125">
        <ele>658</ele>
        <time>2019-10-27T13:48:17.000Z</time>
      </trkpt>
      <trkpt lat="45.5825" lon="5.73124">
        <ele>658.5</ele>
        <time>2019-10-27T13:48:18.000Z</time>
      </trkpt>
      <trkpt lat="45.58249" lon="5.73123">
        <ele>659</ele>
        <time>2019-10-27T13:48:19.000Z</time>
      </trkpt>
      <trkpt lat="45.58248" lon="5.73122">
        <ele>659</ele>
        <time>2019-10-27T13:48:20.000Z</time>
      </trkpt>
      <trkpt lat="45.58246" lon="5.73122">
        <ele>659</ele>
        <time>2019-10-27T13:48:21.000Z</time>
      </trkpt>
      <trkpt lat="45.58245" lon="5.73121">
        <ele>659</ele>
        <time>2019-10-27T13:48:22.000Z</time>
      </trkpt>
      <trkpt lat="45.58244" lon="5.73121">
        <ele>659</ele>
        <time>2019-10-27T13:48:23.000Z</time>
      </trkpt>
      <trkpt lat="45.58243" lon="5.73121">
        <ele>659</ele>
        <time>2019-10-27T13:48:24.000Z</time>
      </trkpt>
      <trkpt lat="45.58242" lon="5.73121">
        <ele>659</ele>
        <time>2019-10-27T13:48:25.000Z</time>
      </trkpt>
      <trkpt lat="45.58241" lon="5.73121">
        <ele>659</ele>
        <time>2019-10-27T13:48:26.000Z</time>
      </trkpt>
      <trkpt lat="45.5824" lon="5.73121">
        <ele>660</ele>
        <time>2019-10-27T13:48:27.000Z</time>
      </trkpt>
      <trkpt lat="45.58239" lon="5.73121">
        <ele>660</ele>
        <time>2019-10-27T13:48:28.000Z</time>
      </trkpt>
      <trkpt lat="45.58238" lon="5.73121">
        <ele>660</ele>
        <time>2019-10-27T13:48:29.000Z</time>
      </trkpt>
      <trkpt lat="45.58237" lon="5.73122">
        <ele>660</ele>
        <time>2019-10-27T13:48:30.000Z</time>
      </trkpt>
      <trkpt lat="45.58235" lon="5.73122">
        <ele>660</ele>
        <time>2019-10-27T13:48:31.000Z</time>
      </trkpt>
      <trkpt lat="45.58234" lon="5.73123">
        <ele>660</ele>
        <time>2019-10-27T13:48:32.000Z</time>
      </trkpt>
      <trkpt lat="45.58233" lon="5.73123">
        <ele>660</ele>
        <time>2019-10-27T13:48:33.000Z</time>
      </trkpt>
      <trkpt lat="45.58231" lon="5.73123">
        <ele>660</ele>
        <time>2019-10-27T13:48:34.000Z</time>
      </trkpt>
      <trkpt lat="45.5823" lon="5.73123">
        <ele>660</ele>
        <time>2019-10-27T13:48:35.000Z</time>
      </trkpt>
      <trkpt lat="45.58228" lon="5.73124">
        <ele>660</ele>
        <time>2019-10-27T13:48:36.000Z</time>
      </trkpt>
      <trkpt lat="45.58227" lon="5.73125">
        <ele>660</ele>
        <time>2019-10-27T13:48:37.000Z</time>
      </trkpt>
      <trkpt lat="45.58226" lon="5.73126">
        <ele>660</ele>
        <time>2019-10-27T13:48:38.000Z</time>
      </trkpt>
      <trkpt lat="45.58225" lon="5.73127">
        <ele>660</ele>
        <time>2019-10-27T13:48:39.000Z</time>
      </trkpt>
      <trkpt lat="45.58224" lon="5.73128">
        <ele>660</ele>
        <time>2019-10-27T13:48:40.000Z</time>
      </trkpt>
      <trkpt lat="45.58223" lon="5.73129">
        <ele>659.5</ele>
        <time>2019-10-27T13:48:41.000Z</time>
      </trkpt>
      <trkpt lat="45.58222" lon="5.7313">
        <ele>659</ele>
        <time>2019-10-27T13:48:42.000Z</time>
      </trkpt>
      <trkpt lat="45.58221" lon="5.73131">
        <ele>660</ele>
        <time>2019-10-27T13:48:43.000Z</time>
      </trkpt>
      <trkpt lat="45.5822" lon="5.73132">
        <ele>660</ele>
        <time>2019-10-27T13:48:44.000Z</time>
      </trkpt>
      <trkpt lat="45.5822" lon="5.73134">
        <ele>660</ele>
        <time>2019-10-27T13:48:45.000Z</time>
      </trkpt>
      <trkpt lat="45.58219" lon="5.73135">
        <ele>660</ele>
        <time>2019-10-27T13:48:46.000Z</time>
      </trkpt>
      <trkpt lat="45.58218" lon="5.73137">
        <ele>660</ele>
        <time>2019-10-27T13:48:47.000Z</time>
      </trkpt>
      <trkpt lat="45.58217" lon="5.73139">
        <ele>660</ele>
        <time>2019-10-27T13:48:48.000Z</time>
      </trkpt>
      <trkpt lat="45.58216" lon="5.73141">
        <ele>660</ele>
        <time>2019-10-27T13:48:49.000Z</time>
      </trkpt>
      <trkpt lat="45.58215" lon="5.73143">
        <ele>660</ele>
        <time>2019-10-27T13:48:50.000Z</time>
      </trkpt>
      <trkpt lat="45.58215" lon="5.73145">
        <ele>660</ele>
        <time>2019-10-27T13:48:51.000Z</time>
      </trkpt>
      <trkpt lat="45.58214" lon="5.73147">
        <ele>660</ele>
        <time>2019-10-27T13:48:52.000Z</time>
      </trkpt>
      <trkpt lat="45.58213" lon="5.73149">
        <ele>660</ele>
        <time>2019-10-27T13:48:53.000Z</time>
      </trkpt>
      <trkpt lat="45.58212" lon="5.73151">
        <ele>660</ele>
        <time>2019-10-27T13:48:54.000Z</time>
      </trkpt>
      <trkpt lat="45.58211" lon="5.73152">
        <ele>660.5</ele>
        <time>2019-10-27T13:48:55.000Z</time>
      </trkpt>
      <trkpt lat="45.58209" lon="5.73155">
        <ele>661</ele>
        <time>2019-10-27T13:48:56.000Z</time>
      </trkpt>
      <trkpt lat="45.58206" lon="5.73157">
        <ele>661</ele>
        <time>2019-10-27T13:48:57.000Z</time>
      </trkpt>
      <trkpt lat="45.58204" lon="5.73159">
        <ele>661</ele>
        <time>2019-10-27T13:48:58.000Z</time>
      </trkpt>
      <trkpt lat="45.58203" lon="5.73161">
        <ele>661</ele>
        <time>2019-10-27T13:48:59.000Z</time>
      </trkpt>
      <trkpt lat="45.58202" lon="5.73162">
        <ele>661</ele>
        <time>2019-10-27T13:49:00.000Z</time>
      </trkpt>
      <trkpt lat="45.582" lon="5.73163">
        <ele>661.5</ele>
        <time>2019-10-27T13:49:01.000Z</time>
      </trkpt>
      <trkpt lat="45.58198" lon="5.73165">
        <ele>662</ele>
        <time>2019-10-27T13:49:02.000Z</time>
      </trkpt>
      <trkpt lat="45.58196" lon="5.73166">
        <ele>662</ele>
        <time>2019-10-27T13:49:03.000Z</time>
      </trkpt>
      <trkpt lat="45.58193" lon="5.73166">
        <ele>662</ele>
        <time>2019-10-27T13:49:04.000Z</time>
      </trkpt>
      <trkpt lat="45.58191" lon="5.73167">
        <ele>662</ele>
        <time>2019-10-27T13:49:05.000Z</time>
      </trkpt>
      <trkpt lat="45.58188" lon="5.73168">
        <ele>662</ele>
        <time>2019-10-27T13:49:06.000Z</time>
      </trkpt>
      <trkpt lat="45.58185" lon="5.73169">
        <ele>662</ele>
        <time>2019-10-27T13:49:07.000Z</time>
      </trkpt>
      <trkpt lat="45.58183" lon="5.73169">
        <ele>662.3</ele>
        <time>2019-10-27T13:49:08.000Z</time>
      </trkpt>
      <trkpt lat="45.5818" lon="5.7317">
        <ele>662.7</ele>
        <time>2019-10-27T13:49:09.000Z</time>
      </trkpt>
      <trkpt lat="45.58178" lon="5.73171">
        <ele>663</ele>
        <time>2019-10-27T13:49:10.000Z</time>
      </trkpt>
      <trkpt lat="45.58176" lon="5.73172">
        <ele>663</ele>
        <time>2019-10-27T13:49:11.000Z</time>
      </trkpt>
      <trkpt lat="45.58174" lon="5.73174">
        <ele>663</ele>
        <time>2019-10-27T13:49:12.000Z</time>
      </trkpt>
      <trkpt lat="45.58172" lon="5.73175">
        <ele>663</ele>
        <time>2019-10-27T13:49:13.000Z</time>
      </trkpt>
      <trkpt lat="45.5817" lon="5.73176">
        <ele>663</ele>
        <time>2019-10-27T13:49:14.000Z</time>
      </trkpt>
      <trkpt lat="45.58168" lon="5.73177">
        <ele>663</ele>
        <time>2019-10-27T13:49:15.000Z</time>
      </trkpt>
      <trkpt lat="45.58166" lon="5.73178">
        <ele>663</ele>
        <time>2019-10-27T13:49:16.000Z</time>
      </trkpt>
      <trkpt lat="45.58165" lon="5.73179">
        <ele>663</ele>
        <time>2019-10-27T13:49:17.000Z</time>
      </trkpt>
      <trkpt lat="45.58163" lon="5.7318">
        <ele>663</ele>
        <time>2019-10-27T13:49:18.000Z</time>
      </trkpt>
      <trkpt lat="45.58162" lon="5.73181">
        <ele>663.5</ele>
        <time>2019-10-27T13:49:19.000Z</time>
      </trkpt>
      <trkpt lat="45.58161" lon="5.73182">
        <ele>664</ele>
        <time>2019-10-27T13:49:20.000Z</time>
      </trkpt>
      <trkpt lat="45.58161" lon="5.73182">
        <ele>664</ele>
        <time>2019-10-27T13:49:21.000Z</time>
      </trkpt>
      <trkpt lat="45.5816" lon="5.73183">
        <ele>664</ele>
        <time>2019-10-27T13:49:22.000Z</time>
      </trkpt>
      <trkpt lat="45.5816" lon="5.73183">
        <ele>664</ele>
        <time>2019-10-27T13:49:23.000Z</time>
      </trkpt>
      <trkpt lat="45.5816" lon="5.73183">
        <ele>664</ele>
        <time>2019-10-27T13:49:24.000Z</time>
      </trkpt>
      <trkpt lat="45.5816" lon="5.73183">
        <ele>664</ele>
        <time>2019-10-27T13:49:25.000Z</time>
      </trkpt>
      <trkpt lat="45.5816" lon="5.73183">
        <ele>664</ele>
        <time>2019-10-27T13:49:26.000Z</time>
      </trkpt>
      <trkpt lat="45.5816" lon="5.73183">
        <ele>664</ele>
        <time>2019-10-27T13:49:27.000Z</time>
      </trkpt>
      <trkpt lat="45.5816" lon="5.73183">
        <ele>664</ele>
        <time>2019-10-27T13:49:28.000Z</time>
      </trkpt>
      <trkpt lat="45.58159" lon="5.73183">
        <ele>664</ele>
        <time>2019-10-27T13:49:29.000Z</time>
      </trkpt>
      <trkpt lat="45.58159" lon="5.73183">
        <ele>664</ele>
        <time>2019-10-27T13:49:30.000Z</time>
      </trkpt>
      <trkpt lat="45.58159" lon="5.73183">
        <ele>664</ele>
        <time>2019-10-27T13:49:31.000Z</time>
      </trkpt>
      <trkpt lat="45.58159" lon="5.73183">
        <ele>664</ele>
        <time>2019-10-27T13:49:32.000Z</time>
      </trkpt>
      <trkpt lat="45.58158" lon="5.73183">
        <ele>664</ele>
        <time>2019-10-27T13:49:33.000Z</time>
      </trkpt>
      <trkpt lat="45.58158" lon="5.73184">
        <ele>664</ele>
        <time>2019-10-27T13:49:34.000Z</time>
      </trkpt>
      <trkpt lat="45.58158" lon="5.73184">
        <ele>664</ele>
        <time>2019-10-27T13:49:35.000Z</time>
      </trkpt>
      <trkpt lat="45.58158" lon="5.73184">
        <ele>664</ele>
        <time>2019-10-27T13:49:36.000Z</time>
      </trkpt>
      <trkpt lat="45.58157" lon="5.73183">
        <ele>664</ele>
        <time>2019-10-27T13:49:37.000Z</time>
      </trkpt>
      <trkpt lat="45.58157" lon="5.73183">
        <ele>664</ele>
        <time>2019-10-27T13:49:38.000Z</time>
      </trkpt>
      <trkpt lat="45.58157" lon="5.73183">
        <ele>664</ele>
        <time>2019-10-27T13:49:39.000Z</time>
      </trkpt>
      <trkpt lat="45.58157" lon="5.73182">
        <ele>664</ele>
        <time>2019-10-27T13:49:40.000Z</time>
      </trkpt>
      <trkpt lat="45.58156" lon="5.73181">
        <ele>664</ele>
        <time>2019-10-27T13:49:41.000Z</time>
      </trkpt>
      <trkpt lat="45.58156" lon="5.73181">
        <ele>664</ele>
        <time>2019-10-27T13:49:42.000Z</time>
      </trkpt>
      <trkpt lat="45.58156" lon="5.7318">
        <ele>664</ele>
        <time>2019-10-27T13:49:43.000Z</time>
      </trkpt>
      <trkpt lat="45.58156" lon="5.73179">
        <ele>664</ele>
        <time>2019-10-27T13:49:44.000Z</time>
      </trkpt>
      <trkpt lat="45.58156" lon="5.73179">
        <ele>664</ele>
        <time>2019-10-27T13:49:45.000Z</time>
      </trkpt>
      <trkpt lat="45.58156" lon="5.73178">
        <ele>664</ele>
        <time>2019-10-27T13:49:46.000Z</time>
      </trkpt>
      <trkpt lat="45.58156" lon="5.73178">
        <ele>664</ele>
        <time>2019-10-27T13:49:47.000Z</time>
      </trkpt>
      <trkpt lat="45.58156" lon="5.73178">
        <ele>664</ele>
        <time>2019-10-27T13:49:48.000Z</time>
      </trkpt>
      <trkpt lat="45.58156" lon="5.73178">
        <ele>664</ele>
        <time>2019-10-27T13:49:49.000Z</time>
      </trkpt>
      <trkpt lat="45.58156" lon="5.73178">
        <ele>664</ele>
        <time>2019-10-27T13:49:50.000Z</time>
      </trkpt>
      <trkpt lat="45.58156" lon="5.73178">
        <ele>664</ele>
        <time>2019-10-27T13:49:51.000Z</time>
      </trkpt>
      <trkpt lat="45.58156" lon="5.73178">
        <ele>664</ele>
        <time>2019-10-27T13:49:52.000Z</time>
      </trkpt>
      <trkpt lat="45.58156" lon="5.73178">
        <ele>664</ele>
        <time>2019-10-27T13:49:53.000Z</time>
      </trkpt>
      <trkpt lat="45.58155" lon="5.73178">
        <ele>664</ele>
        <time>2019-10-27T13:49:54.000Z</time>
      </trkpt>
      <trkpt lat="45.58155" lon="5.73177">
        <ele>664</ele>
        <time>2019-10-27T13:49:55.000Z</time>
      </trkpt>
      <trkpt lat="45.58155" lon="5.73177">
        <ele>664</ele>
        <time>2019-10-27T13:49:56.000Z</time>
      </trkpt>
      <trkpt lat="45.58155" lon="5.73177">
        <ele>664</ele>
        <time>2019-10-27T13:49:57.000Z</time>
      </trkpt>
      <trkpt lat="45.58155" lon="5.73177">
        <ele>664</ele>
        <time>2019-10-27T13:49:58.000Z</time>
      </trkpt>
      <trkpt lat="45.58155" lon="5.73177">
        <ele>664</ele>
        <time>2019-10-27T13:49:59.000Z</time>
      </trkpt>
      <trkpt lat="45.58154" lon="5.73177">
        <ele>664</ele>
        <time>2019-10-27T13:50:00.000Z</time>
      </trkpt>
      <trkpt lat="45.58154" lon="5.73177">
        <ele>664</ele>
        <time>2019-10-27T13:50:01.000Z</time>
      </trkpt>
      <trkpt lat="45.58154" lon="5.73177">
        <ele>664</ele>
        <time>2019-10-27T13:50:02.000Z</time>
      </trkpt>
      <trkpt lat="45.58153" lon="5.73177">
        <ele>664</ele>
        <time>2019-10-27T13:50:03.000Z</time>
      </trkpt>
      <trkpt lat="45.58153" lon="5.73177">
        <ele>664</ele>
        <time>2019-10-27T13:50:04.000Z</time>
      </trkpt>
      <trkpt lat="45.58152" lon="5.73177">
        <ele>664</ele>
        <time>2019-10-27T13:50:05.000Z</time>
      </trkpt>
      <trkpt lat="45.58151" lon="5.73178">
        <ele>664</ele>
        <time>2019-10-27T13:50:06.000Z</time>
      </trkpt>
      <trkpt lat="45.58151" lon="5.73178">
        <ele>664</ele>
        <time>2019-10-27T13:50:07.000Z</time>
      </trkpt>
      <trkpt lat="45.5815" lon="5.73179">
        <ele>664</ele>
        <time>2019-10-27T13:50:08.000Z</time>
      </trkpt>
      <trkpt lat="45.58149" lon="5.73179">
        <ele>664</ele>
        <time>2019-10-27T13:50:09.000Z</time>
      </trkpt>
      <trkpt lat="45.58149" lon="5.7318">
        <ele>664</ele>
        <time>2019-10-27T13:50:10.000Z</time>
      </trkpt>
      <trkpt lat="45.58148" lon="5.7318">
        <ele>664</ele>
        <time>2019-10-27T13:50:11.000Z</time>
      </trkpt>
      <trkpt lat="45.58147" lon="5.73181">
        <ele>664</ele>
        <time>2019-10-27T13:50:12.000Z</time>
      </trkpt>
      <trkpt lat="45.58146" lon="5.73181">
        <ele>664</ele>
        <time>2019-10-27T13:50:13.000Z</time>
      </trkpt>
      <trkpt lat="45.58146" lon="5.73182">
        <ele>664</ele>
        <time>2019-10-27T13:50:14.000Z</time>
      </trkpt>
      <trkpt lat="45.58145" lon="5.73182">
        <ele>664</ele>
        <time>2019-10-27T13:50:15.000Z</time>
      </trkpt>
      <trkpt lat="45.58144" lon="5.73183">
        <ele>664</ele>
        <time>2019-10-27T13:50:16.000Z</time>
      </trkpt>
      <trkpt lat="45.58143" lon="5.73183">
        <ele>664.3</ele>
        <time>2019-10-27T13:50:17.000Z</time>
      </trkpt>
      <trkpt lat="45.58141" lon="5.73183">
        <ele>664.7</ele>
        <time>2019-10-27T13:50:18.000Z</time>
      </trkpt>
      <trkpt lat="45.58139" lon="5.73183">
        <ele>665</ele>
        <time>2019-10-27T13:50:19.000Z</time>
      </trkpt>
      <trkpt lat="45.58138" lon="5.73183">
        <ele>665</ele>
        <time>2019-10-27T13:50:20.000Z</time>
      </trkpt>
      <trkpt lat="45.58136" lon="5.73183">
        <ele>665.3</ele>
        <time>2019-10-27T13:50:21.000Z</time>
      </trkpt>
      <trkpt lat="45.58134" lon="5.73183">
        <ele>665.7</ele>
        <time>2019-10-27T13:50:22.000Z</time>
      </trkpt>
      <trkpt lat="45.58133" lon="5.73183">
        <ele>666</ele>
        <time>2019-10-27T13:50:23.000Z</time>
      </trkpt>
      <trkpt lat="45.58131" lon="5.73182">
        <ele>666</ele>
        <time>2019-10-27T13:50:24.000Z</time>
      </trkpt>
      <trkpt lat="45.58129" lon="5.73182">
        <ele>666</ele>
        <time>2019-10-27T13:50:25.000Z</time>
      </trkpt>
      <trkpt lat="45.58128" lon="5.73182">
        <ele>666</ele>
        <time>2019-10-27T13:50:26.000Z</time>
      </trkpt>
      <trkpt lat="45.58126" lon="5.73181">
        <ele>666.5</ele>
        <time>2019-10-27T13:50:27.000Z</time>
      </trkpt>
      <trkpt lat="45.58125" lon="5.73181">
        <ele>667</ele>
        <time>2019-10-27T13:50:28.000Z</time>
      </trkpt>
      <trkpt lat="45.58123" lon="5.73181">
        <ele>667</ele>
        <time>2019-10-27T13:50:29.000Z</time>
      </trkpt>
      <trkpt lat="45.58122" lon="5.73181">
        <ele>667</ele>
        <time>2019-10-27T13:50:30.000Z</time>
      </trkpt>
      <trkpt lat="45.58121" lon="5.73181">
        <ele>667</ele>
        <time>2019-10-27T13:50:31.000Z</time>
      </trkpt>
      <trkpt lat="45.58119" lon="5.73181">
        <ele>667</ele>
        <time>2019-10-27T13:50:32.000Z</time>
      </trkpt>
      <trkpt lat="45.58118" lon="5.73182">
        <ele>667</ele>
        <time>2019-10-27T13:50:33.000Z</time>
      </trkpt>
      <trkpt lat="45.58117" lon="5.73182">
        <ele>667</ele>
        <time>2019-10-27T13:50:34.000Z</time>
      </trkpt>
      <trkpt lat="45.58115" lon="5.73182">
        <ele>667</ele>
        <time>2019-10-27T13:50:35.000Z</time>
      </trkpt>
      <trkpt lat="45.58114" lon="5.73183">
        <ele>667.5</ele>
        <time>2019-10-27T13:50:36.000Z</time>
      </trkpt>
      <trkpt lat="45.58112" lon="5.73183">
        <ele>668</ele>
        <time>2019-10-27T13:50:37.000Z</time>
      </trkpt>
      <trkpt lat="45.5811" lon="5.73184">
        <ele>668</ele>
        <time>2019-10-27T13:50:38.000Z</time>
      </trkpt>
      <trkpt lat="45.58108" lon="5.73184">
        <ele>668</ele>
        <time>2019-10-27T13:50:39.000Z</time>
      </trkpt>
      <trkpt lat="45.58106" lon="5.73185">
        <ele>668</ele>
        <time>2019-10-27T13:50:40.000Z</time>
      </trkpt>
      <trkpt lat="45.58103" lon="5.73185">
        <ele>668</ele>
        <time>2019-10-27T13:50:41.000Z</time>
      </trkpt>
      <trkpt lat="45.58102" lon="5.73185">
        <ele>669</ele>
        <time>2019-10-27T13:50:42.000Z</time>
      </trkpt>
      <trkpt lat="45.581" lon="5.73185">
        <ele>669</ele>
        <time>2019-10-27T13:50:43.000Z</time>
      </trkpt>
      <trkpt lat="45.58098" lon="5.73185">
        <ele>669</ele>
        <time>2019-10-27T13:50:44.000Z</time>
      </trkpt>
      <trkpt lat="45.58097" lon="5.73185">
        <ele>669</ele>
        <time>2019-10-27T13:50:45.000Z</time>
      </trkpt>
      <trkpt lat="45.58096" lon="5.73185">
        <ele>669</ele>
        <time>2019-10-27T13:50:46.000Z</time>
      </trkpt>
      <trkpt lat="45.58094" lon="5.73186">
        <ele>669</ele>
        <time>2019-10-27T13:50:47.000Z</time>
      </trkpt>
      <trkpt lat="45.58093" lon="5.73186">
        <ele>669</ele>
        <time>2019-10-27T13:50:48.000Z</time>
      </trkpt>
      <trkpt lat="45.58092" lon="5.73187">
        <ele>669</ele>
        <time>2019-10-27T13:50:49.000Z</time>
      </trkpt>
      <trkpt lat="45.5809" lon="5.73188">
        <ele>669.5</ele>
        <time>2019-10-27T13:50:50.000Z</time>
      </trkpt>
      <trkpt lat="45.58089" lon="5.73189">
        <ele>670</ele>
        <time>2019-10-27T13:50:51.000Z</time>
      </trkpt>
      <trkpt lat="45.58087" lon="5.7319">
        <ele>670</ele>
        <time>2019-10-27T13:50:52.000Z</time>
      </trkpt>
      <trkpt lat="45.58086" lon="5.73191">
        <ele>670</ele>
        <time>2019-10-27T13:50:53.000Z</time>
      </trkpt>
      <trkpt lat="45.58084" lon="5.73191">
        <ele>670</ele>
        <time>2019-10-27T13:50:54.000Z</time>
      </trkpt>
      <trkpt lat="45.58083" lon="5.73192">
        <ele>670</ele>
        <time>2019-10-27T13:50:55.000Z</time>
      </trkpt>
      <trkpt lat="45.58081" lon="5.73192">
        <ele>670</ele>
        <time>2019-10-27T13:50:56.000Z</time>
      </trkpt>
      <trkpt lat="45.5808" lon="5.73192">
        <ele>670</ele>
        <time>2019-10-27T13:50:57.000Z</time>
      </trkpt>
      <trkpt lat="45.58079" lon="5.73193">
        <ele>670.5</ele>
        <time>2019-10-27T13:50:58.000Z</time>
      </trkpt>
      <trkpt lat="45.58078" lon="5.73193">
        <ele>671</ele>
        <time>2019-10-27T13:50:59.000Z</time>
      </trkpt>
      <trkpt lat="45.58077" lon="5.73193">
        <ele>671</ele>
        <time>2019-10-27T13:51:00.000Z</time>
      </trkpt>
      <trkpt lat="45.58076" lon="5.73193">
        <ele>671</ele>
        <time>2019-10-27T13:51:01.000Z</time>
      </trkpt>
      <trkpt lat="45.58075" lon="5.73194">
        <ele>671</ele>
        <time>2019-10-27T13:51:02.000Z</time>
      </trkpt>
      <trkpt lat="45.58075" lon="5.73194">
        <ele>671</ele>
        <time>2019-10-27T13:51:03.000Z</time>
      </trkpt>
      <trkpt lat="45.58074" lon="5.73195">
        <ele>671</ele>
        <time>2019-10-27T13:51:04.000Z</time>
      </trkpt>
      <trkpt lat="45.58073" lon="5.73196">
        <ele>671</ele>
        <time>2019-10-27T13:51:05.000Z</time>
      </trkpt>
      <trkpt lat="45.58072" lon="5.73196">
        <ele>671</ele>
        <time>2019-10-27T13:51:06.000Z</time>
      </trkpt>
      <trkpt lat="45.58071" lon="5.73197">
        <ele>671</ele>
        <time>2019-10-27T13:51:07.000Z</time>
      </trkpt>
      <trkpt lat="45.58071" lon="5.73198">
        <ele>671</ele>
        <time>2019-10-27T13:51:08.000Z</time>
      </trkpt>
      <trkpt lat="45.5807" lon="5.73199">
        <ele>671</ele>
        <time>2019-10-27T13:51:09.000Z</time>
      </trkpt>
      <trkpt lat="45.58069" lon="5.732">
        <ele>671</ele>
        <time>2019-10-27T13:51:10.000Z</time>
      </trkpt>
      <trkpt lat="45.58068" lon="5.73201">
        <ele>671</ele>
        <time>2019-10-27T13:51:11.000Z</time>
      </trkpt>
      <trkpt lat="45.58067" lon="5.73203">
        <ele>671</ele>
        <time>2019-10-27T13:51:12.000Z</time>
      </trkpt>
      <trkpt lat="45.58067" lon="5.73204">
        <ele>671</ele>
        <time>2019-10-27T13:51:13.000Z</time>
      </trkpt>
      <trkpt lat="45.58066" lon="5.73205">
        <ele>671</ele>
        <time>2019-10-27T13:51:14.000Z</time>
      </trkpt>
      <trkpt lat="45.58065" lon="5.73206">
        <ele>671.3</ele>
        <time>2019-10-27T13:51:15.000Z</time>
      </trkpt>
      <trkpt lat="45.58065" lon="5.73207">
        <ele>671.7</ele>
        <time>2019-10-27T13:51:16.000Z</time>
      </trkpt>
      <trkpt lat="45.58064" lon="5.73208">
        <ele>672</ele>
        <time>2019-10-27T13:51:17.000Z</time>
      </trkpt>
      <trkpt lat="45.58064" lon="5.73209">
        <ele>672</ele>
        <time>2019-10-27T13:51:18.000Z</time>
      </trkpt>
      <trkpt lat="45.58063" lon="5.7321">
        <ele>672</ele>
        <time>2019-10-27T13:51:19.000Z</time>
      </trkpt>
      <trkpt lat="45.58063" lon="5.73211">
        <ele>672</ele>
        <time>2019-10-27T13:51:20.000Z</time>
      </trkpt>
      <trkpt lat="45.58063" lon="5.73211">
        <ele>672</ele>
        <time>2019-10-27T13:51:21.000Z</time>
      </trkpt>
      <trkpt lat="45.58063" lon="5.73212">
        <ele>672</ele>
        <time>2019-10-27T13:51:22.000Z</time>
      </trkpt>
      <trkpt lat="45.58062" lon="5.73212">
        <ele>672</ele>
        <time>2019-10-27T13:51:23.000Z</time>
      </trkpt>
      <trkpt lat="45.58062" lon="5.73213">
        <ele>672</ele>
        <time>2019-10-27T13:51:24.000Z</time>
      </trkpt>
      <trkpt lat="45.58061" lon="5.73213">
        <ele>672</ele>
        <time>2019-10-27T13:51:25.000Z</time>
      </trkpt>
      <trkpt lat="45.58061" lon="5.73213">
        <ele>672</ele>
        <time>2019-10-27T13:51:26.000Z</time>
      </trkpt>
      <trkpt lat="45.58061" lon="5.73213">
        <ele>672</ele>
        <time>2019-10-27T13:51:27.000Z</time>
      </trkpt>
      <trkpt lat="45.58061" lon="5.73213">
        <ele>672</ele>
        <time>2019-10-27T13:51:28.000Z</time>
      </trkpt>
      <trkpt lat="45.5806" lon="5.73213">
        <ele>672</ele>
        <time>2019-10-27T13:51:29.000Z</time>
      </trkpt>
      <trkpt lat="45.5806" lon="5.73213">
        <ele>672</ele>
        <time>2019-10-27T13:51:30.000Z</time>
      </trkpt>
      <trkpt lat="45.5806" lon="5.73213">
        <ele>672</ele>
        <time>2019-10-27T13:51:31.000Z</time>
      </trkpt>
      <trkpt lat="45.5806" lon="5.73212">
        <ele>672</ele>
        <time>2019-10-27T13:51:32.000Z</time>
      </trkpt>
      <trkpt lat="45.5806" lon="5.73212">
        <ele>672</ele>
        <time>2019-10-27T13:51:33.000Z</time>
      </trkpt>
      <trkpt lat="45.5806" lon="5.73212">
        <ele>672</ele>
        <time>2019-10-27T13:51:34.000Z</time>
      </trkpt>
      <trkpt lat="45.5806" lon="5.73212">
        <ele>672</ele>
        <time>2019-10-27T13:51:35.000Z</time>
      </trkpt>
      <trkpt lat="45.5806" lon="5.73212">
        <ele>672</ele>
        <time>2019-10-27T13:51:36.000Z</time>
      </trkpt>
      <trkpt lat="45.5806" lon="5.73213">
        <ele>672</ele>
        <time>2019-10-27T13:51:37.000Z</time>
      </trkpt>
      <trkpt lat="45.58059" lon="5.73213">
        <ele>672</ele>
        <time>2019-10-27T13:51:38.000Z</time>
      </trkpt>
      <trkpt lat="45.58059" lon="5.73213">
        <ele>672</ele>
        <time>2019-10-27T13:51:39.000Z</time>
      </trkpt>
      <trkpt lat="45.58059" lon="5.73214">
        <ele>672</ele>
        <time>2019-10-27T13:51:40.000Z</time>
      </trkpt>
      <trkpt lat="45.58059" lon="5.73214">
        <ele>672</ele>
        <time>2019-10-27T13:51:41.000Z</time>
      </trkpt>
      <trkpt lat="45.58058" lon="5.73215">
        <ele>672</ele>
        <time>2019-10-27T13:51:42.000Z</time>
      </trkpt>
      <trkpt lat="45.58058" lon="5.73216">
        <ele>672</ele>
        <time>2019-10-27T13:51:43.000Z</time>
      </trkpt>
      <trkpt lat="45.58058" lon="5.73217">
        <ele>672</ele>
        <time>2019-10-27T13:51:44.000Z</time>
      </trkpt>
      <trkpt lat="45.58058" lon="5.73218">
        <ele>672</ele>
        <time>2019-10-27T13:51:45.000Z</time>
      </trkpt>
      <trkpt lat="45.58057" lon="5.73219">
        <ele>672</ele>
        <time>2019-10-27T13:51:46.000Z</time>
      </trkpt>
      <trkpt lat="45.58057" lon="5.7322">
        <ele>672</ele>
        <time>2019-10-27T13:51:47.000Z</time>
      </trkpt>
      <trkpt lat="45.58057" lon="5.73221">
        <ele>672.5</ele>
        <time>2019-10-27T13:51:48.000Z</time>
      </trkpt>
      <trkpt lat="45.58057" lon="5.73222">
        <ele>673</ele>
        <time>2019-10-27T13:51:49.000Z</time>
      </trkpt>
      <trkpt lat="45.58056" lon="5.73224">
        <ele>673</ele>
        <time>2019-10-27T13:51:50.000Z</time>
      </trkpt>
      <trkpt lat="45.58056" lon="5.73225">
        <ele>673</ele>
        <time>2019-10-27T13:51:51.000Z</time>
      </trkpt>
      <trkpt lat="45.58056" lon="5.73226">
        <ele>673</ele>
        <time>2019-10-27T13:51:52.000Z</time>
      </trkpt>
      <trkpt lat="45.58056" lon="5.73227">
        <ele>673</ele>
        <time>2019-10-27T13:51:53.000Z</time>
      </trkpt>
      <trkpt lat="45.58055" lon="5.73228">
        <ele>673</ele>
        <time>2019-10-27T13:51:54.000Z</time>
      </trkpt>
      <trkpt lat="45.58055" lon="5.73229">
        <ele>673</ele>
        <time>2019-10-27T13:51:55.000Z</time>
      </trkpt>
      <trkpt lat="45.58055" lon="5.73231">
        <ele>673</ele>
        <time>2019-10-27T13:51:56.000Z</time>
      </trkpt>
      <trkpt lat="45.58055" lon="5.73232">
        <ele>673</ele>
        <time>2019-10-27T13:51:57.000Z</time>
      </trkpt>
      <trkpt lat="45.58054" lon="5.73233">
        <ele>674</ele>
        <time>2019-10-27T13:51:58.000Z</time>
      </trkpt>
      <trkpt lat="45.58054" lon="5.73235">
        <ele>674</ele>
        <time>2019-10-27T13:51:59.000Z</time>
      </trkpt>
      <trkpt lat="45.58054" lon="5.73236">
        <ele>674</ele>
        <time>2019-10-27T13:52:00.000Z</time>
      </trkpt>
      <trkpt lat="45.58054" lon="5.73238">
        <ele>674</ele>
        <time>2019-10-27T13:52:01.000Z</time>
      </trkpt>
      <trkpt lat="45.58053" lon="5.7324">
        <ele>674</ele>
        <time>2019-10-27T13:52:02.000Z</time>
      </trkpt>
      <trkpt lat="45.58053" lon="5.73242">
        <ele>674</ele>
        <time>2019-10-27T13:52:03.000Z</time>
      </trkpt>
      <trkpt lat="45.58052" lon="5.73244">
        <ele>674</ele>
        <time>2019-10-27T13:52:05.000Z</time>
      </trkpt>
      <trkpt lat="45.58052" lon="5.73246">
        <ele>674</ele>
        <time>2019-10-27T13:52:06.000Z</time>
      </trkpt>
      <trkpt lat="45.58051" lon="5.73248">
        <ele>675</ele>
        <time>2019-10-27T13:52:07.000Z</time>
      </trkpt>
      <trkpt lat="45.58051" lon="5.73251">
        <ele>675</ele>
        <time>2019-10-27T13:52:08.000Z</time>
      </trkpt>
      <trkpt lat="45.5805" lon="5.73253">
        <ele>675</ele>
        <time>2019-10-27T13:52:09.000Z</time>
      </trkpt>
      <trkpt lat="45.5805" lon="5.73255">
        <ele>675</ele>
        <time>2019-10-27T13:52:10.000Z</time>
      </trkpt>
      <trkpt lat="45.5805" lon="5.73256">
        <ele>675</ele>
        <time>2019-10-27T13:52:11.000Z</time>
      </trkpt>
      <trkpt lat="45.5805" lon="5.73258">
        <ele>675</ele>
        <time>2019-10-27T13:52:12.000Z</time>
      </trkpt>
      <trkpt lat="45.5805" lon="5.73259">
        <ele>675</ele>
        <time>2019-10-27T13:52:13.000Z</time>
      </trkpt>
      <trkpt lat="45.5805" lon="5.73261">
        <ele>675</ele>
        <time>2019-10-27T13:52:14.000Z</time>
      </trkpt>
      <trkpt lat="45.5805" lon="5.73262">
        <ele>675.5</ele>
        <time>2019-10-27T13:52:15.000Z</time>
      </trkpt>
      <trkpt lat="45.58051" lon="5.73263">
        <ele>676</ele>
        <time>2019-10-27T13:52:16.000Z</time>
      </trkpt>
      <trkpt lat="45.58051" lon="5.73264">
        <ele>676</ele>
        <time>2019-10-27T13:52:17.000Z</time>
      </trkpt>
      <trkpt lat="45.58051" lon="5.73265">
        <ele>676</ele>
        <time>2019-10-27T13:52:18.000Z</time>
      </trkpt>
      <trkpt lat="45.58051" lon="5.73267">
        <ele>676</ele>
        <time>2019-10-27T13:52:19.000Z</time>
      </trkpt>
      <trkpt lat="45.58051" lon="5.73268">
        <ele>676</ele>
        <time>2019-10-27T13:52:20.000Z</time>
      </trkpt>
      <trkpt lat="45.58051" lon="5.73269">
        <ele>676</ele>
        <time>2019-10-27T13:52:21.000Z</time>
      </trkpt>
      <trkpt lat="45.58051" lon="5.7327">
        <ele>676</ele>
        <time>2019-10-27T13:52:22.000Z</time>
      </trkpt>
      <trkpt lat="45.58051" lon="5.73271">
        <ele>676</ele>
        <time>2019-10-27T13:52:23.000Z</time>
      </trkpt>
      <trkpt lat="45.5805" lon="5.73272">
        <ele>676</ele>
        <time>2019-10-27T13:52:24.000Z</time>
      </trkpt>
      <trkpt lat="45.5805" lon="5.73273">
        <ele>676</ele>
        <time>2019-10-27T13:52:25.000Z</time>
      </trkpt>
      <trkpt lat="45.5805" lon="5.73274">
        <ele>676</ele>
        <time>2019-10-27T13:52:26.000Z</time>
      </trkpt>
      <trkpt lat="45.5805" lon="5.73276">
        <ele>676.5</ele>
        <time>2019-10-27T13:52:27.000Z</time>
      </trkpt>
      <trkpt lat="45.58049" lon="5.73277">
        <ele>677</ele>
        <time>2019-10-27T13:52:28.000Z</time>
      </trkpt>
      <trkpt lat="45.58049" lon="5.73278">
        <ele>677</ele>
        <time>2019-10-27T13:52:29.000Z</time>
      </trkpt>
      <trkpt lat="45.58049" lon="5.7328">
        <ele>677</ele>
        <time>2019-10-27T13:52:30.000Z</time>
      </trkpt>
      <trkpt lat="45.58049" lon="5.73281">
        <ele>677</ele>
        <time>2019-10-27T13:52:31.000Z</time>
      </trkpt>
      <trkpt lat="45.58049" lon="5.73283">
        <ele>677</ele>
        <time>2019-10-27T13:52:32.000Z</time>
      </trkpt>
      <trkpt lat="45.58049" lon="5.73284">
        <ele>677</ele>
        <time>2019-10-27T13:52:33.000Z</time>
      </trkpt>
      <trkpt lat="45.58048" lon="5.73286">
        <ele>677</ele>
        <time>2019-10-27T13:52:34.000Z</time>
      </trkpt>
      <trkpt lat="45.58048" lon="5.73288">
        <ele>677</ele>
        <time>2019-10-27T13:52:35.000Z</time>
      </trkpt>
      <trkpt lat="45.58048" lon="5.7329">
        <ele>677</ele>
        <time>2019-10-27T13:52:36.000Z</time>
      </trkpt>
      <trkpt lat="45.58048" lon="5.73292">
        <ele>677</ele>
        <time>2019-10-27T13:52:37.000Z</time>
      </trkpt>
      <trkpt lat="45.58048" lon="5.73294">
        <ele>677</ele>
        <time>2019-10-27T13:52:38.000Z</time>
      </trkpt>
      <trkpt lat="45.58048" lon="5.73295">
        <ele>677.5</ele>
        <time>2019-10-27T13:52:39.000Z</time>
      </trkpt>
      <trkpt lat="45.58048" lon="5.73297">
        <ele>678</ele>
        <time>2019-10-27T13:52:40.000Z</time>
      </trkpt>
      <trkpt lat="45.58048" lon="5.73299">
        <ele>678</ele>
        <time>2019-10-27T13:52:41.000Z</time>
      </trkpt>
      <trkpt lat="45.58047" lon="5.733">
        <ele>678</ele>
        <time>2019-10-27T13:52:42.000Z</time>
      </trkpt>
      <trkpt lat="45.58047" lon="5.73302">
        <ele>678</ele>
        <time>2019-10-27T13:52:43.000Z</time>
      </trkpt>
      <trkpt lat="45.58047" lon="5.73303">
        <ele>678</ele>
        <time>2019-10-27T13:52:44.000Z</time>
      </trkpt>
      <trkpt lat="45.58046" lon="5.73304">
        <ele>678</ele>
        <time>2019-10-27T13:52:45.000Z</time>
      </trkpt>
      <trkpt lat="45.58046" lon="5.73306">
        <ele>678</ele>
        <time>2019-10-27T13:52:46.000Z</time>
      </trkpt>
      <trkpt lat="45.58045" lon="5.73307">
        <ele>678</ele>
        <time>2019-10-27T13:52:47.000Z</time>
      </trkpt>
      <trkpt lat="45.58045" lon="5.73308">
        <ele>678</ele>
        <time>2019-10-27T13:52:48.000Z</time>
      </trkpt>
      <trkpt lat="45.58045" lon="5.73309">
        <ele>678</ele>
        <time>2019-10-27T13:52:49.000Z</time>
      </trkpt>
      <trkpt lat="45.58044" lon="5.7331">
        <ele>678</ele>
        <time>2019-10-27T13:52:50.000Z</time>
      </trkpt>
      <trkpt lat="45.58044" lon="5.73311">
        <ele>678</ele>
        <time>2019-10-27T13:52:51.000Z</time>
      </trkpt>
      <trkpt lat="45.58044" lon="5.73312">
        <ele>678</ele>
        <time>2019-10-27T13:52:52.000Z</time>
      </trkpt>
      <trkpt lat="45.58043" lon="5.73313">
        <ele>679</ele>
        <time>2019-10-27T13:52:53.000Z</time>
      </trkpt>
      <trkpt lat="45.58043" lon="5.73315">
        <ele>679</ele>
        <time>2019-10-27T13:52:54.000Z</time>
      </trkpt>
      <trkpt lat="45.58043" lon="5.73316">
        <ele>679</ele>
        <time>2019-10-27T13:52:55.000Z</time>
      </trkpt>
      <trkpt lat="45.58043" lon="5.73317">
        <ele>679</ele>
        <time>2019-10-27T13:52:56.000Z</time>
      </trkpt>
      <trkpt lat="45.58043" lon="5.73318">
        <ele>679</ele>
        <time>2019-10-27T13:52:57.000Z</time>
      </trkpt>
      <trkpt lat="45.58043" lon="5.7332">
        <ele>679</ele>
        <time>2019-10-27T13:52:58.000Z</time>
      </trkpt>
      <trkpt lat="45.58043" lon="5.73321">
        <ele>679</ele>
        <time>2019-10-27T13:52:59.000Z</time>
      </trkpt>
      <trkpt lat="45.58043" lon="5.73323">
        <ele>679</ele>
        <time>2019-10-27T13:53:00.000Z</time>
      </trkpt>
      <trkpt lat="45.58043" lon="5.73324">
        <ele>679.5</ele>
        <time>2019-10-27T13:53:01.000Z</time>
      </trkpt>
      <trkpt lat="45.58043" lon="5.73325">
        <ele>680</ele>
        <time>2019-10-27T13:53:02.000Z</time>
      </trkpt>
      <trkpt lat="45.58042" lon="5.73326">
        <ele>680</ele>
        <time>2019-10-27T13:53:03.000Z</time>
      </trkpt>
      <trkpt lat="45.58042" lon="5.73327">
        <ele>680</ele>
        <time>2019-10-27T13:53:04.000Z</time>
      </trkpt>
      <trkpt lat="45.58042" lon="5.73328">
        <ele>680</ele>
        <time>2019-10-27T13:53:05.000Z</time>
      </trkpt>
      <trkpt lat="45.58042" lon="5.73329">
        <ele>680</ele>
        <time>2019-10-27T13:53:06.000Z</time>
      </trkpt>
      <trkpt lat="45.58042" lon="5.7333">
        <ele>680</ele>
        <time>2019-10-27T13:53:07.000Z</time>
      </trkpt>
      <trkpt lat="45.58042" lon="5.73331">
        <ele>680</ele>
        <time>2019-10-27T13:53:08.000Z</time>
      </trkpt>
      <trkpt lat="45.58042" lon="5.73332">
        <ele>680</ele>
        <time>2019-10-27T13:53:09.000Z</time>
      </trkpt>
      <trkpt lat="45.58042" lon="5.73333">
        <ele>680</ele>
        <time>2019-10-27T13:53:10.000Z</time>
      </trkpt>
      <trkpt lat="45.58042" lon="5.73335">
        <ele>681</ele>
        <time>2019-10-27T13:53:11.000Z</time>
      </trkpt>
      <trkpt lat="45.58042" lon="5.73336">
        <ele>681</ele>
        <time>2019-10-27T13:53:12.000Z</time>
      </trkpt>
      <trkpt lat="45.58042" lon="5.73337">
        <ele>681</ele>
        <time>2019-10-27T13:53:13.000Z</time>
      </trkpt>
      <trkpt lat="45.58042" lon="5.73338">
        <ele>681</ele>
        <time>2019-10-27T13:53:14.000Z</time>
      </trkpt>
      <trkpt lat="45.58043" lon="5.7334">
        <ele>681</ele>
        <time>2019-10-27T13:53:15.000Z</time>
      </trkpt>
      <trkpt lat="45.58043" lon="5.73341">
        <ele>681.5</ele>
        <time>2019-10-27T13:53:16.000Z</time>
      </trkpt>
      <trkpt lat="45.58043" lon="5.73342">
        <ele>682</ele>
        <time>2019-10-27T13:53:17.000Z</time>
      </trkpt>
      <trkpt lat="45.58043" lon="5.73343">
        <ele>682</ele>
        <time>2019-10-27T13:53:18.000Z</time>
      </trkpt>
      <trkpt lat="45.58043" lon="5.73344">
        <ele>682</ele>
        <time>2019-10-27T13:53:19.000Z</time>
      </trkpt>
      <trkpt lat="45.58043" lon="5.73346">
        <ele>682</ele>
        <time>2019-10-27T13:53:20.000Z</time>
      </trkpt>
      <trkpt lat="45.58043" lon="5.73347">
        <ele>682</ele>
        <time>2019-10-27T13:53:21.000Z</time>
      </trkpt>
      <trkpt lat="45.58043" lon="5.73348">
        <ele>682</ele>
        <time>2019-10-27T13:53:22.000Z</time>
      </trkpt>
      <trkpt lat="45.58042" lon="5.7335">
        <ele>682</ele>
        <time>2019-10-27T13:53:23.000Z</time>
      </trkpt>
      <trkpt lat="45.58042" lon="5.73351">
        <ele>682</ele>
        <time>2019-10-27T13:53:24.000Z</time>
      </trkpt>
      <trkpt lat="45.58041" lon="5.73353">
        <ele>682.5</ele>
        <time>2019-10-27T13:53:25.000Z</time>
      </trkpt>
      <trkpt lat="45.5804" lon="5.73354">
        <ele>683</ele>
        <time>2019-10-27T13:53:26.000Z</time>
      </trkpt>
      <trkpt lat="45.58039" lon="5.73355">
        <ele>683</ele>
        <time>2019-10-27T13:53:27.000Z</time>
      </trkpt>
      <trkpt lat="45.58039" lon="5.73357">
        <ele>683</ele>
        <time>2019-10-27T13:53:28.000Z</time>
      </trkpt>
      <trkpt lat="45.58038" lon="5.73358">
        <ele>683</ele>
        <time>2019-10-27T13:53:29.000Z</time>
      </trkpt>
      <trkpt lat="45.58037" lon="5.7336">
        <ele>683</ele>
        <time>2019-10-27T13:53:30.000Z</time>
      </trkpt>
      <trkpt lat="45.58036" lon="5.73361">
        <ele>683</ele>
        <time>2019-10-27T13:53:31.000Z</time>
      </trkpt>
      <trkpt lat="45.58035" lon="5.73362">
        <ele>683</ele>
        <time>2019-10-27T13:53:32.000Z</time>
      </trkpt>
      <trkpt lat="45.58034" lon="5.73363">
        <ele>683.5</ele>
        <time>2019-10-27T13:53:33.000Z</time>
      </trkpt>
      <trkpt lat="45.58033" lon="5.73364">
        <ele>684</ele>
        <time>2019-10-27T13:53:34.000Z</time>
      </trkpt>
      <trkpt lat="45.58033" lon="5.73365">
        <ele>684</ele>
        <time>2019-10-27T13:53:35.000Z</time>
      </trkpt>
      <trkpt lat="45.58032" lon="5.73366">
        <ele>684</ele>
        <time>2019-10-27T13:53:36.000Z</time>
      </trkpt>
      <trkpt lat="45.58032" lon="5.73367">
        <ele>684</ele>
        <time>2019-10-27T13:53:37.000Z</time>
      </trkpt>
      <trkpt lat="45.58031" lon="5.73368">
        <ele>684</ele>
        <time>2019-10-27T13:53:38.000Z</time>
      </trkpt>
      <trkpt lat="45.58031" lon="5.73369">
        <ele>684</ele>
        <time>2019-10-27T13:53:39.000Z</time>
      </trkpt>
      <trkpt lat="45.5803" lon="5.7337">
        <ele>684</ele>
        <time>2019-10-27T13:53:40.000Z</time>
      </trkpt>
      <trkpt lat="45.58029" lon="5.73371">
        <ele>684.5</ele>
        <time>2019-10-27T13:53:41.000Z</time>
      </trkpt>
      <trkpt lat="45.58028" lon="5.73372">
        <ele>685</ele>
        <time>2019-10-27T13:53:42.000Z</time>
      </trkpt>
      <trkpt lat="45.58027" lon="5.73374">
        <ele>685</ele>
        <time>2019-10-27T13:53:43.000Z</time>
      </trkpt>
      <trkpt lat="45.58026" lon="5.73375">
        <ele>685</ele>
        <time>2019-10-27T13:53:44.000Z</time>
      </trkpt>
      <trkpt lat="45.58025" lon="5.73377">
        <ele>685</ele>
        <time>2019-10-27T13:53:45.000Z</time>
      </trkpt>
      <trkpt lat="45.58024" lon="5.73378">
        <ele>685</ele>
        <time>2019-10-27T13:53:46.000Z</time>
      </trkpt>
      <trkpt lat="45.58023" lon="5.7338">
        <ele>685</ele>
        <time>2019-10-27T13:53:47.000Z</time>
      </trkpt>
      <trkpt lat="45.58022" lon="5.73381">
        <ele>685</ele>
        <time>2019-10-27T13:53:48.000Z</time>
      </trkpt>
      <trkpt lat="45.58021" lon="5.73382">
        <ele>685</ele>
        <time>2019-10-27T13:53:49.000Z</time>
      </trkpt>
      <trkpt lat="45.5802" lon="5.73383">
        <ele>685</ele>
        <time>2019-10-27T13:53:50.000Z</time>
      </trkpt>
      <trkpt lat="45.58019" lon="5.73384">
        <ele>685.5</ele>
        <time>2019-10-27T13:53:51.000Z</time>
      </trkpt>
      <trkpt lat="45.58018" lon="5.73385">
        <ele>686</ele>
        <time>2019-10-27T13:53:52.000Z</time>
      </trkpt>
      <trkpt lat="45.58018" lon="5.73386">
        <ele>686</ele>
        <time>2019-10-27T13:53:53.000Z</time>
      </trkpt>
      <trkpt lat="45.58017" lon="5.73387">
        <ele>686</ele>
        <time>2019-10-27T13:53:54.000Z</time>
      </trkpt>
      <trkpt lat="45.58016" lon="5.73388">
        <ele>686</ele>
        <time>2019-10-27T13:53:55.000Z</time>
      </trkpt>
      <trkpt lat="45.58016" lon="5.73389">
        <ele>686</ele>
        <time>2019-10-27T13:53:56.000Z</time>
      </trkpt>
      <trkpt lat="45.58015" lon="5.7339">
        <ele>686.5</ele>
        <time>2019-10-27T13:53:57.000Z</time>
      </trkpt>
      <trkpt lat="45.58014" lon="5.73391">
        <ele>687</ele>
        <time>2019-10-27T13:53:58.000Z</time>
      </trkpt>
      <trkpt lat="45.58013" lon="5.73392">
        <ele>687</ele>
        <time>2019-10-27T13:53:59.000Z</time>
      </trkpt>
      <trkpt lat="45.58013" lon="5.73393">
        <ele>687</ele>
        <time>2019-10-27T13:54:00.000Z</time>
      </trkpt>
      <trkpt lat="45.58012" lon="5.73394">
        <ele>687</ele>
        <time>2019-10-27T13:54:01.000Z</time>
      </trkpt>
      <trkpt lat="45.58011" lon="5.73395">
        <ele>687</ele>
        <time>2019-10-27T13:54:02.000Z</time>
      </trkpt>
      <trkpt lat="45.58011" lon="5.73396">
        <ele>687.5</ele>
        <time>2019-10-27T13:54:03.000Z</time>
      </trkpt>
      <trkpt lat="45.5801" lon="5.73397">
        <ele>688</ele>
        <time>2019-10-27T13:54:04.000Z</time>
      </trkpt>
      <trkpt lat="45.58009" lon="5.73398">
        <ele>688</ele>
        <time>2019-10-27T13:54:05.000Z</time>
      </trkpt>
      <trkpt lat="45.58009" lon="5.73399">
        <ele>688</ele>
        <time>2019-10-27T13:54:06.000Z</time>
      </trkpt>
      <trkpt lat="45.58008" lon="5.73399">
        <ele>688</ele>
        <time>2019-10-27T13:54:07.000Z</time>
      </trkpt>
      <trkpt lat="45.58007" lon="5.734">
        <ele>688</ele>
        <time>2019-10-27T13:54:08.000Z</time>
      </trkpt>
      <trkpt lat="45.58007" lon="5.73402">
        <ele>688</ele>
        <time>2019-10-27T13:54:09.000Z</time>
      </trkpt>
      <trkpt lat="45.58006" lon="5.73403">
        <ele>688</ele>
        <time>2019-10-27T13:54:10.000Z</time>
      </trkpt>
      <trkpt lat="45.58005" lon="5.73404">
        <ele>688.5</ele>
        <time>2019-10-27T13:54:11.000Z</time>
      </trkpt>
      <trkpt lat="45.58005" lon="5.73405">
        <ele>689</ele>
        <time>2019-10-27T13:54:12.000Z</time>
      </trkpt>
      <trkpt lat="45.58004" lon="5.73406">
        <ele>689</ele>
        <time>2019-10-27T13:54:13.000Z</time>
      </trkpt>
      <trkpt lat="45.58004" lon="5.73407">
        <ele>689</ele>
        <time>2019-10-27T13:54:14.000Z</time>
      </trkpt>
      <trkpt lat="45.58003" lon="5.73408">
        <ele>689</ele>
        <time>2019-10-27T13:54:15.000Z</time>
      </trkpt>
      <trkpt lat="45.58003" lon="5.73409">
        <ele>689</ele>
        <time>2019-10-27T13:54:16.000Z</time>
      </trkpt>
      <trkpt lat="45.58002" lon="5.7341">
        <ele>689.5</ele>
        <time>2019-10-27T13:54:17.000Z</time>
      </trkpt>
      <trkpt lat="45.58002" lon="5.73411">
        <ele>690</ele>
        <time>2019-10-27T13:54:18.000Z</time>
      </trkpt>
      <trkpt lat="45.58001" lon="5.73412">
        <ele>690</ele>
        <time>2019-10-27T13:54:19.000Z</time>
      </trkpt>
      <trkpt lat="45.58" lon="5.73413">
        <ele>690</ele>
        <time>2019-10-27T13:54:20.000Z</time>
      </trkpt>
      <trkpt lat="45.58" lon="5.73414">
        <ele>690</ele>
        <time>2019-10-27T13:54:21.000Z</time>
      </trkpt>
      <trkpt lat="45.57999" lon="5.73415">
        <ele>690</ele>
        <time>2019-10-27T13:54:22.000Z</time>
      </trkpt>
      <trkpt lat="45.57998" lon="5.73416">
        <ele>690</ele>
        <time>2019-10-27T13:54:23.000Z</time>
      </trkpt>
      <trkpt lat="45.57997" lon="5.73417">
        <ele>690</ele>
        <time>2019-10-27T13:54:24.000Z</time>
      </trkpt>
      <trkpt lat="45.57996" lon="5.73418">
        <ele>690.5</ele>
        <time>2019-10-27T13:54:25.000Z</time>
      </trkpt>
      <trkpt lat="45.57995" lon="5.73419">
        <ele>691</ele>
        <time>2019-10-27T13:54:26.000Z</time>
      </trkpt>
      <trkpt lat="45.57994" lon="5.73421">
        <ele>691</ele>
        <time>2019-10-27T13:54:27.000Z</time>
      </trkpt>
      <trkpt lat="45.57994" lon="5.73422">
        <ele>691</ele>
        <time>2019-10-27T13:54:28.000Z</time>
      </trkpt>
      <trkpt lat="45.57993" lon="5.73423">
        <ele>691</ele>
        <time>2019-10-27T13:54:29.000Z</time>
      </trkpt>
      <trkpt lat="45.57992" lon="5.73424">
        <ele>691</ele>
        <time>2019-10-27T13:54:30.000Z</time>
      </trkpt>
      <trkpt lat="45.57991" lon="5.73425">
        <ele>691</ele>
        <time>2019-10-27T13:54:31.000Z</time>
      </trkpt>
      <trkpt lat="45.5799" lon="5.73426">
        <ele>691</ele>
        <time>2019-10-27T13:54:32.000Z</time>
      </trkpt>
      <trkpt lat="45.57989" lon="5.73428">
        <ele>691</ele>
        <time>2019-10-27T13:54:33.000Z</time>
      </trkpt>
      <trkpt lat="45.57988" lon="5.73429">
        <ele>691</ele>
        <time>2019-10-27T13:54:34.000Z</time>
      </trkpt>
      <trkpt lat="45.57988" lon="5.7343">
        <ele>691</ele>
        <time>2019-10-27T13:54:35.000Z</time>
      </trkpt>
      <trkpt lat="45.57987" lon="5.73432">
        <ele>691</ele>
        <time>2019-10-27T13:54:36.000Z</time>
      </trkpt>
      <trkpt lat="45.57987" lon="5.73433">
        <ele>691</ele>
        <time>2019-10-27T13:54:37.000Z</time>
      </trkpt>
      <trkpt lat="45.57986" lon="5.73434">
        <ele>691</ele>
        <time>2019-10-27T13:54:38.000Z</time>
      </trkpt>
      <trkpt lat="45.57986" lon="5.73435">
        <ele>691</ele>
        <time>2019-10-27T13:54:39.000Z</time>
      </trkpt>
      <trkpt lat="45.57986" lon="5.73437">
        <ele>691</ele>
        <time>2019-10-27T13:54:40.000Z</time>
      </trkpt>
      <trkpt lat="45.57985" lon="5.73438">
        <ele>691</ele>
        <time>2019-10-27T13:54:41.000Z</time>
      </trkpt>
      <trkpt lat="45.57985" lon="5.73439">
        <ele>691</ele>
        <time>2019-10-27T13:54:42.000Z</time>
      </trkpt>
      <trkpt lat="45.57985" lon="5.7344">
        <ele>691</ele>
        <time>2019-10-27T13:54:43.000Z</time>
      </trkpt>
      <trkpt lat="45.57984" lon="5.73441">
        <ele>691</ele>
        <time>2019-10-27T13:54:44.000Z</time>
      </trkpt>
      <trkpt lat="45.57984" lon="5.73442">
        <ele>691</ele>
        <time>2019-10-27T13:54:45.000Z</time>
      </trkpt>
      <trkpt lat="45.57983" lon="5.73444">
        <ele>691</ele>
        <time>2019-10-27T13:54:46.000Z</time>
      </trkpt>
      <trkpt lat="45.57982" lon="5.73445">
        <ele>691</ele>
        <time>2019-10-27T13:54:47.000Z</time>
      </trkpt>
      <trkpt lat="45.57981" lon="5.73446">
        <ele>691</ele>
        <time>2019-10-27T13:54:48.000Z</time>
      </trkpt>
      <trkpt lat="45.57981" lon="5.73448">
        <ele>691</ele>
        <time>2019-10-27T13:54:49.000Z</time>
      </trkpt>
      <trkpt lat="45.5798" lon="5.73449">
        <ele>691</ele>
        <time>2019-10-27T13:54:50.000Z</time>
      </trkpt>
      <trkpt lat="45.57979" lon="5.7345">
        <ele>691</ele>
        <time>2019-10-27T13:54:51.000Z</time>
      </trkpt>
      <trkpt lat="45.57979" lon="5.73452">
        <ele>691</ele>
        <time>2019-10-27T13:54:52.000Z</time>
      </trkpt>
      <trkpt lat="45.57978" lon="5.73453">
        <ele>691</ele>
        <time>2019-10-27T13:54:53.000Z</time>
      </trkpt>
      <trkpt lat="45.57977" lon="5.73454">
        <ele>691</ele>
        <time>2019-10-27T13:54:54.000Z</time>
      </trkpt>
      <trkpt lat="45.57977" lon="5.73456">
        <ele>690.5</ele>
        <time>2019-10-27T13:54:55.000Z</time>
      </trkpt>
      <trkpt lat="45.57976" lon="5.73457">
        <ele>690</ele>
        <time>2019-10-27T13:54:56.000Z</time>
      </trkpt>
      <trkpt lat="45.57975" lon="5.73458">
        <ele>690</ele>
        <time>2019-10-27T13:54:57.000Z</time>
      </trkpt>
      <trkpt lat="45.57975" lon="5.73459">
        <ele>690</ele>
        <time>2019-10-27T13:54:58.000Z</time>
      </trkpt>
      <trkpt lat="45.57974" lon="5.73461">
        <ele>690</ele>
        <time>2019-10-27T13:54:59.000Z</time>
      </trkpt>
      <trkpt lat="45.57973" lon="5.73462">
        <ele>690</ele>
        <time>2019-10-27T13:55:00.000Z</time>
      </trkpt>
      <trkpt lat="45.57972" lon="5.73463">
        <ele>690</ele>
        <time>2019-10-27T13:55:01.000Z</time>
      </trkpt>
      <trkpt lat="45.57971" lon="5.73465">
        <ele>690</ele>
        <time>2019-10-27T13:55:02.000Z</time>
      </trkpt>
      <trkpt lat="45.57971" lon="5.73466">
        <ele>689.5</ele>
        <time>2019-10-27T13:55:03.000Z</time>
      </trkpt>
      <trkpt lat="45.5797" lon="5.73467">
        <ele>689</ele>
        <time>2019-10-27T13:55:04.000Z</time>
      </trkpt>
      <trkpt lat="45.57969" lon="5.73468">
        <ele>689</ele>
        <time>2019-10-27T13:55:05.000Z</time>
      </trkpt>
      <trkpt lat="45.57969" lon="5.7347">
        <ele>689</ele>
        <time>2019-10-27T13:55:06.000Z</time>
      </trkpt>
      <trkpt lat="45.57968" lon="5.73471">
        <ele>689</ele>
        <time>2019-10-27T13:55:07.000Z</time>
      </trkpt>
      <trkpt lat="45.57967" lon="5.73472">
        <ele>689</ele>
        <time>2019-10-27T13:55:08.000Z</time>
      </trkpt>
      <trkpt lat="45.57967" lon="5.73473">
        <ele>689</ele>
        <time>2019-10-27T13:55:09.000Z</time>
      </trkpt>
      <trkpt lat="45.57966" lon="5.73475">
        <ele>689</ele>
        <time>2019-10-27T13:55:10.000Z</time>
      </trkpt>
      <trkpt lat="45.57966" lon="5.73476">
        <ele>688.5</ele>
        <time>2019-10-27T13:55:11.000Z</time>
      </trkpt>
      <trkpt lat="45.57966" lon="5.73477">
        <ele>688</ele>
        <time>2019-10-27T13:55:12.000Z</time>
      </trkpt>
      <trkpt lat="45.57965" lon="5.73478">
        <ele>688</ele>
        <time>2019-10-27T13:55:13.000Z</time>
      </trkpt>
      <trkpt lat="45.57965" lon="5.7348">
        <ele>688</ele>
        <time>2019-10-27T13:55:14.000Z</time>
      </trkpt>
      <trkpt lat="45.57964" lon="5.73481">
        <ele>688</ele>
        <time>2019-10-27T13:55:15.000Z</time>
      </trkpt>
      <trkpt lat="45.57964" lon="5.73482">
        <ele>688</ele>
        <time>2019-10-27T13:55:16.000Z</time>
      </trkpt>
      <trkpt lat="45.57963" lon="5.73484">
        <ele>688</ele>
        <time>2019-10-27T13:55:17.000Z</time>
      </trkpt>
      <trkpt lat="45.57963" lon="5.73485">
        <ele>687.7</ele>
        <time>2019-10-27T13:55:18.000Z</time>
      </trkpt>
      <trkpt lat="45.57962" lon="5.73486">
        <ele>687.3</ele>
        <time>2019-10-27T13:55:19.000Z</time>
      </trkpt>
      <trkpt lat="45.57962" lon="5.73488">
        <ele>687</ele>
        <time>2019-10-27T13:55:20.000Z</time>
      </trkpt>
      <trkpt lat="45.57961" lon="5.73489">
        <ele>687</ele>
        <time>2019-10-27T13:55:21.000Z</time>
      </trkpt>
      <trkpt lat="45.57961" lon="5.7349">
        <ele>687</ele>
        <time>2019-10-27T13:55:22.000Z</time>
      </trkpt>
      <trkpt lat="45.5796" lon="5.73491">
        <ele>687</ele>
        <time>2019-10-27T13:55:23.000Z</time>
      </trkpt>
      <trkpt lat="45.5796" lon="5.73493">
        <ele>687</ele>
        <time>2019-10-27T13:55:24.000Z</time>
      </trkpt>
      <trkpt lat="45.57959" lon="5.73494">
        <ele>687</ele>
        <time>2019-10-27T13:55:25.000Z</time>
      </trkpt>
      <trkpt lat="45.57959" lon="5.73495">
        <ele>687</ele>
        <time>2019-10-27T13:55:26.000Z</time>
      </trkpt>
      <trkpt lat="45.57958" lon="5.73496">
        <ele>686.5</ele>
        <time>2019-10-27T13:55:27.000Z</time>
      </trkpt>
      <trkpt lat="45.57957" lon="5.73498">
        <ele>686</ele>
        <time>2019-10-27T13:55:28.000Z</time>
      </trkpt>
      <trkpt lat="45.57956" lon="5.73499">
        <ele>686</ele>
        <time>2019-10-27T13:55:29.000Z</time>
      </trkpt>
      <trkpt lat="45.57955" lon="5.735">
        <ele>686</ele>
        <time>2019-10-27T13:55:30.000Z</time>
      </trkpt>
      <trkpt lat="45.57954" lon="5.73501">
        <ele>686</ele>
        <time>2019-10-27T13:55:31.000Z</time>
      </trkpt>
      <trkpt lat="45.57953" lon="5.73502">
        <ele>686</ele>
        <time>2019-10-27T13:55:32.000Z</time>
      </trkpt>
      <trkpt lat="45.57952" lon="5.73503">
        <ele>686</ele>
        <time>2019-10-27T13:55:33.000Z</time>
      </trkpt>
      <trkpt lat="45.57952" lon="5.73504">
        <ele>686</ele>
        <time>2019-10-27T13:55:34.000Z</time>
      </trkpt>
      <trkpt lat="45.57951" lon="5.73505">
        <ele>685.5</ele>
        <time>2019-10-27T13:55:35.000Z</time>
      </trkpt>
      <trkpt lat="45.5795" lon="5.73506">
        <ele>685</ele>
        <time>2019-10-27T13:55:36.000Z</time>
      </trkpt>
      <trkpt lat="45.5795" lon="5.73507">
        <ele>685</ele>
        <time>2019-10-27T13:55:37.000Z</time>
      </trkpt>
      <trkpt lat="45.57949" lon="5.73508">
        <ele>685</ele>
        <time>2019-10-27T13:55:38.000Z</time>
      </trkpt>
      <trkpt lat="45.57949" lon="5.7351">
        <ele>685</ele>
        <time>2019-10-27T13:55:39.000Z</time>
      </trkpt>
      <trkpt lat="45.57949" lon="5.73511">
        <ele>685</ele>
        <time>2019-10-27T13:55:40.000Z</time>
      </trkpt>
      <trkpt lat="45.57948" lon="5.73512">
        <ele>685</ele>
        <time>2019-10-27T13:55:41.000Z</time>
      </trkpt>
      <trkpt lat="45.57948" lon="5.73513">
        <ele>685</ele>
        <time>2019-10-27T13:55:42.000Z</time>
      </trkpt>
      <trkpt lat="45.57947" lon="5.73514">
        <ele>684</ele>
        <time>2019-10-27T13:55:43.000Z</time>
      </trkpt>
      <trkpt lat="45.57947" lon="5.73515">
        <ele>684</ele>
        <time>2019-10-27T13:55:44.000Z</time>
      </trkpt>
      <trkpt lat="45.57947" lon="5.73516">
        <ele>684</ele>
        <time>2019-10-27T13:55:45.000Z</time>
      </trkpt>
      <trkpt lat="45.57946" lon="5.73518">
        <ele>684</ele>
        <time>2019-10-27T13:55:46.000Z</time>
      </trkpt>
      <trkpt lat="45.57946" lon="5.73519">
        <ele>684</ele>
        <time>2019-10-27T13:55:47.000Z</time>
      </trkpt>
      <trkpt lat="45.57946" lon="5.7352">
        <ele>684</ele>
        <time>2019-10-27T13:55:48.000Z</time>
      </trkpt>
      <trkpt lat="45.57945" lon="5.73521">
        <ele>684</ele>
        <time>2019-10-27T13:55:49.000Z</time>
      </trkpt>
      <trkpt lat="45.57945" lon="5.73522">
        <ele>684</ele>
        <time>2019-10-27T13:55:50.000Z</time>
      </trkpt>
      <trkpt lat="45.57945" lon="5.73523">
        <ele>683.5</ele>
        <time>2019-10-27T13:55:51.000Z</time>
      </trkpt>
      <trkpt lat="45.57944" lon="5.73524">
        <ele>683</ele>
        <time>2019-10-27T13:55:52.000Z</time>
      </trkpt>
      <trkpt lat="45.57944" lon="5.73525">
        <ele>683</ele>
        <time>2019-10-27T13:55:53.000Z</time>
      </trkpt>
      <trkpt lat="45.57943" lon="5.73526">
        <ele>683</ele>
        <time>2019-10-27T13:55:54.000Z</time>
      </trkpt>
      <trkpt lat="45.57943" lon="5.73527">
        <ele>683</ele>
        <time>2019-10-27T13:55:55.000Z</time>
      </trkpt>
      <trkpt lat="45.57943" lon="5.73528">
        <ele>683</ele>
        <time>2019-10-27T13:55:56.000Z</time>
      </trkpt>
      <trkpt lat="45.57942" lon="5.73529">
        <ele>683</ele>
        <time>2019-10-27T13:55:57.000Z</time>
      </trkpt>
      <trkpt lat="45.57942" lon="5.7353">
        <ele>683</ele>
        <time>2019-10-27T13:55:58.000Z</time>
      </trkpt>
      <trkpt lat="45.57941" lon="5.73531">
        <ele>682.5</ele>
        <time>2019-10-27T13:55:59.000Z</time>
      </trkpt>
      <trkpt lat="45.57941" lon="5.73532">
        <ele>682</ele>
        <time>2019-10-27T13:56:00.000Z</time>
      </trkpt>
      <trkpt lat="45.5794" lon="5.73533">
        <ele>682</ele>
        <time>2019-10-27T13:56:01.000Z</time>
      </trkpt>
      <trkpt lat="45.5794" lon="5.73534">
        <ele>682</ele>
        <time>2019-10-27T13:56:02.000Z</time>
      </trkpt>
      <trkpt lat="45.57939" lon="5.73535">
        <ele>682</ele>
        <time>2019-10-27T13:56:03.000Z</time>
      </trkpt>
      <trkpt lat="45.57939" lon="5.73536">
        <ele>682</ele>
        <time>2019-10-27T13:56:04.000Z</time>
      </trkpt>
      <trkpt lat="45.57938" lon="5.73537">
        <ele>682</ele>
        <time>2019-10-27T13:56:05.000Z</time>
      </trkpt>
      <trkpt lat="45.57938" lon="5.73538">
        <ele>681.7</ele>
        <time>2019-10-27T13:56:06.000Z</time>
      </trkpt>
      <trkpt lat="45.57937" lon="5.73539">
        <ele>681.3</ele>
        <time>2019-10-27T13:56:07.000Z</time>
      </trkpt>
      <trkpt lat="45.57936" lon="5.7354">
        <ele>681</ele>
        <time>2019-10-27T13:56:08.000Z</time>
      </trkpt>
      <trkpt lat="45.57936" lon="5.73541">
        <ele>681</ele>
        <time>2019-10-27T13:56:09.000Z</time>
      </trkpt>
      <trkpt lat="45.57935" lon="5.73543">
        <ele>681</ele>
        <time>2019-10-27T13:56:10.000Z</time>
      </trkpt>
      <trkpt lat="45.57935" lon="5.73544">
        <ele>681</ele>
        <time>2019-10-27T13:56:11.000Z</time>
      </trkpt>
      <trkpt lat="45.57934" lon="5.73545">
        <ele>681</ele>
        <time>2019-10-27T13:56:12.000Z</time>
      </trkpt>
      <trkpt lat="45.57934" lon="5.73546">
        <ele>681</ele>
        <time>2019-10-27T13:56:13.000Z</time>
      </trkpt>
      <trkpt lat="45.57933" lon="5.73547">
        <ele>681</ele>
        <time>2019-10-27T13:56:14.000Z</time>
      </trkpt>
      <trkpt lat="45.57933" lon="5.73549">
        <ele>680.5</ele>
        <time>2019-10-27T13:56:15.000Z</time>
      </trkpt>
      <trkpt lat="45.57932" lon="5.7355">
        <ele>680</ele>
        <time>2019-10-27T13:56:16.000Z</time>
      </trkpt>
      <trkpt lat="45.57932" lon="5.73551">
        <ele>680</ele>
        <time>2019-10-27T13:56:17.000Z</time>
      </trkpt>
      <trkpt lat="45.57931" lon="5.73552">
        <ele>680</ele>
        <time>2019-10-27T13:56:18.000Z</time>
      </trkpt>
      <trkpt lat="45.57931" lon="5.73554">
        <ele>680</ele>
        <time>2019-10-27T13:56:19.000Z</time>
      </trkpt>
      <trkpt lat="45.5793" lon="5.73555">
        <ele>680</ele>
        <time>2019-10-27T13:56:20.000Z</time>
      </trkpt>
      <trkpt lat="45.5793" lon="5.73556">
        <ele>680</ele>
        <time>2019-10-27T13:56:21.000Z</time>
      </trkpt>
      <trkpt lat="45.57929" lon="5.73558">
        <ele>680</ele>
        <time>2019-10-27T13:56:22.000Z</time>
      </trkpt>
      <trkpt lat="45.57928" lon="5.73559">
        <ele>680</ele>
        <time>2019-10-27T13:56:23.000Z</time>
      </trkpt>
      <trkpt lat="45.57928" lon="5.73561">
        <ele>679.7</ele>
        <time>2019-10-27T13:56:24.000Z</time>
      </trkpt>
      <trkpt lat="45.57927" lon="5.73562">
        <ele>679.3</ele>
        <time>2019-10-27T13:56:25.000Z</time>
      </trkpt>
      <trkpt lat="45.57926" lon="5.73563">
        <ele>679</ele>
        <time>2019-10-27T13:56:26.000Z</time>
      </trkpt>
      <trkpt lat="45.57925" lon="5.73565">
        <ele>679</ele>
        <time>2019-10-27T13:56:27.000Z</time>
      </trkpt>
      <trkpt lat="45.57924" lon="5.73567">
        <ele>679</ele>
        <time>2019-10-27T13:56:28.000Z</time>
      </trkpt>
      <trkpt lat="45.57924" lon="5.73568">
        <ele>679</ele>
        <time>2019-10-27T13:56:29.000Z</time>
      </trkpt>
      <trkpt lat="45.57923" lon="5.7357">
        <ele>679</ele>
        <time>2019-10-27T13:56:30.000Z</time>
      </trkpt>
      <trkpt lat="45.57922" lon="5.73572">
        <ele>679</ele>
        <time>2019-10-27T13:56:31.000Z</time>
      </trkpt>
      <trkpt lat="45.57922" lon="5.73574">
        <ele>679</ele>
        <time>2019-10-27T13:56:32.000Z</time>
      </trkpt>
      <trkpt lat="45.57921" lon="5.73576">
        <ele>679</ele>
        <time>2019-10-27T13:56:33.000Z</time>
      </trkpt>
      <trkpt lat="45.57921" lon="5.73578">
        <ele>679</ele>
        <time>2019-10-27T13:56:34.000Z</time>
      </trkpt>
      <trkpt lat="45.5792" lon="5.7358">
        <ele>679</ele>
        <time>2019-10-27T13:56:35.000Z</time>
      </trkpt>
      <trkpt lat="45.5792" lon="5.73581">
        <ele>679</ele>
        <time>2019-10-27T13:56:36.000Z</time>
      </trkpt>
      <trkpt lat="45.5792" lon="5.73582">
        <ele>679</ele>
        <time>2019-10-27T13:56:37.000Z</time>
      </trkpt>
      <trkpt lat="45.5792" lon="5.73582">
        <ele>679</ele>
        <time>2019-10-27T13:56:38.000Z</time>
      </trkpt>
      <trkpt lat="45.5792" lon="5.73582">
        <ele>679</ele>
        <time>2019-10-27T13:56:39.000Z</time>
      </trkpt>
      <trkpt lat="45.5792" lon="5.73583">
        <ele>679</ele>
        <time>2019-10-27T13:56:40.000Z</time>
      </trkpt>
      <trkpt lat="45.5792" lon="5.73583">
        <ele>679</ele>
        <time>2019-10-27T13:56:41.000Z</time>
      </trkpt>
      <trkpt lat="45.57919" lon="5.73583">
        <ele>679</ele>
        <time>2019-10-27T13:56:42.000Z</time>
      </trkpt>
      <trkpt lat="45.57919" lon="5.73584">
        <ele>678.5</ele>
        <time>2019-10-27T13:56:43.000Z</time>
      </trkpt>
      <trkpt lat="45.57918" lon="5.73585">
        <ele>678</ele>
        <time>2019-10-27T13:56:44.000Z</time>
      </trkpt>
      <trkpt lat="45.57918" lon="5.73586">
        <ele>678</ele>
        <time>2019-10-27T13:56:45.000Z</time>
      </trkpt>
      <trkpt lat="45.57917" lon="5.73588">
        <ele>678</ele>
        <time>2019-10-27T13:56:46.000Z</time>
      </trkpt>
      <trkpt lat="45.57917" lon="5.7359">
        <ele>678</ele>
        <time>2019-10-27T13:56:47.000Z</time>
      </trkpt>
      <trkpt lat="45.57917" lon="5.73592">
        <ele>678</ele>
        <time>2019-10-27T13:56:48.000Z</time>
      </trkpt>
      <trkpt lat="45.57917" lon="5.73593">
        <ele>678</ele>
        <time>2019-10-27T13:56:49.000Z</time>
      </trkpt>
      <trkpt lat="45.57916" lon="5.73595">
        <ele>678</ele>
        <time>2019-10-27T13:56:50.000Z</time>
      </trkpt>
      <trkpt lat="45.57916" lon="5.73596">
        <ele>678</ele>
        <time>2019-10-27T13:56:51.000Z</time>
      </trkpt>
      <trkpt lat="45.57916" lon="5.73597">
        <ele>678</ele>
        <time>2019-10-27T13:56:52.000Z</time>
      </trkpt>
      <trkpt lat="45.57916" lon="5.73598">
        <ele>678</ele>
        <time>2019-10-27T13:56:53.000Z</time>
      </trkpt>
      <trkpt lat="45.57916" lon="5.736">
        <ele>678</ele>
        <time>2019-10-27T13:56:54.000Z</time>
      </trkpt>
      <trkpt lat="45.57916" lon="5.73601">
        <ele>678</ele>
        <time>2019-10-27T13:56:55.000Z</time>
      </trkpt>
      <trkpt lat="45.57916" lon="5.73602">
        <ele>678</ele>
        <time>2019-10-27T13:56:56.000Z</time>
      </trkpt>
      <trkpt lat="45.57916" lon="5.73603">
        <ele>678</ele>
        <time>2019-10-27T13:56:57.000Z</time>
      </trkpt>
      <trkpt lat="45.57916" lon="5.73604">
        <ele>678</ele>
        <time>2019-10-27T13:56:58.000Z</time>
      </trkpt>
      <trkpt lat="45.57916" lon="5.73605">
        <ele>677.5</ele>
        <time>2019-10-27T13:56:59.000Z</time>
      </trkpt>
      <trkpt lat="45.57916" lon="5.73606">
        <ele>677</ele>
        <time>2019-10-27T13:57:00.000Z</time>
      </trkpt>
      <trkpt lat="45.57915" lon="5.73607">
        <ele>677</ele>
        <time>2019-10-27T13:57:01.000Z</time>
      </trkpt>
      <trkpt lat="45.57915" lon="5.73608">
        <ele>677</ele>
        <time>2019-10-27T13:57:02.000Z</time>
      </trkpt>
      <trkpt lat="45.57915" lon="5.7361">
        <ele>677</ele>
        <time>2019-10-27T13:57:03.000Z</time>
      </trkpt>
      <trkpt lat="45.57914" lon="5.73611">
        <ele>677</ele>
        <time>2019-10-27T13:57:04.000Z</time>
      </trkpt>
      <trkpt lat="45.57914" lon="5.73612">
        <ele>677</ele>
        <time>2019-10-27T13:57:05.000Z</time>
      </trkpt>
      <trkpt lat="45.57913" lon="5.73614">
        <ele>677</ele>
        <time>2019-10-27T13:57:06.000Z</time>
      </trkpt>
      <trkpt lat="45.57912" lon="5.73616">
        <ele>677</ele>
        <time>2019-10-27T13:57:07.000Z</time>
      </trkpt>
      <trkpt lat="45.57911" lon="5.73617">
        <ele>677</ele>
        <time>2019-10-27T13:57:08.000Z</time>
      </trkpt>
      <trkpt lat="45.57911" lon="5.73619">
        <ele>677</ele>
        <time>2019-10-27T13:57:09.000Z</time>
      </trkpt>
      <trkpt lat="45.5791" lon="5.73621">
        <ele>677</ele>
        <time>2019-10-27T13:57:10.000Z</time>
      </trkpt>
      <trkpt lat="45.57909" lon="5.73622">
        <ele>677</ele>
        <time>2019-10-27T13:57:11.000Z</time>
      </trkpt>
      <trkpt lat="45.57908" lon="5.73624">
        <ele>677</ele>
        <time>2019-10-27T13:57:12.000Z</time>
      </trkpt>
      <trkpt lat="45.57908" lon="5.73626">
        <ele>677</ele>
        <time>2019-10-27T13:57:13.000Z</time>
      </trkpt>
      <trkpt lat="45.57907" lon="5.73627">
        <ele>677</ele>
        <time>2019-10-27T13:57:14.000Z</time>
      </trkpt>
      <trkpt lat="45.57906" lon="5.73628">
        <ele>677</ele>
        <time>2019-10-27T13:57:15.000Z</time>
      </trkpt>
      <trkpt lat="45.57905" lon="5.73629">
        <ele>677</ele>
        <time>2019-10-27T13:57:16.000Z</time>
      </trkpt>
      <trkpt lat="45.57905" lon="5.7363">
        <ele>677</ele>
        <time>2019-10-27T13:57:17.000Z</time>
      </trkpt>
      <trkpt lat="45.57904" lon="5.73631">
        <ele>677</ele>
        <time>2019-10-27T13:57:18.000Z</time>
      </trkpt>
      <trkpt lat="45.57904" lon="5.73632">
        <ele>677</ele>
        <time>2019-10-27T13:57:19.000Z</time>
      </trkpt>
      <trkpt lat="45.57903" lon="5.73633">
        <ele>676.7</ele>
        <time>2019-10-27T13:57:20.000Z</time>
      </trkpt>
      <trkpt lat="45.57903" lon="5.73634">
        <ele>676.3</ele>
        <time>2019-10-27T13:57:21.000Z</time>
      </trkpt>
      <trkpt lat="45.57902" lon="5.73635">
        <ele>676</ele>
        <time>2019-10-27T13:57:22.000Z</time>
      </trkpt>
      <trkpt lat="45.57902" lon="5.73635">
        <ele>676</ele>
        <time>2019-10-27T13:57:23.000Z</time>
      </trkpt>
      <trkpt lat="45.57901" lon="5.73636">
        <ele>676</ele>
        <time>2019-10-27T13:57:24.000Z</time>
      </trkpt>
      <trkpt lat="45.57901" lon="5.73637">
        <ele>676.5</ele>
        <time>2019-10-27T13:57:25.000Z</time>
      </trkpt>
      <trkpt lat="45.57901" lon="5.73638">
        <ele>677</ele>
        <time>2019-10-27T13:57:26.000Z</time>
      </trkpt>
      <trkpt lat="45.579" lon="5.73639">
        <ele>677</ele>
        <time>2019-10-27T13:57:27.000Z</time>
      </trkpt>
      <trkpt lat="45.579" lon="5.7364">
        <ele>677</ele>
        <time>2019-10-27T13:57:28.000Z</time>
      </trkpt>
      <trkpt lat="45.57899" lon="5.73641">
        <ele>677</ele>
        <time>2019-10-27T13:57:29.000Z</time>
      </trkpt>
      <trkpt lat="45.57899" lon="5.73642">
        <ele>677</ele>
        <time>2019-10-27T13:57:30.000Z</time>
      </trkpt>
      <trkpt lat="45.57899" lon="5.73642">
        <ele>677</ele>
        <time>2019-10-27T13:57:31.000Z</time>
      </trkpt>
      <trkpt lat="45.57899" lon="5.73643">
        <ele>677</ele>
        <time>2019-10-27T13:57:32.000Z</time>
      </trkpt>
      <trkpt lat="45.57898" lon="5.73644">
        <ele>677</ele>
        <time>2019-10-27T13:57:33.000Z</time>
      </trkpt>
      <trkpt lat="45.57898" lon="5.73644">
        <ele>677</ele>
        <time>2019-10-27T13:57:34.000Z</time>
      </trkpt>
      <trkpt lat="45.57898" lon="5.73644">
        <ele>677</ele>
        <time>2019-10-27T13:57:35.000Z</time>
      </trkpt>
      <trkpt lat="45.57898" lon="5.73645">
        <ele>677</ele>
        <time>2019-10-27T13:57:36.000Z</time>
      </trkpt>
      <trkpt lat="45.57898" lon="5.73645">
        <ele>677</ele>
        <time>2019-10-27T13:57:37.000Z</time>
      </trkpt>
      <trkpt lat="45.57898" lon="5.73645">
        <ele>677</ele>
        <time>2019-10-27T13:57:38.000Z</time>
      </trkpt>
      <trkpt lat="45.57898" lon="5.73645">
        <ele>677</ele>
        <time>2019-10-27T13:57:39.000Z</time>
      </trkpt>
      <trkpt lat="45.57897" lon="5.73646">
        <ele>677</ele>
        <time>2019-10-27T13:57:40.000Z</time>
      </trkpt>
      <trkpt lat="45.57897" lon="5.73646">
        <ele>677</ele>
        <time>2019-10-27T13:57:41.000Z</time>
      </trkpt>
      <trkpt lat="45.57897" lon="5.73646">
        <ele>677</ele>
        <time>2019-10-27T13:57:42.000Z</time>
      </trkpt>
      <trkpt lat="45.57897" lon="5.73646">
        <ele>677</ele>
        <time>2019-10-27T13:57:43.000Z</time>
      </trkpt>
      <trkpt lat="45.57897" lon="5.73647">
        <ele>677</ele>
        <time>2019-10-27T13:57:44.000Z</time>
      </trkpt>
      <trkpt lat="45.57897" lon="5.73647">
        <ele>677</ele>
        <time>2019-10-27T13:57:45.000Z</time>
      </trkpt>
      <trkpt lat="45.57896" lon="5.73647">
        <ele>677</ele>
        <time>2019-10-27T13:57:46.000Z</time>
      </trkpt>
      <trkpt lat="45.57896" lon="5.73647">
        <ele>677</ele>
        <time>2019-10-27T13:57:47.000Z</time>
      </trkpt>
      <trkpt lat="45.57896" lon="5.73648">
        <ele>677</ele>
        <time>2019-10-27T13:57:48.000Z</time>
      </trkpt>
      <trkpt lat="45.57895" lon="5.73648">
        <ele>677</ele>
        <time>2019-10-27T13:57:49.000Z</time>
      </trkpt>
      <trkpt lat="45.57895" lon="5.73649">
        <ele>677</ele>
        <time>2019-10-27T13:57:50.000Z</time>
      </trkpt>
      <trkpt lat="45.57894" lon="5.73649">
        <ele>677</ele>
        <time>2019-10-27T13:57:51.000Z</time>
      </trkpt>
      <trkpt lat="45.57894" lon="5.73649">
        <ele>677</ele>
        <time>2019-10-27T13:57:52.000Z</time>
      </trkpt>
      <trkpt lat="45.57894" lon="5.73649">
        <ele>677</ele>
        <time>2019-10-27T13:57:53.000Z</time>
      </trkpt>
      <trkpt lat="45.57894" lon="5.73649">
        <ele>677</ele>
        <time>2019-10-27T13:57:54.000Z</time>
      </trkpt>
      <trkpt lat="45.57893" lon="5.73649">
        <ele>677</ele>
        <time>2019-10-27T13:57:55.000Z</time>
      </trkpt>
      <trkpt lat="45.57893" lon="5.7365">
        <ele>677</ele>
        <time>2019-10-27T13:57:56.000Z</time>
      </trkpt>
      <trkpt lat="45.57893" lon="5.7365">
        <ele>677</ele>
        <time>2019-10-27T13:57:57.000Z</time>
      </trkpt>
      <trkpt lat="45.57892" lon="5.7365">
        <ele>677</ele>
        <time>2019-10-27T13:57:58.000Z</time>
      </trkpt>
      <trkpt lat="45.57892" lon="5.7365">
        <ele>677</ele>
        <time>2019-10-27T13:57:59.000Z</time>
      </trkpt>
      <trkpt lat="45.57891" lon="5.73651">
        <ele>677</ele>
        <time>2019-10-27T13:58:00.000Z</time>
      </trkpt>
      <trkpt lat="45.57891" lon="5.73651">
        <ele>677</ele>
        <time>2019-10-27T13:58:01.000Z</time>
      </trkpt>
      <trkpt lat="45.5789" lon="5.73652">
        <ele>677</ele>
        <time>2019-10-27T13:58:02.000Z</time>
      </trkpt>
      <trkpt lat="45.57889" lon="5.73652">
        <ele>677</ele>
        <time>2019-10-27T13:58:03.000Z</time>
      </trkpt>
      <trkpt lat="45.57889" lon="5.73653">
        <ele>677</ele>
        <time>2019-10-27T13:58:04.000Z</time>
      </trkpt>
      <trkpt lat="45.57888" lon="5.73653">
        <ele>677</ele>
        <time>2019-10-27T13:58:05.000Z</time>
      </trkpt>
      <trkpt lat="45.57887" lon="5.73654">
        <ele>677</ele>
        <time>2019-10-27T13:58:06.000Z</time>
      </trkpt>
      <trkpt lat="45.57886" lon="5.73655">
        <ele>677.5</ele>
        <time>2019-10-27T13:58:07.000Z</time>
      </trkpt>
      <trkpt lat="45.57886" lon="5.73655">
        <ele>678</ele>
        <time>2019-10-27T13:58:08.000Z</time>
      </trkpt>
      <trkpt lat="45.57885" lon="5.73656">
        <ele>678</ele>
        <time>2019-10-27T13:58:09.000Z</time>
      </trkpt>
      <trkpt lat="45.57884" lon="5.73657">
        <ele>678</ele>
        <time>2019-10-27T13:58:10.000Z</time>
      </trkpt>
      <trkpt lat="45.57883" lon="5.73657">
        <ele>678</ele>
        <time>2019-10-27T13:58:11.000Z</time>
      </trkpt>
      <trkpt lat="45.57882" lon="5.73658">
        <ele>678</ele>
        <time>2019-10-27T13:58:12.000Z</time>
      </trkpt>
      <trkpt lat="45.57882" lon="5.73658">
        <ele>678</ele>
        <time>2019-10-27T13:58:13.000Z</time>
      </trkpt>
      <trkpt lat="45.57881" lon="5.73659">
        <ele>678</ele>
        <time>2019-10-27T13:58:14.000Z</time>
      </trkpt>
      <trkpt lat="45.5788" lon="5.73659">
        <ele>678.5</ele>
        <time>2019-10-27T13:58:15.000Z</time>
      </trkpt>
      <trkpt lat="45.5788" lon="5.7366">
        <ele>679</ele>
        <time>2019-10-27T13:58:16.000Z</time>
      </trkpt>
      <trkpt lat="45.57879" lon="5.7366">
        <ele>679</ele>
        <time>2019-10-27T13:58:17.000Z</time>
      </trkpt>
      <trkpt lat="45.57879" lon="5.7366">
        <ele>679</ele>
        <time>2019-10-27T13:58:18.000Z</time>
      </trkpt>
      <trkpt lat="45.57878" lon="5.73661">
        <ele>679</ele>
        <time>2019-10-27T13:58:19.000Z</time>
      </trkpt>
      <trkpt lat="45.57878" lon="5.73661">
        <ele>679</ele>
        <time>2019-10-27T13:58:20.000Z</time>
      </trkpt>
      <trkpt lat="45.57877" lon="5.73661">
        <ele>679</ele>
        <time>2019-10-27T13:58:21.000Z</time>
      </trkpt>
      <trkpt lat="45.57877" lon="5.73661">
        <ele>679</ele>
        <time>2019-10-27T13:58:22.000Z</time>
      </trkpt>
      <trkpt lat="45.57876" lon="5.73661">
        <ele>679.5</ele>
        <time>2019-10-27T13:58:23.000Z</time>
      </trkpt>
      <trkpt lat="45.57876" lon="5.73661">
        <ele>680</ele>
        <time>2019-10-27T13:58:24.000Z</time>
      </trkpt>
      <trkpt lat="45.57875" lon="5.73661">
        <ele>680</ele>
        <time>2019-10-27T13:58:25.000Z</time>
      </trkpt>
      <trkpt lat="45.57875" lon="5.7366">
        <ele>680</ele>
        <time>2019-10-27T13:58:26.000Z</time>
      </trkpt>
      <trkpt lat="45.57874" lon="5.7366">
        <ele>680</ele>
        <time>2019-10-27T13:58:27.000Z</time>
      </trkpt>
      <trkpt lat="45.57874" lon="5.73659">
        <ele>680</ele>
        <time>2019-10-27T13:58:28.000Z</time>
      </trkpt>
      <trkpt lat="45.57873" lon="5.73659">
        <ele>681</ele>
        <time>2019-10-27T13:58:29.000Z</time>
      </trkpt>
      <trkpt lat="45.57872" lon="5.73658">
        <ele>681</ele>
        <time>2019-10-27T13:58:30.000Z</time>
      </trkpt>
      <trkpt lat="45.57871" lon="5.73657">
        <ele>681</ele>
        <time>2019-10-27T13:58:31.000Z</time>
      </trkpt>
      <trkpt lat="45.57871" lon="5.73657">
        <ele>681</ele>
        <time>2019-10-27T13:58:32.000Z</time>
      </trkpt>
      <trkpt lat="45.5787" lon="5.73656">
        <ele>681</ele>
        <time>2019-10-27T13:58:33.000Z</time>
      </trkpt>
      <trkpt lat="45.57869" lon="5.73655">
        <ele>681.3</ele>
        <time>2019-10-27T13:58:34.000Z</time>
      </trkpt>
      <trkpt lat="45.57868" lon="5.73654">
        <ele>681.7</ele>
        <time>2019-10-27T13:58:35.000Z</time>
      </trkpt>
      <trkpt lat="45.57867" lon="5.73653">
        <ele>682</ele>
        <time>2019-10-27T13:58:36.000Z</time>
      </trkpt>
      <trkpt lat="45.57866" lon="5.73652">
        <ele>682</ele>
        <time>2019-10-27T13:58:37.000Z</time>
      </trkpt>
      <trkpt lat="45.57866" lon="5.73651">
        <ele>682</ele>
        <time>2019-10-27T13:58:38.000Z</time>
      </trkpt>
      <trkpt lat="45.57865" lon="5.7365">
        <ele>683</ele>
        <time>2019-10-27T13:58:39.000Z</time>
      </trkpt>
      <trkpt lat="45.57864" lon="5.7365">
        <ele>683</ele>
        <time>2019-10-27T13:58:40.000Z</time>
      </trkpt>
      <trkpt lat="45.57863" lon="5.73649">
        <ele>683</ele>
        <time>2019-10-27T13:58:41.000Z</time>
      </trkpt>
      <trkpt lat="45.57863" lon="5.73649">
        <ele>683</ele>
        <time>2019-10-27T13:58:42.000Z</time>
      </trkpt>
      <trkpt lat="45.57862" lon="5.73649">
        <ele>683</ele>
        <time>2019-10-27T13:58:43.000Z</time>
      </trkpt>
      <trkpt lat="45.57861" lon="5.73649">
        <ele>683.3</ele>
        <time>2019-10-27T13:58:44.000Z</time>
      </trkpt>
      <trkpt lat="45.57861" lon="5.73649">
        <ele>683.7</ele>
        <time>2019-10-27T13:58:45.000Z</time>
      </trkpt>
      <trkpt lat="45.5786" lon="5.73649">
        <ele>684</ele>
        <time>2019-10-27T13:58:46.000Z</time>
      </trkpt>
      <trkpt lat="45.57859" lon="5.73649">
        <ele>684</ele>
        <time>2019-10-27T13:58:47.000Z</time>
      </trkpt>
      <trkpt lat="45.57858" lon="5.73648">
        <ele>684</ele>
        <time>2019-10-27T13:58:48.000Z</time>
      </trkpt>
      <trkpt lat="45.57857" lon="5.73648">
        <ele>684</ele>
        <time>2019-10-27T13:58:49.000Z</time>
      </trkpt>
      <trkpt lat="45.57856" lon="5.73647">
        <ele>684</ele>
        <time>2019-10-27T13:58:50.000Z</time>
      </trkpt>
      <trkpt lat="45.57855" lon="5.73646">
        <ele>684</ele>
        <time>2019-10-27T13:58:51.000Z</time>
      </trkpt>
      <trkpt lat="45.57853" lon="5.73645">
        <ele>684</ele>
        <time>2019-10-27T13:58:52.000Z</time>
      </trkpt>
      <trkpt lat="45.57852" lon="5.73644">
        <ele>684</ele>
        <time>2019-10-27T13:58:53.000Z</time>
      </trkpt>
      <trkpt lat="45.57851" lon="5.73644">
        <ele>684</ele>
        <time>2019-10-27T13:58:54.000Z</time>
      </trkpt>
      <trkpt lat="45.57849" lon="5.73643">
        <ele>684</ele>
        <time>2019-10-27T13:58:55.000Z</time>
      </trkpt>
      <trkpt lat="45.57848" lon="5.73642">
        <ele>684.5</ele>
        <time>2019-10-27T13:58:56.000Z</time>
      </trkpt>
      <trkpt lat="45.57847" lon="5.73641">
        <ele>685</ele>
        <time>2019-10-27T13:58:57.000Z</time>
      </trkpt>
      <trkpt lat="45.57846" lon="5.73641">
        <ele>685</ele>
        <time>2019-10-27T13:58:58.000Z</time>
      </trkpt>
      <trkpt lat="45.57846" lon="5.7364">
        <ele>685</ele>
        <time>2019-10-27T13:58:59.000Z</time>
      </trkpt>
      <trkpt lat="45.57845" lon="5.7364">
        <ele>685</ele>
        <time>2019-10-27T13:59:00.000Z</time>
      </trkpt>
      <trkpt lat="45.57844" lon="5.73639">
        <ele>685</ele>
        <time>2019-10-27T13:59:01.000Z</time>
      </trkpt>
      <trkpt lat="45.57842" lon="5.73637">
        <ele>685</ele>
        <time>2019-10-27T13:59:02.000Z</time>
      </trkpt>
      <trkpt lat="45.57841" lon="5.73635">
        <ele>685</ele>
        <time>2019-10-27T13:59:03.000Z</time>
      </trkpt>
      <trkpt lat="45.5784" lon="5.73633">
        <ele>685</ele>
        <time>2019-10-27T13:59:04.000Z</time>
      </trkpt>
      <trkpt lat="45.57839" lon="5.73631">
        <ele>685</ele>
        <time>2019-10-27T13:59:05.000Z</time>
      </trkpt>
      <trkpt lat="45.57838" lon="5.73629">
        <ele>685</ele>
        <time>2019-10-27T13:59:06.000Z</time>
      </trkpt>
      <trkpt lat="45.57837" lon="5.73627">
        <ele>685</ele>
        <time>2019-10-27T13:59:07.000Z</time>
      </trkpt>
      <trkpt lat="45.57836" lon="5.73625">
        <ele>685</ele>
        <time>2019-10-27T13:59:08.000Z</time>
      </trkpt>
      <trkpt lat="45.57836" lon="5.73623">
        <ele>685</ele>
        <time>2019-10-27T13:59:09.000Z</time>
      </trkpt>
      <trkpt lat="45.57835" lon="5.73622">
        <ele>685</ele>
        <time>2019-10-27T13:59:10.000Z</time>
      </trkpt>
      <trkpt lat="45.57835" lon="5.7362">
        <ele>686</ele>
        <time>2019-10-27T13:59:11.000Z</time>
      </trkpt>
      <trkpt lat="45.57835" lon="5.73619">
        <ele>686</ele>
        <time>2019-10-27T13:59:12.000Z</time>
      </trkpt>
      <trkpt lat="45.57834" lon="5.73617">
        <ele>686</ele>
        <time>2019-10-27T13:59:13.000Z</time>
      </trkpt>
      <trkpt lat="45.57834" lon="5.73616">
        <ele>686</ele>
        <time>2019-10-27T13:59:14.000Z</time>
      </trkpt>
      <trkpt lat="45.57833" lon="5.73615">
        <ele>686</ele>
        <time>2019-10-27T13:59:15.000Z</time>
      </trkpt>
      <trkpt lat="45.57832" lon="5.73614">
        <ele>686</ele>
        <time>2019-10-27T13:59:16.000Z</time>
      </trkpt>
      <trkpt lat="45.57832" lon="5.73612">
        <ele>686.5</ele>
        <time>2019-10-27T13:59:17.000Z</time>
      </trkpt>
      <trkpt lat="45.57831" lon="5.7361">
        <ele>687</ele>
        <time>2019-10-27T13:59:18.000Z</time>
      </trkpt>
      <trkpt lat="45.5783" lon="5.73608">
        <ele>687</ele>
        <time>2019-10-27T13:59:19.000Z</time>
      </trkpt>
      <trkpt lat="45.57829" lon="5.73606">
        <ele>687</ele>
        <time>2019-10-27T13:59:20.000Z</time>
      </trkpt>
      <trkpt lat="45.57829" lon="5.73604">
        <ele>687</ele>
        <time>2019-10-27T13:59:21.000Z</time>
      </trkpt>
      <trkpt lat="45.57828" lon="5.73602">
        <ele>687.5</ele>
        <time>2019-10-27T13:59:22.000Z</time>
      </trkpt>
      <trkpt lat="45.57828" lon="5.73601">
        <ele>688</ele>
        <time>2019-10-27T13:59:23.000Z</time>
      </trkpt>
      <trkpt lat="45.57827" lon="5.736">
        <ele>688</ele>
        <time>2019-10-27T13:59:24.000Z</time>
      </trkpt>
      <trkpt lat="45.57827" lon="5.73599">
        <ele>688</ele>
        <time>2019-10-27T13:59:25.000Z</time>
      </trkpt>
      <trkpt lat="45.57826" lon="5.73599">
        <ele>688</ele>
        <time>2019-10-27T13:59:26.000Z</time>
      </trkpt>
      <trkpt lat="45.57826" lon="5.73598">
        <ele>689</ele>
        <time>2019-10-27T13:59:27.000Z</time>
      </trkpt>
      <trkpt lat="45.57825" lon="5.73597">
        <ele>689</ele>
        <time>2019-10-27T13:59:28.000Z</time>
      </trkpt>
      <trkpt lat="45.57824" lon="5.73597">
        <ele>689</ele>
        <time>2019-10-27T13:59:29.000Z</time>
      </trkpt>
      <trkpt lat="45.57824" lon="5.73596">
        <ele>689</ele>
        <time>2019-10-27T13:59:30.000Z</time>
      </trkpt>
      <trkpt lat="45.57823" lon="5.73596">
        <ele>689</ele>
        <time>2019-10-27T13:59:31.000Z</time>
      </trkpt>
      <trkpt lat="45.57823" lon="5.73595">
        <ele>689</ele>
        <time>2019-10-27T13:59:32.000Z</time>
      </trkpt>
      <trkpt lat="45.57822" lon="5.73594">
        <ele>690</ele>
        <time>2019-10-27T13:59:33.000Z</time>
      </trkpt>
      <trkpt lat="45.57821" lon="5.73594">
        <ele>690</ele>
        <time>2019-10-27T13:59:34.000Z</time>
      </trkpt>
      <trkpt lat="45.57821" lon="5.73593">
        <ele>690</ele>
        <time>2019-10-27T13:59:35.000Z</time>
      </trkpt>
      <trkpt lat="45.5782" lon="5.73592">
        <ele>690</ele>
        <time>2019-10-27T13:59:36.000Z</time>
      </trkpt>
      <trkpt lat="45.57818" lon="5.73592">
        <ele>690</ele>
        <time>2019-10-27T13:59:37.000Z</time>
      </trkpt>
      <trkpt lat="45.57817" lon="5.73592">
        <ele>690.3</ele>
        <time>2019-10-27T13:59:38.000Z</time>
      </trkpt>
      <trkpt lat="45.57816" lon="5.73591">
        <ele>690.7</ele>
        <time>2019-10-27T13:59:39.000Z</time>
      </trkpt>
      <trkpt lat="45.57814" lon="5.73591">
        <ele>691</ele>
        <time>2019-10-27T13:59:40.000Z</time>
      </trkpt>
      <trkpt lat="45.57813" lon="5.73591">
        <ele>691</ele>
        <time>2019-10-27T13:59:41.000Z</time>
      </trkpt>
      <trkpt lat="45.57811" lon="5.73591">
        <ele>691</ele>
        <time>2019-10-27T13:59:42.000Z</time>
      </trkpt>
      <trkpt lat="45.5781" lon="5.73591">
        <ele>691</ele>
        <time>2019-10-27T13:59:43.000Z</time>
      </trkpt>
      <trkpt lat="45.57809" lon="5.73592">
        <ele>691</ele>
        <time>2019-10-27T13:59:44.000Z</time>
      </trkpt>
      <trkpt lat="45.57808" lon="5.73592">
        <ele>691</ele>
        <time>2019-10-27T13:59:45.000Z</time>
      </trkpt>
      <trkpt lat="45.57807" lon="5.73592">
        <ele>691.5</ele>
        <time>2019-10-27T13:59:46.000Z</time>
      </trkpt>
      <trkpt lat="45.57806" lon="5.73593">
        <ele>692</ele>
        <time>2019-10-27T13:59:47.000Z</time>
      </trkpt>
      <trkpt lat="45.57805" lon="5.73593">
        <ele>692</ele>
        <time>2019-10-27T13:59:48.000Z</time>
      </trkpt>
      <trkpt lat="45.57804" lon="5.73594">
        <ele>692</ele>
        <time>2019-10-27T13:59:49.000Z</time>
      </trkpt>
      <trkpt lat="45.57803" lon="5.73594">
        <ele>692</ele>
        <time>2019-10-27T13:59:50.000Z</time>
      </trkpt>
      <trkpt lat="45.57802" lon="5.73595">
        <ele>692</ele>
        <time>2019-10-27T13:59:51.000Z</time>
      </trkpt>
      <trkpt lat="45.57801" lon="5.73596">
        <ele>692</ele>
        <time>2019-10-27T13:59:52.000Z</time>
      </trkpt>
      <trkpt lat="45.578" lon="5.73596">
        <ele>692</ele>
        <time>2019-10-27T13:59:53.000Z</time>
      </trkpt>
      <trkpt lat="45.57799" lon="5.73597">
        <ele>692</ele>
        <time>2019-10-27T13:59:54.000Z</time>
      </trkpt>
      <trkpt lat="45.57798" lon="5.73597">
        <ele>692</ele>
        <time>2019-10-27T13:59:55.000Z</time>
      </trkpt>
      <trkpt lat="45.57797" lon="5.73598">
        <ele>692</ele>
        <time>2019-10-27T13:59:56.000Z</time>
      </trkpt>
      <trkpt lat="45.57796" lon="5.73599">
        <ele>692</ele>
        <time>2019-10-27T13:59:57.000Z</time>
      </trkpt>
      <trkpt lat="45.57795" lon="5.73599">
        <ele>692</ele>
        <time>2019-10-27T13:59:58.000Z</time>
      </trkpt>
      <trkpt lat="45.57794" lon="5.736">
        <ele>691.5</ele>
        <time>2019-10-27T13:59:59.000Z</time>
      </trkpt>
      <trkpt lat="45.57793" lon="5.73601">
        <ele>691</ele>
        <time>2019-10-27T14:00:00.000Z</time>
      </trkpt>
      <trkpt lat="45.57792" lon="5.73601">
        <ele>691</ele>
        <time>2019-10-27T14:00:01.000Z</time>
      </trkpt>
      <trkpt lat="45.57791" lon="5.73602">
        <ele>691</ele>
        <time>2019-10-27T14:00:02.000Z</time>
      </trkpt>
      <trkpt lat="45.5779" lon="5.73603">
        <ele>691</ele>
        <time>2019-10-27T14:00:03.000Z</time>
      </trkpt>
      <trkpt lat="45.5779" lon="5.73603">
        <ele>691</ele>
        <time>2019-10-27T14:00:04.000Z</time>
      </trkpt>
      <trkpt lat="45.57789" lon="5.73604">
        <ele>691</ele>
        <time>2019-10-27T14:00:05.000Z</time>
      </trkpt>
      <trkpt lat="45.57788" lon="5.73604">
        <ele>690.7</ele>
        <time>2019-10-27T14:00:06.000Z</time>
      </trkpt>
      <trkpt lat="45.57787" lon="5.73604">
        <ele>690.3</ele>
        <time>2019-10-27T14:00:07.000Z</time>
      </trkpt>
      <trkpt lat="45.57787" lon="5.73605">
        <ele>690</ele>
        <time>2019-10-27T14:00:08.000Z</time>
      </trkpt>
      <trkpt lat="45.57786" lon="5.73605">
        <ele>690</ele>
        <time>2019-10-27T14:00:09.000Z</time>
      </trkpt>
      <trkpt lat="45.57785" lon="5.73606">
        <ele>690</ele>
        <time>2019-10-27T14:00:10.000Z</time>
      </trkpt>
      <trkpt lat="45.57785" lon="5.73606">
        <ele>690</ele>
        <time>2019-10-27T14:00:11.000Z</time>
      </trkpt>
      <trkpt lat="45.57784" lon="5.73606">
        <ele>690</ele>
        <time>2019-10-27T14:00:12.000Z</time>
      </trkpt>
      <trkpt lat="45.57783" lon="5.73607">
        <ele>690</ele>
        <time>2019-10-27T14:00:13.000Z</time>
      </trkpt>
      <trkpt lat="45.57781" lon="5.73607">
        <ele>690</ele>
        <time>2019-10-27T14:00:14.000Z</time>
      </trkpt>
      <trkpt lat="45.5778" lon="5.73608">
        <ele>689</ele>
        <time>2019-10-27T14:00:15.000Z</time>
      </trkpt>
      <trkpt lat="45.57778" lon="5.73608">
        <ele>689</ele>
        <time>2019-10-27T14:00:16.000Z</time>
      </trkpt>
      <trkpt lat="45.57777" lon="5.73608">
        <ele>689</ele>
        <time>2019-10-27T14:00:17.000Z</time>
      </trkpt>
      <trkpt lat="45.57776" lon="5.73609">
        <ele>689</ele>
        <time>2019-10-27T14:00:18.000Z</time>
      </trkpt>
      <trkpt lat="45.57775" lon="5.73609">
        <ele>689</ele>
        <time>2019-10-27T14:00:19.000Z</time>
      </trkpt>
      <trkpt lat="45.57775" lon="5.73609">
        <ele>689</ele>
        <time>2019-10-27T14:00:20.000Z</time>
      </trkpt>
      <trkpt lat="45.57775" lon="5.73609">
        <ele>689</ele>
        <time>2019-10-27T14:00:21.000Z</time>
      </trkpt>
      <trkpt lat="45.57775" lon="5.73609">
        <ele>689</ele>
        <time>2019-10-27T14:00:22.000Z</time>
      </trkpt>
      <trkpt lat="45.57775" lon="5.73609">
        <ele>689</ele>
        <time>2019-10-27T14:00:23.000Z</time>
      </trkpt>
      <trkpt lat="45.57774" lon="5.7361">
        <ele>689</ele>
        <time>2019-10-27T14:00:24.000Z</time>
      </trkpt>
      <trkpt lat="45.57774" lon="5.7361">
        <ele>689</ele>
        <time>2019-10-27T14:00:25.000Z</time>
      </trkpt>
      <trkpt lat="45.57773" lon="5.7361">
        <ele>689</ele>
        <time>2019-10-27T14:00:26.000Z</time>
      </trkpt>
      <trkpt lat="45.57773" lon="5.73611">
        <ele>689</ele>
        <time>2019-10-27T14:00:27.000Z</time>
      </trkpt>
      <trkpt lat="45.57772" lon="5.73611">
        <ele>689</ele>
        <time>2019-10-27T14:00:28.000Z</time>
      </trkpt>
      <trkpt lat="45.57772" lon="5.73611">
        <ele>689</ele>
        <time>2019-10-27T14:00:29.000Z</time>
      </trkpt>
      <trkpt lat="45.57771" lon="5.73611">
        <ele>689</ele>
        <time>2019-10-27T14:00:30.000Z</time>
      </trkpt>
      <trkpt lat="45.57771" lon="5.73611">
        <ele>689</ele>
        <time>2019-10-27T14:00:31.000Z</time>
      </trkpt>
      <trkpt lat="45.57771" lon="5.73611">
        <ele>689</ele>
        <time>2019-10-27T14:00:32.000Z</time>
      </trkpt>
      <trkpt lat="45.5777" lon="5.73611">
        <ele>689</ele>
        <time>2019-10-27T14:00:33.000Z</time>
      </trkpt>
      <trkpt lat="45.5777" lon="5.73611">
        <ele>689</ele>
        <time>2019-10-27T14:00:34.000Z</time>
      </trkpt>
      <trkpt lat="45.5777" lon="5.73611">
        <ele>689</ele>
        <time>2019-10-27T14:00:35.000Z</time>
      </trkpt>
      <trkpt lat="45.5777" lon="5.73611">
        <ele>689</ele>
        <time>2019-10-27T14:00:36.000Z</time>
      </trkpt>
      <trkpt lat="45.5777" lon="5.73611">
        <ele>689</ele>
        <time>2019-10-27T14:00:37.000Z</time>
      </trkpt>
      <trkpt lat="45.5777" lon="5.73611">
        <ele>689</ele>
        <time>2019-10-27T14:00:38.000Z</time>
      </trkpt>
      <trkpt lat="45.5777" lon="5.73611">
        <ele>689</ele>
        <time>2019-10-27T14:00:39.000Z</time>
      </trkpt>
      <trkpt lat="45.5777" lon="5.73611">
        <ele>689</ele>
        <time>2019-10-27T14:00:40.000Z</time>
      </trkpt>
      <trkpt lat="45.5777" lon="5.73611">
        <ele>689</ele>
        <time>2019-10-27T14:00:41.000Z</time>
      </trkpt>
      <trkpt lat="45.5777" lon="5.73611">
        <ele>689</ele>
        <time>2019-10-27T14:00:42.000Z</time>
      </trkpt>
      <trkpt lat="45.5777" lon="5.73611">
        <ele>689</ele>
        <time>2019-10-27T14:00:43.000Z</time>
      </trkpt>
      <trkpt lat="45.5777" lon="5.73611">
        <ele>689</ele>
        <time>2019-10-27T14:00:44.000Z</time>
      </trkpt>
      <trkpt lat="45.5777" lon="5.73611">
        <ele>689</ele>
        <time>2019-10-27T14:00:45.000Z</time>
      </trkpt>
      <trkpt lat="45.5777" lon="5.73611">
        <ele>689</ele>
        <time>2019-10-27T14:00:46.000Z</time>
      </trkpt>
      <trkpt lat="45.57769" lon="5.73611">
        <ele>688.5</ele>
        <time>2019-10-27T14:00:47.000Z</time>
      </trkpt>
      <trkpt lat="45.57767" lon="5.73612">
        <ele>688</ele>
        <time>2019-10-27T14:00:48.000Z</time>
      </trkpt>
      <trkpt lat="45.57764" lon="5.73612">
        <ele>688</ele>
        <time>2019-10-27T14:00:49.000Z</time>
      </trkpt>
      <trkpt lat="45.57762" lon="5.73612">
        <ele>688</ele>
        <time>2019-10-27T14:00:50.000Z</time>
      </trkpt>
      <trkpt lat="45.5776" lon="5.73612">
        <ele>688</ele>
        <time>2019-10-27T14:00:51.000Z</time>
      </trkpt>
      <trkpt lat="45.5776" lon="5.73612">
        <ele>688</ele>
        <time>2019-10-27T14:00:52.000Z</time>
      </trkpt>
      <trkpt lat="45.5776" lon="5.73612">
        <ele>688</ele>
        <time>2019-10-27T14:00:53.000Z</time>
      </trkpt>
      <trkpt lat="45.57759" lon="5.73612">
        <ele>688</ele>
        <time>2019-10-27T14:00:54.000Z</time>
      </trkpt>
      <trkpt lat="45.57759" lon="5.73612">
        <ele>688</ele>
        <time>2019-10-27T14:00:55.000Z</time>
      </trkpt>
      <trkpt lat="45.57758" lon="5.73612">
        <ele>688</ele>
        <time>2019-10-27T14:00:56.000Z</time>
      </trkpt>
      <trkpt lat="45.57757" lon="5.73612">
        <ele>688</ele>
        <time>2019-10-27T14:00:57.000Z</time>
      </trkpt>
      <trkpt lat="45.57756" lon="5.73612">
        <ele>688</ele>
        <time>2019-10-27T14:00:58.000Z</time>
      </trkpt>
      <trkpt lat="45.57755" lon="5.73612">
        <ele>688</ele>
        <time>2019-10-27T14:00:59.000Z</time>
      </trkpt>
      <trkpt lat="45.57754" lon="5.73612">
        <ele>688</ele>
        <time>2019-10-27T14:01:00.000Z</time>
      </trkpt>
      <trkpt lat="45.57753" lon="5.73612">
        <ele>688</ele>
        <time>2019-10-27T14:01:01.000Z</time>
      </trkpt>
      <trkpt lat="45.57753" lon="5.73612">
        <ele>688</ele>
        <time>2019-10-27T14:01:02.000Z</time>
      </trkpt>
      <trkpt lat="45.57752" lon="5.73612">
        <ele>688</ele>
        <time>2019-10-27T14:01:03.000Z</time>
      </trkpt>
      <trkpt lat="45.57751" lon="5.73611">
        <ele>688</ele>
        <time>2019-10-27T14:01:04.000Z</time>
      </trkpt>
      <trkpt lat="45.5775" lon="5.73611">
        <ele>688</ele>
        <time>2019-10-27T14:01:05.000Z</time>
      </trkpt>
      <trkpt lat="45.57749" lon="5.73611">
        <ele>688</ele>
        <time>2019-10-27T14:01:06.000Z</time>
      </trkpt>
      <trkpt lat="45.57747" lon="5.73611">
        <ele>688</ele>
        <time>2019-10-27T14:01:07.000Z</time>
      </trkpt>
      <trkpt lat="45.57746" lon="5.73612">
        <ele>688</ele>
        <time>2019-10-27T14:01:08.000Z</time>
      </trkpt>
      <trkpt lat="45.57745" lon="5.73612">
        <ele>688</ele>
        <time>2019-10-27T14:01:09.000Z</time>
      </trkpt>
      <trkpt lat="45.57743" lon="5.73612">
        <ele>688</ele>
        <time>2019-10-27T14:01:10.000Z</time>
      </trkpt>
      <trkpt lat="45.57742" lon="5.73612">
        <ele>688</ele>
        <time>2019-10-27T14:01:11.000Z</time>
      </trkpt>
      <trkpt lat="45.57741" lon="5.73612">
        <ele>688</ele>
        <time>2019-10-27T14:01:12.000Z</time>
      </trkpt>
      <trkpt lat="45.57741" lon="5.73613">
        <ele>688</ele>
        <time>2019-10-27T14:01:13.000Z</time>
      </trkpt>
      <trkpt lat="45.57741" lon="5.73613">
        <ele>688</ele>
        <time>2019-10-27T14:01:14.000Z</time>
      </trkpt>
      <trkpt lat="45.5774" lon="5.73613">
        <ele>688</ele>
        <time>2019-10-27T14:01:15.000Z</time>
      </trkpt>
      <trkpt lat="45.5774" lon="5.73612">
        <ele>688</ele>
        <time>2019-10-27T14:01:16.000Z</time>
      </trkpt>
      <trkpt lat="45.57739" lon="5.73612">
        <ele>688</ele>
        <time>2019-10-27T14:01:17.000Z</time>
      </trkpt>
      <trkpt lat="45.57738" lon="5.73612">
        <ele>688</ele>
        <time>2019-10-27T14:01:18.000Z</time>
      </trkpt>
      <trkpt lat="45.57736" lon="5.73612">
        <ele>688</ele>
        <time>2019-10-27T14:01:19.000Z</time>
      </trkpt>
      <trkpt lat="45.57734" lon="5.73611">
        <ele>688</ele>
        <time>2019-10-27T14:01:20.000Z</time>
      </trkpt>
      <trkpt lat="45.57732" lon="5.73611">
        <ele>688</ele>
        <time>2019-10-27T14:01:21.000Z</time>
      </trkpt>
      <trkpt lat="45.5773" lon="5.73611">
        <ele>688</ele>
        <time>2019-10-27T14:01:22.000Z</time>
      </trkpt>
      <trkpt lat="45.57729" lon="5.73611">
        <ele>688</ele>
        <time>2019-10-27T14:01:23.000Z</time>
      </trkpt>
      <trkpt lat="45.57728" lon="5.73611">
        <ele>688</ele>
        <time>2019-10-27T14:01:24.000Z</time>
      </trkpt>
      <trkpt lat="45.57727" lon="5.73611">
        <ele>688</ele>
        <time>2019-10-27T14:01:25.000Z</time>
      </trkpt>
      <trkpt lat="45.57726" lon="5.73611">
        <ele>688</ele>
        <time>2019-10-27T14:01:26.000Z</time>
      </trkpt>
      <trkpt lat="45.57725" lon="5.73611">
        <ele>688</ele>
        <time>2019-10-27T14:01:27.000Z</time>
      </trkpt>
      <trkpt lat="45.57725" lon="5.7361">
        <ele>688</ele>
        <time>2019-10-27T14:01:28.000Z</time>
      </trkpt>
      <trkpt lat="45.57724" lon="5.7361">
        <ele>688</ele>
        <time>2019-10-27T14:01:29.000Z</time>
      </trkpt>
      <trkpt lat="45.57723" lon="5.7361">
        <ele>688</ele>
        <time>2019-10-27T14:01:30.000Z</time>
      </trkpt>
      <trkpt lat="45.57723" lon="5.7361">
        <ele>689</ele>
        <time>2019-10-27T14:01:31.000Z</time>
      </trkpt>
      <trkpt lat="45.57722" lon="5.7361">
        <ele>689</ele>
        <time>2019-10-27T14:01:32.000Z</time>
      </trkpt>
      <trkpt lat="45.57722" lon="5.73611">
        <ele>689</ele>
        <time>2019-10-27T14:01:33.000Z</time>
      </trkpt>
      <trkpt lat="45.57721" lon="5.73611">
        <ele>689</ele>
        <time>2019-10-27T14:01:34.000Z</time>
      </trkpt>
      <trkpt lat="45.57721" lon="5.73611">
        <ele>689</ele>
        <time>2019-10-27T14:01:35.000Z</time>
      </trkpt>
      <trkpt lat="45.5772" lon="5.73612">
        <ele>689</ele>
        <time>2019-10-27T14:01:36.000Z</time>
      </trkpt>
      <trkpt lat="45.5772" lon="5.73612">
        <ele>689</ele>
        <time>2019-10-27T14:01:37.000Z</time>
      </trkpt>
      <trkpt lat="45.57719" lon="5.73613">
        <ele>689</ele>
        <time>2019-10-27T14:01:38.000Z</time>
      </trkpt>
      <trkpt lat="45.57719" lon="5.73613">
        <ele>689</ele>
        <time>2019-10-27T14:01:39.000Z</time>
      </trkpt>
      <trkpt lat="45.57719" lon="5.73614">
        <ele>689</ele>
        <time>2019-10-27T14:01:40.000Z</time>
      </trkpt>
      <trkpt lat="45.57719" lon="5.73614">
        <ele>689</ele>
        <time>2019-10-27T14:01:41.000Z</time>
      </trkpt>
      <trkpt lat="45.57718" lon="5.73615">
        <ele>689</ele>
        <time>2019-10-27T14:01:42.000Z</time>
      </trkpt>
      <trkpt lat="45.57718" lon="5.73615">
        <ele>689</ele>
        <time>2019-10-27T14:01:43.000Z</time>
      </trkpt>
      <trkpt lat="45.57718" lon="5.73615">
        <ele>689</ele>
        <time>2019-10-27T14:01:44.000Z</time>
      </trkpt>
      <trkpt lat="45.57718" lon="5.73616">
        <ele>689</ele>
        <time>2019-10-27T14:01:45.000Z</time>
      </trkpt>
      <trkpt lat="45.57718" lon="5.73616">
        <ele>689</ele>
        <time>2019-10-27T14:01:46.000Z</time>
      </trkpt>
      <trkpt lat="45.57717" lon="5.73616">
        <ele>689</ele>
        <time>2019-10-27T14:01:47.000Z</time>
      </trkpt>
      <trkpt lat="45.57717" lon="5.73617">
        <ele>689</ele>
        <time>2019-10-27T14:01:48.000Z</time>
      </trkpt>
      <trkpt lat="45.57717" lon="5.73617">
        <ele>689</ele>
        <time>2019-10-27T14:01:49.000Z</time>
      </trkpt>
      <trkpt lat="45.57716" lon="5.73617">
        <ele>689</ele>
        <time>2019-10-27T14:01:50.000Z</time>
      </trkpt>
      <trkpt lat="45.57716" lon="5.73617">
        <ele>689</ele>
        <time>2019-10-27T14:01:51.000Z</time>
      </trkpt>
      <trkpt lat="45.57715" lon="5.73617">
        <ele>689</ele>
        <time>2019-10-27T14:01:52.000Z</time>
      </trkpt>
      <trkpt lat="45.57714" lon="5.73618">
        <ele>689</ele>
        <time>2019-10-27T14:01:53.000Z</time>
      </trkpt>
      <trkpt lat="45.57714" lon="5.73618">
        <ele>689</ele>
        <time>2019-10-27T14:01:54.000Z</time>
      </trkpt>
      <trkpt lat="45.57713" lon="5.73618">
        <ele>689</ele>
        <time>2019-10-27T14:01:55.000Z</time>
      </trkpt>
      <trkpt lat="45.57712" lon="5.73618">
        <ele>689</ele>
        <time>2019-10-27T14:01:56.000Z</time>
      </trkpt>
      <trkpt lat="45.57712" lon="5.73618">
        <ele>689</ele>
        <time>2019-10-27T14:01:57.000Z</time>
      </trkpt>
      <trkpt lat="45.57711" lon="5.73618">
        <ele>689</ele>
        <time>2019-10-27T14:01:58.000Z</time>
      </trkpt>
      <trkpt lat="45.57711" lon="5.73619">
        <ele>689</ele>
        <time>2019-10-27T14:01:59.000Z</time>
      </trkpt>
      <trkpt lat="45.5771" lon="5.73619">
        <ele>689</ele>
        <time>2019-10-27T14:02:00.000Z</time>
      </trkpt>
      <trkpt lat="45.5771" lon="5.73619">
        <ele>689</ele>
        <time>2019-10-27T14:02:01.000Z</time>
      </trkpt>
      <trkpt lat="45.5771" lon="5.73619">
        <ele>689</ele>
        <time>2019-10-27T14:02:02.000Z</time>
      </trkpt>
      <trkpt lat="45.57709" lon="5.73619">
        <ele>689</ele>
        <time>2019-10-27T14:02:03.000Z</time>
      </trkpt>
      <trkpt lat="45.57709" lon="5.73619">
        <ele>689</ele>
        <time>2019-10-27T14:02:04.000Z</time>
      </trkpt>
      <trkpt lat="45.57708" lon="5.7362">
        <ele>689</ele>
        <time>2019-10-27T14:02:05.000Z</time>
      </trkpt>
      <trkpt lat="45.57708" lon="5.7362">
        <ele>688.7</ele>
        <time>2019-10-27T14:02:06.000Z</time>
      </trkpt>
      <trkpt lat="45.57707" lon="5.7362">
        <ele>688.3</ele>
        <time>2019-10-27T14:02:07.000Z</time>
      </trkpt>
      <trkpt lat="45.57706" lon="5.7362">
        <ele>688</ele>
        <time>2019-10-27T14:02:08.000Z</time>
      </trkpt>
      <trkpt lat="45.57705" lon="5.73621">
        <ele>688</ele>
        <time>2019-10-27T14:02:09.000Z</time>
      </trkpt>
      <trkpt lat="45.57705" lon="5.73621">
        <ele>688</ele>
        <time>2019-10-27T14:02:10.000Z</time>
      </trkpt>
      <trkpt lat="45.57704" lon="5.73621">
        <ele>688</ele>
        <time>2019-10-27T14:02:11.000Z</time>
      </trkpt>
      <trkpt lat="45.57703" lon="5.73621">
        <ele>688</ele>
        <time>2019-10-27T14:02:12.000Z</time>
      </trkpt>
      <trkpt lat="45.57702" lon="5.73621">
        <ele>688</ele>
        <time>2019-10-27T14:02:13.000Z</time>
      </trkpt>
      <trkpt lat="45.577" lon="5.73622">
        <ele>688</ele>
        <time>2019-10-27T14:02:14.000Z</time>
      </trkpt>
      <trkpt lat="45.57699" lon="5.73622">
        <ele>688</ele>
        <time>2019-10-27T14:02:15.000Z</time>
      </trkpt>
      <trkpt lat="45.57698" lon="5.73622">
        <ele>688</ele>
        <time>2019-10-27T14:02:16.000Z</time>
      </trkpt>
      <trkpt lat="45.57697" lon="5.73622">
        <ele>688</ele>
        <time>2019-10-27T14:02:17.000Z</time>
      </trkpt>
      <trkpt lat="45.57696" lon="5.73622">
        <ele>688</ele>
        <time>2019-10-27T14:02:18.000Z</time>
      </trkpt>
      <trkpt lat="45.57695" lon="5.73622">
        <ele>688</ele>
        <time>2019-10-27T14:02:19.000Z</time>
      </trkpt>
      <trkpt lat="45.57694" lon="5.73623">
        <ele>688</ele>
        <time>2019-10-27T14:02:20.000Z</time>
      </trkpt>
      <trkpt lat="45.57693" lon="5.73623">
        <ele>688</ele>
        <time>2019-10-27T14:02:21.000Z</time>
      </trkpt>
      <trkpt lat="45.57691" lon="5.73623">
        <ele>688</ele>
        <time>2019-10-27T14:02:22.000Z</time>
      </trkpt>
      <trkpt lat="45.57691" lon="5.73623">
        <ele>688</ele>
        <time>2019-10-27T14:02:23.000Z</time>
      </trkpt>
      <trkpt lat="45.5769" lon="5.73622">
        <ele>688</ele>
        <time>2019-10-27T14:02:24.000Z</time>
      </trkpt>
      <trkpt lat="45.57689" lon="5.73622">
        <ele>688</ele>
        <time>2019-10-27T14:02:25.000Z</time>
      </trkpt>
      <trkpt lat="45.57688" lon="5.73622">
        <ele>688</ele>
        <time>2019-10-27T14:02:26.000Z</time>
      </trkpt>
      <trkpt lat="45.57687" lon="5.73622">
        <ele>688</ele>
        <time>2019-10-27T14:02:27.000Z</time>
      </trkpt>
      <trkpt lat="45.57685" lon="5.73622">
        <ele>688</ele>
        <time>2019-10-27T14:02:28.000Z</time>
      </trkpt>
      <trkpt lat="45.57683" lon="5.73623">
        <ele>688</ele>
        <time>2019-10-27T14:02:29.000Z</time>
      </trkpt>
      <trkpt lat="45.57682" lon="5.73624">
        <ele>688.3</ele>
        <time>2019-10-27T14:02:30.000Z</time>
      </trkpt>
      <trkpt lat="45.57681" lon="5.73624">
        <ele>688.7</ele>
        <time>2019-10-27T14:02:31.000Z</time>
      </trkpt>
      <trkpt lat="45.57681" lon="5.73624">
        <ele>689</ele>
        <time>2019-10-27T14:02:32.000Z</time>
      </trkpt>
      <trkpt lat="45.5768" lon="5.73625">
        <ele>689</ele>
        <time>2019-10-27T14:02:33.000Z</time>
      </trkpt>
      <trkpt lat="45.5768" lon="5.73625">
        <ele>689</ele>
        <time>2019-10-27T14:02:34.000Z</time>
      </trkpt>
      <trkpt lat="45.57679" lon="5.73625">
        <ele>689</ele>
        <time>2019-10-27T14:02:35.000Z</time>
      </trkpt>
      <trkpt lat="45.57679" lon="5.73625">
        <ele>689</ele>
        <time>2019-10-27T14:02:36.000Z</time>
      </trkpt>
      <trkpt lat="45.57678" lon="5.73625">
        <ele>689</ele>
        <time>2019-10-27T14:02:37.000Z</time>
      </trkpt>
      <trkpt lat="45.57678" lon="5.73626">
        <ele>689</ele>
        <time>2019-10-27T14:02:38.000Z</time>
      </trkpt>
      <trkpt lat="45.57677" lon="5.73626">
        <ele>689</ele>
        <time>2019-10-27T14:02:39.000Z</time>
      </trkpt>
      <trkpt lat="45.57677" lon="5.73626">
        <ele>689</ele>
        <time>2019-10-27T14:02:40.000Z</time>
      </trkpt>
      <trkpt lat="45.57676" lon="5.73626">
        <ele>689</ele>
        <time>2019-10-27T14:02:41.000Z</time>
      </trkpt>
      <trkpt lat="45.57675" lon="5.73626">
        <ele>689</ele>
        <time>2019-10-27T14:02:42.000Z</time>
      </trkpt>
      <trkpt lat="45.57675" lon="5.73626">
        <ele>689</ele>
        <time>2019-10-27T14:02:43.000Z</time>
      </trkpt>
      <trkpt lat="45.57674" lon="5.73626">
        <ele>689</ele>
        <time>2019-10-27T14:02:44.000Z</time>
      </trkpt>
      <trkpt lat="45.57673" lon="5.73626">
        <ele>689</ele>
        <time>2019-10-27T14:02:45.000Z</time>
      </trkpt>
      <trkpt lat="45.57672" lon="5.73626">
        <ele>689</ele>
        <time>2019-10-27T14:02:46.000Z</time>
      </trkpt>
      <trkpt lat="45.57671" lon="5.73626">
        <ele>689</ele>
        <time>2019-10-27T14:02:47.000Z</time>
      </trkpt>
      <trkpt lat="45.57671" lon="5.73626">
        <ele>689</ele>
        <time>2019-10-27T14:02:48.000Z</time>
      </trkpt>
      <trkpt lat="45.5767" lon="5.73625">
        <ele>689</ele>
        <time>2019-10-27T14:02:49.000Z</time>
      </trkpt>
      <trkpt lat="45.57669" lon="5.73625">
        <ele>689</ele>
        <time>2019-10-27T14:02:50.000Z</time>
      </trkpt>
      <trkpt lat="45.57668" lon="5.73625">
        <ele>689</ele>
        <time>2019-10-27T14:02:51.000Z</time>
      </trkpt>
      <trkpt lat="45.57667" lon="5.73624">
        <ele>689</ele>
        <time>2019-10-27T14:02:52.000Z</time>
      </trkpt>
      <trkpt lat="45.57666" lon="5.73624">
        <ele>690</ele>
        <time>2019-10-27T14:02:53.000Z</time>
      </trkpt>
      <trkpt lat="45.57665" lon="5.73623">
        <ele>690</ele>
        <time>2019-10-27T14:02:54.000Z</time>
      </trkpt>
      <trkpt lat="45.57663" lon="5.73622">
        <ele>690</ele>
        <time>2019-10-27T14:02:55.000Z</time>
      </trkpt>
      <trkpt lat="45.57662" lon="5.73622">
        <ele>690</ele>
        <time>2019-10-27T14:02:56.000Z</time>
      </trkpt>
      <trkpt lat="45.57661" lon="5.73621">
        <ele>690</ele>
        <time>2019-10-27T14:02:57.000Z</time>
      </trkpt>
      <trkpt lat="45.5766" lon="5.7362">
        <ele>690</ele>
        <time>2019-10-27T14:02:58.000Z</time>
      </trkpt>
      <trkpt lat="45.5766" lon="5.7362">
        <ele>690</ele>
        <time>2019-10-27T14:02:59.000Z</time>
      </trkpt>
      <trkpt lat="45.57659" lon="5.73619">
        <ele>690</ele>
        <time>2019-10-27T14:03:00.000Z</time>
      </trkpt>
      <trkpt lat="45.57658" lon="5.73619">
        <ele>690</ele>
        <time>2019-10-27T14:03:01.000Z</time>
      </trkpt>
      <trkpt lat="45.57658" lon="5.73618">
        <ele>690</ele>
        <time>2019-10-27T14:03:02.000Z</time>
      </trkpt>
      <trkpt lat="45.57657" lon="5.73617">
        <ele>690</ele>
        <time>2019-10-27T14:03:03.000Z</time>
      </trkpt>
      <trkpt lat="45.57656" lon="5.73616">
        <ele>690</ele>
        <time>2019-10-27T14:03:04.000Z</time>
      </trkpt>
      <trkpt lat="45.57656" lon="5.73615">
        <ele>690</ele>
        <time>2019-10-27T14:03:05.000Z</time>
      </trkpt>
      <trkpt lat="45.57655" lon="5.73614">
        <ele>690</ele>
        <time>2019-10-27T14:03:06.000Z</time>
      </trkpt>
      <trkpt lat="45.57654" lon="5.73612">
        <ele>690</ele>
        <time>2019-10-27T14:03:07.000Z</time>
      </trkpt>
      <trkpt lat="45.57653" lon="5.7361">
        <ele>690.5</ele>
        <time>2019-10-27T14:03:08.000Z</time>
      </trkpt>
      <trkpt lat="45.57651" lon="5.73609">
        <ele>691</ele>
        <time>2019-10-27T14:03:09.000Z</time>
      </trkpt>
      <trkpt lat="45.5765" lon="5.73607">
        <ele>691</ele>
        <time>2019-10-27T14:03:10.000Z</time>
      </trkpt>
      <trkpt lat="45.57648" lon="5.73605">
        <ele>691</ele>
        <time>2019-10-27T14:03:11.000Z</time>
      </trkpt>
      <trkpt lat="45.57647" lon="5.73603">
        <ele>691.3</ele>
        <time>2019-10-27T14:03:12.000Z</time>
      </trkpt>
      <trkpt lat="45.57645" lon="5.73601">
        <ele>691.7</ele>
        <time>2019-10-27T14:03:13.000Z</time>
      </trkpt>
      <trkpt lat="45.57644" lon="5.73599">
        <ele>692</ele>
        <time>2019-10-27T14:03:14.000Z</time>
      </trkpt>
      <trkpt lat="45.57642" lon="5.73597">
        <ele>692</ele>
        <time>2019-10-27T14:03:15.000Z</time>
      </trkpt>
      <trkpt lat="45.5764" lon="5.73595">
        <ele>692.5</ele>
        <time>2019-10-27T14:03:16.000Z</time>
      </trkpt>
      <trkpt lat="45.57638" lon="5.73594">
        <ele>693</ele>
        <time>2019-10-27T14:03:17.000Z</time>
      </trkpt>
      <trkpt lat="45.57637" lon="5.73593">
        <ele>693</ele>
        <time>2019-10-27T14:03:18.000Z</time>
      </trkpt>
      <trkpt lat="45.57635" lon="5.73592">
        <ele>693</ele>
        <time>2019-10-27T14:03:19.000Z</time>
      </trkpt>
      <trkpt lat="45.57633" lon="5.73591">
        <ele>693</ele>
        <time>2019-10-27T14:03:20.000Z</time>
      </trkpt>
      <trkpt lat="45.57632" lon="5.7359">
        <ele>694</ele>
        <time>2019-10-27T14:03:21.000Z</time>
      </trkpt>
      <trkpt lat="45.5763" lon="5.73589">
        <ele>694</ele>
        <time>2019-10-27T14:03:22.000Z</time>
      </trkpt>
      <trkpt lat="45.57629" lon="5.73588">
        <ele>694</ele>
        <time>2019-10-27T14:03:23.000Z</time>
      </trkpt>
      <trkpt lat="45.57628" lon="5.73588">
        <ele>694</ele>
        <time>2019-10-27T14:03:24.000Z</time>
      </trkpt>
      <trkpt lat="45.57627" lon="5.73588">
        <ele>694</ele>
        <time>2019-10-27T14:03:25.000Z</time>
      </trkpt>
      <trkpt lat="45.57626" lon="5.73587">
        <ele>694</ele>
        <time>2019-10-27T14:03:26.000Z</time>
      </trkpt>
      <trkpt lat="45.57625" lon="5.73587">
        <ele>694</ele>
        <time>2019-10-27T14:03:27.000Z</time>
      </trkpt>
      <trkpt lat="45.57624" lon="5.73587">
        <ele>694</ele>
        <time>2019-10-27T14:03:28.000Z</time>
      </trkpt>
      <trkpt lat="45.57622" lon="5.73587">
        <ele>694</ele>
        <time>2019-10-27T14:03:29.000Z</time>
      </trkpt>
      <trkpt lat="45.57621" lon="5.73586">
        <ele>694</ele>
        <time>2019-10-27T14:03:30.000Z</time>
      </trkpt>
      <trkpt lat="45.57619" lon="5.73586">
        <ele>694</ele>
        <time>2019-10-27T14:03:31.000Z</time>
      </trkpt>
      <trkpt lat="45.57618" lon="5.73586">
        <ele>694</ele>
        <time>2019-10-27T14:03:32.000Z</time>
      </trkpt>
      <trkpt lat="45.57617" lon="5.73586">
        <ele>694</ele>
        <time>2019-10-27T14:03:33.000Z</time>
      </trkpt>
      <trkpt lat="45.57616" lon="5.73586">
        <ele>694</ele>
        <time>2019-10-27T14:03:34.000Z</time>
      </trkpt>
      <trkpt lat="45.57616" lon="5.73586">
        <ele>694</ele>
        <time>2019-10-27T14:03:35.000Z</time>
      </trkpt>
      <trkpt lat="45.57616" lon="5.73586">
        <ele>694</ele>
        <time>2019-10-27T14:03:36.000Z</time>
      </trkpt>
      <trkpt lat="45.57616" lon="5.73586">
        <ele>694</ele>
        <time>2019-10-27T14:03:37.000Z</time>
      </trkpt>
      <trkpt lat="45.57615" lon="5.73586">
        <ele>694</ele>
        <time>2019-10-27T14:03:38.000Z</time>
      </trkpt>
      <trkpt lat="45.57615" lon="5.73586">
        <ele>694</ele>
        <time>2019-10-27T14:03:39.000Z</time>
      </trkpt>
      <trkpt lat="45.57614" lon="5.73586">
        <ele>694</ele>
        <time>2019-10-27T14:03:40.000Z</time>
      </trkpt>
      <trkpt lat="45.57613" lon="5.73586">
        <ele>694</ele>
        <time>2019-10-27T14:03:41.000Z</time>
      </trkpt>
      <trkpt lat="45.57611" lon="5.73586">
        <ele>694</ele>
        <time>2019-10-27T14:03:42.000Z</time>
      </trkpt>
      <trkpt lat="45.5761" lon="5.73586">
        <ele>694</ele>
        <time>2019-10-27T14:03:43.000Z</time>
      </trkpt>
      <trkpt lat="45.57608" lon="5.73586">
        <ele>694</ele>
        <time>2019-10-27T14:03:44.000Z</time>
      </trkpt>
      <trkpt lat="45.57607" lon="5.73586">
        <ele>694</ele>
        <time>2019-10-27T14:03:45.000Z</time>
      </trkpt>
      <trkpt lat="45.57606" lon="5.73586">
        <ele>694</ele>
        <time>2019-10-27T14:03:46.000Z</time>
      </trkpt>
      <trkpt lat="45.57606" lon="5.73586">
        <ele>694</ele>
        <time>2019-10-27T14:03:47.000Z</time>
      </trkpt>
      <trkpt lat="45.57606" lon="5.73586">
        <ele>694</ele>
        <time>2019-10-27T14:03:48.000Z</time>
      </trkpt>
      <trkpt lat="45.57606" lon="5.73586">
        <ele>694</ele>
        <time>2019-10-27T14:03:49.000Z</time>
      </trkpt>
      <trkpt lat="45.57606" lon="5.73586">
        <ele>694</ele>
        <time>2019-10-27T14:03:50.000Z</time>
      </trkpt>
      <trkpt lat="45.57605" lon="5.73586">
        <ele>694</ele>
        <time>2019-10-27T14:03:51.000Z</time>
      </trkpt>
      <trkpt lat="45.57604" lon="5.73586">
        <ele>694</ele>
        <time>2019-10-27T14:03:52.000Z</time>
      </trkpt>
      <trkpt lat="45.57603" lon="5.73585">
        <ele>694</ele>
        <time>2019-10-27T14:03:53.000Z</time>
      </trkpt>
      <trkpt lat="45.57601" lon="5.73585">
        <ele>694</ele>
        <time>2019-10-27T14:03:54.000Z</time>
      </trkpt>
      <trkpt lat="45.57599" lon="5.73585">
        <ele>694</ele>
        <time>2019-10-27T14:03:55.000Z</time>
      </trkpt>
      <trkpt lat="45.57598" lon="5.73584">
        <ele>694</ele>
        <time>2019-10-27T14:03:56.000Z</time>
      </trkpt>
      <trkpt lat="45.57598" lon="5.73584">
        <ele>694</ele>
        <time>2019-10-27T14:03:57.000Z</time>
      </trkpt>
      <trkpt lat="45.57597" lon="5.73584">
        <ele>694</ele>
        <time>2019-10-27T14:03:58.000Z</time>
      </trkpt>
      <trkpt lat="45.57596" lon="5.73583">
        <ele>693</ele>
        <time>2019-10-27T14:03:59.000Z</time>
      </trkpt>
      <trkpt lat="45.57595" lon="5.73583">
        <ele>693</ele>
        <time>2019-10-27T14:04:00.000Z</time>
      </trkpt>
      <trkpt lat="45.57595" lon="5.73583">
        <ele>693</ele>
        <time>2019-10-27T14:04:01.000Z</time>
      </trkpt>
      <trkpt lat="45.57594" lon="5.73583">
        <ele>693</ele>
        <time>2019-10-27T14:04:02.000Z</time>
      </trkpt>
      <trkpt lat="45.57593" lon="5.73583">
        <ele>693</ele>
        <time>2019-10-27T14:04:03.000Z</time>
      </trkpt>
      <trkpt lat="45.57592" lon="5.73583">
        <ele>693</ele>
        <time>2019-10-27T14:04:04.000Z</time>
      </trkpt>
      <trkpt lat="45.57591" lon="5.73583">
        <ele>693</ele>
        <time>2019-10-27T14:04:05.000Z</time>
      </trkpt>
      <trkpt lat="45.5759" lon="5.73583">
        <ele>693</ele>
        <time>2019-10-27T14:04:06.000Z</time>
      </trkpt>
      <trkpt lat="45.57589" lon="5.73583">
        <ele>693</ele>
        <time>2019-10-27T14:04:07.000Z</time>
      </trkpt>
      <trkpt lat="45.57587" lon="5.73583">
        <ele>693</ele>
        <time>2019-10-27T14:04:08.000Z</time>
      </trkpt>
      <trkpt lat="45.57586" lon="5.73583">
        <ele>693</ele>
        <time>2019-10-27T14:04:09.000Z</time>
      </trkpt>
      <trkpt lat="45.57585" lon="5.73584">
        <ele>693</ele>
        <time>2019-10-27T14:04:10.000Z</time>
      </trkpt>
      <trkpt lat="45.57584" lon="5.73584">
        <ele>693</ele>
        <time>2019-10-27T14:04:11.000Z</time>
      </trkpt>
      <trkpt lat="45.57583" lon="5.73584">
        <ele>693</ele>
        <time>2019-10-27T14:04:12.000Z</time>
      </trkpt>
      <trkpt lat="45.57582" lon="5.73585">
        <ele>693</ele>
        <time>2019-10-27T14:04:13.000Z</time>
      </trkpt>
      <trkpt lat="45.57581" lon="5.73585">
        <ele>693</ele>
        <time>2019-10-27T14:04:14.000Z</time>
      </trkpt>
      <trkpt lat="45.5758" lon="5.73585">
        <ele>693</ele>
        <time>2019-10-27T14:04:15.000Z</time>
      </trkpt>
      <trkpt lat="45.57579" lon="5.73586">
        <ele>693</ele>
        <time>2019-10-27T14:04:16.000Z</time>
      </trkpt>
      <trkpt lat="45.57578" lon="5.73586">
        <ele>693</ele>
        <time>2019-10-27T14:04:17.000Z</time>
      </trkpt>
      <trkpt lat="45.57577" lon="5.73586">
        <ele>693</ele>
        <time>2019-10-27T14:04:18.000Z</time>
      </trkpt>
      <trkpt lat="45.57576" lon="5.73586">
        <ele>693</ele>
        <time>2019-10-27T14:04:19.000Z</time>
      </trkpt>
      <trkpt lat="45.57576" lon="5.73586">
        <ele>693</ele>
        <time>2019-10-27T14:04:20.000Z</time>
      </trkpt>
      <trkpt lat="45.57575" lon="5.73586">
        <ele>693</ele>
        <time>2019-10-27T14:04:21.000Z</time>
      </trkpt>
      <trkpt lat="45.57574" lon="5.73586">
        <ele>693</ele>
        <time>2019-10-27T14:04:22.000Z</time>
      </trkpt>
      <trkpt lat="45.57573" lon="5.73587">
        <ele>693</ele>
        <time>2019-10-27T14:04:23.000Z</time>
      </trkpt>
      <trkpt lat="45.57572" lon="5.73587">
        <ele>693</ele>
        <time>2019-10-27T14:04:24.000Z</time>
      </trkpt>
      <trkpt lat="45.57571" lon="5.73586">
        <ele>693</ele>
        <time>2019-10-27T14:04:25.000Z</time>
      </trkpt>
      <trkpt lat="45.5757" lon="5.73586">
        <ele>693</ele>
        <time>2019-10-27T14:04:26.000Z</time>
      </trkpt>
      <trkpt lat="45.57568" lon="5.73586">
        <ele>692</ele>
        <time>2019-10-27T14:04:27.000Z</time>
      </trkpt>
      <trkpt lat="45.57567" lon="5.73586">
        <ele>692</ele>
        <time>2019-10-27T14:04:28.000Z</time>
      </trkpt>
      <trkpt lat="45.57566" lon="5.73586">
        <ele>692</ele>
        <time>2019-10-27T14:04:29.000Z</time>
      </trkpt>
      <trkpt lat="45.57565" lon="5.73586">
        <ele>692</ele>
        <time>2019-10-27T14:04:30.000Z</time>
      </trkpt>
      <trkpt lat="45.57563" lon="5.73585">
        <ele>692</ele>
        <time>2019-10-27T14:04:31.000Z</time>
      </trkpt>
      <trkpt lat="45.57562" lon="5.73585">
        <ele>692</ele>
        <time>2019-10-27T14:04:32.000Z</time>
      </trkpt>
      <trkpt lat="45.57561" lon="5.73585">
        <ele>692</ele>
        <time>2019-10-27T14:04:33.000Z</time>
      </trkpt>
      <trkpt lat="45.57559" lon="5.73584">
        <ele>692</ele>
        <time>2019-10-27T14:04:34.000Z</time>
      </trkpt>
      <trkpt lat="45.57558" lon="5.73584">
        <ele>692</ele>
        <time>2019-10-27T14:04:35.000Z</time>
      </trkpt>
      <trkpt lat="45.57557" lon="5.73584">
        <ele>692</ele>
        <time>2019-10-27T14:04:36.000Z</time>
      </trkpt>
      <trkpt lat="45.57556" lon="5.73583">
        <ele>692</ele>
        <time>2019-10-27T14:04:37.000Z</time>
      </trkpt>
      <trkpt lat="45.57555" lon="5.73583">
        <ele>692</ele>
        <time>2019-10-27T14:04:38.000Z</time>
      </trkpt>
      <trkpt lat="45.57554" lon="5.73583">
        <ele>692</ele>
        <time>2019-10-27T14:04:39.000Z</time>
      </trkpt>
      <trkpt lat="45.57552" lon="5.73583">
        <ele>691.7</ele>
        <time>2019-10-27T14:04:40.000Z</time>
      </trkpt>
      <trkpt lat="45.57551" lon="5.73583">
        <ele>691.3</ele>
        <time>2019-10-27T14:04:41.000Z</time>
      </trkpt>
      <trkpt lat="45.5755" lon="5.73582">
        <ele>691</ele>
        <time>2019-10-27T14:04:42.000Z</time>
      </trkpt>
      <trkpt lat="45.57549" lon="5.73582">
        <ele>691</ele>
        <time>2019-10-27T14:04:43.000Z</time>
      </trkpt>
      <trkpt lat="45.57548" lon="5.73581">
        <ele>691</ele>
        <time>2019-10-27T14:04:44.000Z</time>
      </trkpt>
      <trkpt lat="45.57547" lon="5.7358">
        <ele>691</ele>
        <time>2019-10-27T14:04:45.000Z</time>
      </trkpt>
      <trkpt lat="45.57546" lon="5.7358">
        <ele>691</ele>
        <time>2019-10-27T14:04:46.000Z</time>
      </trkpt>
      <trkpt lat="45.57545" lon="5.7358">
        <ele>691</ele>
        <time>2019-10-27T14:04:47.000Z</time>
      </trkpt>
      <trkpt lat="45.57544" lon="5.7358">
        <ele>691</ele>
        <time>2019-10-27T14:04:48.000Z</time>
      </trkpt>
      <trkpt lat="45.57544" lon="5.7358">
        <ele>691</ele>
        <time>2019-10-27T14:04:49.000Z</time>
      </trkpt>
      <trkpt lat="45.57543" lon="5.7358">
        <ele>691</ele>
        <time>2019-10-27T14:04:50.000Z</time>
      </trkpt>
      <trkpt lat="45.57542" lon="5.7358">
        <ele>691</ele>
        <time>2019-10-27T14:04:51.000Z</time>
      </trkpt>
      <trkpt lat="45.57542" lon="5.73581">
        <ele>691</ele>
        <time>2019-10-27T14:04:52.000Z</time>
      </trkpt>
      <trkpt lat="45.57541" lon="5.73581">
        <ele>691</ele>
        <time>2019-10-27T14:04:53.000Z</time>
      </trkpt>
      <trkpt lat="45.5754" lon="5.73581">
        <ele>691</ele>
        <time>2019-10-27T14:04:54.000Z</time>
      </trkpt>
      <trkpt lat="45.5754" lon="5.73581">
        <ele>691</ele>
        <time>2019-10-27T14:04:55.000Z</time>
      </trkpt>
      <trkpt lat="45.57539" lon="5.73581">
        <ele>691</ele>
        <time>2019-10-27T14:04:56.000Z</time>
      </trkpt>
      <trkpt lat="45.57538" lon="5.73581">
        <ele>691</ele>
        <time>2019-10-27T14:04:57.000Z</time>
      </trkpt>
      <trkpt lat="45.57537" lon="5.73581">
        <ele>691</ele>
        <time>2019-10-27T14:04:58.000Z</time>
      </trkpt>
      <trkpt lat="45.57536" lon="5.73581">
        <ele>691</ele>
        <time>2019-10-27T14:04:59.000Z</time>
      </trkpt>
      <trkpt lat="45.57535" lon="5.73581">
        <ele>690.7</ele>
        <time>2019-10-27T14:05:00.000Z</time>
      </trkpt>
      <trkpt lat="45.57534" lon="5.73581">
        <ele>690.3</ele>
        <time>2019-10-27T14:05:01.000Z</time>
      </trkpt>
      <trkpt lat="45.57532" lon="5.73581">
        <ele>690</ele>
        <time>2019-10-27T14:05:02.000Z</time>
      </trkpt>
      <trkpt lat="45.57531" lon="5.7358">
        <ele>690</ele>
        <time>2019-10-27T14:05:03.000Z</time>
      </trkpt>
      <trkpt lat="45.57529" lon="5.7358">
        <ele>690</ele>
        <time>2019-10-27T14:05:04.000Z</time>
      </trkpt>
      <trkpt lat="45.57528" lon="5.7358">
        <ele>690</ele>
        <time>2019-10-27T14:05:05.000Z</time>
      </trkpt>
      <trkpt lat="45.57526" lon="5.7358">
        <ele>690</ele>
        <time>2019-10-27T14:05:06.000Z</time>
      </trkpt>
      <trkpt lat="45.57524" lon="5.7358">
        <ele>690</ele>
        <time>2019-10-27T14:05:07.000Z</time>
      </trkpt>
      <trkpt lat="45.57523" lon="5.7358">
        <ele>690</ele>
        <time>2019-10-27T14:05:08.000Z</time>
      </trkpt>
      <trkpt lat="45.57521" lon="5.73581">
        <ele>690</ele>
        <time>2019-10-27T14:05:09.000Z</time>
      </trkpt>
      <trkpt lat="45.57519" lon="5.73581">
        <ele>690</ele>
        <time>2019-10-27T14:05:10.000Z</time>
      </trkpt>
      <trkpt lat="45.57518" lon="5.73581">
        <ele>689</ele>
        <time>2019-10-27T14:05:11.000Z</time>
      </trkpt>
      <trkpt lat="45.57517" lon="5.73581">
        <ele>689</ele>
        <time>2019-10-27T14:05:12.000Z</time>
      </trkpt>
      <trkpt lat="45.57515" lon="5.73581">
        <ele>689</ele>
        <time>2019-10-27T14:05:13.000Z</time>
      </trkpt>
      <trkpt lat="45.57514" lon="5.73581">
        <ele>689</ele>
        <time>2019-10-27T14:05:14.000Z</time>
      </trkpt>
      <trkpt lat="45.57514" lon="5.73581">
        <ele>689</ele>
        <time>2019-10-27T14:05:15.000Z</time>
      </trkpt>
      <trkpt lat="45.57513" lon="5.73581">
        <ele>689</ele>
        <time>2019-10-27T14:05:16.000Z</time>
      </trkpt>
      <trkpt lat="45.57512" lon="5.7358">
        <ele>689</ele>
        <time>2019-10-27T14:05:17.000Z</time>
      </trkpt>
      <trkpt lat="45.57511" lon="5.7358">
        <ele>689</ele>
        <time>2019-10-27T14:05:18.000Z</time>
      </trkpt>
      <trkpt lat="45.57511" lon="5.7358">
        <ele>689</ele>
        <time>2019-10-27T14:05:19.000Z</time>
      </trkpt>
      <trkpt lat="45.5751" lon="5.7358">
        <ele>689</ele>
        <time>2019-10-27T14:05:20.000Z</time>
      </trkpt>
      <trkpt lat="45.5751" lon="5.73579">
        <ele>689</ele>
        <time>2019-10-27T14:05:21.000Z</time>
      </trkpt>
      <trkpt lat="45.57509" lon="5.73579">
        <ele>689</ele>
        <time>2019-10-27T14:05:22.000Z</time>
      </trkpt>
      <trkpt lat="45.57508" lon="5.73579">
        <ele>689</ele>
        <time>2019-10-27T14:05:23.000Z</time>
      </trkpt>
      <trkpt lat="45.57507" lon="5.73579">
        <ele>689</ele>
        <time>2019-10-27T14:05:24.000Z</time>
      </trkpt>
      <trkpt lat="45.57506" lon="5.73579">
        <ele>689</ele>
        <time>2019-10-27T14:05:25.000Z</time>
      </trkpt>
      <trkpt lat="45.57505" lon="5.7358">
        <ele>689</ele>
        <time>2019-10-27T14:05:26.000Z</time>
      </trkpt>
      <trkpt lat="45.57504" lon="5.7358">
        <ele>689</ele>
        <time>2019-10-27T14:05:27.000Z</time>
      </trkpt>
      <trkpt lat="45.57503" lon="5.7358">
        <ele>689</ele>
        <time>2019-10-27T14:05:28.000Z</time>
      </trkpt>
      <trkpt lat="45.57502" lon="5.73581">
        <ele>689</ele>
        <time>2019-10-27T14:05:29.000Z</time>
      </trkpt>
      <trkpt lat="45.575" lon="5.73581">
        <ele>689</ele>
        <time>2019-10-27T14:05:30.000Z</time>
      </trkpt>
      <trkpt lat="45.57499" lon="5.73582">
        <ele>689</ele>
        <time>2019-10-27T14:05:31.000Z</time>
      </trkpt>
      <trkpt lat="45.57498" lon="5.73582">
        <ele>689</ele>
        <time>2019-10-27T14:05:32.000Z</time>
      </trkpt>
      <trkpt lat="45.57497" lon="5.73582">
        <ele>689</ele>
        <time>2019-10-27T14:05:33.000Z</time>
      </trkpt>
      <trkpt lat="45.57495" lon="5.73582">
        <ele>689</ele>
        <time>2019-10-27T14:05:34.000Z</time>
      </trkpt>
      <trkpt lat="45.57494" lon="5.73582">
        <ele>689</ele>
        <time>2019-10-27T14:05:35.000Z</time>
      </trkpt>
      <trkpt lat="45.57493" lon="5.73582">
        <ele>689</ele>
        <time>2019-10-27T14:05:36.000Z</time>
      </trkpt>
      <trkpt lat="45.57492" lon="5.73582">
        <ele>689</ele>
        <time>2019-10-27T14:05:37.000Z</time>
      </trkpt>
      <trkpt lat="45.57491" lon="5.73582">
        <ele>689</ele>
        <time>2019-10-27T14:05:38.000Z</time>
      </trkpt>
      <trkpt lat="45.5749" lon="5.73582">
        <ele>689</ele>
        <time>2019-10-27T14:05:39.000Z</time>
      </trkpt>
      <trkpt lat="45.57489" lon="5.73582">
        <ele>688.7</ele>
        <time>2019-10-27T14:05:40.000Z</time>
      </trkpt>
      <trkpt lat="45.57488" lon="5.73582">
        <ele>688.3</ele>
        <time>2019-10-27T14:05:41.000Z</time>
      </trkpt>
      <trkpt lat="45.57487" lon="5.73582">
        <ele>688</ele>
        <time>2019-10-27T14:05:42.000Z</time>
      </trkpt>
      <trkpt lat="45.57487" lon="5.73582">
        <ele>688</ele>
        <time>2019-10-27T14:05:43.000Z</time>
      </trkpt>
      <trkpt lat="45.57486" lon="5.73582">
        <ele>688</ele>
        <time>2019-10-27T14:05:44.000Z</time>
      </trkpt>
      <trkpt lat="45.57486" lon="5.73581">
        <ele>688</ele>
        <time>2019-10-27T14:05:45.000Z</time>
      </trkpt>
      <trkpt lat="45.57485" lon="5.73581">
        <ele>688</ele>
        <time>2019-10-27T14:05:46.000Z</time>
      </trkpt>
      <trkpt lat="45.57484" lon="5.73581">
        <ele>688</ele>
        <time>2019-10-27T14:05:47.000Z</time>
      </trkpt>
      <trkpt lat="45.57484" lon="5.73581">
        <ele>688</ele>
        <time>2019-10-27T14:05:48.000Z</time>
      </trkpt>
      <trkpt lat="45.57483" lon="5.73581">
        <ele>688</ele>
        <time>2019-10-27T14:05:49.000Z</time>
      </trkpt>
      <trkpt lat="45.57482" lon="5.73581">
        <ele>688</ele>
        <time>2019-10-27T14:05:50.000Z</time>
      </trkpt>
      <trkpt lat="45.57481" lon="5.73581">
        <ele>688</ele>
        <time>2019-10-27T14:05:51.000Z</time>
      </trkpt>
      <trkpt lat="45.5748" lon="5.73581">
        <ele>688</ele>
        <time>2019-10-27T14:05:52.000Z</time>
      </trkpt>
      <trkpt lat="45.57479" lon="5.73581">
        <ele>688</ele>
        <time>2019-10-27T14:05:53.000Z</time>
      </trkpt>
      <trkpt lat="45.57478" lon="5.73581">
        <ele>688</ele>
        <time>2019-10-27T14:05:54.000Z</time>
      </trkpt>
      <trkpt lat="45.57477" lon="5.73581">
        <ele>688</ele>
        <time>2019-10-27T14:05:55.000Z</time>
      </trkpt>
      <trkpt lat="45.57476" lon="5.73582">
        <ele>688</ele>
        <time>2019-10-27T14:05:56.000Z</time>
      </trkpt>
      <trkpt lat="45.57474" lon="5.73582">
        <ele>688</ele>
        <time>2019-10-27T14:05:57.000Z</time>
      </trkpt>
      <trkpt lat="45.57473" lon="5.73582">
        <ele>688</ele>
        <time>2019-10-27T14:05:58.000Z</time>
      </trkpt>
      <trkpt lat="45.57472" lon="5.73582">
        <ele>688</ele>
        <time>2019-10-27T14:05:59.000Z</time>
      </trkpt>
      <trkpt lat="45.57471" lon="5.73583">
        <ele>688</ele>
        <time>2019-10-27T14:06:00.000Z</time>
      </trkpt>
      <trkpt lat="45.57469" lon="5.73583">
        <ele>688</ele>
        <time>2019-10-27T14:06:01.000Z</time>
      </trkpt>
      <trkpt lat="45.57468" lon="5.73584">
        <ele>687.7</ele>
        <time>2019-10-27T14:06:02.000Z</time>
      </trkpt>
      <trkpt lat="45.57467" lon="5.73584">
        <ele>687.3</ele>
        <time>2019-10-27T14:06:03.000Z</time>
      </trkpt>
      <trkpt lat="45.57465" lon="5.73585">
        <ele>687</ele>
        <time>2019-10-27T14:06:04.000Z</time>
      </trkpt>
      <trkpt lat="45.57464" lon="5.73585">
        <ele>687</ele>
        <time>2019-10-27T14:06:05.000Z</time>
      </trkpt>
      <trkpt lat="45.57462" lon="5.73586">
        <ele>687</ele>
        <time>2019-10-27T14:06:06.000Z</time>
      </trkpt>
      <trkpt lat="45.57461" lon="5.73586">
        <ele>687</ele>
        <time>2019-10-27T14:06:07.000Z</time>
      </trkpt>
      <trkpt lat="45.5746" lon="5.73587">
        <ele>687</ele>
        <time>2019-10-27T14:06:08.000Z</time>
      </trkpt>
      <trkpt lat="45.57458" lon="5.73588">
        <ele>687</ele>
        <time>2019-10-27T14:06:09.000Z</time>
      </trkpt>
      <trkpt lat="45.57457" lon="5.73589">
        <ele>687</ele>
        <time>2019-10-27T14:06:10.000Z</time>
      </trkpt>
      <trkpt lat="45.57455" lon="5.73589">
        <ele>687</ele>
        <time>2019-10-27T14:06:11.000Z</time>
      </trkpt>
      <trkpt lat="45.57454" lon="5.7359">
        <ele>687</ele>
        <time>2019-10-27T14:06:12.000Z</time>
      </trkpt>
      <trkpt lat="45.57452" lon="5.73591">
        <ele>687</ele>
        <time>2019-10-27T14:06:13.000Z</time>
      </trkpt>
      <trkpt lat="45.57451" lon="5.73592">
        <ele>686.7</ele>
        <time>2019-10-27T14:06:14.000Z</time>
      </trkpt>
      <trkpt lat="45.57449" lon="5.73593">
        <ele>686.3</ele>
        <time>2019-10-27T14:06:15.000Z</time>
      </trkpt>
      <trkpt lat="45.57448" lon="5.73594">
        <ele>686</ele>
        <time>2019-10-27T14:06:16.000Z</time>
      </trkpt>
      <trkpt lat="45.57446" lon="5.73595">
        <ele>686</ele>
        <time>2019-10-27T14:06:17.000Z</time>
      </trkpt>
      <trkpt lat="45.57444" lon="5.73596">
        <ele>686</ele>
        <time>2019-10-27T14:06:18.000Z</time>
      </trkpt>
      <trkpt lat="45.57443" lon="5.73597">
        <ele>686</ele>
        <time>2019-10-27T14:06:19.000Z</time>
      </trkpt>
      <trkpt lat="45.57441" lon="5.73598">
        <ele>686</ele>
        <time>2019-10-27T14:06:20.000Z</time>
      </trkpt>
      <trkpt lat="45.5744" lon="5.73599">
        <ele>686</ele>
        <time>2019-10-27T14:06:21.000Z</time>
      </trkpt>
      <trkpt lat="45.57439" lon="5.736">
        <ele>686</ele>
        <time>2019-10-27T14:06:22.000Z</time>
      </trkpt>
      <trkpt lat="45.57437" lon="5.73601">
        <ele>685</ele>
        <time>2019-10-27T14:06:23.000Z</time>
      </trkpt>
      <trkpt lat="45.57436" lon="5.73602">
        <ele>685</ele>
        <time>2019-10-27T14:06:24.000Z</time>
      </trkpt>
      <trkpt lat="45.57435" lon="5.73602">
        <ele>685</ele>
        <time>2019-10-27T14:06:25.000Z</time>
      </trkpt>
      <trkpt lat="45.57434" lon="5.73603">
        <ele>685</ele>
        <time>2019-10-27T14:06:26.000Z</time>
      </trkpt>
      <trkpt lat="45.57433" lon="5.73604">
        <ele>685</ele>
        <time>2019-10-27T14:06:27.000Z</time>
      </trkpt>
      <trkpt lat="45.57433" lon="5.73605">
        <ele>685</ele>
        <time>2019-10-27T14:06:28.000Z</time>
      </trkpt>
      <trkpt lat="45.57432" lon="5.73605">
        <ele>685</ele>
        <time>2019-10-27T14:06:29.000Z</time>
      </trkpt>
      <trkpt lat="45.57431" lon="5.73606">
        <ele>684.7</ele>
        <time>2019-10-27T14:06:30.000Z</time>
      </trkpt>
      <trkpt lat="45.5743" lon="5.73606">
        <ele>684.3</ele>
        <time>2019-10-27T14:06:31.000Z</time>
      </trkpt>
      <trkpt lat="45.57429" lon="5.73607">
        <ele>684</ele>
        <time>2019-10-27T14:06:32.000Z</time>
      </trkpt>
      <trkpt lat="45.57428" lon="5.73607">
        <ele>684</ele>
        <time>2019-10-27T14:06:33.000Z</time>
      </trkpt>
      <trkpt lat="45.57427" lon="5.73608">
        <ele>684</ele>
        <time>2019-10-27T14:06:34.000Z</time>
      </trkpt>
      <trkpt lat="45.57426" lon="5.73608">
        <ele>684</ele>
        <time>2019-10-27T14:06:35.000Z</time>
      </trkpt>
      <trkpt lat="45.57425" lon="5.73609">
        <ele>684</ele>
        <time>2019-10-27T14:06:36.000Z</time>
      </trkpt>
      <trkpt lat="45.57424" lon="5.73609">
        <ele>684</ele>
        <time>2019-10-27T14:06:37.000Z</time>
      </trkpt>
      <trkpt lat="45.57422" lon="5.73609">
        <ele>684</ele>
        <time>2019-10-27T14:06:38.000Z</time>
      </trkpt>
      <trkpt lat="45.57421" lon="5.7361">
        <ele>684</ele>
        <time>2019-10-27T14:06:39.000Z</time>
      </trkpt>
      <trkpt lat="45.5742" lon="5.7361">
        <ele>683.5</ele>
        <time>2019-10-27T14:06:40.000Z</time>
      </trkpt>
      <trkpt lat="45.57418" lon="5.73609">
        <ele>683</ele>
        <time>2019-10-27T14:06:41.000Z</time>
      </trkpt>
      <trkpt lat="45.57417" lon="5.73609">
        <ele>683</ele>
        <time>2019-10-27T14:06:42.000Z</time>
      </trkpt>
      <trkpt lat="45.57416" lon="5.73609">
        <ele>683</ele>
        <time>2019-10-27T14:06:43.000Z</time>
      </trkpt>
      <trkpt lat="45.57415" lon="5.73608">
        <ele>683</ele>
        <time>2019-10-27T14:06:44.000Z</time>
      </trkpt>
      <trkpt lat="45.57414" lon="5.73608">
        <ele>683</ele>
        <time>2019-10-27T14:06:45.000Z</time>
      </trkpt>
      <trkpt lat="45.57413" lon="5.73607">
        <ele>683</ele>
        <time>2019-10-27T14:06:46.000Z</time>
      </trkpt>
      <trkpt lat="45.57412" lon="5.73607">
        <ele>683</ele>
        <time>2019-10-27T14:06:47.000Z</time>
      </trkpt>
      <trkpt lat="45.57411" lon="5.73606">
        <ele>683</ele>
        <time>2019-10-27T14:06:48.000Z</time>
      </trkpt>
      <trkpt lat="45.57411" lon="5.73606">
        <ele>683</ele>
        <time>2019-10-27T14:06:49.000Z</time>
      </trkpt>
      <trkpt lat="45.5741" lon="5.73606">
        <ele>683</ele>
        <time>2019-10-27T14:06:50.000Z</time>
      </trkpt>
      <trkpt lat="45.57409" lon="5.73605">
        <ele>683</ele>
        <time>2019-10-27T14:06:51.000Z</time>
      </trkpt>
      <trkpt lat="45.57409" lon="5.73605">
        <ele>683</ele>
        <time>2019-10-27T14:06:52.000Z</time>
      </trkpt>
      <trkpt lat="45.57408" lon="5.73605">
        <ele>683</ele>
        <time>2019-10-27T14:06:53.000Z</time>
      </trkpt>
      <trkpt lat="45.57406" lon="5.73605">
        <ele>683</ele>
        <time>2019-10-27T14:06:54.000Z</time>
      </trkpt>
      <trkpt lat="45.57405" lon="5.73605">
        <ele>683</ele>
        <time>2019-10-27T14:06:55.000Z</time>
      </trkpt>
      <trkpt lat="45.57403" lon="5.73605">
        <ele>683</ele>
        <time>2019-10-27T14:06:56.000Z</time>
      </trkpt>
      <trkpt lat="45.57401" lon="5.73605">
        <ele>683</ele>
        <time>2019-10-27T14:06:57.000Z</time>
      </trkpt>
      <trkpt lat="45.57399" lon="5.73605">
        <ele>682.7</ele>
        <time>2019-10-27T14:06:58.000Z</time>
      </trkpt>
      <trkpt lat="45.57398" lon="5.73604">
        <ele>682.3</ele>
        <time>2019-10-27T14:06:59.000Z</time>
      </trkpt>
      <trkpt lat="45.57396" lon="5.73604">
        <ele>682</ele>
        <time>2019-10-27T14:07:00.000Z</time>
      </trkpt>
      <trkpt lat="45.57395" lon="5.73604">
        <ele>682</ele>
        <time>2019-10-27T14:07:01.000Z</time>
      </trkpt>
      <trkpt lat="45.57394" lon="5.73604">
        <ele>682</ele>
        <time>2019-10-27T14:07:02.000Z</time>
      </trkpt>
      <trkpt lat="45.57393" lon="5.73604">
        <ele>682</ele>
        <time>2019-10-27T14:07:03.000Z</time>
      </trkpt>
      <trkpt lat="45.57393" lon="5.73604">
        <ele>682</ele>
        <time>2019-10-27T14:07:04.000Z</time>
      </trkpt>
      <trkpt lat="45.57392" lon="5.73603">
        <ele>682</ele>
        <time>2019-10-27T14:07:05.000Z</time>
      </trkpt>
      <trkpt lat="45.57391" lon="5.73603">
        <ele>682</ele>
        <time>2019-10-27T14:07:06.000Z</time>
      </trkpt>
      <trkpt lat="45.5739" lon="5.73603">
        <ele>682</ele>
        <time>2019-10-27T14:07:07.000Z</time>
      </trkpt>
      <trkpt lat="45.57389" lon="5.73602">
        <ele>682</ele>
        <time>2019-10-27T14:07:08.000Z</time>
      </trkpt>
      <trkpt lat="45.57389" lon="5.73602">
        <ele>682</ele>
        <time>2019-10-27T14:07:09.000Z</time>
      </trkpt>
      <trkpt lat="45.57388" lon="5.73601">
        <ele>682</ele>
        <time>2019-10-27T14:07:10.000Z</time>
      </trkpt>
      <trkpt lat="45.57387" lon="5.73601">
        <ele>682</ele>
        <time>2019-10-27T14:07:11.000Z</time>
      </trkpt>
      <trkpt lat="45.57386" lon="5.736">
        <ele>682</ele>
        <time>2019-10-27T14:07:12.000Z</time>
      </trkpt>
      <trkpt lat="45.57385" lon="5.736">
        <ele>682</ele>
        <time>2019-10-27T14:07:13.000Z</time>
      </trkpt>
      <trkpt lat="45.57384" lon="5.73599">
        <ele>682</ele>
        <time>2019-10-27T14:07:14.000Z</time>
      </trkpt>
      <trkpt lat="45.57383" lon="5.73599">
        <ele>682</ele>
        <time>2019-10-27T14:07:15.000Z</time>
      </trkpt>
      <trkpt lat="45.57382" lon="5.73598">
        <ele>682</ele>
        <time>2019-10-27T14:07:16.000Z</time>
      </trkpt>
      <trkpt lat="45.57381" lon="5.73598">
        <ele>682</ele>
        <time>2019-10-27T14:07:17.000Z</time>
      </trkpt>
      <trkpt lat="45.5738" lon="5.73597">
        <ele>681.5</ele>
        <time>2019-10-27T14:07:18.000Z</time>
      </trkpt>
      <trkpt lat="45.57379" lon="5.73597">
        <ele>681</ele>
        <time>2019-10-27T14:07:19.000Z</time>
      </trkpt>
      <trkpt lat="45.57378" lon="5.73596">
        <ele>681</ele>
        <time>2019-10-27T14:07:20.000Z</time>
      </trkpt>
      <trkpt lat="45.57377" lon="5.73596">
        <ele>681</ele>
        <time>2019-10-27T14:07:21.000Z</time>
      </trkpt>
      <trkpt lat="45.57375" lon="5.73595">
        <ele>681</ele>
        <time>2019-10-27T14:07:22.000Z</time>
      </trkpt>
      <trkpt lat="45.57374" lon="5.73595">
        <ele>681</ele>
        <time>2019-10-27T14:07:23.000Z</time>
      </trkpt>
      <trkpt lat="45.57373" lon="5.73594">
        <ele>681</ele>
        <time>2019-10-27T14:07:24.000Z</time>
      </trkpt>
      <trkpt lat="45.57372" lon="5.73594">
        <ele>681</ele>
        <time>2019-10-27T14:07:25.000Z</time>
      </trkpt>
      <trkpt lat="45.57371" lon="5.73594">
        <ele>681</ele>
        <time>2019-10-27T14:07:26.000Z</time>
      </trkpt>
      <trkpt lat="45.57369" lon="5.73594">
        <ele>681</ele>
        <time>2019-10-27T14:07:27.000Z</time>
      </trkpt>
      <trkpt lat="45.57368" lon="5.73594">
        <ele>681</ele>
        <time>2019-10-27T14:07:28.000Z</time>
      </trkpt>
      <trkpt lat="45.57367" lon="5.73594">
        <ele>681</ele>
        <time>2019-10-27T14:07:29.000Z</time>
      </trkpt>
      <trkpt lat="45.57366" lon="5.73594">
        <ele>681</ele>
        <time>2019-10-27T14:07:30.000Z</time>
      </trkpt>
      <trkpt lat="45.57365" lon="5.73594">
        <ele>681</ele>
        <time>2019-10-27T14:07:31.000Z</time>
      </trkpt>
      <trkpt lat="45.57364" lon="5.73594">
        <ele>681</ele>
        <time>2019-10-27T14:07:32.000Z</time>
      </trkpt>
      <trkpt lat="45.57363" lon="5.73594">
        <ele>681</ele>
        <time>2019-10-27T14:07:33.000Z</time>
      </trkpt>
      <trkpt lat="45.57362" lon="5.73594">
        <ele>681</ele>
        <time>2019-10-27T14:07:34.000Z</time>
      </trkpt>
      <trkpt lat="45.57361" lon="5.73594">
        <ele>681</ele>
        <time>2019-10-27T14:07:35.000Z</time>
      </trkpt>
      <trkpt lat="45.5736" lon="5.73594">
        <ele>681</ele>
        <time>2019-10-27T14:07:36.000Z</time>
      </trkpt>
      <trkpt lat="45.57359" lon="5.73594">
        <ele>681</ele>
        <time>2019-10-27T14:07:37.000Z</time>
      </trkpt>
      <trkpt lat="45.57358" lon="5.73594">
        <ele>681</ele>
        <time>2019-10-27T14:07:38.000Z</time>
      </trkpt>
      <trkpt lat="45.57357" lon="5.73594">
        <ele>681</ele>
        <time>2019-10-27T14:07:39.000Z</time>
      </trkpt>
      <trkpt lat="45.57356" lon="5.73594">
        <ele>681</ele>
        <time>2019-10-27T14:07:40.000Z</time>
      </trkpt>
      <trkpt lat="45.57355" lon="5.73594">
        <ele>681</ele>
        <time>2019-10-27T14:07:41.000Z</time>
      </trkpt>
      <trkpt lat="45.57354" lon="5.73594">
        <ele>680.7</ele>
        <time>2019-10-27T14:07:42.000Z</time>
      </trkpt>
      <trkpt lat="45.57353" lon="5.73594">
        <ele>680.3</ele>
        <time>2019-10-27T14:07:43.000Z</time>
      </trkpt>
      <trkpt lat="45.57352" lon="5.73594">
        <ele>680</ele>
        <time>2019-10-27T14:07:44.000Z</time>
      </trkpt>
      <trkpt lat="45.57351" lon="5.73594">
        <ele>680</ele>
        <time>2019-10-27T14:07:45.000Z</time>
      </trkpt>
      <trkpt lat="45.57351" lon="5.73593">
        <ele>680</ele>
        <time>2019-10-27T14:07:46.000Z</time>
      </trkpt>
      <trkpt lat="45.5735" lon="5.73593">
        <ele>680</ele>
        <time>2019-10-27T14:07:47.000Z</time>
      </trkpt>
      <trkpt lat="45.57349" lon="5.73593">
        <ele>680</ele>
        <time>2019-10-27T14:07:48.000Z</time>
      </trkpt>
      <trkpt lat="45.57348" lon="5.73592">
        <ele>680</ele>
        <time>2019-10-27T14:07:49.000Z</time>
      </trkpt>
      <trkpt lat="45.57347" lon="5.73592">
        <ele>680</ele>
        <time>2019-10-27T14:07:50.000Z</time>
      </trkpt>
      <trkpt lat="45.57345" lon="5.73591">
        <ele>680</ele>
        <time>2019-10-27T14:07:51.000Z</time>
      </trkpt>
      <trkpt lat="45.57343" lon="5.73591">
        <ele>680</ele>
        <time>2019-10-27T14:07:52.000Z</time>
      </trkpt>
      <trkpt lat="45.57341" lon="5.73591">
        <ele>680</ele>
        <time>2019-10-27T14:07:53.000Z</time>
      </trkpt>
      <trkpt lat="45.57339" lon="5.7359">
        <ele>680</ele>
        <time>2019-10-27T14:07:54.000Z</time>
      </trkpt>
      <trkpt lat="45.57338" lon="5.7359">
        <ele>680</ele>
        <time>2019-10-27T14:07:55.000Z</time>
      </trkpt>
      <trkpt lat="45.57337" lon="5.7359">
        <ele>680</ele>
        <time>2019-10-27T14:07:56.000Z</time>
      </trkpt>
      <trkpt lat="45.57336" lon="5.73591">
        <ele>680</ele>
        <time>2019-10-27T14:07:57.000Z</time>
      </trkpt>
      <trkpt lat="45.57335" lon="5.73591">
        <ele>680</ele>
        <time>2019-10-27T14:07:58.000Z</time>
      </trkpt>
      <trkpt lat="45.57334" lon="5.73591">
        <ele>680</ele>
        <time>2019-10-27T14:07:59.000Z</time>
      </trkpt>
      <trkpt lat="45.57333" lon="5.73591">
        <ele>680</ele>
        <time>2019-10-27T14:08:00.000Z</time>
      </trkpt>
      <trkpt lat="45.57332" lon="5.73592">
        <ele>680</ele>
        <time>2019-10-27T14:08:01.000Z</time>
      </trkpt>
      <trkpt lat="45.5733" lon="5.73592">
        <ele>679.7</ele>
        <time>2019-10-27T14:08:02.000Z</time>
      </trkpt>
      <trkpt lat="45.57329" lon="5.73592">
        <ele>679.3</ele>
        <time>2019-10-27T14:08:03.000Z</time>
      </trkpt>
      <trkpt lat="45.57328" lon="5.73592">
        <ele>679</ele>
        <time>2019-10-27T14:08:04.000Z</time>
      </trkpt>
      <trkpt lat="45.57326" lon="5.73592">
        <ele>679</ele>
        <time>2019-10-27T14:08:05.000Z</time>
      </trkpt>
      <trkpt lat="45.57325" lon="5.73593">
        <ele>679</ele>
        <time>2019-10-27T14:08:06.000Z</time>
      </trkpt>
      <trkpt lat="45.57324" lon="5.73593">
        <ele>679</ele>
        <time>2019-10-27T14:08:07.000Z</time>
      </trkpt>
      <trkpt lat="45.57323" lon="5.73593">
        <ele>679</ele>
        <time>2019-10-27T14:08:08.000Z</time>
      </trkpt>
      <trkpt lat="45.57322" lon="5.73593">
        <ele>679</ele>
        <time>2019-10-27T14:08:09.000Z</time>
      </trkpt>
      <trkpt lat="45.57321" lon="5.73593">
        <ele>679</ele>
        <time>2019-10-27T14:08:10.000Z</time>
      </trkpt>
      <trkpt lat="45.5732" lon="5.73593">
        <ele>679</ele>
        <time>2019-10-27T14:08:11.000Z</time>
      </trkpt>
      <trkpt lat="45.57319" lon="5.73594">
        <ele>679</ele>
        <time>2019-10-27T14:08:12.000Z</time>
      </trkpt>
      <trkpt lat="45.57318" lon="5.73594">
        <ele>679</ele>
        <time>2019-10-27T14:08:13.000Z</time>
      </trkpt>
      <trkpt lat="45.57316" lon="5.73594">
        <ele>679</ele>
        <time>2019-10-27T14:08:14.000Z</time>
      </trkpt>
      <trkpt lat="45.57315" lon="5.73594">
        <ele>679</ele>
        <time>2019-10-27T14:08:15.000Z</time>
      </trkpt>
      <trkpt lat="45.57314" lon="5.73594">
        <ele>679</ele>
        <time>2019-10-27T14:08:16.000Z</time>
      </trkpt>
      <trkpt lat="45.57313" lon="5.73594">
        <ele>679</ele>
        <time>2019-10-27T14:08:17.000Z</time>
      </trkpt>
      <trkpt lat="45.57312" lon="5.73594">
        <ele>679</ele>
        <time>2019-10-27T14:08:18.000Z</time>
      </trkpt>
      <trkpt lat="45.57311" lon="5.73594">
        <ele>679</ele>
        <time>2019-10-27T14:08:19.000Z</time>
      </trkpt>
      <trkpt lat="45.5731" lon="5.73594">
        <ele>679</ele>
        <time>2019-10-27T14:08:20.000Z</time>
      </trkpt>
      <trkpt lat="45.5731" lon="5.73593">
        <ele>679</ele>
        <time>2019-10-27T14:08:21.000Z</time>
      </trkpt>
      <trkpt lat="45.57309" lon="5.73593">
        <ele>679</ele>
        <time>2019-10-27T14:08:22.000Z</time>
      </trkpt>
      <trkpt lat="45.57308" lon="5.73593">
        <ele>679</ele>
        <time>2019-10-27T14:08:23.000Z</time>
      </trkpt>
      <trkpt lat="45.57307" lon="5.73593">
        <ele>678.7</ele>
        <time>2019-10-27T14:08:24.000Z</time>
      </trkpt>
      <trkpt lat="45.57306" lon="5.73593">
        <ele>678.3</ele>
        <time>2019-10-27T14:08:25.000Z</time>
      </trkpt>
      <trkpt lat="45.57305" lon="5.73593">
        <ele>678</ele>
        <time>2019-10-27T14:08:26.000Z</time>
      </trkpt>
      <trkpt lat="45.57304" lon="5.73592">
        <ele>678</ele>
        <time>2019-10-27T14:08:27.000Z</time>
      </trkpt>
      <trkpt lat="45.57303" lon="5.73592">
        <ele>678</ele>
        <time>2019-10-27T14:08:28.000Z</time>
      </trkpt>
      <trkpt lat="45.57302" lon="5.73592">
        <ele>678</ele>
        <time>2019-10-27T14:08:29.000Z</time>
      </trkpt>
      <trkpt lat="45.57301" lon="5.73592">
        <ele>678</ele>
        <time>2019-10-27T14:08:30.000Z</time>
      </trkpt>
      <trkpt lat="45.57299" lon="5.73592">
        <ele>678</ele>
        <time>2019-10-27T14:08:31.000Z</time>
      </trkpt>
      <trkpt lat="45.57298" lon="5.73592">
        <ele>678</ele>
        <time>2019-10-27T14:08:32.000Z</time>
      </trkpt>
      <trkpt lat="45.57297" lon="5.73592">
        <ele>678</ele>
        <time>2019-10-27T14:08:33.000Z</time>
      </trkpt>
      <trkpt lat="45.57296" lon="5.73592">
        <ele>678</ele>
        <time>2019-10-27T14:08:34.000Z</time>
      </trkpt>
      <trkpt lat="45.57295" lon="5.73592">
        <ele>678</ele>
        <time>2019-10-27T14:08:35.000Z</time>
      </trkpt>
      <trkpt lat="45.57294" lon="5.73593">
        <ele>678</ele>
        <time>2019-10-27T14:08:36.000Z</time>
      </trkpt>
      <trkpt lat="45.57292" lon="5.73593">
        <ele>678</ele>
        <time>2019-10-27T14:08:37.000Z</time>
      </trkpt>
      <trkpt lat="45.57291" lon="5.73593">
        <ele>678</ele>
        <time>2019-10-27T14:08:38.000Z</time>
      </trkpt>
      <trkpt lat="45.5729" lon="5.73593">
        <ele>678</ele>
        <time>2019-10-27T14:08:39.000Z</time>
      </trkpt>
      <trkpt lat="45.57288" lon="5.73593">
        <ele>678</ele>
        <time>2019-10-27T14:08:40.000Z</time>
      </trkpt>
      <trkpt lat="45.57287" lon="5.73593">
        <ele>677</ele>
        <time>2019-10-27T14:08:41.000Z</time>
      </trkpt>
      <trkpt lat="45.57286" lon="5.73593">
        <ele>677</ele>
        <time>2019-10-27T14:08:42.000Z</time>
      </trkpt>
      <trkpt lat="45.57284" lon="5.73593">
        <ele>677</ele>
        <time>2019-10-27T14:08:43.000Z</time>
      </trkpt>
      <trkpt lat="45.57283" lon="5.73593">
        <ele>677</ele>
        <time>2019-10-27T14:08:44.000Z</time>
      </trkpt>
      <trkpt lat="45.57281" lon="5.73592">
        <ele>677</ele>
        <time>2019-10-27T14:08:45.000Z</time>
      </trkpt>
      <trkpt lat="45.57279" lon="5.73592">
        <ele>677</ele>
        <time>2019-10-27T14:08:46.000Z</time>
      </trkpt>
      <trkpt lat="45.57277" lon="5.73592">
        <ele>677</ele>
        <time>2019-10-27T14:08:47.000Z</time>
      </trkpt>
      <trkpt lat="45.57275" lon="5.73592">
        <ele>677</ele>
        <time>2019-10-27T14:08:48.000Z</time>
      </trkpt>
      <trkpt lat="45.57273" lon="5.73592">
        <ele>677</ele>
        <time>2019-10-27T14:08:49.000Z</time>
      </trkpt>
      <trkpt lat="45.57271" lon="5.73592">
        <ele>677</ele>
        <time>2019-10-27T14:08:50.000Z</time>
      </trkpt>
      <trkpt lat="45.5727" lon="5.73592">
        <ele>677</ele>
        <time>2019-10-27T14:08:51.000Z</time>
      </trkpt>
      <trkpt lat="45.57268" lon="5.73592">
        <ele>676.7</ele>
        <time>2019-10-27T14:08:52.000Z</time>
      </trkpt>
      <trkpt lat="45.57267" lon="5.73592">
        <ele>676.3</ele>
        <time>2019-10-27T14:08:53.000Z</time>
      </trkpt>
      <trkpt lat="45.57266" lon="5.73592">
        <ele>676</ele>
        <time>2019-10-27T14:08:54.000Z</time>
      </trkpt>
      <trkpt lat="45.57265" lon="5.73592">
        <ele>676</ele>
        <time>2019-10-27T14:08:55.000Z</time>
      </trkpt>
      <trkpt lat="45.57264" lon="5.73593">
        <ele>676</ele>
        <time>2019-10-27T14:08:56.000Z</time>
      </trkpt>
      <trkpt lat="45.57263" lon="5.73593">
        <ele>676</ele>
        <time>2019-10-27T14:08:57.000Z</time>
      </trkpt>
      <trkpt lat="45.57261" lon="5.73593">
        <ele>676</ele>
        <time>2019-10-27T14:08:58.000Z</time>
      </trkpt>
      <trkpt lat="45.5726" lon="5.73592">
        <ele>676</ele>
        <time>2019-10-27T14:08:59.000Z</time>
      </trkpt>
      <trkpt lat="45.57259" lon="5.73592">
        <ele>676</ele>
        <time>2019-10-27T14:09:00.000Z</time>
      </trkpt>
      <trkpt lat="45.57258" lon="5.73592">
        <ele>676</ele>
        <time>2019-10-27T14:09:01.000Z</time>
      </trkpt>
      <trkpt lat="45.57256" lon="5.73592">
        <ele>676</ele>
        <time>2019-10-27T14:09:02.000Z</time>
      </trkpt>
      <trkpt lat="45.57255" lon="5.73592">
        <ele>676</ele>
        <time>2019-10-27T14:09:03.000Z</time>
      </trkpt>
      <trkpt lat="45.57254" lon="5.73591">
        <ele>676</ele>
        <time>2019-10-27T14:09:04.000Z</time>
      </trkpt>
      <trkpt lat="45.57253" lon="5.73591">
        <ele>675.5</ele>
        <time>2019-10-27T14:09:05.000Z</time>
      </trkpt>
      <trkpt lat="45.57252" lon="5.73591">
        <ele>675</ele>
        <time>2019-10-27T14:09:06.000Z</time>
      </trkpt>
      <trkpt lat="45.57251" lon="5.7359">
        <ele>675</ele>
        <time>2019-10-27T14:09:07.000Z</time>
      </trkpt>
      <trkpt lat="45.5725" lon="5.7359">
        <ele>675</ele>
        <time>2019-10-27T14:09:08.000Z</time>
      </trkpt>
      <trkpt lat="45.57249" lon="5.7359">
        <ele>675</ele>
        <time>2019-10-27T14:09:09.000Z</time>
      </trkpt>
      <trkpt lat="45.57249" lon="5.7359">
        <ele>675</ele>
        <time>2019-10-27T14:09:10.000Z</time>
      </trkpt>
      <trkpt lat="45.57248" lon="5.7359">
        <ele>675</ele>
        <time>2019-10-27T14:09:11.000Z</time>
      </trkpt>
      <trkpt lat="45.57247" lon="5.73589">
        <ele>675</ele>
        <time>2019-10-27T14:09:12.000Z</time>
      </trkpt>
      <trkpt lat="45.57247" lon="5.73589">
        <ele>675</ele>
        <time>2019-10-27T14:09:13.000Z</time>
      </trkpt>
      <trkpt lat="45.57246" lon="5.73589">
        <ele>675</ele>
        <time>2019-10-27T14:09:14.000Z</time>
      </trkpt>
      <trkpt lat="45.57246" lon="5.73589">
        <ele>675</ele>
        <time>2019-10-27T14:09:15.000Z</time>
      </trkpt>
      <trkpt lat="45.57245" lon="5.73589">
        <ele>675</ele>
        <time>2019-10-27T14:09:16.000Z</time>
      </trkpt>
      <trkpt lat="45.57244" lon="5.73588">
        <ele>675</ele>
        <time>2019-10-27T14:09:17.000Z</time>
      </trkpt>
      <trkpt lat="45.57243" lon="5.73588">
        <ele>675</ele>
        <time>2019-10-27T14:09:18.000Z</time>
      </trkpt>
      <trkpt lat="45.57242" lon="5.73588">
        <ele>675</ele>
        <time>2019-10-27T14:09:19.000Z</time>
      </trkpt>
      <trkpt lat="45.57241" lon="5.73587">
        <ele>675</ele>
        <time>2019-10-27T14:09:20.000Z</time>
      </trkpt>
      <trkpt lat="45.5724" lon="5.73587">
        <ele>675</ele>
        <time>2019-10-27T14:09:21.000Z</time>
      </trkpt>
      <trkpt lat="45.57239" lon="5.73587">
        <ele>675</ele>
        <time>2019-10-27T14:09:22.000Z</time>
      </trkpt>
      <trkpt lat="45.57238" lon="5.73587">
        <ele>674.5</ele>
        <time>2019-10-27T14:09:23.000Z</time>
      </trkpt>
      <trkpt lat="45.57236" lon="5.73587">
        <ele>674</ele>
        <time>2019-10-27T14:09:24.000Z</time>
      </trkpt>
      <trkpt lat="45.57235" lon="5.73587">
        <ele>674</ele>
        <time>2019-10-27T14:09:25.000Z</time>
      </trkpt>
      <trkpt lat="45.57234" lon="5.73587">
        <ele>674</ele>
        <time>2019-10-27T14:09:26.000Z</time>
      </trkpt>
      <trkpt lat="45.57232" lon="5.73588">
        <ele>674</ele>
        <time>2019-10-27T14:09:27.000Z</time>
      </trkpt>
      <trkpt lat="45.57231" lon="5.73588">
        <ele>674</ele>
        <time>2019-10-27T14:09:28.000Z</time>
      </trkpt>
      <trkpt lat="45.57229" lon="5.73588">
        <ele>674</ele>
        <time>2019-10-27T14:09:29.000Z</time>
      </trkpt>
      <trkpt lat="45.57228" lon="5.73588">
        <ele>674</ele>
        <time>2019-10-27T14:09:30.000Z</time>
      </trkpt>
      <trkpt lat="45.57226" lon="5.73588">
        <ele>674</ele>
        <time>2019-10-27T14:09:31.000Z</time>
      </trkpt>
      <trkpt lat="45.57225" lon="5.73588">
        <ele>674</ele>
        <time>2019-10-27T14:09:32.000Z</time>
      </trkpt>
      <trkpt lat="45.57223" lon="5.73588">
        <ele>674</ele>
        <time>2019-10-27T14:09:33.000Z</time>
      </trkpt>
      <trkpt lat="45.57222" lon="5.73588">
        <ele>674</ele>
        <time>2019-10-27T14:09:34.000Z</time>
      </trkpt>
      <trkpt lat="45.5722" lon="5.73588">
        <ele>674</ele>
        <time>2019-10-27T14:09:35.000Z</time>
      </trkpt>
      <trkpt lat="45.57219" lon="5.73588">
        <ele>674</ele>
        <time>2019-10-27T14:09:36.000Z</time>
      </trkpt>
      <trkpt lat="45.57217" lon="5.73588">
        <ele>674</ele>
        <time>2019-10-27T14:09:37.000Z</time>
      </trkpt>
      <trkpt lat="45.57216" lon="5.73587">
        <ele>674</ele>
        <time>2019-10-27T14:09:38.000Z</time>
      </trkpt>
      <trkpt lat="45.57214" lon="5.73587">
        <ele>674</ele>
        <time>2019-10-27T14:09:39.000Z</time>
      </trkpt>
      <trkpt lat="45.57212" lon="5.73586">
        <ele>674</ele>
        <time>2019-10-27T14:09:40.000Z</time>
      </trkpt>
      <trkpt lat="45.57211" lon="5.73585">
        <ele>674</ele>
        <time>2019-10-27T14:09:41.000Z</time>
      </trkpt>
      <trkpt lat="45.57209" lon="5.73585">
        <ele>674</ele>
        <time>2019-10-27T14:09:42.000Z</time>
      </trkpt>
      <trkpt lat="45.57208" lon="5.73584">
        <ele>674</ele>
        <time>2019-10-27T14:09:43.000Z</time>
      </trkpt>
      <trkpt lat="45.57207" lon="5.73584">
        <ele>674</ele>
        <time>2019-10-27T14:09:44.000Z</time>
      </trkpt>
      <trkpt lat="45.57206" lon="5.73583">
        <ele>674</ele>
        <time>2019-10-27T14:09:45.000Z</time>
      </trkpt>
      <trkpt lat="45.57204" lon="5.73583">
        <ele>674</ele>
        <time>2019-10-27T14:09:46.000Z</time>
      </trkpt>
      <trkpt lat="45.57203" lon="5.73582">
        <ele>674</ele>
        <time>2019-10-27T14:09:47.000Z</time>
      </trkpt>
      <trkpt lat="45.57202" lon="5.73581">
        <ele>674</ele>
        <time>2019-10-27T14:09:48.000Z</time>
      </trkpt>
      <trkpt lat="45.57201" lon="5.7358">
        <ele>674</ele>
        <time>2019-10-27T14:09:49.000Z</time>
      </trkpt>
      <trkpt lat="45.57199" lon="5.73579">
        <ele>674</ele>
        <time>2019-10-27T14:09:50.000Z</time>
      </trkpt>
      <trkpt lat="45.57198" lon="5.73578">
        <ele>674</ele>
        <time>2019-10-27T14:09:51.000Z</time>
      </trkpt>
      <trkpt lat="45.57197" lon="5.73577">
        <ele>674</ele>
        <time>2019-10-27T14:09:52.000Z</time>
      </trkpt>
      <trkpt lat="45.57195" lon="5.73576">
        <ele>674</ele>
        <time>2019-10-27T14:09:53.000Z</time>
      </trkpt>
      <trkpt lat="45.57194" lon="5.73575">
        <ele>674</ele>
        <time>2019-10-27T14:09:54.000Z</time>
      </trkpt>
      <trkpt lat="45.57193" lon="5.73574">
        <ele>674</ele>
        <time>2019-10-27T14:09:55.000Z</time>
      </trkpt>
      <trkpt lat="45.57192" lon="5.73573">
        <ele>674</ele>
        <time>2019-10-27T14:09:56.000Z</time>
      </trkpt>
      <trkpt lat="45.57192" lon="5.73572">
        <ele>674</ele>
        <time>2019-10-27T14:09:57.000Z</time>
      </trkpt>
      <trkpt lat="45.57191" lon="5.73571">
        <ele>674</ele>
        <time>2019-10-27T14:09:58.000Z</time>
      </trkpt>
      <trkpt lat="45.5719" lon="5.73571">
        <ele>674</ele>
        <time>2019-10-27T14:09:59.000Z</time>
      </trkpt>
      <trkpt lat="45.57189" lon="5.7357">
        <ele>674</ele>
        <time>2019-10-27T14:10:00.000Z</time>
      </trkpt>
      <trkpt lat="45.57188" lon="5.7357">
        <ele>674</ele>
        <time>2019-10-27T14:10:01.000Z</time>
      </trkpt>
      <trkpt lat="45.57187" lon="5.73569">
        <ele>674</ele>
        <time>2019-10-27T14:10:02.000Z</time>
      </trkpt>
      <trkpt lat="45.57186" lon="5.73569">
        <ele>674</ele>
        <time>2019-10-27T14:10:03.000Z</time>
      </trkpt>
      <trkpt lat="45.57185" lon="5.73569">
        <ele>674</ele>
        <time>2019-10-27T14:10:04.000Z</time>
      </trkpt>
      <trkpt lat="45.57183" lon="5.73568">
        <ele>674</ele>
        <time>2019-10-27T14:10:05.000Z</time>
      </trkpt>
      <trkpt lat="45.57182" lon="5.73568">
        <ele>674</ele>
        <time>2019-10-27T14:10:06.000Z</time>
      </trkpt>
      <trkpt lat="45.57181" lon="5.73568">
        <ele>674</ele>
        <time>2019-10-27T14:10:07.000Z</time>
      </trkpt>
      <trkpt lat="45.5718" lon="5.73568">
        <ele>674</ele>
        <time>2019-10-27T14:10:08.000Z</time>
      </trkpt>
      <trkpt lat="45.57179" lon="5.73568">
        <ele>674</ele>
        <time>2019-10-27T14:10:09.000Z</time>
      </trkpt>
      <trkpt lat="45.57178" lon="5.73568">
        <ele>674</ele>
        <time>2019-10-27T14:10:10.000Z</time>
      </trkpt>
      <trkpt lat="45.57177" lon="5.73568">
        <ele>674</ele>
        <time>2019-10-27T14:10:11.000Z</time>
      </trkpt>
      <trkpt lat="45.57176" lon="5.73568">
        <ele>674</ele>
        <time>2019-10-27T14:10:12.000Z</time>
      </trkpt>
      <trkpt lat="45.57175" lon="5.73567">
        <ele>673.5</ele>
        <time>2019-10-27T14:10:13.000Z</time>
      </trkpt>
      <trkpt lat="45.57174" lon="5.73567">
        <ele>673</ele>
        <time>2019-10-27T14:10:14.000Z</time>
      </trkpt>
      <trkpt lat="45.57173" lon="5.73567">
        <ele>673</ele>
        <time>2019-10-27T14:10:15.000Z</time>
      </trkpt>
      <trkpt lat="45.57172" lon="5.73566">
        <ele>673</ele>
        <time>2019-10-27T14:10:16.000Z</time>
      </trkpt>
      <trkpt lat="45.5717" lon="5.73566">
        <ele>673</ele>
        <time>2019-10-27T14:10:17.000Z</time>
      </trkpt>
      <trkpt lat="45.57169" lon="5.73565">
        <ele>673</ele>
        <time>2019-10-27T14:10:18.000Z</time>
      </trkpt>
      <trkpt lat="45.57168" lon="5.73564">
        <ele>673</ele>
        <time>2019-10-27T14:10:19.000Z</time>
      </trkpt>
      <trkpt lat="45.57167" lon="5.73564">
        <ele>673</ele>
        <time>2019-10-27T14:10:20.000Z</time>
      </trkpt>
      <trkpt lat="45.57166" lon="5.73563">
        <ele>673</ele>
        <time>2019-10-27T14:10:21.000Z</time>
      </trkpt>
      <trkpt lat="45.57166" lon="5.73562">
        <ele>673</ele>
        <time>2019-10-27T14:10:22.000Z</time>
      </trkpt>
      <trkpt lat="45.57165" lon="5.73562">
        <ele>673</ele>
        <time>2019-10-27T14:10:23.000Z</time>
      </trkpt>
      <trkpt lat="45.57164" lon="5.73561">
        <ele>673</ele>
        <time>2019-10-27T14:10:24.000Z</time>
      </trkpt>
      <trkpt lat="45.57164" lon="5.73561">
        <ele>672</ele>
        <time>2019-10-27T14:10:25.000Z</time>
      </trkpt>
      <trkpt lat="45.57164" lon="5.7356">
        <ele>672</ele>
        <time>2019-10-27T14:10:26.000Z</time>
      </trkpt>
      <trkpt lat="45.57163" lon="5.73559">
        <ele>672</ele>
        <time>2019-10-27T14:10:27.000Z</time>
      </trkpt>
      <trkpt lat="45.57163" lon="5.73558">
        <ele>672</ele>
        <time>2019-10-27T14:10:28.000Z</time>
      </trkpt>
      <trkpt lat="45.57162" lon="5.73556">
        <ele>672</ele>
        <time>2019-10-27T14:10:29.000Z</time>
      </trkpt>
      <trkpt lat="45.57161" lon="5.73555">
        <ele>672</ele>
        <time>2019-10-27T14:10:30.000Z</time>
      </trkpt>
      <trkpt lat="45.5716" lon="5.73552">
        <ele>672</ele>
        <time>2019-10-27T14:10:31.000Z</time>
      </trkpt>
      <trkpt lat="45.57158" lon="5.73551">
        <ele>672</ele>
        <time>2019-10-27T14:10:32.000Z</time>
      </trkpt>
      <trkpt lat="45.57156" lon="5.73549">
        <ele>672</ele>
        <time>2019-10-27T14:10:33.000Z</time>
      </trkpt>
      <trkpt lat="45.57154" lon="5.73548">
        <ele>672</ele>
        <time>2019-10-27T14:10:34.000Z</time>
      </trkpt>
      <trkpt lat="45.57153" lon="5.73547">
        <ele>672</ele>
        <time>2019-10-27T14:10:35.000Z</time>
      </trkpt>
      <trkpt lat="45.57152" lon="5.73546">
        <ele>672</ele>
        <time>2019-10-27T14:10:36.000Z</time>
      </trkpt>
      <trkpt lat="45.57151" lon="5.73545">
        <ele>672</ele>
        <time>2019-10-27T14:10:37.000Z</time>
      </trkpt>
      <trkpt lat="45.5715" lon="5.73545">
        <ele>672</ele>
        <time>2019-10-27T14:10:38.000Z</time>
      </trkpt>
      <trkpt lat="45.57149" lon="5.73544">
        <ele>671.5</ele>
        <time>2019-10-27T14:10:39.000Z</time>
      </trkpt>
      <trkpt lat="45.57148" lon="5.73544">
        <ele>671</ele>
        <time>2019-10-27T14:10:40.000Z</time>
      </trkpt>
      <trkpt lat="45.57148" lon="5.73544">
        <ele>671</ele>
        <time>2019-10-27T14:10:41.000Z</time>
      </trkpt>
      <trkpt lat="45.57147" lon="5.73544">
        <ele>671</ele>
        <time>2019-10-27T14:10:42.000Z</time>
      </trkpt>
      <trkpt lat="45.57146" lon="5.73543">
        <ele>671</ele>
        <time>2019-10-27T14:10:43.000Z</time>
      </trkpt>
      <trkpt lat="45.57145" lon="5.73543">
        <ele>671</ele>
        <time>2019-10-27T14:10:44.000Z</time>
      </trkpt>
      <trkpt lat="45.57145" lon="5.73543">
        <ele>671</ele>
        <time>2019-10-27T14:10:45.000Z</time>
      </trkpt>
      <trkpt lat="45.57144" lon="5.73542">
        <ele>671</ele>
        <time>2019-10-27T14:10:46.000Z</time>
      </trkpt>
      <trkpt lat="45.57142" lon="5.73543">
        <ele>671</ele>
        <time>2019-10-27T14:10:47.000Z</time>
      </trkpt>
      <trkpt lat="45.57139" lon="5.73544">
        <ele>671</ele>
        <time>2019-10-27T14:10:48.000Z</time>
      </trkpt>
      <trkpt lat="45.57137" lon="5.73544">
        <ele>671</ele>
        <time>2019-10-27T14:10:49.000Z</time>
      </trkpt>
      <trkpt lat="45.57135" lon="5.73544">
        <ele>671</ele>
        <time>2019-10-27T14:10:50.000Z</time>
      </trkpt>
      <trkpt lat="45.57133" lon="5.73543">
        <ele>671</ele>
        <time>2019-10-27T14:10:51.000Z</time>
      </trkpt>
      <trkpt lat="45.57132" lon="5.73543">
        <ele>671</ele>
        <time>2019-10-27T14:10:52.000Z</time>
      </trkpt>
      <trkpt lat="45.57131" lon="5.73543">
        <ele>671</ele>
        <time>2019-10-27T14:10:53.000Z</time>
      </trkpt>
      <trkpt lat="45.57131" lon="5.73543">
        <ele>671</ele>
        <time>2019-10-27T14:10:54.000Z</time>
      </trkpt>
      <trkpt lat="45.5713" lon="5.73542">
        <ele>671</ele>
        <time>2019-10-27T14:10:55.000Z</time>
      </trkpt>
      <trkpt lat="45.57129" lon="5.73542">
        <ele>671</ele>
        <time>2019-10-27T14:10:56.000Z</time>
      </trkpt>
      <trkpt lat="45.57129" lon="5.73541">
        <ele>671</ele>
        <time>2019-10-27T14:10:57.000Z</time>
      </trkpt>
      <trkpt lat="45.57128" lon="5.73541">
        <ele>671</ele>
        <time>2019-10-27T14:10:58.000Z</time>
      </trkpt>
      <trkpt lat="45.57126" lon="5.7354">
        <ele>671</ele>
        <time>2019-10-27T14:10:59.000Z</time>
      </trkpt>
      <trkpt lat="45.57125" lon="5.73539">
        <ele>671</ele>
        <time>2019-10-27T14:11:00.000Z</time>
      </trkpt>
      <trkpt lat="45.57124" lon="5.73538">
        <ele>671</ele>
        <time>2019-10-27T14:11:01.000Z</time>
      </trkpt>
      <trkpt lat="45.57122" lon="5.73537">
        <ele>671</ele>
        <time>2019-10-27T14:11:02.000Z</time>
      </trkpt>
      <trkpt lat="45.5712" lon="5.73535">
        <ele>672</ele>
        <time>2019-10-27T14:11:03.000Z</time>
      </trkpt>
      <trkpt lat="45.57117" lon="5.73533">
        <ele>672</ele>
        <time>2019-10-27T14:11:04.000Z</time>
      </trkpt>
      <trkpt lat="45.57115" lon="5.73532">
        <ele>672</ele>
        <time>2019-10-27T14:11:05.000Z</time>
      </trkpt>
      <trkpt lat="45.57112" lon="5.7353">
        <ele>672</ele>
        <time>2019-10-27T14:11:06.000Z</time>
      </trkpt>
      <trkpt lat="45.57109" lon="5.73529">
        <ele>672.5</ele>
        <time>2019-10-27T14:11:07.000Z</time>
      </trkpt>
      <trkpt lat="45.57106" lon="5.73529">
        <ele>673</ele>
        <time>2019-10-27T14:11:08.000Z</time>
      </trkpt>
      <trkpt lat="45.57103" lon="5.73528">
        <ele>673</ele>
        <time>2019-10-27T14:11:09.000Z</time>
      </trkpt>
      <trkpt lat="45.571" lon="5.73528">
        <ele>673</ele>
        <time>2019-10-27T14:11:10.000Z</time>
      </trkpt>
      <trkpt lat="45.57097" lon="5.73528">
        <ele>673</ele>
        <time>2019-10-27T14:11:11.000Z</time>
      </trkpt>
      <trkpt lat="45.57094" lon="5.73528">
        <ele>673</ele>
        <time>2019-10-27T14:11:12.000Z</time>
      </trkpt>
      <trkpt lat="45.57091" lon="5.73528">
        <ele>673</ele>
        <time>2019-10-27T14:11:13.000Z</time>
      </trkpt>
      <trkpt lat="45.57088" lon="5.73529">
        <ele>673</ele>
        <time>2019-10-27T14:11:14.000Z</time>
      </trkpt>
      <trkpt lat="45.57085" lon="5.7353">
        <ele>673</ele>
        <time>2019-10-27T14:11:15.000Z</time>
      </trkpt>
      <trkpt lat="45.57083" lon="5.7353">
        <ele>673</ele>
        <time>2019-10-27T14:11:16.000Z</time>
      </trkpt>
      <trkpt lat="45.5708" lon="5.7353">
        <ele>673</ele>
        <time>2019-10-27T14:11:17.000Z</time>
      </trkpt>
      <trkpt lat="45.57078" lon="5.7353">
        <ele>673</ele>
        <time>2019-10-27T14:11:18.000Z</time>
      </trkpt>
      <trkpt lat="45.57077" lon="5.73529">
        <ele>673</ele>
        <time>2019-10-27T14:11:19.000Z</time>
      </trkpt>
      <trkpt lat="45.57077" lon="5.73528">
        <ele>673</ele>
        <time>2019-10-27T14:11:20.000Z</time>
      </trkpt>
      <trkpt lat="45.57078" lon="5.73527">
        <ele>673</ele>
        <time>2019-10-27T14:11:21.000Z</time>
      </trkpt>
      <trkpt lat="45.57079" lon="5.73525">
        <ele>673</ele>
        <time>2019-10-27T14:11:22.000Z</time>
      </trkpt>
      <trkpt lat="45.5708" lon="5.73524">
        <ele>673</ele>
        <time>2019-10-27T14:11:23.000Z</time>
      </trkpt>
      <trkpt lat="45.57081" lon="5.73523">
        <ele>673</ele>
        <time>2019-10-27T14:11:24.000Z</time>
      </trkpt>
      <trkpt lat="45.57081" lon="5.73522">
        <ele>673</ele>
        <time>2019-10-27T14:11:25.000Z</time>
      </trkpt>
      <trkpt lat="45.57082" lon="5.73521">
        <ele>673</ele>
        <time>2019-10-27T14:11:26.000Z</time>
      </trkpt>
      <trkpt lat="45.57082" lon="5.73521">
        <ele>673</ele>
        <time>2019-10-27T14:11:27.000Z</time>
      </trkpt>
      <trkpt lat="45.57083" lon="5.7352">
        <ele>673</ele>
        <time>2019-10-27T14:11:28.000Z</time>
      </trkpt>
      <trkpt lat="45.57083" lon="5.7352">
        <ele>673</ele>
        <time>2019-10-27T14:11:29.000Z</time>
      </trkpt>
      <trkpt lat="45.57083" lon="5.7352">
        <ele>673</ele>
        <time>2019-10-27T14:11:30.000Z</time>
      </trkpt>
      <trkpt lat="45.57083" lon="5.7352">
        <ele>673</ele>
        <time>2019-10-27T14:11:31.000Z</time>
      </trkpt>
      <trkpt lat="45.57083" lon="5.7352">
        <ele>673</ele>
        <time>2019-10-27T14:11:32.000Z</time>
      </trkpt>
      <trkpt lat="45.57083" lon="5.7352">
        <ele>673</ele>
        <time>2019-10-27T14:11:33.000Z</time>
      </trkpt>
      <trkpt lat="45.57083" lon="5.7352">
        <ele>673</ele>
        <time>2019-10-27T14:11:34.000Z</time>
      </trkpt>
      <trkpt lat="45.57083" lon="5.7352">
        <ele>673</ele>
        <time>2019-10-27T14:11:35.000Z</time>
      </trkpt>
      <trkpt lat="45.57083" lon="5.7352">
        <ele>673</ele>
        <time>2019-10-27T14:11:36.000Z</time>
      </trkpt>
      <trkpt lat="45.57083" lon="5.7352">
        <ele>673</ele>
        <time>2019-10-27T14:11:37.000Z</time>
      </trkpt>
      <trkpt lat="45.57083" lon="5.7352">
        <ele>673</ele>
        <time>2019-10-27T14:11:38.000Z</time>
      </trkpt>
      <trkpt lat="45.57083" lon="5.7352">
        <ele>673</ele>
        <time>2019-10-27T14:11:39.000Z</time>
      </trkpt>
      <trkpt lat="45.57083" lon="5.7352">
        <ele>673</ele>
        <time>2019-10-27T14:11:40.000Z</time>
      </trkpt>
      <trkpt lat="45.57083" lon="5.7352">
        <ele>673</ele>
        <time>2019-10-27T14:11:41.000Z</time>
      </trkpt>
      <trkpt lat="45.57083" lon="5.7352">
        <ele>673</ele>
        <time>2019-10-27T14:11:42.000Z</time>
      </trkpt>
      <trkpt lat="45.57083" lon="5.7352">
        <ele>673</ele>
        <time>2019-10-27T14:11:43.000Z</time>
      </trkpt>
      <trkpt lat="45.57083" lon="5.73519">
        <ele>673</ele>
        <time>2019-10-27T14:11:44.000Z</time>
      </trkpt>
      <trkpt lat="45.57083" lon="5.73519">
        <ele>673</ele>
        <time>2019-10-27T14:11:45.000Z</time>
      </trkpt>
      <trkpt lat="45.57083" lon="5.73519">
        <ele>673</ele>
        <time>2019-10-27T14:11:46.000Z</time>
      </trkpt>
      <trkpt lat="45.57083" lon="5.73519">
        <ele>673</ele>
        <time>2019-10-27T14:11:47.000Z</time>
      </trkpt>
      <trkpt lat="45.57083" lon="5.73519">
        <ele>673</ele>
        <time>2019-10-27T14:11:48.000Z</time>
      </trkpt>
      <trkpt lat="45.57083" lon="5.73519">
        <ele>673</ele>
        <time>2019-10-27T14:11:49.000Z</time>
      </trkpt>
      <trkpt lat="45.57083" lon="5.73519">
        <ele>673</ele>
        <time>2019-10-27T14:11:50.000Z</time>
      </trkpt>
      <trkpt lat="45.57083" lon="5.73519">
        <ele>673</ele>
        <time>2019-10-27T14:11:51.000Z</time>
      </trkpt>
      <trkpt lat="45.57083" lon="5.73519">
        <ele>673</ele>
        <time>2019-10-27T14:11:52.000Z</time>
      </trkpt>
      <trkpt lat="45.57083" lon="5.73519">
        <ele>673</ele>
        <time>2019-10-27T14:11:53.000Z</time>
      </trkpt>
      <trkpt lat="45.57084" lon="5.73519">
        <ele>673</ele>
        <time>2019-10-27T14:11:54.000Z</time>
      </trkpt>
      <trkpt lat="45.57084" lon="5.73519">
        <ele>673</ele>
        <time>2019-10-27T14:11:55.000Z</time>
      </trkpt>
      <trkpt lat="45.57084" lon="5.73518">
        <ele>673</ele>
        <time>2019-10-27T14:11:56.000Z</time>
      </trkpt>
      <trkpt lat="45.57084" lon="5.73518">
        <ele>673</ele>
        <time>2019-10-27T14:11:57.000Z</time>
      </trkpt>
      <trkpt lat="45.57084" lon="5.73517">
        <ele>673</ele>
        <time>2019-10-27T14:11:58.000Z</time>
      </trkpt>
      <trkpt lat="45.57085" lon="5.73516">
        <ele>673</ele>
        <time>2019-10-27T14:11:59.000Z</time>
      </trkpt>
      <trkpt lat="45.57085" lon="5.73515">
        <ele>673</ele>
        <time>2019-10-27T14:12:00.000Z</time>
      </trkpt>
      <trkpt lat="45.57085" lon="5.73514">
        <ele>673</ele>
        <time>2019-10-27T14:12:01.000Z</time>
      </trkpt>
      <trkpt lat="45.57086" lon="5.73513">
        <ele>673</ele>
        <time>2019-10-27T14:12:02.000Z</time>
      </trkpt>
      <trkpt lat="45.57086" lon="5.73512">
        <ele>673</ele>
        <time>2019-10-27T14:12:03.000Z</time>
      </trkpt>
      <trkpt lat="45.57086" lon="5.73511">
        <ele>673</ele>
        <time>2019-10-27T14:12:04.000Z</time>
      </trkpt>
      <trkpt lat="45.57086" lon="5.7351">
        <ele>673</ele>
        <time>2019-10-27T14:12:05.000Z</time>
      </trkpt>
      <trkpt lat="45.57086" lon="5.7351">
        <ele>673</ele>
        <time>2019-10-27T14:12:06.000Z</time>
      </trkpt>
      <trkpt lat="45.57086" lon="5.7351">
        <ele>673</ele>
        <time>2019-10-27T14:12:07.000Z</time>
      </trkpt>
      <trkpt lat="45.57086" lon="5.7351">
        <ele>673</ele>
        <time>2019-10-27T14:12:08.000Z</time>
      </trkpt>
      <trkpt lat="45.57086" lon="5.7351">
        <ele>673</ele>
        <time>2019-10-27T14:12:09.000Z</time>
      </trkpt>
      <trkpt lat="45.57086" lon="5.7351">
        <ele>673</ele>
        <time>2019-10-27T14:12:10.000Z</time>
      </trkpt>
      <trkpt lat="45.57086" lon="5.7351">
        <ele>673</ele>
        <time>2019-10-27T14:12:11.000Z</time>
      </trkpt>
      <trkpt lat="45.57086" lon="5.7351">
        <ele>673</ele>
        <time>2019-10-27T14:12:12.000Z</time>
      </trkpt>
      <trkpt lat="45.57086" lon="5.7351">
        <ele>673</ele>
        <time>2019-10-27T14:12:13.000Z</time>
      </trkpt>
      <trkpt lat="45.57086" lon="5.7351">
        <ele>673</ele>
        <time>2019-10-27T14:12:14.000Z</time>
      </trkpt>
      <trkpt lat="45.57086" lon="5.7351">
        <ele>673</ele>
        <time>2019-10-27T14:12:15.000Z</time>
      </trkpt>
      <trkpt lat="45.57086" lon="5.7351">
        <ele>673</ele>
        <time>2019-10-27T14:12:16.000Z</time>
      </trkpt>
      <trkpt lat="45.57086" lon="5.7351">
        <ele>673</ele>
        <time>2019-10-27T14:12:17.000Z</time>
      </trkpt>
      <trkpt lat="45.57086" lon="5.7351">
        <ele>673</ele>
        <time>2019-10-27T14:12:18.000Z</time>
      </trkpt>
      <trkpt lat="45.57086" lon="5.7351">
        <ele>673</ele>
        <time>2019-10-27T14:12:19.000Z</time>
      </trkpt>
      <trkpt lat="45.57086" lon="5.73511">
        <ele>673</ele>
        <time>2019-10-27T14:12:20.000Z</time>
      </trkpt>
      <trkpt lat="45.57086" lon="5.73511">
        <ele>673</ele>
        <time>2019-10-27T14:12:21.000Z</time>
      </trkpt>
      <trkpt lat="45.57086" lon="5.73511">
        <ele>673</ele>
        <time>2019-10-27T14:12:22.000Z</time>
      </trkpt>
      <trkpt lat="45.57086" lon="5.73511">
        <ele>673</ele>
        <time>2019-10-27T14:12:23.000Z</time>
      </trkpt>
      <trkpt lat="45.57086" lon="5.73511">
        <ele>673</ele>
        <time>2019-10-27T14:12:24.000Z</time>
      </trkpt>
      <trkpt lat="45.57085" lon="5.73512">
        <ele>673</ele>
        <time>2019-10-27T14:12:25.000Z</time>
      </trkpt>
      <trkpt lat="45.57085" lon="5.73512">
        <ele>673</ele>
        <time>2019-10-27T14:12:26.000Z</time>
      </trkpt>
      <trkpt lat="45.57085" lon="5.73513">
        <ele>673</ele>
        <time>2019-10-27T14:12:27.000Z</time>
      </trkpt>
      <trkpt lat="45.57084" lon="5.73513">
        <ele>673</ele>
        <time>2019-10-27T14:12:28.000Z</time>
      </trkpt>
      <trkpt lat="45.57084" lon="5.73514">
        <ele>673</ele>
        <time>2019-10-27T14:12:29.000Z</time>
      </trkpt>
      <trkpt lat="45.57083" lon="5.73515">
        <ele>673</ele>
        <time>2019-10-27T14:12:30.000Z</time>
      </trkpt>
      <trkpt lat="45.57083" lon="5.73515">
        <ele>673</ele>
        <time>2019-10-27T14:12:31.000Z</time>
      </trkpt>
      <trkpt lat="45.57082" lon="5.73516">
        <ele>673</ele>
        <time>2019-10-27T14:12:32.000Z</time>
      </trkpt>
      <trkpt lat="45.57082" lon="5.73516">
        <ele>673</ele>
        <time>2019-10-27T14:12:33.000Z</time>
      </trkpt>
      <trkpt lat="45.57082" lon="5.73516">
        <ele>673</ele>
        <time>2019-10-27T14:12:34.000Z</time>
      </trkpt>
      <trkpt lat="45.57082" lon="5.73516">
        <ele>673</ele>
        <time>2019-10-27T14:12:35.000Z</time>
      </trkpt>
      <trkpt lat="45.57081" lon="5.73516">
        <ele>673</ele>
        <time>2019-10-27T14:12:36.000Z</time>
      </trkpt>
      <trkpt lat="45.57081" lon="5.73516">
        <ele>673</ele>
        <time>2019-10-27T14:12:37.000Z</time>
      </trkpt>
      <trkpt lat="45.57081" lon="5.73516">
        <ele>673</ele>
        <time>2019-10-27T14:12:38.000Z</time>
      </trkpt>
      <trkpt lat="45.57081" lon="5.73516">
        <ele>673</ele>
        <time>2019-10-27T14:12:39.000Z</time>
      </trkpt>
      <trkpt lat="45.57081" lon="5.73516">
        <ele>673</ele>
        <time>2019-10-27T14:12:40.000Z</time>
      </trkpt>
      <trkpt lat="45.57081" lon="5.73516">
        <ele>673</ele>
        <time>2019-10-27T14:12:41.000Z</time>
      </trkpt>
      <trkpt lat="45.57081" lon="5.73516">
        <ele>673</ele>
        <time>2019-10-27T14:12:42.000Z</time>
      </trkpt>
      <trkpt lat="45.57081" lon="5.73516">
        <ele>673</ele>
        <time>2019-10-27T14:12:43.000Z</time>
      </trkpt>
      <trkpt lat="45.57081" lon="5.73516">
        <ele>673</ele>
        <time>2019-10-27T14:12:44.000Z</time>
      </trkpt>
      <trkpt lat="45.57081" lon="5.73516">
        <ele>673</ele>
        <time>2019-10-27T14:12:45.000Z</time>
      </trkpt>
      <trkpt lat="45.57081" lon="5.73516">
        <ele>673</ele>
        <time>2019-10-27T14:12:46.000Z</time>
      </trkpt>
      <trkpt lat="45.57081" lon="5.73516">
        <ele>673</ele>
        <time>2019-10-27T14:12:47.000Z</time>
      </trkpt>
      <trkpt lat="45.57081" lon="5.73516">
        <ele>673</ele>
        <time>2019-10-27T14:12:48.000Z</time>
      </trkpt>
      <trkpt lat="45.57081" lon="5.73516">
        <ele>673</ele>
        <time>2019-10-27T14:12:49.000Z</time>
      </trkpt>
      <trkpt lat="45.57081" lon="5.73516">
        <ele>673</ele>
        <time>2019-10-27T14:12:50.000Z</time>
      </trkpt>
      <trkpt lat="45.57081" lon="5.73516">
        <ele>673</ele>
        <time>2019-10-27T14:12:51.000Z</time>
      </trkpt>
      <trkpt lat="45.57081" lon="5.73516">
        <ele>673</ele>
        <time>2019-10-27T14:12:52.000Z</time>
      </trkpt>
      <trkpt lat="45.57081" lon="5.73516">
        <ele>673</ele>
        <time>2019-10-27T14:12:53.000Z</time>
      </trkpt>
      <trkpt lat="45.57081" lon="5.73516">
        <ele>673</ele>
        <time>2019-10-27T14:12:54.000Z</time>
      </trkpt>
      <trkpt lat="45.57081" lon="5.73516">
        <ele>673</ele>
        <time>2019-10-27T14:12:55.000Z</time>
      </trkpt>
      <trkpt lat="45.57081" lon="5.73516">
        <ele>673</ele>
        <time>2019-10-27T14:12:56.000Z</time>
      </trkpt>
      <trkpt lat="45.57081" lon="5.73516">
        <ele>673</ele>
        <time>2019-10-27T14:12:57.000Z</time>
      </trkpt>
      <trkpt lat="45.57081" lon="5.73516">
        <ele>673</ele>
        <time>2019-10-27T14:12:58.000Z</time>
      </trkpt>
      <trkpt lat="45.57081" lon="5.73516">
        <ele>673</ele>
        <time>2019-10-27T14:12:59.000Z</time>
      </trkpt>
      <trkpt lat="45.57081" lon="5.73516">
        <ele>673</ele>
        <time>2019-10-27T14:13:00.000Z</time>
      </trkpt>
      <trkpt lat="45.57081" lon="5.73516">
        <ele>673</ele>
        <time>2019-10-27T14:13:01.000Z</time>
      </trkpt>
      <trkpt lat="45.57081" lon="5.73516">
        <ele>673</ele>
        <time>2019-10-27T14:13:02.000Z</time>
      </trkpt>
      <trkpt lat="45.57081" lon="5.73516">
        <ele>673</ele>
        <time>2019-10-27T14:13:03.000Z</time>
      </trkpt>
      <trkpt lat="45.57081" lon="5.73516">
        <ele>673</ele>
        <time>2019-10-27T14:13:04.000Z</time>
      </trkpt>
      <trkpt lat="45.57081" lon="5.73516">
        <ele>673</ele>
        <time>2019-10-27T14:13:05.000Z</time>
      </trkpt>
      <trkpt lat="45.57081" lon="5.73515">
        <ele>673</ele>
        <time>2019-10-27T14:13:06.000Z</time>
      </trkpt>
      <trkpt lat="45.57081" lon="5.73515">
        <ele>673</ele>
        <time>2019-10-27T14:13:07.000Z</time>
      </trkpt>
      <trkpt lat="45.57081" lon="5.73515">
        <ele>673</ele>
        <time>2019-10-27T14:13:08.000Z</time>
      </trkpt>
      <trkpt lat="45.57081" lon="5.73515">
        <ele>673</ele>
        <time>2019-10-27T14:13:09.000Z</time>
      </trkpt>
      <trkpt lat="45.57081" lon="5.73515">
        <ele>673</ele>
        <time>2019-10-27T14:13:10.000Z</time>
      </trkpt>
      <trkpt lat="45.57081" lon="5.73514">
        <ele>673</ele>
        <time>2019-10-27T14:13:11.000Z</time>
      </trkpt>
      <trkpt lat="45.57081" lon="5.73514">
        <ele>673</ele>
        <time>2019-10-27T14:13:12.000Z</time>
      </trkpt>
      <trkpt lat="45.57081" lon="5.73512">
        <ele>673</ele>
        <time>2019-10-27T14:13:13.000Z</time>
      </trkpt>
      <trkpt lat="45.57081" lon="5.73511">
        <ele>673</ele>
        <time>2019-10-27T14:13:14.000Z</time>
      </trkpt>
      <trkpt lat="45.57081" lon="5.73509">
        <ele>673</ele>
        <time>2019-10-27T14:13:15.000Z</time>
      </trkpt>
      <trkpt lat="45.57082" lon="5.73506">
        <ele>673</ele>
        <time>2019-10-27T14:13:16.000Z</time>
      </trkpt>
      <trkpt lat="45.57082" lon="5.73503">
        <ele>673</ele>
        <time>2019-10-27T14:13:17.000Z</time>
      </trkpt>
      <trkpt lat="45.57082" lon="5.735">
        <ele>673</ele>
        <time>2019-10-27T14:13:18.000Z</time>
      </trkpt>
      <trkpt lat="45.57083" lon="5.73496">
        <ele>673</ele>
        <time>2019-10-27T14:13:19.000Z</time>
      </trkpt>
      <trkpt lat="45.57083" lon="5.73494">
        <ele>673</ele>
        <time>2019-10-27T14:13:20.000Z</time>
      </trkpt>
      <trkpt lat="45.57083" lon="5.73492">
        <ele>673</ele>
        <time>2019-10-27T14:13:21.000Z</time>
      </trkpt>
      <trkpt lat="45.57083" lon="5.73492">
        <ele>673</ele>
        <time>2019-10-27T14:13:22.000Z</time>
      </trkpt>
      <trkpt lat="45.57083" lon="5.73492">
        <ele>673</ele>
        <time>2019-10-27T14:13:23.000Z</time>
      </trkpt>
      <trkpt lat="45.57083" lon="5.73492">
        <ele>672.5</ele>
        <time>2019-10-27T14:13:24.000Z</time>
      </trkpt>
      <trkpt lat="45.57082" lon="5.73492">
        <ele>672</ele>
        <time>2019-10-27T14:13:25.000Z</time>
      </trkpt>
      <trkpt lat="45.57082" lon="5.73493">
        <ele>672</ele>
        <time>2019-10-27T14:13:26.000Z</time>
      </trkpt>
      <trkpt lat="45.57082" lon="5.73493">
        <ele>672</ele>
        <time>2019-10-27T14:13:27.000Z</time>
      </trkpt>
      <trkpt lat="45.57081" lon="5.73492">
        <ele>672</ele>
        <time>2019-10-27T14:13:28.000Z</time>
      </trkpt>
      <trkpt lat="45.57081" lon="5.73492">
        <ele>672</ele>
        <time>2019-10-27T14:13:29.000Z</time>
      </trkpt>
      <trkpt lat="45.57081" lon="5.7349">
        <ele>671</ele>
        <time>2019-10-27T14:13:30.000Z</time>
      </trkpt>
      <trkpt lat="45.57082" lon="5.73488">
        <ele>671</ele>
        <time>2019-10-27T14:13:31.000Z</time>
      </trkpt>
      <trkpt lat="45.57082" lon="5.73486">
        <ele>671</ele>
        <time>2019-10-27T14:13:32.000Z</time>
      </trkpt>
      <trkpt lat="45.57082" lon="5.73484">
        <ele>671</ele>
        <time>2019-10-27T14:13:33.000Z</time>
      </trkpt>
      <trkpt lat="45.57082" lon="5.73483">
        <ele>671</ele>
        <time>2019-10-27T14:13:34.000Z</time>
      </trkpt>
      <trkpt lat="45.57082" lon="5.73481">
        <ele>671</ele>
        <time>2019-10-27T14:13:35.000Z</time>
      </trkpt>
      <trkpt lat="45.57081" lon="5.7348">
        <ele>670.5</ele>
        <time>2019-10-27T14:13:36.000Z</time>
      </trkpt>
      <trkpt lat="45.57081" lon="5.73479">
        <ele>670</ele>
        <time>2019-10-27T14:13:37.000Z</time>
      </trkpt>
      <trkpt lat="45.5708" lon="5.73478">
        <ele>670</ele>
        <time>2019-10-27T14:13:38.000Z</time>
      </trkpt>
      <trkpt lat="45.5708" lon="5.73478">
        <ele>670</ele>
        <time>2019-10-27T14:13:39.000Z</time>
      </trkpt>
      <trkpt lat="45.57079" lon="5.73477">
        <ele>670</ele>
        <time>2019-10-27T14:13:40.000Z</time>
      </trkpt>
      <trkpt lat="45.57078" lon="5.73477">
        <ele>670</ele>
        <time>2019-10-27T14:13:41.000Z</time>
      </trkpt>
      <trkpt lat="45.57078" lon="5.73477">
        <ele>669</ele>
        <time>2019-10-27T14:13:42.000Z</time>
      </trkpt>
      <trkpt lat="45.57077" lon="5.73477">
        <ele>669</ele>
        <time>2019-10-27T14:13:43.000Z</time>
      </trkpt>
      <trkpt lat="45.57077" lon="5.73478">
        <ele>669</ele>
        <time>2019-10-27T14:13:44.000Z</time>
      </trkpt>
      <trkpt lat="45.57076" lon="5.73478">
        <ele>669</ele>
        <time>2019-10-27T14:13:45.000Z</time>
      </trkpt>
      <trkpt lat="45.57075" lon="5.73478">
        <ele>669</ele>
        <time>2019-10-27T14:13:46.000Z</time>
      </trkpt>
      <trkpt lat="45.57075" lon="5.73479">
        <ele>669</ele>
        <time>2019-10-27T14:13:47.000Z</time>
      </trkpt>
      <trkpt lat="45.57074" lon="5.73479">
        <ele>668.5</ele>
        <time>2019-10-27T14:13:48.000Z</time>
      </trkpt>
      <trkpt lat="45.57074" lon="5.73479">
        <ele>668</ele>
        <time>2019-10-27T14:13:49.000Z</time>
      </trkpt>
      <trkpt lat="45.57073" lon="5.7348">
        <ele>668</ele>
        <time>2019-10-27T14:13:50.000Z</time>
      </trkpt>
      <trkpt lat="45.57073" lon="5.7348">
        <ele>668</ele>
        <time>2019-10-27T14:13:51.000Z</time>
      </trkpt>
      <trkpt lat="45.57072" lon="5.7348">
        <ele>668</ele>
        <time>2019-10-27T14:13:52.000Z</time>
      </trkpt>
      <trkpt lat="45.57071" lon="5.73479">
        <ele>668</ele>
        <time>2019-10-27T14:13:53.000Z</time>
      </trkpt>
      <trkpt lat="45.57071" lon="5.73479">
        <ele>667.5</ele>
        <time>2019-10-27T14:13:54.000Z</time>
      </trkpt>
      <trkpt lat="45.5707" lon="5.73479">
        <ele>667</ele>
        <time>2019-10-27T14:13:55.000Z</time>
      </trkpt>
      <trkpt lat="45.57069" lon="5.73478">
        <ele>667</ele>
        <time>2019-10-27T14:13:56.000Z</time>
      </trkpt>
      <trkpt lat="45.57068" lon="5.73478">
        <ele>667</ele>
        <time>2019-10-27T14:13:57.000Z</time>
      </trkpt>
      <trkpt lat="45.57068" lon="5.73478">
        <ele>667</ele>
        <time>2019-10-27T14:13:58.000Z</time>
      </trkpt>
      <trkpt lat="45.57067" lon="5.73477">
        <ele>667</ele>
        <time>2019-10-27T14:13:59.000Z</time>
      </trkpt>
      <trkpt lat="45.57066" lon="5.73477">
        <ele>667</ele>
        <time>2019-10-27T14:14:00.000Z</time>
      </trkpt>
      <trkpt lat="45.57065" lon="5.73476">
        <ele>667</ele>
        <time>2019-10-27T14:14:01.000Z</time>
      </trkpt>
      <trkpt lat="45.57064" lon="5.73476">
        <ele>666.5</ele>
        <time>2019-10-27T14:14:02.000Z</time>
      </trkpt>
      <trkpt lat="45.57063" lon="5.73475">
        <ele>666</ele>
        <time>2019-10-27T14:14:03.000Z</time>
      </trkpt>
      <trkpt lat="45.57062" lon="5.73475">
        <ele>666</ele>
        <time>2019-10-27T14:14:04.000Z</time>
      </trkpt>
      <trkpt lat="45.57061" lon="5.73475">
        <ele>666</ele>
        <time>2019-10-27T14:14:05.000Z</time>
      </trkpt>
      <trkpt lat="45.5706" lon="5.73475">
        <ele>666</ele>
        <time>2019-10-27T14:14:06.000Z</time>
      </trkpt>
      <trkpt lat="45.57058" lon="5.73474">
        <ele>666</ele>
        <time>2019-10-27T14:14:07.000Z</time>
      </trkpt>
      <trkpt lat="45.57057" lon="5.73474">
        <ele>666</ele>
        <time>2019-10-27T14:14:08.000Z</time>
      </trkpt>
      <trkpt lat="45.57056" lon="5.73475">
        <ele>666</ele>
        <time>2019-10-27T14:14:09.000Z</time>
      </trkpt>
      <trkpt lat="45.57055" lon="5.73475">
        <ele>666</ele>
        <time>2019-10-27T14:14:10.000Z</time>
      </trkpt>
      <trkpt lat="45.57053" lon="5.73475">
        <ele>666</ele>
        <time>2019-10-27T14:14:11.000Z</time>
      </trkpt>
      <trkpt lat="45.57052" lon="5.73475">
        <ele>666</ele>
        <time>2019-10-27T14:14:12.000Z</time>
      </trkpt>
      <trkpt lat="45.57051" lon="5.73475">
        <ele>666</ele>
        <time>2019-10-27T14:14:13.000Z</time>
      </trkpt>
      <trkpt lat="45.5705" lon="5.73475">
        <ele>666</ele>
        <time>2019-10-27T14:14:14.000Z</time>
      </trkpt>
      <trkpt lat="45.57049" lon="5.73475">
        <ele>666</ele>
        <time>2019-10-27T14:14:15.000Z</time>
      </trkpt>
      <trkpt lat="45.57048" lon="5.73475">
        <ele>665.5</ele>
        <time>2019-10-27T14:14:16.000Z</time>
      </trkpt>
      <trkpt lat="45.57047" lon="5.73474">
        <ele>665</ele>
        <time>2019-10-27T14:14:17.000Z</time>
      </trkpt>
      <trkpt lat="45.57046" lon="5.73474">
        <ele>665</ele>
        <time>2019-10-27T14:14:18.000Z</time>
      </trkpt>
      <trkpt lat="45.57045" lon="5.73473">
        <ele>665</ele>
        <time>2019-10-27T14:14:19.000Z</time>
      </trkpt>
      <trkpt lat="45.57045" lon="5.73472">
        <ele>665</ele>
        <time>2019-10-27T14:14:20.000Z</time>
      </trkpt>
      <trkpt lat="45.57044" lon="5.73471">
        <ele>665</ele>
        <time>2019-10-27T14:14:21.000Z</time>
      </trkpt>
      <trkpt lat="45.57044" lon="5.7347">
        <ele>665</ele>
        <time>2019-10-27T14:14:22.000Z</time>
      </trkpt>
      <trkpt lat="45.57044" lon="5.73469">
        <ele>665</ele>
        <time>2019-10-27T14:14:23.000Z</time>
      </trkpt>
      <trkpt lat="45.57043" lon="5.73467">
        <ele>665</ele>
        <time>2019-10-27T14:14:24.000Z</time>
      </trkpt>
      <trkpt lat="45.57043" lon="5.73466">
        <ele>665</ele>
        <time>2019-10-27T14:14:25.000Z</time>
      </trkpt>
      <trkpt lat="45.57042" lon="5.73465">
        <ele>665</ele>
        <time>2019-10-27T14:14:26.000Z</time>
      </trkpt>
      <trkpt lat="45.57042" lon="5.73464">
        <ele>665</ele>
        <time>2019-10-27T14:14:27.000Z</time>
      </trkpt>
      <trkpt lat="45.57041" lon="5.73462">
        <ele>665</ele>
        <time>2019-10-27T14:14:28.000Z</time>
      </trkpt>
      <trkpt lat="45.5704" lon="5.73461">
        <ele>665</ele>
        <time>2019-10-27T14:14:29.000Z</time>
      </trkpt>
      <trkpt lat="45.5704" lon="5.7346">
        <ele>664.5</ele>
        <time>2019-10-27T14:14:30.000Z</time>
      </trkpt>
      <trkpt lat="45.57039" lon="5.73458">
        <ele>664</ele>
        <time>2019-10-27T14:14:31.000Z</time>
      </trkpt>
      <trkpt lat="45.57039" lon="5.73457">
        <ele>664</ele>
        <time>2019-10-27T14:14:32.000Z</time>
      </trkpt>
      <trkpt lat="45.57038" lon="5.73456">
        <ele>664</ele>
        <time>2019-10-27T14:14:33.000Z</time>
      </trkpt>
      <trkpt lat="45.57038" lon="5.73455">
        <ele>664</ele>
        <time>2019-10-27T14:14:34.000Z</time>
      </trkpt>
      <trkpt lat="45.57038" lon="5.73454">
        <ele>664</ele>
        <time>2019-10-27T14:14:35.000Z</time>
      </trkpt>
      <trkpt lat="45.57037" lon="5.73453">
        <ele>664</ele>
        <time>2019-10-27T14:14:36.000Z</time>
      </trkpt>
      <trkpt lat="45.57037" lon="5.73452">
        <ele>664</ele>
        <time>2019-10-27T14:14:37.000Z</time>
      </trkpt>
      <trkpt lat="45.57037" lon="5.73451">
        <ele>663.5</ele>
        <time>2019-10-27T14:14:38.000Z</time>
      </trkpt>
      <trkpt lat="45.57037" lon="5.73451">
        <ele>663</ele>
        <time>2019-10-27T14:14:39.000Z</time>
      </trkpt>
      <trkpt lat="45.57037" lon="5.7345">
        <ele>663</ele>
        <time>2019-10-27T14:14:40.000Z</time>
      </trkpt>
      <trkpt lat="45.57037" lon="5.7345">
        <ele>663</ele>
        <time>2019-10-27T14:14:41.000Z</time>
      </trkpt>
      <trkpt lat="45.57036" lon="5.73449">
        <ele>663</ele>
        <time>2019-10-27T14:14:42.000Z</time>
      </trkpt>
      <trkpt lat="45.57036" lon="5.73449">
        <ele>663</ele>
        <time>2019-10-27T14:14:43.000Z</time>
      </trkpt>
      <trkpt lat="45.57035" lon="5.73449">
        <ele>662.5</ele>
        <time>2019-10-27T14:14:44.000Z</time>
      </trkpt>
      <trkpt lat="45.57034" lon="5.73448">
        <ele>662</ele>
        <time>2019-10-27T14:14:45.000Z</time>
      </trkpt>
      <trkpt lat="45.57033" lon="5.73447">
        <ele>662</ele>
        <time>2019-10-27T14:14:46.000Z</time>
      </trkpt>
      <trkpt lat="45.57032" lon="5.73446">
        <ele>662</ele>
        <time>2019-10-27T14:14:47.000Z</time>
      </trkpt>
      <trkpt lat="45.57031" lon="5.73447">
        <ele>662</ele>
        <time>2019-10-27T14:14:48.000Z</time>
      </trkpt>
      <trkpt lat="45.5703" lon="5.73447">
        <ele>662</ele>
        <time>2019-10-27T14:14:49.000Z</time>
      </trkpt>
      <trkpt lat="45.57029" lon="5.73447">
        <ele>662</ele>
        <time>2019-10-27T14:14:50.000Z</time>
      </trkpt>
      <trkpt lat="45.57028" lon="5.73447">
        <ele>662</ele>
        <time>2019-10-27T14:14:51.000Z</time>
      </trkpt>
      <trkpt lat="45.57027" lon="5.73447">
        <ele>662</ele>
        <time>2019-10-27T14:14:52.000Z</time>
      </trkpt>
      <trkpt lat="45.57027" lon="5.73447">
        <ele>662</ele>
        <time>2019-10-27T14:14:53.000Z</time>
      </trkpt>
      <trkpt lat="45.57027" lon="5.73446">
        <ele>662</ele>
        <time>2019-10-27T14:14:54.000Z</time>
      </trkpt>
      <trkpt lat="45.57027" lon="5.73446">
        <ele>662</ele>
        <time>2019-10-27T14:14:55.000Z</time>
      </trkpt>
      <trkpt lat="45.57027" lon="5.73445">
        <ele>661.7</ele>
        <time>2019-10-27T14:14:56.000Z</time>
      </trkpt>
      <trkpt lat="45.57027" lon="5.73444">
        <ele>661.3</ele>
        <time>2019-10-27T14:14:57.000Z</time>
      </trkpt>
      <trkpt lat="45.57027" lon="5.73443">
        <ele>661</ele>
        <time>2019-10-27T14:14:58.000Z</time>
      </trkpt>
      <trkpt lat="45.57027" lon="5.73442">
        <ele>661</ele>
        <time>2019-10-27T14:14:59.000Z</time>
      </trkpt>
      <trkpt lat="45.57027" lon="5.73441">
        <ele>661</ele>
        <time>2019-10-27T14:15:00.000Z</time>
      </trkpt>
      <trkpt lat="45.57027" lon="5.7344">
        <ele>661</ele>
        <time>2019-10-27T14:15:01.000Z</time>
      </trkpt>
      <trkpt lat="45.57027" lon="5.73439">
        <ele>660.7</ele>
        <time>2019-10-27T14:15:02.000Z</time>
      </trkpt>
      <trkpt lat="45.57027" lon="5.73439">
        <ele>660.3</ele>
        <time>2019-10-27T14:15:03.000Z</time>
      </trkpt>
      <trkpt lat="45.57027" lon="5.73438">
        <ele>660</ele>
        <time>2019-10-27T14:15:04.000Z</time>
      </trkpt>
      <trkpt lat="45.57027" lon="5.73438">
        <ele>660</ele>
        <time>2019-10-27T14:15:05.000Z</time>
      </trkpt>
      <trkpt lat="45.57027" lon="5.73437">
        <ele>660</ele>
        <time>2019-10-27T14:15:06.000Z</time>
      </trkpt>
      <trkpt lat="45.57026" lon="5.73437">
        <ele>660</ele>
        <time>2019-10-27T14:15:07.000Z</time>
      </trkpt>
      <trkpt lat="45.57026" lon="5.73437">
        <ele>660</ele>
        <time>2019-10-27T14:15:08.000Z</time>
      </trkpt>
      <trkpt lat="45.57026" lon="5.73437">
        <ele>660</ele>
        <time>2019-10-27T14:15:09.000Z</time>
      </trkpt>
      <trkpt lat="45.57025" lon="5.73437">
        <ele>660</ele>
        <time>2019-10-27T14:15:10.000Z</time>
      </trkpt>
      <trkpt lat="45.57025" lon="5.73437">
        <ele>659</ele>
        <time>2019-10-27T14:15:11.000Z</time>
      </trkpt>
      <trkpt lat="45.57025" lon="5.73437">
        <ele>659</ele>
        <time>2019-10-27T14:15:12.000Z</time>
      </trkpt>
      <trkpt lat="45.57024" lon="5.73436">
        <ele>659</ele>
        <time>2019-10-27T14:15:13.000Z</time>
      </trkpt>
      <trkpt lat="45.57024" lon="5.73436">
        <ele>659</ele>
        <time>2019-10-27T14:15:14.000Z</time>
      </trkpt>
      <trkpt lat="45.57024" lon="5.73435">
        <ele>659</ele>
        <time>2019-10-27T14:15:15.000Z</time>
      </trkpt>
      <trkpt lat="45.57024" lon="5.73434">
        <ele>659</ele>
        <time>2019-10-27T14:15:16.000Z</time>
      </trkpt>
      <trkpt lat="45.57024" lon="5.73433">
        <ele>659</ele>
        <time>2019-10-27T14:15:17.000Z</time>
      </trkpt>
      <trkpt lat="45.57024" lon="5.73431">
        <ele>659</ele>
        <time>2019-10-27T14:15:18.000Z</time>
      </trkpt>
      <trkpt lat="45.57024" lon="5.73429">
        <ele>659</ele>
        <time>2019-10-27T14:15:19.000Z</time>
      </trkpt>
      <trkpt lat="45.57025" lon="5.73427">
        <ele>659</ele>
        <time>2019-10-27T14:15:20.000Z</time>
      </trkpt>
      <trkpt lat="45.57025" lon="5.73425">
        <ele>658.5</ele>
        <time>2019-10-27T14:15:21.000Z</time>
      </trkpt>
      <trkpt lat="45.57025" lon="5.73424">
        <ele>658</ele>
        <time>2019-10-27T14:15:22.000Z</time>
      </trkpt>
      <trkpt lat="45.57026" lon="5.73422">
        <ele>658</ele>
        <time>2019-10-27T14:15:23.000Z</time>
      </trkpt>
      <trkpt lat="45.57026" lon="5.7342">
        <ele>658</ele>
        <time>2019-10-27T14:15:24.000Z</time>
      </trkpt>
      <trkpt lat="45.57026" lon="5.73419">
        <ele>658</ele>
        <time>2019-10-27T14:15:25.000Z</time>
      </trkpt>
      <trkpt lat="45.57026" lon="5.73418">
        <ele>658</ele>
        <time>2019-10-27T14:15:26.000Z</time>
      </trkpt>
      <trkpt lat="45.57026" lon="5.73417">
        <ele>658</ele>
        <time>2019-10-27T14:15:27.000Z</time>
      </trkpt>
      <trkpt lat="45.57026" lon="5.73417">
        <ele>658</ele>
        <time>2019-10-27T14:15:28.000Z</time>
      </trkpt>
      <trkpt lat="45.57026" lon="5.73416">
        <ele>658</ele>
        <time>2019-10-27T14:15:29.000Z</time>
      </trkpt>
      <trkpt lat="45.57025" lon="5.73415">
        <ele>658</ele>
        <time>2019-10-27T14:15:30.000Z</time>
      </trkpt>
      <trkpt lat="45.57025" lon="5.73415">
        <ele>658</ele>
        <time>2019-10-27T14:15:31.000Z</time>
      </trkpt>
      <trkpt lat="45.57025" lon="5.73415">
        <ele>658</ele>
        <time>2019-10-27T14:15:32.000Z</time>
      </trkpt>
      <trkpt lat="45.57025" lon="5.73414">
        <ele>658</ele>
        <time>2019-10-27T14:15:33.000Z</time>
      </trkpt>
      <trkpt lat="45.57024" lon="5.73414">
        <ele>658</ele>
        <time>2019-10-27T14:15:34.000Z</time>
      </trkpt>
      <trkpt lat="45.57024" lon="5.73414">
        <ele>658</ele>
        <time>2019-10-27T14:15:35.000Z</time>
      </trkpt>
      <trkpt lat="45.57024" lon="5.73413">
        <ele>658</ele>
        <time>2019-10-27T14:15:36.000Z</time>
      </trkpt>
      <trkpt lat="45.57023" lon="5.73413">
        <ele>658</ele>
        <time>2019-10-27T14:15:37.000Z</time>
      </trkpt>
      <trkpt lat="45.57023" lon="5.73413">
        <ele>658</ele>
        <time>2019-10-27T14:15:38.000Z</time>
      </trkpt>
      <trkpt lat="45.57022" lon="5.73413">
        <ele>658</ele>
        <time>2019-10-27T14:15:39.000Z</time>
      </trkpt>
      <trkpt lat="45.57022" lon="5.73413">
        <ele>658</ele>
        <time>2019-10-27T14:15:40.000Z</time>
      </trkpt>
      <trkpt lat="45.57022" lon="5.73414">
        <ele>658</ele>
        <time>2019-10-27T14:15:41.000Z</time>
      </trkpt>
      <trkpt lat="45.57021" lon="5.73414">
        <ele>658</ele>
        <time>2019-10-27T14:15:42.000Z</time>
      </trkpt>
      <trkpt lat="45.57021" lon="5.73415">
        <ele>658</ele>
        <time>2019-10-27T14:15:43.000Z</time>
      </trkpt>
      <trkpt lat="45.5702" lon="5.73416">
        <ele>658</ele>
        <time>2019-10-27T14:15:44.000Z</time>
      </trkpt>
      <trkpt lat="45.57019" lon="5.73417">
        <ele>658</ele>
        <time>2019-10-27T14:15:45.000Z</time>
      </trkpt>
      <trkpt lat="45.57019" lon="5.73418">
        <ele>658</ele>
        <time>2019-10-27T14:15:46.000Z</time>
      </trkpt>
      <trkpt lat="45.57018" lon="5.73418">
        <ele>658</ele>
        <time>2019-10-27T14:15:47.000Z</time>
      </trkpt>
      <trkpt lat="45.57018" lon="5.73419">
        <ele>658</ele>
        <time>2019-10-27T14:15:48.000Z</time>
      </trkpt>
      <trkpt lat="45.57017" lon="5.7342">
        <ele>657.5</ele>
        <time>2019-10-27T14:15:49.000Z</time>
      </trkpt>
      <trkpt lat="45.57017" lon="5.73421">
        <ele>657</ele>
        <time>2019-10-27T14:15:50.000Z</time>
      </trkpt>
      <trkpt lat="45.57017" lon="5.73421">
        <ele>657</ele>
        <time>2019-10-27T14:15:51.000Z</time>
      </trkpt>
      <trkpt lat="45.57016" lon="5.73421">
        <ele>657</ele>
        <time>2019-10-27T14:15:52.000Z</time>
      </trkpt>
      <trkpt lat="45.57016" lon="5.7342">
        <ele>656.5</ele>
        <time>2019-10-27T14:15:53.000Z</time>
      </trkpt>
      <trkpt lat="45.57016" lon="5.73418">
        <ele>656</ele>
        <time>2019-10-27T14:15:54.000Z</time>
      </trkpt>
      <trkpt lat="45.57016" lon="5.73415">
        <ele>656</ele>
        <time>2019-10-27T14:15:55.000Z</time>
      </trkpt>
      <trkpt lat="45.57016" lon="5.73412">
        <ele>656</ele>
        <time>2019-10-27T14:15:56.000Z</time>
      </trkpt>
      <trkpt lat="45.57016" lon="5.7341">
        <ele>656</ele>
        <time>2019-10-27T14:15:57.000Z</time>
      </trkpt>
      <trkpt lat="45.57017" lon="5.73408">
        <ele>655.5</ele>
        <time>2019-10-27T14:15:58.000Z</time>
      </trkpt>
      <trkpt lat="45.57017" lon="5.73407">
        <ele>655</ele>
        <time>2019-10-27T14:15:59.000Z</time>
      </trkpt>
      <trkpt lat="45.57018" lon="5.73406">
        <ele>655</ele>
        <time>2019-10-27T14:16:00.000Z</time>
      </trkpt>
      <trkpt lat="45.57018" lon="5.73406">
        <ele>655</ele>
        <time>2019-10-27T14:16:01.000Z</time>
      </trkpt>
      <trkpt lat="45.57018" lon="5.73406">
        <ele>655</ele>
        <time>2019-10-27T14:16:02.000Z</time>
      </trkpt>
      <trkpt lat="45.57018" lon="5.73406">
        <ele>655</ele>
        <time>2019-10-27T14:16:03.000Z</time>
      </trkpt>
      <trkpt lat="45.57018" lon="5.73405">
        <ele>654.5</ele>
        <time>2019-10-27T14:16:04.000Z</time>
      </trkpt>
      <trkpt lat="45.57017" lon="5.73406">
        <ele>654</ele>
        <time>2019-10-27T14:16:05.000Z</time>
      </trkpt>
      <trkpt lat="45.57017" lon="5.73406">
        <ele>654</ele>
        <time>2019-10-27T14:16:06.000Z</time>
      </trkpt>
      <trkpt lat="45.57017" lon="5.73406">
        <ele>654</ele>
        <time>2019-10-27T14:16:07.000Z</time>
      </trkpt>
      <trkpt lat="45.57017" lon="5.73406">
        <ele>654</ele>
        <time>2019-10-27T14:16:08.000Z</time>
      </trkpt>
      <trkpt lat="45.57017" lon="5.73406">
        <ele>653</ele>
        <time>2019-10-27T14:16:09.000Z</time>
      </trkpt>
      <trkpt lat="45.57016" lon="5.73406">
        <ele>653</ele>
        <time>2019-10-27T14:16:10.000Z</time>
      </trkpt>
      <trkpt lat="45.57016" lon="5.73406">
        <ele>653</ele>
        <time>2019-10-27T14:16:11.000Z</time>
      </trkpt>
      <trkpt lat="45.57016" lon="5.73406">
        <ele>653</ele>
        <time>2019-10-27T14:16:12.000Z</time>
      </trkpt>
      <trkpt lat="45.57016" lon="5.73406">
        <ele>652.5</ele>
        <time>2019-10-27T14:16:13.000Z</time>
      </trkpt>
      <trkpt lat="45.57016" lon="5.73406">
        <ele>652</ele>
        <time>2019-10-27T14:16:14.000Z</time>
      </trkpt>
      <trkpt lat="45.57016" lon="5.73406">
        <ele>652</ele>
        <time>2019-10-27T14:16:15.000Z</time>
      </trkpt>
      <trkpt lat="45.57016" lon="5.73406">
        <ele>652</ele>
        <time>2019-10-27T14:16:16.000Z</time>
      </trkpt>
      <trkpt lat="45.57015" lon="5.73406">
        <ele>652</ele>
        <time>2019-10-27T14:16:17.000Z</time>
      </trkpt>
      <trkpt lat="45.57015" lon="5.73406">
        <ele>652</ele>
        <time>2019-10-27T14:16:18.000Z</time>
      </trkpt>
      <trkpt lat="45.57015" lon="5.73405">
        <ele>652</ele>
        <time>2019-10-27T14:16:19.000Z</time>
      </trkpt>
      <trkpt lat="45.57015" lon="5.73405">
        <ele>652</ele>
        <time>2019-10-27T14:16:20.000Z</time>
      </trkpt>
      <trkpt lat="45.57015" lon="5.73405">
        <ele>652</ele>
        <time>2019-10-27T14:16:21.000Z</time>
      </trkpt>
      <trkpt lat="45.57015" lon="5.73404">
        <ele>652</ele>
        <time>2019-10-27T14:16:22.000Z</time>
      </trkpt>
      <trkpt lat="45.57015" lon="5.73404">
        <ele>652</ele>
        <time>2019-10-27T14:16:23.000Z</time>
      </trkpt>
      <trkpt lat="45.57014" lon="5.73403">
        <ele>652</ele>
        <time>2019-10-27T14:16:24.000Z</time>
      </trkpt>
      <trkpt lat="45.57014" lon="5.73403">
        <ele>652</ele>
        <time>2019-10-27T14:16:25.000Z</time>
      </trkpt>
      <trkpt lat="45.57014" lon="5.73402">
        <ele>652</ele>
        <time>2019-10-27T14:16:26.000Z</time>
      </trkpt>
      <trkpt lat="45.57014" lon="5.73401">
        <ele>652</ele>
        <time>2019-10-27T14:16:27.000Z</time>
      </trkpt>
      <trkpt lat="45.57014" lon="5.73401">
        <ele>652</ele>
        <time>2019-10-27T14:16:28.000Z</time>
      </trkpt>
      <trkpt lat="45.57013" lon="5.734">
        <ele>651.5</ele>
        <time>2019-10-27T14:16:29.000Z</time>
      </trkpt>
      <trkpt lat="45.57013" lon="5.734">
        <ele>651</ele>
        <time>2019-10-27T14:16:30.000Z</time>
      </trkpt>
      <trkpt lat="45.57012" lon="5.734">
        <ele>651</ele>
        <time>2019-10-27T14:16:31.000Z</time>
      </trkpt>
      <trkpt lat="45.57012" lon="5.734">
        <ele>651</ele>
        <time>2019-10-27T14:16:32.000Z</time>
      </trkpt>
      <trkpt lat="45.57011" lon="5.734">
        <ele>651</ele>
        <time>2019-10-27T14:16:33.000Z</time>
      </trkpt>
      <trkpt lat="45.57011" lon="5.734">
        <ele>651</ele>
        <time>2019-10-27T14:16:34.000Z</time>
      </trkpt>
      <trkpt lat="45.57011" lon="5.734">
        <ele>651</ele>
        <time>2019-10-27T14:16:35.000Z</time>
      </trkpt>
      <trkpt lat="45.57011" lon="5.734">
        <ele>651</ele>
        <time>2019-10-27T14:16:36.000Z</time>
      </trkpt>
      <trkpt lat="45.57011" lon="5.73399">
        <ele>651</ele>
        <time>2019-10-27T14:16:37.000Z</time>
      </trkpt>
      <trkpt lat="45.57011" lon="5.73399">
        <ele>651</ele>
        <time>2019-10-27T14:16:38.000Z</time>
      </trkpt>
      <trkpt lat="45.57011" lon="5.73398">
        <ele>651</ele>
        <time>2019-10-27T14:16:39.000Z</time>
      </trkpt>
      <trkpt lat="45.57011" lon="5.73397">
        <ele>651</ele>
        <time>2019-10-27T14:16:40.000Z</time>
      </trkpt>
      <trkpt lat="45.57012" lon="5.73396">
        <ele>651</ele>
        <time>2019-10-27T14:16:41.000Z</time>
      </trkpt>
      <trkpt lat="45.57012" lon="5.73395">
        <ele>651</ele>
        <time>2019-10-27T14:16:42.000Z</time>
      </trkpt>
      <trkpt lat="45.57012" lon="5.73395">
        <ele>651</ele>
        <time>2019-10-27T14:16:43.000Z</time>
      </trkpt>
      <trkpt lat="45.57012" lon="5.73395">
        <ele>651</ele>
        <time>2019-10-27T14:16:44.000Z</time>
      </trkpt>
      <trkpt lat="45.57013" lon="5.73395">
        <ele>651</ele>
        <time>2019-10-27T14:16:45.000Z</time>
      </trkpt>
      <trkpt lat="45.57013" lon="5.73395">
        <ele>651</ele>
        <time>2019-10-27T14:16:46.000Z</time>
      </trkpt>
      <trkpt lat="45.57013" lon="5.73396">
        <ele>651</ele>
        <time>2019-10-27T14:16:47.000Z</time>
      </trkpt>
      <trkpt lat="45.57013" lon="5.73396">
        <ele>651</ele>
        <time>2019-10-27T14:16:48.000Z</time>
      </trkpt>
      <trkpt lat="45.57013" lon="5.73396">
        <ele>651</ele>
        <time>2019-10-27T14:16:49.000Z</time>
      </trkpt>
      <trkpt lat="45.57013" lon="5.73396">
        <ele>651</ele>
        <time>2019-10-27T14:16:50.000Z</time>
      </trkpt>
      <trkpt lat="45.57013" lon="5.73396">
        <ele>651</ele>
        <time>2019-10-27T14:16:51.000Z</time>
      </trkpt>
      <trkpt lat="45.57013" lon="5.73396">
        <ele>651</ele>
        <time>2019-10-27T14:16:52.000Z</time>
      </trkpt>
      <trkpt lat="45.57012" lon="5.73396">
        <ele>651</ele>
        <time>2019-10-27T14:16:53.000Z</time>
      </trkpt>
      <trkpt lat="45.57012" lon="5.73396">
        <ele>651</ele>
        <time>2019-10-27T14:16:54.000Z</time>
      </trkpt>
      <trkpt lat="45.57012" lon="5.73395">
        <ele>651</ele>
        <time>2019-10-27T14:16:55.000Z</time>
      </trkpt>
      <trkpt lat="45.57012" lon="5.73395">
        <ele>651</ele>
        <time>2019-10-27T14:16:56.000Z</time>
      </trkpt>
      <trkpt lat="45.57012" lon="5.73394">
        <ele>651</ele>
        <time>2019-10-27T14:16:57.000Z</time>
      </trkpt>
      <trkpt lat="45.57012" lon="5.73394">
        <ele>651</ele>
        <time>2019-10-27T14:16:58.000Z</time>
      </trkpt>
      <trkpt lat="45.57012" lon="5.73394">
        <ele>651</ele>
        <time>2019-10-27T14:16:59.000Z</time>
      </trkpt>
      <trkpt lat="45.57013" lon="5.73393">
        <ele>651</ele>
        <time>2019-10-27T14:17:00.000Z</time>
      </trkpt>
      <trkpt lat="45.57014" lon="5.73393">
        <ele>651</ele>
        <time>2019-10-27T14:17:01.000Z</time>
      </trkpt>
      <trkpt lat="45.57014" lon="5.73393">
        <ele>651</ele>
        <time>2019-10-27T14:17:02.000Z</time>
      </trkpt>
      <trkpt lat="45.57015" lon="5.73393">
        <ele>651</ele>
        <time>2019-10-27T14:17:03.000Z</time>
      </trkpt>
      <trkpt lat="45.57015" lon="5.73393">
        <ele>651</ele>
        <time>2019-10-27T14:17:04.000Z</time>
      </trkpt>
      <trkpt lat="45.57015" lon="5.73393">
        <ele>651</ele>
        <time>2019-10-27T14:17:05.000Z</time>
      </trkpt>
      <trkpt lat="45.57016" lon="5.73394">
        <ele>651</ele>
        <time>2019-10-27T14:17:06.000Z</time>
      </trkpt>
      <trkpt lat="45.57016" lon="5.73394">
        <ele>651</ele>
        <time>2019-10-27T14:17:07.000Z</time>
      </trkpt>
      <trkpt lat="45.57016" lon="5.73394">
        <ele>651</ele>
        <time>2019-10-27T14:17:08.000Z</time>
      </trkpt>
      <trkpt lat="45.57016" lon="5.73394">
        <ele>651</ele>
        <time>2019-10-27T14:17:09.000Z</time>
      </trkpt>
      <trkpt lat="45.57016" lon="5.73394">
        <ele>651</ele>
        <time>2019-10-27T14:17:10.000Z</time>
      </trkpt>
      <trkpt lat="45.57016" lon="5.73393">
        <ele>651</ele>
        <time>2019-10-27T14:17:11.000Z</time>
      </trkpt>
      <trkpt lat="45.57017" lon="5.73393">
        <ele>651</ele>
        <time>2019-10-27T14:17:14.000Z</time>
      </trkpt>
      <trkpt lat="45.57017" lon="5.73392">
        <ele>651</ele>
        <time>2019-10-27T14:17:15.000Z</time>
      </trkpt>
      <trkpt lat="45.57017" lon="5.73392">
        <ele>651</ele>
        <time>2019-10-27T14:17:16.000Z</time>
      </trkpt>
      <trkpt lat="45.57017" lon="5.73393">
        <ele>651</ele>
        <time>2019-10-27T14:17:17.000Z</time>
      </trkpt>
      <trkpt lat="45.57017" lon="5.73394">
        <ele>651</ele>
        <time>2019-10-27T14:17:18.000Z</time>
      </trkpt>
      <trkpt lat="45.57016" lon="5.73394">
        <ele>651</ele>
        <time>2019-10-27T14:17:19.000Z</time>
      </trkpt>
      <trkpt lat="45.57016" lon="5.73394">
        <ele>651</ele>
        <time>2019-10-27T14:17:20.000Z</time>
      </trkpt>
      <trkpt lat="45.57015" lon="5.73394">
        <ele>651</ele>
        <time>2019-10-27T14:17:21.000Z</time>
      </trkpt>
      <trkpt lat="45.57015" lon="5.73394">
        <ele>651</ele>
        <time>2019-10-27T14:17:22.000Z</time>
      </trkpt>
      <trkpt lat="45.57014" lon="5.73394">
        <ele>651</ele>
        <time>2019-10-27T14:17:23.000Z</time>
      </trkpt>
      <trkpt lat="45.57013" lon="5.73394">
        <ele>651</ele>
        <time>2019-10-27T14:17:24.000Z</time>
      </trkpt>
      <trkpt lat="45.57012" lon="5.73393">
        <ele>651</ele>
        <time>2019-10-27T14:17:25.000Z</time>
      </trkpt>
      <trkpt lat="45.57011" lon="5.73392">
        <ele>651</ele>
        <time>2019-10-27T14:17:26.000Z</time>
      </trkpt>
      <trkpt lat="45.57011" lon="5.73391">
        <ele>651</ele>
        <time>2019-10-27T14:17:27.000Z</time>
      </trkpt>
      <trkpt lat="45.5701" lon="5.7339">
        <ele>651</ele>
        <time>2019-10-27T14:17:28.000Z</time>
      </trkpt>
      <trkpt lat="45.5701" lon="5.73389">
        <ele>651</ele>
        <time>2019-10-27T14:17:29.000Z</time>
      </trkpt>
      <trkpt lat="45.5701" lon="5.73387">
        <ele>651</ele>
        <time>2019-10-27T14:17:30.000Z</time>
      </trkpt>
      <trkpt lat="45.5701" lon="5.73384">
        <ele>651</ele>
        <time>2019-10-27T14:17:31.000Z</time>
      </trkpt>
      <trkpt lat="45.57011" lon="5.73381">
        <ele>651</ele>
        <time>2019-10-27T14:17:32.000Z</time>
      </trkpt>
      <trkpt lat="45.57012" lon="5.73379">
        <ele>651</ele>
        <time>2019-10-27T14:17:33.000Z</time>
      </trkpt>
      <trkpt lat="45.57013" lon="5.73379">
        <ele>651</ele>
        <time>2019-10-27T14:17:34.000Z</time>
      </trkpt>
      <trkpt lat="45.57014" lon="5.7338">
        <ele>651</ele>
        <time>2019-10-27T14:17:35.000Z</time>
      </trkpt>
      <trkpt lat="45.57014" lon="5.73382">
        <ele>651</ele>
        <time>2019-10-27T14:17:36.000Z</time>
      </trkpt>
      <trkpt lat="45.57014" lon="5.73383">
        <ele>651</ele>
        <time>2019-10-27T14:17:37.000Z</time>
      </trkpt>
      <trkpt lat="45.57013" lon="5.73384">
        <ele>651</ele>
        <time>2019-10-27T14:17:38.000Z</time>
      </trkpt>
      <trkpt lat="45.57012" lon="5.73385">
        <ele>651</ele>
        <time>2019-10-27T14:17:39.000Z</time>
      </trkpt>
      <trkpt lat="45.57011" lon="5.73386">
        <ele>651</ele>
        <time>2019-10-27T14:17:40.000Z</time>
      </trkpt>
      <trkpt lat="45.5701" lon="5.73386">
        <ele>651</ele>
        <time>2019-10-27T14:17:41.000Z</time>
      </trkpt>
      <trkpt lat="45.5701" lon="5.73385">
        <ele>651</ele>
        <time>2019-10-27T14:17:42.000Z</time>
      </trkpt>
      <trkpt lat="45.5701" lon="5.73383">
        <ele>651</ele>
        <time>2019-10-27T14:17:43.000Z</time>
      </trkpt>
      <trkpt lat="45.57011" lon="5.73379">
        <ele>651</ele>
        <time>2019-10-27T14:17:44.000Z</time>
      </trkpt>
      <trkpt lat="45.57013" lon="5.73374">
        <ele>651</ele>
        <time>2019-10-27T14:17:45.000Z</time>
      </trkpt>
      <trkpt lat="45.57015" lon="5.73369">
        <ele>651</ele>
        <time>2019-10-27T14:17:46.000Z</time>
      </trkpt>
      <trkpt lat="45.57016" lon="5.73366">
        <ele>651</ele>
        <time>2019-10-27T14:17:47.000Z</time>
      </trkpt>
      <trkpt lat="45.57015" lon="5.73366">
        <ele>651</ele>
        <time>2019-10-27T14:17:48.000Z</time>
      </trkpt>
      <trkpt lat="45.57016" lon="5.73365">
        <ele>651</ele>
        <time>2019-10-27T14:17:49.000Z</time>
      </trkpt>
      <trkpt lat="45.57016" lon="5.73365">
        <ele>651</ele>
        <time>2019-10-27T14:17:50.000Z</time>
      </trkpt>
      <trkpt lat="45.57016" lon="5.73365">
        <ele>651</ele>
        <time>2019-10-27T14:17:51.000Z</time>
      </trkpt>
      <trkpt lat="45.57016" lon="5.73365">
        <ele>651</ele>
        <time>2019-10-27T14:17:52.000Z</time>
      </trkpt>
      <trkpt lat="45.57016" lon="5.73365">
        <ele>651</ele>
        <time>2019-10-27T14:17:53.000Z</time>
      </trkpt>
      <trkpt lat="45.57016" lon="5.73364">
        <ele>651</ele>
        <time>2019-10-27T14:17:54.000Z</time>
      </trkpt>
      <trkpt lat="45.57016" lon="5.73364">
        <ele>651</ele>
        <time>2019-10-27T14:17:55.000Z</time>
      </trkpt>
      <trkpt lat="45.57016" lon="5.73364">
        <ele>651</ele>
        <time>2019-10-27T14:17:56.000Z</time>
      </trkpt>
      <trkpt lat="45.57016" lon="5.73364">
        <ele>651</ele>
        <time>2019-10-27T14:17:57.000Z</time>
      </trkpt>
      <trkpt lat="45.57016" lon="5.73364">
        <ele>651</ele>
        <time>2019-10-27T14:17:58.000Z</time>
      </trkpt>
      <trkpt lat="45.57016" lon="5.73364">
        <ele>651</ele>
        <time>2019-10-27T14:17:59.000Z</time>
      </trkpt>
      <trkpt lat="45.57016" lon="5.73364">
        <ele>651</ele>
        <time>2019-10-27T14:18:00.000Z</time>
      </trkpt>
      <trkpt lat="45.57016" lon="5.73364">
        <ele>651</ele>
        <time>2019-10-27T14:18:01.000Z</time>
      </trkpt>
      <trkpt lat="45.57016" lon="5.73363">
        <ele>651</ele>
        <time>2019-10-27T14:18:02.000Z</time>
      </trkpt>
      <trkpt lat="45.57016" lon="5.73363">
        <ele>651</ele>
        <time>2019-10-27T14:18:03.000Z</time>
      </trkpt>
      <trkpt lat="45.57016" lon="5.73362">
        <ele>651</ele>
        <time>2019-10-27T14:18:04.000Z</time>
      </trkpt>
      <trkpt lat="45.57016" lon="5.73361">
        <ele>651</ele>
        <time>2019-10-27T14:18:05.000Z</time>
      </trkpt>
      <trkpt lat="45.57015" lon="5.7336">
        <ele>651</ele>
        <time>2019-10-27T14:18:06.000Z</time>
      </trkpt>
      <trkpt lat="45.57015" lon="5.73359">
        <ele>651</ele>
        <time>2019-10-27T14:18:07.000Z</time>
      </trkpt>
      <trkpt lat="45.57015" lon="5.73357">
        <ele>651</ele>
        <time>2019-10-27T14:18:08.000Z</time>
      </trkpt>
      <trkpt lat="45.57015" lon="5.73356">
        <ele>651</ele>
        <time>2019-10-27T14:18:09.000Z</time>
      </trkpt>
      <trkpt lat="45.57015" lon="5.73354">
        <ele>651</ele>
        <time>2019-10-27T14:18:10.000Z</time>
      </trkpt>
      <trkpt lat="45.57015" lon="5.73353">
        <ele>651</ele>
        <time>2019-10-27T14:18:11.000Z</time>
      </trkpt>
      <trkpt lat="45.57015" lon="5.73352">
        <ele>651</ele>
        <time>2019-10-27T14:18:12.000Z</time>
      </trkpt>
      <trkpt lat="45.57015" lon="5.73352">
        <ele>651</ele>
        <time>2019-10-27T14:18:13.000Z</time>
      </trkpt>
      <trkpt lat="45.57015" lon="5.73352">
        <ele>651</ele>
        <time>2019-10-27T14:18:14.000Z</time>
      </trkpt>
      <trkpt lat="45.57015" lon="5.73352">
        <ele>651</ele>
        <time>2019-10-27T14:18:15.000Z</time>
      </trkpt>
      <trkpt lat="45.57015" lon="5.73352">
        <ele>651</ele>
        <time>2019-10-27T14:18:16.000Z</time>
      </trkpt>
      <trkpt lat="45.57015" lon="5.73352">
        <ele>651</ele>
        <time>2019-10-27T14:18:17.000Z</time>
      </trkpt>
      <trkpt lat="45.57015" lon="5.73352">
        <ele>651</ele>
        <time>2019-10-27T14:18:18.000Z</time>
      </trkpt>
      <trkpt lat="45.57015" lon="5.73351">
        <ele>651</ele>
        <time>2019-10-27T14:18:19.000Z</time>
      </trkpt>
      <trkpt lat="45.57014" lon="5.73351">
        <ele>651</ele>
        <time>2019-10-27T14:18:20.000Z</time>
      </trkpt>
      <trkpt lat="45.57014" lon="5.73351">
        <ele>651</ele>
        <time>2019-10-27T14:18:21.000Z</time>
      </trkpt>
      <trkpt lat="45.57013" lon="5.73351">
        <ele>651</ele>
        <time>2019-10-27T14:18:22.000Z</time>
      </trkpt>
      <trkpt lat="45.57013" lon="5.73351">
        <ele>651</ele>
        <time>2019-10-27T14:18:23.000Z</time>
      </trkpt>
      <trkpt lat="45.57012" lon="5.73351">
        <ele>651</ele>
        <time>2019-10-27T14:18:24.000Z</time>
      </trkpt>
      <trkpt lat="45.57012" lon="5.73352">
        <ele>651</ele>
        <time>2019-10-27T14:18:25.000Z</time>
      </trkpt>
      <trkpt lat="45.57011" lon="5.73352">
        <ele>651</ele>
        <time>2019-10-27T14:18:26.000Z</time>
      </trkpt>
      <trkpt lat="45.57011" lon="5.73353">
        <ele>650.5</ele>
        <time>2019-10-27T14:18:27.000Z</time>
      </trkpt>
      <trkpt lat="45.5701" lon="5.73353">
        <ele>650</ele>
        <time>2019-10-27T14:18:28.000Z</time>
      </trkpt>
      <trkpt lat="45.5701" lon="5.73354">
        <ele>650</ele>
        <time>2019-10-27T14:18:29.000Z</time>
      </trkpt>
      <trkpt lat="45.5701" lon="5.73354">
        <ele>650</ele>
        <time>2019-10-27T14:18:30.000Z</time>
      </trkpt>
      <trkpt lat="45.57009" lon="5.73354">
        <ele>650</ele>
        <time>2019-10-27T14:18:31.000Z</time>
      </trkpt>
      <trkpt lat="45.57009" lon="5.73354">
        <ele>650</ele>
        <time>2019-10-27T14:18:32.000Z</time>
      </trkpt>
      <trkpt lat="45.57009" lon="5.73354">
        <ele>650</ele>
        <time>2019-10-27T14:18:33.000Z</time>
      </trkpt>
      <trkpt lat="45.57009" lon="5.73354">
        <ele>650</ele>
        <time>2019-10-27T14:18:34.000Z</time>
      </trkpt>
      <trkpt lat="45.57009" lon="5.73354">
        <ele>650</ele>
        <time>2019-10-27T14:18:35.000Z</time>
      </trkpt>
      <trkpt lat="45.57009" lon="5.73354">
        <ele>650</ele>
        <time>2019-10-27T14:18:36.000Z</time>
      </trkpt>
      <trkpt lat="45.57009" lon="5.73354">
        <ele>650</ele>
        <time>2019-10-27T14:18:37.000Z</time>
      </trkpt>
      <trkpt lat="45.57008" lon="5.73354">
        <ele>650</ele>
        <time>2019-10-27T14:18:38.000Z</time>
      </trkpt>
      <trkpt lat="45.57008" lon="5.73354">
        <ele>650</ele>
        <time>2019-10-27T14:18:39.000Z</time>
      </trkpt>
      <trkpt lat="45.57008" lon="5.73354">
        <ele>650</ele>
        <time>2019-10-27T14:18:40.000Z</time>
      </trkpt>
      <trkpt lat="45.57008" lon="5.73354">
        <ele>650</ele>
        <time>2019-10-27T14:18:41.000Z</time>
      </trkpt>
      <trkpt lat="45.57008" lon="5.73354">
        <ele>650</ele>
        <time>2019-10-27T14:18:42.000Z</time>
      </trkpt>
      <trkpt lat="45.57007" lon="5.73354">
        <ele>650</ele>
        <time>2019-10-27T14:18:43.000Z</time>
      </trkpt>
      <trkpt lat="45.57006" lon="5.73354">
        <ele>650</ele>
        <time>2019-10-27T14:18:44.000Z</time>
      </trkpt>
      <trkpt lat="45.57003" lon="5.73354">
        <ele>650</ele>
        <time>2019-10-27T14:18:45.000Z</time>
      </trkpt>
      <trkpt lat="45.57" lon="5.73354">
        <ele>650</ele>
        <time>2019-10-27T14:18:46.000Z</time>
      </trkpt>
      <trkpt lat="45.56998" lon="5.73354">
        <ele>650</ele>
        <time>2019-10-27T14:18:47.000Z</time>
      </trkpt>
      <trkpt lat="45.56997" lon="5.73355">
        <ele>650</ele>
        <time>2019-10-27T14:18:48.000Z</time>
      </trkpt>
      <trkpt lat="45.56996" lon="5.73355">
        <ele>650</ele>
        <time>2019-10-27T14:18:49.000Z</time>
      </trkpt>
      <trkpt lat="45.56995" lon="5.73355">
        <ele>650</ele>
        <time>2019-10-27T14:18:50.000Z</time>
      </trkpt>
      <trkpt lat="45.56995" lon="5.73356">
        <ele>650</ele>
        <time>2019-10-27T14:18:51.000Z</time>
      </trkpt>
      <trkpt lat="45.56994" lon="5.73356">
        <ele>650</ele>
        <time>2019-10-27T14:18:52.000Z</time>
      </trkpt>
      <trkpt lat="45.56994" lon="5.73355">
        <ele>650</ele>
        <time>2019-10-27T14:18:53.000Z</time>
      </trkpt>
      <trkpt lat="45.56993" lon="5.73355">
        <ele>650</ele>
        <time>2019-10-27T14:18:54.000Z</time>
      </trkpt>
      <trkpt lat="45.56993" lon="5.73354">
        <ele>650</ele>
        <time>2019-10-27T14:18:55.000Z</time>
      </trkpt>
      <trkpt lat="45.56993" lon="5.73353">
        <ele>650</ele>
        <time>2019-10-27T14:18:56.000Z</time>
      </trkpt>
      <trkpt lat="45.56993" lon="5.73352">
        <ele>650</ele>
        <time>2019-10-27T14:18:57.000Z</time>
      </trkpt>
      <trkpt lat="45.56993" lon="5.7335">
        <ele>650</ele>
        <time>2019-10-27T14:18:58.000Z</time>
      </trkpt>
      <trkpt lat="45.56993" lon="5.73349">
        <ele>650</ele>
        <time>2019-10-27T14:18:59.000Z</time>
      </trkpt>
      <trkpt lat="45.56994" lon="5.73347">
        <ele>650</ele>
        <time>2019-10-27T14:19:00.000Z</time>
      </trkpt>
      <trkpt lat="45.56994" lon="5.73346">
        <ele>650</ele>
        <time>2019-10-27T14:19:01.000Z</time>
      </trkpt>
      <trkpt lat="45.56994" lon="5.73344">
        <ele>650</ele>
        <time>2019-10-27T14:19:02.000Z</time>
      </trkpt>
      <trkpt lat="45.56994" lon="5.73343">
        <ele>650.5</ele>
        <time>2019-10-27T14:19:03.000Z</time>
      </trkpt>
      <trkpt lat="45.56995" lon="5.73341">
        <ele>651</ele>
        <time>2019-10-27T14:19:04.000Z</time>
      </trkpt>
      <trkpt lat="45.56995" lon="5.7334">
        <ele>651</ele>
        <time>2019-10-27T14:19:05.000Z</time>
      </trkpt>
      <trkpt lat="45.56995" lon="5.73338">
        <ele>651</ele>
        <time>2019-10-27T14:19:06.000Z</time>
      </trkpt>
      <trkpt lat="45.56995" lon="5.73337">
        <ele>651</ele>
        <time>2019-10-27T14:19:07.000Z</time>
      </trkpt>
      <trkpt lat="45.56995" lon="5.73335">
        <ele>651</ele>
        <time>2019-10-27T14:19:08.000Z</time>
      </trkpt>
      <trkpt lat="45.56995" lon="5.73333">
        <ele>651</ele>
        <time>2019-10-27T14:19:09.000Z</time>
      </trkpt>
      <trkpt lat="45.56995" lon="5.73332">
        <ele>651</ele>
        <time>2019-10-27T14:19:10.000Z</time>
      </trkpt>
      <trkpt lat="45.56995" lon="5.7333">
        <ele>651</ele>
        <time>2019-10-27T14:19:11.000Z</time>
      </trkpt>
      <trkpt lat="45.56995" lon="5.73328">
        <ele>651</ele>
        <time>2019-10-27T14:19:12.000Z</time>
      </trkpt>
      <trkpt lat="45.56995" lon="5.73325">
        <ele>651</ele>
        <time>2019-10-27T14:19:13.000Z</time>
      </trkpt>
      <trkpt lat="45.56995" lon="5.73323">
        <ele>651</ele>
        <time>2019-10-27T14:19:14.000Z</time>
      </trkpt>
      <trkpt lat="45.56995" lon="5.73321">
        <ele>651</ele>
        <time>2019-10-27T14:19:15.000Z</time>
      </trkpt>
      <trkpt lat="45.56995" lon="5.73318">
        <ele>651</ele>
        <time>2019-10-27T14:19:16.000Z</time>
      </trkpt>
      <trkpt lat="45.56995" lon="5.73316">
        <ele>651.3</ele>
        <time>2019-10-27T14:19:17.000Z</time>
      </trkpt>
      <trkpt lat="45.56994" lon="5.73314">
        <ele>651.7</ele>
        <time>2019-10-27T14:19:18.000Z</time>
      </trkpt>
      <trkpt lat="45.56993" lon="5.73311">
        <ele>652</ele>
        <time>2019-10-27T14:19:19.000Z</time>
      </trkpt>
      <trkpt lat="45.56993" lon="5.73309">
        <ele>653</ele>
        <time>2019-10-27T14:19:25.000Z</time>
      </trkpt>
      <trkpt lat="45.56992" lon="5.7331">
        <ele>653</ele>
        <time>2019-10-27T14:19:26.000Z</time>
      </trkpt>
      <trkpt lat="45.56992" lon="5.7331">
        <ele>653</ele>
        <time>2019-10-27T14:19:27.000Z</time>
      </trkpt>
      <trkpt lat="45.56991" lon="5.73309">
        <ele>653</ele>
        <time>2019-10-27T14:19:28.000Z</time>
      </trkpt>
      <trkpt lat="45.56991" lon="5.73309">
        <ele>653</ele>
        <time>2019-10-27T14:19:29.000Z</time>
      </trkpt>
      <trkpt lat="45.56991" lon="5.73308">
        <ele>653</ele>
        <time>2019-10-27T14:19:30.000Z</time>
      </trkpt>
      <trkpt lat="45.56991" lon="5.73306">
        <ele>653</ele>
        <time>2019-10-27T14:19:31.000Z</time>
      </trkpt>
      <trkpt lat="45.56991" lon="5.73305">
        <ele>653</ele>
        <time>2019-10-27T14:19:32.000Z</time>
      </trkpt>
      <trkpt lat="45.56991" lon="5.73304">
        <ele>653</ele>
        <time>2019-10-27T14:19:33.000Z</time>
      </trkpt>
      <trkpt lat="45.56991" lon="5.73303">
        <ele>653</ele>
        <time>2019-10-27T14:19:34.000Z</time>
      </trkpt>
      <trkpt lat="45.56992" lon="5.73302">
        <ele>653</ele>
        <time>2019-10-27T14:19:35.000Z</time>
      </trkpt>
      <trkpt lat="45.56992" lon="5.733">
        <ele>653</ele>
        <time>2019-10-27T14:19:36.000Z</time>
      </trkpt>
      <trkpt lat="45.56992" lon="5.73299">
        <ele>653</ele>
        <time>2019-10-27T14:19:37.000Z</time>
      </trkpt>
      <trkpt lat="45.56992" lon="5.73298">
        <ele>653</ele>
        <time>2019-10-27T14:19:38.000Z</time>
      </trkpt>
      <trkpt lat="45.56992" lon="5.73296">
        <ele>653</ele>
        <time>2019-10-27T14:19:39.000Z</time>
      </trkpt>
      <trkpt lat="45.56992" lon="5.73295">
        <ele>652</ele>
        <time>2019-10-27T14:19:40.000Z</time>
      </trkpt>
      <trkpt lat="45.56992" lon="5.73294">
        <ele>652</ele>
        <time>2019-10-27T14:19:41.000Z</time>
      </trkpt>
      <trkpt lat="45.56992" lon="5.73292">
        <ele>652</ele>
        <time>2019-10-27T14:19:42.000Z</time>
      </trkpt>
      <trkpt lat="45.56992" lon="5.73291">
        <ele>652</ele>
        <time>2019-10-27T14:19:43.000Z</time>
      </trkpt>
      <trkpt lat="45.56992" lon="5.73289">
        <ele>652</ele>
        <time>2019-10-27T14:19:44.000Z</time>
      </trkpt>
      <trkpt lat="45.56993" lon="5.73288">
        <ele>651.7</ele>
        <time>2019-10-27T14:19:45.000Z</time>
      </trkpt>
      <trkpt lat="45.56993" lon="5.73286">
        <ele>651.3</ele>
        <time>2019-10-27T14:19:46.000Z</time>
      </trkpt>
      <trkpt lat="45.56993" lon="5.73285">
        <ele>651</ele>
        <time>2019-10-27T14:19:47.000Z</time>
      </trkpt>
      <trkpt lat="45.56993" lon="5.73283">
        <ele>651</ele>
        <time>2019-10-27T14:19:48.000Z</time>
      </trkpt>
      <trkpt lat="45.56993" lon="5.73282">
        <ele>651</ele>
        <time>2019-10-27T14:19:49.000Z</time>
      </trkpt>
      <trkpt lat="45.56993" lon="5.7328">
        <ele>651</ele>
        <time>2019-10-27T14:19:50.000Z</time>
      </trkpt>
      <trkpt lat="45.56994" lon="5.73279">
        <ele>651</ele>
        <time>2019-10-27T14:19:51.000Z</time>
      </trkpt>
      <trkpt lat="45.56994" lon="5.73278">
        <ele>651</ele>
        <time>2019-10-27T14:19:52.000Z</time>
      </trkpt>
      <trkpt lat="45.56994" lon="5.73278">
        <ele>651</ele>
        <time>2019-10-27T14:19:53.000Z</time>
      </trkpt>
      <trkpt lat="45.56995" lon="5.73279">
        <ele>650.5</ele>
        <time>2019-10-27T14:19:54.000Z</time>
      </trkpt>
      <trkpt lat="45.56996" lon="5.73279">
        <ele>650</ele>
        <time>2019-10-27T14:19:55.000Z</time>
      </trkpt>
      <trkpt lat="45.56996" lon="5.73278">
        <ele>650</ele>
        <time>2019-10-27T14:19:56.000Z</time>
      </trkpt>
      <trkpt lat="45.56996" lon="5.73278">
        <ele>650</ele>
        <time>2019-10-27T14:19:57.000Z</time>
      </trkpt>
      <trkpt lat="45.56995" lon="5.73276">
        <ele>649</ele>
        <time>2019-10-27T14:19:58.000Z</time>
      </trkpt>
      <trkpt lat="45.56995" lon="5.73275">
        <ele>649</ele>
        <time>2019-10-27T14:19:59.000Z</time>
      </trkpt>
      <trkpt lat="45.56995" lon="5.73274">
        <ele>649</ele>
        <time>2019-10-27T14:20:00.000Z</time>
      </trkpt>
      <trkpt lat="45.56995" lon="5.73273">
        <ele>649</ele>
        <time>2019-10-27T14:20:01.000Z</time>
      </trkpt>
      <trkpt lat="45.56995" lon="5.73271">
        <ele>649</ele>
        <time>2019-10-27T14:20:02.000Z</time>
      </trkpt>
      <trkpt lat="45.56996" lon="5.7327">
        <ele>649</ele>
        <time>2019-10-27T14:20:03.000Z</time>
      </trkpt>
      <trkpt lat="45.56996" lon="5.73268">
        <ele>648.5</ele>
        <time>2019-10-27T14:20:04.000Z</time>
      </trkpt>
      <trkpt lat="45.56997" lon="5.73267">
        <ele>648</ele>
        <time>2019-10-27T14:20:05.000Z</time>
      </trkpt>
      <trkpt lat="45.56997" lon="5.73265">
        <ele>648</ele>
        <time>2019-10-27T14:20:06.000Z</time>
      </trkpt>
      <trkpt lat="45.56997" lon="5.73263">
        <ele>648</ele>
        <time>2019-10-27T14:20:07.000Z</time>
      </trkpt>
      <trkpt lat="45.56997" lon="5.73262">
        <ele>647</ele>
        <time>2019-10-27T14:20:08.000Z</time>
      </trkpt>
      <trkpt lat="45.56997" lon="5.7326">
        <ele>647</ele>
        <time>2019-10-27T14:20:09.000Z</time>
      </trkpt>
      <trkpt lat="45.56997" lon="5.73258">
        <ele>647</ele>
        <time>2019-10-27T14:20:10.000Z</time>
      </trkpt>
      <trkpt lat="45.56997" lon="5.73255">
        <ele>647</ele>
        <time>2019-10-27T14:20:11.000Z</time>
      </trkpt>
      <trkpt lat="45.56997" lon="5.73253">
        <ele>647</ele>
        <time>2019-10-27T14:20:12.000Z</time>
      </trkpt>
      <trkpt lat="45.56997" lon="5.73251">
        <ele>646</ele>
        <time>2019-10-27T14:20:13.000Z</time>
      </trkpt>
      <trkpt lat="45.56997" lon="5.73248">
        <ele>646</ele>
        <time>2019-10-27T14:20:14.000Z</time>
      </trkpt>
      <trkpt lat="45.56997" lon="5.73245">
        <ele>646</ele>
        <time>2019-10-27T14:20:15.000Z</time>
      </trkpt>
      <trkpt lat="45.56998" lon="5.73242">
        <ele>646</ele>
        <time>2019-10-27T14:20:16.000Z</time>
      </trkpt>
      <trkpt lat="45.56998" lon="5.7324">
        <ele>646</ele>
        <time>2019-10-27T14:20:17.000Z</time>
      </trkpt>
      <trkpt lat="45.56999" lon="5.73237">
        <ele>646</ele>
        <time>2019-10-27T14:20:18.000Z</time>
      </trkpt>
      <trkpt lat="45.57" lon="5.73235">
        <ele>645.5</ele>
        <time>2019-10-27T14:20:19.000Z</time>
      </trkpt>
      <trkpt lat="45.57" lon="5.73234">
        <ele>645</ele>
        <time>2019-10-27T14:20:20.000Z</time>
      </trkpt>
      <trkpt lat="45.57" lon="5.73233">
        <ele>645</ele>
        <time>2019-10-27T14:20:21.000Z</time>
      </trkpt>
      <trkpt lat="45.57" lon="5.73232">
        <ele>645</ele>
        <time>2019-10-27T14:20:22.000Z</time>
      </trkpt>
      <trkpt lat="45.57" lon="5.73231">
        <ele>644.5</ele>
        <time>2019-10-27T14:20:23.000Z</time>
      </trkpt>
      <trkpt lat="45.57" lon="5.7323">
        <ele>644</ele>
        <time>2019-10-27T14:20:24.000Z</time>
      </trkpt>
      <trkpt lat="45.57001" lon="5.73228">
        <ele>644</ele>
        <time>2019-10-27T14:20:25.000Z</time>
      </trkpt>
      <trkpt lat="45.57001" lon="5.73227">
        <ele>644</ele>
        <time>2019-10-27T14:20:26.000Z</time>
      </trkpt>
      <trkpt lat="45.57001" lon="5.73225">
        <ele>644</ele>
        <time>2019-10-27T14:20:27.000Z</time>
      </trkpt>
      <trkpt lat="45.57001" lon="5.73224">
        <ele>644</ele>
        <time>2019-10-27T14:20:28.000Z</time>
      </trkpt>
      <trkpt lat="45.57" lon="5.73224">
        <ele>644</ele>
        <time>2019-10-27T14:20:29.000Z</time>
      </trkpt>
      <trkpt lat="45.56999" lon="5.73223">
        <ele>644</ele>
        <time>2019-10-27T14:20:30.000Z</time>
      </trkpt>
      <trkpt lat="45.56999" lon="5.73223">
        <ele>644</ele>
        <time>2019-10-27T14:20:31.000Z</time>
      </trkpt>
      <trkpt lat="45.56998" lon="5.73222">
        <ele>643.5</ele>
        <time>2019-10-27T14:20:32.000Z</time>
      </trkpt>
      <trkpt lat="45.56998" lon="5.73221">
        <ele>643</ele>
        <time>2019-10-27T14:20:33.000Z</time>
      </trkpt>
      <trkpt lat="45.56998" lon="5.7322">
        <ele>643</ele>
        <time>2019-10-27T14:20:34.000Z</time>
      </trkpt>
      <trkpt lat="45.56998" lon="5.73219">
        <ele>643</ele>
        <time>2019-10-27T14:20:35.000Z</time>
      </trkpt>
      <trkpt lat="45.56999" lon="5.73218">
        <ele>643</ele>
        <time>2019-10-27T14:20:36.000Z</time>
      </trkpt>
      <trkpt lat="45.57" lon="5.73217">
        <ele>643</ele>
        <time>2019-10-27T14:20:37.000Z</time>
      </trkpt>
      <trkpt lat="45.57" lon="5.73216">
        <ele>642.5</ele>
        <time>2019-10-27T14:20:38.000Z</time>
      </trkpt>
      <trkpt lat="45.57001" lon="5.73214">
        <ele>642</ele>
        <time>2019-10-27T14:20:39.000Z</time>
      </trkpt>
      <trkpt lat="45.57001" lon="5.73213">
        <ele>642</ele>
        <time>2019-10-27T14:20:40.000Z</time>
      </trkpt>
      <trkpt lat="45.57001" lon="5.73212">
        <ele>642</ele>
        <time>2019-10-27T14:20:41.000Z</time>
      </trkpt>
      <trkpt lat="45.57001" lon="5.73211">
        <ele>642</ele>
        <time>2019-10-27T14:20:42.000Z</time>
      </trkpt>
      <trkpt lat="45.57001" lon="5.73211">
        <ele>642</ele>
        <time>2019-10-27T14:20:43.000Z</time>
      </trkpt>
      <trkpt lat="45.57" lon="5.7321">
        <ele>641.5</ele>
        <time>2019-10-27T14:20:44.000Z</time>
      </trkpt>
      <trkpt lat="45.57" lon="5.7321">
        <ele>641</ele>
        <time>2019-10-27T14:20:45.000Z</time>
      </trkpt>
      <trkpt lat="45.56999" lon="5.73209">
        <ele>641</ele>
        <time>2019-10-27T14:20:46.000Z</time>
      </trkpt>
      <trkpt lat="45.56999" lon="5.73209">
        <ele>641</ele>
        <time>2019-10-27T14:20:47.000Z</time>
      </trkpt>
      <trkpt lat="45.56998" lon="5.73209">
        <ele>641</ele>
        <time>2019-10-27T14:20:48.000Z</time>
      </trkpt>
      <trkpt lat="45.56998" lon="5.73209">
        <ele>641</ele>
        <time>2019-10-27T14:20:49.000Z</time>
      </trkpt>
      <trkpt lat="45.56998" lon="5.73209">
        <ele>641</ele>
        <time>2019-10-27T14:20:50.000Z</time>
      </trkpt>
      <trkpt lat="45.56998" lon="5.73209">
        <ele>641</ele>
        <time>2019-10-27T14:20:51.000Z</time>
      </trkpt>
      <trkpt lat="45.56996" lon="5.73209">
        <ele>641</ele>
        <time>2019-10-27T14:20:52.000Z</time>
      </trkpt>
      <trkpt lat="45.56993" lon="5.7321">
        <ele>641</ele>
        <time>2019-10-27T14:20:53.000Z</time>
      </trkpt>
      <trkpt lat="45.56988" lon="5.73212">
        <ele>640.5</ele>
        <time>2019-10-27T14:20:54.000Z</time>
      </trkpt>
      <trkpt lat="45.56983" lon="5.73213">
        <ele>640</ele>
        <time>2019-10-27T14:20:55.000Z</time>
      </trkpt>
      <trkpt lat="45.56981" lon="5.73215">
        <ele>640</ele>
        <time>2019-10-27T14:20:56.000Z</time>
      </trkpt>
      <trkpt lat="45.5698" lon="5.73215">
        <ele>640</ele>
        <time>2019-10-27T14:20:57.000Z</time>
      </trkpt>
      <trkpt lat="45.5698" lon="5.73215">
        <ele>640</ele>
        <time>2019-10-27T14:20:58.000Z</time>
      </trkpt>
      <trkpt lat="45.5698" lon="5.73215">
        <ele>640</ele>
        <time>2019-10-27T14:20:59.000Z</time>
      </trkpt>
      <trkpt lat="45.5698" lon="5.73215">
        <ele>640</ele>
        <time>2019-10-27T14:21:00.000Z</time>
      </trkpt>
      <trkpt lat="45.5698" lon="5.73215">
        <ele>640</ele>
        <time>2019-10-27T14:21:01.000Z</time>
      </trkpt>
      <trkpt lat="45.5698" lon="5.73215">
        <ele>640</ele>
        <time>2019-10-27T14:21:02.000Z</time>
      </trkpt>
      <trkpt lat="45.5698" lon="5.73215">
        <ele>640</ele>
        <time>2019-10-27T14:21:03.000Z</time>
      </trkpt>
      <trkpt lat="45.5698" lon="5.73216">
        <ele>640</ele>
        <time>2019-10-27T14:21:04.000Z</time>
      </trkpt>
      <trkpt lat="45.5698" lon="5.73216">
        <ele>640</ele>
        <time>2019-10-27T14:21:05.000Z</time>
      </trkpt>
      <trkpt lat="45.56979" lon="5.73216">
        <ele>640</ele>
        <time>2019-10-27T14:21:06.000Z</time>
      </trkpt>
      <trkpt lat="45.56979" lon="5.73215">
        <ele>640</ele>
        <time>2019-10-27T14:21:07.000Z</time>
      </trkpt>
      <trkpt lat="45.56978" lon="5.73215">
        <ele>640</ele>
        <time>2019-10-27T14:21:08.000Z</time>
      </trkpt>
      <trkpt lat="45.56978" lon="5.73214">
        <ele>640</ele>
        <time>2019-10-27T14:21:09.000Z</time>
      </trkpt>
      <trkpt lat="45.56977" lon="5.73214">
        <ele>640</ele>
        <time>2019-10-27T14:21:10.000Z</time>
      </trkpt>
      <trkpt lat="45.56977" lon="5.73213">
        <ele>640</ele>
        <time>2019-10-27T14:21:11.000Z</time>
      </trkpt>
      <trkpt lat="45.56976" lon="5.73212">
        <ele>640</ele>
        <time>2019-10-27T14:21:12.000Z</time>
      </trkpt>
      <trkpt lat="45.56976" lon="5.73212">
        <ele>639.5</ele>
        <time>2019-10-27T14:21:13.000Z</time>
      </trkpt>
      <trkpt lat="45.56975" lon="5.73211">
        <ele>639</ele>
        <time>2019-10-27T14:21:14.000Z</time>
      </trkpt>
      <trkpt lat="45.56975" lon="5.7321">
        <ele>639</ele>
        <time>2019-10-27T14:21:15.000Z</time>
      </trkpt>
      <trkpt lat="45.56974" lon="5.7321">
        <ele>639</ele>
        <time>2019-10-27T14:21:16.000Z</time>
      </trkpt>
      <trkpt lat="45.56974" lon="5.73209">
        <ele>639</ele>
        <time>2019-10-27T14:21:17.000Z</time>
      </trkpt>
      <trkpt lat="45.56974" lon="5.73209">
        <ele>639</ele>
        <time>2019-10-27T14:21:18.000Z</time>
      </trkpt>
      <trkpt lat="45.56973" lon="5.73209">
        <ele>639</ele>
        <time>2019-10-27T14:21:19.000Z</time>
      </trkpt>
      <trkpt lat="45.56973" lon="5.73208">
        <ele>638.7</ele>
        <time>2019-10-27T14:21:20.000Z</time>
      </trkpt>
      <trkpt lat="45.56973" lon="5.73208">
        <ele>638.3</ele>
        <time>2019-10-27T14:21:21.000Z</time>
      </trkpt>
      <trkpt lat="45.56973" lon="5.73208">
        <ele>638</ele>
        <time>2019-10-27T14:21:22.000Z</time>
      </trkpt>
      <trkpt lat="45.56972" lon="5.73208">
        <ele>638</ele>
        <time>2019-10-27T14:21:23.000Z</time>
      </trkpt>
      <trkpt lat="45.56972" lon="5.73207">
        <ele>638</ele>
        <time>2019-10-27T14:21:24.000Z</time>
      </trkpt>
      <trkpt lat="45.56972" lon="5.73207">
        <ele>638</ele>
        <time>2019-10-27T14:21:25.000Z</time>
      </trkpt>
      <trkpt lat="45.56971" lon="5.73207">
        <ele>638</ele>
        <time>2019-10-27T14:21:26.000Z</time>
      </trkpt>
      <trkpt lat="45.56971" lon="5.73206">
        <ele>638</ele>
        <time>2019-10-27T14:21:27.000Z</time>
      </trkpt>
      <trkpt lat="45.56971" lon="5.73206">
        <ele>637.7</ele>
        <time>2019-10-27T14:21:28.000Z</time>
      </trkpt>
      <trkpt lat="45.56971" lon="5.73205">
        <ele>637.3</ele>
        <time>2019-10-27T14:21:29.000Z</time>
      </trkpt>
      <trkpt lat="45.5697" lon="5.73205">
        <ele>637</ele>
        <time>2019-10-27T14:21:30.000Z</time>
      </trkpt>
      <trkpt lat="45.5697" lon="5.73204">
        <ele>637</ele>
        <time>2019-10-27T14:21:31.000Z</time>
      </trkpt>
      <trkpt lat="45.5697" lon="5.73204">
        <ele>637</ele>
        <time>2019-10-27T14:21:32.000Z</time>
      </trkpt>
      <trkpt lat="45.5697" lon="5.73204">
        <ele>637</ele>
        <time>2019-10-27T14:21:33.000Z</time>
      </trkpt>
      <trkpt lat="45.56969" lon="5.73204">
        <ele>636.7</ele>
        <time>2019-10-27T14:21:34.000Z</time>
      </trkpt>
      <trkpt lat="45.56969" lon="5.73204">
        <ele>636.3</ele>
        <time>2019-10-27T14:21:35.000Z</time>
      </trkpt>
      <trkpt lat="45.56969" lon="5.73204">
        <ele>636</ele>
        <time>2019-10-27T14:21:36.000Z</time>
      </trkpt>
      <trkpt lat="45.56969" lon="5.73204">
        <ele>636</ele>
        <time>2019-10-27T14:21:37.000Z</time>
      </trkpt>
      <trkpt lat="45.56968" lon="5.73204">
        <ele>636</ele>
        <time>2019-10-27T14:21:38.000Z</time>
      </trkpt>
      <trkpt lat="45.56968" lon="5.73204">
        <ele>636</ele>
        <time>2019-10-27T14:21:39.000Z</time>
      </trkpt>
      <trkpt lat="45.56967" lon="5.73205">
        <ele>635.7</ele>
        <time>2019-10-27T14:21:40.000Z</time>
      </trkpt>
      <trkpt lat="45.56967" lon="5.73205">
        <ele>635.3</ele>
        <time>2019-10-27T14:21:41.000Z</time>
      </trkpt>
      <trkpt lat="45.56967" lon="5.73206">
        <ele>635</ele>
        <time>2019-10-27T14:21:42.000Z</time>
      </trkpt>
      <trkpt lat="45.56966" lon="5.73207">
        <ele>635</ele>
        <time>2019-10-27T14:21:43.000Z</time>
      </trkpt>
      <trkpt lat="45.56966" lon="5.73207">
        <ele>635</ele>
        <time>2019-10-27T14:21:44.000Z</time>
      </trkpt>
      <trkpt lat="45.56965" lon="5.73208">
        <ele>634</ele>
        <time>2019-10-27T14:21:45.000Z</time>
      </trkpt>
      <trkpt lat="45.56964" lon="5.73209">
        <ele>634</ele>
        <time>2019-10-27T14:21:46.000Z</time>
      </trkpt>
      <trkpt lat="45.56964" lon="5.73209">
        <ele>634</ele>
        <time>2019-10-27T14:21:47.000Z</time>
      </trkpt>
      <trkpt lat="45.56963" lon="5.7321">
        <ele>634</ele>
        <time>2019-10-27T14:21:48.000Z</time>
      </trkpt>
      <trkpt lat="45.56962" lon="5.73211">
        <ele>634</ele>
        <time>2019-10-27T14:21:49.000Z</time>
      </trkpt>
      <trkpt lat="45.56962" lon="5.73212">
        <ele>633.7</ele>
        <time>2019-10-27T14:21:50.000Z</time>
      </trkpt>
      <trkpt lat="45.56961" lon="5.73213">
        <ele>633.3</ele>
        <time>2019-10-27T14:21:51.000Z</time>
      </trkpt>
      <trkpt lat="45.5696" lon="5.73213">
        <ele>633</ele>
        <time>2019-10-27T14:21:52.000Z</time>
      </trkpt>
      <trkpt lat="45.56959" lon="5.73214">
        <ele>633</ele>
        <time>2019-10-27T14:21:53.000Z</time>
      </trkpt>
      <trkpt lat="45.56958" lon="5.73215">
        <ele>633</ele>
        <time>2019-10-27T14:21:54.000Z</time>
      </trkpt>
      <trkpt lat="45.56957" lon="5.73216">
        <ele>633</ele>
        <time>2019-10-27T14:21:55.000Z</time>
      </trkpt>
      <trkpt lat="45.56956" lon="5.73217">
        <ele>633</ele>
        <time>2019-10-27T14:21:56.000Z</time>
      </trkpt>
      <trkpt lat="45.56955" lon="5.73217">
        <ele>633</ele>
        <time>2019-10-27T14:21:57.000Z</time>
      </trkpt>
      <trkpt lat="45.56954" lon="5.73218">
        <ele>632.7</ele>
        <time>2019-10-27T14:21:58.000Z</time>
      </trkpt>
      <trkpt lat="45.56953" lon="5.73219">
        <ele>632.3</ele>
        <time>2019-10-27T14:21:59.000Z</time>
      </trkpt>
      <trkpt lat="45.56952" lon="5.7322">
        <ele>632</ele>
        <time>2019-10-27T14:22:00.000Z</time>
      </trkpt>
      <trkpt lat="45.56951" lon="5.73221">
        <ele>632</ele>
        <time>2019-10-27T14:22:01.000Z</time>
      </trkpt>
      <trkpt lat="45.56949" lon="5.73222">
        <ele>632</ele>
        <time>2019-10-27T14:22:02.000Z</time>
      </trkpt>
      <trkpt lat="45.56948" lon="5.73224">
        <ele>632</ele>
        <time>2019-10-27T14:22:03.000Z</time>
      </trkpt>
      <trkpt lat="45.56946" lon="5.73225">
        <ele>632</ele>
        <time>2019-10-27T14:22:04.000Z</time>
      </trkpt>
      <trkpt lat="45.56945" lon="5.73226">
        <ele>632</ele>
        <time>2019-10-27T14:22:05.000Z</time>
      </trkpt>
      <trkpt lat="45.56943" lon="5.73227">
        <ele>632</ele>
        <time>2019-10-27T14:22:06.000Z</time>
      </trkpt>
      <trkpt lat="45.56942" lon="5.73229">
        <ele>632</ele>
        <time>2019-10-27T14:22:07.000Z</time>
      </trkpt>
      <trkpt lat="45.5694" lon="5.7323">
        <ele>631.7</ele>
        <time>2019-10-27T14:22:08.000Z</time>
      </trkpt>
      <trkpt lat="45.56939" lon="5.73232">
        <ele>631.3</ele>
        <time>2019-10-27T14:22:09.000Z</time>
      </trkpt>
      <trkpt lat="45.56937" lon="5.73233">
        <ele>631</ele>
        <time>2019-10-27T14:22:10.000Z</time>
      </trkpt>
      <trkpt lat="45.56935" lon="5.73235">
        <ele>631</ele>
        <time>2019-10-27T14:22:11.000Z</time>
      </trkpt>
      <trkpt lat="45.56934" lon="5.73236">
        <ele>631</ele>
        <time>2019-10-27T14:22:12.000Z</time>
      </trkpt>
      <trkpt lat="45.56932" lon="5.73237">
        <ele>631</ele>
        <time>2019-10-27T14:22:13.000Z</time>
      </trkpt>
      <trkpt lat="45.56931" lon="5.73239">
        <ele>631</ele>
        <time>2019-10-27T14:22:14.000Z</time>
      </trkpt>
      <trkpt lat="45.5693" lon="5.7324">
        <ele>631</ele>
        <time>2019-10-27T14:22:15.000Z</time>
      </trkpt>
      <trkpt lat="45.56929" lon="5.73241">
        <ele>631</ele>
        <time>2019-10-27T14:22:16.000Z</time>
      </trkpt>
      <trkpt lat="45.56928" lon="5.73241">
        <ele>630</ele>
        <time>2019-10-27T14:22:17.000Z</time>
      </trkpt>
      <trkpt lat="45.56927" lon="5.73242">
        <ele>630</ele>
        <time>2019-10-27T14:22:18.000Z</time>
      </trkpt>
      <trkpt lat="45.56926" lon="5.73242">
        <ele>630</ele>
        <time>2019-10-27T14:22:19.000Z</time>
      </trkpt>
      <trkpt lat="45.56925" lon="5.73243">
        <ele>630</ele>
        <time>2019-10-27T14:22:20.000Z</time>
      </trkpt>
      <trkpt lat="45.56925" lon="5.73243">
        <ele>630</ele>
        <time>2019-10-27T14:22:21.000Z</time>
      </trkpt>
      <trkpt lat="45.56924" lon="5.73243">
        <ele>630</ele>
        <time>2019-10-27T14:22:22.000Z</time>
      </trkpt>
      <trkpt lat="45.56923" lon="5.73243">
        <ele>630</ele>
        <time>2019-10-27T14:22:23.000Z</time>
      </trkpt>
      <trkpt lat="45.56923" lon="5.73243">
        <ele>630</ele>
        <time>2019-10-27T14:22:24.000Z</time>
      </trkpt>
      <trkpt lat="45.56922" lon="5.73243">
        <ele>630</ele>
        <time>2019-10-27T14:22:25.000Z</time>
      </trkpt>
      <trkpt lat="45.56922" lon="5.73243">
        <ele>630</ele>
        <time>2019-10-27T14:22:26.000Z</time>
      </trkpt>
      <trkpt lat="45.56921" lon="5.73243">
        <ele>630</ele>
        <time>2019-10-27T14:22:27.000Z</time>
      </trkpt>
      <trkpt lat="45.56921" lon="5.73243">
        <ele>630</ele>
        <time>2019-10-27T14:22:28.000Z</time>
      </trkpt>
      <trkpt lat="45.56921" lon="5.73242">
        <ele>630</ele>
        <time>2019-10-27T14:22:29.000Z</time>
      </trkpt>
      <trkpt lat="45.56921" lon="5.73242">
        <ele>630</ele>
        <time>2019-10-27T14:22:30.000Z</time>
      </trkpt>
      <trkpt lat="45.56921" lon="5.73241">
        <ele>630</ele>
        <time>2019-10-27T14:22:31.000Z</time>
      </trkpt>
      <trkpt lat="45.56921" lon="5.7324">
        <ele>630</ele>
        <time>2019-10-27T14:22:32.000Z</time>
      </trkpt>
      <trkpt lat="45.56921" lon="5.7324">
        <ele>630</ele>
        <time>2019-10-27T14:22:33.000Z</time>
      </trkpt>
      <trkpt lat="45.5692" lon="5.7324">
        <ele>630</ele>
        <time>2019-10-27T14:22:34.000Z</time>
      </trkpt>
      <trkpt lat="45.56919" lon="5.7324">
        <ele>630</ele>
        <time>2019-10-27T14:22:35.000Z</time>
      </trkpt>
      <trkpt lat="45.56918" lon="5.7324">
        <ele>630</ele>
        <time>2019-10-27T14:22:36.000Z</time>
      </trkpt>
      <trkpt lat="45.56918" lon="5.73239">
        <ele>630</ele>
        <time>2019-10-27T14:22:37.000Z</time>
      </trkpt>
      <trkpt lat="45.56918" lon="5.73238">
        <ele>630</ele>
        <time>2019-10-27T14:22:38.000Z</time>
      </trkpt>
      <trkpt lat="45.56918" lon="5.73236">
        <ele>630</ele>
        <time>2019-10-27T14:22:39.000Z</time>
      </trkpt>
      <trkpt lat="45.56918" lon="5.73235">
        <ele>630</ele>
        <time>2019-10-27T14:22:40.000Z</time>
      </trkpt>
      <trkpt lat="45.56918" lon="5.73234">
        <ele>630</ele>
        <time>2019-10-27T14:22:41.000Z</time>
      </trkpt>
      <trkpt lat="45.56919" lon="5.73233">
        <ele>630</ele>
        <time>2019-10-27T14:22:42.000Z</time>
      </trkpt>
      <trkpt lat="45.56919" lon="5.73233">
        <ele>630</ele>
        <time>2019-10-27T14:22:43.000Z</time>
      </trkpt>
      <trkpt lat="45.56919" lon="5.73233">
        <ele>630</ele>
        <time>2019-10-27T14:22:44.000Z</time>
      </trkpt>
      <trkpt lat="45.56918" lon="5.73233">
        <ele>630</ele>
        <time>2019-10-27T14:22:45.000Z</time>
      </trkpt>
      <trkpt lat="45.56918" lon="5.73233">
        <ele>630</ele>
        <time>2019-10-27T14:22:46.000Z</time>
      </trkpt>
      <trkpt lat="45.56918" lon="5.73233">
        <ele>630</ele>
        <time>2019-10-27T14:22:47.000Z</time>
      </trkpt>
      <trkpt lat="45.56918" lon="5.73233">
        <ele>630</ele>
        <time>2019-10-27T14:22:48.000Z</time>
      </trkpt>
      <trkpt lat="45.56918" lon="5.73233">
        <ele>630</ele>
        <time>2019-10-27T14:22:49.000Z</time>
      </trkpt>
      <trkpt lat="45.56918" lon="5.73233">
        <ele>630</ele>
        <time>2019-10-27T14:22:50.000Z</time>
      </trkpt>
      <trkpt lat="45.56918" lon="5.73234">
        <ele>630</ele>
        <time>2019-10-27T14:22:51.000Z</time>
      </trkpt>
      <trkpt lat="45.56918" lon="5.73234">
        <ele>630</ele>
        <time>2019-10-27T14:22:52.000Z</time>
      </trkpt>
      <trkpt lat="45.56918" lon="5.73234">
        <ele>630</ele>
        <time>2019-10-27T14:22:53.000Z</time>
      </trkpt>
      <trkpt lat="45.56918" lon="5.73235">
        <ele>630</ele>
        <time>2019-10-27T14:22:54.000Z</time>
      </trkpt>
      <trkpt lat="45.56918" lon="5.73236">
        <ele>630</ele>
        <time>2019-10-27T14:22:55.000Z</time>
      </trkpt>
      <trkpt lat="45.56918" lon="5.73236">
        <ele>630</ele>
        <time>2019-10-27T14:22:56.000Z</time>
      </trkpt>
      <trkpt lat="45.56918" lon="5.73237">
        <ele>629</ele>
        <time>2019-10-27T14:22:57.000Z</time>
      </trkpt>
      <trkpt lat="45.56918" lon="5.73238">
        <ele>629</ele>
        <time>2019-10-27T14:22:58.000Z</time>
      </trkpt>
      <trkpt lat="45.56918" lon="5.73238">
        <ele>629</ele>
        <time>2019-10-27T14:22:59.000Z</time>
      </trkpt>
      <trkpt lat="45.56919" lon="5.73239">
        <ele>629</ele>
        <time>2019-10-27T14:23:00.000Z</time>
      </trkpt>
      <trkpt lat="45.56919" lon="5.7324">
        <ele>629</ele>
        <time>2019-10-27T14:23:01.000Z</time>
      </trkpt>
      <trkpt lat="45.56919" lon="5.7324">
        <ele>629</ele>
        <time>2019-10-27T14:23:02.000Z</time>
      </trkpt>
      <trkpt lat="45.56919" lon="5.73241">
        <ele>628.5</ele>
        <time>2019-10-27T14:23:03.000Z</time>
      </trkpt>
      <trkpt lat="45.56919" lon="5.73241">
        <ele>628</ele>
        <time>2019-10-27T14:23:04.000Z</time>
      </trkpt>
      <trkpt lat="45.5692" lon="5.73242">
        <ele>628</ele>
        <time>2019-10-27T14:23:05.000Z</time>
      </trkpt>
      <trkpt lat="45.5692" lon="5.73242">
        <ele>628</ele>
        <time>2019-10-27T14:23:06.000Z</time>
      </trkpt>
      <trkpt lat="45.5692" lon="5.73243">
        <ele>628</ele>
        <time>2019-10-27T14:23:07.000Z</time>
      </trkpt>
      <trkpt lat="45.5692" lon="5.73243">
        <ele>627.5</ele>
        <time>2019-10-27T14:23:08.000Z</time>
      </trkpt>
      <trkpt lat="45.5692" lon="5.73244">
        <ele>627</ele>
        <time>2019-10-27T14:23:09.000Z</time>
      </trkpt>
      <trkpt lat="45.5692" lon="5.73244">
        <ele>627</ele>
        <time>2019-10-27T14:23:10.000Z</time>
      </trkpt>
      <trkpt lat="45.56919" lon="5.73245">
        <ele>627</ele>
        <time>2019-10-27T14:23:11.000Z</time>
      </trkpt>
      <trkpt lat="45.56919" lon="5.73245">
        <ele>626.5</ele>
        <time>2019-10-27T14:23:12.000Z</time>
      </trkpt>
      <trkpt lat="45.56919" lon="5.73246">
        <ele>626</ele>
        <time>2019-10-27T14:23:13.000Z</time>
      </trkpt>
      <trkpt lat="45.56918" lon="5.73246">
        <ele>626</ele>
        <time>2019-10-27T14:23:14.000Z</time>
      </trkpt>
      <trkpt lat="45.56917" lon="5.73247">
        <ele>625.7</ele>
        <time>2019-10-27T14:23:15.000Z</time>
      </trkpt>
      <trkpt lat="45.56917" lon="5.73248">
        <ele>625.3</ele>
        <time>2019-10-27T14:23:16.000Z</time>
      </trkpt>
      <trkpt lat="45.56916" lon="5.73248">
        <ele>625</ele>
        <time>2019-10-27T14:23:17.000Z</time>
      </trkpt>
      <trkpt lat="45.56915" lon="5.73249">
        <ele>625</ele>
        <time>2019-10-27T14:23:18.000Z</time>
      </trkpt>
      <trkpt lat="45.56914" lon="5.73249">
        <ele>624.7</ele>
        <time>2019-10-27T14:23:19.000Z</time>
      </trkpt>
      <trkpt lat="45.56913" lon="5.7325">
        <ele>624.3</ele>
        <time>2019-10-27T14:23:20.000Z</time>
      </trkpt>
      <trkpt lat="45.56912" lon="5.7325">
        <ele>624</ele>
        <time>2019-10-27T14:23:21.000Z</time>
      </trkpt>
      <trkpt lat="45.56911" lon="5.73251">
        <ele>624</ele>
        <time>2019-10-27T14:23:22.000Z</time>
      </trkpt>
      <trkpt lat="45.5691" lon="5.73251">
        <ele>624</ele>
        <time>2019-10-27T14:23:23.000Z</time>
      </trkpt>
      <trkpt lat="45.5691" lon="5.73251">
        <ele>623</ele>
        <time>2019-10-27T14:23:24.000Z</time>
      </trkpt>
      <trkpt lat="45.56909" lon="5.7325">
        <ele>623</ele>
        <time>2019-10-27T14:23:25.000Z</time>
      </trkpt>
      <trkpt lat="45.56909" lon="5.73249">
        <ele>623</ele>
        <time>2019-10-27T14:23:26.000Z</time>
      </trkpt>
      <trkpt lat="45.56908" lon="5.73248">
        <ele>623</ele>
        <time>2019-10-27T14:23:27.000Z</time>
      </trkpt>
      <trkpt lat="45.56907" lon="5.73248">
        <ele>623</ele>
        <time>2019-10-27T14:23:28.000Z</time>
      </trkpt>
      <trkpt lat="45.56906" lon="5.73247">
        <ele>623</ele>
        <time>2019-10-27T14:23:29.000Z</time>
      </trkpt>
      <trkpt lat="45.56905" lon="5.73248">
        <ele>623</ele>
        <time>2019-10-27T14:23:30.000Z</time>
      </trkpt>
      <trkpt lat="45.56903" lon="5.73249">
        <ele>622.7</ele>
        <time>2019-10-27T14:23:31.000Z</time>
      </trkpt>
      <trkpt lat="45.56902" lon="5.7325">
        <ele>622.3</ele>
        <time>2019-10-27T14:23:32.000Z</time>
      </trkpt>
      <trkpt lat="45.569" lon="5.73251">
        <ele>622</ele>
        <time>2019-10-27T14:23:33.000Z</time>
      </trkpt>
      <trkpt lat="45.56898" lon="5.73252">
        <ele>622</ele>
        <time>2019-10-27T14:23:34.000Z</time>
      </trkpt>
      <trkpt lat="45.56897" lon="5.73253">
        <ele>622</ele>
        <time>2019-10-27T14:23:35.000Z</time>
      </trkpt>
      <trkpt lat="45.56895" lon="5.73253">
        <ele>622</ele>
        <time>2019-10-27T14:23:36.000Z</time>
      </trkpt>
      <trkpt lat="45.56894" lon="5.73253">
        <ele>622</ele>
        <time>2019-10-27T14:23:37.000Z</time>
      </trkpt>
      <trkpt lat="45.56893" lon="5.73253">
        <ele>621</ele>
        <time>2019-10-27T14:23:38.000Z</time>
      </trkpt>
      <trkpt lat="45.56891" lon="5.73253">
        <ele>621</ele>
        <time>2019-10-27T14:23:39.000Z</time>
      </trkpt>
      <trkpt lat="45.5689" lon="5.73252">
        <ele>621</ele>
        <time>2019-10-27T14:23:40.000Z</time>
      </trkpt>
      <trkpt lat="45.56889" lon="5.73252">
        <ele>621</ele>
        <time>2019-10-27T14:23:41.000Z</time>
      </trkpt>
      <trkpt lat="45.56887" lon="5.73251">
        <ele>621</ele>
        <time>2019-10-27T14:23:42.000Z</time>
      </trkpt>
      <trkpt lat="45.56886" lon="5.73251">
        <ele>621</ele>
        <time>2019-10-27T14:23:43.000Z</time>
      </trkpt>
      <trkpt lat="45.56885" lon="5.7325">
        <ele>621</ele>
        <time>2019-10-27T14:23:44.000Z</time>
      </trkpt>
      <trkpt lat="45.56884" lon="5.7325">
        <ele>621</ele>
        <time>2019-10-27T14:23:45.000Z</time>
      </trkpt>
      <trkpt lat="45.56883" lon="5.73249">
        <ele>620.5</ele>
        <time>2019-10-27T14:23:46.000Z</time>
      </trkpt>
      <trkpt lat="45.56881" lon="5.73249">
        <ele>620</ele>
        <time>2019-10-27T14:23:47.000Z</time>
      </trkpt>
      <trkpt lat="45.5688" lon="5.73248">
        <ele>620</ele>
        <time>2019-10-27T14:23:48.000Z</time>
      </trkpt>
      <trkpt lat="45.56878" lon="5.73248">
        <ele>620</ele>
        <time>2019-10-27T14:23:49.000Z</time>
      </trkpt>
      <trkpt lat="45.56877" lon="5.73248">
        <ele>620</ele>
        <time>2019-10-27T14:23:50.000Z</time>
      </trkpt>
      <trkpt lat="45.56875" lon="5.73248">
        <ele>620</ele>
        <time>2019-10-27T14:23:51.000Z</time>
      </trkpt>
      <trkpt lat="45.56874" lon="5.73248">
        <ele>620</ele>
        <time>2019-10-27T14:23:52.000Z</time>
      </trkpt>
      <trkpt lat="45.56872" lon="5.73249">
        <ele>620</ele>
        <time>2019-10-27T14:23:53.000Z</time>
      </trkpt>
      <trkpt lat="45.5687" lon="5.73249">
        <ele>620</ele>
        <time>2019-10-27T14:23:54.000Z</time>
      </trkpt>
      <trkpt lat="45.56869" lon="5.73249">
        <ele>620</ele>
        <time>2019-10-27T14:23:55.000Z</time>
      </trkpt>
      <trkpt lat="45.56867" lon="5.7325">
        <ele>620</ele>
        <time>2019-10-27T14:23:56.000Z</time>
      </trkpt>
      <trkpt lat="45.56866" lon="5.7325">
        <ele>620</ele>
        <time>2019-10-27T14:23:57.000Z</time>
      </trkpt>
      <trkpt lat="45.56865" lon="5.7325">
        <ele>620</ele>
        <time>2019-10-27T14:23:58.000Z</time>
      </trkpt>
      <trkpt lat="45.56864" lon="5.73249">
        <ele>620</ele>
        <time>2019-10-27T14:23:59.000Z</time>
      </trkpt>
      <trkpt lat="45.56863" lon="5.73249">
        <ele>619.5</ele>
        <time>2019-10-27T14:24:00.000Z</time>
      </trkpt>
      <trkpt lat="45.56862" lon="5.73248">
        <ele>619</ele>
        <time>2019-10-27T14:24:01.000Z</time>
      </trkpt>
      <trkpt lat="45.56862" lon="5.73247">
        <ele>619</ele>
        <time>2019-10-27T14:24:02.000Z</time>
      </trkpt>
      <trkpt lat="45.56861" lon="5.73246">
        <ele>619</ele>
        <time>2019-10-27T14:24:03.000Z</time>
      </trkpt>
      <trkpt lat="45.56861" lon="5.73245">
        <ele>619</ele>
        <time>2019-10-27T14:24:04.000Z</time>
      </trkpt>
      <trkpt lat="45.5686" lon="5.73244">
        <ele>619</ele>
        <time>2019-10-27T14:24:05.000Z</time>
      </trkpt>
      <trkpt lat="45.5686" lon="5.73243">
        <ele>619</ele>
        <time>2019-10-27T14:24:06.000Z</time>
      </trkpt>
      <trkpt lat="45.56859" lon="5.73243">
        <ele>619</ele>
        <time>2019-10-27T14:24:07.000Z</time>
      </trkpt>
      <trkpt lat="45.56857" lon="5.73243">
        <ele>619</ele>
        <time>2019-10-27T14:24:08.000Z</time>
      </trkpt>
      <trkpt lat="45.56856" lon="5.73243">
        <ele>619</ele>
        <time>2019-10-27T14:24:09.000Z</time>
      </trkpt>
      <trkpt lat="45.56854" lon="5.73243">
        <ele>619</ele>
        <time>2019-10-27T14:24:10.000Z</time>
      </trkpt>
      <trkpt lat="45.56853" lon="5.73243">
        <ele>619</ele>
        <time>2019-10-27T14:24:11.000Z</time>
      </trkpt>
      <trkpt lat="45.56851" lon="5.73244">
        <ele>619</ele>
        <time>2019-10-27T14:24:12.000Z</time>
      </trkpt>
      <trkpt lat="45.56849" lon="5.73245">
        <ele>619</ele>
        <time>2019-10-27T14:24:13.000Z</time>
      </trkpt>
      <trkpt lat="45.56848" lon="5.73246">
        <ele>619</ele>
        <time>2019-10-27T14:24:14.000Z</time>
      </trkpt>
      <trkpt lat="45.56847" lon="5.73246">
        <ele>619</ele>
        <time>2019-10-27T14:24:15.000Z</time>
      </trkpt>
      <trkpt lat="45.56846" lon="5.73247">
        <ele>619</ele>
        <time>2019-10-27T14:24:16.000Z</time>
      </trkpt>
      <trkpt lat="45.56845" lon="5.73248">
        <ele>619</ele>
        <time>2019-10-27T14:24:17.000Z</time>
      </trkpt>
      <trkpt lat="45.56845" lon="5.73248">
        <ele>619</ele>
        <time>2019-10-27T14:24:18.000Z</time>
      </trkpt>
      <trkpt lat="45.56845" lon="5.73248">
        <ele>618.7</ele>
        <time>2019-10-27T14:24:19.000Z</time>
      </trkpt>
      <trkpt lat="45.56845" lon="5.73247">
        <ele>618.3</ele>
        <time>2019-10-27T14:24:20.000Z</time>
      </trkpt>
      <trkpt lat="45.56845" lon="5.73246">
        <ele>618</ele>
        <time>2019-10-27T14:24:21.000Z</time>
      </trkpt>
      <trkpt lat="45.56844" lon="5.73245">
        <ele>618</ele>
        <time>2019-10-27T14:24:22.000Z</time>
      </trkpt>
      <trkpt lat="45.56844" lon="5.73244">
        <ele>618</ele>
        <time>2019-10-27T14:24:23.000Z</time>
      </trkpt>
      <trkpt lat="45.56843" lon="5.73243">
        <ele>618</ele>
        <time>2019-10-27T14:24:24.000Z</time>
      </trkpt>
      <trkpt lat="45.56843" lon="5.73242">
        <ele>618</ele>
        <time>2019-10-27T14:24:25.000Z</time>
      </trkpt>
      <trkpt lat="45.56842" lon="5.73241">
        <ele>618</ele>
        <time>2019-10-27T14:24:26.000Z</time>
      </trkpt>
      <trkpt lat="45.56841" lon="5.73241">
        <ele>618</ele>
        <time>2019-10-27T14:24:27.000Z</time>
      </trkpt>
      <trkpt lat="45.5684" lon="5.73241">
        <ele>618</ele>
        <time>2019-10-27T14:24:28.000Z</time>
      </trkpt>
      <trkpt lat="45.56839" lon="5.73241">
        <ele>618</ele>
        <time>2019-10-27T14:24:29.000Z</time>
      </trkpt>
      <trkpt lat="45.56838" lon="5.73242">
        <ele>618</ele>
        <time>2019-10-27T14:24:30.000Z</time>
      </trkpt>
      <trkpt lat="45.56837" lon="5.73242">
        <ele>618</ele>
        <time>2019-10-27T14:24:31.000Z</time>
      </trkpt>
      <trkpt lat="45.56836" lon="5.73242">
        <ele>618</ele>
        <time>2019-10-27T14:24:32.000Z</time>
      </trkpt>
      <trkpt lat="45.56835" lon="5.73242">
        <ele>618</ele>
        <time>2019-10-27T14:24:33.000Z</time>
      </trkpt>
      <trkpt lat="45.56833" lon="5.73242">
        <ele>618</ele>
        <time>2019-10-27T14:24:34.000Z</time>
      </trkpt>
      <trkpt lat="45.56832" lon="5.73242">
        <ele>618</ele>
        <time>2019-10-27T14:24:35.000Z</time>
      </trkpt>
      <trkpt lat="45.56831" lon="5.73241">
        <ele>618</ele>
        <time>2019-10-27T14:24:36.000Z</time>
      </trkpt>
      <trkpt lat="45.5683" lon="5.73241">
        <ele>618</ele>
        <time>2019-10-27T14:24:37.000Z</time>
      </trkpt>
      <trkpt lat="45.56829" lon="5.7324">
        <ele>618</ele>
        <time>2019-10-27T14:24:38.000Z</time>
      </trkpt>
      <trkpt lat="45.56828" lon="5.7324">
        <ele>618</ele>
        <time>2019-10-27T14:24:39.000Z</time>
      </trkpt>
      <trkpt lat="45.56827" lon="5.73239">
        <ele>618</ele>
        <time>2019-10-27T14:24:40.000Z</time>
      </trkpt>
      <trkpt lat="45.56826" lon="5.73239">
        <ele>618</ele>
        <time>2019-10-27T14:24:41.000Z</time>
      </trkpt>
      <trkpt lat="45.56824" lon="5.73239">
        <ele>618</ele>
        <time>2019-10-27T14:24:42.000Z</time>
      </trkpt>
      <trkpt lat="45.56823" lon="5.73239">
        <ele>618</ele>
        <time>2019-10-27T14:24:43.000Z</time>
      </trkpt>
      <trkpt lat="45.56822" lon="5.73239">
        <ele>618</ele>
        <time>2019-10-27T14:24:44.000Z</time>
      </trkpt>
      <trkpt lat="45.5682" lon="5.7324">
        <ele>618</ele>
        <time>2019-10-27T14:24:45.000Z</time>
      </trkpt>
      <trkpt lat="45.56818" lon="5.7324">
        <ele>618</ele>
        <time>2019-10-27T14:24:46.000Z</time>
      </trkpt>
      <trkpt lat="45.56817" lon="5.73241">
        <ele>618</ele>
        <time>2019-10-27T14:24:47.000Z</time>
      </trkpt>
      <trkpt lat="45.56815" lon="5.73241">
        <ele>618</ele>
        <time>2019-10-27T14:24:48.000Z</time>
      </trkpt>
      <trkpt lat="45.56813" lon="5.73242">
        <ele>618</ele>
        <time>2019-10-27T14:24:49.000Z</time>
      </trkpt>
      <trkpt lat="45.56812" lon="5.73243">
        <ele>618</ele>
        <time>2019-10-27T14:24:50.000Z</time>
      </trkpt>
      <trkpt lat="45.5681" lon="5.73243">
        <ele>618.3</ele>
        <time>2019-10-27T14:24:51.000Z</time>
      </trkpt>
      <trkpt lat="45.56809" lon="5.73244">
        <ele>618.7</ele>
        <time>2019-10-27T14:24:52.000Z</time>
      </trkpt>
      <trkpt lat="45.56807" lon="5.73244">
        <ele>619</ele>
        <time>2019-10-27T14:24:53.000Z</time>
      </trkpt>
      <trkpt lat="45.56806" lon="5.73245">
        <ele>619</ele>
        <time>2019-10-27T14:24:54.000Z</time>
      </trkpt>
      <trkpt lat="45.56804" lon="5.73245">
        <ele>619</ele>
        <time>2019-10-27T14:24:55.000Z</time>
      </trkpt>
      <trkpt lat="45.56803" lon="5.73245">
        <ele>619</ele>
        <time>2019-10-27T14:24:56.000Z</time>
      </trkpt>
      <trkpt lat="45.56802" lon="5.73245">
        <ele>619</ele>
        <time>2019-10-27T14:24:57.000Z</time>
      </trkpt>
      <trkpt lat="45.56801" lon="5.73245">
        <ele>619</ele>
        <time>2019-10-27T14:24:58.000Z</time>
      </trkpt>
      <trkpt lat="45.568" lon="5.73244">
        <ele>619</ele>
        <time>2019-10-27T14:24:59.000Z</time>
      </trkpt>
      <trkpt lat="45.56799" lon="5.73244">
        <ele>619</ele>
        <time>2019-10-27T14:25:00.000Z</time>
      </trkpt>
      <trkpt lat="45.56798" lon="5.73243">
        <ele>619</ele>
        <time>2019-10-27T14:25:01.000Z</time>
      </trkpt>
      <trkpt lat="45.56798" lon="5.73242">
        <ele>619</ele>
        <time>2019-10-27T14:25:02.000Z</time>
      </trkpt>
      <trkpt lat="45.56797" lon="5.73242">
        <ele>620</ele>
        <time>2019-10-27T14:25:03.000Z</time>
      </trkpt>
      <trkpt lat="45.56797" lon="5.73241">
        <ele>620</ele>
        <time>2019-10-27T14:25:04.000Z</time>
      </trkpt>
      <trkpt lat="45.56796" lon="5.7324">
        <ele>620</ele>
        <time>2019-10-27T14:25:05.000Z</time>
      </trkpt>
      <trkpt lat="45.56796" lon="5.73239">
        <ele>620</ele>
        <time>2019-10-27T14:25:06.000Z</time>
      </trkpt>
      <trkpt lat="45.56796" lon="5.73239">
        <ele>620</ele>
        <time>2019-10-27T14:25:07.000Z</time>
      </trkpt>
      <trkpt lat="45.56795" lon="5.73238">
        <ele>620</ele>
        <time>2019-10-27T14:25:08.000Z</time>
      </trkpt>
      <trkpt lat="45.56795" lon="5.73238">
        <ele>620</ele>
        <time>2019-10-27T14:25:09.000Z</time>
      </trkpt>
      <trkpt lat="45.56794" lon="5.73239">
        <ele>620</ele>
        <time>2019-10-27T14:25:10.000Z</time>
      </trkpt>
      <trkpt lat="45.56794" lon="5.73239">
        <ele>620</ele>
        <time>2019-10-27T14:25:11.000Z</time>
      </trkpt>
      <trkpt lat="45.56793" lon="5.73241">
        <ele>620</ele>
        <time>2019-10-27T14:25:12.000Z</time>
      </trkpt>
      <trkpt lat="45.56792" lon="5.73242">
        <ele>620</ele>
        <time>2019-10-27T14:25:13.000Z</time>
      </trkpt>
      <trkpt lat="45.56791" lon="5.73244">
        <ele>620</ele>
        <time>2019-10-27T14:25:14.000Z</time>
      </trkpt>
      <trkpt lat="45.5679" lon="5.73245">
        <ele>620</ele>
        <time>2019-10-27T14:25:15.000Z</time>
      </trkpt>
      <trkpt lat="45.56788" lon="5.73245">
        <ele>620</ele>
        <time>2019-10-27T14:25:16.000Z</time>
      </trkpt>
      <trkpt lat="45.56787" lon="5.73245">
        <ele>620</ele>
        <time>2019-10-27T14:25:17.000Z</time>
      </trkpt>
      <trkpt lat="45.56785" lon="5.73245">
        <ele>620</ele>
        <time>2019-10-27T14:25:18.000Z</time>
      </trkpt>
      <trkpt lat="45.56783" lon="5.73245">
        <ele>621</ele>
        <time>2019-10-27T14:25:19.000Z</time>
      </trkpt>
      <trkpt lat="45.56782" lon="5.73246">
        <ele>621</ele>
        <time>2019-10-27T14:25:20.000Z</time>
      </trkpt>
      <trkpt lat="45.56781" lon="5.73247">
        <ele>621</ele>
        <time>2019-10-27T14:25:21.000Z</time>
      </trkpt>
      <trkpt lat="45.5678" lon="5.73249">
        <ele>621</ele>
        <time>2019-10-27T14:25:22.000Z</time>
      </trkpt>
      <trkpt lat="45.5678" lon="5.73251">
        <ele>621</ele>
        <time>2019-10-27T14:25:23.000Z</time>
      </trkpt>
      <trkpt lat="45.56779" lon="5.73253">
        <ele>621</ele>
        <time>2019-10-27T14:25:24.000Z</time>
      </trkpt>
      <trkpt lat="45.56779" lon="5.73255">
        <ele>621</ele>
        <time>2019-10-27T14:25:25.000Z</time>
      </trkpt>
      <trkpt lat="45.56778" lon="5.73256">
        <ele>621</ele>
        <time>2019-10-27T14:25:26.000Z</time>
      </trkpt>
      <trkpt lat="45.56777" lon="5.73258">
        <ele>621</ele>
        <time>2019-10-27T14:25:27.000Z</time>
      </trkpt>
      <trkpt lat="45.56777" lon="5.73259">
        <ele>621</ele>
        <time>2019-10-27T14:25:28.000Z</time>
      </trkpt>
      <trkpt lat="45.56776" lon="5.73261">
        <ele>622</ele>
        <time>2019-10-27T14:25:29.000Z</time>
      </trkpt>
      <trkpt lat="45.56775" lon="5.73262">
        <ele>622</ele>
        <time>2019-10-27T14:25:30.000Z</time>
      </trkpt>
      <trkpt lat="45.56774" lon="5.73263">
        <ele>622</ele>
        <time>2019-10-27T14:25:31.000Z</time>
      </trkpt>
      <trkpt lat="45.56774" lon="5.73265">
        <ele>622</ele>
        <time>2019-10-27T14:25:32.000Z</time>
      </trkpt>
      <trkpt lat="45.56773" lon="5.73266">
        <ele>622</ele>
        <time>2019-10-27T14:25:33.000Z</time>
      </trkpt>
      <trkpt lat="45.56772" lon="5.73268">
        <ele>622</ele>
        <time>2019-10-27T14:25:34.000Z</time>
      </trkpt>
      <trkpt lat="45.56771" lon="5.73269">
        <ele>622</ele>
        <time>2019-10-27T14:25:35.000Z</time>
      </trkpt>
      <trkpt lat="45.5677" lon="5.7327">
        <ele>622</ele>
        <time>2019-10-27T14:25:36.000Z</time>
      </trkpt>
      <trkpt lat="45.5677" lon="5.73272">
        <ele>622</ele>
        <time>2019-10-27T14:25:37.000Z</time>
      </trkpt>
      <trkpt lat="45.56769" lon="5.73273">
        <ele>622</ele>
        <time>2019-10-27T14:25:38.000Z</time>
      </trkpt>
      <trkpt lat="45.56768" lon="5.73275">
        <ele>622</ele>
        <time>2019-10-27T14:25:39.000Z</time>
      </trkpt>
      <trkpt lat="45.56767" lon="5.73277">
        <ele>622</ele>
        <time>2019-10-27T14:25:40.000Z</time>
      </trkpt>
      <trkpt lat="45.56767" lon="5.73278">
        <ele>622</ele>
        <time>2019-10-27T14:25:41.000Z</time>
      </trkpt>
      <trkpt lat="45.56766" lon="5.7328">
        <ele>622</ele>
        <time>2019-10-27T14:25:42.000Z</time>
      </trkpt>
      <trkpt lat="45.56765" lon="5.73281">
        <ele>622</ele>
        <time>2019-10-27T14:25:43.000Z</time>
      </trkpt>
      <trkpt lat="45.56765" lon="5.73283">
        <ele>622</ele>
        <time>2019-10-27T14:25:44.000Z</time>
      </trkpt>
      <trkpt lat="45.56764" lon="5.73284">
        <ele>623</ele>
        <time>2019-10-27T14:25:45.000Z</time>
      </trkpt>
      <trkpt lat="45.56763" lon="5.73286">
        <ele>622.7</ele>
        <time>2019-10-27T14:25:46.000Z</time>
      </trkpt>
      <trkpt lat="45.56763" lon="5.73287">
        <ele>622.3</ele>
        <time>2019-10-27T14:25:47.000Z</time>
      </trkpt>
      <trkpt lat="45.56762" lon="5.73288">
        <ele>622</ele>
        <time>2019-10-27T14:25:48.000Z</time>
      </trkpt>
      <trkpt lat="45.56762" lon="5.7329">
        <ele>622</ele>
        <time>2019-10-27T14:25:49.000Z</time>
      </trkpt>
      <trkpt lat="45.56761" lon="5.73291">
        <ele>622</ele>
        <time>2019-10-27T14:25:50.000Z</time>
      </trkpt>
      <trkpt lat="45.56761" lon="5.73292">
        <ele>622</ele>
        <time>2019-10-27T14:25:51.000Z</time>
      </trkpt>
      <trkpt lat="45.56761" lon="5.73293">
        <ele>622</ele>
        <time>2019-10-27T14:25:52.000Z</time>
      </trkpt>
      <trkpt lat="45.5676" lon="5.73294">
        <ele>622</ele>
        <time>2019-10-27T14:25:53.000Z</time>
      </trkpt>
      <trkpt lat="45.5676" lon="5.73295">
        <ele>622</ele>
        <time>2019-10-27T14:25:54.000Z</time>
      </trkpt>
      <trkpt lat="45.5676" lon="5.73297">
        <ele>622</ele>
        <time>2019-10-27T14:25:55.000Z</time>
      </trkpt>
      <trkpt lat="45.56759" lon="5.73298">
        <ele>622</ele>
        <time>2019-10-27T14:25:56.000Z</time>
      </trkpt>
      <trkpt lat="45.56759" lon="5.73299">
        <ele>622</ele>
        <time>2019-10-27T14:25:57.000Z</time>
      </trkpt>
      <trkpt lat="45.56758" lon="5.73301">
        <ele>622</ele>
        <time>2019-10-27T14:25:58.000Z</time>
      </trkpt>
      <trkpt lat="45.56757" lon="5.73302">
        <ele>622</ele>
        <time>2019-10-27T14:25:59.000Z</time>
      </trkpt>
      <trkpt lat="45.56757" lon="5.73304">
        <ele>622</ele>
        <time>2019-10-27T14:26:00.000Z</time>
      </trkpt>
      <trkpt lat="45.56756" lon="5.73305">
        <ele>622</ele>
        <time>2019-10-27T14:26:01.000Z</time>
      </trkpt>
      <trkpt lat="45.56755" lon="5.73307">
        <ele>622</ele>
        <time>2019-10-27T14:26:02.000Z</time>
      </trkpt>
      <trkpt lat="45.56754" lon="5.73309">
        <ele>621.5</ele>
        <time>2019-10-27T14:26:03.000Z</time>
      </trkpt>
      <trkpt lat="45.56753" lon="5.73311">
        <ele>621</ele>
        <time>2019-10-27T14:26:04.000Z</time>
      </trkpt>
      <trkpt lat="45.56752" lon="5.73313">
        <ele>622</ele>
        <time>2019-10-27T14:26:05.000Z</time>
      </trkpt>
      <trkpt lat="45.56751" lon="5.73314">
        <ele>622</ele>
        <time>2019-10-27T14:26:06.000Z</time>
      </trkpt>
      <trkpt lat="45.5675" lon="5.73316">
        <ele>622</ele>
        <time>2019-10-27T14:26:07.000Z</time>
      </trkpt>
      <trkpt lat="45.56749" lon="5.73317">
        <ele>622</ele>
        <time>2019-10-27T14:26:08.000Z</time>
      </trkpt>
      <trkpt lat="45.56748" lon="5.73319">
        <ele>622</ele>
        <time>2019-10-27T14:26:09.000Z</time>
      </trkpt>
      <trkpt lat="45.56747" lon="5.7332">
        <ele>622</ele>
        <time>2019-10-27T14:26:10.000Z</time>
      </trkpt>
      <trkpt lat="45.56747" lon="5.73321">
        <ele>622</ele>
        <time>2019-10-27T14:26:11.000Z</time>
      </trkpt>
      <trkpt lat="45.56746" lon="5.73322">
        <ele>622</ele>
        <time>2019-10-27T14:26:12.000Z</time>
      </trkpt>
      <trkpt lat="45.56745" lon="5.73323">
        <ele>622</ele>
        <time>2019-10-27T14:26:13.000Z</time>
      </trkpt>
      <trkpt lat="45.56745" lon="5.73324">
        <ele>622.3</ele>
        <time>2019-10-27T14:26:14.000Z</time>
      </trkpt>
      <trkpt lat="45.56744" lon="5.73325">
        <ele>622.7</ele>
        <time>2019-10-27T14:26:15.000Z</time>
      </trkpt>
      <trkpt lat="45.56744" lon="5.73325">
        <ele>623</ele>
        <time>2019-10-27T14:26:16.000Z</time>
      </trkpt>
      <trkpt lat="45.56743" lon="5.73326">
        <ele>623</ele>
        <time>2019-10-27T14:26:17.000Z</time>
      </trkpt>
      <trkpt lat="45.56743" lon="5.73327">
        <ele>623</ele>
        <time>2019-10-27T14:26:18.000Z</time>
      </trkpt>
      <trkpt lat="45.56742" lon="5.73328">
        <ele>623</ele>
        <time>2019-10-27T14:26:19.000Z</time>
      </trkpt>
      <trkpt lat="45.56742" lon="5.73329">
        <ele>623</ele>
        <time>2019-10-27T14:26:20.000Z</time>
      </trkpt>
      <trkpt lat="45.56741" lon="5.73329">
        <ele>624</ele>
        <time>2019-10-27T14:26:21.000Z</time>
      </trkpt>
      <trkpt lat="45.5674" lon="5.7333">
        <ele>624</ele>
        <time>2019-10-27T14:26:22.000Z</time>
      </trkpt>
      <trkpt lat="45.5674" lon="5.73331">
        <ele>624</ele>
        <time>2019-10-27T14:26:23.000Z</time>
      </trkpt>
      <trkpt lat="45.56739" lon="5.73332">
        <ele>624</ele>
        <time>2019-10-27T14:26:24.000Z</time>
      </trkpt>
      <trkpt lat="45.56738" lon="5.73334">
        <ele>624</ele>
        <time>2019-10-27T14:26:25.000Z</time>
      </trkpt>
      <trkpt lat="45.56737" lon="5.73335">
        <ele>624</ele>
        <time>2019-10-27T14:26:26.000Z</time>
      </trkpt>
      <trkpt lat="45.56737" lon="5.73336">
        <ele>624</ele>
        <time>2019-10-27T14:26:27.000Z</time>
      </trkpt>
      <trkpt lat="45.56736" lon="5.73337">
        <ele>624</ele>
        <time>2019-10-27T14:26:28.000Z</time>
      </trkpt>
      <trkpt lat="45.56736" lon="5.73338">
        <ele>624</ele>
        <time>2019-10-27T14:26:29.000Z</time>
      </trkpt>
      <trkpt lat="45.56735" lon="5.73338">
        <ele>624</ele>
        <time>2019-10-27T14:26:30.000Z</time>
      </trkpt>
      <trkpt lat="45.56735" lon="5.73338">
        <ele>624</ele>
        <time>2019-10-27T14:26:31.000Z</time>
      </trkpt>
      <trkpt lat="45.56734" lon="5.73339">
        <ele>624</ele>
        <time>2019-10-27T14:26:32.000Z</time>
      </trkpt>
      <trkpt lat="45.56734" lon="5.73339">
        <ele>624</ele>
        <time>2019-10-27T14:26:34.000Z</time>
      </trkpt>
      <trkpt lat="45.56734" lon="5.73339">
        <ele>624.5</ele>
        <time>2019-10-27T14:26:35.000Z</time>
      </trkpt>
      <trkpt lat="45.56733" lon="5.7334">
        <ele>625</ele>
        <time>2019-10-27T14:26:36.000Z</time>
      </trkpt>
      <trkpt lat="45.56733" lon="5.7334">
        <ele>625</ele>
        <time>2019-10-27T14:26:37.000Z</time>
      </trkpt>
      <trkpt lat="45.56732" lon="5.73341">
        <ele>625</ele>
        <time>2019-10-27T14:26:38.000Z</time>
      </trkpt>
      <trkpt lat="45.56731" lon="5.73342">
        <ele>625</ele>
        <time>2019-10-27T14:26:39.000Z</time>
      </trkpt>
      <trkpt lat="45.56731" lon="5.73343">
        <ele>625</ele>
        <time>2019-10-27T14:26:40.000Z</time>
      </trkpt>
      <trkpt lat="45.5673" lon="5.73344">
        <ele>625</ele>
        <time>2019-10-27T14:26:41.000Z</time>
      </trkpt>
      <trkpt lat="45.56729" lon="5.73344">
        <ele>625</ele>
        <time>2019-10-27T14:26:42.000Z</time>
      </trkpt>
      <trkpt lat="45.56729" lon="5.73345">
        <ele>625</ele>
        <time>2019-10-27T14:26:43.000Z</time>
      </trkpt>
      <trkpt lat="45.56728" lon="5.73346">
        <ele>625</ele>
        <time>2019-10-27T14:26:44.000Z</time>
      </trkpt>
      <trkpt lat="45.56727" lon="5.73346">
        <ele>624.7</ele>
        <time>2019-10-27T14:26:45.000Z</time>
      </trkpt>
      <trkpt lat="45.56727" lon="5.73346">
        <ele>624.3</ele>
        <time>2019-10-27T14:26:46.000Z</time>
      </trkpt>
      <trkpt lat="45.56726" lon="5.73346">
        <ele>624</ele>
        <time>2019-10-27T14:26:47.000Z</time>
      </trkpt>
      <trkpt lat="45.56725" lon="5.73347">
        <ele>624</ele>
        <time>2019-10-27T14:26:48.000Z</time>
      </trkpt>
      <trkpt lat="45.56725" lon="5.73346">
        <ele>624</ele>
        <time>2019-10-27T14:26:49.000Z</time>
      </trkpt>
      <trkpt lat="45.56725" lon="5.73346">
        <ele>624</ele>
        <time>2019-10-27T14:26:50.000Z</time>
      </trkpt>
      <trkpt lat="45.56724" lon="5.73346">
        <ele>624</ele>
        <time>2019-10-27T14:26:51.000Z</time>
      </trkpt>
      <trkpt lat="45.56724" lon="5.73345">
        <ele>624</ele>
        <time>2019-10-27T14:26:52.000Z</time>
      </trkpt>
      <trkpt lat="45.56724" lon="5.73345">
        <ele>624</ele>
        <time>2019-10-27T14:26:53.000Z</time>
      </trkpt>
      <trkpt lat="45.56723" lon="5.73344">
        <ele>624</ele>
        <time>2019-10-27T14:26:54.000Z</time>
      </trkpt>
      <trkpt lat="45.56723" lon="5.73343">
        <ele>624</ele>
        <time>2019-10-27T14:26:55.000Z</time>
      </trkpt>
      <trkpt lat="45.56723" lon="5.73343">
        <ele>624</ele>
        <time>2019-10-27T14:26:56.000Z</time>
      </trkpt>
      <trkpt lat="45.56722" lon="5.73342">
        <ele>624</ele>
        <time>2019-10-27T14:26:57.000Z</time>
      </trkpt>
      <trkpt lat="45.56722" lon="5.73341">
        <ele>623.5</ele>
        <time>2019-10-27T14:26:58.000Z</time>
      </trkpt>
      <trkpt lat="45.56721" lon="5.73341">
        <ele>623</ele>
        <time>2019-10-27T14:26:59.000Z</time>
      </trkpt>
      <trkpt lat="45.5672" lon="5.7334">
        <ele>623</ele>
        <time>2019-10-27T14:27:00.000Z</time>
      </trkpt>
      <trkpt lat="45.56719" lon="5.7334">
        <ele>623</ele>
        <time>2019-10-27T14:27:01.000Z</time>
      </trkpt>
      <trkpt lat="45.56718" lon="5.7334">
        <ele>623</ele>
        <time>2019-10-27T14:27:02.000Z</time>
      </trkpt>
      <trkpt lat="45.56716" lon="5.7334">
        <ele>623</ele>
        <time>2019-10-27T14:27:03.000Z</time>
      </trkpt>
      <trkpt lat="45.56715" lon="5.7334">
        <ele>622</ele>
        <time>2019-10-27T14:27:04.000Z</time>
      </trkpt>
      <trkpt lat="45.56713" lon="5.73341">
        <ele>622</ele>
        <time>2019-10-27T14:27:05.000Z</time>
      </trkpt>
      <trkpt lat="45.56711" lon="5.73341">
        <ele>622</ele>
        <time>2019-10-27T14:27:06.000Z</time>
      </trkpt>
      <trkpt lat="45.5671" lon="5.73342">
        <ele>622</ele>
        <time>2019-10-27T14:27:07.000Z</time>
      </trkpt>
      <trkpt lat="45.56708" lon="5.73342">
        <ele>621.5</ele>
        <time>2019-10-27T14:27:08.000Z</time>
      </trkpt>
      <trkpt lat="45.56707" lon="5.73343">
        <ele>621</ele>
        <time>2019-10-27T14:27:09.000Z</time>
      </trkpt>
      <trkpt lat="45.56705" lon="5.73343">
        <ele>621</ele>
        <time>2019-10-27T14:27:10.000Z</time>
      </trkpt>
      <trkpt lat="45.56704" lon="5.73344">
        <ele>621</ele>
        <time>2019-10-27T14:27:11.000Z</time>
      </trkpt>
      <trkpt lat="45.56703" lon="5.73345">
        <ele>621</ele>
        <time>2019-10-27T14:27:12.000Z</time>
      </trkpt>
      <trkpt lat="45.56702" lon="5.73345">
        <ele>621</ele>
        <time>2019-10-27T14:27:13.000Z</time>
      </trkpt>
      <trkpt lat="45.56701" lon="5.73345">
        <ele>621</ele>
        <time>2019-10-27T14:27:14.000Z</time>
      </trkpt>
      <trkpt lat="45.567" lon="5.73346">
        <ele>621</ele>
        <time>2019-10-27T14:27:15.000Z</time>
      </trkpt>
      <trkpt lat="45.56699" lon="5.73346">
        <ele>620</ele>
        <time>2019-10-27T14:27:16.000Z</time>
      </trkpt>
      <trkpt lat="45.56698" lon="5.73346">
        <ele>620</ele>
        <time>2019-10-27T14:27:17.000Z</time>
      </trkpt>
      <trkpt lat="45.56697" lon="5.73345">
        <ele>620</ele>
        <time>2019-10-27T14:27:18.000Z</time>
      </trkpt>
      <trkpt lat="45.56696" lon="5.73345">
        <ele>620</ele>
        <time>2019-10-27T14:27:19.000Z</time>
      </trkpt>
      <trkpt lat="45.56694" lon="5.73344">
        <ele>620</ele>
        <time>2019-10-27T14:27:20.000Z</time>
      </trkpt>
      <trkpt lat="45.56693" lon="5.73343">
        <ele>620</ele>
        <time>2019-10-27T14:27:21.000Z</time>
      </trkpt>
      <trkpt lat="45.56692" lon="5.73342">
        <ele>620</ele>
        <time>2019-10-27T14:27:22.000Z</time>
      </trkpt>
      <trkpt lat="45.56691" lon="5.73341">
        <ele>619.7</ele>
        <time>2019-10-27T14:27:23.000Z</time>
      </trkpt>
      <trkpt lat="45.56691" lon="5.73339">
        <ele>619.3</ele>
        <time>2019-10-27T14:27:24.000Z</time>
      </trkpt>
      <trkpt lat="45.5669" lon="5.73338">
        <ele>619</ele>
        <time>2019-10-27T14:27:25.000Z</time>
      </trkpt>
      <trkpt lat="45.5669" lon="5.73336">
        <ele>619</ele>
        <time>2019-10-27T14:27:26.000Z</time>
      </trkpt>
      <trkpt lat="45.56689" lon="5.73335">
        <ele>619</ele>
        <time>2019-10-27T14:27:27.000Z</time>
      </trkpt>
      <trkpt lat="45.56689" lon="5.73334">
        <ele>619</ele>
        <time>2019-10-27T14:27:28.000Z</time>
      </trkpt>
      <trkpt lat="45.56688" lon="5.73333">
        <ele>619</ele>
        <time>2019-10-27T14:27:29.000Z</time>
      </trkpt>
      <trkpt lat="45.56688" lon="5.73332">
        <ele>619</ele>
        <time>2019-10-27T14:27:30.000Z</time>
      </trkpt>
      <trkpt lat="45.56687" lon="5.73331">
        <ele>619</ele>
        <time>2019-10-27T14:27:31.000Z</time>
      </trkpt>
      <trkpt lat="45.56687" lon="5.7333">
        <ele>619</ele>
        <time>2019-10-27T14:27:32.000Z</time>
      </trkpt>
      <trkpt lat="45.56686" lon="5.73329">
        <ele>619</ele>
        <time>2019-10-27T14:27:33.000Z</time>
      </trkpt>
      <trkpt lat="45.56686" lon="5.73328">
        <ele>619</ele>
        <time>2019-10-27T14:27:34.000Z</time>
      </trkpt>
      <trkpt lat="45.56685" lon="5.73327">
        <ele>619</ele>
        <time>2019-10-27T14:27:35.000Z</time>
      </trkpt>
      <trkpt lat="45.56685" lon="5.73326">
        <ele>618</ele>
        <time>2019-10-27T14:27:36.000Z</time>
      </trkpt>
      <trkpt lat="45.56684" lon="5.73324">
        <ele>618</ele>
        <time>2019-10-27T14:27:37.000Z</time>
      </trkpt>
      <trkpt lat="45.56684" lon="5.73323">
        <ele>618</ele>
        <time>2019-10-27T14:27:38.000Z</time>
      </trkpt>
      <trkpt lat="45.56683" lon="5.73322">
        <ele>618</ele>
        <time>2019-10-27T14:27:39.000Z</time>
      </trkpt>
      <trkpt lat="45.56682" lon="5.7332">
        <ele>618</ele>
        <time>2019-10-27T14:27:40.000Z</time>
      </trkpt>
      <trkpt lat="45.56682" lon="5.73319">
        <ele>618</ele>
        <time>2019-10-27T14:27:41.000Z</time>
      </trkpt>
      <trkpt lat="45.56681" lon="5.73318">
        <ele>618</ele>
        <time>2019-10-27T14:27:42.000Z</time>
      </trkpt>
      <trkpt lat="45.5668" lon="5.73317">
        <ele>618</ele>
        <time>2019-10-27T14:27:43.000Z</time>
      </trkpt>
      <trkpt lat="45.56679" lon="5.73316">
        <ele>618</ele>
        <time>2019-10-27T14:27:44.000Z</time>
      </trkpt>
      <trkpt lat="45.56678" lon="5.73316">
        <ele>618</ele>
        <time>2019-10-27T14:27:45.000Z</time>
      </trkpt>
      <trkpt lat="45.56677" lon="5.73315">
        <ele>618</ele>
        <time>2019-10-27T14:27:46.000Z</time>
      </trkpt>
      <trkpt lat="45.56676" lon="5.73315">
        <ele>618</ele>
        <time>2019-10-27T14:27:47.000Z</time>
      </trkpt>
      <trkpt lat="45.56674" lon="5.73315">
        <ele>618</ele>
        <time>2019-10-27T14:27:48.000Z</time>
      </trkpt>
      <trkpt lat="45.56673" lon="5.73315">
        <ele>618</ele>
        <time>2019-10-27T14:27:49.000Z</time>
      </trkpt>
      <trkpt lat="45.56671" lon="5.73316">
        <ele>618</ele>
        <time>2019-10-27T14:27:50.000Z</time>
      </trkpt>
      <trkpt lat="45.56669" lon="5.73317">
        <ele>618</ele>
        <time>2019-10-27T14:27:51.000Z</time>
      </trkpt>
      <trkpt lat="45.56667" lon="5.73318">
        <ele>618</ele>
        <time>2019-10-27T14:27:52.000Z</time>
      </trkpt>
      <trkpt lat="45.56665" lon="5.7332">
        <ele>618</ele>
        <time>2019-10-27T14:27:53.000Z</time>
      </trkpt>
      <trkpt lat="45.56662" lon="5.73322">
        <ele>618</ele>
        <time>2019-10-27T14:27:54.000Z</time>
      </trkpt>
      <trkpt lat="45.5666" lon="5.73323">
        <ele>618</ele>
        <time>2019-10-27T14:27:55.000Z</time>
      </trkpt>
      <trkpt lat="45.56659" lon="5.73324">
        <ele>617.5</ele>
        <time>2019-10-27T14:27:56.000Z</time>
      </trkpt>
      <trkpt lat="45.56657" lon="5.73325">
        <ele>617</ele>
        <time>2019-10-27T14:27:57.000Z</time>
      </trkpt>
      <trkpt lat="45.56656" lon="5.73325">
        <ele>618</ele>
        <time>2019-10-27T14:27:58.000Z</time>
      </trkpt>
      <trkpt lat="45.56655" lon="5.73325">
        <ele>617.7</ele>
        <time>2019-10-27T14:27:59.000Z</time>
      </trkpt>
      <trkpt lat="45.56654" lon="5.73325">
        <ele>617.3</ele>
        <time>2019-10-27T14:28:00.000Z</time>
      </trkpt>
      <trkpt lat="45.56653" lon="5.73325">
        <ele>617</ele>
        <time>2019-10-27T14:28:01.000Z</time>
      </trkpt>
      <trkpt lat="45.56652" lon="5.73324">
        <ele>617</ele>
        <time>2019-10-27T14:28:02.000Z</time>
      </trkpt>
      <trkpt lat="45.56651" lon="5.73324">
        <ele>617.3</ele>
        <time>2019-10-27T14:28:03.000Z</time>
      </trkpt>
      <trkpt lat="45.5665" lon="5.73324">
        <ele>617.7</ele>
        <time>2019-10-27T14:28:04.000Z</time>
      </trkpt>
      <trkpt lat="45.56649" lon="5.73323">
        <ele>618</ele>
        <time>2019-10-27T14:28:05.000Z</time>
      </trkpt>
      <trkpt lat="45.56648" lon="5.73323">
        <ele>618</ele>
        <time>2019-10-27T14:28:06.000Z</time>
      </trkpt>
      <trkpt lat="45.56647" lon="5.73322">
        <ele>618</ele>
        <time>2019-10-27T14:28:07.000Z</time>
      </trkpt>
      <trkpt lat="45.56646" lon="5.73321">
        <ele>618</ele>
        <time>2019-10-27T14:28:08.000Z</time>
      </trkpt>
      <trkpt lat="45.56646" lon="5.73321">
        <ele>618</ele>
        <time>2019-10-27T14:28:09.000Z</time>
      </trkpt>
      <trkpt lat="45.56645" lon="5.7332">
        <ele>618</ele>
        <time>2019-10-27T14:28:10.000Z</time>
      </trkpt>
      <trkpt lat="45.56643" lon="5.7332">
        <ele>618</ele>
        <time>2019-10-27T14:28:11.000Z</time>
      </trkpt>
      <trkpt lat="45.56642" lon="5.7332">
        <ele>619</ele>
        <time>2019-10-27T14:28:12.000Z</time>
      </trkpt>
      <trkpt lat="45.56641" lon="5.7332">
        <ele>619</ele>
        <time>2019-10-27T14:28:13.000Z</time>
      </trkpt>
      <trkpt lat="45.5664" lon="5.73321">
        <ele>619</ele>
        <time>2019-10-27T14:28:14.000Z</time>
      </trkpt>
      <trkpt lat="45.56639" lon="5.73321">
        <ele>619</ele>
        <time>2019-10-27T14:28:15.000Z</time>
      </trkpt>
      <trkpt lat="45.56638" lon="5.73321">
        <ele>619</ele>
        <time>2019-10-27T14:28:16.000Z</time>
      </trkpt>
      <trkpt lat="45.56637" lon="5.73321">
        <ele>619</ele>
        <time>2019-10-27T14:28:17.000Z</time>
      </trkpt>
      <trkpt lat="45.56636" lon="5.7332">
        <ele>619</ele>
        <time>2019-10-27T14:28:18.000Z</time>
      </trkpt>
      <trkpt lat="45.56636" lon="5.73319">
        <ele>619</ele>
        <time>2019-10-27T14:28:19.000Z</time>
      </trkpt>
      <trkpt lat="45.56636" lon="5.73318">
        <ele>619</ele>
        <time>2019-10-27T14:28:20.000Z</time>
      </trkpt>
      <trkpt lat="45.56635" lon="5.73317">
        <ele>619</ele>
        <time>2019-10-27T14:28:21.000Z</time>
      </trkpt>
      <trkpt lat="45.56634" lon="5.73315">
        <ele>619</ele>
        <time>2019-10-27T14:28:22.000Z</time>
      </trkpt>
      <trkpt lat="45.56633" lon="5.73314">
        <ele>619</ele>
        <time>2019-10-27T14:28:23.000Z</time>
      </trkpt>
      <trkpt lat="45.56632" lon="5.73313">
        <ele>619</ele>
        <time>2019-10-27T14:28:24.000Z</time>
      </trkpt>
      <trkpt lat="45.56631" lon="5.73312">
        <ele>619</ele>
        <time>2019-10-27T14:28:25.000Z</time>
      </trkpt>
      <trkpt lat="45.56629" lon="5.73311">
        <ele>619</ele>
        <time>2019-10-27T14:28:26.000Z</time>
      </trkpt>
      <trkpt lat="45.56628" lon="5.7331">
        <ele>619</ele>
        <time>2019-10-27T14:28:27.000Z</time>
      </trkpt>
      <trkpt lat="45.56627" lon="5.73308">
        <ele>619</ele>
        <time>2019-10-27T14:28:28.000Z</time>
      </trkpt>
      <trkpt lat="45.56626" lon="5.73307">
        <ele>619</ele>
        <time>2019-10-27T14:28:29.000Z</time>
      </trkpt>
      <trkpt lat="45.56625" lon="5.73306">
        <ele>619</ele>
        <time>2019-10-27T14:28:30.000Z</time>
      </trkpt>
      <trkpt lat="45.56625" lon="5.73304">
        <ele>619</ele>
        <time>2019-10-27T14:28:31.000Z</time>
      </trkpt>
      <trkpt lat="45.56624" lon="5.73303">
        <ele>619</ele>
        <time>2019-10-27T14:28:32.000Z</time>
      </trkpt>
      <trkpt lat="45.56623" lon="5.73302">
        <ele>619</ele>
        <time>2019-10-27T14:28:33.000Z</time>
      </trkpt>
      <trkpt lat="45.56622" lon="5.73301">
        <ele>619</ele>
        <time>2019-10-27T14:28:34.000Z</time>
      </trkpt>
      <trkpt lat="45.56622" lon="5.733">
        <ele>619</ele>
        <time>2019-10-27T14:28:35.000Z</time>
      </trkpt>
      <trkpt lat="45.56621" lon="5.73299">
        <ele>619</ele>
        <time>2019-10-27T14:28:36.000Z</time>
      </trkpt>
      <trkpt lat="45.5662" lon="5.73298">
        <ele>619</ele>
        <time>2019-10-27T14:28:37.000Z</time>
      </trkpt>
      <trkpt lat="45.56619" lon="5.73298">
        <ele>619</ele>
        <time>2019-10-27T14:28:38.000Z</time>
      </trkpt>
      <trkpt lat="45.56618" lon="5.73298">
        <ele>619</ele>
        <time>2019-10-27T14:28:39.000Z</time>
      </trkpt>
      <trkpt lat="45.56617" lon="5.73297">
        <ele>619</ele>
        <time>2019-10-27T14:28:40.000Z</time>
      </trkpt>
      <trkpt lat="45.56616" lon="5.73297">
        <ele>619</ele>
        <time>2019-10-27T14:28:41.000Z</time>
      </trkpt>
      <trkpt lat="45.56615" lon="5.73297">
        <ele>619</ele>
        <time>2019-10-27T14:28:42.000Z</time>
      </trkpt>
      <trkpt lat="45.56615" lon="5.73297">
        <ele>619</ele>
        <time>2019-10-27T14:28:43.000Z</time>
      </trkpt>
      <trkpt lat="45.56615" lon="5.73297">
        <ele>619</ele>
        <time>2019-10-27T14:28:44.000Z</time>
      </trkpt>
      <trkpt lat="45.56615" lon="5.73297">
        <ele>619</ele>
        <time>2019-10-27T14:28:45.000Z</time>
      </trkpt>
      <trkpt lat="45.56615" lon="5.73297">
        <ele>619</ele>
        <time>2019-10-27T14:28:46.000Z</time>
      </trkpt>
      <trkpt lat="45.56615" lon="5.73297">
        <ele>619</ele>
        <time>2019-10-27T14:28:47.000Z</time>
      </trkpt>
      <trkpt lat="45.56615" lon="5.73297">
        <ele>619</ele>
        <time>2019-10-27T14:28:48.000Z</time>
      </trkpt>
      <trkpt lat="45.56614" lon="5.73297">
        <ele>619</ele>
        <time>2019-10-27T14:28:49.000Z</time>
      </trkpt>
      <trkpt lat="45.56614" lon="5.73297">
        <ele>619</ele>
        <time>2019-10-27T14:28:50.000Z</time>
      </trkpt>
      <trkpt lat="45.56613" lon="5.73297">
        <ele>619</ele>
        <time>2019-10-27T14:28:51.000Z</time>
      </trkpt>
      <trkpt lat="45.56613" lon="5.73296">
        <ele>619</ele>
        <time>2019-10-27T14:28:52.000Z</time>
      </trkpt>
      <trkpt lat="45.56612" lon="5.73296">
        <ele>619</ele>
        <time>2019-10-27T14:28:53.000Z</time>
      </trkpt>
      <trkpt lat="45.56612" lon="5.73296">
        <ele>619</ele>
        <time>2019-10-27T14:28:54.000Z</time>
      </trkpt>
      <trkpt lat="45.56611" lon="5.73296">
        <ele>619</ele>
        <time>2019-10-27T14:28:55.000Z</time>
      </trkpt>
      <trkpt lat="45.5661" lon="5.73296">
        <ele>619</ele>
        <time>2019-10-27T14:28:56.000Z</time>
      </trkpt>
      <trkpt lat="45.5661" lon="5.73296">
        <ele>619</ele>
        <time>2019-10-27T14:28:57.000Z</time>
      </trkpt>
      <trkpt lat="45.56609" lon="5.73296">
        <ele>619</ele>
        <time>2019-10-27T14:28:58.000Z</time>
      </trkpt>
      <trkpt lat="45.56609" lon="5.73295">
        <ele>619</ele>
        <time>2019-10-27T14:28:59.000Z</time>
      </trkpt>
      <trkpt lat="45.56608" lon="5.73295">
        <ele>619</ele>
        <time>2019-10-27T14:29:00.000Z</time>
      </trkpt>
      <trkpt lat="45.56608" lon="5.73295">
        <ele>619</ele>
        <time>2019-10-27T14:29:01.000Z</time>
      </trkpt>
      <trkpt lat="45.56608" lon="5.73294">
        <ele>619</ele>
        <time>2019-10-27T14:29:02.000Z</time>
      </trkpt>
      <trkpt lat="45.56607" lon="5.73294">
        <ele>619</ele>
        <time>2019-10-27T14:29:03.000Z</time>
      </trkpt>
      <trkpt lat="45.56607" lon="5.73293">
        <ele>619</ele>
        <time>2019-10-27T14:29:04.000Z</time>
      </trkpt>
      <trkpt lat="45.56607" lon="5.73293">
        <ele>619</ele>
        <time>2019-10-27T14:29:05.000Z</time>
      </trkpt>
      <trkpt lat="45.56607" lon="5.73292">
        <ele>619</ele>
        <time>2019-10-27T14:29:06.000Z</time>
      </trkpt>
      <trkpt lat="45.56607" lon="5.73291">
        <ele>619</ele>
        <time>2019-10-27T14:29:07.000Z</time>
      </trkpt>
      <trkpt lat="45.56607" lon="5.73291">
        <ele>619</ele>
        <time>2019-10-27T14:29:08.000Z</time>
      </trkpt>
      <trkpt lat="45.56607" lon="5.7329">
        <ele>619</ele>
        <time>2019-10-27T14:29:09.000Z</time>
      </trkpt>
      <trkpt lat="45.56607" lon="5.7329">
        <ele>619</ele>
        <time>2019-10-27T14:29:10.000Z</time>
      </trkpt>
      <trkpt lat="45.56608" lon="5.73289">
        <ele>619</ele>
        <time>2019-10-27T14:29:11.000Z</time>
      </trkpt>
      <trkpt lat="45.56608" lon="5.73288">
        <ele>619</ele>
        <time>2019-10-27T14:29:12.000Z</time>
      </trkpt>
      <trkpt lat="45.56608" lon="5.73288">
        <ele>619</ele>
        <time>2019-10-27T14:29:13.000Z</time>
      </trkpt>
      <trkpt lat="45.56609" lon="5.73287">
        <ele>619</ele>
        <time>2019-10-27T14:29:14.000Z</time>
      </trkpt>
      <trkpt lat="45.56609" lon="5.73286">
        <ele>619</ele>
        <time>2019-10-27T14:29:15.000Z</time>
      </trkpt>
      <trkpt lat="45.5661" lon="5.73285">
        <ele>619</ele>
        <time>2019-10-27T14:29:16.000Z</time>
      </trkpt>
      <trkpt lat="45.56611" lon="5.73284">
        <ele>619</ele>
        <time>2019-10-27T14:29:17.000Z</time>
      </trkpt>
      <trkpt lat="45.56612" lon="5.73283">
        <ele>619</ele>
        <time>2019-10-27T14:29:18.000Z</time>
      </trkpt>
      <trkpt lat="45.56614" lon="5.73282">
        <ele>619</ele>
        <time>2019-10-27T14:29:19.000Z</time>
      </trkpt>
      <trkpt lat="45.56615" lon="5.73281">
        <ele>619</ele>
        <time>2019-10-27T14:29:20.000Z</time>
      </trkpt>
      <trkpt lat="45.56616" lon="5.73281">
        <ele>619</ele>
        <time>2019-10-27T14:29:21.000Z</time>
      </trkpt>
      <trkpt lat="45.56617" lon="5.7328">
        <ele>619</ele>
        <time>2019-10-27T14:29:22.000Z</time>
      </trkpt>
      <trkpt lat="45.56617" lon="5.7328">
        <ele>619</ele>
        <time>2019-10-27T14:29:23.000Z</time>
      </trkpt>
      <trkpt lat="45.56617" lon="5.7328">
        <ele>619</ele>
        <time>2019-10-27T14:29:24.000Z</time>
      </trkpt>
      <trkpt lat="45.56617" lon="5.73281">
        <ele>619</ele>
        <time>2019-10-27T14:29:25.000Z</time>
      </trkpt>
      <trkpt lat="45.56616" lon="5.73281">
        <ele>619</ele>
        <time>2019-10-27T14:29:26.000Z</time>
      </trkpt>
      <trkpt lat="45.56616" lon="5.73282">
        <ele>619</ele>
        <time>2019-10-27T14:29:27.000Z</time>
      </trkpt>
      <trkpt lat="45.56615" lon="5.73283">
        <ele>619</ele>
        <time>2019-10-27T14:29:28.000Z</time>
      </trkpt>
      <trkpt lat="45.56615" lon="5.73284">
        <ele>619</ele>
        <time>2019-10-27T14:29:29.000Z</time>
      </trkpt>
      <trkpt lat="45.56614" lon="5.73285">
        <ele>619</ele>
        <time>2019-10-27T14:29:30.000Z</time>
      </trkpt>
      <trkpt lat="45.56614" lon="5.73286">
        <ele>619</ele>
        <time>2019-10-27T14:29:31.000Z</time>
      </trkpt>
      <trkpt lat="45.56613" lon="5.73286">
        <ele>619</ele>
        <time>2019-10-27T14:29:32.000Z</time>
      </trkpt>
      <trkpt lat="45.56613" lon="5.73287">
        <ele>619</ele>
        <time>2019-10-27T14:29:33.000Z</time>
      </trkpt>
      <trkpt lat="45.56613" lon="5.73287">
        <ele>619</ele>
        <time>2019-10-27T14:29:34.000Z</time>
      </trkpt>
      <trkpt lat="45.56613" lon="5.73287">
        <ele>619</ele>
        <time>2019-10-27T14:29:35.000Z</time>
      </trkpt>
      <trkpt lat="45.56613" lon="5.73287">
        <ele>619</ele>
        <time>2019-10-27T14:29:36.000Z</time>
      </trkpt>
      <trkpt lat="45.56613" lon="5.73287">
        <ele>619</ele>
        <time>2019-10-27T14:29:37.000Z</time>
      </trkpt>
      <trkpt lat="45.56613" lon="5.73287">
        <ele>619</ele>
        <time>2019-10-27T14:29:38.000Z</time>
      </trkpt>
      <trkpt lat="45.56614" lon="5.73287">
        <ele>619</ele>
        <time>2019-10-27T14:29:39.000Z</time>
      </trkpt>
      <trkpt lat="45.56614" lon="5.73286">
        <ele>619</ele>
        <time>2019-10-27T14:29:40.000Z</time>
      </trkpt>
      <trkpt lat="45.56614" lon="5.73286">
        <ele>619</ele>
        <time>2019-10-27T14:29:41.000Z</time>
      </trkpt>
      <trkpt lat="45.56614" lon="5.73286">
        <ele>619</ele>
        <time>2019-10-27T14:29:42.000Z</time>
      </trkpt>
      <trkpt lat="45.56614" lon="5.73285">
        <ele>619</ele>
        <time>2019-10-27T14:29:43.000Z</time>
      </trkpt>
      <trkpt lat="45.56614" lon="5.73285">
        <ele>619</ele>
        <time>2019-10-27T14:29:44.000Z</time>
      </trkpt>
      <trkpt lat="45.56614" lon="5.73285">
        <ele>619</ele>
        <time>2019-10-27T14:29:45.000Z</time>
      </trkpt>
      <trkpt lat="45.56614" lon="5.73285">
        <ele>619</ele>
        <time>2019-10-27T14:29:46.000Z</time>
      </trkpt>
      <trkpt lat="45.56615" lon="5.73285">
        <ele>619</ele>
        <time>2019-10-27T14:29:47.000Z</time>
      </trkpt>
      <trkpt lat="45.56615" lon="5.73284">
        <ele>619</ele>
        <time>2019-10-27T14:29:48.000Z</time>
      </trkpt>
      <trkpt lat="45.56615" lon="5.73283">
        <ele>619</ele>
        <time>2019-10-27T14:29:49.000Z</time>
      </trkpt>
      <trkpt lat="45.56616" lon="5.73282">
        <ele>618.5</ele>
        <time>2019-10-27T14:29:50.000Z</time>
      </trkpt>
      <trkpt lat="45.56616" lon="5.73281">
        <ele>618</ele>
        <time>2019-10-27T14:29:51.000Z</time>
      </trkpt>
      <trkpt lat="45.56617" lon="5.7328">
        <ele>618</ele>
        <time>2019-10-27T14:29:52.000Z</time>
      </trkpt>
      <trkpt lat="45.56617" lon="5.7328">
        <ele>619</ele>
        <time>2019-10-27T14:29:53.000Z</time>
      </trkpt>
      <trkpt lat="45.56617" lon="5.73279">
        <ele>619</ele>
        <time>2019-10-27T14:29:54.000Z</time>
      </trkpt>
      <trkpt lat="45.56618" lon="5.73279">
        <ele>619</ele>
        <time>2019-10-27T14:29:55.000Z</time>
      </trkpt>
      <trkpt lat="45.56618" lon="5.73279">
        <ele>619</ele>
        <time>2019-10-27T14:29:56.000Z</time>
      </trkpt>
      <trkpt lat="45.56618" lon="5.73279">
        <ele>619</ele>
        <time>2019-10-27T14:29:57.000Z</time>
      </trkpt>
      <trkpt lat="45.56617" lon="5.73279">
        <ele>619</ele>
        <time>2019-10-27T14:29:58.000Z</time>
      </trkpt>
      <trkpt lat="45.56617" lon="5.73279">
        <ele>619</ele>
        <time>2019-10-27T14:29:59.000Z</time>
      </trkpt>
      <trkpt lat="45.56617" lon="5.7328">
        <ele>619</ele>
        <time>2019-10-27T14:30:00.000Z</time>
      </trkpt>
      <trkpt lat="45.56617" lon="5.7328">
        <ele>619</ele>
        <time>2019-10-27T14:30:01.000Z</time>
      </trkpt>
      <trkpt lat="45.56616" lon="5.7328">
        <ele>619</ele>
        <time>2019-10-27T14:30:02.000Z</time>
      </trkpt>
      <trkpt lat="45.56616" lon="5.73281">
        <ele>619</ele>
        <time>2019-10-27T14:30:03.000Z</time>
      </trkpt>
      <trkpt lat="45.56616" lon="5.73281">
        <ele>619</ele>
        <time>2019-10-27T14:30:04.000Z</time>
      </trkpt>
      <trkpt lat="45.56615" lon="5.73282">
        <ele>619</ele>
        <time>2019-10-27T14:30:05.000Z</time>
      </trkpt>
      <trkpt lat="45.56615" lon="5.73282">
        <ele>619</ele>
        <time>2019-10-27T14:30:06.000Z</time>
      </trkpt>
      <trkpt lat="45.56614" lon="5.73283">
        <ele>619</ele>
        <time>2019-10-27T14:30:07.000Z</time>
      </trkpt>
      <trkpt lat="45.56614" lon="5.73284">
        <ele>619</ele>
        <time>2019-10-27T14:30:08.000Z</time>
      </trkpt>
      <trkpt lat="45.56613" lon="5.73284">
        <ele>619</ele>
        <time>2019-10-27T14:30:09.000Z</time>
      </trkpt>
      <trkpt lat="45.56613" lon="5.73285">
        <ele>619</ele>
        <time>2019-10-27T14:30:10.000Z</time>
      </trkpt>
      <trkpt lat="45.56612" lon="5.73286">
        <ele>619</ele>
        <time>2019-10-27T14:30:11.000Z</time>
      </trkpt>
      <trkpt lat="45.56612" lon="5.73287">
        <ele>619</ele>
        <time>2019-10-27T14:30:12.000Z</time>
      </trkpt>
      <trkpt lat="45.56611" lon="5.73288">
        <ele>619</ele>
        <time>2019-10-27T14:30:13.000Z</time>
      </trkpt>
      <trkpt lat="45.56611" lon="5.73288">
        <ele>619</ele>
        <time>2019-10-27T14:30:14.000Z</time>
      </trkpt>
      <trkpt lat="45.5661" lon="5.73289">
        <ele>619</ele>
        <time>2019-10-27T14:30:15.000Z</time>
      </trkpt>
      <trkpt lat="45.5661" lon="5.7329">
        <ele>619</ele>
        <time>2019-10-27T14:30:16.000Z</time>
      </trkpt>
      <trkpt lat="45.56609" lon="5.7329">
        <ele>619</ele>
        <time>2019-10-27T14:30:17.000Z</time>
      </trkpt>
      <trkpt lat="45.56609" lon="5.73291">
        <ele>619</ele>
        <time>2019-10-27T14:30:18.000Z</time>
      </trkpt>
      <trkpt lat="45.56609" lon="5.73292">
        <ele>619</ele>
        <time>2019-10-27T14:30:19.000Z</time>
      </trkpt>
      <trkpt lat="45.56609" lon="5.73292">
        <ele>619</ele>
        <time>2019-10-27T14:30:20.000Z</time>
      </trkpt>
      <trkpt lat="45.56609" lon="5.73292">
        <ele>619</ele>
        <time>2019-10-27T14:30:21.000Z</time>
      </trkpt>
      <trkpt lat="45.56609" lon="5.73293">
        <ele>619</ele>
        <time>2019-10-27T14:30:22.000Z</time>
      </trkpt>
      <trkpt lat="45.56609" lon="5.73293">
        <ele>619</ele>
        <time>2019-10-27T14:30:23.000Z</time>
      </trkpt>
      <trkpt lat="45.56609" lon="5.73293">
        <ele>619</ele>
        <time>2019-10-27T14:30:24.000Z</time>
      </trkpt>
      <trkpt lat="45.56609" lon="5.73293">
        <ele>619</ele>
        <time>2019-10-27T14:30:25.000Z</time>
      </trkpt>
      <trkpt lat="45.5661" lon="5.73293">
        <ele>619</ele>
        <time>2019-10-27T14:30:26.000Z</time>
      </trkpt>
      <trkpt lat="45.5661" lon="5.73293">
        <ele>619</ele>
        <time>2019-10-27T14:30:27.000Z</time>
      </trkpt>
      <trkpt lat="45.5661" lon="5.73293">
        <ele>619</ele>
        <time>2019-10-27T14:30:28.000Z</time>
      </trkpt>
      <trkpt lat="45.5661" lon="5.73293">
        <ele>619</ele>
        <time>2019-10-27T14:30:29.000Z</time>
      </trkpt>
      <trkpt lat="45.5661" lon="5.73293">
        <ele>619</ele>
        <time>2019-10-27T14:30:30.000Z</time>
      </trkpt>
      <trkpt lat="45.5661" lon="5.73293">
        <ele>619</ele>
        <time>2019-10-27T14:30:31.000Z</time>
      </trkpt>
      <trkpt lat="45.5661" lon="5.73293">
        <ele>619</ele>
        <time>2019-10-27T14:30:32.000Z</time>
      </trkpt>
      <trkpt lat="45.5661" lon="5.73293">
        <ele>619</ele>
        <time>2019-10-27T14:30:33.000Z</time>
      </trkpt>
      <trkpt lat="45.5661" lon="5.73293">
        <ele>619</ele>
        <time>2019-10-27T14:30:34.000Z</time>
      </trkpt>
      <trkpt lat="45.5661" lon="5.73294">
        <ele>619</ele>
        <time>2019-10-27T14:30:35.000Z</time>
      </trkpt>
      <trkpt lat="45.56609" lon="5.73295">
        <ele>619</ele>
        <time>2019-10-27T14:30:36.000Z</time>
      </trkpt>
      <trkpt lat="45.56608" lon="5.73296">
        <ele>619</ele>
        <time>2019-10-27T14:30:37.000Z</time>
      </trkpt>
      <trkpt lat="45.56607" lon="5.73297">
        <ele>619</ele>
        <time>2019-10-27T14:30:38.000Z</time>
      </trkpt>
      <trkpt lat="45.56606" lon="5.73299">
        <ele>619</ele>
        <time>2019-10-27T14:30:39.000Z</time>
      </trkpt>
      <trkpt lat="45.56605" lon="5.733">
        <ele>619</ele>
        <time>2019-10-27T14:30:40.000Z</time>
      </trkpt>
      <trkpt lat="45.56604" lon="5.73302">
        <ele>619</ele>
        <time>2019-10-27T14:30:41.000Z</time>
      </trkpt>
      <trkpt lat="45.56603" lon="5.73303">
        <ele>619</ele>
        <time>2019-10-27T14:30:42.000Z</time>
      </trkpt>
      <trkpt lat="45.56603" lon="5.73304">
        <ele>618</ele>
        <time>2019-10-27T14:30:43.000Z</time>
      </trkpt>
      <trkpt lat="45.56602" lon="5.73306">
        <ele>618</ele>
        <time>2019-10-27T14:30:44.000Z</time>
      </trkpt>
      <trkpt lat="45.56601" lon="5.73307">
        <ele>618</ele>
        <time>2019-10-27T14:30:45.000Z</time>
      </trkpt>
      <trkpt lat="45.566" lon="5.73307">
        <ele>618</ele>
        <time>2019-10-27T14:30:46.000Z</time>
      </trkpt>
      <trkpt lat="45.56599" lon="5.73308">
        <ele>618</ele>
        <time>2019-10-27T14:30:47.000Z</time>
      </trkpt>
      <trkpt lat="45.56599" lon="5.73309">
        <ele>618</ele>
        <time>2019-10-27T14:30:48.000Z</time>
      </trkpt>
      <trkpt lat="45.56598" lon="5.73309">
        <ele>618</ele>
        <time>2019-10-27T14:30:49.000Z</time>
      </trkpt>
      <trkpt lat="45.56598" lon="5.73309">
        <ele>618</ele>
        <time>2019-10-27T14:30:50.000Z</time>
      </trkpt>
      <trkpt lat="45.56597" lon="5.7331">
        <ele>617</ele>
        <time>2019-10-27T14:30:51.000Z</time>
      </trkpt>
      <trkpt lat="45.56597" lon="5.7331">
        <ele>617</ele>
        <time>2019-10-27T14:30:52.000Z</time>
      </trkpt>
      <trkpt lat="45.56596" lon="5.7331">
        <ele>617</ele>
        <time>2019-10-27T14:30:53.000Z</time>
      </trkpt>
      <trkpt lat="45.56596" lon="5.73311">
        <ele>617</ele>
        <time>2019-10-27T14:30:54.000Z</time>
      </trkpt>
      <trkpt lat="45.56595" lon="5.73311">
        <ele>617</ele>
        <time>2019-10-27T14:30:55.000Z</time>
      </trkpt>
      <trkpt lat="45.56595" lon="5.73311">
        <ele>616.7</ele>
        <time>2019-10-27T14:30:56.000Z</time>
      </trkpt>
      <trkpt lat="45.56594" lon="5.73312">
        <ele>616.3</ele>
        <time>2019-10-27T14:30:57.000Z</time>
      </trkpt>
      <trkpt lat="45.56594" lon="5.73312">
        <ele>616</ele>
        <time>2019-10-27T14:30:58.000Z</time>
      </trkpt>
      <trkpt lat="45.56593" lon="5.73313">
        <ele>616</ele>
        <time>2019-10-27T14:30:59.000Z</time>
      </trkpt>
      <trkpt lat="45.56593" lon="5.73313">
        <ele>616</ele>
        <time>2019-10-27T14:31:00.000Z</time>
      </trkpt>
      <trkpt lat="45.56592" lon="5.73314">
        <ele>616</ele>
        <time>2019-10-27T14:31:01.000Z</time>
      </trkpt>
      <trkpt lat="45.56592" lon="5.73315">
        <ele>616</ele>
        <time>2019-10-27T14:31:02.000Z</time>
      </trkpt>
      <trkpt lat="45.56591" lon="5.73316">
        <ele>616</ele>
        <time>2019-10-27T14:31:03.000Z</time>
      </trkpt>
      <trkpt lat="45.5659" lon="5.73317">
        <ele>616</ele>
        <time>2019-10-27T14:31:04.000Z</time>
      </trkpt>
      <trkpt lat="45.56588" lon="5.73319">
        <ele>615</ele>
        <time>2019-10-27T14:31:05.000Z</time>
      </trkpt>
      <trkpt lat="45.56587" lon="5.73321">
        <ele>615</ele>
        <time>2019-10-27T14:31:06.000Z</time>
      </trkpt>
      <trkpt lat="45.56585" lon="5.73323">
        <ele>615</ele>
        <time>2019-10-27T14:31:07.000Z</time>
      </trkpt>
      <trkpt lat="45.56583" lon="5.73325">
        <ele>615</ele>
        <time>2019-10-27T14:31:08.000Z</time>
      </trkpt>
      <trkpt lat="45.56581" lon="5.73327">
        <ele>615</ele>
        <time>2019-10-27T14:31:09.000Z</time>
      </trkpt>
      <trkpt lat="45.5658" lon="5.73329">
        <ele>614.7</ele>
        <time>2019-10-27T14:31:10.000Z</time>
      </trkpt>
      <trkpt lat="45.56579" lon="5.7333">
        <ele>614.3</ele>
        <time>2019-10-27T14:31:11.000Z</time>
      </trkpt>
      <trkpt lat="45.56578" lon="5.73331">
        <ele>614</ele>
        <time>2019-10-27T14:31:12.000Z</time>
      </trkpt>
      <trkpt lat="45.56577" lon="5.73332">
        <ele>614</ele>
        <time>2019-10-27T14:31:13.000Z</time>
      </trkpt>
      <trkpt lat="45.56576" lon="5.73332">
        <ele>614</ele>
        <time>2019-10-27T14:31:14.000Z</time>
      </trkpt>
      <trkpt lat="45.56575" lon="5.73332">
        <ele>614</ele>
        <time>2019-10-27T14:31:15.000Z</time>
      </trkpt>
      <trkpt lat="45.56575" lon="5.73333">
        <ele>614</ele>
        <time>2019-10-27T14:31:16.000Z</time>
      </trkpt>
      <trkpt lat="45.56574" lon="5.73333">
        <ele>614</ele>
        <time>2019-10-27T14:31:17.000Z</time>
      </trkpt>
      <trkpt lat="45.56574" lon="5.73333">
        <ele>613.7</ele>
        <time>2019-10-27T14:31:18.000Z</time>
      </trkpt>
      <trkpt lat="45.56573" lon="5.73334">
        <ele>613.3</ele>
        <time>2019-10-27T14:31:19.000Z</time>
      </trkpt>
      <trkpt lat="45.56573" lon="5.73334">
        <ele>613</ele>
        <time>2019-10-27T14:31:20.000Z</time>
      </trkpt>
      <trkpt lat="45.56572" lon="5.73335">
        <ele>613</ele>
        <time>2019-10-27T14:31:21.000Z</time>
      </trkpt>
      <trkpt lat="45.56572" lon="5.73335">
        <ele>613</ele>
        <time>2019-10-27T14:31:22.000Z</time>
      </trkpt>
      <trkpt lat="45.56571" lon="5.73336">
        <ele>613</ele>
        <time>2019-10-27T14:31:23.000Z</time>
      </trkpt>
      <trkpt lat="45.56571" lon="5.73336">
        <ele>613</ele>
        <time>2019-10-27T14:31:24.000Z</time>
      </trkpt>
      <trkpt lat="45.5657" lon="5.73337">
        <ele>613</ele>
        <time>2019-10-27T14:31:25.000Z</time>
      </trkpt>
      <trkpt lat="45.5657" lon="5.73338">
        <ele>613</ele>
        <time>2019-10-27T14:31:26.000Z</time>
      </trkpt>
      <trkpt lat="45.56569" lon="5.73339">
        <ele>613</ele>
        <time>2019-10-27T14:31:27.000Z</time>
      </trkpt>
      <trkpt lat="45.56569" lon="5.7334">
        <ele>612.7</ele>
        <time>2019-10-27T14:31:28.000Z</time>
      </trkpt>
      <trkpt lat="45.56569" lon="5.73341">
        <ele>612.3</ele>
        <time>2019-10-27T14:31:29.000Z</time>
      </trkpt>
      <trkpt lat="45.56568" lon="5.73342">
        <ele>612</ele>
        <time>2019-10-27T14:31:30.000Z</time>
      </trkpt>
      <trkpt lat="45.56568" lon="5.73344">
        <ele>612</ele>
        <time>2019-10-27T14:31:31.000Z</time>
      </trkpt>
      <trkpt lat="45.56567" lon="5.73345">
        <ele>612</ele>
        <time>2019-10-27T14:31:32.000Z</time>
      </trkpt>
      <trkpt lat="45.56567" lon="5.73347">
        <ele>612</ele>
        <time>2019-10-27T14:31:33.000Z</time>
      </trkpt>
      <trkpt lat="45.56567" lon="5.73348">
        <ele>611.5</ele>
        <time>2019-10-27T14:31:34.000Z</time>
      </trkpt>
      <trkpt lat="45.56566" lon="5.7335">
        <ele>611</ele>
        <time>2019-10-27T14:31:35.000Z</time>
      </trkpt>
      <trkpt lat="45.56566" lon="5.73352">
        <ele>611</ele>
        <time>2019-10-27T14:31:36.000Z</time>
      </trkpt>
      <trkpt lat="45.56566" lon="5.73353">
        <ele>611</ele>
        <time>2019-10-27T14:31:37.000Z</time>
      </trkpt>
      <trkpt lat="45.56566" lon="5.73355">
        <ele>611</ele>
        <time>2019-10-27T14:31:38.000Z</time>
      </trkpt>
      <trkpt lat="45.56565" lon="5.73357">
        <ele>611</ele>
        <time>2019-10-27T14:31:39.000Z</time>
      </trkpt>
      <trkpt lat="45.56565" lon="5.73358">
        <ele>611</ele>
        <time>2019-10-27T14:31:40.000Z</time>
      </trkpt>
      <trkpt lat="45.56565" lon="5.7336">
        <ele>611</ele>
        <time>2019-10-27T14:31:41.000Z</time>
      </trkpt>
      <trkpt lat="45.56565" lon="5.73361">
        <ele>611</ele>
        <time>2019-10-27T14:31:42.000Z</time>
      </trkpt>
      <trkpt lat="45.56566" lon="5.73362">
        <ele>611</ele>
        <time>2019-10-27T14:31:43.000Z</time>
      </trkpt>
      <trkpt lat="45.56566" lon="5.73363">
        <ele>611</ele>
        <time>2019-10-27T14:31:44.000Z</time>
      </trkpt>
      <trkpt lat="45.56567" lon="5.73364">
        <ele>611</ele>
        <time>2019-10-27T14:31:45.000Z</time>
      </trkpt>
      <trkpt lat="45.56567" lon="5.73364">
        <ele>611</ele>
        <time>2019-10-27T14:31:46.000Z</time>
      </trkpt>
      <trkpt lat="45.56568" lon="5.73364">
        <ele>611</ele>
        <time>2019-10-27T14:31:47.000Z</time>
      </trkpt>
      <trkpt lat="45.56569" lon="5.73364">
        <ele>611</ele>
        <time>2019-10-27T14:31:48.000Z</time>
      </trkpt>
      <trkpt lat="45.56569" lon="5.73364">
        <ele>611</ele>
        <time>2019-10-27T14:31:49.000Z</time>
      </trkpt>
      <trkpt lat="45.5657" lon="5.73364">
        <ele>611</ele>
        <time>2019-10-27T14:31:50.000Z</time>
      </trkpt>
      <trkpt lat="45.5657" lon="5.73364">
        <ele>611</ele>
        <time>2019-10-27T14:31:51.000Z</time>
      </trkpt>
      <trkpt lat="45.5657" lon="5.73364">
        <ele>611</ele>
        <time>2019-10-27T14:31:52.000Z</time>
      </trkpt>
      <trkpt lat="45.56571" lon="5.73364">
        <ele>611</ele>
        <time>2019-10-27T14:31:53.000Z</time>
      </trkpt>
      <trkpt lat="45.56571" lon="5.73365">
        <ele>610.7</ele>
        <time>2019-10-27T14:31:54.000Z</time>
      </trkpt>
      <trkpt lat="45.56571" lon="5.73366">
        <ele>610.3</ele>
        <time>2019-10-27T14:31:55.000Z</time>
      </trkpt>
      <trkpt lat="45.56571" lon="5.73367">
        <ele>610</ele>
        <time>2019-10-27T14:31:56.000Z</time>
      </trkpt>
      <trkpt lat="45.56572" lon="5.73369">
        <ele>610</ele>
        <time>2019-10-27T14:31:57.000Z</time>
      </trkpt>
      <trkpt lat="45.56574" lon="5.73372">
        <ele>610</ele>
        <time>2019-10-27T14:31:58.000Z</time>
      </trkpt>
      <trkpt lat="45.56576" lon="5.73375">
        <ele>610</ele>
        <time>2019-10-27T14:31:59.000Z</time>
      </trkpt>
      <trkpt lat="45.56576" lon="5.73376">
        <ele>610</ele>
        <time>2019-10-27T14:32:00.000Z</time>
      </trkpt>
      <trkpt lat="45.56577" lon="5.73377">
        <ele>610</ele>
        <time>2019-10-27T14:32:01.000Z</time>
      </trkpt>
      <trkpt lat="45.56578" lon="5.73376">
        <ele>610</ele>
        <time>2019-10-27T14:32:02.000Z</time>
      </trkpt>
      <trkpt lat="45.5658" lon="5.73375">
        <ele>610</ele>
        <time>2019-10-27T14:32:03.000Z</time>
      </trkpt>
      <trkpt lat="45.56581" lon="5.73374">
        <ele>610</ele>
        <time>2019-10-27T14:32:04.000Z</time>
      </trkpt>
      <trkpt lat="45.56581" lon="5.73373">
        <ele>609</ele>
        <time>2019-10-27T14:32:05.000Z</time>
      </trkpt>
      <trkpt lat="45.56581" lon="5.73372">
        <ele>609</ele>
        <time>2019-10-27T14:32:06.000Z</time>
      </trkpt>
      <trkpt lat="45.56579" lon="5.73372">
        <ele>609</ele>
        <time>2019-10-27T14:32:07.000Z</time>
      </trkpt>
      <trkpt lat="45.56577" lon="5.73372">
        <ele>609</ele>
        <time>2019-10-27T14:32:08.000Z</time>
      </trkpt>
      <trkpt lat="45.56575" lon="5.73372">
        <ele>609</ele>
        <time>2019-10-27T14:32:09.000Z</time>
      </trkpt>
      <trkpt lat="45.56573" lon="5.73373">
        <ele>609</ele>
        <time>2019-10-27T14:32:10.000Z</time>
      </trkpt>
      <trkpt lat="45.56571" lon="5.73373">
        <ele>609</ele>
        <time>2019-10-27T14:32:11.000Z</time>
      </trkpt>
      <trkpt lat="45.5657" lon="5.73374">
        <ele>609</ele>
        <time>2019-10-27T14:32:12.000Z</time>
      </trkpt>
      <trkpt lat="45.56568" lon="5.73375">
        <ele>609</ele>
        <time>2019-10-27T14:32:13.000Z</time>
      </trkpt>
      <trkpt lat="45.56566" lon="5.73376">
        <ele>609</ele>
        <time>2019-10-27T14:32:14.000Z</time>
      </trkpt>
      <trkpt lat="45.56565" lon="5.73377">
        <ele>609</ele>
        <time>2019-10-27T14:32:15.000Z</time>
      </trkpt>
      <trkpt lat="45.56564" lon="5.73378">
        <ele>609</ele>
        <time>2019-10-27T14:32:16.000Z</time>
      </trkpt>
      <trkpt lat="45.56563" lon="5.73379">
        <ele>609</ele>
        <time>2019-10-27T14:32:17.000Z</time>
      </trkpt>
      <trkpt lat="45.56561" lon="5.7338">
        <ele>609</ele>
        <time>2019-10-27T14:32:18.000Z</time>
      </trkpt>
      <trkpt lat="45.5656" lon="5.73381">
        <ele>610</ele>
        <time>2019-10-27T14:32:19.000Z</time>
      </trkpt>
      <trkpt lat="45.56559" lon="5.73382">
        <ele>610</ele>
        <time>2019-10-27T14:32:20.000Z</time>
      </trkpt>
      <trkpt lat="45.56558" lon="5.73383">
        <ele>610</ele>
        <time>2019-10-27T14:32:21.000Z</time>
      </trkpt>
      <trkpt lat="45.56558" lon="5.73383">
        <ele>610</ele>
        <time>2019-10-27T14:32:22.000Z</time>
      </trkpt>
      <trkpt lat="45.56557" lon="5.73384">
        <ele>610</ele>
        <time>2019-10-27T14:32:23.000Z</time>
      </trkpt>
      <trkpt lat="45.56556" lon="5.73384">
        <ele>610</ele>
        <time>2019-10-27T14:32:24.000Z</time>
      </trkpt>
      <trkpt lat="45.56555" lon="5.73383">
        <ele>610</ele>
        <time>2019-10-27T14:32:25.000Z</time>
      </trkpt>
      <trkpt lat="45.56554" lon="5.73383">
        <ele>610</ele>
        <time>2019-10-27T14:32:26.000Z</time>
      </trkpt>
      <trkpt lat="45.56553" lon="5.73382">
        <ele>610</ele>
        <time>2019-10-27T14:32:27.000Z</time>
      </trkpt>
      <trkpt lat="45.56552" lon="5.7338">
        <ele>610</ele>
        <time>2019-10-27T14:32:28.000Z</time>
      </trkpt>
      <trkpt lat="45.56552" lon="5.73379">
        <ele>610</ele>
        <time>2019-10-27T14:32:29.000Z</time>
      </trkpt>
      <trkpt lat="45.56551" lon="5.73377">
        <ele>610</ele>
        <time>2019-10-27T14:32:30.000Z</time>
      </trkpt>
      <trkpt lat="45.56551" lon="5.73375">
        <ele>610</ele>
        <time>2019-10-27T14:32:31.000Z</time>
      </trkpt>
      <trkpt lat="45.56551" lon="5.73373">
        <ele>610</ele>
        <time>2019-10-27T14:32:32.000Z</time>
      </trkpt>
      <trkpt lat="45.56551" lon="5.73371">
        <ele>610.5</ele>
        <time>2019-10-27T14:32:33.000Z</time>
      </trkpt>
      <trkpt lat="45.56551" lon="5.73369">
        <ele>611</ele>
        <time>2019-10-27T14:32:34.000Z</time>
      </trkpt>
      <trkpt lat="45.56551" lon="5.73367">
        <ele>611</ele>
        <time>2019-10-27T14:32:35.000Z</time>
      </trkpt>
      <trkpt lat="45.56551" lon="5.73365">
        <ele>611</ele>
        <time>2019-10-27T14:32:36.000Z</time>
      </trkpt>
      <trkpt lat="45.56551" lon="5.73364">
        <ele>611</ele>
        <time>2019-10-27T14:32:37.000Z</time>
      </trkpt>
      <trkpt lat="45.56552" lon="5.73362">
        <ele>611</ele>
        <time>2019-10-27T14:32:38.000Z</time>
      </trkpt>
      <trkpt lat="45.56552" lon="5.7336">
        <ele>611</ele>
        <time>2019-10-27T14:32:39.000Z</time>
      </trkpt>
      <trkpt lat="45.56552" lon="5.73358">
        <ele>611</ele>
        <time>2019-10-27T14:32:40.000Z</time>
      </trkpt>
      <trkpt lat="45.56551" lon="5.73357">
        <ele>611</ele>
        <time>2019-10-27T14:32:41.000Z</time>
      </trkpt>
      <trkpt lat="45.56551" lon="5.73355">
        <ele>611</ele>
        <time>2019-10-27T14:32:42.000Z</time>
      </trkpt>
      <trkpt lat="45.56551" lon="5.73354">
        <ele>611</ele>
        <time>2019-10-27T14:32:43.000Z</time>
      </trkpt>
      <trkpt lat="45.56551" lon="5.73353">
        <ele>611</ele>
        <time>2019-10-27T14:32:44.000Z</time>
      </trkpt>
      <trkpt lat="45.56551" lon="5.73352">
        <ele>611</ele>
        <time>2019-10-27T14:32:45.000Z</time>
      </trkpt>
      <trkpt lat="45.56551" lon="5.73351">
        <ele>611</ele>
        <time>2019-10-27T14:32:46.000Z</time>
      </trkpt>
      <trkpt lat="45.5655" lon="5.7335">
        <ele>611</ele>
        <time>2019-10-27T14:32:47.000Z</time>
      </trkpt>
      <trkpt lat="45.5655" lon="5.73349">
        <ele>611</ele>
        <time>2019-10-27T14:32:48.000Z</time>
      </trkpt>
      <trkpt lat="45.5655" lon="5.73348">
        <ele>611.5</ele>
        <time>2019-10-27T14:32:49.000Z</time>
      </trkpt>
      <trkpt lat="45.56549" lon="5.73348">
        <ele>612</ele>
        <time>2019-10-27T14:32:50.000Z</time>
      </trkpt>
      <trkpt lat="45.56549" lon="5.73347">
        <ele>612</ele>
        <time>2019-10-27T14:32:51.000Z</time>
      </trkpt>
      <trkpt lat="45.56548" lon="5.73346">
        <ele>612</ele>
        <time>2019-10-27T14:32:52.000Z</time>
      </trkpt>
      <trkpt lat="45.56548" lon="5.73345">
        <ele>612</ele>
        <time>2019-10-27T14:32:53.000Z</time>
      </trkpt>
      <trkpt lat="45.56547" lon="5.73344">
        <ele>612</ele>
        <time>2019-10-27T14:32:54.000Z</time>
      </trkpt>
      <trkpt lat="45.56546" lon="5.73343">
        <ele>613</ele>
        <time>2019-10-27T14:32:55.000Z</time>
      </trkpt>
      <trkpt lat="45.56546" lon="5.73342">
        <ele>613</ele>
        <time>2019-10-27T14:32:56.000Z</time>
      </trkpt>
      <trkpt lat="45.56545" lon="5.73341">
        <ele>613</ele>
        <time>2019-10-27T14:32:57.000Z</time>
      </trkpt>
      <trkpt lat="45.56544" lon="5.7334">
        <ele>613</ele>
        <time>2019-10-27T14:32:58.000Z</time>
      </trkpt>
      <trkpt lat="45.56543" lon="5.73338">
        <ele>613</ele>
        <time>2019-10-27T14:32:59.000Z</time>
      </trkpt>
      <trkpt lat="45.56543" lon="5.73337">
        <ele>613.3</ele>
        <time>2019-10-27T14:33:00.000Z</time>
      </trkpt>
      <trkpt lat="45.56542" lon="5.73336">
        <ele>613.7</ele>
        <time>2019-10-27T14:33:01.000Z</time>
      </trkpt>
      <trkpt lat="45.56541" lon="5.73334">
        <ele>614</ele>
        <time>2019-10-27T14:33:02.000Z</time>
      </trkpt>
      <trkpt lat="45.5654" lon="5.73333">
        <ele>614</ele>
        <time>2019-10-27T14:33:03.000Z</time>
      </trkpt>
      <trkpt lat="45.56539" lon="5.73332">
        <ele>614.3</ele>
        <time>2019-10-27T14:33:04.000Z</time>
      </trkpt>
      <trkpt lat="45.56539" lon="5.7333">
        <ele>614.7</ele>
        <time>2019-10-27T14:33:05.000Z</time>
      </trkpt>
      <trkpt lat="45.56538" lon="5.73329">
        <ele>615</ele>
        <time>2019-10-27T14:33:06.000Z</time>
      </trkpt>
      <trkpt lat="45.56537" lon="5.73328">
        <ele>615</ele>
        <time>2019-10-27T14:33:07.000Z</time>
      </trkpt>
      <trkpt lat="45.56536" lon="5.73327">
        <ele>615.3</ele>
        <time>2019-10-27T14:33:08.000Z</time>
      </trkpt>
      <trkpt lat="45.56535" lon="5.73326">
        <ele>615.7</ele>
        <time>2019-10-27T14:33:09.000Z</time>
      </trkpt>
      <trkpt lat="45.56534" lon="5.73325">
        <ele>616</ele>
        <time>2019-10-27T14:33:10.000Z</time>
      </trkpt>
      <trkpt lat="45.56534" lon="5.73325">
        <ele>616</ele>
        <time>2019-10-27T14:33:11.000Z</time>
      </trkpt>
      <trkpt lat="45.56533" lon="5.73324">
        <ele>616</ele>
        <time>2019-10-27T14:33:12.000Z</time>
      </trkpt>
      <trkpt lat="45.56532" lon="5.73324">
        <ele>616</ele>
        <time>2019-10-27T14:33:13.000Z</time>
      </trkpt>
      <trkpt lat="45.56531" lon="5.73323">
        <ele>616</ele>
        <time>2019-10-27T14:33:14.000Z</time>
      </trkpt>
      <trkpt lat="45.5653" lon="5.73323">
        <ele>616.5</ele>
        <time>2019-10-27T14:33:15.000Z</time>
      </trkpt>
      <trkpt lat="45.56529" lon="5.73322">
        <ele>617</ele>
        <time>2019-10-27T14:33:16.000Z</time>
      </trkpt>
      <trkpt lat="45.56528" lon="5.73322">
        <ele>618</ele>
        <time>2019-10-27T14:33:17.000Z</time>
      </trkpt>
      <trkpt lat="45.56528" lon="5.73321">
        <ele>618</ele>
        <time>2019-10-27T14:33:18.000Z</time>
      </trkpt>
      <trkpt lat="45.56527" lon="5.7332">
        <ele>618</ele>
        <time>2019-10-27T14:33:19.000Z</time>
      </trkpt>
      <trkpt lat="45.56527" lon="5.73319">
        <ele>618</ele>
        <time>2019-10-27T14:33:20.000Z</time>
      </trkpt>
      <trkpt lat="45.56526" lon="5.73318">
        <ele>619</ele>
        <time>2019-10-27T14:33:21.000Z</time>
      </trkpt>
      <trkpt lat="45.56526" lon="5.73317">
        <ele>619</ele>
        <time>2019-10-27T14:33:22.000Z</time>
      </trkpt>
      <trkpt lat="45.56525" lon="5.73316">
        <ele>619</ele>
        <time>2019-10-27T14:33:23.000Z</time>
      </trkpt>
      <trkpt lat="45.56525" lon="5.73315">
        <ele>619</ele>
        <time>2019-10-27T14:33:24.000Z</time>
      </trkpt>
      <trkpt lat="45.56524" lon="5.73314">
        <ele>620</ele>
        <time>2019-10-27T14:33:25.000Z</time>
      </trkpt>
      <trkpt lat="45.56524" lon="5.73313">
        <ele>620</ele>
        <time>2019-10-27T14:33:26.000Z</time>
      </trkpt>
      <trkpt lat="45.56523" lon="5.73312">
        <ele>620</ele>
        <time>2019-10-27T14:33:27.000Z</time>
      </trkpt>
      <trkpt lat="45.56522" lon="5.7331">
        <ele>620</ele>
        <time>2019-10-27T14:33:28.000Z</time>
      </trkpt>
      <trkpt lat="45.56521" lon="5.73309">
        <ele>620</ele>
        <time>2019-10-27T14:33:29.000Z</time>
      </trkpt>
      <trkpt lat="45.5652" lon="5.73308">
        <ele>620</ele>
        <time>2019-10-27T14:33:30.000Z</time>
      </trkpt>
      <trkpt lat="45.56519" lon="5.73307">
        <ele>621</ele>
        <time>2019-10-27T14:33:31.000Z</time>
      </trkpt>
      <trkpt lat="45.56518" lon="5.73306">
        <ele>621</ele>
        <time>2019-10-27T14:33:32.000Z</time>
      </trkpt>
      <trkpt lat="45.56517" lon="5.73305">
        <ele>621</ele>
        <time>2019-10-27T14:33:33.000Z</time>
      </trkpt>
      <trkpt lat="45.56516" lon="5.73305">
        <ele>621</ele>
        <time>2019-10-27T14:33:34.000Z</time>
      </trkpt>
      <trkpt lat="45.56514" lon="5.73304">
        <ele>621</ele>
        <time>2019-10-27T14:33:35.000Z</time>
      </trkpt>
      <trkpt lat="45.56513" lon="5.73304">
        <ele>621</ele>
        <time>2019-10-27T14:33:36.000Z</time>
      </trkpt>
      <trkpt lat="45.56512" lon="5.73304">
        <ele>621</ele>
        <time>2019-10-27T14:33:37.000Z</time>
      </trkpt>
      <trkpt lat="45.56511" lon="5.73305">
        <ele>621</ele>
        <time>2019-10-27T14:33:38.000Z</time>
      </trkpt>
      <trkpt lat="45.5651" lon="5.73306">
        <ele>621</ele>
        <time>2019-10-27T14:33:39.000Z</time>
      </trkpt>
      <trkpt lat="45.56509" lon="5.73307">
        <ele>621</ele>
        <time>2019-10-27T14:33:40.000Z</time>
      </trkpt>
      <trkpt lat="45.56508" lon="5.73308">
        <ele>621</ele>
        <time>2019-10-27T14:33:41.000Z</time>
      </trkpt>
      <trkpt lat="45.56508" lon="5.7331">
        <ele>621.3</ele>
        <time>2019-10-27T14:33:42.000Z</time>
      </trkpt>
      <trkpt lat="45.56507" lon="5.73312">
        <ele>621.7</ele>
        <time>2019-10-27T14:33:43.000Z</time>
      </trkpt>
      <trkpt lat="45.56506" lon="5.73314">
        <ele>622</ele>
        <time>2019-10-27T14:33:44.000Z</time>
      </trkpt>
      <trkpt lat="45.56505" lon="5.73316">
        <ele>622</ele>
        <time>2019-10-27T14:33:45.000Z</time>
      </trkpt>
      <trkpt lat="45.56504" lon="5.73317">
        <ele>622</ele>
        <time>2019-10-27T14:33:46.000Z</time>
      </trkpt>
      <trkpt lat="45.56502" lon="5.73319">
        <ele>622</ele>
        <time>2019-10-27T14:33:47.000Z</time>
      </trkpt>
      <trkpt lat="45.565" lon="5.7332">
        <ele>622</ele>
        <time>2019-10-27T14:33:48.000Z</time>
      </trkpt>
      <trkpt lat="45.56498" lon="5.73322">
        <ele>622</ele>
        <time>2019-10-27T14:33:49.000Z</time>
      </trkpt>
      <trkpt lat="45.56496" lon="5.73323">
        <ele>622</ele>
        <time>2019-10-27T14:33:50.000Z</time>
      </trkpt>
      <trkpt lat="45.56494" lon="5.73325">
        <ele>622</ele>
        <time>2019-10-27T14:33:51.000Z</time>
      </trkpt>
      <trkpt lat="45.56492" lon="5.73326">
        <ele>622</ele>
        <time>2019-10-27T14:33:52.000Z</time>
      </trkpt>
      <trkpt lat="45.5649" lon="5.73327">
        <ele>622</ele>
        <time>2019-10-27T14:33:53.000Z</time>
      </trkpt>
      <trkpt lat="45.56489" lon="5.73328">
        <ele>622.3</ele>
        <time>2019-10-27T14:33:54.000Z</time>
      </trkpt>
      <trkpt lat="45.56487" lon="5.73329">
        <ele>622.7</ele>
        <time>2019-10-27T14:33:55.000Z</time>
      </trkpt>
      <trkpt lat="45.56486" lon="5.7333">
        <ele>623</ele>
        <time>2019-10-27T14:33:56.000Z</time>
      </trkpt>
      <trkpt lat="45.56485" lon="5.73331">
        <ele>623</ele>
        <time>2019-10-27T14:33:57.000Z</time>
      </trkpt>
      <trkpt lat="45.56485" lon="5.73332">
        <ele>623</ele>
        <time>2019-10-27T14:33:58.000Z</time>
      </trkpt>
      <trkpt lat="45.56484" lon="5.73332">
        <ele>623</ele>
        <time>2019-10-27T14:33:59.000Z</time>
      </trkpt>
      <trkpt lat="45.56484" lon="5.73333">
        <ele>623.3</ele>
        <time>2019-10-27T14:34:00.000Z</time>
      </trkpt>
      <trkpt lat="45.56483" lon="5.73333">
        <ele>623.7</ele>
        <time>2019-10-27T14:34:01.000Z</time>
      </trkpt>
      <trkpt lat="45.56483" lon="5.73333">
        <ele>624</ele>
        <time>2019-10-27T14:34:02.000Z</time>
      </trkpt>
      <trkpt lat="45.56483" lon="5.73334">
        <ele>624</ele>
        <time>2019-10-27T14:34:03.000Z</time>
      </trkpt>
      <trkpt lat="45.56483" lon="5.73334">
        <ele>624</ele>
        <time>2019-10-27T14:34:04.000Z</time>
      </trkpt>
      <trkpt lat="45.56483" lon="5.73334">
        <ele>624</ele>
        <time>2019-10-27T14:34:05.000Z</time>
      </trkpt>
      <trkpt lat="45.56483" lon="5.73334">
        <ele>624</ele>
        <time>2019-10-27T14:34:06.000Z</time>
      </trkpt>
      <trkpt lat="45.56482" lon="5.73334">
        <ele>624</ele>
        <time>2019-10-27T14:34:07.000Z</time>
      </trkpt>
      <trkpt lat="45.56482" lon="5.73334">
        <ele>624</ele>
        <time>2019-10-27T14:34:08.000Z</time>
      </trkpt>
      <trkpt lat="45.56481" lon="5.73335">
        <ele>624</ele>
        <time>2019-10-27T14:34:09.000Z</time>
      </trkpt>
      <trkpt lat="45.5648" lon="5.73335">
        <ele>624</ele>
        <time>2019-10-27T14:34:10.000Z</time>
      </trkpt>
      <trkpt lat="45.56479" lon="5.73336">
        <ele>625</ele>
        <time>2019-10-27T14:34:11.000Z</time>
      </trkpt>
      <trkpt lat="45.56478" lon="5.73337">
        <ele>625</ele>
        <time>2019-10-27T14:34:12.000Z</time>
      </trkpt>
      <trkpt lat="45.56477" lon="5.73337">
        <ele>625</ele>
        <time>2019-10-27T14:34:13.000Z</time>
      </trkpt>
      <trkpt lat="45.56475" lon="5.73338">
        <ele>625</ele>
        <time>2019-10-27T14:34:14.000Z</time>
      </trkpt>
      <trkpt lat="45.56474" lon="5.73339">
        <ele>625</ele>
        <time>2019-10-27T14:34:15.000Z</time>
      </trkpt>
      <trkpt lat="45.56473" lon="5.7334">
        <ele>625</ele>
        <time>2019-10-27T14:34:16.000Z</time>
      </trkpt>
      <trkpt lat="45.56471" lon="5.7334">
        <ele>625</ele>
        <time>2019-10-27T14:34:17.000Z</time>
      </trkpt>
      <trkpt lat="45.5647" lon="5.73341">
        <ele>625</ele>
        <time>2019-10-27T14:34:18.000Z</time>
      </trkpt>
      <trkpt lat="45.56469" lon="5.73341">
        <ele>624</ele>
        <time>2019-10-27T14:34:19.000Z</time>
      </trkpt>
      <trkpt lat="45.56468" lon="5.73341">
        <ele>624</ele>
        <time>2019-10-27T14:34:20.000Z</time>
      </trkpt>
      <trkpt lat="45.56467" lon="5.73342">
        <ele>624</ele>
        <time>2019-10-27T14:34:21.000Z</time>
      </trkpt>
      <trkpt lat="45.56466" lon="5.73342">
        <ele>624</ele>
        <time>2019-10-27T14:34:22.000Z</time>
      </trkpt>
      <trkpt lat="45.56465" lon="5.73342">
        <ele>624</ele>
        <time>2019-10-27T14:34:23.000Z</time>
      </trkpt>
      <trkpt lat="45.56464" lon="5.73342">
        <ele>624</ele>
        <time>2019-10-27T14:34:24.000Z</time>
      </trkpt>
      <trkpt lat="45.56464" lon="5.73343">
        <ele>624</ele>
        <time>2019-10-27T14:34:25.000Z</time>
      </trkpt>
      <trkpt lat="45.56463" lon="5.73343">
        <ele>624</ele>
        <time>2019-10-27T14:34:26.000Z</time>
      </trkpt>
      <trkpt lat="45.56462" lon="5.73343">
        <ele>624</ele>
        <time>2019-10-27T14:34:27.000Z</time>
      </trkpt>
      <trkpt lat="45.56461" lon="5.73344">
        <ele>624</ele>
        <time>2019-10-27T14:34:28.000Z</time>
      </trkpt>
      <trkpt lat="45.5646" lon="5.73344">
        <ele>623</ele>
        <time>2019-10-27T14:34:29.000Z</time>
      </trkpt>
      <trkpt lat="45.56459" lon="5.73345">
        <ele>623</ele>
        <time>2019-10-27T14:34:30.000Z</time>
      </trkpt>
      <trkpt lat="45.56458" lon="5.73346">
        <ele>623</ele>
        <time>2019-10-27T14:34:31.000Z</time>
      </trkpt>
      <trkpt lat="45.56457" lon="5.73346">
        <ele>623</ele>
        <time>2019-10-27T14:34:32.000Z</time>
      </trkpt>
      <trkpt lat="45.56456" lon="5.73347">
        <ele>623</ele>
        <time>2019-10-27T14:34:33.000Z</time>
      </trkpt>
      <trkpt lat="45.56455" lon="5.73348">
        <ele>623</ele>
        <time>2019-10-27T14:34:34.000Z</time>
      </trkpt>
      <trkpt lat="45.56454" lon="5.73348">
        <ele>623</ele>
        <time>2019-10-27T14:34:35.000Z</time>
      </trkpt>
      <trkpt lat="45.56453" lon="5.73349">
        <ele>623</ele>
        <time>2019-10-27T14:34:36.000Z</time>
      </trkpt>
      <trkpt lat="45.56452" lon="5.7335">
        <ele>623</ele>
        <time>2019-10-27T14:34:37.000Z</time>
      </trkpt>
      <trkpt lat="45.56451" lon="5.73351">
        <ele>623</ele>
        <time>2019-10-27T14:34:38.000Z</time>
      </trkpt>
      <trkpt lat="45.5645" lon="5.73351">
        <ele>623</ele>
        <time>2019-10-27T14:34:39.000Z</time>
      </trkpt>
      <trkpt lat="45.56449" lon="5.73352">
        <ele>623</ele>
        <time>2019-10-27T14:34:40.000Z</time>
      </trkpt>
      <trkpt lat="45.56447" lon="5.73352">
        <ele>623</ele>
        <time>2019-10-27T14:34:41.000Z</time>
      </trkpt>
      <trkpt lat="45.56446" lon="5.73353">
        <ele>623</ele>
        <time>2019-10-27T14:34:42.000Z</time>
      </trkpt>
      <trkpt lat="45.56445" lon="5.73353">
        <ele>623</ele>
        <time>2019-10-27T14:34:43.000Z</time>
      </trkpt>
      <trkpt lat="45.56443" lon="5.73353">
        <ele>623</ele>
        <time>2019-10-27T14:34:44.000Z</time>
      </trkpt>
      <trkpt lat="45.56441" lon="5.73353">
        <ele>623</ele>
        <time>2019-10-27T14:34:45.000Z</time>
      </trkpt>
      <trkpt lat="45.5644" lon="5.73354">
        <ele>623.3</ele>
        <time>2019-10-27T14:34:46.000Z</time>
      </trkpt>
      <trkpt lat="45.56437" lon="5.73354">
        <ele>623.7</ele>
        <time>2019-10-27T14:34:47.000Z</time>
      </trkpt>
      <trkpt lat="45.56434" lon="5.73354">
        <ele>624</ele>
        <time>2019-10-27T14:34:48.000Z</time>
      </trkpt>
      <trkpt lat="45.56431" lon="5.73355">
        <ele>624</ele>
        <time>2019-10-27T14:34:49.000Z</time>
      </trkpt>
      <trkpt lat="45.56428" lon="5.73355">
        <ele>624.3</ele>
        <time>2019-10-27T14:34:50.000Z</time>
      </trkpt>
      <trkpt lat="45.56425" lon="5.73354">
        <ele>624.7</ele>
        <time>2019-10-27T14:34:51.000Z</time>
      </trkpt>
      <trkpt lat="45.56423" lon="5.73351">
        <ele>625</ele>
        <time>2019-10-27T14:34:52.000Z</time>
      </trkpt>
      <trkpt lat="45.56423" lon="5.73345">
        <ele>625</ele>
        <time>2019-10-27T14:34:53.000Z</time>
      </trkpt>
      <trkpt lat="45.56424" lon="5.73339">
        <ele>625.3</ele>
        <time>2019-10-27T14:34:54.000Z</time>
      </trkpt>
      <trkpt lat="45.56425" lon="5.73334">
        <ele>625.7</ele>
        <time>2019-10-27T14:34:55.000Z</time>
      </trkpt>
      <trkpt lat="45.56426" lon="5.73331">
        <ele>626</ele>
        <time>2019-10-27T14:34:56.000Z</time>
      </trkpt>
      <trkpt lat="45.56427" lon="5.7333">
        <ele>626</ele>
        <time>2019-10-27T14:34:57.000Z</time>
      </trkpt>
      <trkpt lat="45.56427" lon="5.73329">
        <ele>626</ele>
        <time>2019-10-27T14:34:58.000Z</time>
      </trkpt>
      <trkpt lat="45.56428" lon="5.73328">
        <ele>626</ele>
        <time>2019-10-27T14:34:59.000Z</time>
      </trkpt>
      <trkpt lat="45.56427" lon="5.73327">
        <ele>626</ele>
        <time>2019-10-27T14:35:00.000Z</time>
      </trkpt>
      <trkpt lat="45.56427" lon="5.73326">
        <ele>626</ele>
        <time>2019-10-27T14:35:01.000Z</time>
      </trkpt>
      <trkpt lat="45.56426" lon="5.73325">
        <ele>626</ele>
        <time>2019-10-27T14:35:02.000Z</time>
      </trkpt>
      <trkpt lat="45.56426" lon="5.73323">
        <ele>626</ele>
        <time>2019-10-27T14:35:03.000Z</time>
      </trkpt>
      <trkpt lat="45.56425" lon="5.73322">
        <ele>626</ele>
        <time>2019-10-27T14:35:04.000Z</time>
      </trkpt>
      <trkpt lat="45.56424" lon="5.7332">
        <ele>626</ele>
        <time>2019-10-27T14:35:05.000Z</time>
      </trkpt>
      <trkpt lat="45.56423" lon="5.73319">
        <ele>626</ele>
        <time>2019-10-27T14:35:06.000Z</time>
      </trkpt>
      <trkpt lat="45.56421" lon="5.73318">
        <ele>627</ele>
        <time>2019-10-27T14:35:07.000Z</time>
      </trkpt>
      <trkpt lat="45.5642" lon="5.73317">
        <ele>627</ele>
        <time>2019-10-27T14:35:08.000Z</time>
      </trkpt>
      <trkpt lat="45.56419" lon="5.73316">
        <ele>627</ele>
        <time>2019-10-27T14:35:09.000Z</time>
      </trkpt>
      <trkpt lat="45.56417" lon="5.73316">
        <ele>627</ele>
        <time>2019-10-27T14:35:10.000Z</time>
      </trkpt>
      <trkpt lat="45.56415" lon="5.73316">
        <ele>627</ele>
        <time>2019-10-27T14:35:11.000Z</time>
      </trkpt>
      <trkpt lat="45.56413" lon="5.73317">
        <ele>626.7</ele>
        <time>2019-10-27T14:35:12.000Z</time>
      </trkpt>
      <trkpt lat="45.56411" lon="5.73318">
        <ele>626.3</ele>
        <time>2019-10-27T14:35:13.000Z</time>
      </trkpt>
      <trkpt lat="45.56409" lon="5.73319">
        <ele>626</ele>
        <time>2019-10-27T14:35:14.000Z</time>
      </trkpt>
      <trkpt lat="45.56407" lon="5.73319">
        <ele>626</ele>
        <time>2019-10-27T14:35:15.000Z</time>
      </trkpt>
      <trkpt lat="45.56406" lon="5.73319">
        <ele>626</ele>
        <time>2019-10-27T14:35:16.000Z</time>
      </trkpt>
      <trkpt lat="45.56404" lon="5.73318">
        <ele>626</ele>
        <time>2019-10-27T14:35:17.000Z</time>
      </trkpt>
      <trkpt lat="45.56402" lon="5.73316">
        <ele>626</ele>
        <time>2019-10-27T14:35:18.000Z</time>
      </trkpt>
      <trkpt lat="45.56401" lon="5.73313">
        <ele>626</ele>
        <time>2019-10-27T14:35:19.000Z</time>
      </trkpt>
      <trkpt lat="45.56399" lon="5.73309">
        <ele>626</ele>
        <time>2019-10-27T14:35:20.000Z</time>
      </trkpt>
      <trkpt lat="45.56398" lon="5.73306">
        <ele>626</ele>
        <time>2019-10-27T14:35:21.000Z</time>
      </trkpt>
      <trkpt lat="45.56397" lon="5.73304">
        <ele>626</ele>
        <time>2019-10-27T14:35:22.000Z</time>
      </trkpt>
      <trkpt lat="45.56397" lon="5.73303">
        <ele>626</ele>
        <time>2019-10-27T14:35:23.000Z</time>
      </trkpt>
      <trkpt lat="45.56397" lon="5.73302">
        <ele>626</ele>
        <time>2019-10-27T14:35:24.000Z</time>
      </trkpt>
      <trkpt lat="45.56396" lon="5.73302">
        <ele>626</ele>
        <time>2019-10-27T14:35:25.000Z</time>
      </trkpt>
      <trkpt lat="45.56396" lon="5.73301">
        <ele>626</ele>
        <time>2019-10-27T14:35:26.000Z</time>
      </trkpt>
      <trkpt lat="45.56396" lon="5.73301">
        <ele>626</ele>
        <time>2019-10-27T14:35:27.000Z</time>
      </trkpt>
      <trkpt lat="45.56396" lon="5.733">
        <ele>626</ele>
        <time>2019-10-27T14:35:28.000Z</time>
      </trkpt>
      <trkpt lat="45.56396" lon="5.733">
        <ele>625</ele>
        <time>2019-10-27T14:35:29.000Z</time>
      </trkpt>
      <trkpt lat="45.56395" lon="5.73299">
        <ele>625</ele>
        <time>2019-10-27T14:35:30.000Z</time>
      </trkpt>
      <trkpt lat="45.56395" lon="5.73299">
        <ele>625</ele>
        <time>2019-10-27T14:35:31.000Z</time>
      </trkpt>
      <trkpt lat="45.56395" lon="5.73298">
        <ele>625</ele>
        <time>2019-10-27T14:35:32.000Z</time>
      </trkpt>
      <trkpt lat="45.56394" lon="5.73297">
        <ele>625</ele>
        <time>2019-10-27T14:35:33.000Z</time>
      </trkpt>
      <trkpt lat="45.56394" lon="5.73295">
        <ele>625</ele>
        <time>2019-10-27T14:35:34.000Z</time>
      </trkpt>
      <trkpt lat="45.56393" lon="5.73294">
        <ele>625</ele>
        <time>2019-10-27T14:35:35.000Z</time>
      </trkpt>
      <trkpt lat="45.56393" lon="5.73294">
        <ele>625</ele>
        <time>2019-10-27T14:35:36.000Z</time>
      </trkpt>
      <trkpt lat="45.56392" lon="5.73293">
        <ele>625</ele>
        <time>2019-10-27T14:35:37.000Z</time>
      </trkpt>
      <trkpt lat="45.56391" lon="5.73292">
        <ele>625</ele>
        <time>2019-10-27T14:35:38.000Z</time>
      </trkpt>
      <trkpt lat="45.5639" lon="5.73292">
        <ele>625</ele>
        <time>2019-10-27T14:35:39.000Z</time>
      </trkpt>
      <trkpt lat="45.56389" lon="5.73292">
        <ele>625</ele>
        <time>2019-10-27T14:35:40.000Z</time>
      </trkpt>
      <trkpt lat="45.56389" lon="5.73292">
        <ele>625</ele>
        <time>2019-10-27T14:35:41.000Z</time>
      </trkpt>
      <trkpt lat="45.56387" lon="5.73292">
        <ele>624</ele>
        <time>2019-10-27T14:35:42.000Z</time>
      </trkpt>
      <trkpt lat="45.56386" lon="5.73292">
        <ele>624</ele>
        <time>2019-10-27T14:35:43.000Z</time>
      </trkpt>
      <trkpt lat="45.56385" lon="5.73292">
        <ele>624</ele>
        <time>2019-10-27T14:35:44.000Z</time>
      </trkpt>
      <trkpt lat="45.56384" lon="5.73292">
        <ele>624</ele>
        <time>2019-10-27T14:35:45.000Z</time>
      </trkpt>
      <trkpt lat="45.56383" lon="5.73293">
        <ele>624</ele>
        <time>2019-10-27T14:35:46.000Z</time>
      </trkpt>
      <trkpt lat="45.56382" lon="5.73293">
        <ele>624</ele>
        <time>2019-10-27T14:35:47.000Z</time>
      </trkpt>
      <trkpt lat="45.5638" lon="5.73294">
        <ele>624</ele>
        <time>2019-10-27T14:35:48.000Z</time>
      </trkpt>
      <trkpt lat="45.56379" lon="5.73294">
        <ele>624</ele>
        <time>2019-10-27T14:35:49.000Z</time>
      </trkpt>
      <trkpt lat="45.56378" lon="5.73295">
        <ele>623</ele>
        <time>2019-10-27T14:35:50.000Z</time>
      </trkpt>
      <trkpt lat="45.56376" lon="5.73296">
        <ele>623</ele>
        <time>2019-10-27T14:35:51.000Z</time>
      </trkpt>
      <trkpt lat="45.56375" lon="5.73297">
        <ele>623</ele>
        <time>2019-10-27T14:35:52.000Z</time>
      </trkpt>
      <trkpt lat="45.56373" lon="5.73298">
        <ele>623</ele>
        <time>2019-10-27T14:35:53.000Z</time>
      </trkpt>
      <trkpt lat="45.56372" lon="5.73299">
        <ele>623</ele>
        <time>2019-10-27T14:35:54.000Z</time>
      </trkpt>
      <trkpt lat="45.5637" lon="5.733">
        <ele>623</ele>
        <time>2019-10-27T14:35:55.000Z</time>
      </trkpt>
      <trkpt lat="45.56369" lon="5.73301">
        <ele>623</ele>
        <time>2019-10-27T14:35:56.000Z</time>
      </trkpt>
      <trkpt lat="45.56368" lon="5.73302">
        <ele>622.7</ele>
        <time>2019-10-27T14:35:57.000Z</time>
      </trkpt>
      <trkpt lat="45.56366" lon="5.73304">
        <ele>622.3</ele>
        <time>2019-10-27T14:35:58.000Z</time>
      </trkpt>
      <trkpt lat="45.56365" lon="5.73305">
        <ele>622</ele>
        <time>2019-10-27T14:35:59.000Z</time>
      </trkpt>
      <trkpt lat="45.56364" lon="5.73306">
        <ele>622</ele>
        <time>2019-10-27T14:36:00.000Z</time>
      </trkpt>
      <trkpt lat="45.56363" lon="5.73306">
        <ele>622</ele>
        <time>2019-10-27T14:36:01.000Z</time>
      </trkpt>
      <trkpt lat="45.56363" lon="5.73305">
        <ele>622</ele>
        <time>2019-10-27T14:36:02.000Z</time>
      </trkpt>
      <trkpt lat="45.56362" lon="5.73305">
        <ele>621.5</ele>
        <time>2019-10-27T14:36:03.000Z</time>
      </trkpt>
      <trkpt lat="45.56362" lon="5.73303">
        <ele>621</ele>
        <time>2019-10-27T14:36:04.000Z</time>
      </trkpt>
      <trkpt lat="45.56361" lon="5.73302">
        <ele>621</ele>
        <time>2019-10-27T14:36:05.000Z</time>
      </trkpt>
      <trkpt lat="45.56361" lon="5.73301">
        <ele>621</ele>
        <time>2019-10-27T14:36:06.000Z</time>
      </trkpt>
      <trkpt lat="45.56361" lon="5.733">
        <ele>621</ele>
        <time>2019-10-27T14:36:07.000Z</time>
      </trkpt>
      <trkpt lat="45.56361" lon="5.73299">
        <ele>621</ele>
        <time>2019-10-27T14:36:08.000Z</time>
      </trkpt>
      <trkpt lat="45.56361" lon="5.73298">
        <ele>620.7</ele>
        <time>2019-10-27T14:36:09.000Z</time>
      </trkpt>
      <trkpt lat="45.56361" lon="5.73298">
        <ele>620.3</ele>
        <time>2019-10-27T14:36:10.000Z</time>
      </trkpt>
      <trkpt lat="45.56361" lon="5.73298">
        <ele>620</ele>
        <time>2019-10-27T14:36:11.000Z</time>
      </trkpt>
      <trkpt lat="45.5636" lon="5.73298">
        <ele>620</ele>
        <time>2019-10-27T14:36:12.000Z</time>
      </trkpt>
      <trkpt lat="45.56359" lon="5.73299">
        <ele>620</ele>
        <time>2019-10-27T14:36:13.000Z</time>
      </trkpt>
      <trkpt lat="45.56358" lon="5.73299">
        <ele>620</ele>
        <time>2019-10-27T14:36:14.000Z</time>
      </trkpt>
      <trkpt lat="45.56357" lon="5.733">
        <ele>620</ele>
        <time>2019-10-27T14:36:15.000Z</time>
      </trkpt>
      <trkpt lat="45.56355" lon="5.73301">
        <ele>620</ele>
        <time>2019-10-27T14:36:16.000Z</time>
      </trkpt>
      <trkpt lat="45.56353" lon="5.73302">
        <ele>619.5</ele>
        <time>2019-10-27T14:36:17.000Z</time>
      </trkpt>
      <trkpt lat="45.56352" lon="5.73304">
        <ele>619</ele>
        <time>2019-10-27T14:36:18.000Z</time>
      </trkpt>
      <trkpt lat="45.5635" lon="5.73305">
        <ele>619</ele>
        <time>2019-10-27T14:36:19.000Z</time>
      </trkpt>
      <trkpt lat="45.56348" lon="5.73306">
        <ele>619</ele>
        <time>2019-10-27T14:36:20.000Z</time>
      </trkpt>
      <trkpt lat="45.56346" lon="5.73307">
        <ele>619</ele>
        <time>2019-10-27T14:36:21.000Z</time>
      </trkpt>
      <trkpt lat="45.56345" lon="5.73308">
        <ele>619</ele>
        <time>2019-10-27T14:36:22.000Z</time>
      </trkpt>
      <trkpt lat="45.56343" lon="5.73309">
        <ele>619</ele>
        <time>2019-10-27T14:36:23.000Z</time>
      </trkpt>
      <trkpt lat="45.56342" lon="5.7331">
        <ele>619</ele>
        <time>2019-10-27T14:36:24.000Z</time>
      </trkpt>
      <trkpt lat="45.5634" lon="5.73311">
        <ele>619</ele>
        <time>2019-10-27T14:36:25.000Z</time>
      </trkpt>
      <trkpt lat="45.56339" lon="5.73311">
        <ele>619</ele>
        <time>2019-10-27T14:36:26.000Z</time>
      </trkpt>
      <trkpt lat="45.56339" lon="5.73312">
        <ele>619</ele>
        <time>2019-10-27T14:36:27.000Z</time>
      </trkpt>
      <trkpt lat="45.56338" lon="5.73312">
        <ele>619</ele>
        <time>2019-10-27T14:36:28.000Z</time>
      </trkpt>
      <trkpt lat="45.56338" lon="5.73311">
        <ele>619</ele>
        <time>2019-10-27T14:36:29.000Z</time>
      </trkpt>
      <trkpt lat="45.56337" lon="5.73311">
        <ele>619</ele>
        <time>2019-10-27T14:36:30.000Z</time>
      </trkpt>
      <trkpt lat="45.56337" lon="5.7331">
        <ele>619</ele>
        <time>2019-10-27T14:36:31.000Z</time>
      </trkpt>
      <trkpt lat="45.56336" lon="5.73308">
        <ele>619</ele>
        <time>2019-10-27T14:36:32.000Z</time>
      </trkpt>
      <trkpt lat="45.56334" lon="5.73307">
        <ele>618.7</ele>
        <time>2019-10-27T14:36:33.000Z</time>
      </trkpt>
      <trkpt lat="45.56333" lon="5.73304">
        <ele>618.3</ele>
        <time>2019-10-27T14:36:34.000Z</time>
      </trkpt>
      <trkpt lat="45.56333" lon="5.73301">
        <ele>618</ele>
        <time>2019-10-27T14:36:35.000Z</time>
      </trkpt>
      <trkpt lat="45.56334" lon="5.73297">
        <ele>618</ele>
        <time>2019-10-27T14:36:36.000Z</time>
      </trkpt>
      <trkpt lat="45.56337" lon="5.73293">
        <ele>618</ele>
        <time>2019-10-27T14:36:37.000Z</time>
      </trkpt>
      <trkpt lat="45.56339" lon="5.7329">
        <ele>618</ele>
        <time>2019-10-27T14:36:38.000Z</time>
      </trkpt>
      <trkpt lat="45.5634" lon="5.73289">
        <ele>618</ele>
        <time>2019-10-27T14:36:39.000Z</time>
      </trkpt>
      <trkpt lat="45.56338" lon="5.7329">
        <ele>618</ele>
        <time>2019-10-27T14:36:40.000Z</time>
      </trkpt>
      <trkpt lat="45.56336" lon="5.73291">
        <ele>618</ele>
        <time>2019-10-27T14:36:44.000Z</time>
      </trkpt>
      <trkpt lat="45.56333" lon="5.73292">
        <ele>618</ele>
        <time>2019-10-27T14:36:45.000Z</time>
      </trkpt>
      <trkpt lat="45.56331" lon="5.73293">
        <ele>617.5</ele>
        <time>2019-10-27T14:36:46.000Z</time>
      </trkpt>
      <trkpt lat="45.5633" lon="5.73292">
        <ele>617</ele>
        <time>2019-10-27T14:36:47.000Z</time>
      </trkpt>
      <trkpt lat="45.56328" lon="5.73292">
        <ele>617</ele>
        <time>2019-10-27T14:36:48.000Z</time>
      </trkpt>
      <trkpt lat="45.56326" lon="5.73292">
        <ele>617</ele>
        <time>2019-10-27T14:36:49.000Z</time>
      </trkpt>
      <trkpt lat="45.56325" lon="5.73293">
        <ele>617</ele>
        <time>2019-10-27T14:36:50.000Z</time>
      </trkpt>
      <trkpt lat="45.56323" lon="5.73294">
        <ele>617</ele>
        <time>2019-10-27T14:36:51.000Z</time>
      </trkpt>
      <trkpt lat="45.56321" lon="5.73294">
        <ele>617</ele>
        <time>2019-10-27T14:36:52.000Z</time>
      </trkpt>
      <trkpt lat="45.56319" lon="5.73295">
        <ele>617</ele>
        <time>2019-10-27T14:36:53.000Z</time>
      </trkpt>
      <trkpt lat="45.56317" lon="5.73296">
        <ele>616</ele>
        <time>2019-10-27T14:36:54.000Z</time>
      </trkpt>
      <trkpt lat="45.56316" lon="5.73297">
        <ele>616</ele>
        <time>2019-10-27T14:36:55.000Z</time>
      </trkpt>
      <trkpt lat="45.56314" lon="5.73298">
        <ele>616</ele>
        <time>2019-10-27T14:36:56.000Z</time>
      </trkpt>
      <trkpt lat="45.56312" lon="5.73298">
        <ele>616</ele>
        <time>2019-10-27T14:36:57.000Z</time>
      </trkpt>
      <trkpt lat="45.5631" lon="5.73298">
        <ele>616</ele>
        <time>2019-10-27T14:36:58.000Z</time>
      </trkpt>
      <trkpt lat="45.56309" lon="5.73298">
        <ele>616</ele>
        <time>2019-10-27T14:36:59.000Z</time>
      </trkpt>
      <trkpt lat="45.56307" lon="5.73298">
        <ele>615</ele>
        <time>2019-10-27T14:37:00.000Z</time>
      </trkpt>
      <trkpt lat="45.56306" lon="5.73298">
        <ele>615</ele>
        <time>2019-10-27T14:37:01.000Z</time>
      </trkpt>
      <trkpt lat="45.56305" lon="5.73297">
        <ele>615</ele>
        <time>2019-10-27T14:37:02.000Z</time>
      </trkpt>
      <trkpt lat="45.56303" lon="5.73297">
        <ele>615</ele>
        <time>2019-10-27T14:37:03.000Z</time>
      </trkpt>
      <trkpt lat="45.56302" lon="5.73297">
        <ele>614</ele>
        <time>2019-10-27T14:37:04.000Z</time>
      </trkpt>
      <trkpt lat="45.56301" lon="5.73296">
        <ele>614</ele>
        <time>2019-10-27T14:37:05.000Z</time>
      </trkpt>
      <trkpt lat="45.563" lon="5.73296">
        <ele>614</ele>
        <time>2019-10-27T14:37:06.000Z</time>
      </trkpt>
      <trkpt lat="45.56299" lon="5.73296">
        <ele>614</ele>
        <time>2019-10-27T14:37:07.000Z</time>
      </trkpt>
      <trkpt lat="45.56298" lon="5.73295">
        <ele>613</ele>
        <time>2019-10-27T14:37:08.000Z</time>
      </trkpt>
      <trkpt lat="45.56298" lon="5.73295">
        <ele>613</ele>
        <time>2019-10-27T14:37:09.000Z</time>
      </trkpt>
      <trkpt lat="45.56297" lon="5.73295">
        <ele>613</ele>
        <time>2019-10-27T14:37:10.000Z</time>
      </trkpt>
      <trkpt lat="45.56296" lon="5.73295">
        <ele>613</ele>
        <time>2019-10-27T14:37:11.000Z</time>
      </trkpt>
      <trkpt lat="45.56296" lon="5.73295">
        <ele>613</ele>
        <time>2019-10-27T14:37:12.000Z</time>
      </trkpt>
      <trkpt lat="45.56295" lon="5.73295">
        <ele>613</ele>
        <time>2019-10-27T14:37:13.000Z</time>
      </trkpt>
      <trkpt lat="45.56295" lon="5.73295">
        <ele>613</ele>
        <time>2019-10-27T14:37:14.000Z</time>
      </trkpt>
      <trkpt lat="45.56295" lon="5.73294">
        <ele>613</ele>
        <time>2019-10-27T14:37:15.000Z</time>
      </trkpt>
      <trkpt lat="45.56294" lon="5.73294">
        <ele>613</ele>
        <time>2019-10-27T14:37:16.000Z</time>
      </trkpt>
      <trkpt lat="45.56294" lon="5.73294">
        <ele>613</ele>
        <time>2019-10-27T14:37:17.000Z</time>
      </trkpt>
      <trkpt lat="45.56294" lon="5.73294">
        <ele>613</ele>
        <time>2019-10-27T14:37:18.000Z</time>
      </trkpt>
      <trkpt lat="45.56294" lon="5.73294">
        <ele>613</ele>
        <time>2019-10-27T14:37:19.000Z</time>
      </trkpt>
      <trkpt lat="45.56293" lon="5.73294">
        <ele>613</ele>
        <time>2019-10-27T14:37:20.000Z</time>
      </trkpt>
      <trkpt lat="45.56293" lon="5.73294">
        <ele>613</ele>
        <time>2019-10-27T14:37:21.000Z</time>
      </trkpt>
      <trkpt lat="45.56293" lon="5.73294">
        <ele>612</ele>
        <time>2019-10-27T14:37:22.000Z</time>
      </trkpt>
      <trkpt lat="45.56293" lon="5.73294">
        <ele>612</ele>
        <time>2019-10-27T14:37:23.000Z</time>
      </trkpt>
      <trkpt lat="45.56293" lon="5.73294">
        <ele>612</ele>
        <time>2019-10-27T14:37:24.000Z</time>
      </trkpt>
      <trkpt lat="45.56293" lon="5.73294">
        <ele>612</ele>
        <time>2019-10-27T14:37:25.000Z</time>
      </trkpt>
      <trkpt lat="45.56293" lon="5.73294">
        <ele>613</ele>
        <time>2019-10-27T14:37:26.000Z</time>
      </trkpt>
      <trkpt lat="45.56293" lon="5.73294">
        <ele>613</ele>
        <time>2019-10-27T14:37:27.000Z</time>
      </trkpt>
      <trkpt lat="45.56293" lon="5.73294">
        <ele>612</ele>
        <time>2019-10-27T14:37:28.000Z</time>
      </trkpt>
      <trkpt lat="45.56293" lon="5.73294">
        <ele>612</ele>
        <time>2019-10-27T14:37:29.000Z</time>
      </trkpt>
      <trkpt lat="45.56293" lon="5.73294">
        <ele>612</ele>
        <time>2019-10-27T14:37:30.000Z</time>
      </trkpt>
      <trkpt lat="45.56293" lon="5.73294">
        <ele>612</ele>
        <time>2019-10-27T14:37:31.000Z</time>
      </trkpt>
      <trkpt lat="45.56293" lon="5.73294">
        <ele>612</ele>
        <time>2019-10-27T14:37:32.000Z</time>
      </trkpt>
      <trkpt lat="45.56293" lon="5.73294">
        <ele>612</ele>
        <time>2019-10-27T14:37:33.000Z</time>
      </trkpt>
      <trkpt lat="45.56293" lon="5.73294">
        <ele>612</ele>
        <time>2019-10-27T14:37:34.000Z</time>
      </trkpt>
      <trkpt lat="45.56293" lon="5.73295">
        <ele>612</ele>
        <time>2019-10-27T14:37:35.000Z</time>
      </trkpt>
      <trkpt lat="45.56292" lon="5.73295">
        <ele>612</ele>
        <time>2019-10-27T14:37:36.000Z</time>
      </trkpt>
      <trkpt lat="45.56292" lon="5.73295">
        <ele>612</ele>
        <time>2019-10-27T14:37:37.000Z</time>
      </trkpt>
      <trkpt lat="45.56292" lon="5.73296">
        <ele>612</ele>
        <time>2019-10-27T14:37:38.000Z</time>
      </trkpt>
      <trkpt lat="45.56291" lon="5.73296">
        <ele>612</ele>
        <time>2019-10-27T14:37:39.000Z</time>
      </trkpt>
      <trkpt lat="45.5629" lon="5.73296">
        <ele>612</ele>
        <time>2019-10-27T14:37:40.000Z</time>
      </trkpt>
      <trkpt lat="45.5629" lon="5.73297">
        <ele>612</ele>
        <time>2019-10-27T14:37:41.000Z</time>
      </trkpt>
      <trkpt lat="45.56289" lon="5.73297">
        <ele>612</ele>
        <time>2019-10-27T14:37:42.000Z</time>
      </trkpt>
      <trkpt lat="45.56289" lon="5.73298">
        <ele>612</ele>
        <time>2019-10-27T14:37:43.000Z</time>
      </trkpt>
      <trkpt lat="45.56288" lon="5.73299">
        <ele>612</ele>
        <time>2019-10-27T14:37:44.000Z</time>
      </trkpt>
      <trkpt lat="45.56288" lon="5.73299">
        <ele>612</ele>
        <time>2019-10-27T14:37:45.000Z</time>
      </trkpt>
      <trkpt lat="45.56287" lon="5.733">
        <ele>612</ele>
        <time>2019-10-27T14:37:46.000Z</time>
      </trkpt>
      <trkpt lat="45.56286" lon="5.73301">
        <ele>612</ele>
        <time>2019-10-27T14:37:47.000Z</time>
      </trkpt>
      <trkpt lat="45.56285" lon="5.73302">
        <ele>612</ele>
        <time>2019-10-27T14:37:48.000Z</time>
      </trkpt>
      <trkpt lat="45.56284" lon="5.73303">
        <ele>612</ele>
        <time>2019-10-27T14:37:49.000Z</time>
      </trkpt>
      <trkpt lat="45.56283" lon="5.73303">
        <ele>612</ele>
        <time>2019-10-27T14:37:50.000Z</time>
      </trkpt>
      <trkpt lat="45.56282" lon="5.73301">
        <ele>612</ele>
        <time>2019-10-27T14:37:51.000Z</time>
      </trkpt>
      <trkpt lat="45.56281" lon="5.73299">
        <ele>612</ele>
        <time>2019-10-27T14:37:52.000Z</time>
      </trkpt>
      <trkpt lat="45.5628" lon="5.73298">
        <ele>612</ele>
        <time>2019-10-27T14:37:53.000Z</time>
      </trkpt>
      <trkpt lat="45.5628" lon="5.73298">
        <ele>612</ele>
        <time>2019-10-27T14:37:54.000Z</time>
      </trkpt>
      <trkpt lat="45.5628" lon="5.73299">
        <ele>612</ele>
        <time>2019-10-27T14:37:55.000Z</time>
      </trkpt>
      <trkpt lat="45.56279" lon="5.733">
        <ele>612</ele>
        <time>2019-10-27T14:37:56.000Z</time>
      </trkpt>
      <trkpt lat="45.56279" lon="5.73301">
        <ele>612</ele>
        <time>2019-10-27T14:37:57.000Z</time>
      </trkpt>
      <trkpt lat="45.56279" lon="5.73301">
        <ele>612</ele>
        <time>2019-10-27T14:37:58.000Z</time>
      </trkpt>
      <trkpt lat="45.56278" lon="5.73301">
        <ele>612</ele>
        <time>2019-10-27T14:37:59.000Z</time>
      </trkpt>
      <trkpt lat="45.56278" lon="5.73301">
        <ele>612</ele>
        <time>2019-10-27T14:38:00.000Z</time>
      </trkpt>
      <trkpt lat="45.56277" lon="5.73301">
        <ele>612</ele>
        <time>2019-10-27T14:38:01.000Z</time>
      </trkpt>
      <trkpt lat="45.56276" lon="5.733">
        <ele>612</ele>
        <time>2019-10-27T14:38:02.000Z</time>
      </trkpt>
      <trkpt lat="45.56276" lon="5.733">
        <ele>612</ele>
        <time>2019-10-27T14:38:03.000Z</time>
      </trkpt>
      <trkpt lat="45.56275" lon="5.733">
        <ele>612</ele>
        <time>2019-10-27T14:38:04.000Z</time>
      </trkpt>
      <trkpt lat="45.56274" lon="5.733">
        <ele>612</ele>
        <time>2019-10-27T14:38:05.000Z</time>
      </trkpt>
      <trkpt lat="45.56273" lon="5.73301">
        <ele>612</ele>
        <time>2019-10-27T14:38:06.000Z</time>
      </trkpt>
      <trkpt lat="45.56272" lon="5.73302">
        <ele>611.7</ele>
        <time>2019-10-27T14:38:07.000Z</time>
      </trkpt>
      <trkpt lat="45.5627" lon="5.73303">
        <ele>611.3</ele>
        <time>2019-10-27T14:38:08.000Z</time>
      </trkpt>
      <trkpt lat="45.56269" lon="5.73304">
        <ele>611</ele>
        <time>2019-10-27T14:38:09.000Z</time>
      </trkpt>
      <trkpt lat="45.56268" lon="5.73306">
        <ele>611</ele>
        <time>2019-10-27T14:38:10.000Z</time>
      </trkpt>
      <trkpt lat="45.56267" lon="5.73307">
        <ele>611</ele>
        <time>2019-10-27T14:38:11.000Z</time>
      </trkpt>
      <trkpt lat="45.56266" lon="5.73309">
        <ele>611</ele>
        <time>2019-10-27T14:38:12.000Z</time>
      </trkpt>
      <trkpt lat="45.56265" lon="5.73311">
        <ele>611</ele>
        <time>2019-10-27T14:38:13.000Z</time>
      </trkpt>
      <trkpt lat="45.56264" lon="5.73312">
        <ele>611</ele>
        <time>2019-10-27T14:38:14.000Z</time>
      </trkpt>
      <trkpt lat="45.56263" lon="5.73313">
        <ele>611</ele>
        <time>2019-10-27T14:38:15.000Z</time>
      </trkpt>
      <trkpt lat="45.56263" lon="5.73315">
        <ele>611</ele>
        <time>2019-10-27T14:38:16.000Z</time>
      </trkpt>
      <trkpt lat="45.56262" lon="5.73316">
        <ele>611</ele>
        <time>2019-10-27T14:38:17.000Z</time>
      </trkpt>
      <trkpt lat="45.56262" lon="5.73317">
        <ele>611</ele>
        <time>2019-10-27T14:38:18.000Z</time>
      </trkpt>
      <trkpt lat="45.56261" lon="5.73318">
        <ele>611</ele>
        <time>2019-10-27T14:38:19.000Z</time>
      </trkpt>
      <trkpt lat="45.56261" lon="5.73319">
        <ele>611</ele>
        <time>2019-10-27T14:38:20.000Z</time>
      </trkpt>
      <trkpt lat="45.56261" lon="5.73321">
        <ele>611</ele>
        <time>2019-10-27T14:38:21.000Z</time>
      </trkpt>
      <trkpt lat="45.5626" lon="5.73322">
        <ele>611</ele>
        <time>2019-10-27T14:38:22.000Z</time>
      </trkpt>
      <trkpt lat="45.5626" lon="5.73324">
        <ele>611</ele>
        <time>2019-10-27T14:38:23.000Z</time>
      </trkpt>
      <trkpt lat="45.56259" lon="5.73325">
        <ele>611</ele>
        <time>2019-10-27T14:38:24.000Z</time>
      </trkpt>
      <trkpt lat="45.56259" lon="5.73327">
        <ele>611</ele>
        <time>2019-10-27T14:38:25.000Z</time>
      </trkpt>
      <trkpt lat="45.56258" lon="5.73328">
        <ele>611</ele>
        <time>2019-10-27T14:38:26.000Z</time>
      </trkpt>
      <trkpt lat="45.56258" lon="5.7333">
        <ele>611.3</ele>
        <time>2019-10-27T14:38:27.000Z</time>
      </trkpt>
      <trkpt lat="45.56257" lon="5.73332">
        <ele>611.7</ele>
        <time>2019-10-27T14:38:28.000Z</time>
      </trkpt>
      <trkpt lat="45.56256" lon="5.73335">
        <ele>612</ele>
        <time>2019-10-27T14:38:29.000Z</time>
      </trkpt>
      <trkpt lat="45.56255" lon="5.73337">
        <ele>613</ele>
        <time>2019-10-27T14:38:30.000Z</time>
      </trkpt>
      <trkpt lat="45.56254" lon="5.7334">
        <ele>613.3</ele>
        <time>2019-10-27T14:38:31.000Z</time>
      </trkpt>
      <trkpt lat="45.56253" lon="5.73342">
        <ele>613.7</ele>
        <time>2019-10-27T14:38:32.000Z</time>
      </trkpt>
      <trkpt lat="45.56252" lon="5.73345">
        <ele>614</ele>
        <time>2019-10-27T14:38:33.000Z</time>
      </trkpt>
      <trkpt lat="45.56251" lon="5.73348">
        <ele>614.5</ele>
        <time>2019-10-27T14:38:34.000Z</time>
      </trkpt>
      <trkpt lat="45.56249" lon="5.73351">
        <ele>615</ele>
        <time>2019-10-27T14:38:35.000Z</time>
      </trkpt>
      <trkpt lat="45.56248" lon="5.73354">
        <ele>616</ele>
        <time>2019-10-27T14:38:36.000Z</time>
      </trkpt>
      <trkpt lat="45.56247" lon="5.73357">
        <ele>616.3</ele>
        <time>2019-10-27T14:38:37.000Z</time>
      </trkpt>
      <trkpt lat="45.56245" lon="5.7336">
        <ele>616.7</ele>
        <time>2019-10-27T14:38:38.000Z</time>
      </trkpt>
      <trkpt lat="45.56244" lon="5.73362">
        <ele>617</ele>
        <time>2019-10-27T14:38:39.000Z</time>
      </trkpt>
      <trkpt lat="45.56243" lon="5.73364">
        <ele>617</ele>
        <time>2019-10-27T14:38:40.000Z</time>
      </trkpt>
      <trkpt lat="45.56242" lon="5.73366">
        <ele>617.3</ele>
        <time>2019-10-27T14:38:41.000Z</time>
      </trkpt>
      <trkpt lat="45.56241" lon="5.73368">
        <ele>617.7</ele>
        <time>2019-10-27T14:38:42.000Z</time>
      </trkpt>
      <trkpt lat="45.5624" lon="5.73369">
        <ele>618</ele>
        <time>2019-10-27T14:38:43.000Z</time>
      </trkpt>
      <trkpt lat="45.56239" lon="5.73369">
        <ele>618</ele>
        <time>2019-10-27T14:38:44.000Z</time>
      </trkpt>
      <trkpt lat="45.56239" lon="5.7337">
        <ele>618</ele>
        <time>2019-10-27T14:38:45.000Z</time>
      </trkpt>
      <trkpt lat="45.56238" lon="5.73369">
        <ele>618</ele>
        <time>2019-10-27T14:38:46.000Z</time>
      </trkpt>
      <trkpt lat="45.56238" lon="5.73369">
        <ele>618</ele>
        <time>2019-10-27T14:38:47.000Z</time>
      </trkpt>
      <trkpt lat="45.56238" lon="5.73367">
        <ele>618</ele>
        <time>2019-10-27T14:38:48.000Z</time>
      </trkpt>
      <trkpt lat="45.56238" lon="5.73366">
        <ele>618</ele>
        <time>2019-10-27T14:38:49.000Z</time>
      </trkpt>
      <trkpt lat="45.56238" lon="5.73364">
        <ele>619</ele>
        <time>2019-10-27T14:38:50.000Z</time>
      </trkpt>
      <trkpt lat="45.56238" lon="5.73362">
        <ele>619</ele>
        <time>2019-10-27T14:38:51.000Z</time>
      </trkpt>
      <trkpt lat="45.56238" lon="5.73361">
        <ele>619</ele>
        <time>2019-10-27T14:38:52.000Z</time>
      </trkpt>
      <trkpt lat="45.56238" lon="5.7336">
        <ele>619</ele>
        <time>2019-10-27T14:38:53.000Z</time>
      </trkpt>
      <trkpt lat="45.56239" lon="5.73359">
        <ele>619</ele>
        <time>2019-10-27T14:38:54.000Z</time>
      </trkpt>
      <trkpt lat="45.56239" lon="5.73358">
        <ele>619</ele>
        <time>2019-10-27T14:38:55.000Z</time>
      </trkpt>
      <trkpt lat="45.56239" lon="5.73358">
        <ele>619</ele>
        <time>2019-10-27T14:38:56.000Z</time>
      </trkpt>
      <trkpt lat="45.56239" lon="5.73359">
        <ele>619</ele>
        <time>2019-10-27T14:38:57.000Z</time>
      </trkpt>
      <trkpt lat="45.56239" lon="5.73359">
        <ele>619</ele>
        <time>2019-10-27T14:38:58.000Z</time>
      </trkpt>
      <trkpt lat="45.56238" lon="5.7336">
        <ele>619</ele>
        <time>2019-10-27T14:38:59.000Z</time>
      </trkpt>
      <trkpt lat="45.56237" lon="5.7336">
        <ele>619</ele>
        <time>2019-10-27T14:39:00.000Z</time>
      </trkpt>
      <trkpt lat="45.56237" lon="5.73361">
        <ele>619</ele>
        <time>2019-10-27T14:39:01.000Z</time>
      </trkpt>
      <trkpt lat="45.56236" lon="5.73363">
        <ele>619</ele>
        <time>2019-10-27T14:39:02.000Z</time>
      </trkpt>
      <trkpt lat="45.56235" lon="5.73364">
        <ele>618.7</ele>
        <time>2019-10-27T14:39:03.000Z</time>
      </trkpt>
      <trkpt lat="45.56234" lon="5.73366">
        <ele>618.3</ele>
        <time>2019-10-27T14:39:04.000Z</time>
      </trkpt>
      <trkpt lat="45.56233" lon="5.73367">
        <ele>618</ele>
        <time>2019-10-27T14:39:05.000Z</time>
      </trkpt>
      <trkpt lat="45.56232" lon="5.73369">
        <ele>618</ele>
        <time>2019-10-27T14:39:06.000Z</time>
      </trkpt>
      <trkpt lat="45.56231" lon="5.73371">
        <ele>618</ele>
        <time>2019-10-27T14:39:07.000Z</time>
      </trkpt>
      <trkpt lat="45.5623" lon="5.73373">
        <ele>619</ele>
        <time>2019-10-27T14:39:08.000Z</time>
      </trkpt>
      <trkpt lat="45.5623" lon="5.73374">
        <ele>619</ele>
        <time>2019-10-27T14:39:09.000Z</time>
      </trkpt>
      <trkpt lat="45.56229" lon="5.73376">
        <ele>619</ele>
        <time>2019-10-27T14:39:10.000Z</time>
      </trkpt>
      <trkpt lat="45.56229" lon="5.73377">
        <ele>619</ele>
        <time>2019-10-27T14:39:11.000Z</time>
      </trkpt>
      <trkpt lat="45.56228" lon="5.73379">
        <ele>619</ele>
        <time>2019-10-27T14:39:12.000Z</time>
      </trkpt>
      <trkpt lat="45.56228" lon="5.73379">
        <ele>619</ele>
        <time>2019-10-27T14:39:13.000Z</time>
      </trkpt>
      <trkpt lat="45.56228" lon="5.7338">
        <ele>619</ele>
        <time>2019-10-27T14:39:14.000Z</time>
      </trkpt>
      <trkpt lat="45.56228" lon="5.7338">
        <ele>619</ele>
        <time>2019-10-27T14:39:15.000Z</time>
      </trkpt>
      <trkpt lat="45.56228" lon="5.73381">
        <ele>619</ele>
        <time>2019-10-27T14:39:16.000Z</time>
      </trkpt>
      <trkpt lat="45.56228" lon="5.73381">
        <ele>619</ele>
        <time>2019-10-27T14:39:17.000Z</time>
      </trkpt>
      <trkpt lat="45.56228" lon="5.73382">
        <ele>619</ele>
        <time>2019-10-27T14:39:18.000Z</time>
      </trkpt>
      <trkpt lat="45.56227" lon="5.73382">
        <ele>619</ele>
        <time>2019-10-27T14:39:19.000Z</time>
      </trkpt>
      <trkpt lat="45.56227" lon="5.73383">
        <ele>619</ele>
        <time>2019-10-27T14:39:20.000Z</time>
      </trkpt>
      <trkpt lat="45.56227" lon="5.73384">
        <ele>619</ele>
        <time>2019-10-27T14:39:21.000Z</time>
      </trkpt>
      <trkpt lat="45.56227" lon="5.73385">
        <ele>619</ele>
        <time>2019-10-27T14:39:22.000Z</time>
      </trkpt>
      <trkpt lat="45.56226" lon="5.73386">
        <ele>619</ele>
        <time>2019-10-27T14:39:23.000Z</time>
      </trkpt>
      <trkpt lat="45.56226" lon="5.73387">
        <ele>619</ele>
        <time>2019-10-27T14:39:24.000Z</time>
      </trkpt>
      <trkpt lat="45.56226" lon="5.73388">
        <ele>619</ele>
        <time>2019-10-27T14:39:25.000Z</time>
      </trkpt>
      <trkpt lat="45.56226" lon="5.73389">
        <ele>619</ele>
        <time>2019-10-27T14:39:26.000Z</time>
      </trkpt>
      <trkpt lat="45.56225" lon="5.7339">
        <ele>619</ele>
        <time>2019-10-27T14:39:27.000Z</time>
      </trkpt>
      <trkpt lat="45.56225" lon="5.73391">
        <ele>619</ele>
        <time>2019-10-27T14:39:28.000Z</time>
      </trkpt>
      <trkpt lat="45.56224" lon="5.73392">
        <ele>619</ele>
        <time>2019-10-27T14:39:29.000Z</time>
      </trkpt>
      <trkpt lat="45.56223" lon="5.73393">
        <ele>619</ele>
        <time>2019-10-27T14:39:30.000Z</time>
      </trkpt>
      <trkpt lat="45.56222" lon="5.73394">
        <ele>619</ele>
        <time>2019-10-27T14:39:31.000Z</time>
      </trkpt>
      <trkpt lat="45.56221" lon="5.73395">
        <ele>619</ele>
        <time>2019-10-27T14:39:32.000Z</time>
      </trkpt>
      <trkpt lat="45.5622" lon="5.73397">
        <ele>619</ele>
        <time>2019-10-27T14:39:33.000Z</time>
      </trkpt>
      <trkpt lat="45.56218" lon="5.73398">
        <ele>619</ele>
        <time>2019-10-27T14:39:34.000Z</time>
      </trkpt>
      <trkpt lat="45.56217" lon="5.73399">
        <ele>619</ele>
        <time>2019-10-27T14:39:35.000Z</time>
      </trkpt>
      <trkpt lat="45.56216" lon="5.734">
        <ele>619</ele>
        <time>2019-10-27T14:39:36.000Z</time>
      </trkpt>
      <trkpt lat="45.56215" lon="5.73401">
        <ele>619</ele>
        <time>2019-10-27T14:39:37.000Z</time>
      </trkpt>
      <trkpt lat="45.56214" lon="5.73402">
        <ele>619</ele>
        <time>2019-10-27T14:39:38.000Z</time>
      </trkpt>
      <trkpt lat="45.56213" lon="5.73403">
        <ele>619</ele>
        <time>2019-10-27T14:39:39.000Z</time>
      </trkpt>
      <trkpt lat="45.56213" lon="5.73404">
        <ele>619</ele>
        <time>2019-10-27T14:39:40.000Z</time>
      </trkpt>
      <trkpt lat="45.56212" lon="5.73405">
        <ele>619</ele>
        <time>2019-10-27T14:39:41.000Z</time>
      </trkpt>
      <trkpt lat="45.56212" lon="5.73406">
        <ele>619</ele>
        <time>2019-10-27T14:39:42.000Z</time>
      </trkpt>
      <trkpt lat="45.56212" lon="5.73407">
        <ele>619</ele>
        <time>2019-10-27T14:39:43.000Z</time>
      </trkpt>
      <trkpt lat="45.56211" lon="5.73408">
        <ele>619.5</ele>
        <time>2019-10-27T14:39:44.000Z</time>
      </trkpt>
      <trkpt lat="45.5621" lon="5.7341">
        <ele>620</ele>
        <time>2019-10-27T14:39:45.000Z</time>
      </trkpt>
      <trkpt lat="45.56209" lon="5.73412">
        <ele>620</ele>
        <time>2019-10-27T14:39:46.000Z</time>
      </trkpt>
      <trkpt lat="45.56207" lon="5.73414">
        <ele>620</ele>
        <time>2019-10-27T14:39:47.000Z</time>
      </trkpt>
      <trkpt lat="45.56206" lon="5.73415">
        <ele>620</ele>
        <time>2019-10-27T14:39:48.000Z</time>
      </trkpt>
      <trkpt lat="45.56206" lon="5.73415">
        <ele>620</ele>
        <time>2019-10-27T14:39:49.000Z</time>
      </trkpt>
      <trkpt lat="45.56206" lon="5.73415">
        <ele>620</ele>
        <time>2019-10-27T14:39:50.000Z</time>
      </trkpt>
      <trkpt lat="45.56205" lon="5.73414">
        <ele>620</ele>
        <time>2019-10-27T14:39:51.000Z</time>
      </trkpt>
      <trkpt lat="45.56205" lon="5.73414">
        <ele>620</ele>
        <time>2019-10-27T14:39:52.000Z</time>
      </trkpt>
      <trkpt lat="45.56204" lon="5.73415">
        <ele>620</ele>
        <time>2019-10-27T14:39:53.000Z</time>
      </trkpt>
      <trkpt lat="45.56202" lon="5.73417">
        <ele>620</ele>
        <time>2019-10-27T14:39:54.000Z</time>
      </trkpt>
      <trkpt lat="45.562" lon="5.7342">
        <ele>620</ele>
        <time>2019-10-27T14:39:55.000Z</time>
      </trkpt>
      <trkpt lat="45.56199" lon="5.73422">
        <ele>620</ele>
        <time>2019-10-27T14:39:56.000Z</time>
      </trkpt>
      <trkpt lat="45.56197" lon="5.73424">
        <ele>620</ele>
        <time>2019-10-27T14:39:57.000Z</time>
      </trkpt>
      <trkpt lat="45.56196" lon="5.73425">
        <ele>620.5</ele>
        <time>2019-10-27T14:39:58.000Z</time>
      </trkpt>
      <trkpt lat="45.56196" lon="5.73427">
        <ele>621</ele>
        <time>2019-10-27T14:39:59.000Z</time>
      </trkpt>
      <trkpt lat="45.56195" lon="5.73428">
        <ele>621</ele>
        <time>2019-10-27T14:40:00.000Z</time>
      </trkpt>
      <trkpt lat="45.56195" lon="5.73429">
        <ele>621</ele>
        <time>2019-10-27T14:40:01.000Z</time>
      </trkpt>
      <trkpt lat="45.56195" lon="5.7343">
        <ele>621</ele>
        <time>2019-10-27T14:40:02.000Z</time>
      </trkpt>
      <trkpt lat="45.56195" lon="5.7343">
        <ele>621</ele>
        <time>2019-10-27T14:40:03.000Z</time>
      </trkpt>
      <trkpt lat="45.56195" lon="5.73431">
        <ele>622</ele>
        <time>2019-10-27T14:40:04.000Z</time>
      </trkpt>
      <trkpt lat="45.56195" lon="5.73432">
        <ele>622</ele>
        <time>2019-10-27T14:40:05.000Z</time>
      </trkpt>
      <trkpt lat="45.56195" lon="5.73433">
        <ele>622</ele>
        <time>2019-10-27T14:40:06.000Z</time>
      </trkpt>
      <trkpt lat="45.56196" lon="5.73434">
        <ele>622</ele>
        <time>2019-10-27T14:40:07.000Z</time>
      </trkpt>
      <trkpt lat="45.56196" lon="5.73434">
        <ele>623</ele>
        <time>2019-10-27T14:40:08.000Z</time>
      </trkpt>
      <trkpt lat="45.56197" lon="5.73435">
        <ele>623</ele>
        <time>2019-10-27T14:40:09.000Z</time>
      </trkpt>
      <trkpt lat="45.56198" lon="5.73435">
        <ele>623</ele>
        <time>2019-10-27T14:40:10.000Z</time>
      </trkpt>
      <trkpt lat="45.562" lon="5.73434">
        <ele>623</ele>
        <time>2019-10-27T14:40:11.000Z</time>
      </trkpt>
      <trkpt lat="45.56201" lon="5.73433">
        <ele>623</ele>
        <time>2019-10-27T14:40:12.000Z</time>
      </trkpt>
      <trkpt lat="45.56202" lon="5.73433">
        <ele>623.5</ele>
        <time>2019-10-27T14:40:13.000Z</time>
      </trkpt>
      <trkpt lat="45.56204" lon="5.73432">
        <ele>624</ele>
        <time>2019-10-27T14:40:14.000Z</time>
      </trkpt>
      <trkpt lat="45.56205" lon="5.73431">
        <ele>624</ele>
        <time>2019-10-27T14:40:15.000Z</time>
      </trkpt>
      <trkpt lat="45.56206" lon="5.73431">
        <ele>624</ele>
        <time>2019-10-27T14:40:16.000Z</time>
      </trkpt>
      <trkpt lat="45.56207" lon="5.7343">
        <ele>624</ele>
        <time>2019-10-27T14:40:17.000Z</time>
      </trkpt>
      <trkpt lat="45.56209" lon="5.73429">
        <ele>624</ele>
        <time>2019-10-27T14:40:18.000Z</time>
      </trkpt>
      <trkpt lat="45.5621" lon="5.73429">
        <ele>624</ele>
        <time>2019-10-27T14:40:19.000Z</time>
      </trkpt>
      <trkpt lat="45.56211" lon="5.73428">
        <ele>624</ele>
        <time>2019-10-27T14:40:20.000Z</time>
      </trkpt>
      <trkpt lat="45.56213" lon="5.73427">
        <ele>624.3</ele>
        <time>2019-10-27T14:40:21.000Z</time>
      </trkpt>
      <trkpt lat="45.56214" lon="5.73427">
        <ele>624.7</ele>
        <time>2019-10-27T14:40:22.000Z</time>
      </trkpt>
      <trkpt lat="45.56215" lon="5.73426">
        <ele>625</ele>
        <time>2019-10-27T14:40:23.000Z</time>
      </trkpt>
      <trkpt lat="45.56217" lon="5.73426">
        <ele>625</ele>
        <time>2019-10-27T14:40:24.000Z</time>
      </trkpt>
      <trkpt lat="45.56218" lon="5.73426">
        <ele>625</ele>
        <time>2019-10-27T14:40:25.000Z</time>
      </trkpt>
      <trkpt lat="45.56219" lon="5.73426">
        <ele>625</ele>
        <time>2019-10-27T14:40:26.000Z</time>
      </trkpt>
      <trkpt lat="45.56221" lon="5.73426">
        <ele>625</ele>
        <time>2019-10-27T14:40:27.000Z</time>
      </trkpt>
      <trkpt lat="45.56222" lon="5.73426">
        <ele>625</ele>
        <time>2019-10-27T14:40:28.000Z</time>
      </trkpt>
      <trkpt lat="45.56223" lon="5.73426">
        <ele>625</ele>
        <time>2019-10-27T14:40:29.000Z</time>
      </trkpt>
      <trkpt lat="45.56224" lon="5.73427">
        <ele>626</ele>
        <time>2019-10-27T14:40:30.000Z</time>
      </trkpt>
      <trkpt lat="45.56226" lon="5.73427">
        <ele>626</ele>
        <time>2019-10-27T14:40:31.000Z</time>
      </trkpt>
      <trkpt lat="45.56227" lon="5.73428">
        <ele>626</ele>
        <time>2019-10-27T14:40:32.000Z</time>
      </trkpt>
      <trkpt lat="45.56228" lon="5.73428">
        <ele>626</ele>
        <time>2019-10-27T14:40:33.000Z</time>
      </trkpt>
      <trkpt lat="45.56229" lon="5.73429">
        <ele>626</ele>
        <time>2019-10-27T14:40:34.000Z</time>
      </trkpt>
      <trkpt lat="45.5623" lon="5.73429">
        <ele>626.5</ele>
        <time>2019-10-27T14:40:35.000Z</time>
      </trkpt>
      <trkpt lat="45.5623" lon="5.7343">
        <ele>627</ele>
        <time>2019-10-27T14:40:36.000Z</time>
      </trkpt>
      <trkpt lat="45.56231" lon="5.7343">
        <ele>627</ele>
        <time>2019-10-27T14:40:37.000Z</time>
      </trkpt>
      <trkpt lat="45.56232" lon="5.73431">
        <ele>627</ele>
        <time>2019-10-27T14:40:38.000Z</time>
      </trkpt>
      <trkpt lat="45.56233" lon="5.73432">
        <ele>627</ele>
        <time>2019-10-27T14:40:39.000Z</time>
      </trkpt>
      <trkpt lat="45.56234" lon="5.73432">
        <ele>627</ele>
        <time>2019-10-27T14:40:40.000Z</time>
      </trkpt>
      <trkpt lat="45.56234" lon="5.73433">
        <ele>627.3</ele>
        <time>2019-10-27T14:40:41.000Z</time>
      </trkpt>
      <trkpt lat="45.56235" lon="5.73434">
        <ele>627.7</ele>
        <time>2019-10-27T14:40:42.000Z</time>
      </trkpt>
      <trkpt lat="45.56236" lon="5.73434">
        <ele>628</ele>
        <time>2019-10-27T14:40:43.000Z</time>
      </trkpt>
      <trkpt lat="45.56236" lon="5.73435">
        <ele>628</ele>
        <time>2019-10-27T14:40:44.000Z</time>
      </trkpt>
      <trkpt lat="45.56237" lon="5.73436">
        <ele>628</ele>
        <time>2019-10-27T14:40:45.000Z</time>
      </trkpt>
      <trkpt lat="45.56237" lon="5.73436">
        <ele>628</ele>
        <time>2019-10-27T14:40:46.000Z</time>
      </trkpt>
      <trkpt lat="45.56238" lon="5.73437">
        <ele>628</ele>
        <time>2019-10-27T14:40:47.000Z</time>
      </trkpt>
      <trkpt lat="45.56238" lon="5.73437">
        <ele>629</ele>
        <time>2019-10-27T14:40:48.000Z</time>
      </trkpt>
      <trkpt lat="45.56239" lon="5.73437">
        <ele>629</ele>
        <time>2019-10-27T14:40:49.000Z</time>
      </trkpt>
      <trkpt lat="45.56239" lon="5.73438">
        <ele>629</ele>
        <time>2019-10-27T14:40:50.000Z</time>
      </trkpt>
      <trkpt lat="45.5624" lon="5.73438">
        <ele>629.3</ele>
        <time>2019-10-27T14:40:51.000Z</time>
      </trkpt>
      <trkpt lat="45.5624" lon="5.73438">
        <ele>629.7</ele>
        <time>2019-10-27T14:40:52.000Z</time>
      </trkpt>
      <trkpt lat="45.56241" lon="5.73438">
        <ele>630</ele>
        <time>2019-10-27T14:40:53.000Z</time>
      </trkpt>
      <trkpt lat="45.56241" lon="5.73439">
        <ele>630</ele>
        <time>2019-10-27T14:40:54.000Z</time>
      </trkpt>
      <trkpt lat="45.56242" lon="5.73439">
        <ele>630</ele>
        <time>2019-10-27T14:40:55.000Z</time>
      </trkpt>
      <trkpt lat="45.56242" lon="5.73439">
        <ele>630</ele>
        <time>2019-10-27T14:40:56.000Z</time>
      </trkpt>
      <trkpt lat="45.56242" lon="5.73439">
        <ele>630.3</ele>
        <time>2019-10-27T14:40:57.000Z</time>
      </trkpt>
      <trkpt lat="45.56243" lon="5.7344">
        <ele>630.7</ele>
        <time>2019-10-27T14:40:58.000Z</time>
      </trkpt>
      <trkpt lat="45.56243" lon="5.7344">
        <ele>631</ele>
        <time>2019-10-27T14:40:59.000Z</time>
      </trkpt>
      <trkpt lat="45.56243" lon="5.7344">
        <ele>631</ele>
        <time>2019-10-27T14:41:00.000Z</time>
      </trkpt>
      <trkpt lat="45.56243" lon="5.7344">
        <ele>631</ele>
        <time>2019-10-27T14:41:01.000Z</time>
      </trkpt>
      <trkpt lat="45.56243" lon="5.73441">
        <ele>631</ele>
        <time>2019-10-27T14:41:02.000Z</time>
      </trkpt>
      <trkpt lat="45.56244" lon="5.73441">
        <ele>631</ele>
        <time>2019-10-27T14:41:03.000Z</time>
      </trkpt>
      <trkpt lat="45.56244" lon="5.73442">
        <ele>631.5</ele>
        <time>2019-10-27T14:41:04.000Z</time>
      </trkpt>
      <trkpt lat="45.56244" lon="5.73443">
        <ele>632</ele>
        <time>2019-10-27T14:41:05.000Z</time>
      </trkpt>
      <trkpt lat="45.56243" lon="5.73443">
        <ele>632</ele>
        <time>2019-10-27T14:41:06.000Z</time>
      </trkpt>
      <trkpt lat="45.56243" lon="5.73444">
        <ele>632</ele>
        <time>2019-10-27T14:41:07.000Z</time>
      </trkpt>
      <trkpt lat="45.56243" lon="5.73445">
        <ele>632</ele>
        <time>2019-10-27T14:41:08.000Z</time>
      </trkpt>
      <trkpt lat="45.56243" lon="5.73446">
        <ele>632.3</ele>
        <time>2019-10-27T14:41:09.000Z</time>
      </trkpt>
      <trkpt lat="45.56243" lon="5.73447">
        <ele>632.7</ele>
        <time>2019-10-27T14:41:10.000Z</time>
      </trkpt>
      <trkpt lat="45.56243" lon="5.73448">
        <ele>633</ele>
        <time>2019-10-27T14:41:11.000Z</time>
      </trkpt>
      <trkpt lat="45.56242" lon="5.73449">
        <ele>633</ele>
        <time>2019-10-27T14:41:12.000Z</time>
      </trkpt>
      <trkpt lat="45.56242" lon="5.73449">
        <ele>633</ele>
        <time>2019-10-27T14:41:13.000Z</time>
      </trkpt>
      <trkpt lat="45.56242" lon="5.7345">
        <ele>633</ele>
        <time>2019-10-27T14:41:14.000Z</time>
      </trkpt>
      <trkpt lat="45.56242" lon="5.73451">
        <ele>633.3</ele>
        <time>2019-10-27T14:41:15.000Z</time>
      </trkpt>
      <trkpt lat="45.56242" lon="5.73452">
        <ele>633.7</ele>
        <time>2019-10-27T14:41:16.000Z</time>
      </trkpt>
      <trkpt lat="45.56242" lon="5.73453">
        <ele>634</ele>
        <time>2019-10-27T14:41:17.000Z</time>
      </trkpt>
      <trkpt lat="45.56243" lon="5.73453">
        <ele>634</ele>
        <time>2019-10-27T14:41:18.000Z</time>
      </trkpt>
      <trkpt lat="45.56243" lon="5.73454">
        <ele>634</ele>
        <time>2019-10-27T14:41:19.000Z</time>
      </trkpt>
      <trkpt lat="45.56243" lon="5.73455">
        <ele>634</ele>
        <time>2019-10-27T14:41:20.000Z</time>
      </trkpt>
      <trkpt lat="45.56243" lon="5.73456">
        <ele>634</ele>
        <time>2019-10-27T14:41:21.000Z</time>
      </trkpt>
      <trkpt lat="45.56244" lon="5.73456">
        <ele>634</ele>
        <time>2019-10-27T14:41:22.000Z</time>
      </trkpt>
      <trkpt lat="45.56244" lon="5.73457">
        <ele>634</ele>
        <time>2019-10-27T14:41:23.000Z</time>
      </trkpt>
      <trkpt lat="45.56244" lon="5.73458">
        <ele>634.5</ele>
        <time>2019-10-27T14:41:24.000Z</time>
      </trkpt>
      <trkpt lat="45.56244" lon="5.73459">
        <ele>635</ele>
        <time>2019-10-27T14:41:25.000Z</time>
      </trkpt>
      <trkpt lat="45.56244" lon="5.73459">
        <ele>635</ele>
        <time>2019-10-27T14:41:26.000Z</time>
      </trkpt>
      <trkpt lat="45.56245" lon="5.7346">
        <ele>635</ele>
        <time>2019-10-27T14:41:27.000Z</time>
      </trkpt>
      <trkpt lat="45.56245" lon="5.73461">
        <ele>635</ele>
        <time>2019-10-27T14:41:28.000Z</time>
      </trkpt>
      <trkpt lat="45.56245" lon="5.73462">
        <ele>635</ele>
        <time>2019-10-27T14:41:29.000Z</time>
      </trkpt>
      <trkpt lat="45.56245" lon="5.73463">
        <ele>635</ele>
        <time>2019-10-27T14:41:30.000Z</time>
      </trkpt>
      <trkpt lat="45.56245" lon="5.73463">
        <ele>635.3</ele>
        <time>2019-10-27T14:41:31.000Z</time>
      </trkpt>
      <trkpt lat="45.56245" lon="5.73464">
        <ele>635.7</ele>
        <time>2019-10-27T14:41:32.000Z</time>
      </trkpt>
      <trkpt lat="45.56246" lon="5.73465">
        <ele>636</ele>
        <time>2019-10-27T14:41:33.000Z</time>
      </trkpt>
      <trkpt lat="45.56246" lon="5.73466">
        <ele>636</ele>
        <time>2019-10-27T14:41:34.000Z</time>
      </trkpt>
      <trkpt lat="45.56246" lon="5.73466">
        <ele>636.5</ele>
        <time>2019-10-27T14:41:35.000Z</time>
      </trkpt>
      <trkpt lat="45.56246" lon="5.73467">
        <ele>637</ele>
        <time>2019-10-27T14:41:36.000Z</time>
      </trkpt>
      <trkpt lat="45.56246" lon="5.73468">
        <ele>637</ele>
        <time>2019-10-27T14:41:37.000Z</time>
      </trkpt>
      <trkpt lat="45.56246" lon="5.73469">
        <ele>637</ele>
        <time>2019-10-27T14:41:38.000Z</time>
      </trkpt>
      <trkpt lat="45.56246" lon="5.73469">
        <ele>637</ele>
        <time>2019-10-27T14:41:39.000Z</time>
      </trkpt>
      <trkpt lat="45.56246" lon="5.7347">
        <ele>637</ele>
        <time>2019-10-27T14:41:40.000Z</time>
      </trkpt>
      <trkpt lat="45.56246" lon="5.73471">
        <ele>637</ele>
        <time>2019-10-27T14:41:41.000Z</time>
      </trkpt>
      <trkpt lat="45.56246" lon="5.73471">
        <ele>637</ele>
        <time>2019-10-27T14:41:42.000Z</time>
      </trkpt>
      <trkpt lat="45.56246" lon="5.73472">
        <ele>637</ele>
        <time>2019-10-27T14:41:43.000Z</time>
      </trkpt>
      <trkpt lat="45.56246" lon="5.73472">
        <ele>637</ele>
        <time>2019-10-27T14:41:44.000Z</time>
      </trkpt>
      <trkpt lat="45.56246" lon="5.73473">
        <ele>637.3</ele>
        <time>2019-10-27T14:41:45.000Z</time>
      </trkpt>
      <trkpt lat="45.56246" lon="5.73473">
        <ele>637.7</ele>
        <time>2019-10-27T14:41:46.000Z</time>
      </trkpt>
      <trkpt lat="45.56246" lon="5.73474">
        <ele>638</ele>
        <time>2019-10-27T14:41:47.000Z</time>
      </trkpt>
      <trkpt lat="45.56246" lon="5.73474">
        <ele>638</ele>
        <time>2019-10-27T14:41:48.000Z</time>
      </trkpt>
      <trkpt lat="45.56246" lon="5.73475">
        <ele>638</ele>
        <time>2019-10-27T14:41:49.000Z</time>
      </trkpt>
      <trkpt lat="45.56246" lon="5.73475">
        <ele>638</ele>
        <time>2019-10-27T14:41:50.000Z</time>
      </trkpt>
      <trkpt lat="45.56246" lon="5.73475">
        <ele>638</ele>
        <time>2019-10-27T14:41:51.000Z</time>
      </trkpt>
      <trkpt lat="45.56246" lon="5.73475">
        <ele>638</ele>
        <time>2019-10-27T14:41:52.000Z</time>
      </trkpt>
      <trkpt lat="45.56246" lon="5.73476">
        <ele>638</ele>
        <time>2019-10-27T14:41:53.000Z</time>
      </trkpt>
      <trkpt lat="45.56246" lon="5.73476">
        <ele>638</ele>
        <time>2019-10-27T14:41:54.000Z</time>
      </trkpt>
      <trkpt lat="45.56246" lon="5.73476">
        <ele>638</ele>
        <time>2019-10-27T14:41:55.000Z</time>
      </trkpt>
      <trkpt lat="45.56246" lon="5.73476">
        <ele>638</ele>
        <time>2019-10-27T14:41:56.000Z</time>
      </trkpt>
      <trkpt lat="45.56246" lon="5.73476">
        <ele>638</ele>
        <time>2019-10-27T14:41:57.000Z</time>
      </trkpt>
      <trkpt lat="45.56246" lon="5.73476">
        <ele>638</ele>
        <time>2019-10-27T14:41:58.000Z</time>
      </trkpt>
      <trkpt lat="45.56246" lon="5.73476">
        <ele>638</ele>
        <time>2019-10-27T14:41:59.000Z</time>
      </trkpt>
      <trkpt lat="45.56246" lon="5.73476">
        <ele>638</ele>
        <time>2019-10-27T14:42:00.000Z</time>
      </trkpt>
      <trkpt lat="45.56246" lon="5.73476">
        <ele>638</ele>
        <time>2019-10-27T14:42:01.000Z</time>
      </trkpt>
      <trkpt lat="45.56246" lon="5.73476">
        <ele>638</ele>
        <time>2019-10-27T14:42:02.000Z</time>
      </trkpt>
      <trkpt lat="45.56246" lon="5.73477">
        <ele>638</ele>
        <time>2019-10-27T14:42:03.000Z</time>
      </trkpt>
      <trkpt lat="45.56246" lon="5.73477">
        <ele>638</ele>
        <time>2019-10-27T14:42:04.000Z</time>
      </trkpt>
      <trkpt lat="45.56246" lon="5.73478">
        <ele>638</ele>
        <time>2019-10-27T14:42:05.000Z</time>
      </trkpt>
      <trkpt lat="45.56245" lon="5.73478">
        <ele>638</ele>
        <time>2019-10-27T14:42:06.000Z</time>
      </trkpt>
      <trkpt lat="45.56245" lon="5.73479">
        <ele>638</ele>
        <time>2019-10-27T14:42:07.000Z</time>
      </trkpt>
      <trkpt lat="45.56245" lon="5.73479">
        <ele>638</ele>
        <time>2019-10-27T14:42:08.000Z</time>
      </trkpt>
      <trkpt lat="45.56245" lon="5.73479">
        <ele>638</ele>
        <time>2019-10-27T14:42:09.000Z</time>
      </trkpt>
      <trkpt lat="45.56245" lon="5.73479">
        <ele>638</ele>
        <time>2019-10-27T14:42:10.000Z</time>
      </trkpt>
      <trkpt lat="45.56245" lon="5.73479">
        <ele>638</ele>
        <time>2019-10-27T14:42:11.000Z</time>
      </trkpt>
      <trkpt lat="45.56245" lon="5.73479">
        <ele>638</ele>
        <time>2019-10-27T14:42:12.000Z</time>
      </trkpt>
      <trkpt lat="45.56245" lon="5.73479">
        <ele>638</ele>
        <time>2019-10-27T14:42:13.000Z</time>
      </trkpt>
      <trkpt lat="45.56245" lon="5.73479">
        <ele>638</ele>
        <time>2019-10-27T14:42:14.000Z</time>
      </trkpt>
      <trkpt lat="45.56245" lon="5.7348">
        <ele>638</ele>
        <time>2019-10-27T14:42:15.000Z</time>
      </trkpt>
      <trkpt lat="45.56245" lon="5.7348">
        <ele>638</ele>
        <time>2019-10-27T14:42:16.000Z</time>
      </trkpt>
      <trkpt lat="45.56244" lon="5.73481">
        <ele>638</ele>
        <time>2019-10-27T14:42:17.000Z</time>
      </trkpt>
      <trkpt lat="45.56244" lon="5.73482">
        <ele>638</ele>
        <time>2019-10-27T14:42:18.000Z</time>
      </trkpt>
      <trkpt lat="45.56244" lon="5.73482">
        <ele>638</ele>
        <time>2019-10-27T14:42:19.000Z</time>
      </trkpt>
      <trkpt lat="45.56244" lon="5.73482">
        <ele>638</ele>
        <time>2019-10-27T14:42:20.000Z</time>
      </trkpt>
      <trkpt lat="45.56244" lon="5.73483">
        <ele>638</ele>
        <time>2019-10-27T14:42:21.000Z</time>
      </trkpt>
      <trkpt lat="45.56245" lon="5.73482">
        <ele>638</ele>
        <time>2019-10-27T14:42:22.000Z</time>
      </trkpt>
      <trkpt lat="45.56245" lon="5.73482">
        <ele>638</ele>
        <time>2019-10-27T14:42:23.000Z</time>
      </trkpt>
      <trkpt lat="45.56246" lon="5.73481">
        <ele>638</ele>
        <time>2019-10-27T14:42:24.000Z</time>
      </trkpt>
      <trkpt lat="45.56247" lon="5.73479">
        <ele>638</ele>
        <time>2019-10-27T14:42:25.000Z</time>
      </trkpt>
      <trkpt lat="45.56248" lon="5.73478">
        <ele>638</ele>
        <time>2019-10-27T14:42:26.000Z</time>
      </trkpt>
      <trkpt lat="45.56248" lon="5.73477">
        <ele>638</ele>
        <time>2019-10-27T14:42:27.000Z</time>
      </trkpt>
      <trkpt lat="45.56248" lon="5.73477">
        <ele>638</ele>
        <time>2019-10-27T14:42:28.000Z</time>
      </trkpt>
      <trkpt lat="45.56248" lon="5.73476">
        <ele>638</ele>
        <time>2019-10-27T14:42:29.000Z</time>
      </trkpt>
      <trkpt lat="45.56248" lon="5.73476">
        <ele>638</ele>
        <time>2019-10-27T14:42:30.000Z</time>
      </trkpt>
      <trkpt lat="45.56248" lon="5.73476">
        <ele>638</ele>
        <time>2019-10-27T14:42:31.000Z</time>
      </trkpt>
      <trkpt lat="45.56248" lon="5.73475">
        <ele>638</ele>
        <time>2019-10-27T14:42:32.000Z</time>
      </trkpt>
      <trkpt lat="45.56249" lon="5.73474">
        <ele>638</ele>
        <time>2019-10-27T14:42:33.000Z</time>
      </trkpt>
      <trkpt lat="45.56249" lon="5.73472">
        <ele>638</ele>
        <time>2019-10-27T14:42:34.000Z</time>
      </trkpt>
      <trkpt lat="45.56249" lon="5.73471">
        <ele>638</ele>
        <time>2019-10-27T14:42:35.000Z</time>
      </trkpt>
      <trkpt lat="45.5625" lon="5.7347">
        <ele>638</ele>
        <time>2019-10-27T14:42:36.000Z</time>
      </trkpt>
      <trkpt lat="45.5625" lon="5.73468">
        <ele>638</ele>
        <time>2019-10-27T14:42:37.000Z</time>
      </trkpt>
      <trkpt lat="45.5625" lon="5.73468">
        <ele>638</ele>
        <time>2019-10-27T14:42:38.000Z</time>
      </trkpt>
      <trkpt lat="45.56249" lon="5.73467">
        <ele>638</ele>
        <time>2019-10-27T14:42:39.000Z</time>
      </trkpt>
      <trkpt lat="45.56249" lon="5.73467">
        <ele>638</ele>
        <time>2019-10-27T14:42:40.000Z</time>
      </trkpt>
      <trkpt lat="45.56247" lon="5.73467">
        <ele>638</ele>
        <time>2019-10-27T14:42:41.000Z</time>
      </trkpt>
      <trkpt lat="45.56246" lon="5.73468">
        <ele>638</ele>
        <time>2019-10-27T14:42:42.000Z</time>
      </trkpt>
      <trkpt lat="45.56244" lon="5.73469">
        <ele>638</ele>
        <time>2019-10-27T14:42:43.000Z</time>
      </trkpt>
      <trkpt lat="45.56243" lon="5.73469">
        <ele>638</ele>
        <time>2019-10-27T14:42:44.000Z</time>
      </trkpt>
      <trkpt lat="45.56241" lon="5.7347">
        <ele>638</ele>
        <time>2019-10-27T14:42:45.000Z</time>
      </trkpt>
      <trkpt lat="45.5624" lon="5.7347">
        <ele>638</ele>
        <time>2019-10-27T14:42:46.000Z</time>
      </trkpt>
      <trkpt lat="45.56239" lon="5.7347">
        <ele>638</ele>
        <time>2019-10-27T14:42:47.000Z</time>
      </trkpt>
      <trkpt lat="45.56239" lon="5.7347">
        <ele>638</ele>
        <time>2019-10-27T14:42:48.000Z</time>
      </trkpt>
      <trkpt lat="45.56239" lon="5.7347">
        <ele>638</ele>
        <time>2019-10-27T14:42:49.000Z</time>
      </trkpt>
      <trkpt lat="45.56239" lon="5.7347">
        <ele>638</ele>
        <time>2019-10-27T14:42:50.000Z</time>
      </trkpt>
      <trkpt lat="45.56239" lon="5.73469">
        <ele>638</ele>
        <time>2019-10-27T14:42:51.000Z</time>
      </trkpt>
      <trkpt lat="45.56239" lon="5.73468">
        <ele>638</ele>
        <time>2019-10-27T14:42:52.000Z</time>
      </trkpt>
      <trkpt lat="45.5624" lon="5.73468">
        <ele>638</ele>
        <time>2019-10-27T14:42:53.000Z</time>
      </trkpt>
      <trkpt lat="45.56241" lon="5.73467">
        <ele>638</ele>
        <time>2019-10-27T14:42:54.000Z</time>
      </trkpt>
      <trkpt lat="45.56241" lon="5.73466">
        <ele>638</ele>
        <time>2019-10-27T14:42:55.000Z</time>
      </trkpt>
      <trkpt lat="45.56242" lon="5.73466">
        <ele>638</ele>
        <time>2019-10-27T14:42:56.000Z</time>
      </trkpt>
      <trkpt lat="45.56242" lon="5.73465">
        <ele>638</ele>
        <time>2019-10-27T14:42:57.000Z</time>
      </trkpt>
      <trkpt lat="45.56243" lon="5.73465">
        <ele>638</ele>
        <time>2019-10-27T14:42:58.000Z</time>
      </trkpt>
      <trkpt lat="45.56243" lon="5.73465">
        <ele>638</ele>
        <time>2019-10-27T14:42:59.000Z</time>
      </trkpt>
      <trkpt lat="45.56243" lon="5.73465">
        <ele>638</ele>
        <time>2019-10-27T14:43:00.000Z</time>
      </trkpt>
      <trkpt lat="45.56243" lon="5.73465">
        <ele>638</ele>
        <time>2019-10-27T14:43:01.000Z</time>
      </trkpt>
      <trkpt lat="45.56243" lon="5.73465">
        <ele>638</ele>
        <time>2019-10-27T14:43:02.000Z</time>
      </trkpt>
      <trkpt lat="45.56243" lon="5.73465">
        <ele>638</ele>
        <time>2019-10-27T14:43:03.000Z</time>
      </trkpt>
      <trkpt lat="45.56243" lon="5.73465">
        <ele>638</ele>
        <time>2019-10-27T14:43:04.000Z</time>
      </trkpt>
      <trkpt lat="45.56243" lon="5.73465">
        <ele>638</ele>
        <time>2019-10-27T14:43:05.000Z</time>
      </trkpt>
      <trkpt lat="45.56243" lon="5.73465">
        <ele>638</ele>
        <time>2019-10-27T14:43:06.000Z</time>
      </trkpt>
      <trkpt lat="45.56244" lon="5.73464">
        <ele>638</ele>
        <time>2019-10-27T14:43:07.000Z</time>
      </trkpt>
      <trkpt lat="45.56244" lon="5.73464">
        <ele>638</ele>
        <time>2019-10-27T14:43:08.000Z</time>
      </trkpt>
      <trkpt lat="45.56244" lon="5.73464">
        <ele>638</ele>
        <time>2019-10-27T14:43:09.000Z</time>
      </trkpt>
      <trkpt lat="45.56244" lon="5.73465">
        <ele>638</ele>
        <time>2019-10-27T14:43:10.000Z</time>
      </trkpt>
      <trkpt lat="45.56243" lon="5.73466">
        <ele>638</ele>
        <time>2019-10-27T14:43:11.000Z</time>
      </trkpt>
      <trkpt lat="45.56243" lon="5.73468">
        <ele>638</ele>
        <time>2019-10-27T14:43:12.000Z</time>
      </trkpt>
      <trkpt lat="45.56242" lon="5.7347">
        <ele>638</ele>
        <time>2019-10-27T14:43:13.000Z</time>
      </trkpt>
      <trkpt lat="45.56241" lon="5.73472">
        <ele>638</ele>
        <time>2019-10-27T14:43:14.000Z</time>
      </trkpt>
      <trkpt lat="45.56241" lon="5.73473">
        <ele>638</ele>
        <time>2019-10-27T14:43:15.000Z</time>
      </trkpt>
      <trkpt lat="45.56241" lon="5.73473">
        <ele>638</ele>
        <time>2019-10-27T14:43:16.000Z</time>
      </trkpt>
      <trkpt lat="45.56241" lon="5.73473">
        <ele>638</ele>
        <time>2019-10-27T14:43:17.000Z</time>
      </trkpt>
      <trkpt lat="45.56241" lon="5.73473">
        <ele>638</ele>
        <time>2019-10-27T14:43:18.000Z</time>
      </trkpt>
      <trkpt lat="45.56242" lon="5.73472">
        <ele>638</ele>
        <time>2019-10-27T14:43:19.000Z</time>
      </trkpt>
      <trkpt lat="45.56242" lon="5.73471">
        <ele>638</ele>
        <time>2019-10-27T14:43:20.000Z</time>
      </trkpt>
      <trkpt lat="45.56243" lon="5.7347">
        <ele>638</ele>
        <time>2019-10-27T14:43:21.000Z</time>
      </trkpt>
      <trkpt lat="45.56243" lon="5.73469">
        <ele>638</ele>
        <time>2019-10-27T14:43:22.000Z</time>
      </trkpt>
      <trkpt lat="45.56244" lon="5.73468">
        <ele>638</ele>
        <time>2019-10-27T14:43:23.000Z</time>
      </trkpt>
      <trkpt lat="45.56245" lon="5.73467">
        <ele>638</ele>
        <time>2019-10-27T14:43:24.000Z</time>
      </trkpt>
      <trkpt lat="45.56245" lon="5.73466">
        <ele>638</ele>
        <time>2019-10-27T14:43:25.000Z</time>
      </trkpt>
      <trkpt lat="45.56246" lon="5.73465">
        <ele>638</ele>
        <time>2019-10-27T14:43:26.000Z</time>
      </trkpt>
      <trkpt lat="45.56247" lon="5.73465">
        <ele>638</ele>
        <time>2019-10-27T14:43:27.000Z</time>
      </trkpt>
      <trkpt lat="45.56248" lon="5.73464">
        <ele>638</ele>
        <time>2019-10-27T14:43:28.000Z</time>
      </trkpt>
      <trkpt lat="45.56249" lon="5.73463">
        <ele>638</ele>
        <time>2019-10-27T14:43:29.000Z</time>
      </trkpt>
      <trkpt lat="45.5625" lon="5.73463">
        <ele>638</ele>
        <time>2019-10-27T14:43:30.000Z</time>
      </trkpt>
      <trkpt lat="45.5625" lon="5.73462">
        <ele>638</ele>
        <time>2019-10-27T14:43:31.000Z</time>
      </trkpt>
      <trkpt lat="45.56251" lon="5.73462">
        <ele>638</ele>
        <time>2019-10-27T14:43:32.000Z</time>
      </trkpt>
      <trkpt lat="45.56252" lon="5.73461">
        <ele>638</ele>
        <time>2019-10-27T14:43:33.000Z</time>
      </trkpt>
      <trkpt lat="45.56252" lon="5.73461">
        <ele>638</ele>
        <time>2019-10-27T14:43:34.000Z</time>
      </trkpt>
      <trkpt lat="45.56253" lon="5.7346">
        <ele>638</ele>
        <time>2019-10-27T14:43:35.000Z</time>
      </trkpt>
      <trkpt lat="45.56254" lon="5.7346">
        <ele>638</ele>
        <time>2019-10-27T14:43:36.000Z</time>
      </trkpt>
      <trkpt lat="45.56254" lon="5.7346">
        <ele>638</ele>
        <time>2019-10-27T14:43:37.000Z</time>
      </trkpt>
      <trkpt lat="45.56254" lon="5.73459">
        <ele>638</ele>
        <time>2019-10-27T14:43:38.000Z</time>
      </trkpt>
      <trkpt lat="45.56255" lon="5.73459">
        <ele>638</ele>
        <time>2019-10-27T14:43:39.000Z</time>
      </trkpt>
      <trkpt lat="45.56255" lon="5.73459">
        <ele>638</ele>
        <time>2019-10-27T14:43:40.000Z</time>
      </trkpt>
      <trkpt lat="45.56255" lon="5.73459">
        <ele>638</ele>
        <time>2019-10-27T14:43:41.000Z</time>
      </trkpt>
      <trkpt lat="45.56255" lon="5.73459">
        <ele>638</ele>
        <time>2019-10-27T14:43:42.000Z</time>
      </trkpt>
      <trkpt lat="45.56255" lon="5.73459">
        <ele>638</ele>
        <time>2019-10-27T14:43:43.000Z</time>
      </trkpt>
      <trkpt lat="45.56254" lon="5.73459">
        <ele>638</ele>
        <time>2019-10-27T14:43:44.000Z</time>
      </trkpt>
      <trkpt lat="45.56254" lon="5.73459">
        <ele>638</ele>
        <time>2019-10-27T14:43:45.000Z</time>
      </trkpt>
      <trkpt lat="45.56254" lon="5.73459">
        <ele>638</ele>
        <time>2019-10-27T14:43:46.000Z</time>
      </trkpt>
      <trkpt lat="45.56254" lon="5.73459">
        <ele>638</ele>
        <time>2019-10-27T14:43:47.000Z</time>
      </trkpt>
      <trkpt lat="45.56253" lon="5.73459">
        <ele>638</ele>
        <time>2019-10-27T14:43:48.000Z</time>
      </trkpt>
      <trkpt lat="45.56253" lon="5.73459">
        <ele>638</ele>
        <time>2019-10-27T14:43:49.000Z</time>
      </trkpt>
      <trkpt lat="45.56253" lon="5.73459">
        <ele>638</ele>
        <time>2019-10-27T14:43:50.000Z</time>
      </trkpt>
      <trkpt lat="45.56253" lon="5.73459">
        <ele>638</ele>
        <time>2019-10-27T14:43:51.000Z</time>
      </trkpt>
      <trkpt lat="45.56252" lon="5.73459">
        <ele>638</ele>
        <time>2019-10-27T14:43:52.000Z</time>
      </trkpt>
      <trkpt lat="45.56252" lon="5.73459">
        <ele>638</ele>
        <time>2019-10-27T14:43:53.000Z</time>
      </trkpt>
      <trkpt lat="45.56252" lon="5.73458">
        <ele>638</ele>
        <time>2019-10-27T14:43:54.000Z</time>
      </trkpt>
      <trkpt lat="45.56252" lon="5.73458">
        <ele>638</ele>
        <time>2019-10-27T14:43:55.000Z</time>
      </trkpt>
      <trkpt lat="45.56252" lon="5.73458">
        <ele>638</ele>
        <time>2019-10-27T14:43:56.000Z</time>
      </trkpt>
      <trkpt lat="45.56252" lon="5.73458">
        <ele>638</ele>
        <time>2019-10-27T14:43:57.000Z</time>
      </trkpt>
      <trkpt lat="45.56252" lon="5.73458">
        <ele>638</ele>
        <time>2019-10-27T14:43:58.000Z</time>
      </trkpt>
      <trkpt lat="45.56252" lon="5.73457">
        <ele>638</ele>
        <time>2019-10-27T14:43:59.000Z</time>
      </trkpt>
      <trkpt lat="45.56253" lon="5.73457">
        <ele>638</ele>
        <time>2019-10-27T14:44:00.000Z</time>
      </trkpt>
      <trkpt lat="45.56253" lon="5.73457">
        <ele>638</ele>
        <time>2019-10-27T14:44:01.000Z</time>
      </trkpt>
      <trkpt lat="45.56254" lon="5.73456">
        <ele>638</ele>
        <time>2019-10-27T14:44:02.000Z</time>
      </trkpt>
      <trkpt lat="45.56254" lon="5.73456">
        <ele>638</ele>
        <time>2019-10-27T14:44:03.000Z</time>
      </trkpt>
      <trkpt lat="45.56254" lon="5.73455">
        <ele>638</ele>
        <time>2019-10-27T14:44:04.000Z</time>
      </trkpt>
      <trkpt lat="45.56254" lon="5.73455">
        <ele>638</ele>
        <time>2019-10-27T14:44:05.000Z</time>
      </trkpt>
      <trkpt lat="45.56255" lon="5.73455">
        <ele>638</ele>
        <time>2019-10-27T14:44:06.000Z</time>
      </trkpt>
      <trkpt lat="45.56255" lon="5.73455">
        <ele>638</ele>
        <time>2019-10-27T14:44:07.000Z</time>
      </trkpt>
      <trkpt lat="45.56254" lon="5.73456">
        <ele>638</ele>
        <time>2019-10-27T14:44:08.000Z</time>
      </trkpt>
      <trkpt lat="45.56254" lon="5.73456">
        <ele>637.7</ele>
        <time>2019-10-27T14:44:09.000Z</time>
      </trkpt>
      <trkpt lat="45.56254" lon="5.73457">
        <ele>637.3</ele>
        <time>2019-10-27T14:44:10.000Z</time>
      </trkpt>
      <trkpt lat="45.56254" lon="5.73457">
        <ele>637</ele>
        <time>2019-10-27T14:44:11.000Z</time>
      </trkpt>
      <trkpt lat="45.56254" lon="5.73457">
        <ele>637</ele>
        <time>2019-10-27T14:44:12.000Z</time>
      </trkpt>
      <trkpt lat="45.56255" lon="5.73458">
        <ele>637</ele>
        <time>2019-10-27T14:44:13.000Z</time>
      </trkpt>
      <trkpt lat="45.56255" lon="5.73458">
        <ele>637</ele>
        <time>2019-10-27T14:44:14.000Z</time>
      </trkpt>
      <trkpt lat="45.56256" lon="5.73457">
        <ele>637.5</ele>
        <time>2019-10-27T14:44:15.000Z</time>
      </trkpt>
      <trkpt lat="45.56256" lon="5.73457">
        <ele>638</ele>
        <time>2019-10-27T14:44:16.000Z</time>
      </trkpt>
      <trkpt lat="45.56257" lon="5.73456">
        <ele>638</ele>
        <time>2019-10-27T14:44:17.000Z</time>
      </trkpt>
      <trkpt lat="45.56258" lon="5.73455">
        <ele>638</ele>
        <time>2019-10-27T14:44:18.000Z</time>
      </trkpt>
      <trkpt lat="45.56259" lon="5.73454">
        <ele>638</ele>
        <time>2019-10-27T14:44:19.000Z</time>
      </trkpt>
      <trkpt lat="45.5626" lon="5.73453">
        <ele>638</ele>
        <time>2019-10-27T14:44:20.000Z</time>
      </trkpt>
      <trkpt lat="45.5626" lon="5.73452">
        <ele>638</ele>
        <time>2019-10-27T14:44:21.000Z</time>
      </trkpt>
      <trkpt lat="45.56261" lon="5.73451">
        <ele>638</ele>
        <time>2019-10-27T14:44:22.000Z</time>
      </trkpt>
      <trkpt lat="45.56261" lon="5.73451">
        <ele>638</ele>
        <time>2019-10-27T14:44:23.000Z</time>
      </trkpt>
      <trkpt lat="45.56261" lon="5.7345">
        <ele>638</ele>
        <time>2019-10-27T14:44:24.000Z</time>
      </trkpt>
      <trkpt lat="45.56261" lon="5.7345">
        <ele>638</ele>
        <time>2019-10-27T14:44:25.000Z</time>
      </trkpt>
      <trkpt lat="45.56261" lon="5.7345">
        <ele>638</ele>
        <time>2019-10-27T14:44:26.000Z</time>
      </trkpt>
      <trkpt lat="45.56261" lon="5.73449">
        <ele>638</ele>
        <time>2019-10-27T14:44:27.000Z</time>
      </trkpt>
      <trkpt lat="45.56261" lon="5.73448">
        <ele>638</ele>
        <time>2019-10-27T14:44:28.000Z</time>
      </trkpt>
      <trkpt lat="45.56261" lon="5.73447">
        <ele>637.5</ele>
        <time>2019-10-27T14:44:29.000Z</time>
      </trkpt>
      <trkpt lat="45.56261" lon="5.73445">
        <ele>637</ele>
        <time>2019-10-27T14:44:30.000Z</time>
      </trkpt>
      <trkpt lat="45.56261" lon="5.73443">
        <ele>637</ele>
        <time>2019-10-27T14:44:31.000Z</time>
      </trkpt>
      <trkpt lat="45.56262" lon="5.73442">
        <ele>637</ele>
        <time>2019-10-27T14:44:32.000Z</time>
      </trkpt>
      <trkpt lat="45.56263" lon="5.7344">
        <ele>637</ele>
        <time>2019-10-27T14:44:33.000Z</time>
      </trkpt>
      <trkpt lat="45.56264" lon="5.73438">
        <ele>637</ele>
        <time>2019-10-27T14:44:34.000Z</time>
      </trkpt>
      <trkpt lat="45.56265" lon="5.73437">
        <ele>637</ele>
        <time>2019-10-27T14:44:35.000Z</time>
      </trkpt>
      <trkpt lat="45.56266" lon="5.73435">
        <ele>637</ele>
        <time>2019-10-27T14:44:36.000Z</time>
      </trkpt>
      <trkpt lat="45.56266" lon="5.73435">
        <ele>637</ele>
        <time>2019-10-27T14:44:37.000Z</time>
      </trkpt>
      <trkpt lat="45.56267" lon="5.73434">
        <ele>637</ele>
        <time>2019-10-27T14:44:38.000Z</time>
      </trkpt>
      <trkpt lat="45.56268" lon="5.73434">
        <ele>637</ele>
        <time>2019-10-27T14:44:39.000Z</time>
      </trkpt>
      <trkpt lat="45.56268" lon="5.73434">
        <ele>637</ele>
        <time>2019-10-27T14:44:40.000Z</time>
      </trkpt>
      <trkpt lat="45.56268" lon="5.73435">
        <ele>637</ele>
        <time>2019-10-27T14:44:41.000Z</time>
      </trkpt>
      <trkpt lat="45.56267" lon="5.73436">
        <ele>637</ele>
        <time>2019-10-27T14:44:42.000Z</time>
      </trkpt>
      <trkpt lat="45.56267" lon="5.73438">
        <ele>637</ele>
        <time>2019-10-27T14:44:43.000Z</time>
      </trkpt>
      <trkpt lat="45.56266" lon="5.7344">
        <ele>637</ele>
        <time>2019-10-27T14:44:44.000Z</time>
      </trkpt>
      <trkpt lat="45.56265" lon="5.73442">
        <ele>637</ele>
        <time>2019-10-27T14:44:45.000Z</time>
      </trkpt>
      <trkpt lat="45.56263" lon="5.73444">
        <ele>637</ele>
        <time>2019-10-27T14:44:46.000Z</time>
      </trkpt>
      <trkpt lat="45.56262" lon="5.73446">
        <ele>637</ele>
        <time>2019-10-27T14:44:47.000Z</time>
      </trkpt>
      <trkpt lat="45.56261" lon="5.73447">
        <ele>637</ele>
        <time>2019-10-27T14:44:48.000Z</time>
      </trkpt>
      <trkpt lat="45.5626" lon="5.73448">
        <ele>637</ele>
        <time>2019-10-27T14:44:49.000Z</time>
      </trkpt>
      <trkpt lat="45.56258" lon="5.7345">
        <ele>637</ele>
        <time>2019-10-27T14:44:50.000Z</time>
      </trkpt>
      <trkpt lat="45.56257" lon="5.7345">
        <ele>637</ele>
        <time>2019-10-27T14:44:51.000Z</time>
      </trkpt>
      <trkpt lat="45.56256" lon="5.73451">
        <ele>637</ele>
        <time>2019-10-27T14:44:52.000Z</time>
      </trkpt>
      <trkpt lat="45.56254" lon="5.73451">
        <ele>637</ele>
        <time>2019-10-27T14:44:53.000Z</time>
      </trkpt>
      <trkpt lat="45.56253" lon="5.73452">
        <ele>637</ele>
        <time>2019-10-27T14:44:54.000Z</time>
      </trkpt>
      <trkpt lat="45.56252" lon="5.73452">
        <ele>637</ele>
        <time>2019-10-27T14:44:55.000Z</time>
      </trkpt>
      <trkpt lat="45.5625" lon="5.73453">
        <ele>637</ele>
        <time>2019-10-27T14:44:56.000Z</time>
      </trkpt>
      <trkpt lat="45.56249" lon="5.73453">
        <ele>637</ele>
        <time>2019-10-27T14:44:57.000Z</time>
      </trkpt>
      <trkpt lat="45.56247" lon="5.73454">
        <ele>637</ele>
        <time>2019-10-27T14:44:58.000Z</time>
      </trkpt>
      <trkpt lat="45.56246" lon="5.73454">
        <ele>637</ele>
        <time>2019-10-27T14:44:59.000Z</time>
      </trkpt>
      <trkpt lat="45.56245" lon="5.73455">
        <ele>637</ele>
        <time>2019-10-27T14:45:00.000Z</time>
      </trkpt>
      <trkpt lat="45.56243" lon="5.73456">
        <ele>637</ele>
        <time>2019-10-27T14:45:01.000Z</time>
      </trkpt>
      <trkpt lat="45.56242" lon="5.73457">
        <ele>637</ele>
        <time>2019-10-27T14:45:02.000Z</time>
      </trkpt>
      <trkpt lat="45.5624" lon="5.73458">
        <ele>637</ele>
        <time>2019-10-27T14:45:03.000Z</time>
      </trkpt>
      <trkpt lat="45.56239" lon="5.73459">
        <ele>637</ele>
        <time>2019-10-27T14:45:04.000Z</time>
      </trkpt>
      <trkpt lat="45.56238" lon="5.73461">
        <ele>637</ele>
        <time>2019-10-27T14:45:05.000Z</time>
      </trkpt>
      <trkpt lat="45.56236" lon="5.73462">
        <ele>637</ele>
        <time>2019-10-27T14:45:06.000Z</time>
      </trkpt>
      <trkpt lat="45.56235" lon="5.73464">
        <ele>637</ele>
        <time>2019-10-27T14:45:07.000Z</time>
      </trkpt>
      <trkpt lat="45.56234" lon="5.73466">
        <ele>637</ele>
        <time>2019-10-27T14:45:08.000Z</time>
      </trkpt>
      <trkpt lat="45.56232" lon="5.73468">
        <ele>637</ele>
        <time>2019-10-27T14:45:09.000Z</time>
      </trkpt>
      <trkpt lat="45.5623" lon="5.73471">
        <ele>637</ele>
        <time>2019-10-27T14:45:10.000Z</time>
      </trkpt>
      <trkpt lat="45.56229" lon="5.73473">
        <ele>637</ele>
        <time>2019-10-27T14:45:11.000Z</time>
      </trkpt>
      <trkpt lat="45.56228" lon="5.73475">
        <ele>637</ele>
        <time>2019-10-27T14:45:12.000Z</time>
      </trkpt>
      <trkpt lat="45.56227" lon="5.73477">
        <ele>637</ele>
        <time>2019-10-27T14:45:13.000Z</time>
      </trkpt>
      <trkpt lat="45.56226" lon="5.73478">
        <ele>637</ele>
        <time>2019-10-27T14:45:14.000Z</time>
      </trkpt>
      <trkpt lat="45.56225" lon="5.7348">
        <ele>637</ele>
        <time>2019-10-27T14:45:15.000Z</time>
      </trkpt>
      <trkpt lat="45.56224" lon="5.73481">
        <ele>637</ele>
        <time>2019-10-27T14:45:16.000Z</time>
      </trkpt>
      <trkpt lat="45.56224" lon="5.73482">
        <ele>637</ele>
        <time>2019-10-27T14:45:17.000Z</time>
      </trkpt>
      <trkpt lat="45.56223" lon="5.73483">
        <ele>637</ele>
        <time>2019-10-27T14:45:18.000Z</time>
      </trkpt>
      <trkpt lat="45.56223" lon="5.73484">
        <ele>637</ele>
        <time>2019-10-27T14:45:19.000Z</time>
      </trkpt>
      <trkpt lat="45.56223" lon="5.73485">
        <ele>637</ele>
        <time>2019-10-27T14:45:20.000Z</time>
      </trkpt>
      <trkpt lat="45.56222" lon="5.73485">
        <ele>637</ele>
        <time>2019-10-27T14:45:21.000Z</time>
      </trkpt>
      <trkpt lat="45.56222" lon="5.73486">
        <ele>637</ele>
        <time>2019-10-27T14:45:22.000Z</time>
      </trkpt>
      <trkpt lat="45.56222" lon="5.73486">
        <ele>637</ele>
        <time>2019-10-27T14:45:23.000Z</time>
      </trkpt>
      <trkpt lat="45.56222" lon="5.73486">
        <ele>637</ele>
        <time>2019-10-27T14:45:24.000Z</time>
      </trkpt>
      <trkpt lat="45.56223" lon="5.73486">
        <ele>637</ele>
        <time>2019-10-27T14:45:25.000Z</time>
      </trkpt>
      <trkpt lat="45.56223" lon="5.73485">
        <ele>637</ele>
        <time>2019-10-27T14:45:26.000Z</time>
      </trkpt>
      <trkpt lat="45.56224" lon="5.73484">
        <ele>637</ele>
        <time>2019-10-27T14:45:27.000Z</time>
      </trkpt>
      <trkpt lat="45.56224" lon="5.73483">
        <ele>637</ele>
        <time>2019-10-27T14:45:28.000Z</time>
      </trkpt>
      <trkpt lat="45.56225" lon="5.73482">
        <ele>637</ele>
        <time>2019-10-27T14:45:29.000Z</time>
      </trkpt>
      <trkpt lat="45.56225" lon="5.73481">
        <ele>637</ele>
        <time>2019-10-27T14:45:30.000Z</time>
      </trkpt>
      <trkpt lat="45.56226" lon="5.7348">
        <ele>637</ele>
        <time>2019-10-27T14:45:31.000Z</time>
      </trkpt>
      <trkpt lat="45.56227" lon="5.73479">
        <ele>637</ele>
        <time>2019-10-27T14:45:32.000Z</time>
      </trkpt>
      <trkpt lat="45.56228" lon="5.73477">
        <ele>637</ele>
        <time>2019-10-27T14:45:33.000Z</time>
      </trkpt>
      <trkpt lat="45.56228" lon="5.73476">
        <ele>637</ele>
        <time>2019-10-27T14:45:34.000Z</time>
      </trkpt>
      <trkpt lat="45.56229" lon="5.73474">
        <ele>637</ele>
        <time>2019-10-27T14:45:35.000Z</time>
      </trkpt>
      <trkpt lat="45.5623" lon="5.73473">
        <ele>637</ele>
        <time>2019-10-27T14:45:36.000Z</time>
      </trkpt>
      <trkpt lat="45.56231" lon="5.73471">
        <ele>637</ele>
        <time>2019-10-27T14:45:37.000Z</time>
      </trkpt>
      <trkpt lat="45.56232" lon="5.7347">
        <ele>637</ele>
        <time>2019-10-27T14:45:38.000Z</time>
      </trkpt>
      <trkpt lat="45.56233" lon="5.73469">
        <ele>637</ele>
        <time>2019-10-27T14:45:39.000Z</time>
      </trkpt>
      <trkpt lat="45.56233" lon="5.73467">
        <ele>637</ele>
        <time>2019-10-27T14:45:40.000Z</time>
      </trkpt>
      <trkpt lat="45.56234" lon="5.73466">
        <ele>637</ele>
        <time>2019-10-27T14:45:41.000Z</time>
      </trkpt>
      <trkpt lat="45.56235" lon="5.73465">
        <ele>637</ele>
        <time>2019-10-27T14:45:42.000Z</time>
      </trkpt>
      <trkpt lat="45.56236" lon="5.73464">
        <ele>637</ele>
        <time>2019-10-27T14:45:43.000Z</time>
      </trkpt>
      <trkpt lat="45.56236" lon="5.73463">
        <ele>637</ele>
        <time>2019-10-27T14:45:44.000Z</time>
      </trkpt>
      <trkpt lat="45.56237" lon="5.73463">
        <ele>637</ele>
        <time>2019-10-27T14:45:45.000Z</time>
      </trkpt>
      <trkpt lat="45.56238" lon="5.73462">
        <ele>637</ele>
        <time>2019-10-27T14:45:46.000Z</time>
      </trkpt>
      <trkpt lat="45.56238" lon="5.73461">
        <ele>637</ele>
        <time>2019-10-27T14:45:47.000Z</time>
      </trkpt>
      <trkpt lat="45.56239" lon="5.73461">
        <ele>637</ele>
        <time>2019-10-27T14:45:48.000Z</time>
      </trkpt>
      <trkpt lat="45.5624" lon="5.73461">
        <ele>637</ele>
        <time>2019-10-27T14:45:49.000Z</time>
      </trkpt>
      <trkpt lat="45.56241" lon="5.7346">
        <ele>637</ele>
        <time>2019-10-27T14:45:50.000Z</time>
      </trkpt>
      <trkpt lat="45.56242" lon="5.7346">
        <ele>637</ele>
        <time>2019-10-27T14:45:51.000Z</time>
      </trkpt>
      <trkpt lat="45.56242" lon="5.7346">
        <ele>637</ele>
        <time>2019-10-27T14:45:52.000Z</time>
      </trkpt>
      <trkpt lat="45.56243" lon="5.7346">
        <ele>637</ele>
        <time>2019-10-27T14:45:53.000Z</time>
      </trkpt>
      <trkpt lat="45.56244" lon="5.7346">
        <ele>637</ele>
        <time>2019-10-27T14:45:54.000Z</time>
      </trkpt>
      <trkpt lat="45.56245" lon="5.73459">
        <ele>637</ele>
        <time>2019-10-27T14:45:55.000Z</time>
      </trkpt>
      <trkpt lat="45.56246" lon="5.73459">
        <ele>637</ele>
        <time>2019-10-27T14:45:56.000Z</time>
      </trkpt>
      <trkpt lat="45.56247" lon="5.73458">
        <ele>637</ele>
        <time>2019-10-27T14:45:57.000Z</time>
      </trkpt>
      <trkpt lat="45.56248" lon="5.73457">
        <ele>637</ele>
        <time>2019-10-27T14:45:58.000Z</time>
      </trkpt>
      <trkpt lat="45.5625" lon="5.73456">
        <ele>637</ele>
        <time>2019-10-27T14:45:59.000Z</time>
      </trkpt>
      <trkpt lat="45.56251" lon="5.73454">
        <ele>637</ele>
        <time>2019-10-27T14:46:00.000Z</time>
      </trkpt>
      <trkpt lat="45.56252" lon="5.73452">
        <ele>637</ele>
        <time>2019-10-27T14:46:01.000Z</time>
      </trkpt>
      <trkpt lat="45.56253" lon="5.7345">
        <ele>637</ele>
        <time>2019-10-27T14:46:02.000Z</time>
      </trkpt>
      <trkpt lat="45.56254" lon="5.73449">
        <ele>637</ele>
        <time>2019-10-27T14:46:03.000Z</time>
      </trkpt>
      <trkpt lat="45.56256" lon="5.73447">
        <ele>637</ele>
        <time>2019-10-27T14:46:04.000Z</time>
      </trkpt>
      <trkpt lat="45.56257" lon="5.73445">
        <ele>637</ele>
        <time>2019-10-27T14:46:05.000Z</time>
      </trkpt>
      <trkpt lat="45.56258" lon="5.73443">
        <ele>637</ele>
        <time>2019-10-27T14:46:06.000Z</time>
      </trkpt>
      <trkpt lat="45.56258" lon="5.73442">
        <ele>637</ele>
        <time>2019-10-27T14:46:07.000Z</time>
      </trkpt>
      <trkpt lat="45.56259" lon="5.73441">
        <ele>637</ele>
        <time>2019-10-27T14:46:08.000Z</time>
      </trkpt>
      <trkpt lat="45.5626" lon="5.7344">
        <ele>637</ele>
        <time>2019-10-27T14:46:09.000Z</time>
      </trkpt>
      <trkpt lat="45.5626" lon="5.73439">
        <ele>637</ele>
        <time>2019-10-27T14:46:10.000Z</time>
      </trkpt>
      <trkpt lat="45.56261" lon="5.73439">
        <ele>637</ele>
        <time>2019-10-27T14:46:11.000Z</time>
      </trkpt>
      <trkpt lat="45.56261" lon="5.73439">
        <ele>637</ele>
        <time>2019-10-27T14:46:12.000Z</time>
      </trkpt>
      <trkpt lat="45.56261" lon="5.73439">
        <ele>637</ele>
        <time>2019-10-27T14:46:13.000Z</time>
      </trkpt>
      <trkpt lat="45.56261" lon="5.73439">
        <ele>637</ele>
        <time>2019-10-27T14:46:14.000Z</time>
      </trkpt>
      <trkpt lat="45.56261" lon="5.7344">
        <ele>637</ele>
        <time>2019-10-27T14:46:15.000Z</time>
      </trkpt>
      <trkpt lat="45.56261" lon="5.73441">
        <ele>637</ele>
        <time>2019-10-27T14:46:16.000Z</time>
      </trkpt>
      <trkpt lat="45.56261" lon="5.73441">
        <ele>637</ele>
        <time>2019-10-27T14:46:17.000Z</time>
      </trkpt>
      <trkpt lat="45.56261" lon="5.73442">
        <ele>637</ele>
        <time>2019-10-27T14:46:18.000Z</time>
      </trkpt>
      <trkpt lat="45.5626" lon="5.73442">
        <ele>637</ele>
        <time>2019-10-27T14:46:19.000Z</time>
      </trkpt>
      <trkpt lat="45.5626" lon="5.73442">
        <ele>637</ele>
        <time>2019-10-27T14:46:20.000Z</time>
      </trkpt>
      <trkpt lat="45.5626" lon="5.73442">
        <ele>637</ele>
        <time>2019-10-27T14:46:21.000Z</time>
      </trkpt>
      <trkpt lat="45.56259" lon="5.73441">
        <ele>637</ele>
        <time>2019-10-27T14:46:22.000Z</time>
      </trkpt>
      <trkpt lat="45.5626" lon="5.7344">
        <ele>637</ele>
        <time>2019-10-27T14:46:23.000Z</time>
      </trkpt>
      <trkpt lat="45.5626" lon="5.73438">
        <ele>637</ele>
        <time>2019-10-27T14:46:24.000Z</time>
      </trkpt>
      <trkpt lat="45.56261" lon="5.73437">
        <ele>637</ele>
        <time>2019-10-27T14:46:25.000Z</time>
      </trkpt>
      <trkpt lat="45.56263" lon="5.73436">
        <ele>637</ele>
        <time>2019-10-27T14:46:26.000Z</time>
      </trkpt>
      <trkpt lat="45.56265" lon="5.73435">
        <ele>637</ele>
        <time>2019-10-27T14:46:27.000Z</time>
      </trkpt>
      <trkpt lat="45.56266" lon="5.73435">
        <ele>637</ele>
        <time>2019-10-27T14:46:28.000Z</time>
      </trkpt>
      <trkpt lat="45.56267" lon="5.73436">
        <ele>637</ele>
        <time>2019-10-27T14:46:29.000Z</time>
      </trkpt>
      <trkpt lat="45.56267" lon="5.73437">
        <ele>637</ele>
        <time>2019-10-27T14:46:30.000Z</time>
      </trkpt>
      <trkpt lat="45.56268" lon="5.73438">
        <ele>637</ele>
        <time>2019-10-27T14:46:31.000Z</time>
      </trkpt>
      <trkpt lat="45.56268" lon="5.73439">
        <ele>637</ele>
        <time>2019-10-27T14:46:32.000Z</time>
      </trkpt>
      <trkpt lat="45.56268" lon="5.7344">
        <ele>637</ele>
        <time>2019-10-27T14:46:33.000Z</time>
      </trkpt>
      <trkpt lat="45.56268" lon="5.73441">
        <ele>637</ele>
        <time>2019-10-27T14:46:34.000Z</time>
      </trkpt>
      <trkpt lat="45.56269" lon="5.73442">
        <ele>637</ele>
        <time>2019-10-27T14:46:35.000Z</time>
      </trkpt>
      <trkpt lat="45.56269" lon="5.73442">
        <ele>637</ele>
        <time>2019-10-27T14:46:36.000Z</time>
      </trkpt>
      <trkpt lat="45.56269" lon="5.73443">
        <ele>637.5</ele>
        <time>2019-10-27T14:46:37.000Z</time>
      </trkpt>
      <trkpt lat="45.5627" lon="5.73444">
        <ele>638</ele>
        <time>2019-10-27T14:46:38.000Z</time>
      </trkpt>
      <trkpt lat="45.5627" lon="5.73445">
        <ele>638</ele>
        <time>2019-10-27T14:46:39.000Z</time>
      </trkpt>
      <trkpt lat="45.56271" lon="5.73446">
        <ele>638</ele>
        <time>2019-10-27T14:46:40.000Z</time>
      </trkpt>
      <trkpt lat="45.56271" lon="5.73447">
        <ele>638</ele>
        <time>2019-10-27T14:46:41.000Z</time>
      </trkpt>
      <trkpt lat="45.56272" lon="5.73448">
        <ele>639</ele>
        <time>2019-10-27T14:46:42.000Z</time>
      </trkpt>
      <trkpt lat="45.56272" lon="5.73449">
        <ele>639</ele>
        <time>2019-10-27T14:46:43.000Z</time>
      </trkpt>
      <trkpt lat="45.56272" lon="5.7345">
        <ele>639</ele>
        <time>2019-10-27T14:46:44.000Z</time>
      </trkpt>
      <trkpt lat="45.56272" lon="5.73452">
        <ele>639</ele>
        <time>2019-10-27T14:46:45.000Z</time>
      </trkpt>
      <trkpt lat="45.56271" lon="5.73453">
        <ele>639</ele>
        <time>2019-10-27T14:46:46.000Z</time>
      </trkpt>
      <trkpt lat="45.56271" lon="5.73455">
        <ele>639</ele>
        <time>2019-10-27T14:46:47.000Z</time>
      </trkpt>
      <trkpt lat="45.5627" lon="5.73457">
        <ele>639</ele>
        <time>2019-10-27T14:46:48.000Z</time>
      </trkpt>
      <trkpt lat="45.56269" lon="5.73459">
        <ele>639</ele>
        <time>2019-10-27T14:46:49.000Z</time>
      </trkpt>
      <trkpt lat="45.56268" lon="5.73462">
        <ele>639</ele>
        <time>2019-10-27T14:46:50.000Z</time>
      </trkpt>
      <trkpt lat="45.56266" lon="5.73464">
        <ele>639</ele>
        <time>2019-10-27T14:46:51.000Z</time>
      </trkpt>
      <trkpt lat="45.56264" lon="5.73467">
        <ele>639</ele>
        <time>2019-10-27T14:46:52.000Z</time>
      </trkpt>
      <trkpt lat="45.56262" lon="5.7347">
        <ele>639</ele>
        <time>2019-10-27T14:46:53.000Z</time>
      </trkpt>
      <trkpt lat="45.5626" lon="5.73473">
        <ele>639.5</ele>
        <time>2019-10-27T14:46:54.000Z</time>
      </trkpt>
      <trkpt lat="45.56257" lon="5.73476">
        <ele>640</ele>
        <time>2019-10-27T14:46:55.000Z</time>
      </trkpt>
      <trkpt lat="45.56255" lon="5.73479">
        <ele>640</ele>
        <time>2019-10-27T14:46:56.000Z</time>
      </trkpt>
      <trkpt lat="45.56252" lon="5.73482">
        <ele>640</ele>
        <time>2019-10-27T14:46:57.000Z</time>
      </trkpt>
      <trkpt lat="45.5625" lon="5.73485">
        <ele>640</ele>
        <time>2019-10-27T14:46:58.000Z</time>
      </trkpt>
      <trkpt lat="45.56247" lon="5.73488">
        <ele>640</ele>
        <time>2019-10-27T14:46:59.000Z</time>
      </trkpt>
      <trkpt lat="45.56244" lon="5.7349">
        <ele>640</ele>
        <time>2019-10-27T14:47:00.000Z</time>
      </trkpt>
      <trkpt lat="45.56241" lon="5.73492">
        <ele>640</ele>
        <time>2019-10-27T14:47:01.000Z</time>
      </trkpt>
      <trkpt lat="45.56239" lon="5.73494">
        <ele>640</ele>
        <time>2019-10-27T14:47:02.000Z</time>
      </trkpt>
      <trkpt lat="45.56236" lon="5.73496">
        <ele>640</ele>
        <time>2019-10-27T14:47:03.000Z</time>
      </trkpt>
      <trkpt lat="45.56234" lon="5.73498">
        <ele>640</ele>
        <time>2019-10-27T14:47:04.000Z</time>
      </trkpt>
      <trkpt lat="45.56232" lon="5.73499">
        <ele>640</ele>
        <time>2019-10-27T14:47:05.000Z</time>
      </trkpt>
      <trkpt lat="45.5623" lon="5.735">
        <ele>640</ele>
        <time>2019-10-27T14:47:06.000Z</time>
      </trkpt>
      <trkpt lat="45.56229" lon="5.73501">
        <ele>640</ele>
        <time>2019-10-27T14:47:07.000Z</time>
      </trkpt>
      <trkpt lat="45.56228" lon="5.73501">
        <ele>640</ele>
        <time>2019-10-27T14:47:08.000Z</time>
      </trkpt>
      <trkpt lat="45.56227" lon="5.73502">
        <ele>640</ele>
        <time>2019-10-27T14:47:09.000Z</time>
      </trkpt>
      <trkpt lat="45.56226" lon="5.73502">
        <ele>640</ele>
        <time>2019-10-27T14:47:10.000Z</time>
      </trkpt>
      <trkpt lat="45.56225" lon="5.73502">
        <ele>640</ele>
        <time>2019-10-27T14:47:11.000Z</time>
      </trkpt>
      <trkpt lat="45.56224" lon="5.73501">
        <ele>640</ele>
        <time>2019-10-27T14:47:12.000Z</time>
      </trkpt>
      <trkpt lat="45.56224" lon="5.73501">
        <ele>640</ele>
        <time>2019-10-27T14:47:13.000Z</time>
      </trkpt>
      <trkpt lat="45.56223" lon="5.73501">
        <ele>640</ele>
        <time>2019-10-27T14:47:14.000Z</time>
      </trkpt>
      <trkpt lat="45.56223" lon="5.735">
        <ele>640</ele>
        <time>2019-10-27T14:47:15.000Z</time>
      </trkpt>
      <trkpt lat="45.56222" lon="5.735">
        <ele>640</ele>
        <time>2019-10-27T14:47:16.000Z</time>
      </trkpt>
      <trkpt lat="45.56221" lon="5.735">
        <ele>640</ele>
        <time>2019-10-27T14:47:17.000Z</time>
      </trkpt>
      <trkpt lat="45.5622" lon="5.73499">
        <ele>640</ele>
        <time>2019-10-27T14:47:18.000Z</time>
      </trkpt>
      <trkpt lat="45.5622" lon="5.73499">
        <ele>640</ele>
        <time>2019-10-27T14:47:19.000Z</time>
      </trkpt>
      <trkpt lat="45.56219" lon="5.73499">
        <ele>640</ele>
        <time>2019-10-27T14:47:20.000Z</time>
      </trkpt>
      <trkpt lat="45.56217" lon="5.735">
        <ele>639.5</ele>
        <time>2019-10-27T14:47:21.000Z</time>
      </trkpt>
      <trkpt lat="45.56216" lon="5.735">
        <ele>639</ele>
        <time>2019-10-27T14:47:22.000Z</time>
      </trkpt>
      <trkpt lat="45.56215" lon="5.73501">
        <ele>639</ele>
        <time>2019-10-27T14:47:23.000Z</time>
      </trkpt>
      <trkpt lat="45.56213" lon="5.73502">
        <ele>639</ele>
        <time>2019-10-27T14:47:24.000Z</time>
      </trkpt>
      <trkpt lat="45.56212" lon="5.73504">
        <ele>639</ele>
        <time>2019-10-27T14:47:25.000Z</time>
      </trkpt>
      <trkpt lat="45.5621" lon="5.73505">
        <ele>639</ele>
        <time>2019-10-27T14:47:26.000Z</time>
      </trkpt>
      <trkpt lat="45.56209" lon="5.73506">
        <ele>639</ele>
        <time>2019-10-27T14:47:27.000Z</time>
      </trkpt>
      <trkpt lat="45.56208" lon="5.73507">
        <ele>639</ele>
        <time>2019-10-27T14:47:28.000Z</time>
      </trkpt>
      <trkpt lat="45.56208" lon="5.73507">
        <ele>639</ele>
        <time>2019-10-27T14:47:29.000Z</time>
      </trkpt>
      <trkpt lat="45.56208" lon="5.73507">
        <ele>639</ele>
        <time>2019-10-27T14:47:30.000Z</time>
      </trkpt>
      <trkpt lat="45.56208" lon="5.73506">
        <ele>639</ele>
        <time>2019-10-27T14:47:31.000Z</time>
      </trkpt>
      <trkpt lat="45.56208" lon="5.73506">
        <ele>639</ele>
        <time>2019-10-27T14:47:32.000Z</time>
      </trkpt>
      <trkpt lat="45.56208" lon="5.73505">
        <ele>639</ele>
        <time>2019-10-27T14:47:33.000Z</time>
      </trkpt>
      <trkpt lat="45.56207" lon="5.73504">
        <ele>639</ele>
        <time>2019-10-27T14:47:34.000Z</time>
      </trkpt>
      <trkpt lat="45.56207" lon="5.73504">
        <ele>639</ele>
        <time>2019-10-27T14:47:35.000Z</time>
      </trkpt>
      <trkpt lat="45.56207" lon="5.73504">
        <ele>639</ele>
        <time>2019-10-27T14:47:36.000Z</time>
      </trkpt>
      <trkpt lat="45.56206" lon="5.73504">
        <ele>639</ele>
        <time>2019-10-27T14:47:37.000Z</time>
      </trkpt>
      <trkpt lat="45.56205" lon="5.73504">
        <ele>638.7</ele>
        <time>2019-10-27T14:47:38.000Z</time>
      </trkpt>
      <trkpt lat="45.56204" lon="5.73505">
        <ele>638.3</ele>
        <time>2019-10-27T14:47:39.000Z</time>
      </trkpt>
      <trkpt lat="45.56202" lon="5.73507">
        <ele>638</ele>
        <time>2019-10-27T14:47:40.000Z</time>
      </trkpt>
      <trkpt lat="45.56201" lon="5.73509">
        <ele>638</ele>
        <time>2019-10-27T14:47:41.000Z</time>
      </trkpt>
      <trkpt lat="45.56199" lon="5.73511">
        <ele>638</ele>
        <time>2019-10-27T14:47:42.000Z</time>
      </trkpt>
      <trkpt lat="45.56197" lon="5.73513">
        <ele>638</ele>
        <time>2019-10-27T14:47:43.000Z</time>
      </trkpt>
      <trkpt lat="45.56195" lon="5.73515">
        <ele>638</ele>
        <time>2019-10-27T14:47:44.000Z</time>
      </trkpt>
      <trkpt lat="45.56194" lon="5.73515">
        <ele>638</ele>
        <time>2019-10-27T14:47:45.000Z</time>
      </trkpt>
      <trkpt lat="45.56193" lon="5.73515">
        <ele>638</ele>
        <time>2019-10-27T14:47:46.000Z</time>
      </trkpt>
      <trkpt lat="45.56193" lon="5.73514">
        <ele>637.5</ele>
        <time>2019-10-27T14:47:47.000Z</time>
      </trkpt>
      <trkpt lat="45.56193" lon="5.73513">
        <ele>637</ele>
        <time>2019-10-27T14:47:48.000Z</time>
      </trkpt>
      <trkpt lat="45.56194" lon="5.73513">
        <ele>637</ele>
        <time>2019-10-27T14:47:49.000Z</time>
      </trkpt>
      <trkpt lat="45.56194" lon="5.73513">
        <ele>637</ele>
        <time>2019-10-27T14:47:50.000Z</time>
      </trkpt>
      <trkpt lat="45.56194" lon="5.73513">
        <ele>637</ele>
        <time>2019-10-27T14:47:51.000Z</time>
      </trkpt>
      <trkpt lat="45.56194" lon="5.73512">
        <ele>637</ele>
        <time>2019-10-27T14:47:52.000Z</time>
      </trkpt>
      <trkpt lat="45.56195" lon="5.73511">
        <ele>637</ele>
        <time>2019-10-27T14:47:53.000Z</time>
      </trkpt>
      <trkpt lat="45.56196" lon="5.73507">
        <ele>637</ele>
        <time>2019-10-27T14:47:54.000Z</time>
      </trkpt>
      <trkpt lat="45.56198" lon="5.73502">
        <ele>637</ele>
        <time>2019-10-27T14:47:55.000Z</time>
      </trkpt>
      <trkpt lat="45.562" lon="5.73496">
        <ele>637</ele>
        <time>2019-10-27T14:47:56.000Z</time>
      </trkpt>
      <trkpt lat="45.56202" lon="5.7349">
        <ele>637</ele>
        <time>2019-10-27T14:47:57.000Z</time>
      </trkpt>
      <trkpt lat="45.56204" lon="5.73484">
        <ele>637</ele>
        <time>2019-10-27T14:47:58.000Z</time>
      </trkpt>
      <trkpt lat="45.56206" lon="5.73479">
        <ele>637</ele>
        <time>2019-10-27T14:47:59.000Z</time>
      </trkpt>
      <trkpt lat="45.56207" lon="5.73474">
        <ele>637</ele>
        <time>2019-10-27T14:48:00.000Z</time>
      </trkpt>
      <trkpt lat="45.56208" lon="5.73471">
        <ele>637</ele>
        <time>2019-10-27T14:48:01.000Z</time>
      </trkpt>
      <trkpt lat="45.56208" lon="5.73468">
        <ele>637</ele>
        <time>2019-10-27T14:48:02.000Z</time>
      </trkpt>
      <trkpt lat="45.56209" lon="5.73466">
        <ele>637</ele>
        <time>2019-10-27T14:48:03.000Z</time>
      </trkpt>
      <trkpt lat="45.56209" lon="5.73465">
        <ele>637</ele>
        <time>2019-10-27T14:48:04.000Z</time>
      </trkpt>
      <trkpt lat="45.56209" lon="5.73465">
        <ele>637</ele>
        <time>2019-10-27T14:48:05.000Z</time>
      </trkpt>
      <trkpt lat="45.56209" lon="5.73465">
        <ele>637</ele>
        <time>2019-10-27T14:48:06.000Z</time>
      </trkpt>
      <trkpt lat="45.56209" lon="5.73465">
        <ele>637</ele>
        <time>2019-10-27T14:48:07.000Z</time>
      </trkpt>
      <trkpt lat="45.56209" lon="5.73465">
        <ele>637</ele>
        <time>2019-10-27T14:48:08.000Z</time>
      </trkpt>
      <trkpt lat="45.56209" lon="5.73465">
        <ele>637</ele>
        <time>2019-10-27T14:48:09.000Z</time>
      </trkpt>
      <trkpt lat="45.56209" lon="5.73465">
        <ele>637</ele>
        <time>2019-10-27T14:48:10.000Z</time>
      </trkpt>
      <trkpt lat="45.56209" lon="5.73465">
        <ele>637</ele>
        <time>2019-10-27T14:48:11.000Z</time>
      </trkpt>
      <trkpt lat="45.56209" lon="5.73465">
        <ele>637</ele>
        <time>2019-10-27T14:48:12.000Z</time>
      </trkpt>
      <trkpt lat="45.56209" lon="5.73465">
        <ele>637</ele>
        <time>2019-10-27T14:48:13.000Z</time>
      </trkpt>
      <trkpt lat="45.56209" lon="5.73465">
        <ele>637</ele>
        <time>2019-10-27T14:48:14.000Z</time>
      </trkpt>
      <trkpt lat="45.56209" lon="5.73465">
        <ele>637</ele>
        <time>2019-10-27T14:48:15.000Z</time>
      </trkpt>
      <trkpt lat="45.56209" lon="5.73465">
        <ele>637</ele>
        <time>2019-10-27T14:48:16.000Z</time>
      </trkpt>
      <trkpt lat="45.56209" lon="5.73465">
        <ele>637</ele>
        <time>2019-10-27T14:48:17.000Z</time>
      </trkpt>
      <trkpt lat="45.56209" lon="5.73464">
        <ele>637</ele>
        <time>2019-10-27T14:48:18.000Z</time>
      </trkpt>
      <trkpt lat="45.56209" lon="5.73464">
        <ele>637</ele>
        <time>2019-10-27T14:48:19.000Z</time>
      </trkpt>
      <trkpt lat="45.56208" lon="5.73462">
        <ele>637</ele>
        <time>2019-10-27T14:48:20.000Z</time>
      </trkpt>
      <trkpt lat="45.56208" lon="5.73461">
        <ele>637</ele>
        <time>2019-10-27T14:48:21.000Z</time>
      </trkpt>
      <trkpt lat="45.56208" lon="5.73459">
        <ele>637</ele>
        <time>2019-10-27T14:48:22.000Z</time>
      </trkpt>
      <trkpt lat="45.56208" lon="5.73458">
        <ele>637</ele>
        <time>2019-10-27T14:48:23.000Z</time>
      </trkpt>
      <trkpt lat="45.56207" lon="5.73457">
        <ele>637</ele>
        <time>2019-10-27T14:48:24.000Z</time>
      </trkpt>
      <trkpt lat="45.56207" lon="5.73456">
        <ele>637</ele>
        <time>2019-10-27T14:48:25.000Z</time>
      </trkpt>
      <trkpt lat="45.56207" lon="5.73455">
        <ele>637</ele>
        <time>2019-10-27T14:48:26.000Z</time>
      </trkpt>
      <trkpt lat="45.56207" lon="5.73454">
        <ele>637</ele>
        <time>2019-10-27T14:48:27.000Z</time>
      </trkpt>
      <trkpt lat="45.56207" lon="5.73454">
        <ele>637</ele>
        <time>2019-10-27T14:48:28.000Z</time>
      </trkpt>
      <trkpt lat="45.56207" lon="5.73453">
        <ele>637</ele>
        <time>2019-10-27T14:48:29.000Z</time>
      </trkpt>
      <trkpt lat="45.56206" lon="5.73453">
        <ele>637</ele>
        <time>2019-10-27T14:48:30.000Z</time>
      </trkpt>
      <trkpt lat="45.56206" lon="5.73452">
        <ele>637</ele>
        <time>2019-10-27T14:48:31.000Z</time>
      </trkpt>
      <trkpt lat="45.56206" lon="5.73452">
        <ele>637</ele>
        <time>2019-10-27T14:48:32.000Z</time>
      </trkpt>
      <trkpt lat="45.56206" lon="5.73452">
        <ele>637.5</ele>
        <time>2019-10-27T14:48:33.000Z</time>
      </trkpt>
      <trkpt lat="45.56206" lon="5.73451">
        <ele>638</ele>
        <time>2019-10-27T14:48:34.000Z</time>
      </trkpt>
      <trkpt lat="45.56205" lon="5.73451">
        <ele>638</ele>
        <time>2019-10-27T14:48:35.000Z</time>
      </trkpt>
      <trkpt lat="45.56205" lon="5.7345">
        <ele>638</ele>
        <time>2019-10-27T14:48:36.000Z</time>
      </trkpt>
      <trkpt lat="45.56204" lon="5.7345">
        <ele>637.5</ele>
        <time>2019-10-27T14:48:37.000Z</time>
      </trkpt>
      <trkpt lat="45.56204" lon="5.7345">
        <ele>637</ele>
        <time>2019-10-27T14:48:38.000Z</time>
      </trkpt>
      <trkpt lat="45.56203" lon="5.7345">
        <ele>637</ele>
        <time>2019-10-27T14:48:39.000Z</time>
      </trkpt>
      <trkpt lat="45.56202" lon="5.73451">
        <ele>637</ele>
        <time>2019-10-27T14:48:40.000Z</time>
      </trkpt>
      <trkpt lat="45.56201" lon="5.73451">
        <ele>637</ele>
        <time>2019-10-27T14:48:41.000Z</time>
      </trkpt>
      <trkpt lat="45.562" lon="5.73452">
        <ele>637</ele>
        <time>2019-10-27T14:48:42.000Z</time>
      </trkpt>
      <trkpt lat="45.56198" lon="5.73453">
        <ele>637</ele>
        <time>2019-10-27T14:48:43.000Z</time>
      </trkpt>
      <trkpt lat="45.56197" lon="5.73454">
        <ele>637</ele>
        <time>2019-10-27T14:48:44.000Z</time>
      </trkpt>
      <trkpt lat="45.56196" lon="5.73455">
        <ele>637</ele>
        <time>2019-10-27T14:48:45.000Z</time>
      </trkpt>
      <trkpt lat="45.56195" lon="5.73456">
        <ele>637</ele>
        <time>2019-10-27T14:48:46.000Z</time>
      </trkpt>
      <trkpt lat="45.56194" lon="5.73457">
        <ele>637</ele>
        <time>2019-10-27T14:48:47.000Z</time>
      </trkpt>
      <trkpt lat="45.56194" lon="5.73457">
        <ele>637</ele>
        <time>2019-10-27T14:48:48.000Z</time>
      </trkpt>
      <trkpt lat="45.56193" lon="5.73458">
        <ele>637</ele>
        <time>2019-10-27T14:48:49.000Z</time>
      </trkpt>
      <trkpt lat="45.56192" lon="5.73458">
        <ele>637</ele>
        <time>2019-10-27T14:48:50.000Z</time>
      </trkpt>
      <trkpt lat="45.56192" lon="5.73459">
        <ele>637</ele>
        <time>2019-10-27T14:48:51.000Z</time>
      </trkpt>
      <trkpt lat="45.56191" lon="5.73459">
        <ele>637</ele>
        <time>2019-10-27T14:48:52.000Z</time>
      </trkpt>
      <trkpt lat="45.5619" lon="5.73459">
        <ele>637</ele>
        <time>2019-10-27T14:48:53.000Z</time>
      </trkpt>
      <trkpt lat="45.56189" lon="5.73459">
        <ele>637</ele>
        <time>2019-10-27T14:48:54.000Z</time>
      </trkpt>
      <trkpt lat="45.56188" lon="5.73459">
        <ele>637</ele>
        <time>2019-10-27T14:48:55.000Z</time>
      </trkpt>
      <trkpt lat="45.56187" lon="5.73459">
        <ele>637</ele>
        <time>2019-10-27T14:48:56.000Z</time>
      </trkpt>
      <trkpt lat="45.56186" lon="5.7346">
        <ele>636.5</ele>
        <time>2019-10-27T14:48:57.000Z</time>
      </trkpt>
      <trkpt lat="45.56185" lon="5.7346">
        <ele>636</ele>
        <time>2019-10-27T14:48:58.000Z</time>
      </trkpt>
      <trkpt lat="45.56184" lon="5.73461">
        <ele>636</ele>
        <time>2019-10-27T14:48:59.000Z</time>
      </trkpt>
      <trkpt lat="45.56183" lon="5.73462">
        <ele>636</ele>
        <time>2019-10-27T14:49:00.000Z</time>
      </trkpt>
      <trkpt lat="45.56181" lon="5.73464">
        <ele>636</ele>
        <time>2019-10-27T14:49:01.000Z</time>
      </trkpt>
      <trkpt lat="45.5618" lon="5.73465">
        <ele>636</ele>
        <time>2019-10-27T14:49:02.000Z</time>
      </trkpt>
      <trkpt lat="45.56178" lon="5.73466">
        <ele>636</ele>
        <time>2019-10-27T14:49:03.000Z</time>
      </trkpt>
      <trkpt lat="45.56177" lon="5.73468">
        <ele>636</ele>
        <time>2019-10-27T14:49:04.000Z</time>
      </trkpt>
      <trkpt lat="45.56175" lon="5.73469">
        <ele>636</ele>
        <time>2019-10-27T14:49:05.000Z</time>
      </trkpt>
      <trkpt lat="45.56174" lon="5.7347">
        <ele>636</ele>
        <time>2019-10-27T14:49:06.000Z</time>
      </trkpt>
      <trkpt lat="45.56172" lon="5.73472">
        <ele>636</ele>
        <time>2019-10-27T14:49:07.000Z</time>
      </trkpt>
      <trkpt lat="45.56171" lon="5.73473">
        <ele>636</ele>
        <time>2019-10-27T14:49:08.000Z</time>
      </trkpt>
      <trkpt lat="45.56169" lon="5.73474">
        <ele>636</ele>
        <time>2019-10-27T14:49:09.000Z</time>
      </trkpt>
      <trkpt lat="45.56168" lon="5.73475">
        <ele>636</ele>
        <time>2019-10-27T14:49:10.000Z</time>
      </trkpt>
      <trkpt lat="45.56167" lon="5.73475">
        <ele>636</ele>
        <time>2019-10-27T14:49:11.000Z</time>
      </trkpt>
      <trkpt lat="45.56166" lon="5.73476">
        <ele>636</ele>
        <time>2019-10-27T14:49:12.000Z</time>
      </trkpt>
      <trkpt lat="45.56164" lon="5.73476">
        <ele>635.5</ele>
        <time>2019-10-27T14:49:13.000Z</time>
      </trkpt>
      <trkpt lat="45.56163" lon="5.73477">
        <ele>635</ele>
        <time>2019-10-27T14:49:14.000Z</time>
      </trkpt>
      <trkpt lat="45.56162" lon="5.73477">
        <ele>635</ele>
        <time>2019-10-27T14:49:15.000Z</time>
      </trkpt>
      <trkpt lat="45.56161" lon="5.73477">
        <ele>635</ele>
        <time>2019-10-27T14:49:16.000Z</time>
      </trkpt>
      <trkpt lat="45.5616" lon="5.73477">
        <ele>635</ele>
        <time>2019-10-27T14:49:17.000Z</time>
      </trkpt>
      <trkpt lat="45.56159" lon="5.73477">
        <ele>635</ele>
        <time>2019-10-27T14:49:18.000Z</time>
      </trkpt>
      <trkpt lat="45.56158" lon="5.73477">
        <ele>635</ele>
        <time>2019-10-27T14:49:19.000Z</time>
      </trkpt>
      <trkpt lat="45.56157" lon="5.73477">
        <ele>635</ele>
        <time>2019-10-27T14:49:20.000Z</time>
      </trkpt>
      <trkpt lat="45.56156" lon="5.73477">
        <ele>635</ele>
        <time>2019-10-27T14:49:21.000Z</time>
      </trkpt>
      <trkpt lat="45.56155" lon="5.73477">
        <ele>635</ele>
        <time>2019-10-27T14:49:22.000Z</time>
      </trkpt>
      <trkpt lat="45.56154" lon="5.73476">
        <ele>635</ele>
        <time>2019-10-27T14:49:23.000Z</time>
      </trkpt>
      <trkpt lat="45.56154" lon="5.73476">
        <ele>635.3</ele>
        <time>2019-10-27T14:49:24.000Z</time>
      </trkpt>
      <trkpt lat="45.56153" lon="5.73476">
        <ele>635.7</ele>
        <time>2019-10-27T14:49:25.000Z</time>
      </trkpt>
      <trkpt lat="45.56152" lon="5.73475">
        <ele>636</ele>
        <time>2019-10-27T14:49:26.000Z</time>
      </trkpt>
      <trkpt lat="45.56152" lon="5.73475">
        <ele>636</ele>
        <time>2019-10-27T14:49:27.000Z</time>
      </trkpt>
      <trkpt lat="45.56151" lon="5.73475">
        <ele>635.5</ele>
        <time>2019-10-27T14:49:28.000Z</time>
      </trkpt>
      <trkpt lat="45.56151" lon="5.73474">
        <ele>635</ele>
        <time>2019-10-27T14:49:29.000Z</time>
      </trkpt>
      <trkpt lat="45.5615" lon="5.73474">
        <ele>635</ele>
        <time>2019-10-27T14:49:30.000Z</time>
      </trkpt>
      <trkpt lat="45.5615" lon="5.73474">
        <ele>635</ele>
        <time>2019-10-27T14:49:31.000Z</time>
      </trkpt>
      <trkpt lat="45.56149" lon="5.73474">
        <ele>635</ele>
        <time>2019-10-27T14:49:32.000Z</time>
      </trkpt>
      <trkpt lat="45.56149" lon="5.73474">
        <ele>636</ele>
        <time>2019-10-27T14:49:33.000Z</time>
      </trkpt>
      <trkpt lat="45.56148" lon="5.73474">
        <ele>636</ele>
        <time>2019-10-27T14:49:34.000Z</time>
      </trkpt>
      <trkpt lat="45.56148" lon="5.73475">
        <ele>636</ele>
        <time>2019-10-27T14:49:35.000Z</time>
      </trkpt>
      <trkpt lat="45.56148" lon="5.73475">
        <ele>636</ele>
        <time>2019-10-27T14:49:36.000Z</time>
      </trkpt>
      <trkpt lat="45.56148" lon="5.73475">
        <ele>636</ele>
        <time>2019-10-27T14:49:37.000Z</time>
      </trkpt>
      <trkpt lat="45.56148" lon="5.73475">
        <ele>636</ele>
        <time>2019-10-27T14:49:38.000Z</time>
      </trkpt>
      <trkpt lat="45.56148" lon="5.73474">
        <ele>636</ele>
        <time>2019-10-27T14:49:39.000Z</time>
      </trkpt>
      <trkpt lat="45.56148" lon="5.73473">
        <ele>636</ele>
        <time>2019-10-27T14:49:40.000Z</time>
      </trkpt>
      <trkpt lat="45.56148" lon="5.73472">
        <ele>636</ele>
        <time>2019-10-27T14:49:41.000Z</time>
      </trkpt>
      <trkpt lat="45.56149" lon="5.7347">
        <ele>636</ele>
        <time>2019-10-27T14:49:42.000Z</time>
      </trkpt>
      <trkpt lat="45.56149" lon="5.73469">
        <ele>636</ele>
        <time>2019-10-27T14:49:43.000Z</time>
      </trkpt>
      <trkpt lat="45.5615" lon="5.73467">
        <ele>636</ele>
        <time>2019-10-27T14:49:44.000Z</time>
      </trkpt>
      <trkpt lat="45.5615" lon="5.73465">
        <ele>636</ele>
        <time>2019-10-27T14:49:45.000Z</time>
      </trkpt>
      <trkpt lat="45.5615" lon="5.73464">
        <ele>636</ele>
        <time>2019-10-27T14:49:46.000Z</time>
      </trkpt>
      <trkpt lat="45.5615" lon="5.73463">
        <ele>636</ele>
        <time>2019-10-27T14:49:47.000Z</time>
      </trkpt>
      <trkpt lat="45.5615" lon="5.73462">
        <ele>636</ele>
        <time>2019-10-27T14:49:48.000Z</time>
      </trkpt>
      <trkpt lat="45.56149" lon="5.73463">
        <ele>636</ele>
        <time>2019-10-27T14:49:49.000Z</time>
      </trkpt>
      <trkpt lat="45.56148" lon="5.73463">
        <ele>636</ele>
        <time>2019-10-27T14:49:50.000Z</time>
      </trkpt>
      <trkpt lat="45.56147" lon="5.73465">
        <ele>636</ele>
        <time>2019-10-27T14:49:51.000Z</time>
      </trkpt>
      <trkpt lat="45.56145" lon="5.73467">
        <ele>636</ele>
        <time>2019-10-27T14:49:52.000Z</time>
      </trkpt>
      <trkpt lat="45.56143" lon="5.73469">
        <ele>636</ele>
        <time>2019-10-27T14:49:53.000Z</time>
      </trkpt>
      <trkpt lat="45.56141" lon="5.73472">
        <ele>636</ele>
        <time>2019-10-27T14:49:54.000Z</time>
      </trkpt>
      <trkpt lat="45.56138" lon="5.73476">
        <ele>636</ele>
        <time>2019-10-27T14:49:55.000Z</time>
      </trkpt>
      <trkpt lat="45.56136" lon="5.73479">
        <ele>636</ele>
        <time>2019-10-27T14:49:56.000Z</time>
      </trkpt>
      <trkpt lat="45.56133" lon="5.73483">
        <ele>636</ele>
        <time>2019-10-27T14:49:57.000Z</time>
      </trkpt>
      <trkpt lat="45.5613" lon="5.73487">
        <ele>636</ele>
        <time>2019-10-27T14:49:58.000Z</time>
      </trkpt>
      <trkpt lat="45.56127" lon="5.73491">
        <ele>636</ele>
        <time>2019-10-27T14:49:59.000Z</time>
      </trkpt>
      <trkpt lat="45.56124" lon="5.73494">
        <ele>636</ele>
        <time>2019-10-27T14:50:00.000Z</time>
      </trkpt>
      <trkpt lat="45.56121" lon="5.73498">
        <ele>636</ele>
        <time>2019-10-27T14:50:01.000Z</time>
      </trkpt>
      <trkpt lat="45.56118" lon="5.73502">
        <ele>636</ele>
        <time>2019-10-27T14:50:02.000Z</time>
      </trkpt>
      <trkpt lat="45.56115" lon="5.73506">
        <ele>637</ele>
        <time>2019-10-27T14:50:03.000Z</time>
      </trkpt>
      <trkpt lat="45.56112" lon="5.73509">
        <ele>637</ele>
        <time>2019-10-27T14:50:04.000Z</time>
      </trkpt>
      <trkpt lat="45.5611" lon="5.73513">
        <ele>637</ele>
        <time>2019-10-27T14:50:05.000Z</time>
      </trkpt>
      <trkpt lat="45.56107" lon="5.73516">
        <ele>637</ele>
        <time>2019-10-27T14:50:06.000Z</time>
      </trkpt>
      <trkpt lat="45.56105" lon="5.73519">
        <ele>637</ele>
        <time>2019-10-27T14:50:07.000Z</time>
      </trkpt>
      <trkpt lat="45.56102" lon="5.73522">
        <ele>637.5</ele>
        <time>2019-10-27T14:50:08.000Z</time>
      </trkpt>
      <trkpt lat="45.561" lon="5.73524">
        <ele>638</ele>
        <time>2019-10-27T14:50:09.000Z</time>
      </trkpt>
      <trkpt lat="45.56099" lon="5.73527">
        <ele>638</ele>
        <time>2019-10-27T14:50:10.000Z</time>
      </trkpt>
      <trkpt lat="45.56097" lon="5.73529">
        <ele>638</ele>
        <time>2019-10-27T14:50:11.000Z</time>
      </trkpt>
      <trkpt lat="45.56095" lon="5.73532">
        <ele>638</ele>
        <time>2019-10-27T14:50:12.000Z</time>
      </trkpt>
      <trkpt lat="45.56094" lon="5.73534">
        <ele>638</ele>
        <time>2019-10-27T14:50:13.000Z</time>
      </trkpt>
      <trkpt lat="45.56092" lon="5.73536">
        <ele>638.5</ele>
        <time>2019-10-27T14:50:14.000Z</time>
      </trkpt>
      <trkpt lat="45.56091" lon="5.73538">
        <ele>639</ele>
        <time>2019-10-27T14:50:15.000Z</time>
      </trkpt>
      <trkpt lat="45.5609" lon="5.7354">
        <ele>639</ele>
        <time>2019-10-27T14:50:16.000Z</time>
      </trkpt>
      <trkpt lat="45.56088" lon="5.73542">
        <ele>639</ele>
        <time>2019-10-27T14:50:17.000Z</time>
      </trkpt>
      <trkpt lat="45.56087" lon="5.73545">
        <ele>639</ele>
        <time>2019-10-27T14:50:18.000Z</time>
      </trkpt>
      <trkpt lat="45.56085" lon="5.73547">
        <ele>639</ele>
        <time>2019-10-27T14:50:19.000Z</time>
      </trkpt>
      <trkpt lat="45.56084" lon="5.7355">
        <ele>639</ele>
        <time>2019-10-27T14:50:20.000Z</time>
      </trkpt>
      <trkpt lat="45.56082" lon="5.73552">
        <ele>639.5</ele>
        <time>2019-10-27T14:50:21.000Z</time>
      </trkpt>
      <trkpt lat="45.5608" lon="5.73555">
        <ele>640</ele>
        <time>2019-10-27T14:50:22.000Z</time>
      </trkpt>
      <trkpt lat="45.56078" lon="5.73558">
        <ele>640</ele>
        <time>2019-10-27T14:50:23.000Z</time>
      </trkpt>
      <trkpt lat="45.56076" lon="5.7356">
        <ele>640</ele>
        <time>2019-10-27T14:50:24.000Z</time>
      </trkpt>
      <trkpt lat="45.56074" lon="5.73563">
        <ele>640</ele>
        <time>2019-10-27T14:50:25.000Z</time>
      </trkpt>
      <trkpt lat="45.56073" lon="5.73565">
        <ele>640</ele>
        <time>2019-10-27T14:50:26.000Z</time>
      </trkpt>
      <trkpt lat="45.56071" lon="5.73567">
        <ele>640</ele>
        <time>2019-10-27T14:50:27.000Z</time>
      </trkpt>
      <trkpt lat="45.56069" lon="5.73569">
        <ele>640</ele>
        <time>2019-10-27T14:50:28.000Z</time>
      </trkpt>
      <trkpt lat="45.56068" lon="5.73571">
        <ele>641</ele>
        <time>2019-10-27T14:50:29.000Z</time>
      </trkpt>
      <trkpt lat="45.56067" lon="5.73573">
        <ele>641</ele>
        <time>2019-10-27T14:50:30.000Z</time>
      </trkpt>
      <trkpt lat="45.56066" lon="5.73574">
        <ele>641</ele>
        <time>2019-10-27T14:50:31.000Z</time>
      </trkpt>
      <trkpt lat="45.56065" lon="5.73576">
        <ele>641</ele>
        <time>2019-10-27T14:50:32.000Z</time>
      </trkpt>
      <trkpt lat="45.56064" lon="5.73577">
        <ele>641</ele>
        <time>2019-10-27T14:50:33.000Z</time>
      </trkpt>
      <trkpt lat="45.56063" lon="5.73579">
        <ele>641</ele>
        <time>2019-10-27T14:50:34.000Z</time>
      </trkpt>
      <trkpt lat="45.56062" lon="5.7358">
        <ele>641</ele>
        <time>2019-10-27T14:50:35.000Z</time>
      </trkpt>
      <trkpt lat="45.56061" lon="5.73581">
        <ele>641</ele>
        <time>2019-10-27T14:50:36.000Z</time>
      </trkpt>
      <trkpt lat="45.56061" lon="5.73582">
        <ele>641</ele>
        <time>2019-10-27T14:50:37.000Z</time>
      </trkpt>
      <trkpt lat="45.5606" lon="5.73583">
        <ele>641</ele>
        <time>2019-10-27T14:50:38.000Z</time>
      </trkpt>
      <trkpt lat="45.5606" lon="5.73583">
        <ele>641</ele>
        <time>2019-10-27T14:50:39.000Z</time>
      </trkpt>
      <trkpt lat="45.5606" lon="5.73583">
        <ele>641</ele>
        <time>2019-10-27T14:50:40.000Z</time>
      </trkpt>
      <trkpt lat="45.5606" lon="5.73583">
        <ele>641</ele>
        <time>2019-10-27T14:50:41.000Z</time>
      </trkpt>
      <trkpt lat="45.5606" lon="5.73582">
        <ele>641</ele>
        <time>2019-10-27T14:50:42.000Z</time>
      </trkpt>
      <trkpt lat="45.5606" lon="5.73581">
        <ele>641</ele>
        <time>2019-10-27T14:50:43.000Z</time>
      </trkpt>
      <trkpt lat="45.5606" lon="5.7358">
        <ele>641</ele>
        <time>2019-10-27T14:50:44.000Z</time>
      </trkpt>
      <trkpt lat="45.56061" lon="5.73579">
        <ele>641</ele>
        <time>2019-10-27T14:50:45.000Z</time>
      </trkpt>
      <trkpt lat="45.56061" lon="5.73578">
        <ele>641</ele>
        <time>2019-10-27T14:50:46.000Z</time>
      </trkpt>
      <trkpt lat="45.56062" lon="5.73576">
        <ele>641</ele>
        <time>2019-10-27T14:50:47.000Z</time>
      </trkpt>
      <trkpt lat="45.56062" lon="5.73575">
        <ele>641</ele>
        <time>2019-10-27T14:50:48.000Z</time>
      </trkpt>
      <trkpt lat="45.56062" lon="5.73575">
        <ele>641.5</ele>
        <time>2019-10-27T14:50:49.000Z</time>
      </trkpt>
      <trkpt lat="45.56062" lon="5.73574">
        <ele>642</ele>
        <time>2019-10-27T14:50:50.000Z</time>
      </trkpt>
      <trkpt lat="45.56062" lon="5.73574">
        <ele>642</ele>
        <time>2019-10-27T14:50:51.000Z</time>
      </trkpt>
      <trkpt lat="45.56062" lon="5.73575">
        <ele>642</ele>
        <time>2019-10-27T14:50:52.000Z</time>
      </trkpt>
      <trkpt lat="45.56063" lon="5.73575">
        <ele>642</ele>
        <time>2019-10-27T14:50:53.000Z</time>
      </trkpt>
      <trkpt lat="45.56063" lon="5.73575">
        <ele>642</ele>
        <time>2019-10-27T14:50:54.000Z</time>
      </trkpt>
      <trkpt lat="45.56063" lon="5.73574">
        <ele>642</ele>
        <time>2019-10-27T14:50:55.000Z</time>
      </trkpt>
      <trkpt lat="45.56063" lon="5.73574">
        <ele>642</ele>
        <time>2019-10-27T14:50:56.000Z</time>
      </trkpt>
      <trkpt lat="45.56063" lon="5.73572">
        <ele>642</ele>
        <time>2019-10-27T14:50:57.000Z</time>
      </trkpt>
      <trkpt lat="45.56064" lon="5.73571">
        <ele>642.3</ele>
        <time>2019-10-27T14:50:58.000Z</time>
      </trkpt>
      <trkpt lat="45.56064" lon="5.73568">
        <ele>642.7</ele>
        <time>2019-10-27T14:50:59.000Z</time>
      </trkpt>
      <trkpt lat="45.56065" lon="5.73564">
        <ele>643</ele>
        <time>2019-10-27T14:51:00.000Z</time>
      </trkpt>
      <trkpt lat="45.56066" lon="5.7356">
        <ele>643</ele>
        <time>2019-10-27T14:51:01.000Z</time>
      </trkpt>
      <trkpt lat="45.56067" lon="5.73556">
        <ele>643</ele>
        <time>2019-10-27T14:51:02.000Z</time>
      </trkpt>
      <trkpt lat="45.56068" lon="5.73551">
        <ele>643</ele>
        <time>2019-10-27T14:51:03.000Z</time>
      </trkpt>
      <trkpt lat="45.56069" lon="5.73547">
        <ele>643.3</ele>
        <time>2019-10-27T14:51:04.000Z</time>
      </trkpt>
      <trkpt lat="45.5607" lon="5.73542">
        <ele>643.7</ele>
        <time>2019-10-27T14:51:05.000Z</time>
      </trkpt>
      <trkpt lat="45.56071" lon="5.73538">
        <ele>644</ele>
        <time>2019-10-27T14:51:06.000Z</time>
      </trkpt>
      <trkpt lat="45.56072" lon="5.73534">
        <ele>644</ele>
        <time>2019-10-27T14:51:07.000Z</time>
      </trkpt>
      <trkpt lat="45.56072" lon="5.73531">
        <ele>644</ele>
        <time>2019-10-27T14:51:08.000Z</time>
      </trkpt>
      <trkpt lat="45.56073" lon="5.73528">
        <ele>644</ele>
        <time>2019-10-27T14:51:09.000Z</time>
      </trkpt>
      <trkpt lat="45.56074" lon="5.73526">
        <ele>644.3</ele>
        <time>2019-10-27T14:51:10.000Z</time>
      </trkpt>
      <trkpt lat="45.56074" lon="5.73524">
        <ele>644.7</ele>
        <time>2019-10-27T14:51:11.000Z</time>
      </trkpt>
      <trkpt lat="45.56074" lon="5.73522">
        <ele>645</ele>
        <time>2019-10-27T14:51:12.000Z</time>
      </trkpt>
      <trkpt lat="45.56075" lon="5.73521">
        <ele>645</ele>
        <time>2019-10-27T14:51:13.000Z</time>
      </trkpt>
      <trkpt lat="45.56075" lon="5.73519">
        <ele>645</ele>
        <time>2019-10-27T14:51:14.000Z</time>
      </trkpt>
      <trkpt lat="45.56075" lon="5.73518">
        <ele>645</ele>
        <time>2019-10-27T14:51:15.000Z</time>
      </trkpt>
      <trkpt lat="45.56075" lon="5.73517">
        <ele>645</ele>
        <time>2019-10-27T14:51:16.000Z</time>
      </trkpt>
      <trkpt lat="45.56075" lon="5.73515">
        <ele>645</ele>
        <time>2019-10-27T14:51:17.000Z</time>
      </trkpt>
      <trkpt lat="45.56075" lon="5.73513">
        <ele>645</ele>
        <time>2019-10-27T14:51:18.000Z</time>
      </trkpt>
      <trkpt lat="45.56075" lon="5.73512">
        <ele>645</ele>
        <time>2019-10-27T14:51:19.000Z</time>
      </trkpt>
      <trkpt lat="45.56075" lon="5.7351">
        <ele>645.3</ele>
        <time>2019-10-27T14:51:20.000Z</time>
      </trkpt>
      <trkpt lat="45.56075" lon="5.73508">
        <ele>645.7</ele>
        <time>2019-10-27T14:51:21.000Z</time>
      </trkpt>
      <trkpt lat="45.56075" lon="5.73506">
        <ele>646</ele>
        <time>2019-10-27T14:51:22.000Z</time>
      </trkpt>
      <trkpt lat="45.56074" lon="5.73505">
        <ele>646</ele>
        <time>2019-10-27T14:51:23.000Z</time>
      </trkpt>
      <trkpt lat="45.56074" lon="5.73503">
        <ele>646</ele>
        <time>2019-10-27T14:51:24.000Z</time>
      </trkpt>
      <trkpt lat="45.56074" lon="5.73502">
        <ele>646</ele>
        <time>2019-10-27T14:51:25.000Z</time>
      </trkpt>
      <trkpt lat="45.56073" lon="5.73501">
        <ele>646</ele>
        <time>2019-10-27T14:51:26.000Z</time>
      </trkpt>
      <trkpt lat="45.56073" lon="5.735">
        <ele>646</ele>
        <time>2019-10-27T14:51:27.000Z</time>
      </trkpt>
      <trkpt lat="45.56072" lon="5.73499">
        <ele>646</ele>
        <time>2019-10-27T14:51:28.000Z</time>
      </trkpt>
      <trkpt lat="45.56071" lon="5.73499">
        <ele>646</ele>
        <time>2019-10-27T14:51:29.000Z</time>
      </trkpt>
      <trkpt lat="45.5607" lon="5.73499">
        <ele>646</ele>
        <time>2019-10-27T14:51:30.000Z</time>
      </trkpt>
      <trkpt lat="45.56068" lon="5.735">
        <ele>647</ele>
        <time>2019-10-27T14:51:31.000Z</time>
      </trkpt>
      <trkpt lat="45.56066" lon="5.73501">
        <ele>647</ele>
        <time>2019-10-27T14:51:32.000Z</time>
      </trkpt>
      <trkpt lat="45.56063" lon="5.73504">
        <ele>647</ele>
        <time>2019-10-27T14:51:33.000Z</time>
      </trkpt>
      <trkpt lat="45.5606" lon="5.73506">
        <ele>647</ele>
        <time>2019-10-27T14:51:34.000Z</time>
      </trkpt>
      <trkpt lat="45.56056" lon="5.7351">
        <ele>647</ele>
        <time>2019-10-27T14:51:35.000Z</time>
      </trkpt>
      <trkpt lat="45.56052" lon="5.73513">
        <ele>647</ele>
        <time>2019-10-27T14:51:36.000Z</time>
      </trkpt>
      <trkpt lat="45.56048" lon="5.73517">
        <ele>647</ele>
        <time>2019-10-27T14:51:37.000Z</time>
      </trkpt>
      <trkpt lat="45.56044" lon="5.73522">
        <ele>647</ele>
        <time>2019-10-27T14:51:38.000Z</time>
      </trkpt>
      <trkpt lat="45.5604" lon="5.73526">
        <ele>647.5</ele>
        <time>2019-10-27T14:51:39.000Z</time>
      </trkpt>
      <trkpt lat="45.56037" lon="5.73529">
        <ele>648</ele>
        <time>2019-10-27T14:51:40.000Z</time>
      </trkpt>
      <trkpt lat="45.56033" lon="5.73533">
        <ele>648</ele>
        <time>2019-10-27T14:51:41.000Z</time>
      </trkpt>
      <trkpt lat="45.5603" lon="5.73536">
        <ele>648</ele>
        <time>2019-10-27T14:51:42.000Z</time>
      </trkpt>
      <trkpt lat="45.56027" lon="5.73538">
        <ele>648</ele>
        <time>2019-10-27T14:51:43.000Z</time>
      </trkpt>
      <trkpt lat="45.56025" lon="5.7354">
        <ele>648</ele>
        <time>2019-10-27T14:51:44.000Z</time>
      </trkpt>
      <trkpt lat="45.56022" lon="5.73542">
        <ele>648</ele>
        <time>2019-10-27T14:51:45.000Z</time>
      </trkpt>
      <trkpt lat="45.5602" lon="5.73543">
        <ele>648</ele>
        <time>2019-10-27T14:51:46.000Z</time>
      </trkpt>
      <trkpt lat="45.56018" lon="5.73544">
        <ele>648</ele>
        <time>2019-10-27T14:51:47.000Z</time>
      </trkpt>
      <trkpt lat="45.56017" lon="5.73544">
        <ele>648</ele>
        <time>2019-10-27T14:51:48.000Z</time>
      </trkpt>
      <trkpt lat="45.56016" lon="5.73544">
        <ele>648</ele>
        <time>2019-10-27T14:51:49.000Z</time>
      </trkpt>
      <trkpt lat="45.56015" lon="5.73543">
        <ele>648</ele>
        <time>2019-10-27T14:51:50.000Z</time>
      </trkpt>
      <trkpt lat="45.56014" lon="5.73542">
        <ele>648.5</ele>
        <time>2019-10-27T14:51:51.000Z</time>
      </trkpt>
      <trkpt lat="45.56013" lon="5.73541">
        <ele>649</ele>
        <time>2019-10-27T14:51:52.000Z</time>
      </trkpt>
      <trkpt lat="45.56013" lon="5.7354">
        <ele>649</ele>
        <time>2019-10-27T14:51:53.000Z</time>
      </trkpt>
      <trkpt lat="45.56013" lon="5.73538">
        <ele>649</ele>
        <time>2019-10-27T14:51:54.000Z</time>
      </trkpt>
      <trkpt lat="45.56013" lon="5.73537">
        <ele>649</ele>
        <time>2019-10-27T14:51:55.000Z</time>
      </trkpt>
      <trkpt lat="45.56013" lon="5.73536">
        <ele>649</ele>
        <time>2019-10-27T14:51:56.000Z</time>
      </trkpt>
      <trkpt lat="45.56012" lon="5.73534">
        <ele>649</ele>
        <time>2019-10-27T14:51:57.000Z</time>
      </trkpt>
      <trkpt lat="45.56012" lon="5.73534">
        <ele>649</ele>
        <time>2019-10-27T14:51:58.000Z</time>
      </trkpt>
      <trkpt lat="45.56011" lon="5.73533">
        <ele>649</ele>
        <time>2019-10-27T14:51:59.000Z</time>
      </trkpt>
      <trkpt lat="45.5601" lon="5.73533">
        <ele>649</ele>
        <time>2019-10-27T14:52:00.000Z</time>
      </trkpt>
      <trkpt lat="45.56009" lon="5.73534">
        <ele>649</ele>
        <time>2019-10-27T14:52:01.000Z</time>
      </trkpt>
      <trkpt lat="45.56008" lon="5.73534">
        <ele>649</ele>
        <time>2019-10-27T14:52:02.000Z</time>
      </trkpt>
      <trkpt lat="45.56006" lon="5.73534">
        <ele>649</ele>
        <time>2019-10-27T14:52:03.000Z</time>
      </trkpt>
      <trkpt lat="45.56005" lon="5.73535">
        <ele>649</ele>
        <time>2019-10-27T14:52:04.000Z</time>
      </trkpt>
      <trkpt lat="45.56004" lon="5.73535">
        <ele>649</ele>
        <time>2019-10-27T14:52:05.000Z</time>
      </trkpt>
      <trkpt lat="45.56003" lon="5.73534">
        <ele>649</ele>
        <time>2019-10-27T14:52:06.000Z</time>
      </trkpt>
      <trkpt lat="45.56002" lon="5.73534">
        <ele>649</ele>
        <time>2019-10-27T14:52:07.000Z</time>
      </trkpt>
      <trkpt lat="45.56001" lon="5.73532">
        <ele>649.5</ele>
        <time>2019-10-27T14:52:08.000Z</time>
      </trkpt>
      <trkpt lat="45.56" lon="5.73531">
        <ele>650</ele>
        <time>2019-10-27T14:52:09.000Z</time>
      </trkpt>
      <trkpt lat="45.56" lon="5.73529">
        <ele>650</ele>
        <time>2019-10-27T14:52:10.000Z</time>
      </trkpt>
      <trkpt lat="45.55999" lon="5.73527">
        <ele>650</ele>
        <time>2019-10-27T14:52:11.000Z</time>
      </trkpt>
      <trkpt lat="45.55999" lon="5.73525">
        <ele>650</ele>
        <time>2019-10-27T14:52:12.000Z</time>
      </trkpt>
      <trkpt lat="45.55998" lon="5.73524">
        <ele>650</ele>
        <time>2019-10-27T14:52:13.000Z</time>
      </trkpt>
      <trkpt lat="45.55997" lon="5.73522">
        <ele>650</ele>
        <time>2019-10-27T14:52:14.000Z</time>
      </trkpt>
      <trkpt lat="45.55997" lon="5.73521">
        <ele>650</ele>
        <time>2019-10-27T14:52:15.000Z</time>
      </trkpt>
      <trkpt lat="45.55996" lon="5.73521">
        <ele>650</ele>
        <time>2019-10-27T14:52:16.000Z</time>
      </trkpt>
      <trkpt lat="45.55995" lon="5.73521">
        <ele>650</ele>
        <time>2019-10-27T14:52:17.000Z</time>
      </trkpt>
      <trkpt lat="45.55994" lon="5.73521">
        <ele>650</ele>
        <time>2019-10-27T14:52:18.000Z</time>
      </trkpt>
      <trkpt lat="45.55993" lon="5.73521">
        <ele>650</ele>
        <time>2019-10-27T14:52:19.000Z</time>
      </trkpt>
      <trkpt lat="45.55992" lon="5.7352">
        <ele>650</ele>
        <time>2019-10-27T14:52:20.000Z</time>
      </trkpt>
      <trkpt lat="45.55992" lon="5.73519">
        <ele>650</ele>
        <time>2019-10-27T14:52:21.000Z</time>
      </trkpt>
      <trkpt lat="45.55991" lon="5.73518">
        <ele>650</ele>
        <time>2019-10-27T14:52:22.000Z</time>
      </trkpt>
      <trkpt lat="45.55991" lon="5.73516">
        <ele>650</ele>
        <time>2019-10-27T14:52:23.000Z</time>
      </trkpt>
      <trkpt lat="45.55991" lon="5.73515">
        <ele>650</ele>
        <time>2019-10-27T14:52:24.000Z</time>
      </trkpt>
      <trkpt lat="45.5599" lon="5.73513">
        <ele>650</ele>
        <time>2019-10-27T14:52:25.000Z</time>
      </trkpt>
      <trkpt lat="45.5599" lon="5.73512">
        <ele>650</ele>
        <time>2019-10-27T14:52:26.000Z</time>
      </trkpt>
      <trkpt lat="45.55989" lon="5.7351">
        <ele>650</ele>
        <time>2019-10-27T14:52:27.000Z</time>
      </trkpt>
      <trkpt lat="45.55989" lon="5.73509">
        <ele>650</ele>
        <time>2019-10-27T14:52:28.000Z</time>
      </trkpt>
      <trkpt lat="45.55988" lon="5.73507">
        <ele>650</ele>
        <time>2019-10-27T14:52:29.000Z</time>
      </trkpt>
      <trkpt lat="45.55988" lon="5.73506">
        <ele>650</ele>
        <time>2019-10-27T14:52:30.000Z</time>
      </trkpt>
      <trkpt lat="45.55987" lon="5.73504">
        <ele>650</ele>
        <time>2019-10-27T14:52:31.000Z</time>
      </trkpt>
      <trkpt lat="45.55987" lon="5.73502">
        <ele>650</ele>
        <time>2019-10-27T14:52:32.000Z</time>
      </trkpt>
      <trkpt lat="45.55987" lon="5.73499">
        <ele>650</ele>
        <time>2019-10-27T14:52:33.000Z</time>
      </trkpt>
      <trkpt lat="45.55987" lon="5.73496">
        <ele>650</ele>
        <time>2019-10-27T14:52:34.000Z</time>
      </trkpt>
      <trkpt lat="45.55987" lon="5.73493">
        <ele>650</ele>
        <time>2019-10-27T14:52:35.000Z</time>
      </trkpt>
      <trkpt lat="45.55987" lon="5.73491">
        <ele>650</ele>
        <time>2019-10-27T14:52:36.000Z</time>
      </trkpt>
      <trkpt lat="45.55988" lon="5.73488">
        <ele>650</ele>
        <time>2019-10-27T14:52:37.000Z</time>
      </trkpt>
      <trkpt lat="45.55988" lon="5.73485">
        <ele>650</ele>
        <time>2019-10-27T14:52:38.000Z</time>
      </trkpt>
      <trkpt lat="45.55988" lon="5.73482">
        <ele>650</ele>
        <time>2019-10-27T14:52:39.000Z</time>
      </trkpt>
      <trkpt lat="45.55988" lon="5.7348">
        <ele>650</ele>
        <time>2019-10-27T14:52:40.000Z</time>
      </trkpt>
      <trkpt lat="45.55988" lon="5.73478">
        <ele>650</ele>
        <time>2019-10-27T14:52:41.000Z</time>
      </trkpt>
      <trkpt lat="45.55988" lon="5.73476">
        <ele>650</ele>
        <time>2019-10-27T14:52:42.000Z</time>
      </trkpt>
      <trkpt lat="45.55987" lon="5.73475">
        <ele>650</ele>
        <time>2019-10-27T14:52:43.000Z</time>
      </trkpt>
      <trkpt lat="45.55986" lon="5.73474">
        <ele>650</ele>
        <time>2019-10-27T14:52:44.000Z</time>
      </trkpt>
      <trkpt lat="45.55986" lon="5.73473">
        <ele>650</ele>
        <time>2019-10-27T14:52:45.000Z</time>
      </trkpt>
      <trkpt lat="45.55985" lon="5.73473">
        <ele>650</ele>
        <time>2019-10-27T14:52:46.000Z</time>
      </trkpt>
      <trkpt lat="45.55984" lon="5.73472">
        <ele>650</ele>
        <time>2019-10-27T14:52:47.000Z</time>
      </trkpt>
      <trkpt lat="45.55983" lon="5.73472">
        <ele>650</ele>
        <time>2019-10-27T14:52:48.000Z</time>
      </trkpt>
      <trkpt lat="45.55982" lon="5.73472">
        <ele>650</ele>
        <time>2019-10-27T14:52:49.000Z</time>
      </trkpt>
      <trkpt lat="45.55982" lon="5.73472">
        <ele>650</ele>
        <time>2019-10-27T14:52:50.000Z</time>
      </trkpt>
      <trkpt lat="45.55981" lon="5.73471">
        <ele>650</ele>
        <time>2019-10-27T14:52:51.000Z</time>
      </trkpt>
      <trkpt lat="45.5598" lon="5.73471">
        <ele>650</ele>
        <time>2019-10-27T14:52:52.000Z</time>
      </trkpt>
      <trkpt lat="45.5598" lon="5.7347">
        <ele>650</ele>
        <time>2019-10-27T14:52:53.000Z</time>
      </trkpt>
      <trkpt lat="45.55979" lon="5.7347">
        <ele>650</ele>
        <time>2019-10-27T14:52:54.000Z</time>
      </trkpt>
      <trkpt lat="45.55978" lon="5.73469">
        <ele>650</ele>
        <time>2019-10-27T14:52:55.000Z</time>
      </trkpt>
      <trkpt lat="45.55978" lon="5.73469">
        <ele>650.3</ele>
        <time>2019-10-27T14:52:56.000Z</time>
      </trkpt>
      <trkpt lat="45.55977" lon="5.73468">
        <ele>650.7</ele>
        <time>2019-10-27T14:52:57.000Z</time>
      </trkpt>
      <trkpt lat="45.55977" lon="5.73468">
        <ele>651</ele>
        <time>2019-10-27T14:52:58.000Z</time>
      </trkpt>
      <trkpt lat="45.55976" lon="5.73467">
        <ele>651</ele>
        <time>2019-10-27T14:52:59.000Z</time>
      </trkpt>
      <trkpt lat="45.55976" lon="5.73467">
        <ele>651</ele>
        <time>2019-10-27T14:53:00.000Z</time>
      </trkpt>
      <trkpt lat="45.55976" lon="5.73466">
        <ele>651</ele>
        <time>2019-10-27T14:53:01.000Z</time>
      </trkpt>
      <trkpt lat="45.55975" lon="5.73466">
        <ele>651</ele>
        <time>2019-10-27T14:53:02.000Z</time>
      </trkpt>
      <trkpt lat="45.55975" lon="5.73465">
        <ele>651</ele>
        <time>2019-10-27T14:53:03.000Z</time>
      </trkpt>
      <trkpt lat="45.55975" lon="5.73465">
        <ele>651</ele>
        <time>2019-10-27T14:53:04.000Z</time>
      </trkpt>
      <trkpt lat="45.55975" lon="5.73465">
        <ele>651</ele>
        <time>2019-10-27T14:53:05.000Z</time>
      </trkpt>
      <trkpt lat="45.55974" lon="5.73465">
        <ele>651</ele>
        <time>2019-10-27T14:53:06.000Z</time>
      </trkpt>
      <trkpt lat="45.55974" lon="5.73465">
        <ele>651</ele>
        <time>2019-10-27T14:53:07.000Z</time>
      </trkpt>
      <trkpt lat="45.55974" lon="5.73465">
        <ele>651</ele>
        <time>2019-10-27T14:53:08.000Z</time>
      </trkpt>
      <trkpt lat="45.55974" lon="5.73465">
        <ele>651</ele>
        <time>2019-10-27T14:53:09.000Z</time>
      </trkpt>
      <trkpt lat="45.55973" lon="5.73465">
        <ele>651</ele>
        <time>2019-10-27T14:53:10.000Z</time>
      </trkpt>
      <trkpt lat="45.55973" lon="5.73465">
        <ele>651</ele>
        <time>2019-10-27T14:53:11.000Z</time>
      </trkpt>
      <trkpt lat="45.55973" lon="5.73465">
        <ele>651</ele>
        <time>2019-10-27T14:53:12.000Z</time>
      </trkpt>
      <trkpt lat="45.55973" lon="5.73465">
        <ele>651</ele>
        <time>2019-10-27T14:53:13.000Z</time>
      </trkpt>
      <trkpt lat="45.55973" lon="5.73465">
        <ele>651</ele>
        <time>2019-10-27T14:53:14.000Z</time>
      </trkpt>
      <trkpt lat="45.55973" lon="5.73465">
        <ele>651</ele>
        <time>2019-10-27T14:53:15.000Z</time>
      </trkpt>
      <trkpt lat="45.55972" lon="5.73464">
        <ele>651</ele>
        <time>2019-10-27T14:53:16.000Z</time>
      </trkpt>
      <trkpt lat="45.55972" lon="5.73464">
        <ele>652</ele>
        <time>2019-10-27T14:53:17.000Z</time>
      </trkpt>
      <trkpt lat="45.55972" lon="5.73463">
        <ele>652</ele>
        <time>2019-10-27T14:53:18.000Z</time>
      </trkpt>
      <trkpt lat="45.55972" lon="5.73463">
        <ele>652</ele>
        <time>2019-10-27T14:53:19.000Z</time>
      </trkpt>
      <trkpt lat="45.55972" lon="5.73462">
        <ele>652</ele>
        <time>2019-10-27T14:53:20.000Z</time>
      </trkpt>
      <trkpt lat="45.55971" lon="5.7346">
        <ele>652</ele>
        <time>2019-10-27T14:53:21.000Z</time>
      </trkpt>
      <trkpt lat="45.55971" lon="5.73459">
        <ele>652</ele>
        <time>2019-10-27T14:53:22.000Z</time>
      </trkpt>
      <trkpt lat="45.55971" lon="5.73457">
        <ele>652</ele>
        <time>2019-10-27T14:53:23.000Z</time>
      </trkpt>
      <trkpt lat="45.55971" lon="5.73455">
        <ele>652</ele>
        <time>2019-10-27T14:53:24.000Z</time>
      </trkpt>
      <trkpt lat="45.5597" lon="5.73452">
        <ele>652</ele>
        <time>2019-10-27T14:53:25.000Z</time>
      </trkpt>
      <trkpt lat="45.5597" lon="5.7345">
        <ele>652</ele>
        <time>2019-10-27T14:53:26.000Z</time>
      </trkpt>
      <trkpt lat="45.5597" lon="5.73447">
        <ele>652</ele>
        <time>2019-10-27T14:53:27.000Z</time>
      </trkpt>
      <trkpt lat="45.55969" lon="5.73444">
        <ele>652</ele>
        <time>2019-10-27T14:53:28.000Z</time>
      </trkpt>
      <trkpt lat="45.55968" lon="5.73442">
        <ele>652</ele>
        <time>2019-10-27T14:53:29.000Z</time>
      </trkpt>
      <trkpt lat="45.55967" lon="5.73439">
        <ele>652</ele>
        <time>2019-10-27T14:53:30.000Z</time>
      </trkpt>
      <trkpt lat="45.55966" lon="5.73438">
        <ele>652</ele>
        <time>2019-10-27T14:53:31.000Z</time>
      </trkpt>
      <trkpt lat="45.55964" lon="5.73437">
        <ele>652</ele>
        <time>2019-10-27T14:53:32.000Z</time>
      </trkpt>
      <trkpt lat="45.55962" lon="5.73436">
        <ele>652</ele>
        <time>2019-10-27T14:53:33.000Z</time>
      </trkpt>
      <trkpt lat="45.5596" lon="5.73437">
        <ele>652</ele>
        <time>2019-10-27T14:53:34.000Z</time>
      </trkpt>
      <trkpt lat="45.55957" lon="5.73438">
        <ele>652</ele>
        <time>2019-10-27T14:53:35.000Z</time>
      </trkpt>
      <trkpt lat="45.55954" lon="5.73439">
        <ele>652</ele>
        <time>2019-10-27T14:53:36.000Z</time>
      </trkpt>
      <trkpt lat="45.55951" lon="5.73441">
        <ele>652</ele>
        <time>2019-10-27T14:53:37.000Z</time>
      </trkpt>
      <trkpt lat="45.55948" lon="5.73443">
        <ele>652.5</ele>
        <time>2019-10-27T14:53:38.000Z</time>
      </trkpt>
      <trkpt lat="45.55944" lon="5.73446">
        <ele>653</ele>
        <time>2019-10-27T14:53:39.000Z</time>
      </trkpt>
      <trkpt lat="45.55942" lon="5.73448">
        <ele>653</ele>
        <time>2019-10-27T14:53:40.000Z</time>
      </trkpt>
      <trkpt lat="45.55939" lon="5.7345">
        <ele>653</ele>
        <time>2019-10-27T14:53:41.000Z</time>
      </trkpt>
      <trkpt lat="45.55937" lon="5.73452">
        <ele>653</ele>
        <time>2019-10-27T14:53:42.000Z</time>
      </trkpt>
      <trkpt lat="45.55935" lon="5.73453">
        <ele>653</ele>
        <time>2019-10-27T14:53:43.000Z</time>
      </trkpt>
      <trkpt lat="45.55934" lon="5.73454">
        <ele>653</ele>
        <time>2019-10-27T14:53:44.000Z</time>
      </trkpt>
      <trkpt lat="45.55933" lon="5.73455">
        <ele>653</ele>
        <time>2019-10-27T14:53:45.000Z</time>
      </trkpt>
      <trkpt lat="45.55932" lon="5.73456">
        <ele>653</ele>
        <time>2019-10-27T14:53:46.000Z</time>
      </trkpt>
      <trkpt lat="45.55931" lon="5.73456">
        <ele>653</ele>
        <time>2019-10-27T14:53:47.000Z</time>
      </trkpt>
      <trkpt lat="45.5593" lon="5.73457">
        <ele>653</ele>
        <time>2019-10-27T14:53:48.000Z</time>
      </trkpt>
      <trkpt lat="45.55929" lon="5.73457">
        <ele>653</ele>
        <time>2019-10-27T14:53:49.000Z</time>
      </trkpt>
      <trkpt lat="45.55928" lon="5.73457">
        <ele>653.3</ele>
        <time>2019-10-27T14:53:50.000Z</time>
      </trkpt>
      <trkpt lat="45.55927" lon="5.73457">
        <ele>653.7</ele>
        <time>2019-10-27T14:53:51.000Z</time>
      </trkpt>
      <trkpt lat="45.55926" lon="5.73456">
        <ele>654</ele>
        <time>2019-10-27T14:53:52.000Z</time>
      </trkpt>
      <trkpt lat="45.55925" lon="5.73456">
        <ele>654</ele>
        <time>2019-10-27T14:53:53.000Z</time>
      </trkpt>
      <trkpt lat="45.55924" lon="5.73456">
        <ele>654</ele>
        <time>2019-10-27T14:53:54.000Z</time>
      </trkpt>
      <trkpt lat="45.55923" lon="5.73455">
        <ele>654</ele>
        <time>2019-10-27T14:53:55.000Z</time>
      </trkpt>
      <trkpt lat="45.55922" lon="5.73455">
        <ele>654</ele>
        <time>2019-10-27T14:53:56.000Z</time>
      </trkpt>
      <trkpt lat="45.55921" lon="5.73454">
        <ele>654</ele>
        <time>2019-10-27T14:53:57.000Z</time>
      </trkpt>
      <trkpt lat="45.5592" lon="5.73453">
        <ele>654</ele>
        <time>2019-10-27T14:53:58.000Z</time>
      </trkpt>
      <trkpt lat="45.55919" lon="5.73452">
        <ele>654</ele>
        <time>2019-10-27T14:53:59.000Z</time>
      </trkpt>
      <trkpt lat="45.55918" lon="5.73451">
        <ele>654</ele>
        <time>2019-10-27T14:54:00.000Z</time>
      </trkpt>
      <trkpt lat="45.55917" lon="5.7345">
        <ele>654</ele>
        <time>2019-10-27T14:54:01.000Z</time>
      </trkpt>
      <trkpt lat="45.55916" lon="5.73449">
        <ele>654</ele>
        <time>2019-10-27T14:54:02.000Z</time>
      </trkpt>
      <trkpt lat="45.55915" lon="5.73448">
        <ele>654.5</ele>
        <time>2019-10-27T14:54:03.000Z</time>
      </trkpt>
      <trkpt lat="45.55914" lon="5.73446">
        <ele>655</ele>
        <time>2019-10-27T14:54:04.000Z</time>
      </trkpt>
      <trkpt lat="45.55914" lon="5.73445">
        <ele>655</ele>
        <time>2019-10-27T14:54:05.000Z</time>
      </trkpt>
      <trkpt lat="45.55913" lon="5.73444">
        <ele>655</ele>
        <time>2019-10-27T14:54:06.000Z</time>
      </trkpt>
      <trkpt lat="45.55913" lon="5.73442">
        <ele>655</ele>
        <time>2019-10-27T14:54:07.000Z</time>
      </trkpt>
      <trkpt lat="45.55913" lon="5.73441">
        <ele>655</ele>
        <time>2019-10-27T14:54:08.000Z</time>
      </trkpt>
      <trkpt lat="45.55913" lon="5.73439">
        <ele>655</ele>
        <time>2019-10-27T14:54:09.000Z</time>
      </trkpt>
      <trkpt lat="45.55913" lon="5.73438">
        <ele>655</ele>
        <time>2019-10-27T14:54:10.000Z</time>
      </trkpt>
      <trkpt lat="45.55913" lon="5.73437">
        <ele>655</ele>
        <time>2019-10-27T14:54:11.000Z</time>
      </trkpt>
      <trkpt lat="45.55913" lon="5.73436">
        <ele>655</ele>
        <time>2019-10-27T14:54:12.000Z</time>
      </trkpt>
      <trkpt lat="45.55914" lon="5.73435">
        <ele>655</ele>
        <time>2019-10-27T14:54:13.000Z</time>
      </trkpt>
      <trkpt lat="45.55914" lon="5.73434">
        <ele>655</ele>
        <time>2019-10-27T14:54:14.000Z</time>
      </trkpt>
      <trkpt lat="45.55914" lon="5.73433">
        <ele>655</ele>
        <time>2019-10-27T14:54:15.000Z</time>
      </trkpt>
      <trkpt lat="45.55913" lon="5.73432">
        <ele>655</ele>
        <time>2019-10-27T14:54:16.000Z</time>
      </trkpt>
      <trkpt lat="45.55913" lon="5.73432">
        <ele>655</ele>
        <time>2019-10-27T14:54:17.000Z</time>
      </trkpt>
      <trkpt lat="45.55913" lon="5.73432">
        <ele>655</ele>
        <time>2019-10-27T14:54:18.000Z</time>
      </trkpt>
      <trkpt lat="45.55912" lon="5.73432">
        <ele>655</ele>
        <time>2019-10-27T14:54:19.000Z</time>
      </trkpt>
      <trkpt lat="45.55911" lon="5.73432">
        <ele>655</ele>
        <time>2019-10-27T14:54:20.000Z</time>
      </trkpt>
      <trkpt lat="45.55911" lon="5.73432">
        <ele>656</ele>
        <time>2019-10-27T14:54:21.000Z</time>
      </trkpt>
      <trkpt lat="45.5591" lon="5.73432">
        <ele>656</ele>
        <time>2019-10-27T14:54:22.000Z</time>
      </trkpt>
      <trkpt lat="45.55909" lon="5.73432">
        <ele>656</ele>
        <time>2019-10-27T14:54:23.000Z</time>
      </trkpt>
      <trkpt lat="45.55908" lon="5.73432">
        <ele>655.5</ele>
        <time>2019-10-27T14:54:24.000Z</time>
      </trkpt>
      <trkpt lat="45.55906" lon="5.73432">
        <ele>655</ele>
        <time>2019-10-27T14:54:25.000Z</time>
      </trkpt>
      <trkpt lat="45.55905" lon="5.73432">
        <ele>655</ele>
        <time>2019-10-27T14:54:26.000Z</time>
      </trkpt>
      <trkpt lat="45.55904" lon="5.73433">
        <ele>655</ele>
        <time>2019-10-27T14:54:27.000Z</time>
      </trkpt>
      <trkpt lat="45.55903" lon="5.73432">
        <ele>655</ele>
        <time>2019-10-27T14:54:28.000Z</time>
      </trkpt>
      <trkpt lat="45.55902" lon="5.73432">
        <ele>655</ele>
        <time>2019-10-27T14:54:29.000Z</time>
      </trkpt>
      <trkpt lat="45.55902" lon="5.73431">
        <ele>655</ele>
        <time>2019-10-27T14:54:30.000Z</time>
      </trkpt>
      <trkpt lat="45.55902" lon="5.7343">
        <ele>655</ele>
        <time>2019-10-27T14:54:31.000Z</time>
      </trkpt>
      <trkpt lat="45.55902" lon="5.73428">
        <ele>655</ele>
        <time>2019-10-27T14:54:32.000Z</time>
      </trkpt>
      <trkpt lat="45.55903" lon="5.73426">
        <ele>655</ele>
        <time>2019-10-27T14:54:33.000Z</time>
      </trkpt>
      <trkpt lat="45.55904" lon="5.73423">
        <ele>655</ele>
        <time>2019-10-27T14:54:34.000Z</time>
      </trkpt>
      <trkpt lat="45.55906" lon="5.7342">
        <ele>655</ele>
        <time>2019-10-27T14:54:35.000Z</time>
      </trkpt>
      <trkpt lat="45.55907" lon="5.73417">
        <ele>655</ele>
        <time>2019-10-27T14:54:36.000Z</time>
      </trkpt>
      <trkpt lat="45.55909" lon="5.73414">
        <ele>654</ele>
        <time>2019-10-27T14:54:37.000Z</time>
      </trkpt>
      <trkpt lat="45.55911" lon="5.73411">
        <ele>654</ele>
        <time>2019-10-27T14:54:38.000Z</time>
      </trkpt>
      <trkpt lat="45.55913" lon="5.73409">
        <ele>654</ele>
        <time>2019-10-27T14:54:39.000Z</time>
      </trkpt>
      <trkpt lat="45.55914" lon="5.73408">
        <ele>654</ele>
        <time>2019-10-27T14:54:40.000Z</time>
      </trkpt>
      <trkpt lat="45.55915" lon="5.73408">
        <ele>654</ele>
        <time>2019-10-27T14:54:41.000Z</time>
      </trkpt>
      <trkpt lat="45.55915" lon="5.73409">
        <ele>654</ele>
        <time>2019-10-27T14:54:42.000Z</time>
      </trkpt>
      <trkpt lat="45.55914" lon="5.7341">
        <ele>654</ele>
        <time>2019-10-27T14:54:43.000Z</time>
      </trkpt>
      <trkpt lat="45.55912" lon="5.73412">
        <ele>654</ele>
        <time>2019-10-27T14:54:44.000Z</time>
      </trkpt>
      <trkpt lat="45.5591" lon="5.73414">
        <ele>653.5</ele>
        <time>2019-10-27T14:54:45.000Z</time>
      </trkpt>
      <trkpt lat="45.55908" lon="5.73417">
        <ele>653</ele>
        <time>2019-10-27T14:54:46.000Z</time>
      </trkpt>
      <trkpt lat="45.55905" lon="5.73418">
        <ele>653</ele>
        <time>2019-10-27T14:54:47.000Z</time>
      </trkpt>
      <trkpt lat="45.55903" lon="5.7342">
        <ele>653</ele>
        <time>2019-10-27T14:54:48.000Z</time>
      </trkpt>
      <trkpt lat="45.55901" lon="5.73421">
        <ele>652.5</ele>
        <time>2019-10-27T14:54:49.000Z</time>
      </trkpt>
      <trkpt lat="45.55898" lon="5.73422">
        <ele>652</ele>
        <time>2019-10-27T14:54:50.000Z</time>
      </trkpt>
      <trkpt lat="45.55896" lon="5.73422">
        <ele>652</ele>
        <time>2019-10-27T14:54:51.000Z</time>
      </trkpt>
      <trkpt lat="45.55894" lon="5.73423">
        <ele>652</ele>
        <time>2019-10-27T14:54:52.000Z</time>
      </trkpt>
      <trkpt lat="45.55892" lon="5.73424">
        <ele>652</ele>
        <time>2019-10-27T14:54:53.000Z</time>
      </trkpt>
      <trkpt lat="45.55891" lon="5.73424">
        <ele>652</ele>
        <time>2019-10-27T14:54:54.000Z</time>
      </trkpt>
      <trkpt lat="45.55889" lon="5.73425">
        <ele>652</ele>
        <time>2019-10-27T14:54:55.000Z</time>
      </trkpt>
      <trkpt lat="45.55888" lon="5.73425">
        <ele>652</ele>
        <time>2019-10-27T14:54:56.000Z</time>
      </trkpt>
      <trkpt lat="45.55887" lon="5.73425">
        <ele>652</ele>
        <time>2019-10-27T14:54:57.000Z</time>
      </trkpt>
      <trkpt lat="45.55886" lon="5.73426">
        <ele>652</ele>
        <time>2019-10-27T14:54:58.000Z</time>
      </trkpt>
      <trkpt lat="45.55885" lon="5.73426">
        <ele>651</ele>
        <time>2019-10-27T14:54:59.000Z</time>
      </trkpt>
      <trkpt lat="45.55884" lon="5.73426">
        <ele>651</ele>
        <time>2019-10-27T14:55:00.000Z</time>
      </trkpt>
      <trkpt lat="45.55884" lon="5.73426">
        <ele>651</ele>
        <time>2019-10-27T14:55:01.000Z</time>
      </trkpt>
      <trkpt lat="45.55883" lon="5.73426">
        <ele>651</ele>
        <time>2019-10-27T14:55:02.000Z</time>
      </trkpt>
      <trkpt lat="45.55883" lon="5.73426">
        <ele>650.5</ele>
        <time>2019-10-27T14:55:03.000Z</time>
      </trkpt>
      <trkpt lat="45.55882" lon="5.73426">
        <ele>650</ele>
        <time>2019-10-27T14:55:04.000Z</time>
      </trkpt>
      <trkpt lat="45.55881" lon="5.73426">
        <ele>650</ele>
        <time>2019-10-27T14:55:05.000Z</time>
      </trkpt>
      <trkpt lat="45.5588" lon="5.73427">
        <ele>650</ele>
        <time>2019-10-27T14:55:06.000Z</time>
      </trkpt>
      <trkpt lat="45.55879" lon="5.73427">
        <ele>650</ele>
        <time>2019-10-27T14:55:07.000Z</time>
      </trkpt>
      <trkpt lat="45.55878" lon="5.73427">
        <ele>650</ele>
        <time>2019-10-27T14:55:08.000Z</time>
      </trkpt>
      <trkpt lat="45.55877" lon="5.73427">
        <ele>650</ele>
        <time>2019-10-27T14:55:09.000Z</time>
      </trkpt>
      <trkpt lat="45.55876" lon="5.73427">
        <ele>650</ele>
        <time>2019-10-27T14:55:10.000Z</time>
      </trkpt>
      <trkpt lat="45.55875" lon="5.73427">
        <ele>650</ele>
        <time>2019-10-27T14:55:11.000Z</time>
      </trkpt>
      <trkpt lat="45.55874" lon="5.73428">
        <ele>650</ele>
        <time>2019-10-27T14:55:12.000Z</time>
      </trkpt>
      <trkpt lat="45.55874" lon="5.73427">
        <ele>649</ele>
        <time>2019-10-27T14:55:13.000Z</time>
      </trkpt>
      <trkpt lat="45.55873" lon="5.73427">
        <ele>649</ele>
        <time>2019-10-27T14:55:14.000Z</time>
      </trkpt>
      <trkpt lat="45.55873" lon="5.73427">
        <ele>649</ele>
        <time>2019-10-27T14:55:15.000Z</time>
      </trkpt>
      <trkpt lat="45.55872" lon="5.73427">
        <ele>649</ele>
        <time>2019-10-27T14:55:16.000Z</time>
      </trkpt>
      <trkpt lat="45.55872" lon="5.73427">
        <ele>649</ele>
        <time>2019-10-27T14:55:17.000Z</time>
      </trkpt>
      <trkpt lat="45.55872" lon="5.73427">
        <ele>649</ele>
        <time>2019-10-27T14:55:18.000Z</time>
      </trkpt>
      <trkpt lat="45.55871" lon="5.73426">
        <ele>649</ele>
        <time>2019-10-27T14:55:19.000Z</time>
      </trkpt>
      <trkpt lat="45.55871" lon="5.73426">
        <ele>649</ele>
        <time>2019-10-27T14:55:20.000Z</time>
      </trkpt>
      <trkpt lat="45.55871" lon="5.73426">
        <ele>649</ele>
        <time>2019-10-27T14:55:21.000Z</time>
      </trkpt>
      <trkpt lat="45.5587" lon="5.73427">
        <ele>649</ele>
        <time>2019-10-27T14:55:22.000Z</time>
      </trkpt>
      <trkpt lat="45.55869" lon="5.73427">
        <ele>649</ele>
        <time>2019-10-27T14:55:23.000Z</time>
      </trkpt>
      <trkpt lat="45.55868" lon="5.73428">
        <ele>649</ele>
        <time>2019-10-27T14:55:24.000Z</time>
      </trkpt>
      <trkpt lat="45.55867" lon="5.7343">
        <ele>649</ele>
        <time>2019-10-27T14:55:25.000Z</time>
      </trkpt>
      <trkpt lat="45.55865" lon="5.73432">
        <ele>649</ele>
        <time>2019-10-27T14:55:26.000Z</time>
      </trkpt>
      <trkpt lat="45.55863" lon="5.73434">
        <ele>649</ele>
        <time>2019-10-27T14:55:27.000Z</time>
      </trkpt>
      <trkpt lat="45.55861" lon="5.73437">
        <ele>649</ele>
        <time>2019-10-27T14:55:28.000Z</time>
      </trkpt>
      <trkpt lat="45.55859" lon="5.7344">
        <ele>649</ele>
        <time>2019-10-27T14:55:29.000Z</time>
      </trkpt>
      <trkpt lat="45.55857" lon="5.73443">
        <ele>649</ele>
        <time>2019-10-27T14:55:30.000Z</time>
      </trkpt>
      <trkpt lat="45.55854" lon="5.73446">
        <ele>649</ele>
        <time>2019-10-27T14:55:31.000Z</time>
      </trkpt>
      <trkpt lat="45.55852" lon="5.73449">
        <ele>649</ele>
        <time>2019-10-27T14:55:32.000Z</time>
      </trkpt>
      <trkpt lat="45.55849" lon="5.73453">
        <ele>649</ele>
        <time>2019-10-27T14:55:33.000Z</time>
      </trkpt>
      <trkpt lat="45.55847" lon="5.73456">
        <ele>649</ele>
        <time>2019-10-27T14:55:34.000Z</time>
      </trkpt>
      <trkpt lat="45.55844" lon="5.73459">
        <ele>649</ele>
        <time>2019-10-27T14:55:35.000Z</time>
      </trkpt>
      <trkpt lat="45.55842" lon="5.73462">
        <ele>649</ele>
        <time>2019-10-27T14:55:36.000Z</time>
      </trkpt>
      <trkpt lat="45.5584" lon="5.73466">
        <ele>649</ele>
        <time>2019-10-27T14:55:37.000Z</time>
      </trkpt>
      <trkpt lat="45.55837" lon="5.73468">
        <ele>649</ele>
        <time>2019-10-27T14:55:38.000Z</time>
      </trkpt>
      <trkpt lat="45.55835" lon="5.73471">
        <ele>649</ele>
        <time>2019-10-27T14:55:39.000Z</time>
      </trkpt>
      <trkpt lat="45.55834" lon="5.73473">
        <ele>649</ele>
        <time>2019-10-27T14:55:40.000Z</time>
      </trkpt>
      <trkpt lat="45.55832" lon="5.73475">
        <ele>649</ele>
        <time>2019-10-27T14:55:41.000Z</time>
      </trkpt>
      <trkpt lat="45.55831" lon="5.73477">
        <ele>649</ele>
        <time>2019-10-27T14:55:42.000Z</time>
      </trkpt>
      <trkpt lat="45.5583" lon="5.73478">
        <ele>649</ele>
        <time>2019-10-27T14:55:43.000Z</time>
      </trkpt>
      <trkpt lat="45.55829" lon="5.73479">
        <ele>649.5</ele>
        <time>2019-10-27T14:55:44.000Z</time>
      </trkpt>
      <trkpt lat="45.55829" lon="5.73479">
        <ele>650</ele>
        <time>2019-10-27T14:55:45.000Z</time>
      </trkpt>
      <trkpt lat="45.55828" lon="5.7348">
        <ele>650</ele>
        <time>2019-10-27T14:55:46.000Z</time>
      </trkpt>
      <trkpt lat="45.55828" lon="5.7348">
        <ele>650</ele>
        <time>2019-10-27T14:55:47.000Z</time>
      </trkpt>
      <trkpt lat="45.55828" lon="5.7348">
        <ele>650</ele>
        <time>2019-10-27T14:55:48.000Z</time>
      </trkpt>
      <trkpt lat="45.55828" lon="5.7348">
        <ele>650</ele>
        <time>2019-10-27T14:55:49.000Z</time>
      </trkpt>
      <trkpt lat="45.55828" lon="5.7348">
        <ele>650</ele>
        <time>2019-10-27T14:55:50.000Z</time>
      </trkpt>
      <trkpt lat="45.55827" lon="5.7348">
        <ele>650</ele>
        <time>2019-10-27T14:55:51.000Z</time>
      </trkpt>
      <trkpt lat="45.55827" lon="5.73481">
        <ele>650.3</ele>
        <time>2019-10-27T14:55:52.000Z</time>
      </trkpt>
      <trkpt lat="45.55826" lon="5.73481">
        <ele>650.7</ele>
        <time>2019-10-27T14:55:53.000Z</time>
      </trkpt>
      <trkpt lat="45.55826" lon="5.73482">
        <ele>651</ele>
        <time>2019-10-27T14:55:54.000Z</time>
      </trkpt>
      <trkpt lat="45.55825" lon="5.73483">
        <ele>651</ele>
        <time>2019-10-27T14:55:55.000Z</time>
      </trkpt>
      <trkpt lat="45.55825" lon="5.73484">
        <ele>651</ele>
        <time>2019-10-27T14:55:56.000Z</time>
      </trkpt>
      <trkpt lat="45.55824" lon="5.73485">
        <ele>651</ele>
        <time>2019-10-27T14:55:57.000Z</time>
      </trkpt>
      <trkpt lat="45.55824" lon="5.73486">
        <ele>651.3</ele>
        <time>2019-10-27T14:55:58.000Z</time>
      </trkpt>
      <trkpt lat="45.55823" lon="5.73486">
        <ele>651.7</ele>
        <time>2019-10-27T14:55:59.000Z</time>
      </trkpt>
      <trkpt lat="45.55823" lon="5.73487">
        <ele>652</ele>
        <time>2019-10-27T14:56:00.000Z</time>
      </trkpt>
      <trkpt lat="45.55823" lon="5.73487">
        <ele>652</ele>
        <time>2019-10-27T14:56:01.000Z</time>
      </trkpt>
      <trkpt lat="45.55823" lon="5.73487">
        <ele>652</ele>
        <time>2019-10-27T14:56:02.000Z</time>
      </trkpt>
      <trkpt lat="45.55823" lon="5.73486">
        <ele>652.5</ele>
        <time>2019-10-27T14:56:03.000Z</time>
      </trkpt>
      <trkpt lat="45.55823" lon="5.73486">
        <ele>653</ele>
        <time>2019-10-27T14:56:04.000Z</time>
      </trkpt>
      <trkpt lat="45.55823" lon="5.73486">
        <ele>653</ele>
        <time>2019-10-27T14:56:05.000Z</time>
      </trkpt>
      <trkpt lat="45.55823" lon="5.73485">
        <ele>653</ele>
        <time>2019-10-27T14:56:06.000Z</time>
      </trkpt>
      <trkpt lat="45.55824" lon="5.73485">
        <ele>653</ele>
        <time>2019-10-27T14:56:07.000Z</time>
      </trkpt>
      <trkpt lat="45.55824" lon="5.73484">
        <ele>653</ele>
        <time>2019-10-27T14:56:08.000Z</time>
      </trkpt>
      <trkpt lat="45.55825" lon="5.73483">
        <ele>654</ele>
        <time>2019-10-27T14:56:09.000Z</time>
      </trkpt>
      <trkpt lat="45.55825" lon="5.73483">
        <ele>654</ele>
        <time>2019-10-27T14:56:10.000Z</time>
      </trkpt>
      <trkpt lat="45.55826" lon="5.73482">
        <ele>654</ele>
        <time>2019-10-27T14:56:11.000Z</time>
      </trkpt>
      <trkpt lat="45.55827" lon="5.73482">
        <ele>654</ele>
        <time>2019-10-27T14:56:12.000Z</time>
      </trkpt>
      <trkpt lat="45.55827" lon="5.73481">
        <ele>654</ele>
        <time>2019-10-27T14:56:13.000Z</time>
      </trkpt>
      <trkpt lat="45.55828" lon="5.73481">
        <ele>654</ele>
        <time>2019-10-27T14:56:14.000Z</time>
      </trkpt>
      <trkpt lat="45.55828" lon="5.73481">
        <ele>654.5</ele>
        <time>2019-10-27T14:56:15.000Z</time>
      </trkpt>
      <trkpt lat="45.55829" lon="5.73481">
        <ele>655</ele>
        <time>2019-10-27T14:56:16.000Z</time>
      </trkpt>
      <trkpt lat="45.5583" lon="5.73481">
        <ele>655</ele>
        <time>2019-10-27T14:56:17.000Z</time>
      </trkpt>
      <trkpt lat="45.5583" lon="5.73481">
        <ele>655</ele>
        <time>2019-10-27T14:56:18.000Z</time>
      </trkpt>
      <trkpt lat="45.55831" lon="5.73482">
        <ele>655</ele>
        <time>2019-10-27T14:56:19.000Z</time>
      </trkpt>
      <trkpt lat="45.55831" lon="5.73483">
        <ele>655</ele>
        <time>2019-10-27T14:56:20.000Z</time>
      </trkpt>
      <trkpt lat="45.55832" lon="5.73483">
        <ele>655</ele>
        <time>2019-10-27T14:56:21.000Z</time>
      </trkpt>
      <trkpt lat="45.55832" lon="5.73484">
        <ele>655</ele>
        <time>2019-10-27T14:56:22.000Z</time>
      </trkpt>
      <trkpt lat="45.55832" lon="5.73486">
        <ele>655</ele>
        <time>2019-10-27T14:56:23.000Z</time>
      </trkpt>
      <trkpt lat="45.55832" lon="5.73487">
        <ele>655</ele>
        <time>2019-10-27T14:56:24.000Z</time>
      </trkpt>
      <trkpt lat="45.55832" lon="5.73488">
        <ele>654</ele>
        <time>2019-10-27T14:56:25.000Z</time>
      </trkpt>
      <trkpt lat="45.55831" lon="5.7349">
        <ele>654</ele>
        <time>2019-10-27T14:56:26.000Z</time>
      </trkpt>
      <trkpt lat="45.55831" lon="5.73491">
        <ele>654</ele>
        <time>2019-10-27T14:56:27.000Z</time>
      </trkpt>
      <trkpt lat="45.5583" lon="5.73493">
        <ele>654</ele>
        <time>2019-10-27T14:56:28.000Z</time>
      </trkpt>
      <trkpt lat="45.55829" lon="5.73495">
        <ele>654</ele>
        <time>2019-10-27T14:56:29.000Z</time>
      </trkpt>
      <trkpt lat="45.55829" lon="5.73497">
        <ele>654</ele>
        <time>2019-10-27T14:56:30.000Z</time>
      </trkpt>
      <trkpt lat="45.55828" lon="5.73498">
        <ele>654</ele>
        <time>2019-10-27T14:56:31.000Z</time>
      </trkpt>
      <trkpt lat="45.55827" lon="5.735">
        <ele>654</ele>
        <time>2019-10-27T14:56:32.000Z</time>
      </trkpt>
      <trkpt lat="45.55826" lon="5.73502">
        <ele>654</ele>
        <time>2019-10-27T14:56:33.000Z</time>
      </trkpt>
      <trkpt lat="45.55825" lon="5.73504">
        <ele>654</ele>
        <time>2019-10-27T14:56:34.000Z</time>
      </trkpt>
      <trkpt lat="45.55824" lon="5.73506">
        <ele>654</ele>
        <time>2019-10-27T14:56:35.000Z</time>
      </trkpt>
      <trkpt lat="45.55823" lon="5.73508">
        <ele>654.3</ele>
        <time>2019-10-27T14:56:36.000Z</time>
      </trkpt>
      <trkpt lat="45.55822" lon="5.7351">
        <ele>654.7</ele>
        <time>2019-10-27T14:56:37.000Z</time>
      </trkpt>
      <trkpt lat="45.55821" lon="5.73512">
        <ele>655</ele>
        <time>2019-10-27T14:56:38.000Z</time>
      </trkpt>
      <trkpt lat="45.55821" lon="5.73514">
        <ele>655</ele>
        <time>2019-10-27T14:56:39.000Z</time>
      </trkpt>
      <trkpt lat="45.5582" lon="5.73516">
        <ele>655</ele>
        <time>2019-10-27T14:56:40.000Z</time>
      </trkpt>
      <trkpt lat="45.55819" lon="5.73518">
        <ele>655</ele>
        <time>2019-10-27T14:56:41.000Z</time>
      </trkpt>
      <trkpt lat="45.55818" lon="5.73519">
        <ele>655</ele>
        <time>2019-10-27T14:56:42.000Z</time>
      </trkpt>
      <trkpt lat="45.55818" lon="5.73521">
        <ele>654.5</ele>
        <time>2019-10-27T14:56:43.000Z</time>
      </trkpt>
      <trkpt lat="45.55817" lon="5.73522">
        <ele>654</ele>
        <time>2019-10-27T14:56:44.000Z</time>
      </trkpt>
      <trkpt lat="45.55817" lon="5.73524">
        <ele>654</ele>
        <time>2019-10-27T14:56:45.000Z</time>
      </trkpt>
      <trkpt lat="45.55816" lon="5.73525">
        <ele>654</ele>
        <time>2019-10-27T14:56:46.000Z</time>
      </trkpt>
      <trkpt lat="45.55816" lon="5.73526">
        <ele>654</ele>
        <time>2019-10-27T14:56:47.000Z</time>
      </trkpt>
      <trkpt lat="45.55815" lon="5.73527">
        <ele>654</ele>
        <time>2019-10-27T14:56:48.000Z</time>
      </trkpt>
      <trkpt lat="45.55815" lon="5.73528">
        <ele>654</ele>
        <time>2019-10-27T14:56:49.000Z</time>
      </trkpt>
      <trkpt lat="45.55815" lon="5.73528">
        <ele>654</ele>
        <time>2019-10-27T14:56:50.000Z</time>
      </trkpt>
      <trkpt lat="45.55815" lon="5.73529">
        <ele>654</ele>
        <time>2019-10-27T14:56:51.000Z</time>
      </trkpt>
      <trkpt lat="45.55815" lon="5.73529">
        <ele>654</ele>
        <time>2019-10-27T14:56:52.000Z</time>
      </trkpt>
      <trkpt lat="45.55815" lon="5.73529">
        <ele>654</ele>
        <time>2019-10-27T14:56:53.000Z</time>
      </trkpt>
      <trkpt lat="45.55815" lon="5.7353">
        <ele>653.7</ele>
        <time>2019-10-27T14:56:54.000Z</time>
      </trkpt>
      <trkpt lat="45.55815" lon="5.7353">
        <ele>653.3</ele>
        <time>2019-10-27T14:56:55.000Z</time>
      </trkpt>
      <trkpt lat="45.55814" lon="5.7353">
        <ele>653</ele>
        <time>2019-10-27T14:56:56.000Z</time>
      </trkpt>
      <trkpt lat="45.55814" lon="5.73531">
        <ele>653</ele>
        <time>2019-10-27T14:56:57.000Z</time>
      </trkpt>
      <trkpt lat="45.55814" lon="5.73531">
        <ele>653</ele>
        <time>2019-10-27T14:56:58.000Z</time>
      </trkpt>
      <trkpt lat="45.55814" lon="5.73532">
        <ele>653</ele>
        <time>2019-10-27T14:56:59.000Z</time>
      </trkpt>
      <trkpt lat="45.55813" lon="5.73533">
        <ele>653</ele>
        <time>2019-10-27T14:57:00.000Z</time>
      </trkpt>
      <trkpt lat="45.55812" lon="5.73535">
        <ele>653</ele>
        <time>2019-10-27T14:57:01.000Z</time>
      </trkpt>
      <trkpt lat="45.55811" lon="5.73536">
        <ele>653</ele>
        <time>2019-10-27T14:57:02.000Z</time>
      </trkpt>
      <trkpt lat="45.55811" lon="5.73538">
        <ele>652</ele>
        <time>2019-10-27T14:57:03.000Z</time>
      </trkpt>
      <trkpt lat="45.5581" lon="5.7354">
        <ele>652</ele>
        <time>2019-10-27T14:57:04.000Z</time>
      </trkpt>
      <trkpt lat="45.55809" lon="5.73542">
        <ele>652</ele>
        <time>2019-10-27T14:57:05.000Z</time>
      </trkpt>
      <trkpt lat="45.55808" lon="5.73543">
        <ele>652</ele>
        <time>2019-10-27T14:57:06.000Z</time>
      </trkpt>
      <trkpt lat="45.55808" lon="5.73545">
        <ele>652</ele>
        <time>2019-10-27T14:57:07.000Z</time>
      </trkpt>
      <trkpt lat="45.55807" lon="5.73546">
        <ele>652</ele>
        <time>2019-10-27T14:57:08.000Z</time>
      </trkpt>
      <trkpt lat="45.55807" lon="5.73548">
        <ele>652</ele>
        <time>2019-10-27T14:57:09.000Z</time>
      </trkpt>
      <trkpt lat="45.55806" lon="5.73549">
        <ele>652</ele>
        <time>2019-10-27T14:57:10.000Z</time>
      </trkpt>
      <trkpt lat="45.55806" lon="5.73549">
        <ele>652</ele>
        <time>2019-10-27T14:57:11.000Z</time>
      </trkpt>
      <trkpt lat="45.55806" lon="5.7355">
        <ele>652</ele>
        <time>2019-10-27T14:57:12.000Z</time>
      </trkpt>
      <trkpt lat="45.55806" lon="5.73551">
        <ele>651.5</ele>
        <time>2019-10-27T14:57:13.000Z</time>
      </trkpt>
      <trkpt lat="45.55806" lon="5.73551">
        <ele>651</ele>
        <time>2019-10-27T14:57:14.000Z</time>
      </trkpt>
      <trkpt lat="45.55806" lon="5.73552">
        <ele>651</ele>
        <time>2019-10-27T14:57:15.000Z</time>
      </trkpt>
      <trkpt lat="45.55806" lon="5.73552">
        <ele>651</ele>
        <time>2019-10-27T14:57:16.000Z</time>
      </trkpt>
      <trkpt lat="45.55806" lon="5.73552">
        <ele>651</ele>
        <time>2019-10-27T14:57:17.000Z</time>
      </trkpt>
      <trkpt lat="45.55806" lon="5.73553">
        <ele>651</ele>
        <time>2019-10-27T14:57:18.000Z</time>
      </trkpt>
      <trkpt lat="45.55807" lon="5.73553">
        <ele>651</ele>
        <time>2019-10-27T14:57:19.000Z</time>
      </trkpt>
      <trkpt lat="45.55807" lon="5.73553">
        <ele>651</ele>
        <time>2019-10-27T14:57:20.000Z</time>
      </trkpt>
      <trkpt lat="45.55807" lon="5.73553">
        <ele>651</ele>
        <time>2019-10-27T14:57:21.000Z</time>
      </trkpt>
      <trkpt lat="45.55807" lon="5.73554">
        <ele>651</ele>
        <time>2019-10-27T14:57:22.000Z</time>
      </trkpt>
      <trkpt lat="45.55807" lon="5.73554">
        <ele>651</ele>
        <time>2019-10-27T14:57:23.000Z</time>
      </trkpt>
      <trkpt lat="45.55807" lon="5.73554">
        <ele>651</ele>
        <time>2019-10-27T14:57:24.000Z</time>
      </trkpt>
      <trkpt lat="45.55807" lon="5.73555">
        <ele>651</ele>
        <time>2019-10-27T14:57:25.000Z</time>
      </trkpt>
      <trkpt lat="45.55807" lon="5.73555">
        <ele>651</ele>
        <time>2019-10-27T14:57:26.000Z</time>
      </trkpt>
      <trkpt lat="45.55807" lon="5.73556">
        <ele>651</ele>
        <time>2019-10-27T14:57:27.000Z</time>
      </trkpt>
      <trkpt lat="45.55807" lon="5.73556">
        <ele>651</ele>
        <time>2019-10-27T14:57:28.000Z</time>
      </trkpt>
      <trkpt lat="45.55806" lon="5.73557">
        <ele>651</ele>
        <time>2019-10-27T14:57:29.000Z</time>
      </trkpt>
      <trkpt lat="45.55806" lon="5.73558">
        <ele>651</ele>
        <time>2019-10-27T14:57:30.000Z</time>
      </trkpt>
      <trkpt lat="45.55806" lon="5.73558">
        <ele>651</ele>
        <time>2019-10-27T14:57:31.000Z</time>
      </trkpt>
      <trkpt lat="45.55805" lon="5.73559">
        <ele>651</ele>
        <time>2019-10-27T14:57:32.000Z</time>
      </trkpt>
      <trkpt lat="45.55805" lon="5.7356">
        <ele>651</ele>
        <time>2019-10-27T14:57:33.000Z</time>
      </trkpt>
      <trkpt lat="45.55805" lon="5.7356">
        <ele>651</ele>
        <time>2019-10-27T14:57:34.000Z</time>
      </trkpt>
      <trkpt lat="45.55804" lon="5.73561">
        <ele>651</ele>
        <time>2019-10-27T14:57:35.000Z</time>
      </trkpt>
      <trkpt lat="45.55804" lon="5.73562">
        <ele>651</ele>
        <time>2019-10-27T14:57:36.000Z</time>
      </trkpt>
      <trkpt lat="45.55804" lon="5.73562">
        <ele>651</ele>
        <time>2019-10-27T14:57:37.000Z</time>
      </trkpt>
      <trkpt lat="45.55803" lon="5.73563">
        <ele>651</ele>
        <time>2019-10-27T14:57:38.000Z</time>
      </trkpt>
      <trkpt lat="45.55803" lon="5.73564">
        <ele>651</ele>
        <time>2019-10-27T14:57:39.000Z</time>
      </trkpt>
      <trkpt lat="45.55803" lon="5.73564">
        <ele>651</ele>
        <time>2019-10-27T14:57:40.000Z</time>
      </trkpt>
      <trkpt lat="45.55802" lon="5.73564">
        <ele>651</ele>
        <time>2019-10-27T14:57:41.000Z</time>
      </trkpt>
      <trkpt lat="45.55802" lon="5.73565">
        <ele>651</ele>
        <time>2019-10-27T14:57:42.000Z</time>
      </trkpt>
      <trkpt lat="45.55802" lon="5.73565">
        <ele>651</ele>
        <time>2019-10-27T14:57:43.000Z</time>
      </trkpt>
      <trkpt lat="45.55802" lon="5.73565">
        <ele>651</ele>
        <time>2019-10-27T14:57:44.000Z</time>
      </trkpt>
      <trkpt lat="45.55801" lon="5.73565">
        <ele>651</ele>
        <time>2019-10-27T14:57:45.000Z</time>
      </trkpt>
      <trkpt lat="45.55801" lon="5.73566">
        <ele>651</ele>
        <time>2019-10-27T14:57:46.000Z</time>
      </trkpt>
      <trkpt lat="45.55801" lon="5.73566">
        <ele>651</ele>
        <time>2019-10-27T14:57:47.000Z</time>
      </trkpt>
      <trkpt lat="45.55801" lon="5.73566">
        <ele>651</ele>
        <time>2019-10-27T14:57:48.000Z</time>
      </trkpt>
      <trkpt lat="45.55801" lon="5.73566">
        <ele>651</ele>
        <time>2019-10-27T14:57:49.000Z</time>
      </trkpt>
      <trkpt lat="45.55801" lon="5.73566">
        <ele>651</ele>
        <time>2019-10-27T14:57:50.000Z</time>
      </trkpt>
      <trkpt lat="45.558" lon="5.73565">
        <ele>651</ele>
        <time>2019-10-27T14:57:51.000Z</time>
      </trkpt>
      <trkpt lat="45.558" lon="5.73565">
        <ele>651</ele>
        <time>2019-10-27T14:57:52.000Z</time>
      </trkpt>
      <trkpt lat="45.558" lon="5.73565">
        <ele>651</ele>
        <time>2019-10-27T14:57:53.000Z</time>
      </trkpt>
      <trkpt lat="45.558" lon="5.73565">
        <ele>651</ele>
        <time>2019-10-27T14:57:54.000Z</time>
      </trkpt>
      <trkpt lat="45.558" lon="5.73565">
        <ele>651</ele>
        <time>2019-10-27T14:57:55.000Z</time>
      </trkpt>
      <trkpt lat="45.558" lon="5.73565">
        <ele>651</ele>
        <time>2019-10-27T14:57:56.000Z</time>
      </trkpt>
      <trkpt lat="45.558" lon="5.73565">
        <ele>651</ele>
        <time>2019-10-27T14:57:57.000Z</time>
      </trkpt>
      <trkpt lat="45.558" lon="5.73565">
        <ele>651</ele>
        <time>2019-10-27T14:57:58.000Z</time>
      </trkpt>
      <trkpt lat="45.558" lon="5.73565">
        <ele>651</ele>
        <time>2019-10-27T14:57:59.000Z</time>
      </trkpt>
      <trkpt lat="45.558" lon="5.73565">
        <ele>651</ele>
        <time>2019-10-27T14:58:00.000Z</time>
      </trkpt>
      <trkpt lat="45.55799" lon="5.73565">
        <ele>651</ele>
        <time>2019-10-27T14:58:01.000Z</time>
      </trkpt>
      <trkpt lat="45.55799" lon="5.73565">
        <ele>651</ele>
        <time>2019-10-27T14:58:02.000Z</time>
      </trkpt>
      <trkpt lat="45.55799" lon="5.73565">
        <ele>651</ele>
        <time>2019-10-27T14:58:03.000Z</time>
      </trkpt>
      <trkpt lat="45.55799" lon="5.73565">
        <ele>651</ele>
        <time>2019-10-27T14:58:04.000Z</time>
      </trkpt>
      <trkpt lat="45.55799" lon="5.73565">
        <ele>651</ele>
        <time>2019-10-27T14:58:05.000Z</time>
      </trkpt>
      <trkpt lat="45.55798" lon="5.73565">
        <ele>651</ele>
        <time>2019-10-27T14:58:06.000Z</time>
      </trkpt>
      <trkpt lat="45.55798" lon="5.73566">
        <ele>651</ele>
        <time>2019-10-27T14:58:07.000Z</time>
      </trkpt>
      <trkpt lat="45.55798" lon="5.73566">
        <ele>651</ele>
        <time>2019-10-27T14:58:08.000Z</time>
      </trkpt>
      <trkpt lat="45.55797" lon="5.73567">
        <ele>651</ele>
        <time>2019-10-27T14:58:09.000Z</time>
      </trkpt>
      <trkpt lat="45.55797" lon="5.73568">
        <ele>651</ele>
        <time>2019-10-27T14:58:10.000Z</time>
      </trkpt>
      <trkpt lat="45.55796" lon="5.73568">
        <ele>651</ele>
        <time>2019-10-27T14:58:11.000Z</time>
      </trkpt>
      <trkpt lat="45.55796" lon="5.73569">
        <ele>651</ele>
        <time>2019-10-27T14:58:12.000Z</time>
      </trkpt>
      <trkpt lat="45.55796" lon="5.7357">
        <ele>651</ele>
        <time>2019-10-27T14:58:13.000Z</time>
      </trkpt>
      <trkpt lat="45.55796" lon="5.7357">
        <ele>651</ele>
        <time>2019-10-27T14:58:14.000Z</time>
      </trkpt>
      <trkpt lat="45.55796" lon="5.73571">
        <ele>651</ele>
        <time>2019-10-27T14:58:15.000Z</time>
      </trkpt>
      <trkpt lat="45.55796" lon="5.73571">
        <ele>651</ele>
        <time>2019-10-27T14:58:16.000Z</time>
      </trkpt>
      <trkpt lat="45.55796" lon="5.73572">
        <ele>651</ele>
        <time>2019-10-27T14:58:17.000Z</time>
      </trkpt>
      <trkpt lat="45.55797" lon="5.73572">
        <ele>651</ele>
        <time>2019-10-27T14:58:18.000Z</time>
      </trkpt>
      <trkpt lat="45.55797" lon="5.73572">
        <ele>651</ele>
        <time>2019-10-27T14:58:19.000Z</time>
      </trkpt>
      <trkpt lat="45.55798" lon="5.73572">
        <ele>651</ele>
        <time>2019-10-27T14:58:20.000Z</time>
      </trkpt>
      <trkpt lat="45.55798" lon="5.73572">
        <ele>651</ele>
        <time>2019-10-27T14:58:21.000Z</time>
      </trkpt>
      <trkpt lat="45.55799" lon="5.73572">
        <ele>651</ele>
        <time>2019-10-27T14:58:22.000Z</time>
      </trkpt>
      <trkpt lat="45.55799" lon="5.73573">
        <ele>651</ele>
        <time>2019-10-27T14:58:23.000Z</time>
      </trkpt>
      <trkpt lat="45.55799" lon="5.73574">
        <ele>651</ele>
        <time>2019-10-27T14:58:24.000Z</time>
      </trkpt>
      <trkpt lat="45.55799" lon="5.73575">
        <ele>651</ele>
        <time>2019-10-27T14:58:25.000Z</time>
      </trkpt>
      <trkpt lat="45.55798" lon="5.73577">
        <ele>651</ele>
        <time>2019-10-27T14:58:26.000Z</time>
      </trkpt>
      <trkpt lat="45.55797" lon="5.73579">
        <ele>651</ele>
        <time>2019-10-27T14:58:27.000Z</time>
      </trkpt>
      <trkpt lat="45.55796" lon="5.73582">
        <ele>651</ele>
        <time>2019-10-27T14:58:28.000Z</time>
      </trkpt>
      <trkpt lat="45.55795" lon="5.73584">
        <ele>651</ele>
        <time>2019-10-27T14:58:29.000Z</time>
      </trkpt>
      <trkpt lat="45.55793" lon="5.73587">
        <ele>651</ele>
        <time>2019-10-27T14:58:30.000Z</time>
      </trkpt>
      <trkpt lat="45.55792" lon="5.73589">
        <ele>651</ele>
        <time>2019-10-27T14:58:31.000Z</time>
      </trkpt>
      <trkpt lat="45.5579" lon="5.73592">
        <ele>651</ele>
        <time>2019-10-27T14:58:32.000Z</time>
      </trkpt>
      <trkpt lat="45.55789" lon="5.73594">
        <ele>651</ele>
        <time>2019-10-27T14:58:33.000Z</time>
      </trkpt>
      <trkpt lat="45.55788" lon="5.73596">
        <ele>651</ele>
        <time>2019-10-27T14:58:34.000Z</time>
      </trkpt>
      <trkpt lat="45.55787" lon="5.73597">
        <ele>651</ele>
        <time>2019-10-27T14:58:35.000Z</time>
      </trkpt>
      <trkpt lat="45.55786" lon="5.73598">
        <ele>651</ele>
        <time>2019-10-27T14:58:36.000Z</time>
      </trkpt>
      <trkpt lat="45.55786" lon="5.73599">
        <ele>651</ele>
        <time>2019-10-27T14:58:37.000Z</time>
      </trkpt>
      <trkpt lat="45.55785" lon="5.736">
        <ele>651.3</ele>
        <time>2019-10-27T14:58:38.000Z</time>
      </trkpt>
      <trkpt lat="45.55785" lon="5.73601">
        <ele>651.7</ele>
        <time>2019-10-27T14:58:39.000Z</time>
      </trkpt>
      <trkpt lat="45.55784" lon="5.73601">
        <ele>652</ele>
        <time>2019-10-27T14:58:40.000Z</time>
      </trkpt>
      <trkpt lat="45.55784" lon="5.73602">
        <ele>652</ele>
        <time>2019-10-27T14:58:41.000Z</time>
      </trkpt>
      <trkpt lat="45.55784" lon="5.73602">
        <ele>652</ele>
        <time>2019-10-27T14:58:42.000Z</time>
      </trkpt>
      <trkpt lat="45.55784" lon="5.73602">
        <ele>652</ele>
        <time>2019-10-27T14:58:43.000Z</time>
      </trkpt>
      <trkpt lat="45.55784" lon="5.73602">
        <ele>652</ele>
        <time>2019-10-27T14:58:44.000Z</time>
      </trkpt>
      <trkpt lat="45.55784" lon="5.73602">
        <ele>652</ele>
        <time>2019-10-27T14:58:45.000Z</time>
      </trkpt>
      <trkpt lat="45.55784" lon="5.73602">
        <ele>652</ele>
        <time>2019-10-27T14:58:46.000Z</time>
      </trkpt>
      <trkpt lat="45.55784" lon="5.73603">
        <ele>652</ele>
        <time>2019-10-27T14:58:47.000Z</time>
      </trkpt>
      <trkpt lat="45.55784" lon="5.73603">
        <ele>652</ele>
        <time>2019-10-27T14:58:48.000Z</time>
      </trkpt>
      <trkpt lat="45.55783" lon="5.73603">
        <ele>652</ele>
        <time>2019-10-27T14:58:49.000Z</time>
      </trkpt>
      <trkpt lat="45.55783" lon="5.73604">
        <ele>652</ele>
        <time>2019-10-27T14:58:50.000Z</time>
      </trkpt>
      <trkpt lat="45.55783" lon="5.73604">
        <ele>652</ele>
        <time>2019-10-27T14:58:51.000Z</time>
      </trkpt>
      <trkpt lat="45.55783" lon="5.73605">
        <ele>652</ele>
        <time>2019-10-27T14:58:52.000Z</time>
      </trkpt>
      <trkpt lat="45.55782" lon="5.73606">
        <ele>652</ele>
        <time>2019-10-27T14:58:53.000Z</time>
      </trkpt>
      <trkpt lat="45.55782" lon="5.73607">
        <ele>652</ele>
        <time>2019-10-27T14:58:54.000Z</time>
      </trkpt>
      <trkpt lat="45.55781" lon="5.73608">
        <ele>652</ele>
        <time>2019-10-27T14:58:55.000Z</time>
      </trkpt>
      <trkpt lat="45.55781" lon="5.73608">
        <ele>652</ele>
        <time>2019-10-27T14:58:56.000Z</time>
      </trkpt>
      <trkpt lat="45.5578" lon="5.73609">
        <ele>652</ele>
        <time>2019-10-27T14:58:57.000Z</time>
      </trkpt>
      <trkpt lat="45.55779" lon="5.7361">
        <ele>652</ele>
        <time>2019-10-27T14:58:58.000Z</time>
      </trkpt>
      <trkpt lat="45.55779" lon="5.7361">
        <ele>651</ele>
        <time>2019-10-27T14:58:59.000Z</time>
      </trkpt>
      <trkpt lat="45.55778" lon="5.7361">
        <ele>651</ele>
        <time>2019-10-27T14:59:00.000Z</time>
      </trkpt>
      <trkpt lat="45.55777" lon="5.7361">
        <ele>651</ele>
        <time>2019-10-27T14:59:01.000Z</time>
      </trkpt>
      <trkpt lat="45.55776" lon="5.73609">
        <ele>651</ele>
        <time>2019-10-27T14:59:02.000Z</time>
      </trkpt>
      <trkpt lat="45.55776" lon="5.73609">
        <ele>651</ele>
        <time>2019-10-27T14:59:03.000Z</time>
      </trkpt>
      <trkpt lat="45.55776" lon="5.73609">
        <ele>651</ele>
        <time>2019-10-27T14:59:04.000Z</time>
      </trkpt>
      <trkpt lat="45.55776" lon="5.73609">
        <ele>651</ele>
        <time>2019-10-27T14:59:05.000Z</time>
      </trkpt>
      <trkpt lat="45.55777" lon="5.73609">
        <ele>651</ele>
        <time>2019-10-27T14:59:06.000Z</time>
      </trkpt>
      <trkpt lat="45.55778" lon="5.73609">
        <ele>651</ele>
        <time>2019-10-27T14:59:07.000Z</time>
      </trkpt>
      <trkpt lat="45.55779" lon="5.7361">
        <ele>651</ele>
        <time>2019-10-27T14:59:08.000Z</time>
      </trkpt>
      <trkpt lat="45.55779" lon="5.73611">
        <ele>651</ele>
        <time>2019-10-27T14:59:09.000Z</time>
      </trkpt>
      <trkpt lat="45.55779" lon="5.73612">
        <ele>651</ele>
        <time>2019-10-27T14:59:10.000Z</time>
      </trkpt>
      <trkpt lat="45.55779" lon="5.73613">
        <ele>651</ele>
        <time>2019-10-27T14:59:11.000Z</time>
      </trkpt>
      <trkpt lat="45.55779" lon="5.73614">
        <ele>651</ele>
        <time>2019-10-27T14:59:12.000Z</time>
      </trkpt>
      <trkpt lat="45.55778" lon="5.73616">
        <ele>651</ele>
        <time>2019-10-27T14:59:13.000Z</time>
      </trkpt>
      <trkpt lat="45.55777" lon="5.73617">
        <ele>651</ele>
        <time>2019-10-27T14:59:14.000Z</time>
      </trkpt>
      <trkpt lat="45.55776" lon="5.73619">
        <ele>651</ele>
        <time>2019-10-27T14:59:15.000Z</time>
      </trkpt>
      <trkpt lat="45.55775" lon="5.73621">
        <ele>651</ele>
        <time>2019-10-27T14:59:16.000Z</time>
      </trkpt>
      <trkpt lat="45.55774" lon="5.73623">
        <ele>651</ele>
        <time>2019-10-27T14:59:17.000Z</time>
      </trkpt>
      <trkpt lat="45.55772" lon="5.73624">
        <ele>651</ele>
        <time>2019-10-27T14:59:18.000Z</time>
      </trkpt>
      <trkpt lat="45.55771" lon="5.73626">
        <ele>651.5</ele>
        <time>2019-10-27T14:59:19.000Z</time>
      </trkpt>
      <trkpt lat="45.55769" lon="5.73628">
        <ele>652</ele>
        <time>2019-10-27T14:59:20.000Z</time>
      </trkpt>
      <trkpt lat="45.55768" lon="5.7363">
        <ele>652</ele>
        <time>2019-10-27T14:59:21.000Z</time>
      </trkpt>
      <trkpt lat="45.55767" lon="5.73632">
        <ele>652</ele>
        <time>2019-10-27T14:59:22.000Z</time>
      </trkpt>
      <trkpt lat="45.55766" lon="5.73634">
        <ele>652</ele>
        <time>2019-10-27T14:59:23.000Z</time>
      </trkpt>
      <trkpt lat="45.55765" lon="5.73636">
        <ele>652</ele>
        <time>2019-10-27T14:59:24.000Z</time>
      </trkpt>
      <trkpt lat="45.55764" lon="5.73637">
        <ele>652</ele>
        <time>2019-10-27T14:59:25.000Z</time>
      </trkpt>
      <trkpt lat="45.55763" lon="5.73639">
        <ele>652</ele>
        <time>2019-10-27T14:59:26.000Z</time>
      </trkpt>
      <trkpt lat="45.55763" lon="5.73641">
        <ele>652</ele>
        <time>2019-10-27T14:59:27.000Z</time>
      </trkpt>
      <trkpt lat="45.55763" lon="5.73642">
        <ele>652</ele>
        <time>2019-10-27T14:59:28.000Z</time>
      </trkpt>
      <trkpt lat="45.55763" lon="5.73644">
        <ele>652</ele>
        <time>2019-10-27T14:59:29.000Z</time>
      </trkpt>
      <trkpt lat="45.55763" lon="5.73645">
        <ele>652</ele>
        <time>2019-10-27T14:59:30.000Z</time>
      </trkpt>
      <trkpt lat="45.55763" lon="5.73646">
        <ele>652</ele>
        <time>2019-10-27T14:59:31.000Z</time>
      </trkpt>
      <trkpt lat="45.55763" lon="5.73647">
        <ele>652</ele>
        <time>2019-10-27T14:59:32.000Z</time>
      </trkpt>
      <trkpt lat="45.55763" lon="5.73649">
        <ele>652</ele>
        <time>2019-10-27T14:59:33.000Z</time>
      </trkpt>
      <trkpt lat="45.55763" lon="5.7365">
        <ele>652</ele>
        <time>2019-10-27T14:59:34.000Z</time>
      </trkpt>
      <trkpt lat="45.55763" lon="5.73651">
        <ele>652</ele>
        <time>2019-10-27T14:59:35.000Z</time>
      </trkpt>
      <trkpt lat="45.55763" lon="5.73652">
        <ele>652</ele>
        <time>2019-10-27T14:59:36.000Z</time>
      </trkpt>
      <trkpt lat="45.55763" lon="5.73653">
        <ele>652</ele>
        <time>2019-10-27T14:59:37.000Z</time>
      </trkpt>
      <trkpt lat="45.55763" lon="5.73654">
        <ele>652</ele>
        <time>2019-10-27T14:59:38.000Z</time>
      </trkpt>
      <trkpt lat="45.55763" lon="5.73654">
        <ele>652</ele>
        <time>2019-10-27T14:59:39.000Z</time>
      </trkpt>
      <trkpt lat="45.55763" lon="5.73655">
        <ele>652</ele>
        <time>2019-10-27T14:59:40.000Z</time>
      </trkpt>
      <trkpt lat="45.55762" lon="5.73656">
        <ele>652</ele>
        <time>2019-10-27T14:59:41.000Z</time>
      </trkpt>
      <trkpt lat="45.55762" lon="5.73657">
        <ele>652</ele>
        <time>2019-10-27T14:59:42.000Z</time>
      </trkpt>
      <trkpt lat="45.55761" lon="5.73657">
        <ele>652</ele>
        <time>2019-10-27T14:59:43.000Z</time>
      </trkpt>
      <trkpt lat="45.5576" lon="5.73658">
        <ele>652</ele>
        <time>2019-10-27T14:59:44.000Z</time>
      </trkpt>
      <trkpt lat="45.55758" lon="5.73659">
        <ele>652</ele>
        <time>2019-10-27T14:59:45.000Z</time>
      </trkpt>
      <trkpt lat="45.55757" lon="5.73659">
        <ele>652</ele>
        <time>2019-10-27T14:59:46.000Z</time>
      </trkpt>
      <trkpt lat="45.55756" lon="5.7366">
        <ele>652</ele>
        <time>2019-10-27T14:59:47.000Z</time>
      </trkpt>
      <trkpt lat="45.55754" lon="5.7366">
        <ele>652</ele>
        <time>2019-10-27T14:59:48.000Z</time>
      </trkpt>
      <trkpt lat="45.55753" lon="5.7366">
        <ele>652</ele>
        <time>2019-10-27T14:59:49.000Z</time>
      </trkpt>
      <trkpt lat="45.55752" lon="5.73659">
        <ele>652</ele>
        <time>2019-10-27T14:59:50.000Z</time>
      </trkpt>
      <trkpt lat="45.5575" lon="5.73659">
        <ele>652</ele>
        <time>2019-10-27T14:59:51.000Z</time>
      </trkpt>
      <trkpt lat="45.55749" lon="5.73658">
        <ele>652</ele>
        <time>2019-10-27T14:59:52.000Z</time>
      </trkpt>
      <trkpt lat="45.55749" lon="5.73657">
        <ele>652</ele>
        <time>2019-10-27T14:59:53.000Z</time>
      </trkpt>
      <trkpt lat="45.55748" lon="5.73656">
        <ele>652</ele>
        <time>2019-10-27T14:59:54.000Z</time>
      </trkpt>
      <trkpt lat="45.55748" lon="5.73654">
        <ele>652</ele>
        <time>2019-10-27T14:59:55.000Z</time>
      </trkpt>
      <trkpt lat="45.55747" lon="5.73653">
        <ele>652</ele>
        <time>2019-10-27T14:59:56.000Z</time>
      </trkpt>
      <trkpt lat="45.55748" lon="5.73652">
        <ele>652</ele>
        <time>2019-10-27T14:59:57.000Z</time>
      </trkpt>
      <trkpt lat="45.55748" lon="5.73651">
        <ele>652</ele>
        <time>2019-10-27T14:59:58.000Z</time>
      </trkpt>
      <trkpt lat="45.55748" lon="5.73651">
        <ele>652</ele>
        <time>2019-10-27T14:59:59.000Z</time>
      </trkpt>
      <trkpt lat="45.55748" lon="5.73651">
        <ele>652</ele>
        <time>2019-10-27T15:00:00.000Z</time>
      </trkpt>
      <trkpt lat="45.55748" lon="5.73652">
        <ele>652</ele>
        <time>2019-10-27T15:00:01.000Z</time>
      </trkpt>
      <trkpt lat="45.55748" lon="5.73653">
        <ele>652.3</ele>
        <time>2019-10-27T15:00:02.000Z</time>
      </trkpt>
      <trkpt lat="45.55747" lon="5.73654">
        <ele>652.7</ele>
        <time>2019-10-27T15:00:03.000Z</time>
      </trkpt>
      <trkpt lat="45.55747" lon="5.73656">
        <ele>653</ele>
        <time>2019-10-27T15:00:04.000Z</time>
      </trkpt>
      <trkpt lat="45.55747" lon="5.73657">
        <ele>653</ele>
        <time>2019-10-27T15:00:05.000Z</time>
      </trkpt>
      <trkpt lat="45.55746" lon="5.73658">
        <ele>653</ele>
        <time>2019-10-27T15:00:06.000Z</time>
      </trkpt>
      <trkpt lat="45.55745" lon="5.7366">
        <ele>653</ele>
        <time>2019-10-27T15:00:07.000Z</time>
      </trkpt>
      <trkpt lat="45.55745" lon="5.73661">
        <ele>653</ele>
        <time>2019-10-27T15:00:08.000Z</time>
      </trkpt>
      <trkpt lat="45.55744" lon="5.73661">
        <ele>653</ele>
        <time>2019-10-27T15:00:09.000Z</time>
      </trkpt>
      <trkpt lat="45.55743" lon="5.73661">
        <ele>653</ele>
        <time>2019-10-27T15:00:10.000Z</time>
      </trkpt>
      <trkpt lat="45.55743" lon="5.73661">
        <ele>653</ele>
        <time>2019-10-27T15:00:11.000Z</time>
      </trkpt>
      <trkpt lat="45.55742" lon="5.73661">
        <ele>653</ele>
        <time>2019-10-27T15:00:12.000Z</time>
      </trkpt>
      <trkpt lat="45.55741" lon="5.7366">
        <ele>653</ele>
        <time>2019-10-27T15:00:13.000Z</time>
      </trkpt>
      <trkpt lat="45.55741" lon="5.7366">
        <ele>653</ele>
        <time>2019-10-27T15:00:14.000Z</time>
      </trkpt>
      <trkpt lat="45.55741" lon="5.7366">
        <ele>653</ele>
        <time>2019-10-27T15:00:15.000Z</time>
      </trkpt>
      <trkpt lat="45.55741" lon="5.73659">
        <ele>653</ele>
        <time>2019-10-27T15:00:16.000Z</time>
      </trkpt>
      <trkpt lat="45.55741" lon="5.73659">
        <ele>653</ele>
        <time>2019-10-27T15:00:17.000Z</time>
      </trkpt>
      <trkpt lat="45.55741" lon="5.73659">
        <ele>653</ele>
        <time>2019-10-27T15:00:18.000Z</time>
      </trkpt>
      <trkpt lat="45.55741" lon="5.7366">
        <ele>653</ele>
        <time>2019-10-27T15:00:19.000Z</time>
      </trkpt>
      <trkpt lat="45.55742" lon="5.7366">
        <ele>653</ele>
        <time>2019-10-27T15:00:20.000Z</time>
      </trkpt>
      <trkpt lat="45.55743" lon="5.73661">
        <ele>653</ele>
        <time>2019-10-27T15:00:21.000Z</time>
      </trkpt>
      <trkpt lat="45.55743" lon="5.73662">
        <ele>653</ele>
        <time>2019-10-27T15:00:22.000Z</time>
      </trkpt>
      <trkpt lat="45.55744" lon="5.73663">
        <ele>653</ele>
        <time>2019-10-27T15:00:23.000Z</time>
      </trkpt>
      <trkpt lat="45.55744" lon="5.73664">
        <ele>653</ele>
        <time>2019-10-27T15:00:24.000Z</time>
      </trkpt>
      <trkpt lat="45.55745" lon="5.73665">
        <ele>653</ele>
        <time>2019-10-27T15:00:25.000Z</time>
      </trkpt>
      <trkpt lat="45.55745" lon="5.73666">
        <ele>653</ele>
        <time>2019-10-27T15:00:26.000Z</time>
      </trkpt>
      <trkpt lat="45.55744" lon="5.73667">
        <ele>653</ele>
        <time>2019-10-27T15:00:27.000Z</time>
      </trkpt>
      <trkpt lat="45.55744" lon="5.73668">
        <ele>653</ele>
        <time>2019-10-27T15:00:28.000Z</time>
      </trkpt>
      <trkpt lat="45.55744" lon="5.73669">
        <ele>652.5</ele>
        <time>2019-10-27T15:00:29.000Z</time>
      </trkpt>
      <trkpt lat="45.55744" lon="5.7367">
        <ele>652</ele>
        <time>2019-10-27T15:00:30.000Z</time>
      </trkpt>
      <trkpt lat="45.55744" lon="5.7367">
        <ele>652.5</ele>
        <time>2019-10-27T15:00:31.000Z</time>
      </trkpt>
      <trkpt lat="45.55745" lon="5.7367">
        <ele>653</ele>
        <time>2019-10-27T15:00:32.000Z</time>
      </trkpt>
      <trkpt lat="45.55746" lon="5.7367">
        <ele>652</ele>
        <time>2019-10-27T15:00:33.000Z</time>
      </trkpt>
      <trkpt lat="45.55746" lon="5.7367">
        <ele>652</ele>
        <time>2019-10-27T15:00:34.000Z</time>
      </trkpt>
      <trkpt lat="45.55747" lon="5.7367">
        <ele>652</ele>
        <time>2019-10-27T15:00:35.000Z</time>
      </trkpt>
      <trkpt lat="45.55747" lon="5.73671">
        <ele>652</ele>
        <time>2019-10-27T15:00:36.000Z</time>
      </trkpt>
      <trkpt lat="45.55747" lon="5.73671">
        <ele>652</ele>
        <time>2019-10-27T15:00:37.000Z</time>
      </trkpt>
      <trkpt lat="45.55747" lon="5.73672">
        <ele>652</ele>
        <time>2019-10-27T15:00:38.000Z</time>
      </trkpt>
      <trkpt lat="45.55747" lon="5.73672">
        <ele>652</ele>
        <time>2019-10-27T15:00:39.000Z</time>
      </trkpt>
      <trkpt lat="45.55747" lon="5.73673">
        <ele>652</ele>
        <time>2019-10-27T15:00:40.000Z</time>
      </trkpt>
      <trkpt lat="45.55747" lon="5.73674">
        <ele>652</ele>
        <time>2019-10-27T15:00:41.000Z</time>
      </trkpt>
      <trkpt lat="45.55746" lon="5.73675">
        <ele>652</ele>
        <time>2019-10-27T15:00:42.000Z</time>
      </trkpt>
      <trkpt lat="45.55746" lon="5.73676">
        <ele>652</ele>
        <time>2019-10-27T15:00:43.000Z</time>
      </trkpt>
      <trkpt lat="45.55746" lon="5.73677">
        <ele>652</ele>
        <time>2019-10-27T15:00:44.000Z</time>
      </trkpt>
      <trkpt lat="45.55745" lon="5.73678">
        <ele>651.5</ele>
        <time>2019-10-27T15:00:45.000Z</time>
      </trkpt>
      <trkpt lat="45.55745" lon="5.73679">
        <ele>651</ele>
        <time>2019-10-27T15:00:46.000Z</time>
      </trkpt>
      <trkpt lat="45.55745" lon="5.73679">
        <ele>651</ele>
        <time>2019-10-27T15:00:47.000Z</time>
      </trkpt>
      <trkpt lat="45.55744" lon="5.7368">
        <ele>651</ele>
        <time>2019-10-27T15:00:48.000Z</time>
      </trkpt>
      <trkpt lat="45.55744" lon="5.73681">
        <ele>651</ele>
        <time>2019-10-27T15:00:49.000Z</time>
      </trkpt>
      <trkpt lat="45.55744" lon="5.73682">
        <ele>651</ele>
        <time>2019-10-27T15:00:50.000Z</time>
      </trkpt>
      <trkpt lat="45.55744" lon="5.73682">
        <ele>651</ele>
        <time>2019-10-27T15:00:51.000Z</time>
      </trkpt>
      <trkpt lat="45.55744" lon="5.73683">
        <ele>651</ele>
        <time>2019-10-27T15:00:52.000Z</time>
      </trkpt>
      <trkpt lat="45.55745" lon="5.73683">
        <ele>651</ele>
        <time>2019-10-27T15:00:53.000Z</time>
      </trkpt>
      <trkpt lat="45.55745" lon="5.73683">
        <ele>651</ele>
        <time>2019-10-27T15:00:54.000Z</time>
      </trkpt>
      <trkpt lat="45.55746" lon="5.73684">
        <ele>651</ele>
        <time>2019-10-27T15:00:55.000Z</time>
      </trkpt>
      <trkpt lat="45.55746" lon="5.73684">
        <ele>651</ele>
        <time>2019-10-27T15:00:56.000Z</time>
      </trkpt>
      <trkpt lat="45.55747" lon="5.73684">
        <ele>651</ele>
        <time>2019-10-27T15:00:57.000Z</time>
      </trkpt>
      <trkpt lat="45.55747" lon="5.73684">
        <ele>651</ele>
        <time>2019-10-27T15:00:58.000Z</time>
      </trkpt>
      <trkpt lat="45.55747" lon="5.73685">
        <ele>650.5</ele>
        <time>2019-10-27T15:00:59.000Z</time>
      </trkpt>
      <trkpt lat="45.55747" lon="5.73685">
        <ele>650</ele>
        <time>2019-10-27T15:01:00.000Z</time>
      </trkpt>
      <trkpt lat="45.55747" lon="5.73686">
        <ele>650</ele>
        <time>2019-10-27T15:01:01.000Z</time>
      </trkpt>
      <trkpt lat="45.55747" lon="5.73686">
        <ele>650</ele>
        <time>2019-10-27T15:01:02.000Z</time>
      </trkpt>
      <trkpt lat="45.55746" lon="5.73687">
        <ele>650</ele>
        <time>2019-10-27T15:01:03.000Z</time>
      </trkpt>
      <trkpt lat="45.55746" lon="5.73688">
        <ele>650</ele>
        <time>2019-10-27T15:01:04.000Z</time>
      </trkpt>
      <trkpt lat="45.55745" lon="5.73688">
        <ele>650</ele>
        <time>2019-10-27T15:01:05.000Z</time>
      </trkpt>
      <trkpt lat="45.55745" lon="5.73689">
        <ele>650</ele>
        <time>2019-10-27T15:01:06.000Z</time>
      </trkpt>
      <trkpt lat="45.55744" lon="5.7369">
        <ele>650</ele>
        <time>2019-10-27T15:01:07.000Z</time>
      </trkpt>
      <trkpt lat="45.55744" lon="5.7369">
        <ele>650</ele>
        <time>2019-10-27T15:01:08.000Z</time>
      </trkpt>
      <trkpt lat="45.55744" lon="5.73691">
        <ele>650</ele>
        <time>2019-10-27T15:01:09.000Z</time>
      </trkpt>
      <trkpt lat="45.55744" lon="5.73692">
        <ele>650</ele>
        <time>2019-10-27T15:01:10.000Z</time>
      </trkpt>
      <trkpt lat="45.55744" lon="5.73693">
        <ele>650</ele>
        <time>2019-10-27T15:01:11.000Z</time>
      </trkpt>
      <trkpt lat="45.55744" lon="5.73693">
        <ele>650</ele>
        <time>2019-10-27T15:01:12.000Z</time>
      </trkpt>
      <trkpt lat="45.55744" lon="5.73694">
        <ele>650</ele>
        <time>2019-10-27T15:01:13.000Z</time>
      </trkpt>
      <trkpt lat="45.55745" lon="5.73694">
        <ele>650</ele>
        <time>2019-10-27T15:01:14.000Z</time>
      </trkpt>
      <trkpt lat="45.55745" lon="5.73695">
        <ele>650</ele>
        <time>2019-10-27T15:01:15.000Z</time>
      </trkpt>
      <trkpt lat="45.55746" lon="5.73695">
        <ele>650</ele>
        <time>2019-10-27T15:01:16.000Z</time>
      </trkpt>
      <trkpt lat="45.55746" lon="5.73695">
        <ele>650</ele>
        <time>2019-10-27T15:01:17.000Z</time>
      </trkpt>
      <trkpt lat="45.55746" lon="5.73695">
        <ele>650</ele>
        <time>2019-10-27T15:01:18.000Z</time>
      </trkpt>
      <trkpt lat="45.55746" lon="5.73695">
        <ele>650</ele>
        <time>2019-10-27T15:01:19.000Z</time>
      </trkpt>
      <trkpt lat="45.55747" lon="5.73695">
        <ele>650</ele>
        <time>2019-10-27T15:01:20.000Z</time>
      </trkpt>
      <trkpt lat="45.55747" lon="5.73695">
        <ele>650</ele>
        <time>2019-10-27T15:01:21.000Z</time>
      </trkpt>
      <trkpt lat="45.55747" lon="5.73695">
        <ele>650</ele>
        <time>2019-10-27T15:01:22.000Z</time>
      </trkpt>
      <trkpt lat="45.55747" lon="5.73695">
        <ele>650</ele>
        <time>2019-10-27T15:01:23.000Z</time>
      </trkpt>
      <trkpt lat="45.55747" lon="5.73695">
        <ele>650</ele>
        <time>2019-10-27T15:01:24.000Z</time>
      </trkpt>
      <trkpt lat="45.55747" lon="5.73695">
        <ele>650</ele>
        <time>2019-10-27T15:01:25.000Z</time>
      </trkpt>
      <trkpt lat="45.55747" lon="5.73695">
        <ele>650</ele>
        <time>2019-10-27T15:01:26.000Z</time>
      </trkpt>
      <trkpt lat="45.55746" lon="5.73696">
        <ele>650</ele>
        <time>2019-10-27T15:01:27.000Z</time>
      </trkpt>
      <trkpt lat="45.55746" lon="5.73696">
        <ele>650</ele>
        <time>2019-10-27T15:01:28.000Z</time>
      </trkpt>
      <trkpt lat="45.55746" lon="5.73696">
        <ele>650</ele>
        <time>2019-10-27T15:01:29.000Z</time>
      </trkpt>
      <trkpt lat="45.55746" lon="5.73697">
        <ele>650</ele>
        <time>2019-10-27T15:01:30.000Z</time>
      </trkpt>
      <trkpt lat="45.55746" lon="5.73697">
        <ele>650</ele>
        <time>2019-10-27T15:01:31.000Z</time>
      </trkpt>
      <trkpt lat="45.55746" lon="5.73697">
        <ele>650</ele>
        <time>2019-10-27T15:01:32.000Z</time>
      </trkpt>
      <trkpt lat="45.55746" lon="5.73697">
        <ele>650</ele>
        <time>2019-10-27T15:01:33.000Z</time>
      </trkpt>
      <trkpt lat="45.55746" lon="5.73697">
        <ele>650</ele>
        <time>2019-10-27T15:01:34.000Z</time>
      </trkpt>
      <trkpt lat="45.55746" lon="5.73696">
        <ele>650</ele>
        <time>2019-10-27T15:01:35.000Z</time>
      </trkpt>
      <trkpt lat="45.55746" lon="5.73696">
        <ele>650</ele>
        <time>2019-10-27T15:01:36.000Z</time>
      </trkpt>
      <trkpt lat="45.55746" lon="5.73695">
        <ele>650</ele>
        <time>2019-10-27T15:01:37.000Z</time>
      </trkpt>
      <trkpt lat="45.55747" lon="5.73695">
        <ele>650</ele>
        <time>2019-10-27T15:01:38.000Z</time>
      </trkpt>
      <trkpt lat="45.55747" lon="5.73694">
        <ele>650</ele>
        <time>2019-10-27T15:01:39.000Z</time>
      </trkpt>
      <trkpt lat="45.55747" lon="5.73693">
        <ele>650</ele>
        <time>2019-10-27T15:01:40.000Z</time>
      </trkpt>
      <trkpt lat="45.55748" lon="5.73693">
        <ele>650</ele>
        <time>2019-10-27T15:01:41.000Z</time>
      </trkpt>
      <trkpt lat="45.55748" lon="5.73692">
        <ele>650</ele>
        <time>2019-10-27T15:01:42.000Z</time>
      </trkpt>
      <trkpt lat="45.55748" lon="5.73692">
        <ele>650</ele>
        <time>2019-10-27T15:01:43.000Z</time>
      </trkpt>
      <trkpt lat="45.55748" lon="5.73691">
        <ele>650</ele>
        <time>2019-10-27T15:01:44.000Z</time>
      </trkpt>
      <trkpt lat="45.55748" lon="5.73691">
        <ele>650</ele>
        <time>2019-10-27T15:01:45.000Z</time>
      </trkpt>
      <trkpt lat="45.55747" lon="5.73691">
        <ele>650</ele>
        <time>2019-10-27T15:01:46.000Z</time>
      </trkpt>
      <trkpt lat="45.55747" lon="5.73691">
        <ele>650</ele>
        <time>2019-10-27T15:01:47.000Z</time>
      </trkpt>
      <trkpt lat="45.55747" lon="5.7369">
        <ele>650</ele>
        <time>2019-10-27T15:01:48.000Z</time>
      </trkpt>
      <trkpt lat="45.55746" lon="5.7369">
        <ele>650</ele>
        <time>2019-10-27T15:01:49.000Z</time>
      </trkpt>
      <trkpt lat="45.55746" lon="5.7369">
        <ele>650</ele>
        <time>2019-10-27T15:01:50.000Z</time>
      </trkpt>
      <trkpt lat="45.55746" lon="5.7369">
        <ele>650</ele>
        <time>2019-10-27T15:01:51.000Z</time>
      </trkpt>
      <trkpt lat="45.55745" lon="5.7369">
        <ele>650</ele>
        <time>2019-10-27T15:01:52.000Z</time>
      </trkpt>
      <trkpt lat="45.55745" lon="5.7369">
        <ele>650</ele>
        <time>2019-10-27T15:01:53.000Z</time>
      </trkpt>
      <trkpt lat="45.55745" lon="5.7369">
        <ele>650</ele>
        <time>2019-10-27T15:01:54.000Z</time>
      </trkpt>
      <trkpt lat="45.55744" lon="5.7369">
        <ele>650</ele>
        <time>2019-10-27T15:01:55.000Z</time>
      </trkpt>
      <trkpt lat="45.55744" lon="5.7369">
        <ele>650</ele>
        <time>2019-10-27T15:01:56.000Z</time>
      </trkpt>
      <trkpt lat="45.55744" lon="5.73691">
        <ele>650</ele>
        <time>2019-10-27T15:01:57.000Z</time>
      </trkpt>
      <trkpt lat="45.55743" lon="5.73691">
        <ele>650</ele>
        <time>2019-10-27T15:01:58.000Z</time>
      </trkpt>
      <trkpt lat="45.55743" lon="5.73691">
        <ele>650</ele>
        <time>2019-10-27T15:01:59.000Z</time>
      </trkpt>
      <trkpt lat="45.55743" lon="5.73692">
        <ele>650</ele>
        <time>2019-10-27T15:02:00.000Z</time>
      </trkpt>
      <trkpt lat="45.55743" lon="5.73692">
        <ele>650</ele>
        <time>2019-10-27T15:02:01.000Z</time>
      </trkpt>
      <trkpt lat="45.55742" lon="5.73692">
        <ele>650</ele>
        <time>2019-10-27T15:02:02.000Z</time>
      </trkpt>
      <trkpt lat="45.55742" lon="5.73693">
        <ele>650</ele>
        <time>2019-10-27T15:02:03.000Z</time>
      </trkpt>
      <trkpt lat="45.55742" lon="5.73693">
        <ele>650</ele>
        <time>2019-10-27T15:02:04.000Z</time>
      </trkpt>
      <trkpt lat="45.55741" lon="5.73694">
        <ele>650</ele>
        <time>2019-10-27T15:02:05.000Z</time>
      </trkpt>
      <trkpt lat="45.55741" lon="5.73695">
        <ele>650</ele>
        <time>2019-10-27T15:02:06.000Z</time>
      </trkpt>
      <trkpt lat="45.5574" lon="5.73695">
        <ele>650</ele>
        <time>2019-10-27T15:02:07.000Z</time>
      </trkpt>
      <trkpt lat="45.55739" lon="5.73696">
        <ele>650</ele>
        <time>2019-10-27T15:02:08.000Z</time>
      </trkpt>
      <trkpt lat="45.55738" lon="5.73697">
        <ele>650</ele>
        <time>2019-10-27T15:02:09.000Z</time>
      </trkpt>
      <trkpt lat="45.55738" lon="5.73698">
        <ele>650</ele>
        <time>2019-10-27T15:02:10.000Z</time>
      </trkpt>
      <trkpt lat="45.55737" lon="5.73699">
        <ele>650</ele>
        <time>2019-10-27T15:02:11.000Z</time>
      </trkpt>
      <trkpt lat="45.55736" lon="5.73699">
        <ele>650</ele>
        <time>2019-10-27T15:02:12.000Z</time>
      </trkpt>
      <trkpt lat="45.55736" lon="5.737">
        <ele>650</ele>
        <time>2019-10-27T15:02:13.000Z</time>
      </trkpt>
      <trkpt lat="45.55736" lon="5.737">
        <ele>650</ele>
        <time>2019-10-27T15:02:14.000Z</time>
      </trkpt>
      <trkpt lat="45.55736" lon="5.737">
        <ele>650</ele>
        <time>2019-10-27T15:02:15.000Z</time>
      </trkpt>
      <trkpt lat="45.55737" lon="5.737">
        <ele>650</ele>
        <time>2019-10-27T15:02:16.000Z</time>
      </trkpt>
      <trkpt lat="45.55737" lon="5.737">
        <ele>650</ele>
        <time>2019-10-27T15:02:17.000Z</time>
      </trkpt>
      <trkpt lat="45.55737" lon="5.737">
        <ele>650</ele>
        <time>2019-10-27T15:02:18.000Z</time>
      </trkpt>
      <trkpt lat="45.55737" lon="5.737">
        <ele>650</ele>
        <time>2019-10-27T15:02:19.000Z</time>
      </trkpt>
      <trkpt lat="45.55737" lon="5.737">
        <ele>650</ele>
        <time>2019-10-27T15:02:20.000Z</time>
      </trkpt>
      <trkpt lat="45.55737" lon="5.737">
        <ele>650</ele>
        <time>2019-10-27T15:02:21.000Z</time>
      </trkpt>
      <trkpt lat="45.55737" lon="5.737">
        <ele>650</ele>
        <time>2019-10-27T15:02:22.000Z</time>
      </trkpt>
      <trkpt lat="45.55737" lon="5.73699">
        <ele>650</ele>
        <time>2019-10-27T15:02:23.000Z</time>
      </trkpt>
      <trkpt lat="45.55737" lon="5.73699">
        <ele>650</ele>
        <time>2019-10-27T15:02:24.000Z</time>
      </trkpt>
      <trkpt lat="45.55738" lon="5.73698">
        <ele>650</ele>
        <time>2019-10-27T15:02:25.000Z</time>
      </trkpt>
      <trkpt lat="45.55738" lon="5.73697">
        <ele>650</ele>
        <time>2019-10-27T15:02:26.000Z</time>
      </trkpt>
      <trkpt lat="45.55738" lon="5.73696">
        <ele>650</ele>
        <time>2019-10-27T15:02:27.000Z</time>
      </trkpt>
      <trkpt lat="45.55739" lon="5.73695">
        <ele>650</ele>
        <time>2019-10-27T15:02:28.000Z</time>
      </trkpt>
      <trkpt lat="45.55739" lon="5.73694">
        <ele>650</ele>
        <time>2019-10-27T15:02:29.000Z</time>
      </trkpt>
      <trkpt lat="45.55739" lon="5.73693">
        <ele>650</ele>
        <time>2019-10-27T15:02:30.000Z</time>
      </trkpt>
      <trkpt lat="45.55739" lon="5.73693">
        <ele>650</ele>
        <time>2019-10-27T15:02:31.000Z</time>
      </trkpt>
      <trkpt lat="45.55739" lon="5.73693">
        <ele>650</ele>
        <time>2019-10-27T15:02:32.000Z</time>
      </trkpt>
      <trkpt lat="45.55739" lon="5.73693">
        <ele>650</ele>
        <time>2019-10-27T15:02:33.000Z</time>
      </trkpt>
      <trkpt lat="45.55739" lon="5.73693">
        <ele>650</ele>
        <time>2019-10-27T15:02:34.000Z</time>
      </trkpt>
      <trkpt lat="45.55739" lon="5.73692">
        <ele>650</ele>
        <time>2019-10-27T15:02:35.000Z</time>
      </trkpt>
      <trkpt lat="45.55739" lon="5.73692">
        <ele>650</ele>
        <time>2019-10-27T15:02:36.000Z</time>
      </trkpt>
      <trkpt lat="45.55739" lon="5.73691">
        <ele>650</ele>
        <time>2019-10-27T15:02:37.000Z</time>
      </trkpt>
      <trkpt lat="45.55739" lon="5.73691">
        <ele>650</ele>
        <time>2019-10-27T15:02:38.000Z</time>
      </trkpt>
      <trkpt lat="45.55739" lon="5.7369">
        <ele>650</ele>
        <time>2019-10-27T15:02:39.000Z</time>
      </trkpt>
      <trkpt lat="45.55739" lon="5.7369">
        <ele>650</ele>
        <time>2019-10-27T15:02:40.000Z</time>
      </trkpt>
      <trkpt lat="45.55738" lon="5.73689">
        <ele>650</ele>
        <time>2019-10-27T15:02:41.000Z</time>
      </trkpt>
      <trkpt lat="45.55738" lon="5.73689">
        <ele>650</ele>
        <time>2019-10-27T15:02:42.000Z</time>
      </trkpt>
      <trkpt lat="45.55738" lon="5.73689">
        <ele>650</ele>
        <time>2019-10-27T15:02:43.000Z</time>
      </trkpt>
      <trkpt lat="45.55738" lon="5.73689">
        <ele>650</ele>
        <time>2019-10-27T15:02:44.000Z</time>
      </trkpt>
      <trkpt lat="45.55737" lon="5.7369">
        <ele>650</ele>
        <time>2019-10-27T15:02:45.000Z</time>
      </trkpt>
      <trkpt lat="45.55737" lon="5.7369">
        <ele>650</ele>
        <time>2019-10-27T15:02:46.000Z</time>
      </trkpt>
      <trkpt lat="45.55736" lon="5.73691">
        <ele>650</ele>
        <time>2019-10-27T15:02:47.000Z</time>
      </trkpt>
      <trkpt lat="45.55736" lon="5.73692">
        <ele>650</ele>
        <time>2019-10-27T15:02:48.000Z</time>
      </trkpt>
      <trkpt lat="45.55736" lon="5.73693">
        <ele>650</ele>
        <time>2019-10-27T15:02:49.000Z</time>
      </trkpt>
      <trkpt lat="45.55735" lon="5.73694">
        <ele>650</ele>
        <time>2019-10-27T15:02:50.000Z</time>
      </trkpt>
      <trkpt lat="45.55735" lon="5.73694">
        <ele>650</ele>
        <time>2019-10-27T15:02:51.000Z</time>
      </trkpt>
      <trkpt lat="45.55734" lon="5.73695">
        <ele>650</ele>
        <time>2019-10-27T15:02:52.000Z</time>
      </trkpt>
      <trkpt lat="45.55734" lon="5.73695">
        <ele>650</ele>
        <time>2019-10-27T15:02:53.000Z</time>
      </trkpt>
      <trkpt lat="45.55734" lon="5.73696">
        <ele>650</ele>
        <time>2019-10-27T15:02:54.000Z</time>
      </trkpt>
      <trkpt lat="45.55734" lon="5.73696">
        <ele>650</ele>
        <time>2019-10-27T15:02:55.000Z</time>
      </trkpt>
      <trkpt lat="45.55734" lon="5.73697">
        <ele>650</ele>
        <time>2019-10-27T15:02:56.000Z</time>
      </trkpt>
      <trkpt lat="45.55733" lon="5.73697">
        <ele>650</ele>
        <time>2019-10-27T15:02:57.000Z</time>
      </trkpt>
      <trkpt lat="45.55733" lon="5.73697">
        <ele>650</ele>
        <time>2019-10-27T15:02:58.000Z</time>
      </trkpt>
      <trkpt lat="45.55733" lon="5.73697">
        <ele>650</ele>
        <time>2019-10-27T15:02:59.000Z</time>
      </trkpt>
      <trkpt lat="45.55733" lon="5.73697">
        <ele>650</ele>
        <time>2019-10-27T15:03:00.000Z</time>
      </trkpt>
      <trkpt lat="45.55733" lon="5.73697">
        <ele>650</ele>
        <time>2019-10-27T15:03:01.000Z</time>
      </trkpt>
      <trkpt lat="45.55733" lon="5.73697">
        <ele>650</ele>
        <time>2019-10-27T15:03:02.000Z</time>
      </trkpt>
      <trkpt lat="45.55733" lon="5.73697">
        <ele>650</ele>
        <time>2019-10-27T15:03:03.000Z</time>
      </trkpt>
      <trkpt lat="45.55733" lon="5.73697">
        <ele>650</ele>
        <time>2019-10-27T15:03:04.000Z</time>
      </trkpt>
      <trkpt lat="45.55733" lon="5.73697">
        <ele>650</ele>
        <time>2019-10-27T15:03:05.000Z</time>
      </trkpt>
      <trkpt lat="45.55733" lon="5.73697">
        <ele>650</ele>
        <time>2019-10-27T15:03:06.000Z</time>
      </trkpt>
      <trkpt lat="45.55733" lon="5.73697">
        <ele>650</ele>
        <time>2019-10-27T15:03:07.000Z</time>
      </trkpt>
      <trkpt lat="45.55733" lon="5.73697">
        <ele>650</ele>
        <time>2019-10-27T15:03:08.000Z</time>
      </trkpt>
      <trkpt lat="45.55733" lon="5.73698">
        <ele>650</ele>
        <time>2019-10-27T15:03:09.000Z</time>
      </trkpt>
      <trkpt lat="45.55733" lon="5.73698">
        <ele>650</ele>
        <time>2019-10-27T15:03:10.000Z</time>
      </trkpt>
      <trkpt lat="45.55733" lon="5.73698">
        <ele>650</ele>
        <time>2019-10-27T15:03:11.000Z</time>
      </trkpt>
      <trkpt lat="45.55733" lon="5.73698">
        <ele>650</ele>
        <time>2019-10-27T15:03:12.000Z</time>
      </trkpt>
      <trkpt lat="45.55733" lon="5.73698">
        <ele>650</ele>
        <time>2019-10-27T15:03:13.000Z</time>
      </trkpt>
      <trkpt lat="45.55733" lon="5.73698">
        <ele>650</ele>
        <time>2019-10-27T15:03:14.000Z</time>
      </trkpt>
      <trkpt lat="45.55733" lon="5.73698">
        <ele>650</ele>
        <time>2019-10-27T15:03:15.000Z</time>
      </trkpt>
      <trkpt lat="45.55733" lon="5.73698">
        <ele>650</ele>
        <time>2019-10-27T15:03:16.000Z</time>
      </trkpt>
      <trkpt lat="45.55733" lon="5.73698">
        <ele>650</ele>
        <time>2019-10-27T15:03:17.000Z</time>
      </trkpt>
      <trkpt lat="45.55733" lon="5.73698">
        <ele>650</ele>
        <time>2019-10-27T15:03:18.000Z</time>
      </trkpt>
      <trkpt lat="45.55733" lon="5.73698">
        <ele>650</ele>
        <time>2019-10-27T15:03:19.000Z</time>
      </trkpt>
      <trkpt lat="45.55733" lon="5.73698">
        <ele>650</ele>
        <time>2019-10-27T15:03:20.000Z</time>
      </trkpt>
      <trkpt lat="45.55734" lon="5.73698">
        <ele>650</ele>
        <time>2019-10-27T15:03:21.000Z</time>
      </trkpt>
      <trkpt lat="45.55734" lon="5.73698">
        <ele>650</ele>
        <time>2019-10-27T15:03:22.000Z</time>
      </trkpt>
      <trkpt lat="45.55734" lon="5.73697">
        <ele>650</ele>
        <time>2019-10-27T15:03:23.000Z</time>
      </trkpt>
      <trkpt lat="45.55734" lon="5.73697">
        <ele>650</ele>
        <time>2019-10-27T15:03:24.000Z</time>
      </trkpt>
      <trkpt lat="45.55735" lon="5.73697">
        <ele>650</ele>
        <time>2019-10-27T15:03:25.000Z</time>
      </trkpt>
      <trkpt lat="45.55735" lon="5.73697">
        <ele>650</ele>
        <time>2019-10-27T15:03:26.000Z</time>
      </trkpt>
      <trkpt lat="45.55735" lon="5.73696">
        <ele>650</ele>
        <time>2019-10-27T15:03:27.000Z</time>
      </trkpt>
      <trkpt lat="45.55736" lon="5.73696">
        <ele>650</ele>
        <time>2019-10-27T15:03:28.000Z</time>
      </trkpt>
      <trkpt lat="45.55736" lon="5.73695">
        <ele>650</ele>
        <time>2019-10-27T15:03:29.000Z</time>
      </trkpt>
      <trkpt lat="45.55737" lon="5.73695">
        <ele>650</ele>
        <time>2019-10-27T15:03:30.000Z</time>
      </trkpt>
      <trkpt lat="45.55737" lon="5.73694">
        <ele>650</ele>
        <time>2019-10-27T15:03:31.000Z</time>
      </trkpt>
      <trkpt lat="45.55738" lon="5.73694">
        <ele>650</ele>
        <time>2019-10-27T15:03:32.000Z</time>
      </trkpt>
      <trkpt lat="45.55738" lon="5.73693">
        <ele>650</ele>
        <time>2019-10-27T15:03:33.000Z</time>
      </trkpt>
      <trkpt lat="45.55739" lon="5.73693">
        <ele>650</ele>
        <time>2019-10-27T15:03:34.000Z</time>
      </trkpt>
      <trkpt lat="45.55739" lon="5.73693">
        <ele>650</ele>
        <time>2019-10-27T15:03:35.000Z</time>
      </trkpt>
      <trkpt lat="45.5574" lon="5.73692">
        <ele>650</ele>
        <time>2019-10-27T15:03:36.000Z</time>
      </trkpt>
      <trkpt lat="45.5574" lon="5.73692">
        <ele>650</ele>
        <time>2019-10-27T15:03:37.000Z</time>
      </trkpt>
      <trkpt lat="45.55741" lon="5.73692">
        <ele>650</ele>
        <time>2019-10-27T15:03:38.000Z</time>
      </trkpt>
      <trkpt lat="45.55742" lon="5.73692">
        <ele>650</ele>
        <time>2019-10-27T15:03:39.000Z</time>
      </trkpt>
      <trkpt lat="45.55742" lon="5.73692">
        <ele>649.7</ele>
        <time>2019-10-27T15:03:40.000Z</time>
      </trkpt>
      <trkpt lat="45.55743" lon="5.73692">
        <ele>649.3</ele>
        <time>2019-10-27T15:03:41.000Z</time>
      </trkpt>
      <trkpt lat="45.55743" lon="5.73692">
        <ele>649</ele>
        <time>2019-10-27T15:03:42.000Z</time>
      </trkpt>
      <trkpt lat="45.55744" lon="5.73693">
        <ele>648.5</ele>
        <time>2019-10-27T15:03:43.000Z</time>
      </trkpt>
      <trkpt lat="45.55745" lon="5.73693">
        <ele>648</ele>
        <time>2019-10-27T15:03:44.000Z</time>
      </trkpt>
      <trkpt lat="45.55746" lon="5.73694">
        <ele>648.5</ele>
        <time>2019-10-27T15:03:45.000Z</time>
      </trkpt>
      <trkpt lat="45.55746" lon="5.73695">
        <ele>649</ele>
        <time>2019-10-27T15:03:46.000Z</time>
      </trkpt>
      <trkpt lat="45.55747" lon="5.73696">
        <ele>649</ele>
        <time>2019-10-27T15:03:47.000Z</time>
      </trkpt>
      <trkpt lat="45.55747" lon="5.73697">
        <ele>649</ele>
        <time>2019-10-27T15:03:48.000Z</time>
      </trkpt>
      <trkpt lat="45.55747" lon="5.73699">
        <ele>649</ele>
        <time>2019-10-27T15:03:49.000Z</time>
      </trkpt>
      <trkpt lat="45.55748" lon="5.737">
        <ele>649</ele>
        <time>2019-10-27T15:03:50.000Z</time>
      </trkpt>
      <trkpt lat="45.55747" lon="5.73702">
        <ele>649</ele>
        <time>2019-10-27T15:03:51.000Z</time>
      </trkpt>
      <trkpt lat="45.55747" lon="5.73703">
        <ele>649</ele>
        <time>2019-10-27T15:03:52.000Z</time>
      </trkpt>
      <trkpt lat="45.55747" lon="5.73705">
        <ele>648</ele>
        <time>2019-10-27T15:03:53.000Z</time>
      </trkpt>
      <trkpt lat="45.55746" lon="5.73707">
        <ele>648</ele>
        <time>2019-10-27T15:03:54.000Z</time>
      </trkpt>
      <trkpt lat="45.55745" lon="5.73709">
        <ele>648</ele>
        <time>2019-10-27T15:03:55.000Z</time>
      </trkpt>
      <trkpt lat="45.55744" lon="5.73711">
        <ele>648</ele>
        <time>2019-10-27T15:03:56.000Z</time>
      </trkpt>
      <trkpt lat="45.55743" lon="5.73713">
        <ele>648</ele>
        <time>2019-10-27T15:03:57.000Z</time>
      </trkpt>
      <trkpt lat="45.55742" lon="5.73715">
        <ele>647.7</ele>
        <time>2019-10-27T15:03:58.000Z</time>
      </trkpt>
      <trkpt lat="45.55741" lon="5.73717">
        <ele>647.3</ele>
        <time>2019-10-27T15:03:59.000Z</time>
      </trkpt>
      <trkpt lat="45.55741" lon="5.73719">
        <ele>647</ele>
        <time>2019-10-27T15:04:00.000Z</time>
      </trkpt>
      <trkpt lat="45.5574" lon="5.7372">
        <ele>647</ele>
        <time>2019-10-27T15:04:01.000Z</time>
      </trkpt>
      <trkpt lat="45.55739" lon="5.73722">
        <ele>647</ele>
        <time>2019-10-27T15:04:02.000Z</time>
      </trkpt>
      <trkpt lat="45.55739" lon="5.73723">
        <ele>647</ele>
        <time>2019-10-27T15:04:03.000Z</time>
      </trkpt>
      <trkpt lat="45.55738" lon="5.73724">
        <ele>646.7</ele>
        <time>2019-10-27T15:04:04.000Z</time>
      </trkpt>
      <trkpt lat="45.55738" lon="5.73725">
        <ele>646.3</ele>
        <time>2019-10-27T15:04:05.000Z</time>
      </trkpt>
      <trkpt lat="45.55737" lon="5.73727">
        <ele>646</ele>
        <time>2019-10-27T15:04:06.000Z</time>
      </trkpt>
      <trkpt lat="45.55737" lon="5.73728">
        <ele>646</ele>
        <time>2019-10-27T15:04:07.000Z</time>
      </trkpt>
      <trkpt lat="45.55736" lon="5.73729">
        <ele>646</ele>
        <time>2019-10-27T15:04:08.000Z</time>
      </trkpt>
      <trkpt lat="45.55736" lon="5.73731">
        <ele>646</ele>
        <time>2019-10-27T15:04:09.000Z</time>
      </trkpt>
      <trkpt lat="45.55735" lon="5.73732">
        <ele>646</ele>
        <time>2019-10-27T15:04:10.000Z</time>
      </trkpt>
      <trkpt lat="45.55735" lon="5.73734">
        <ele>646</ele>
        <time>2019-10-27T15:04:11.000Z</time>
      </trkpt>
      <trkpt lat="45.55734" lon="5.73736">
        <ele>646</ele>
        <time>2019-10-27T15:04:12.000Z</time>
      </trkpt>
      <trkpt lat="45.55733" lon="5.73738">
        <ele>645</ele>
        <time>2019-10-27T15:04:13.000Z</time>
      </trkpt>
      <trkpt lat="45.55732" lon="5.73739">
        <ele>645</ele>
        <time>2019-10-27T15:04:14.000Z</time>
      </trkpt>
      <trkpt lat="45.55732" lon="5.73741">
        <ele>645</ele>
        <time>2019-10-27T15:04:15.000Z</time>
      </trkpt>
      <trkpt lat="45.55731" lon="5.73742">
        <ele>645</ele>
        <time>2019-10-27T15:04:16.000Z</time>
      </trkpt>
      <trkpt lat="45.55731" lon="5.73744">
        <ele>645</ele>
        <time>2019-10-27T15:04:17.000Z</time>
      </trkpt>
      <trkpt lat="45.5573" lon="5.73744">
        <ele>645</ele>
        <time>2019-10-27T15:04:18.000Z</time>
      </trkpt>
      <trkpt lat="45.5573" lon="5.73745">
        <ele>644</ele>
        <time>2019-10-27T15:04:19.000Z</time>
      </trkpt>
      <trkpt lat="45.5573" lon="5.73745">
        <ele>644</ele>
        <time>2019-10-27T15:04:20.000Z</time>
      </trkpt>
      <trkpt lat="45.55729" lon="5.73746">
        <ele>644</ele>
        <time>2019-10-27T15:04:21.000Z</time>
      </trkpt>
      <trkpt lat="45.55729" lon="5.73746">
        <ele>644</ele>
        <time>2019-10-27T15:04:22.000Z</time>
      </trkpt>
      <trkpt lat="45.55729" lon="5.73747">
        <ele>644</ele>
        <time>2019-10-27T15:04:23.000Z</time>
      </trkpt>
      <trkpt lat="45.55729" lon="5.73747">
        <ele>644</ele>
        <time>2019-10-27T15:04:24.000Z</time>
      </trkpt>
      <trkpt lat="45.55729" lon="5.73748">
        <ele>644</ele>
        <time>2019-10-27T15:04:25.000Z</time>
      </trkpt>
      <trkpt lat="45.55729" lon="5.73749">
        <ele>644</ele>
        <time>2019-10-27T15:04:26.000Z</time>
      </trkpt>
      <trkpt lat="45.55729" lon="5.73751">
        <ele>644</ele>
        <time>2019-10-27T15:04:27.000Z</time>
      </trkpt>
      <trkpt lat="45.55729" lon="5.73752">
        <ele>644</ele>
        <time>2019-10-27T15:04:28.000Z</time>
      </trkpt>
      <trkpt lat="45.55729" lon="5.73754">
        <ele>643.5</ele>
        <time>2019-10-27T15:04:29.000Z</time>
      </trkpt>
      <trkpt lat="45.55728" lon="5.73757">
        <ele>643</ele>
        <time>2019-10-27T15:04:30.000Z</time>
      </trkpt>
      <trkpt lat="45.55728" lon="5.73759">
        <ele>643</ele>
        <time>2019-10-27T15:04:31.000Z</time>
      </trkpt>
      <trkpt lat="45.55727" lon="5.73761">
        <ele>643</ele>
        <time>2019-10-27T15:04:32.000Z</time>
      </trkpt>
      <trkpt lat="45.55726" lon="5.73763">
        <ele>643</ele>
        <time>2019-10-27T15:04:33.000Z</time>
      </trkpt>
      <trkpt lat="45.55725" lon="5.73765">
        <ele>643</ele>
        <time>2019-10-27T15:04:34.000Z</time>
      </trkpt>
      <trkpt lat="45.55724" lon="5.73766">
        <ele>642.5</ele>
        <time>2019-10-27T15:04:35.000Z</time>
      </trkpt>
      <trkpt lat="45.55723" lon="5.73767">
        <ele>642</ele>
        <time>2019-10-27T15:04:36.000Z</time>
      </trkpt>
      <trkpt lat="45.55722" lon="5.73768">
        <ele>642</ele>
        <time>2019-10-27T15:04:37.000Z</time>
      </trkpt>
      <trkpt lat="45.55722" lon="5.73769">
        <ele>641.7</ele>
        <time>2019-10-27T15:04:38.000Z</time>
      </trkpt>
      <trkpt lat="45.55722" lon="5.7377">
        <ele>641.3</ele>
        <time>2019-10-27T15:04:39.000Z</time>
      </trkpt>
      <trkpt lat="45.55721" lon="5.7377">
        <ele>641</ele>
        <time>2019-10-27T15:04:40.000Z</time>
      </trkpt>
      <trkpt lat="45.55721" lon="5.73771">
        <ele>641</ele>
        <time>2019-10-27T15:04:41.000Z</time>
      </trkpt>
      <trkpt lat="45.55721" lon="5.73771">
        <ele>641</ele>
        <time>2019-10-27T15:04:42.000Z</time>
      </trkpt>
      <trkpt lat="45.55721" lon="5.73772">
        <ele>641</ele>
        <time>2019-10-27T15:04:43.000Z</time>
      </trkpt>
      <trkpt lat="45.55721" lon="5.73772">
        <ele>640.7</ele>
        <time>2019-10-27T15:04:44.000Z</time>
      </trkpt>
      <trkpt lat="45.55722" lon="5.73773">
        <ele>640.3</ele>
        <time>2019-10-27T15:04:45.000Z</time>
      </trkpt>
      <trkpt lat="45.55722" lon="5.73773">
        <ele>640</ele>
        <time>2019-10-27T15:04:46.000Z</time>
      </trkpt>
      <trkpt lat="45.55722" lon="5.73774">
        <ele>640</ele>
        <time>2019-10-27T15:04:47.000Z</time>
      </trkpt>
      <trkpt lat="45.55722" lon="5.73775">
        <ele>640</ele>
        <time>2019-10-27T15:04:48.000Z</time>
      </trkpt>
      <trkpt lat="45.55723" lon="5.73775">
        <ele>640</ele>
        <time>2019-10-27T15:04:49.000Z</time>
      </trkpt>
      <trkpt lat="45.55723" lon="5.73776">
        <ele>640</ele>
        <time>2019-10-27T15:04:50.000Z</time>
      </trkpt>
      <trkpt lat="45.55723" lon="5.73777">
        <ele>639.5</ele>
        <time>2019-10-27T15:04:51.000Z</time>
      </trkpt>
      <trkpt lat="45.55723" lon="5.73778">
        <ele>639</ele>
        <time>2019-10-27T15:04:52.000Z</time>
      </trkpt>
      <trkpt lat="45.55722" lon="5.73779">
        <ele>639</ele>
        <time>2019-10-27T15:04:53.000Z</time>
      </trkpt>
      <trkpt lat="45.55722" lon="5.73781">
        <ele>639</ele>
        <time>2019-10-27T15:04:54.000Z</time>
      </trkpt>
      <trkpt lat="45.55721" lon="5.73782">
        <ele>639</ele>
        <time>2019-10-27T15:04:55.000Z</time>
      </trkpt>
      <trkpt lat="45.55721" lon="5.73783">
        <ele>638.7</ele>
        <time>2019-10-27T15:04:56.000Z</time>
      </trkpt>
      <trkpt lat="45.5572" lon="5.73785">
        <ele>638.3</ele>
        <time>2019-10-27T15:04:57.000Z</time>
      </trkpt>
      <trkpt lat="45.55719" lon="5.73786">
        <ele>638</ele>
        <time>2019-10-27T15:04:58.000Z</time>
      </trkpt>
      <trkpt lat="45.55718" lon="5.73787">
        <ele>638</ele>
        <time>2019-10-27T15:04:59.000Z</time>
      </trkpt>
      <trkpt lat="45.55717" lon="5.73789">
        <ele>637.7</ele>
        <time>2019-10-27T15:05:00.000Z</time>
      </trkpt>
      <trkpt lat="45.55716" lon="5.73791">
        <ele>637.3</ele>
        <time>2019-10-27T15:05:01.000Z</time>
      </trkpt>
      <trkpt lat="45.55715" lon="5.73792">
        <ele>637</ele>
        <time>2019-10-27T15:05:02.000Z</time>
      </trkpt>
      <trkpt lat="45.55714" lon="5.73794">
        <ele>637</ele>
        <time>2019-10-27T15:05:03.000Z</time>
      </trkpt>
      <trkpt lat="45.55713" lon="5.73795">
        <ele>637</ele>
        <time>2019-10-27T15:05:04.000Z</time>
      </trkpt>
      <trkpt lat="45.55712" lon="5.73797">
        <ele>637</ele>
        <time>2019-10-27T15:05:05.000Z</time>
      </trkpt>
      <trkpt lat="45.5571" lon="5.73798">
        <ele>637</ele>
        <time>2019-10-27T15:05:06.000Z</time>
      </trkpt>
      <trkpt lat="45.55709" lon="5.738">
        <ele>637</ele>
        <time>2019-10-27T15:05:07.000Z</time>
      </trkpt>
      <trkpt lat="45.55708" lon="5.73801">
        <ele>637</ele>
        <time>2019-10-27T15:05:08.000Z</time>
      </trkpt>
      <trkpt lat="45.55707" lon="5.73803">
        <ele>637</ele>
        <time>2019-10-27T15:05:09.000Z</time>
      </trkpt>
      <trkpt lat="45.55706" lon="5.73804">
        <ele>636.7</ele>
        <time>2019-10-27T15:05:10.000Z</time>
      </trkpt>
      <trkpt lat="45.55704" lon="5.73806">
        <ele>636.3</ele>
        <time>2019-10-27T15:05:11.000Z</time>
      </trkpt>
      <trkpt lat="45.55703" lon="5.73807">
        <ele>636</ele>
        <time>2019-10-27T15:05:12.000Z</time>
      </trkpt>
      <trkpt lat="45.55702" lon="5.73808">
        <ele>636</ele>
        <time>2019-10-27T15:05:13.000Z</time>
      </trkpt>
      <trkpt lat="45.55701" lon="5.7381">
        <ele>636</ele>
        <time>2019-10-27T15:05:14.000Z</time>
      </trkpt>
      <trkpt lat="45.557" lon="5.73811">
        <ele>636</ele>
        <time>2019-10-27T15:05:15.000Z</time>
      </trkpt>
      <trkpt lat="45.55699" lon="5.73812">
        <ele>636</ele>
        <time>2019-10-27T15:05:16.000Z</time>
      </trkpt>
      <trkpt lat="45.55699" lon="5.73812">
        <ele>636</ele>
        <time>2019-10-27T15:05:17.000Z</time>
      </trkpt>
      <trkpt lat="45.55698" lon="5.73813">
        <ele>636</ele>
        <time>2019-10-27T15:05:18.000Z</time>
      </trkpt>
      <trkpt lat="45.55697" lon="5.73814">
        <ele>635.5</ele>
        <time>2019-10-27T15:05:19.000Z</time>
      </trkpt>
      <trkpt lat="45.55696" lon="5.73814">
        <ele>635</ele>
        <time>2019-10-27T15:05:20.000Z</time>
      </trkpt>
      <trkpt lat="45.55696" lon="5.73815">
        <ele>635</ele>
        <time>2019-10-27T15:05:21.000Z</time>
      </trkpt>
      <trkpt lat="45.55695" lon="5.73815">
        <ele>635</ele>
        <time>2019-10-27T15:05:22.000Z</time>
      </trkpt>
      <trkpt lat="45.55695" lon="5.73816">
        <ele>635</ele>
        <time>2019-10-27T15:05:23.000Z</time>
      </trkpt>
      <trkpt lat="45.55694" lon="5.73816">
        <ele>634.7</ele>
        <time>2019-10-27T15:05:24.000Z</time>
      </trkpt>
      <trkpt lat="45.55694" lon="5.73816">
        <ele>634.3</ele>
        <time>2019-10-27T15:05:25.000Z</time>
      </trkpt>
      <trkpt lat="45.55693" lon="5.73817">
        <ele>634</ele>
        <time>2019-10-27T15:05:26.000Z</time>
      </trkpt>
      <trkpt lat="45.55692" lon="5.73817">
        <ele>634</ele>
        <time>2019-10-27T15:05:27.000Z</time>
      </trkpt>
      <trkpt lat="45.55692" lon="5.73817">
        <ele>634</ele>
        <time>2019-10-27T15:05:28.000Z</time>
      </trkpt>
      <trkpt lat="45.55691" lon="5.73818">
        <ele>634</ele>
        <time>2019-10-27T15:05:29.000Z</time>
      </trkpt>
      <trkpt lat="45.5569" lon="5.73819">
        <ele>633.7</ele>
        <time>2019-10-27T15:05:30.000Z</time>
      </trkpt>
      <trkpt lat="45.55689" lon="5.7382">
        <ele>633.3</ele>
        <time>2019-10-27T15:05:31.000Z</time>
      </trkpt>
      <trkpt lat="45.55687" lon="5.7382">
        <ele>633</ele>
        <time>2019-10-27T15:05:32.000Z</time>
      </trkpt>
      <trkpt lat="45.55686" lon="5.73821">
        <ele>633</ele>
        <time>2019-10-27T15:05:33.000Z</time>
      </trkpt>
      <trkpt lat="45.55685" lon="5.73822">
        <ele>633</ele>
        <time>2019-10-27T15:05:34.000Z</time>
      </trkpt>
      <trkpt lat="45.55684" lon="5.73823">
        <ele>633</ele>
        <time>2019-10-27T15:05:35.000Z</time>
      </trkpt>
      <trkpt lat="45.55683" lon="5.73823">
        <ele>632.7</ele>
        <time>2019-10-27T15:05:36.000Z</time>
      </trkpt>
      <trkpt lat="45.55682" lon="5.73823">
        <ele>632.3</ele>
        <time>2019-10-27T15:05:37.000Z</time>
      </trkpt>
      <trkpt lat="45.55682" lon="5.73823">
        <ele>632</ele>
        <time>2019-10-27T15:05:38.000Z</time>
      </trkpt>
      <trkpt lat="45.55681" lon="5.73822">
        <ele>632</ele>
        <time>2019-10-27T15:05:39.000Z</time>
      </trkpt>
      <trkpt lat="45.5568" lon="5.73822">
        <ele>632</ele>
        <time>2019-10-27T15:05:40.000Z</time>
      </trkpt>
      <trkpt lat="45.55679" lon="5.73821">
        <ele>632</ele>
        <time>2019-10-27T15:05:41.000Z</time>
      </trkpt>
      <trkpt lat="45.55678" lon="5.7382">
        <ele>632</ele>
        <time>2019-10-27T15:05:42.000Z</time>
      </trkpt>
      <trkpt lat="45.55676" lon="5.7382">
        <ele>632</ele>
        <time>2019-10-27T15:05:43.000Z</time>
      </trkpt>
      <trkpt lat="45.55675" lon="5.73819">
        <ele>632</ele>
        <time>2019-10-27T15:05:44.000Z</time>
      </trkpt>
      <trkpt lat="45.55674" lon="5.73818">
        <ele>632</ele>
        <time>2019-10-27T15:05:45.000Z</time>
      </trkpt>
      <trkpt lat="45.55673" lon="5.73817">
        <ele>632</ele>
        <time>2019-10-27T15:05:46.000Z</time>
      </trkpt>
      <trkpt lat="45.55672" lon="5.73816">
        <ele>631.5</ele>
        <time>2019-10-27T15:05:47.000Z</time>
      </trkpt>
      <trkpt lat="45.55671" lon="5.73815">
        <ele>631</ele>
        <time>2019-10-27T15:05:48.000Z</time>
      </trkpt>
      <trkpt lat="45.5567" lon="5.73815">
        <ele>631</ele>
        <time>2019-10-27T15:05:49.000Z</time>
      </trkpt>
      <trkpt lat="45.55669" lon="5.73814">
        <ele>631</ele>
        <time>2019-10-27T15:05:50.000Z</time>
      </trkpt>
      <trkpt lat="45.55669" lon="5.73813">
        <ele>631</ele>
        <time>2019-10-27T15:05:51.000Z</time>
      </trkpt>
      <trkpt lat="45.55668" lon="5.73812">
        <ele>631</ele>
        <time>2019-10-27T15:05:52.000Z</time>
      </trkpt>
      <trkpt lat="45.55667" lon="5.73811">
        <ele>631</ele>
        <time>2019-10-27T15:05:53.000Z</time>
      </trkpt>
      <trkpt lat="45.55667" lon="5.73811">
        <ele>631</ele>
        <time>2019-10-27T15:05:54.000Z</time>
      </trkpt>
      <trkpt lat="45.55666" lon="5.7381">
        <ele>631</ele>
        <time>2019-10-27T15:05:55.000Z</time>
      </trkpt>
      <trkpt lat="45.55665" lon="5.73809">
        <ele>631</ele>
        <time>2019-10-27T15:05:56.000Z</time>
      </trkpt>
      <trkpt lat="45.55664" lon="5.73808">
        <ele>631</ele>
        <time>2019-10-27T15:05:57.000Z</time>
      </trkpt>
      <trkpt lat="45.55664" lon="5.73807">
        <ele>631</ele>
        <time>2019-10-27T15:05:58.000Z</time>
      </trkpt>
      <trkpt lat="45.55663" lon="5.73807">
        <ele>631</ele>
        <time>2019-10-27T15:05:59.000Z</time>
      </trkpt>
      <trkpt lat="45.55662" lon="5.73806">
        <ele>631</ele>
        <time>2019-10-27T15:06:00.000Z</time>
      </trkpt>
      <trkpt lat="45.55661" lon="5.73805">
        <ele>630</ele>
        <time>2019-10-27T15:06:01.000Z</time>
      </trkpt>
      <trkpt lat="45.5566" lon="5.73805">
        <ele>630</ele>
        <time>2019-10-27T15:06:02.000Z</time>
      </trkpt>
      <trkpt lat="45.55659" lon="5.73804">
        <ele>630</ele>
        <time>2019-10-27T15:06:03.000Z</time>
      </trkpt>
      <trkpt lat="45.55658" lon="5.73804">
        <ele>630</ele>
        <time>2019-10-27T15:06:04.000Z</time>
      </trkpt>
      <trkpt lat="45.55657" lon="5.73803">
        <ele>630</ele>
        <time>2019-10-27T15:06:05.000Z</time>
      </trkpt>
      <trkpt lat="45.55657" lon="5.73803">
        <ele>630</ele>
        <time>2019-10-27T15:06:06.000Z</time>
      </trkpt>
      <trkpt lat="45.55656" lon="5.73802">
        <ele>629</ele>
        <time>2019-10-27T15:06:07.000Z</time>
      </trkpt>
      <trkpt lat="45.55655" lon="5.73802">
        <ele>629</ele>
        <time>2019-10-27T15:06:08.000Z</time>
      </trkpt>
      <trkpt lat="45.55654" lon="5.73802">
        <ele>629</ele>
        <time>2019-10-27T15:06:09.000Z</time>
      </trkpt>
      <trkpt lat="45.55652" lon="5.73802">
        <ele>629</ele>
        <time>2019-10-27T15:06:10.000Z</time>
      </trkpt>
      <trkpt lat="45.5565" lon="5.73803">
        <ele>629</ele>
        <time>2019-10-27T15:06:11.000Z</time>
      </trkpt>
      <trkpt lat="45.55648" lon="5.73803">
        <ele>629</ele>
        <time>2019-10-27T15:06:12.000Z</time>
      </trkpt>
      <trkpt lat="45.55646" lon="5.73804">
        <ele>629</ele>
        <time>2019-10-27T15:06:13.000Z</time>
      </trkpt>
      <trkpt lat="45.55644" lon="5.73804">
        <ele>629</ele>
        <time>2019-10-27T15:06:14.000Z</time>
      </trkpt>
      <trkpt lat="45.55643" lon="5.73805">
        <ele>629</ele>
        <time>2019-10-27T15:06:15.000Z</time>
      </trkpt>
      <trkpt lat="45.55641" lon="5.73805">
        <ele>628.7</ele>
        <time>2019-10-27T15:06:16.000Z</time>
      </trkpt>
      <trkpt lat="45.5564" lon="5.73805">
        <ele>628.3</ele>
        <time>2019-10-27T15:06:17.000Z</time>
      </trkpt>
      <trkpt lat="45.55639" lon="5.73805">
        <ele>628</ele>
        <time>2019-10-27T15:06:18.000Z</time>
      </trkpt>
      <trkpt lat="45.55638" lon="5.73806">
        <ele>628</ele>
        <time>2019-10-27T15:06:19.000Z</time>
      </trkpt>
      <trkpt lat="45.55637" lon="5.73806">
        <ele>628</ele>
        <time>2019-10-27T15:06:20.000Z</time>
      </trkpt>
      <trkpt lat="45.55636" lon="5.73806">
        <ele>628</ele>
        <time>2019-10-27T15:06:21.000Z</time>
      </trkpt>
      <trkpt lat="45.55635" lon="5.73806">
        <ele>628</ele>
        <time>2019-10-27T15:06:22.000Z</time>
      </trkpt>
      <trkpt lat="45.55634" lon="5.73806">
        <ele>628</ele>
        <time>2019-10-27T15:06:23.000Z</time>
      </trkpt>
      <trkpt lat="45.55633" lon="5.73806">
        <ele>628</ele>
        <time>2019-10-27T15:06:24.000Z</time>
      </trkpt>
      <trkpt lat="45.55632" lon="5.73806">
        <ele>628</ele>
        <time>2019-10-27T15:06:25.000Z</time>
      </trkpt>
      <trkpt lat="45.55632" lon="5.73806">
        <ele>628</ele>
        <time>2019-10-27T15:06:26.000Z</time>
      </trkpt>
      <trkpt lat="45.55631" lon="5.73806">
        <ele>628</ele>
        <time>2019-10-27T15:06:27.000Z</time>
      </trkpt>
      <trkpt lat="45.5563" lon="5.73806">
        <ele>627.5</ele>
        <time>2019-10-27T15:06:28.000Z</time>
      </trkpt>
      <trkpt lat="45.5563" lon="5.73806">
        <ele>627</ele>
        <time>2019-10-27T15:06:29.000Z</time>
      </trkpt>
      <trkpt lat="45.55629" lon="5.73806">
        <ele>627</ele>
        <time>2019-10-27T15:06:30.000Z</time>
      </trkpt>
      <trkpt lat="45.55629" lon="5.73806">
        <ele>627</ele>
        <time>2019-10-27T15:06:31.000Z</time>
      </trkpt>
      <trkpt lat="45.55628" lon="5.73806">
        <ele>627</ele>
        <time>2019-10-27T15:06:32.000Z</time>
      </trkpt>
      <trkpt lat="45.55628" lon="5.73806">
        <ele>627</ele>
        <time>2019-10-27T15:06:33.000Z</time>
      </trkpt>
      <trkpt lat="45.55627" lon="5.73807">
        <ele>627</ele>
        <time>2019-10-27T15:06:34.000Z</time>
      </trkpt>
      <trkpt lat="45.55627" lon="5.73807">
        <ele>627</ele>
        <time>2019-10-27T15:06:35.000Z</time>
      </trkpt>
      <trkpt lat="45.55626" lon="5.73807">
        <ele>626.5</ele>
        <time>2019-10-27T15:06:36.000Z</time>
      </trkpt>
      <trkpt lat="45.55626" lon="5.73807">
        <ele>626</ele>
        <time>2019-10-27T15:06:37.000Z</time>
      </trkpt>
      <trkpt lat="45.55625" lon="5.73808">
        <ele>626</ele>
        <time>2019-10-27T15:06:38.000Z</time>
      </trkpt>
      <trkpt lat="45.55625" lon="5.73808">
        <ele>626</ele>
        <time>2019-10-27T15:06:39.000Z</time>
      </trkpt>
      <trkpt lat="45.55624" lon="5.73809">
        <ele>626</ele>
        <time>2019-10-27T15:06:40.000Z</time>
      </trkpt>
      <trkpt lat="45.55623" lon="5.73809">
        <ele>626</ele>
        <time>2019-10-27T15:06:41.000Z</time>
      </trkpt>
      <trkpt lat="45.55623" lon="5.7381">
        <ele>625.7</ele>
        <time>2019-10-27T15:06:42.000Z</time>
      </trkpt>
      <trkpt lat="45.55622" lon="5.73811">
        <ele>625.3</ele>
        <time>2019-10-27T15:06:43.000Z</time>
      </trkpt>
      <trkpt lat="45.55621" lon="5.73812">
        <ele>625</ele>
        <time>2019-10-27T15:06:44.000Z</time>
      </trkpt>
      <trkpt lat="45.55621" lon="5.73813">
        <ele>625</ele>
        <time>2019-10-27T15:06:45.000Z</time>
      </trkpt>
      <trkpt lat="45.5562" lon="5.73814">
        <ele>625</ele>
        <time>2019-10-27T15:06:46.000Z</time>
      </trkpt>
      <trkpt lat="45.55619" lon="5.73815">
        <ele>625</ele>
        <time>2019-10-27T15:06:47.000Z</time>
      </trkpt>
      <trkpt lat="45.55618" lon="5.73816">
        <ele>625</ele>
        <time>2019-10-27T15:06:48.000Z</time>
      </trkpt>
      <trkpt lat="45.55617" lon="5.73817">
        <ele>625</ele>
        <time>2019-10-27T15:06:49.000Z</time>
      </trkpt>
      <trkpt lat="45.55616" lon="5.73819">
        <ele>625</ele>
        <time>2019-10-27T15:06:50.000Z</time>
      </trkpt>
      <trkpt lat="45.55615" lon="5.7382">
        <ele>624</ele>
        <time>2019-10-27T15:06:51.000Z</time>
      </trkpt>
      <trkpt lat="45.55614" lon="5.73822">
        <ele>624</ele>
        <time>2019-10-27T15:06:52.000Z</time>
      </trkpt>
      <trkpt lat="45.55613" lon="5.73824">
        <ele>624</ele>
        <time>2019-10-27T15:06:53.000Z</time>
      </trkpt>
      <trkpt lat="45.55612" lon="5.73826">
        <ele>624</ele>
        <time>2019-10-27T15:06:54.000Z</time>
      </trkpt>
      <trkpt lat="45.55611" lon="5.73827">
        <ele>624</ele>
        <time>2019-10-27T15:06:55.000Z</time>
      </trkpt>
      <trkpt lat="45.55609" lon="5.73829">
        <ele>624</ele>
        <time>2019-10-27T15:06:56.000Z</time>
      </trkpt>
      <trkpt lat="45.55608" lon="5.73831">
        <ele>623</ele>
        <time>2019-10-27T15:06:57.000Z</time>
      </trkpt>
      <trkpt lat="45.55608" lon="5.73832">
        <ele>623</ele>
        <time>2019-10-27T15:06:58.000Z</time>
      </trkpt>
      <trkpt lat="45.55607" lon="5.73833">
        <ele>623</ele>
        <time>2019-10-27T15:06:59.000Z</time>
      </trkpt>
      <trkpt lat="45.55606" lon="5.73834">
        <ele>623</ele>
        <time>2019-10-27T15:07:00.000Z</time>
      </trkpt>
      <trkpt lat="45.55606" lon="5.73835">
        <ele>623</ele>
        <time>2019-10-27T15:07:01.000Z</time>
      </trkpt>
      <trkpt lat="45.55606" lon="5.73836">
        <ele>623</ele>
        <time>2019-10-27T15:07:02.000Z</time>
      </trkpt>
      <trkpt lat="45.55606" lon="5.73836">
        <ele>622</ele>
        <time>2019-10-27T15:07:03.000Z</time>
      </trkpt>
      <trkpt lat="45.55606" lon="5.73836">
        <ele>622</ele>
        <time>2019-10-27T15:07:04.000Z</time>
      </trkpt>
      <trkpt lat="45.55605" lon="5.73837">
        <ele>622</ele>
        <time>2019-10-27T15:07:05.000Z</time>
      </trkpt>
      <trkpt lat="45.55605" lon="5.73837">
        <ele>622</ele>
        <time>2019-10-27T15:07:06.000Z</time>
      </trkpt>
      <trkpt lat="45.55604" lon="5.73838">
        <ele>622</ele>
        <time>2019-10-27T15:07:07.000Z</time>
      </trkpt>
      <trkpt lat="45.55603" lon="5.73839">
        <ele>622</ele>
        <time>2019-10-27T15:07:08.000Z</time>
      </trkpt>
      <trkpt lat="45.55601" lon="5.7384">
        <ele>622</ele>
        <time>2019-10-27T15:07:09.000Z</time>
      </trkpt>
      <trkpt lat="45.55599" lon="5.73841">
        <ele>622</ele>
        <time>2019-10-27T15:07:10.000Z</time>
      </trkpt>
      <trkpt lat="45.55596" lon="5.73843">
        <ele>621</ele>
        <time>2019-10-27T15:07:11.000Z</time>
      </trkpt>
      <trkpt lat="45.55594" lon="5.73845">
        <ele>621</ele>
        <time>2019-10-27T15:07:12.000Z</time>
      </trkpt>
      <trkpt lat="45.55591" lon="5.73847">
        <ele>621</ele>
        <time>2019-10-27T15:07:13.000Z</time>
      </trkpt>
      <trkpt lat="45.55589" lon="5.73848">
        <ele>621</ele>
        <time>2019-10-27T15:07:14.000Z</time>
      </trkpt>
      <trkpt lat="45.55588" lon="5.73849">
        <ele>621</ele>
        <time>2019-10-27T15:07:15.000Z</time>
      </trkpt>
      <trkpt lat="45.55587" lon="5.7385">
        <ele>621</ele>
        <time>2019-10-27T15:07:16.000Z</time>
      </trkpt>
      <trkpt lat="45.55587" lon="5.7385">
        <ele>621</ele>
        <time>2019-10-27T15:07:17.000Z</time>
      </trkpt>
      <trkpt lat="45.55586" lon="5.73851">
        <ele>621</ele>
        <time>2019-10-27T15:07:18.000Z</time>
      </trkpt>
      <trkpt lat="45.55586" lon="5.73851">
        <ele>621</ele>
        <time>2019-10-27T15:07:19.000Z</time>
      </trkpt>
      <trkpt lat="45.55585" lon="5.73851">
        <ele>620.7</ele>
        <time>2019-10-27T15:07:20.000Z</time>
      </trkpt>
      <trkpt lat="45.55584" lon="5.73851">
        <ele>620.3</ele>
        <time>2019-10-27T15:07:21.000Z</time>
      </trkpt>
      <trkpt lat="45.55582" lon="5.73851">
        <ele>620</ele>
        <time>2019-10-27T15:07:22.000Z</time>
      </trkpt>
      <trkpt lat="45.55581" lon="5.73851">
        <ele>620</ele>
        <time>2019-10-27T15:07:23.000Z</time>
      </trkpt>
      <trkpt lat="45.5558" lon="5.73851">
        <ele>620</ele>
        <time>2019-10-27T15:07:24.000Z</time>
      </trkpt>
      <trkpt lat="45.55578" lon="5.7385">
        <ele>620</ele>
        <time>2019-10-27T15:07:25.000Z</time>
      </trkpt>
      <trkpt lat="45.55577" lon="5.73849">
        <ele>619.7</ele>
        <time>2019-10-27T15:07:26.000Z</time>
      </trkpt>
      <trkpt lat="45.55577" lon="5.73848">
        <ele>619.3</ele>
        <time>2019-10-27T15:07:27.000Z</time>
      </trkpt>
      <trkpt lat="45.55576" lon="5.73846">
        <ele>619</ele>
        <time>2019-10-27T15:07:28.000Z</time>
      </trkpt>
      <trkpt lat="45.55576" lon="5.73844">
        <ele>619</ele>
        <time>2019-10-27T15:07:29.000Z</time>
      </trkpt>
      <trkpt lat="45.55575" lon="5.73842">
        <ele>619</ele>
        <time>2019-10-27T15:07:30.000Z</time>
      </trkpt>
      <trkpt lat="45.55575" lon="5.7384">
        <ele>619</ele>
        <time>2019-10-27T15:07:31.000Z</time>
      </trkpt>
      <trkpt lat="45.55575" lon="5.73838">
        <ele>619</ele>
        <time>2019-10-27T15:07:32.000Z</time>
      </trkpt>
      <trkpt lat="45.55575" lon="5.73836">
        <ele>618</ele>
        <time>2019-10-27T15:07:33.000Z</time>
      </trkpt>
      <trkpt lat="45.55575" lon="5.73835">
        <ele>618</ele>
        <time>2019-10-27T15:07:34.000Z</time>
      </trkpt>
      <trkpt lat="45.55575" lon="5.73834">
        <ele>618</ele>
        <time>2019-10-27T15:07:35.000Z</time>
      </trkpt>
      <trkpt lat="45.55576" lon="5.73833">
        <ele>618</ele>
        <time>2019-10-27T15:07:36.000Z</time>
      </trkpt>
      <trkpt lat="45.55576" lon="5.73833">
        <ele>618</ele>
        <time>2019-10-27T15:07:37.000Z</time>
      </trkpt>
      <trkpt lat="45.55576" lon="5.73833">
        <ele>618</ele>
        <time>2019-10-27T15:07:38.000Z</time>
      </trkpt>
      <trkpt lat="45.55576" lon="5.73832">
        <ele>618</ele>
        <time>2019-10-27T15:07:39.000Z</time>
      </trkpt>
      <trkpt lat="45.55576" lon="5.73832">
        <ele>618</ele>
        <time>2019-10-27T15:07:40.000Z</time>
      </trkpt>
      <trkpt lat="45.55576" lon="5.7383">
        <ele>618</ele>
        <time>2019-10-27T15:07:41.000Z</time>
      </trkpt>
      <trkpt lat="45.55577" lon="5.73828">
        <ele>618</ele>
        <time>2019-10-27T15:07:42.000Z</time>
      </trkpt>
      <trkpt lat="45.55577" lon="5.73825">
        <ele>618</ele>
        <time>2019-10-27T15:07:43.000Z</time>
      </trkpt>
      <trkpt lat="45.55577" lon="5.73821">
        <ele>618</ele>
        <time>2019-10-27T15:07:44.000Z</time>
      </trkpt>
      <trkpt lat="45.55577" lon="5.73815">
        <ele>618</ele>
        <time>2019-10-27T15:07:45.000Z</time>
      </trkpt>
      <trkpt lat="45.55578" lon="5.73811">
        <ele>617.7</ele>
        <time>2019-10-27T15:07:46.000Z</time>
      </trkpt>
      <trkpt lat="45.55578" lon="5.73806">
        <ele>617.3</ele>
        <time>2019-10-27T15:07:47.000Z</time>
      </trkpt>
      <trkpt lat="45.55578" lon="5.73803">
        <ele>617</ele>
        <time>2019-10-27T15:07:48.000Z</time>
      </trkpt>
      <trkpt lat="45.55577" lon="5.73802">
        <ele>617</ele>
        <time>2019-10-27T15:07:49.000Z</time>
      </trkpt>
      <trkpt lat="45.55577" lon="5.73802">
        <ele>617</ele>
        <time>2019-10-27T15:07:50.000Z</time>
      </trkpt>
      <trkpt lat="45.55576" lon="5.73804">
        <ele>617</ele>
        <time>2019-10-27T15:07:51.000Z</time>
      </trkpt>
      <trkpt lat="45.55576" lon="5.73805">
        <ele>617</ele>
        <time>2019-10-27T15:07:52.000Z</time>
      </trkpt>
      <trkpt lat="45.55574" lon="5.73806">
        <ele>617</ele>
        <time>2019-10-27T15:07:53.000Z</time>
      </trkpt>
      <trkpt lat="45.55573" lon="5.73806">
        <ele>617</ele>
        <time>2019-10-27T15:07:54.000Z</time>
      </trkpt>
      <trkpt lat="45.55571" lon="5.73807">
        <ele>617</ele>
        <time>2019-10-27T15:07:55.000Z</time>
      </trkpt>
      <trkpt lat="45.5557" lon="5.73807">
        <ele>617</ele>
        <time>2019-10-27T15:07:56.000Z</time>
      </trkpt>
      <trkpt lat="45.55568" lon="5.73807">
        <ele>617</ele>
        <time>2019-10-27T15:07:57.000Z</time>
      </trkpt>
      <trkpt lat="45.55566" lon="5.73807">
        <ele>617</ele>
        <time>2019-10-27T15:07:58.000Z</time>
      </trkpt>
      <trkpt lat="45.55564" lon="5.73806">
        <ele>617</ele>
        <time>2019-10-27T15:07:59.000Z</time>
      </trkpt>
      <trkpt lat="45.55562" lon="5.73806">
        <ele>617</ele>
        <time>2019-10-27T15:08:00.000Z</time>
      </trkpt>
      <trkpt lat="45.5556" lon="5.73807">
        <ele>617</ele>
        <time>2019-10-27T15:08:01.000Z</time>
      </trkpt>
      <trkpt lat="45.55559" lon="5.73807">
        <ele>617</ele>
        <time>2019-10-27T15:08:02.000Z</time>
      </trkpt>
      <trkpt lat="45.55557" lon="5.73807">
        <ele>617</ele>
        <time>2019-10-27T15:08:03.000Z</time>
      </trkpt>
      <trkpt lat="45.55556" lon="5.73808">
        <ele>617</ele>
        <time>2019-10-27T15:08:04.000Z</time>
      </trkpt>
      <trkpt lat="45.55554" lon="5.73809">
        <ele>617</ele>
        <time>2019-10-27T15:08:05.000Z</time>
      </trkpt>
      <trkpt lat="45.55553" lon="5.73809">
        <ele>617</ele>
        <time>2019-10-27T15:08:06.000Z</time>
      </trkpt>
      <trkpt lat="45.55552" lon="5.7381">
        <ele>616</ele>
        <time>2019-10-27T15:08:07.000Z</time>
      </trkpt>
      <trkpt lat="45.55551" lon="5.73811">
        <ele>616</ele>
        <time>2019-10-27T15:08:08.000Z</time>
      </trkpt>
      <trkpt lat="45.5555" lon="5.73813">
        <ele>616</ele>
        <time>2019-10-27T15:08:09.000Z</time>
      </trkpt>
      <trkpt lat="45.55549" lon="5.73814">
        <ele>616</ele>
        <time>2019-10-27T15:08:10.000Z</time>
      </trkpt>
      <trkpt lat="45.55548" lon="5.73815">
        <ele>616</ele>
        <time>2019-10-27T15:08:11.000Z</time>
      </trkpt>
      <trkpt lat="45.55548" lon="5.73816">
        <ele>616</ele>
        <time>2019-10-27T15:08:12.000Z</time>
      </trkpt>
      <trkpt lat="45.55547" lon="5.73818">
        <ele>616</ele>
        <time>2019-10-27T15:08:13.000Z</time>
      </trkpt>
      <trkpt lat="45.55546" lon="5.73819">
        <ele>615.7</ele>
        <time>2019-10-27T15:08:14.000Z</time>
      </trkpt>
      <trkpt lat="45.55546" lon="5.7382">
        <ele>615.3</ele>
        <time>2019-10-27T15:08:15.000Z</time>
      </trkpt>
      <trkpt lat="45.55545" lon="5.73822">
        <ele>615</ele>
        <time>2019-10-27T15:08:16.000Z</time>
      </trkpt>
      <trkpt lat="45.55545" lon="5.73823">
        <ele>615</ele>
        <time>2019-10-27T15:08:17.000Z</time>
      </trkpt>
      <trkpt lat="45.55545" lon="5.73824">
        <ele>615</ele>
        <time>2019-10-27T15:08:18.000Z</time>
      </trkpt>
      <trkpt lat="45.55545" lon="5.73826">
        <ele>615</ele>
        <time>2019-10-27T15:08:19.000Z</time>
      </trkpt>
      <trkpt lat="45.55545" lon="5.73827">
        <ele>614.7</ele>
        <time>2019-10-27T15:08:20.000Z</time>
      </trkpt>
      <trkpt lat="45.55545" lon="5.73828">
        <ele>614.3</ele>
        <time>2019-10-27T15:08:21.000Z</time>
      </trkpt>
      <trkpt lat="45.55545" lon="5.7383">
        <ele>614</ele>
        <time>2019-10-27T15:08:22.000Z</time>
      </trkpt>
      <trkpt lat="45.55545" lon="5.73831">
        <ele>614</ele>
        <time>2019-10-27T15:08:23.000Z</time>
      </trkpt>
      <trkpt lat="45.55545" lon="5.73832">
        <ele>614</ele>
        <time>2019-10-27T15:08:24.000Z</time>
      </trkpt>
      <trkpt lat="45.55545" lon="5.73833">
        <ele>614</ele>
        <time>2019-10-27T15:08:25.000Z</time>
      </trkpt>
      <trkpt lat="45.55545" lon="5.73835">
        <ele>614</ele>
        <time>2019-10-27T15:08:26.000Z</time>
      </trkpt>
      <trkpt lat="45.55546" lon="5.73836">
        <ele>614</ele>
        <time>2019-10-27T15:08:27.000Z</time>
      </trkpt>
      <trkpt lat="45.55546" lon="5.73837">
        <ele>614</ele>
        <time>2019-10-27T15:08:28.000Z</time>
      </trkpt>
      <trkpt lat="45.55546" lon="5.73838">
        <ele>614</ele>
        <time>2019-10-27T15:08:29.000Z</time>
      </trkpt>
      <trkpt lat="45.55547" lon="5.73839">
        <ele>614</ele>
        <time>2019-10-27T15:08:30.000Z</time>
      </trkpt>
      <trkpt lat="45.55547" lon="5.7384">
        <ele>613</ele>
        <time>2019-10-27T15:08:31.000Z</time>
      </trkpt>
      <trkpt lat="45.55547" lon="5.73841">
        <ele>613</ele>
        <time>2019-10-27T15:08:32.000Z</time>
      </trkpt>
      <trkpt lat="45.55547" lon="5.73842">
        <ele>613</ele>
        <time>2019-10-27T15:08:33.000Z</time>
      </trkpt>
      <trkpt lat="45.55548" lon="5.73844">
        <ele>613</ele>
        <time>2019-10-27T15:08:34.000Z</time>
      </trkpt>
      <trkpt lat="45.55548" lon="5.73845">
        <ele>613</ele>
        <time>2019-10-27T15:08:35.000Z</time>
      </trkpt>
      <trkpt lat="45.55548" lon="5.73846">
        <ele>613</ele>
        <time>2019-10-27T15:08:36.000Z</time>
      </trkpt>
      <trkpt lat="45.55548" lon="5.73846">
        <ele>612.5</ele>
        <time>2019-10-27T15:08:37.000Z</time>
      </trkpt>
      <trkpt lat="45.55548" lon="5.73847">
        <ele>612</ele>
        <time>2019-10-27T15:08:38.000Z</time>
      </trkpt>
      <trkpt lat="45.55548" lon="5.73848">
        <ele>612</ele>
        <time>2019-10-27T15:08:39.000Z</time>
      </trkpt>
      <trkpt lat="45.55548" lon="5.73849">
        <ele>612</ele>
        <time>2019-10-27T15:08:40.000Z</time>
      </trkpt>
      <trkpt lat="45.55549" lon="5.7385">
        <ele>612</ele>
        <time>2019-10-27T15:08:41.000Z</time>
      </trkpt>
      <trkpt lat="45.55549" lon="5.73851">
        <ele>612</ele>
        <time>2019-10-27T15:08:42.000Z</time>
      </trkpt>
      <trkpt lat="45.55549" lon="5.73852">
        <ele>612</ele>
        <time>2019-10-27T15:08:43.000Z</time>
      </trkpt>
      <trkpt lat="45.55549" lon="5.73853">
        <ele>611.7</ele>
        <time>2019-10-27T15:08:44.000Z</time>
      </trkpt>
      <trkpt lat="45.5555" lon="5.73854">
        <ele>611.3</ele>
        <time>2019-10-27T15:08:45.000Z</time>
      </trkpt>
      <trkpt lat="45.5555" lon="5.73855">
        <ele>611</ele>
        <time>2019-10-27T15:08:46.000Z</time>
      </trkpt>
      <trkpt lat="45.5555" lon="5.73856">
        <ele>611</ele>
        <time>2019-10-27T15:08:47.000Z</time>
      </trkpt>
      <trkpt lat="45.55551" lon="5.73857">
        <ele>611</ele>
        <time>2019-10-27T15:08:48.000Z</time>
      </trkpt>
      <trkpt lat="45.55551" lon="5.73858">
        <ele>611</ele>
        <time>2019-10-27T15:08:49.000Z</time>
      </trkpt>
      <trkpt lat="45.55551" lon="5.73859">
        <ele>611</ele>
        <time>2019-10-27T15:08:50.000Z</time>
      </trkpt>
      <trkpt lat="45.55551" lon="5.7386">
        <ele>611</ele>
        <time>2019-10-27T15:08:51.000Z</time>
      </trkpt>
      <trkpt lat="45.55552" lon="5.73861">
        <ele>611</ele>
        <time>2019-10-27T15:08:52.000Z</time>
      </trkpt>
      <trkpt lat="45.55551" lon="5.73861">
        <ele>611</ele>
        <time>2019-10-27T15:08:53.000Z</time>
      </trkpt>
      <trkpt lat="45.55551" lon="5.73861">
        <ele>611</ele>
        <time>2019-10-27T15:08:54.000Z</time>
      </trkpt>
      <trkpt lat="45.55551" lon="5.73862">
        <ele>611</ele>
        <time>2019-10-27T15:08:55.000Z</time>
      </trkpt>
      <trkpt lat="45.55551" lon="5.73862">
        <ele>611</ele>
        <time>2019-10-27T15:08:56.000Z</time>
      </trkpt>
      <trkpt lat="45.5555" lon="5.73863">
        <ele>611</ele>
        <time>2019-10-27T15:08:57.000Z</time>
      </trkpt>
      <trkpt lat="45.5555" lon="5.73863">
        <ele>611</ele>
        <time>2019-10-27T15:08:58.000Z</time>
      </trkpt>
      <trkpt lat="45.55549" lon="5.73864">
        <ele>611</ele>
        <time>2019-10-27T15:08:59.000Z</time>
      </trkpt>
      <trkpt lat="45.55549" lon="5.73864">
        <ele>611</ele>
        <time>2019-10-27T15:09:00.000Z</time>
      </trkpt>
      <trkpt lat="45.55549" lon="5.73865">
        <ele>610.5</ele>
        <time>2019-10-27T15:09:01.000Z</time>
      </trkpt>
      <trkpt lat="45.55548" lon="5.73866">
        <ele>610</ele>
        <time>2019-10-27T15:09:02.000Z</time>
      </trkpt>
      <trkpt lat="45.55548" lon="5.73867">
        <ele>610</ele>
        <time>2019-10-27T15:09:03.000Z</time>
      </trkpt>
      <trkpt lat="45.55548" lon="5.73869">
        <ele>610</ele>
        <time>2019-10-27T15:09:04.000Z</time>
      </trkpt>
      <trkpt lat="45.55548" lon="5.7387">
        <ele>610</ele>
        <time>2019-10-27T15:09:05.000Z</time>
      </trkpt>
      <trkpt lat="45.55548" lon="5.73872">
        <ele>610</ele>
        <time>2019-10-27T15:09:06.000Z</time>
      </trkpt>
      <trkpt lat="45.55548" lon="5.73873">
        <ele>610</ele>
        <time>2019-10-27T15:09:07.000Z</time>
      </trkpt>
      <trkpt lat="45.55548" lon="5.73875">
        <ele>610</ele>
        <time>2019-10-27T15:09:08.000Z</time>
      </trkpt>
      <trkpt lat="45.55549" lon="5.73876">
        <ele>610</ele>
        <time>2019-10-27T15:09:09.000Z</time>
      </trkpt>
      <trkpt lat="45.55549" lon="5.73878">
        <ele>609.7</ele>
        <time>2019-10-27T15:09:10.000Z</time>
      </trkpt>
      <trkpt lat="45.5555" lon="5.73879">
        <ele>609.3</ele>
        <time>2019-10-27T15:09:11.000Z</time>
      </trkpt>
      <trkpt lat="45.5555" lon="5.73881">
        <ele>609</ele>
        <time>2019-10-27T15:09:12.000Z</time>
      </trkpt>
      <trkpt lat="45.55551" lon="5.73883">
        <ele>609</ele>
        <time>2019-10-27T15:09:13.000Z</time>
      </trkpt>
      <trkpt lat="45.55551" lon="5.73884">
        <ele>609</ele>
        <time>2019-10-27T15:09:14.000Z</time>
      </trkpt>
      <trkpt lat="45.55552" lon="5.73886">
        <ele>609</ele>
        <time>2019-10-27T15:09:15.000Z</time>
      </trkpt>
      <trkpt lat="45.55552" lon="5.73887">
        <ele>609</ele>
        <time>2019-10-27T15:09:16.000Z</time>
      </trkpt>
      <trkpt lat="45.55552" lon="5.73889">
        <ele>609</ele>
        <time>2019-10-27T15:09:17.000Z</time>
      </trkpt>
      <trkpt lat="45.55552" lon="5.7389">
        <ele>609</ele>
        <time>2019-10-27T15:09:18.000Z</time>
      </trkpt>
      <trkpt lat="45.55552" lon="5.73892">
        <ele>609</ele>
        <time>2019-10-27T15:09:19.000Z</time>
      </trkpt>
      <trkpt lat="45.55552" lon="5.73893">
        <ele>609</ele>
        <time>2019-10-27T15:09:20.000Z</time>
      </trkpt>
      <trkpt lat="45.55552" lon="5.73894">
        <ele>609</ele>
        <time>2019-10-27T15:09:21.000Z</time>
      </trkpt>
      <trkpt lat="45.55552" lon="5.73896">
        <ele>609</ele>
        <time>2019-10-27T15:09:22.000Z</time>
      </trkpt>
      <trkpt lat="45.55552" lon="5.73897">
        <ele>608</ele>
        <time>2019-10-27T15:09:23.000Z</time>
      </trkpt>
      <trkpt lat="45.55552" lon="5.73898">
        <ele>608</ele>
        <time>2019-10-27T15:09:24.000Z</time>
      </trkpt>
      <trkpt lat="45.55552" lon="5.739">
        <ele>608</ele>
        <time>2019-10-27T15:09:25.000Z</time>
      </trkpt>
      <trkpt lat="45.55551" lon="5.73901">
        <ele>608</ele>
        <time>2019-10-27T15:09:26.000Z</time>
      </trkpt>
      <trkpt lat="45.55551" lon="5.73902">
        <ele>608</ele>
        <time>2019-10-27T15:09:27.000Z</time>
      </trkpt>
      <trkpt lat="45.55551" lon="5.73904">
        <ele>608</ele>
        <time>2019-10-27T15:09:28.000Z</time>
      </trkpt>
      <trkpt lat="45.55551" lon="5.73905">
        <ele>608</ele>
        <time>2019-10-27T15:09:29.000Z</time>
      </trkpt>
      <trkpt lat="45.55551" lon="5.73906">
        <ele>608</ele>
        <time>2019-10-27T15:09:30.000Z</time>
      </trkpt>
      <trkpt lat="45.55551" lon="5.73907">
        <ele>608</ele>
        <time>2019-10-27T15:09:31.000Z</time>
      </trkpt>
      <trkpt lat="45.55551" lon="5.73909">
        <ele>608</ele>
        <time>2019-10-27T15:09:32.000Z</time>
      </trkpt>
      <trkpt lat="45.55551" lon="5.7391">
        <ele>608</ele>
        <time>2019-10-27T15:09:33.000Z</time>
      </trkpt>
      <trkpt lat="45.55551" lon="5.73911">
        <ele>608</ele>
        <time>2019-10-27T15:09:34.000Z</time>
      </trkpt>
      <trkpt lat="45.55551" lon="5.73913">
        <ele>608</ele>
        <time>2019-10-27T15:09:35.000Z</time>
      </trkpt>
      <trkpt lat="45.55551" lon="5.73914">
        <ele>608</ele>
        <time>2019-10-27T15:09:36.000Z</time>
      </trkpt>
      <trkpt lat="45.55552" lon="5.73916">
        <ele>608</ele>
        <time>2019-10-27T15:09:37.000Z</time>
      </trkpt>
      <trkpt lat="45.55552" lon="5.73917">
        <ele>608</ele>
        <time>2019-10-27T15:09:38.000Z</time>
      </trkpt>
      <trkpt lat="45.55552" lon="5.73919">
        <ele>607.5</ele>
        <time>2019-10-27T15:09:39.000Z</time>
      </trkpt>
      <trkpt lat="45.55552" lon="5.7392">
        <ele>607</ele>
        <time>2019-10-27T15:09:40.000Z</time>
      </trkpt>
      <trkpt lat="45.55552" lon="5.73922">
        <ele>607</ele>
        <time>2019-10-27T15:09:41.000Z</time>
      </trkpt>
      <trkpt lat="45.55552" lon="5.73924">
        <ele>607</ele>
        <time>2019-10-27T15:09:42.000Z</time>
      </trkpt>
      <trkpt lat="45.55553" lon="5.73925">
        <ele>607</ele>
        <time>2019-10-27T15:09:43.000Z</time>
      </trkpt>
      <trkpt lat="45.55553" lon="5.73927">
        <ele>607</ele>
        <time>2019-10-27T15:09:44.000Z</time>
      </trkpt>
      <trkpt lat="45.55553" lon="5.73929">
        <ele>607</ele>
        <time>2019-10-27T15:09:45.000Z</time>
      </trkpt>
      <trkpt lat="45.55553" lon="5.7393">
        <ele>607</ele>
        <time>2019-10-27T15:09:46.000Z</time>
      </trkpt>
      <trkpt lat="45.55553" lon="5.73932">
        <ele>607</ele>
        <time>2019-10-27T15:09:47.000Z</time>
      </trkpt>
      <trkpt lat="45.55553" lon="5.73934">
        <ele>607</ele>
        <time>2019-10-27T15:09:48.000Z</time>
      </trkpt>
      <trkpt lat="45.55553" lon="5.73935">
        <ele>607</ele>
        <time>2019-10-27T15:09:49.000Z</time>
      </trkpt>
      <trkpt lat="45.55553" lon="5.73937">
        <ele>607</ele>
        <time>2019-10-27T15:09:50.000Z</time>
      </trkpt>
      <trkpt lat="45.55553" lon="5.73938">
        <ele>607</ele>
        <time>2019-10-27T15:09:51.000Z</time>
      </trkpt>
      <trkpt lat="45.55553" lon="5.73939">
        <ele>606.5</ele>
        <time>2019-10-27T15:09:52.000Z</time>
      </trkpt>
      <trkpt lat="45.55553" lon="5.73939">
        <ele>606</ele>
        <time>2019-10-27T15:09:53.000Z</time>
      </trkpt>
      <trkpt lat="45.55553" lon="5.7394">
        <ele>606</ele>
        <time>2019-10-27T15:09:54.000Z</time>
      </trkpt>
      <trkpt lat="45.55553" lon="5.7394">
        <ele>606</ele>
        <time>2019-10-27T15:09:55.000Z</time>
      </trkpt>
      <trkpt lat="45.55554" lon="5.7394">
        <ele>606</ele>
        <time>2019-10-27T15:09:56.000Z</time>
      </trkpt>
      <trkpt lat="45.55554" lon="5.73941">
        <ele>606</ele>
        <time>2019-10-27T15:09:57.000Z</time>
      </trkpt>
      <trkpt lat="45.55554" lon="5.73941">
        <ele>606</ele>
        <time>2019-10-27T15:09:58.000Z</time>
      </trkpt>
      <trkpt lat="45.55554" lon="5.73941">
        <ele>606</ele>
        <time>2019-10-27T15:09:59.000Z</time>
      </trkpt>
      <trkpt lat="45.55554" lon="5.73942">
        <ele>606</ele>
        <time>2019-10-27T15:10:00.000Z</time>
      </trkpt>
      <trkpt lat="45.55554" lon="5.73943">
        <ele>606</ele>
        <time>2019-10-27T15:10:01.000Z</time>
      </trkpt>
      <trkpt lat="45.55553" lon="5.73945">
        <ele>606</ele>
        <time>2019-10-27T15:10:02.000Z</time>
      </trkpt>
      <trkpt lat="45.55553" lon="5.73947">
        <ele>606</ele>
        <time>2019-10-27T15:10:03.000Z</time>
      </trkpt>
      <trkpt lat="45.55552" lon="5.73949">
        <ele>606</ele>
        <time>2019-10-27T15:10:04.000Z</time>
      </trkpt>
      <trkpt lat="45.55552" lon="5.73951">
        <ele>605</ele>
        <time>2019-10-27T15:10:05.000Z</time>
      </trkpt>
      <trkpt lat="45.55551" lon="5.73954">
        <ele>605</ele>
        <time>2019-10-27T15:10:06.000Z</time>
      </trkpt>
      <trkpt lat="45.55551" lon="5.73956">
        <ele>605</ele>
        <time>2019-10-27T15:10:07.000Z</time>
      </trkpt>
      <trkpt lat="45.5555" lon="5.73958">
        <ele>605</ele>
        <time>2019-10-27T15:10:08.000Z</time>
      </trkpt>
      <trkpt lat="45.55549" lon="5.73961">
        <ele>605</ele>
        <time>2019-10-27T15:10:09.000Z</time>
      </trkpt>
      <trkpt lat="45.55549" lon="5.73963">
        <ele>604.7</ele>
        <time>2019-10-27T15:10:10.000Z</time>
      </trkpt>
      <trkpt lat="45.55548" lon="5.73964">
        <ele>604.3</ele>
        <time>2019-10-27T15:10:11.000Z</time>
      </trkpt>
      <trkpt lat="45.55548" lon="5.73966">
        <ele>604</ele>
        <time>2019-10-27T15:10:12.000Z</time>
      </trkpt>
      <trkpt lat="45.55547" lon="5.73967">
        <ele>604</ele>
        <time>2019-10-27T15:10:13.000Z</time>
      </trkpt>
      <trkpt lat="45.55547" lon="5.73968">
        <ele>604</ele>
        <time>2019-10-27T15:10:14.000Z</time>
      </trkpt>
      <trkpt lat="45.55547" lon="5.73969">
        <ele>604</ele>
        <time>2019-10-27T15:10:15.000Z</time>
      </trkpt>
      <trkpt lat="45.55546" lon="5.7397">
        <ele>604</ele>
        <time>2019-10-27T15:10:16.000Z</time>
      </trkpt>
      <trkpt lat="45.55546" lon="5.73971">
        <ele>603.5</ele>
        <time>2019-10-27T15:10:17.000Z</time>
      </trkpt>
      <trkpt lat="45.55546" lon="5.73971">
        <ele>603</ele>
        <time>2019-10-27T15:10:18.000Z</time>
      </trkpt>
      <trkpt lat="45.55546" lon="5.73972">
        <ele>603</ele>
        <time>2019-10-27T15:10:19.000Z</time>
      </trkpt>
      <trkpt lat="45.55545" lon="5.73973">
        <ele>603</ele>
        <time>2019-10-27T15:10:20.000Z</time>
      </trkpt>
      <trkpt lat="45.55545" lon="5.73973">
        <ele>603</ele>
        <time>2019-10-27T15:10:21.000Z</time>
      </trkpt>
      <trkpt lat="45.55545" lon="5.73974">
        <ele>603</ele>
        <time>2019-10-27T15:10:22.000Z</time>
      </trkpt>
      <trkpt lat="45.55544" lon="5.73975">
        <ele>602</ele>
        <time>2019-10-27T15:10:23.000Z</time>
      </trkpt>
      <trkpt lat="45.55544" lon="5.73976">
        <ele>602</ele>
        <time>2019-10-27T15:10:24.000Z</time>
      </trkpt>
      <trkpt lat="45.55543" lon="5.73977">
        <ele>602</ele>
        <time>2019-10-27T15:10:25.000Z</time>
      </trkpt>
      <trkpt lat="45.55543" lon="5.73978">
        <ele>602</ele>
        <time>2019-10-27T15:10:26.000Z</time>
      </trkpt>
      <trkpt lat="45.55542" lon="5.73979">
        <ele>602</ele>
        <time>2019-10-27T15:10:27.000Z</time>
      </trkpt>
      <trkpt lat="45.55541" lon="5.7398">
        <ele>601.7</ele>
        <time>2019-10-27T15:10:28.000Z</time>
      </trkpt>
      <trkpt lat="45.5554" lon="5.73981">
        <ele>601.3</ele>
        <time>2019-10-27T15:10:29.000Z</time>
      </trkpt>
      <trkpt lat="45.55539" lon="5.73982">
        <ele>601</ele>
        <time>2019-10-27T15:10:30.000Z</time>
      </trkpt>
      <trkpt lat="45.55538" lon="5.73983">
        <ele>601</ele>
        <time>2019-10-27T15:10:31.000Z</time>
      </trkpt>
      <trkpt lat="45.55537" lon="5.73985">
        <ele>601</ele>
        <time>2019-10-27T15:10:32.000Z</time>
      </trkpt>
      <trkpt lat="45.55536" lon="5.73986">
        <ele>601</ele>
        <time>2019-10-27T15:10:33.000Z</time>
      </trkpt>
      <trkpt lat="45.55535" lon="5.73987">
        <ele>600.7</ele>
        <time>2019-10-27T15:10:34.000Z</time>
      </trkpt>
      <trkpt lat="45.55534" lon="5.73989">
        <ele>600.3</ele>
        <time>2019-10-27T15:10:35.000Z</time>
      </trkpt>
      <trkpt lat="45.55533" lon="5.73991">
        <ele>600</ele>
        <time>2019-10-27T15:10:36.000Z</time>
      </trkpt>
      <trkpt lat="45.55532" lon="5.73992">
        <ele>600</ele>
        <time>2019-10-27T15:10:37.000Z</time>
      </trkpt>
      <trkpt lat="45.55532" lon="5.73994">
        <ele>600</ele>
        <time>2019-10-27T15:10:38.000Z</time>
      </trkpt>
      <trkpt lat="45.55531" lon="5.73996">
        <ele>600</ele>
        <time>2019-10-27T15:10:39.000Z</time>
      </trkpt>
      <trkpt lat="45.55531" lon="5.73998">
        <ele>600</ele>
        <time>2019-10-27T15:10:40.000Z</time>
      </trkpt>
      <trkpt lat="45.5553" lon="5.74">
        <ele>599</ele>
        <time>2019-10-27T15:10:41.000Z</time>
      </trkpt>
      <trkpt lat="45.5553" lon="5.74001">
        <ele>599</ele>
        <time>2019-10-27T15:10:42.000Z</time>
      </trkpt>
      <trkpt lat="45.5553" lon="5.74003">
        <ele>599</ele>
        <time>2019-10-27T15:10:43.000Z</time>
      </trkpt>
      <trkpt lat="45.5553" lon="5.74005">
        <ele>599</ele>
        <time>2019-10-27T15:10:44.000Z</time>
      </trkpt>
      <trkpt lat="45.5553" lon="5.74007">
        <ele>599</ele>
        <time>2019-10-27T15:10:45.000Z</time>
      </trkpt>
      <trkpt lat="45.55531" lon="5.74009">
        <ele>599</ele>
        <time>2019-10-27T15:10:46.000Z</time>
      </trkpt>
      <trkpt lat="45.55531" lon="5.74011">
        <ele>599</ele>
        <time>2019-10-27T15:10:47.000Z</time>
      </trkpt>
      <trkpt lat="45.55532" lon="5.74013">
        <ele>599</ele>
        <time>2019-10-27T15:10:48.000Z</time>
      </trkpt>
      <trkpt lat="45.55532" lon="5.74014">
        <ele>599</ele>
        <time>2019-10-27T15:10:49.000Z</time>
      </trkpt>
      <trkpt lat="45.55533" lon="5.74016">
        <ele>599</ele>
        <time>2019-10-27T15:10:50.000Z</time>
      </trkpt>
      <trkpt lat="45.55534" lon="5.74017">
        <ele>599</ele>
        <time>2019-10-27T15:10:51.000Z</time>
      </trkpt>
      <trkpt lat="45.55534" lon="5.74019">
        <ele>598.7</ele>
        <time>2019-10-27T15:10:52.000Z</time>
      </trkpt>
      <trkpt lat="45.55535" lon="5.7402">
        <ele>598.3</ele>
        <time>2019-10-27T15:10:53.000Z</time>
      </trkpt>
      <trkpt lat="45.55536" lon="5.74021">
        <ele>598</ele>
        <time>2019-10-27T15:10:54.000Z</time>
      </trkpt>
      <trkpt lat="45.55537" lon="5.74023">
        <ele>598</ele>
        <time>2019-10-27T15:10:55.000Z</time>
      </trkpt>
      <trkpt lat="45.55538" lon="5.74024">
        <ele>598</ele>
        <time>2019-10-27T15:10:56.000Z</time>
      </trkpt>
      <trkpt lat="45.55539" lon="5.74025">
        <ele>598</ele>
        <time>2019-10-27T15:10:57.000Z</time>
      </trkpt>
      <trkpt lat="45.55539" lon="5.74026">
        <ele>598</ele>
        <time>2019-10-27T15:10:58.000Z</time>
      </trkpt>
      <trkpt lat="45.5554" lon="5.74027">
        <ele>598</ele>
        <time>2019-10-27T15:10:59.000Z</time>
      </trkpt>
      <trkpt lat="45.55541" lon="5.74028">
        <ele>598</ele>
        <time>2019-10-27T15:11:00.000Z</time>
      </trkpt>
      <trkpt lat="45.55542" lon="5.74028">
        <ele>598</ele>
        <time>2019-10-27T15:11:01.000Z</time>
      </trkpt>
      <trkpt lat="45.55543" lon="5.74029">
        <ele>598</ele>
        <time>2019-10-27T15:11:02.000Z</time>
      </trkpt>
      <trkpt lat="45.55544" lon="5.7403">
        <ele>598</ele>
        <time>2019-10-27T15:11:03.000Z</time>
      </trkpt>
      <trkpt lat="45.55545" lon="5.74031">
        <ele>598</ele>
        <time>2019-10-27T15:11:04.000Z</time>
      </trkpt>
      <trkpt lat="45.55546" lon="5.74032">
        <ele>598</ele>
        <time>2019-10-27T15:11:05.000Z</time>
      </trkpt>
      <trkpt lat="45.55546" lon="5.74033">
        <ele>597.7</ele>
        <time>2019-10-27T15:11:06.000Z</time>
      </trkpt>
      <trkpt lat="45.55547" lon="5.74034">
        <ele>597.3</ele>
        <time>2019-10-27T15:11:07.000Z</time>
      </trkpt>
      <trkpt lat="45.55548" lon="5.74035">
        <ele>597</ele>
        <time>2019-10-27T15:11:08.000Z</time>
      </trkpt>
      <trkpt lat="45.55549" lon="5.74036">
        <ele>597</ele>
        <time>2019-10-27T15:11:09.000Z</time>
      </trkpt>
      <trkpt lat="45.55549" lon="5.74037">
        <ele>597</ele>
        <time>2019-10-27T15:11:10.000Z</time>
      </trkpt>
      <trkpt lat="45.5555" lon="5.74038">
        <ele>597</ele>
        <time>2019-10-27T15:11:11.000Z</time>
      </trkpt>
      <trkpt lat="45.5555" lon="5.74039">
        <ele>597</ele>
        <time>2019-10-27T15:11:12.000Z</time>
      </trkpt>
      <trkpt lat="45.55551" lon="5.7404">
        <ele>597</ele>
        <time>2019-10-27T15:11:13.000Z</time>
      </trkpt>
      <trkpt lat="45.55551" lon="5.74042">
        <ele>597</ele>
        <time>2019-10-27T15:11:14.000Z</time>
      </trkpt>
      <trkpt lat="45.55552" lon="5.74043">
        <ele>597</ele>
        <time>2019-10-27T15:11:15.000Z</time>
      </trkpt>
      <trkpt lat="45.55552" lon="5.74044">
        <ele>597</ele>
        <time>2019-10-27T15:11:16.000Z</time>
      </trkpt>
      <trkpt lat="45.55553" lon="5.74046">
        <ele>597</ele>
        <time>2019-10-27T15:11:17.000Z</time>
      </trkpt>
      <trkpt lat="45.55553" lon="5.74047">
        <ele>597</ele>
        <time>2019-10-27T15:11:18.000Z</time>
      </trkpt>
      <trkpt lat="45.55553" lon="5.74048">
        <ele>597</ele>
        <time>2019-10-27T15:11:19.000Z</time>
      </trkpt>
      <trkpt lat="45.55554" lon="5.7405">
        <ele>597</ele>
        <time>2019-10-27T15:11:20.000Z</time>
      </trkpt>
      <trkpt lat="45.55554" lon="5.74051">
        <ele>597</ele>
        <time>2019-10-27T15:11:21.000Z</time>
      </trkpt>
      <trkpt lat="45.55554" lon="5.74052">
        <ele>596.7</ele>
        <time>2019-10-27T15:11:22.000Z</time>
      </trkpt>
      <trkpt lat="45.55555" lon="5.74054">
        <ele>596.3</ele>
        <time>2019-10-27T15:11:23.000Z</time>
      </trkpt>
      <trkpt lat="45.55556" lon="5.74055">
        <ele>596</ele>
        <time>2019-10-27T15:11:24.000Z</time>
      </trkpt>
      <trkpt lat="45.55556" lon="5.74056">
        <ele>596</ele>
        <time>2019-10-27T15:11:25.000Z</time>
      </trkpt>
      <trkpt lat="45.55557" lon="5.74058">
        <ele>596</ele>
        <time>2019-10-27T15:11:26.000Z</time>
      </trkpt>
      <trkpt lat="45.55557" lon="5.74059">
        <ele>596</ele>
        <time>2019-10-27T15:11:27.000Z</time>
      </trkpt>
      <trkpt lat="45.55558" lon="5.7406">
        <ele>596</ele>
        <time>2019-10-27T15:11:28.000Z</time>
      </trkpt>
      <trkpt lat="45.55558" lon="5.74061">
        <ele>596</ele>
        <time>2019-10-27T15:11:29.000Z</time>
      </trkpt>
      <trkpt lat="45.55558" lon="5.74062">
        <ele>596</ele>
        <time>2019-10-27T15:11:30.000Z</time>
      </trkpt>
      <trkpt lat="45.55559" lon="5.74064">
        <ele>595</ele>
        <time>2019-10-27T15:11:31.000Z</time>
      </trkpt>
      <trkpt lat="45.55559" lon="5.74065">
        <ele>595</ele>
        <time>2019-10-27T15:11:32.000Z</time>
      </trkpt>
      <trkpt lat="45.55559" lon="5.74066">
        <ele>595</ele>
        <time>2019-10-27T15:11:33.000Z</time>
      </trkpt>
      <trkpt lat="45.55559" lon="5.74067">
        <ele>595</ele>
        <time>2019-10-27T15:11:34.000Z</time>
      </trkpt>
      <trkpt lat="45.55559" lon="5.74068">
        <ele>595</ele>
        <time>2019-10-27T15:11:35.000Z</time>
      </trkpt>
      <trkpt lat="45.55559" lon="5.74069">
        <ele>595</ele>
        <time>2019-10-27T15:11:36.000Z</time>
      </trkpt>
      <trkpt lat="45.55559" lon="5.7407">
        <ele>595</ele>
        <time>2019-10-27T15:11:37.000Z</time>
      </trkpt>
      <trkpt lat="45.55559" lon="5.74072">
        <ele>595</ele>
        <time>2019-10-27T15:11:38.000Z</time>
      </trkpt>
      <trkpt lat="45.55559" lon="5.74073">
        <ele>594</ele>
        <time>2019-10-27T15:11:39.000Z</time>
      </trkpt>
      <trkpt lat="45.55559" lon="5.74074">
        <ele>594</ele>
        <time>2019-10-27T15:11:40.000Z</time>
      </trkpt>
      <trkpt lat="45.55559" lon="5.74075">
        <ele>594</ele>
        <time>2019-10-27T15:11:41.000Z</time>
      </trkpt>
      <trkpt lat="45.55559" lon="5.74077">
        <ele>594</ele>
        <time>2019-10-27T15:11:42.000Z</time>
      </trkpt>
      <trkpt lat="45.55558" lon="5.74078">
        <ele>594</ele>
        <time>2019-10-27T15:11:43.000Z</time>
      </trkpt>
      <trkpt lat="45.55558" lon="5.7408">
        <ele>594</ele>
        <time>2019-10-27T15:11:44.000Z</time>
      </trkpt>
      <trkpt lat="45.55558" lon="5.74081">
        <ele>594</ele>
        <time>2019-10-27T15:11:45.000Z</time>
      </trkpt>
      <trkpt lat="45.55558" lon="5.74083">
        <ele>593.7</ele>
        <time>2019-10-27T15:11:46.000Z</time>
      </trkpt>
      <trkpt lat="45.55558" lon="5.74085">
        <ele>593.3</ele>
        <time>2019-10-27T15:11:47.000Z</time>
      </trkpt>
      <trkpt lat="45.55558" lon="5.74086">
        <ele>593</ele>
        <time>2019-10-27T15:11:48.000Z</time>
      </trkpt>
      <trkpt lat="45.55557" lon="5.74088">
        <ele>593</ele>
        <time>2019-10-27T15:11:49.000Z</time>
      </trkpt>
      <trkpt lat="45.55557" lon="5.74089">
        <ele>593</ele>
        <time>2019-10-27T15:11:50.000Z</time>
      </trkpt>
      <trkpt lat="45.55558" lon="5.74091">
        <ele>593</ele>
        <time>2019-10-27T15:11:51.000Z</time>
      </trkpt>
      <trkpt lat="45.55558" lon="5.74092">
        <ele>592.7</ele>
        <time>2019-10-27T15:11:52.000Z</time>
      </trkpt>
      <trkpt lat="45.55558" lon="5.74094">
        <ele>592.3</ele>
        <time>2019-10-27T15:11:53.000Z</time>
      </trkpt>
      <trkpt lat="45.55558" lon="5.74095">
        <ele>592</ele>
        <time>2019-10-27T15:11:54.000Z</time>
      </trkpt>
      <trkpt lat="45.55559" lon="5.74096">
        <ele>592</ele>
        <time>2019-10-27T15:11:55.000Z</time>
      </trkpt>
      <trkpt lat="45.55559" lon="5.74097">
        <ele>592</ele>
        <time>2019-10-27T15:11:56.000Z</time>
      </trkpt>
      <trkpt lat="45.5556" lon="5.74098">
        <ele>592</ele>
        <time>2019-10-27T15:11:57.000Z</time>
      </trkpt>
      <trkpt lat="45.5556" lon="5.74099">
        <ele>592</ele>
        <time>2019-10-27T15:11:58.000Z</time>
      </trkpt>
      <trkpt lat="45.55561" lon="5.741">
        <ele>592</ele>
        <time>2019-10-27T15:11:59.000Z</time>
      </trkpt>
      <trkpt lat="45.55561" lon="5.74101">
        <ele>592</ele>
        <time>2019-10-27T15:12:00.000Z</time>
      </trkpt>
      <trkpt lat="45.55562" lon="5.74103">
        <ele>591</ele>
        <time>2019-10-27T15:12:01.000Z</time>
      </trkpt>
      <trkpt lat="45.55562" lon="5.74104">
        <ele>591</ele>
        <time>2019-10-27T15:12:02.000Z</time>
      </trkpt>
      <trkpt lat="45.55562" lon="5.74105">
        <ele>591</ele>
        <time>2019-10-27T15:12:03.000Z</time>
      </trkpt>
      <trkpt lat="45.55563" lon="5.74107">
        <ele>591</ele>
        <time>2019-10-27T15:12:04.000Z</time>
      </trkpt>
      <trkpt lat="45.55563" lon="5.74109">
        <ele>591</ele>
        <time>2019-10-27T15:12:05.000Z</time>
      </trkpt>
      <trkpt lat="45.55563" lon="5.7411">
        <ele>591</ele>
        <time>2019-10-27T15:12:06.000Z</time>
      </trkpt>
      <trkpt lat="45.55563" lon="5.74112">
        <ele>591</ele>
        <time>2019-10-27T15:12:07.000Z</time>
      </trkpt>
      <trkpt lat="45.55563" lon="5.74114">
        <ele>590.7</ele>
        <time>2019-10-27T15:12:08.000Z</time>
      </trkpt>
      <trkpt lat="45.55564" lon="5.74116">
        <ele>590.3</ele>
        <time>2019-10-27T15:12:09.000Z</time>
      </trkpt>
      <trkpt lat="45.55564" lon="5.74118">
        <ele>590</ele>
        <time>2019-10-27T15:12:10.000Z</time>
      </trkpt>
      <trkpt lat="45.55564" lon="5.74119">
        <ele>590</ele>
        <time>2019-10-27T15:12:11.000Z</time>
      </trkpt>
      <trkpt lat="45.55565" lon="5.74121">
        <ele>590</ele>
        <time>2019-10-27T15:12:12.000Z</time>
      </trkpt>
      <trkpt lat="45.55565" lon="5.74123">
        <ele>590</ele>
        <time>2019-10-27T15:12:13.000Z</time>
      </trkpt>
      <trkpt lat="45.55566" lon="5.74124">
        <ele>590</ele>
        <time>2019-10-27T15:12:14.000Z</time>
      </trkpt>
      <trkpt lat="45.55566" lon="5.74126">
        <ele>590</ele>
        <time>2019-10-27T15:12:15.000Z</time>
      </trkpt>
      <trkpt lat="45.55567" lon="5.74128">
        <ele>589.7</ele>
        <time>2019-10-27T15:12:16.000Z</time>
      </trkpt>
      <trkpt lat="45.55567" lon="5.7413">
        <ele>589.3</ele>
        <time>2019-10-27T15:12:17.000Z</time>
      </trkpt>
      <trkpt lat="45.55567" lon="5.74131">
        <ele>589</ele>
        <time>2019-10-27T15:12:18.000Z</time>
      </trkpt>
      <trkpt lat="45.55568" lon="5.74133">
        <ele>589</ele>
        <time>2019-10-27T15:12:19.000Z</time>
      </trkpt>
      <trkpt lat="45.55568" lon="5.74135">
        <ele>589</ele>
        <time>2019-10-27T15:12:20.000Z</time>
      </trkpt>
      <trkpt lat="45.55568" lon="5.74136">
        <ele>589</ele>
        <time>2019-10-27T15:12:21.000Z</time>
      </trkpt>
      <trkpt lat="45.55568" lon="5.74138">
        <ele>589</ele>
        <time>2019-10-27T15:12:22.000Z</time>
      </trkpt>
      <trkpt lat="45.55568" lon="5.7414">
        <ele>589</ele>
        <time>2019-10-27T15:12:23.000Z</time>
      </trkpt>
      <trkpt lat="45.55568" lon="5.74142">
        <ele>589</ele>
        <time>2019-10-27T15:12:24.000Z</time>
      </trkpt>
      <trkpt lat="45.55568" lon="5.74144">
        <ele>588</ele>
        <time>2019-10-27T15:12:25.000Z</time>
      </trkpt>
      <trkpt lat="45.55568" lon="5.74145">
        <ele>588</ele>
        <time>2019-10-27T15:12:26.000Z</time>
      </trkpt>
      <trkpt lat="45.55568" lon="5.74147">
        <ele>588</ele>
        <time>2019-10-27T15:12:27.000Z</time>
      </trkpt>
      <trkpt lat="45.55567" lon="5.74149">
        <ele>588</ele>
        <time>2019-10-27T15:12:28.000Z</time>
      </trkpt>
      <trkpt lat="45.55567" lon="5.74151">
        <ele>588</ele>
        <time>2019-10-27T15:12:29.000Z</time>
      </trkpt>
      <trkpt lat="45.55567" lon="5.74153">
        <ele>588</ele>
        <time>2019-10-27T15:12:30.000Z</time>
      </trkpt>
      <trkpt lat="45.55567" lon="5.74155">
        <ele>588</ele>
        <time>2019-10-27T15:12:31.000Z</time>
      </trkpt>
      <trkpt lat="45.55566" lon="5.74157">
        <ele>588</ele>
        <time>2019-10-27T15:12:32.000Z</time>
      </trkpt>
      <trkpt lat="45.55566" lon="5.74159">
        <ele>587.5</ele>
        <time>2019-10-27T15:12:33.000Z</time>
      </trkpt>
      <trkpt lat="45.55566" lon="5.74161">
        <ele>587</ele>
        <time>2019-10-27T15:12:34.000Z</time>
      </trkpt>
      <trkpt lat="45.55566" lon="5.74162">
        <ele>587</ele>
        <time>2019-10-27T15:12:35.000Z</time>
      </trkpt>
      <trkpt lat="45.55565" lon="5.74164">
        <ele>587</ele>
        <time>2019-10-27T15:12:36.000Z</time>
      </trkpt>
      <trkpt lat="45.55565" lon="5.74166">
        <ele>587</ele>
        <time>2019-10-27T15:12:37.000Z</time>
      </trkpt>
      <trkpt lat="45.55565" lon="5.74168">
        <ele>587</ele>
        <time>2019-10-27T15:12:38.000Z</time>
      </trkpt>
      <trkpt lat="45.55565" lon="5.7417">
        <ele>586</ele>
        <time>2019-10-27T15:12:39.000Z</time>
      </trkpt>
      <trkpt lat="45.55565" lon="5.74172">
        <ele>586</ele>
        <time>2019-10-27T15:12:40.000Z</time>
      </trkpt>
      <trkpt lat="45.55564" lon="5.74173">
        <ele>586</ele>
        <time>2019-10-27T15:12:41.000Z</time>
      </trkpt>
      <trkpt lat="45.55564" lon="5.74174">
        <ele>586</ele>
        <time>2019-10-27T15:12:42.000Z</time>
      </trkpt>
      <trkpt lat="45.55564" lon="5.74175">
        <ele>586</ele>
        <time>2019-10-27T15:12:43.000Z</time>
      </trkpt>
      <trkpt lat="45.55564" lon="5.74176">
        <ele>586</ele>
        <time>2019-10-27T15:12:44.000Z</time>
      </trkpt>
      <trkpt lat="45.55565" lon="5.74176">
        <ele>585</ele>
        <time>2019-10-27T15:12:45.000Z</time>
      </trkpt>
      <trkpt lat="45.55565" lon="5.74176">
        <ele>585</ele>
        <time>2019-10-27T15:12:46.000Z</time>
      </trkpt>
      <trkpt lat="45.55565" lon="5.74177">
        <ele>585</ele>
        <time>2019-10-27T15:12:47.000Z</time>
      </trkpt>
      <trkpt lat="45.55565" lon="5.74176">
        <ele>585</ele>
        <time>2019-10-27T15:12:48.000Z</time>
      </trkpt>
      <trkpt lat="45.55565" lon="5.74176">
        <ele>585</ele>
        <time>2019-10-27T15:12:49.000Z</time>
      </trkpt>
      <trkpt lat="45.55565" lon="5.74176">
        <ele>585</ele>
        <time>2019-10-27T15:12:50.000Z</time>
      </trkpt>
      <trkpt lat="45.55566" lon="5.74176">
        <ele>585</ele>
        <time>2019-10-27T15:12:51.000Z</time>
      </trkpt>
      <trkpt lat="45.55566" lon="5.74177">
        <ele>585</ele>
        <time>2019-10-27T15:12:52.000Z</time>
      </trkpt>
      <trkpt lat="45.55566" lon="5.74177">
        <ele>585</ele>
        <time>2019-10-27T15:12:53.000Z</time>
      </trkpt>
      <trkpt lat="45.55566" lon="5.74178">
        <ele>585</ele>
        <time>2019-10-27T15:12:54.000Z</time>
      </trkpt>
      <trkpt lat="45.55566" lon="5.74179">
        <ele>585</ele>
        <time>2019-10-27T15:12:55.000Z</time>
      </trkpt>
      <trkpt lat="45.55566" lon="5.74181">
        <ele>585</ele>
        <time>2019-10-27T15:12:56.000Z</time>
      </trkpt>
      <trkpt lat="45.55566" lon="5.74182">
        <ele>585</ele>
        <time>2019-10-27T15:12:57.000Z</time>
      </trkpt>
      <trkpt lat="45.55566" lon="5.74184">
        <ele>585</ele>
        <time>2019-10-27T15:12:58.000Z</time>
      </trkpt>
      <trkpt lat="45.55566" lon="5.74186">
        <ele>585</ele>
        <time>2019-10-27T15:12:59.000Z</time>
      </trkpt>
      <trkpt lat="45.55566" lon="5.74188">
        <ele>584.7</ele>
        <time>2019-10-27T15:13:00.000Z</time>
      </trkpt>
      <trkpt lat="45.55566" lon="5.74189">
        <ele>584.3</ele>
        <time>2019-10-27T15:13:01.000Z</time>
      </trkpt>
      <trkpt lat="45.55566" lon="5.74191">
        <ele>584</ele>
        <time>2019-10-27T15:13:02.000Z</time>
      </trkpt>
      <trkpt lat="45.55566" lon="5.74193">
        <ele>584</ele>
        <time>2019-10-27T15:13:03.000Z</time>
      </trkpt>
      <trkpt lat="45.55567" lon="5.74194">
        <ele>584</ele>
        <time>2019-10-27T15:13:04.000Z</time>
      </trkpt>
      <trkpt lat="45.55567" lon="5.74195">
        <ele>584</ele>
        <time>2019-10-27T15:13:05.000Z</time>
      </trkpt>
      <trkpt lat="45.55568" lon="5.74196">
        <ele>584</ele>
        <time>2019-10-27T15:13:06.000Z</time>
      </trkpt>
      <trkpt lat="45.55568" lon="5.74198">
        <ele>584</ele>
        <time>2019-10-27T15:13:07.000Z</time>
      </trkpt>
      <trkpt lat="45.55569" lon="5.74199">
        <ele>584</ele>
        <time>2019-10-27T15:13:08.000Z</time>
      </trkpt>
      <trkpt lat="45.55569" lon="5.742">
        <ele>583</ele>
        <time>2019-10-27T15:13:09.000Z</time>
      </trkpt>
      <trkpt lat="45.55569" lon="5.74201">
        <ele>583</ele>
        <time>2019-10-27T15:13:10.000Z</time>
      </trkpt>
      <trkpt lat="45.5557" lon="5.74203">
        <ele>583</ele>
        <time>2019-10-27T15:13:11.000Z</time>
      </trkpt>
      <trkpt lat="45.5557" lon="5.74204">
        <ele>583</ele>
        <time>2019-10-27T15:13:12.000Z</time>
      </trkpt>
      <trkpt lat="45.5557" lon="5.74205">
        <ele>583</ele>
        <time>2019-10-27T15:13:13.000Z</time>
      </trkpt>
      <trkpt lat="45.55571" lon="5.74207">
        <ele>582.7</ele>
        <time>2019-10-27T15:13:14.000Z</time>
      </trkpt>
      <trkpt lat="45.55571" lon="5.74208">
        <ele>582.3</ele>
        <time>2019-10-27T15:13:15.000Z</time>
      </trkpt>
      <trkpt lat="45.55571" lon="5.74209">
        <ele>582</ele>
        <time>2019-10-27T15:13:16.000Z</time>
      </trkpt>
      <trkpt lat="45.55571" lon="5.7421">
        <ele>582</ele>
        <time>2019-10-27T15:13:17.000Z</time>
      </trkpt>
      <trkpt lat="45.55571" lon="5.74211">
        <ele>582</ele>
        <time>2019-10-27T15:13:18.000Z</time>
      </trkpt>
      <trkpt lat="45.55571" lon="5.74212">
        <ele>582</ele>
        <time>2019-10-27T15:13:19.000Z</time>
      </trkpt>
      <trkpt lat="45.55571" lon="5.74212">
        <ele>582</ele>
        <time>2019-10-27T15:13:20.000Z</time>
      </trkpt>
      <trkpt lat="45.55571" lon="5.74212">
        <ele>582</ele>
        <time>2019-10-27T15:13:21.000Z</time>
      </trkpt>
      <trkpt lat="45.55571" lon="5.74212">
        <ele>582</ele>
        <time>2019-10-27T15:13:22.000Z</time>
      </trkpt>
      <trkpt lat="45.55571" lon="5.74212">
        <ele>582</ele>
        <time>2019-10-27T15:13:23.000Z</time>
      </trkpt>
      <trkpt lat="45.55571" lon="5.74211">
        <ele>582</ele>
        <time>2019-10-27T15:13:24.000Z</time>
      </trkpt>
      <trkpt lat="45.55571" lon="5.74211">
        <ele>582</ele>
        <time>2019-10-27T15:13:25.000Z</time>
      </trkpt>
      <trkpt lat="45.55571" lon="5.7421">
        <ele>582</ele>
        <time>2019-10-27T15:13:26.000Z</time>
      </trkpt>
      <trkpt lat="45.55572" lon="5.7421">
        <ele>582</ele>
        <time>2019-10-27T15:13:27.000Z</time>
      </trkpt>
      <trkpt lat="45.55572" lon="5.7421">
        <ele>582</ele>
        <time>2019-10-27T15:13:28.000Z</time>
      </trkpt>
      <trkpt lat="45.55572" lon="5.7421">
        <ele>582</ele>
        <time>2019-10-27T15:13:29.000Z</time>
      </trkpt>
      <trkpt lat="45.55572" lon="5.7421">
        <ele>582</ele>
        <time>2019-10-27T15:13:30.000Z</time>
      </trkpt>
      <trkpt lat="45.55573" lon="5.7421">
        <ele>582</ele>
        <time>2019-10-27T15:13:31.000Z</time>
      </trkpt>
      <trkpt lat="45.55573" lon="5.74211">
        <ele>582</ele>
        <time>2019-10-27T15:13:32.000Z</time>
      </trkpt>
      <trkpt lat="45.55573" lon="5.74211">
        <ele>582</ele>
        <time>2019-10-27T15:13:33.000Z</time>
      </trkpt>
      <trkpt lat="45.55573" lon="5.74212">
        <ele>582</ele>
        <time>2019-10-27T15:13:34.000Z</time>
      </trkpt>
      <trkpt lat="45.55574" lon="5.74212">
        <ele>582</ele>
        <time>2019-10-27T15:13:35.000Z</time>
      </trkpt>
      <trkpt lat="45.55574" lon="5.74212">
        <ele>582</ele>
        <time>2019-10-27T15:13:36.000Z</time>
      </trkpt>
      <trkpt lat="45.55574" lon="5.74212">
        <ele>582</ele>
        <time>2019-10-27T15:13:37.000Z</time>
      </trkpt>
      <trkpt lat="45.55574" lon="5.74212">
        <ele>582</ele>
        <time>2019-10-27T15:13:38.000Z</time>
      </trkpt>
      <trkpt lat="45.55574" lon="5.74212">
        <ele>581</ele>
        <time>2019-10-27T15:13:39.000Z</time>
      </trkpt>
      <trkpt lat="45.55574" lon="5.74213">
        <ele>581.3</ele>
        <time>2019-10-27T15:13:40.000Z</time>
      </trkpt>
      <trkpt lat="45.55574" lon="5.74213">
        <ele>581.7</ele>
        <time>2019-10-27T15:13:41.000Z</time>
      </trkpt>
      <trkpt lat="45.55574" lon="5.74213">
        <ele>582</ele>
        <time>2019-10-27T15:13:42.000Z</time>
      </trkpt>
      <trkpt lat="45.55574" lon="5.74214">
        <ele>582</ele>
        <time>2019-10-27T15:13:43.000Z</time>
      </trkpt>
      <trkpt lat="45.55574" lon="5.74214">
        <ele>581.7</ele>
        <time>2019-10-27T15:13:44.000Z</time>
      </trkpt>
      <trkpt lat="45.55574" lon="5.74214">
        <ele>581.3</ele>
        <time>2019-10-27T15:13:45.000Z</time>
      </trkpt>
      <trkpt lat="45.55574" lon="5.74214">
        <ele>581</ele>
        <time>2019-10-27T15:13:46.000Z</time>
      </trkpt>
      <trkpt lat="45.55574" lon="5.74214">
        <ele>581</ele>
        <time>2019-10-27T15:13:47.000Z</time>
      </trkpt>
      <trkpt lat="45.55573" lon="5.74214">
        <ele>581</ele>
        <time>2019-10-27T15:13:48.000Z</time>
      </trkpt>
      <trkpt lat="45.55573" lon="5.74214">
        <ele>581</ele>
        <time>2019-10-27T15:13:49.000Z</time>
      </trkpt>
      <trkpt lat="45.55572" lon="5.74213">
        <ele>581</ele>
        <time>2019-10-27T15:13:50.000Z</time>
      </trkpt>
      <trkpt lat="45.55572" lon="5.74213">
        <ele>581</ele>
        <time>2019-10-27T15:13:51.000Z</time>
      </trkpt>
      <trkpt lat="45.55572" lon="5.74213">
        <ele>581</ele>
        <time>2019-10-27T15:13:52.000Z</time>
      </trkpt>
      <trkpt lat="45.55571" lon="5.74213">
        <ele>581</ele>
        <time>2019-10-27T15:13:53.000Z</time>
      </trkpt>
      <trkpt lat="45.55571" lon="5.74212">
        <ele>581</ele>
        <time>2019-10-27T15:13:54.000Z</time>
      </trkpt>
      <trkpt lat="45.55571" lon="5.74212">
        <ele>581</ele>
        <time>2019-10-27T15:13:55.000Z</time>
      </trkpt>
      <trkpt lat="45.55571" lon="5.74212">
        <ele>581</ele>
        <time>2019-10-27T15:13:56.000Z</time>
      </trkpt>
      <trkpt lat="45.55571" lon="5.74212">
        <ele>581</ele>
        <time>2019-10-27T15:13:57.000Z</time>
      </trkpt>
      <trkpt lat="45.55571" lon="5.74213">
        <ele>581</ele>
        <time>2019-10-27T15:13:58.000Z</time>
      </trkpt>
      <trkpt lat="45.55571" lon="5.74213">
        <ele>581</ele>
        <time>2019-10-27T15:13:59.000Z</time>
      </trkpt>
      <trkpt lat="45.55571" lon="5.74213">
        <ele>581</ele>
        <time>2019-10-27T15:14:00.000Z</time>
      </trkpt>
      <trkpt lat="45.55572" lon="5.74214">
        <ele>581</ele>
        <time>2019-10-27T15:14:01.000Z</time>
      </trkpt>
      <trkpt lat="45.55572" lon="5.74214">
        <ele>581</ele>
        <time>2019-10-27T15:14:02.000Z</time>
      </trkpt>
      <trkpt lat="45.55572" lon="5.74215">
        <ele>581</ele>
        <time>2019-10-27T15:14:03.000Z</time>
      </trkpt>
      <trkpt lat="45.55572" lon="5.74216">
        <ele>581</ele>
        <time>2019-10-27T15:14:04.000Z</time>
      </trkpt>
      <trkpt lat="45.55573" lon="5.74217">
        <ele>581</ele>
        <time>2019-10-27T15:14:05.000Z</time>
      </trkpt>
      <trkpt lat="45.55573" lon="5.74218">
        <ele>581</ele>
        <time>2019-10-27T15:14:06.000Z</time>
      </trkpt>
      <trkpt lat="45.55573" lon="5.74219">
        <ele>581</ele>
        <time>2019-10-27T15:14:07.000Z</time>
      </trkpt>
      <trkpt lat="45.55573" lon="5.7422">
        <ele>580.7</ele>
        <time>2019-10-27T15:14:08.000Z</time>
      </trkpt>
      <trkpt lat="45.55573" lon="5.74221">
        <ele>580.3</ele>
        <time>2019-10-27T15:14:09.000Z</time>
      </trkpt>
      <trkpt lat="45.55574" lon="5.74222">
        <ele>580</ele>
        <time>2019-10-27T15:14:10.000Z</time>
      </trkpt>
      <trkpt lat="45.55574" lon="5.74223">
        <ele>580</ele>
        <time>2019-10-27T15:14:11.000Z</time>
      </trkpt>
      <trkpt lat="45.55574" lon="5.74225">
        <ele>580</ele>
        <time>2019-10-27T15:14:12.000Z</time>
      </trkpt>
      <trkpt lat="45.55574" lon="5.74226">
        <ele>580</ele>
        <time>2019-10-27T15:14:13.000Z</time>
      </trkpt>
      <trkpt lat="45.55574" lon="5.74227">
        <ele>580</ele>
        <time>2019-10-27T15:14:14.000Z</time>
      </trkpt>
      <trkpt lat="45.55574" lon="5.74229">
        <ele>580</ele>
        <time>2019-10-27T15:14:15.000Z</time>
      </trkpt>
      <trkpt lat="45.55574" lon="5.7423">
        <ele>579.7</ele>
        <time>2019-10-27T15:14:16.000Z</time>
      </trkpt>
      <trkpt lat="45.55574" lon="5.74232">
        <ele>579.3</ele>
        <time>2019-10-27T15:14:17.000Z</time>
      </trkpt>
      <trkpt lat="45.55573" lon="5.74233">
        <ele>579</ele>
        <time>2019-10-27T15:14:18.000Z</time>
      </trkpt>
      <trkpt lat="45.55573" lon="5.74234">
        <ele>579</ele>
        <time>2019-10-27T15:14:19.000Z</time>
      </trkpt>
      <trkpt lat="45.55573" lon="5.74236">
        <ele>579</ele>
        <time>2019-10-27T15:14:20.000Z</time>
      </trkpt>
      <trkpt lat="45.55572" lon="5.74237">
        <ele>579</ele>
        <time>2019-10-27T15:14:21.000Z</time>
      </trkpt>
      <trkpt lat="45.55572" lon="5.74239">
        <ele>579</ele>
        <time>2019-10-27T15:14:22.000Z</time>
      </trkpt>
      <trkpt lat="45.55572" lon="5.7424">
        <ele>579</ele>
        <time>2019-10-27T15:14:23.000Z</time>
      </trkpt>
      <trkpt lat="45.55571" lon="5.74241">
        <ele>578.7</ele>
        <time>2019-10-27T15:14:24.000Z</time>
      </trkpt>
      <trkpt lat="45.55571" lon="5.74242">
        <ele>578.3</ele>
        <time>2019-10-27T15:14:25.000Z</time>
      </trkpt>
      <trkpt lat="45.5557" lon="5.74243">
        <ele>578</ele>
        <time>2019-10-27T15:14:26.000Z</time>
      </trkpt>
      <trkpt lat="45.5557" lon="5.74244">
        <ele>578</ele>
        <time>2019-10-27T15:14:27.000Z</time>
      </trkpt>
      <trkpt lat="45.5557" lon="5.74245">
        <ele>578</ele>
        <time>2019-10-27T15:14:28.000Z</time>
      </trkpt>
      <trkpt lat="45.5557" lon="5.74245">
        <ele>578</ele>
        <time>2019-10-27T15:14:29.000Z</time>
      </trkpt>
      <trkpt lat="45.55569" lon="5.74246">
        <ele>578</ele>
        <time>2019-10-27T15:14:30.000Z</time>
      </trkpt>
      <trkpt lat="45.55569" lon="5.74246">
        <ele>578</ele>
        <time>2019-10-27T15:14:31.000Z</time>
      </trkpt>
      <trkpt lat="45.55569" lon="5.74246">
        <ele>577.7</ele>
        <time>2019-10-27T15:14:32.000Z</time>
      </trkpt>
      <trkpt lat="45.55569" lon="5.74246">
        <ele>577.3</ele>
        <time>2019-10-27T15:14:33.000Z</time>
      </trkpt>
      <trkpt lat="45.55569" lon="5.74247">
        <ele>577</ele>
        <time>2019-10-27T15:14:34.000Z</time>
      </trkpt>
      <trkpt lat="45.55569" lon="5.74247">
        <ele>577</ele>
        <time>2019-10-27T15:14:35.000Z</time>
      </trkpt>
      <trkpt lat="45.55569" lon="5.74248">
        <ele>577</ele>
        <time>2019-10-27T15:14:36.000Z</time>
      </trkpt>
      <trkpt lat="45.55568" lon="5.74248">
        <ele>577</ele>
        <time>2019-10-27T15:14:37.000Z</time>
      </trkpt>
      <trkpt lat="45.55568" lon="5.74249">
        <ele>577</ele>
        <time>2019-10-27T15:14:38.000Z</time>
      </trkpt>
      <trkpt lat="45.55567" lon="5.7425">
        <ele>577</ele>
        <time>2019-10-27T15:14:39.000Z</time>
      </trkpt>
      <trkpt lat="45.55567" lon="5.74251">
        <ele>577</ele>
        <time>2019-10-27T15:14:40.000Z</time>
      </trkpt>
      <trkpt lat="45.55566" lon="5.74252">
        <ele>576.5</ele>
        <time>2019-10-27T15:14:41.000Z</time>
      </trkpt>
      <trkpt lat="45.55565" lon="5.74254">
        <ele>576</ele>
        <time>2019-10-27T15:14:42.000Z</time>
      </trkpt>
      <trkpt lat="45.55565" lon="5.74255">
        <ele>576</ele>
        <time>2019-10-27T15:14:43.000Z</time>
      </trkpt>
      <trkpt lat="45.55564" lon="5.74257">
        <ele>576</ele>
        <time>2019-10-27T15:14:44.000Z</time>
      </trkpt>
      <trkpt lat="45.55563" lon="5.74258">
        <ele>576</ele>
        <time>2019-10-27T15:14:45.000Z</time>
      </trkpt>
      <trkpt lat="45.55562" lon="5.7426">
        <ele>576</ele>
        <time>2019-10-27T15:14:46.000Z</time>
      </trkpt>
      <trkpt lat="45.55561" lon="5.74261">
        <ele>576</ele>
        <time>2019-10-27T15:14:47.000Z</time>
      </trkpt>
      <trkpt lat="45.5556" lon="5.74263">
        <ele>575.7</ele>
        <time>2019-10-27T15:14:48.000Z</time>
      </trkpt>
      <trkpt lat="45.5556" lon="5.74265">
        <ele>575.3</ele>
        <time>2019-10-27T15:14:49.000Z</time>
      </trkpt>
      <trkpt lat="45.55559" lon="5.74267">
        <ele>575</ele>
        <time>2019-10-27T15:14:50.000Z</time>
      </trkpt>
      <trkpt lat="45.55558" lon="5.74268">
        <ele>575</ele>
        <time>2019-10-27T15:14:51.000Z</time>
      </trkpt>
      <trkpt lat="45.55557" lon="5.7427">
        <ele>575</ele>
        <time>2019-10-27T15:14:52.000Z</time>
      </trkpt>
      <trkpt lat="45.55556" lon="5.74271">
        <ele>575</ele>
        <time>2019-10-27T15:14:53.000Z</time>
      </trkpt>
      <trkpt lat="45.55556" lon="5.74273">
        <ele>575</ele>
        <time>2019-10-27T15:14:54.000Z</time>
      </trkpt>
      <trkpt lat="45.55555" lon="5.74275">
        <ele>575</ele>
        <time>2019-10-27T15:14:55.000Z</time>
      </trkpt>
      <trkpt lat="45.55554" lon="5.74276">
        <ele>574.7</ele>
        <time>2019-10-27T15:14:56.000Z</time>
      </trkpt>
      <trkpt lat="45.55554" lon="5.74277">
        <ele>574.3</ele>
        <time>2019-10-27T15:14:57.000Z</time>
      </trkpt>
      <trkpt lat="45.55553" lon="5.74279">
        <ele>574</ele>
        <time>2019-10-27T15:14:58.000Z</time>
      </trkpt>
      <trkpt lat="45.55552" lon="5.7428">
        <ele>574</ele>
        <time>2019-10-27T15:14:59.000Z</time>
      </trkpt>
      <trkpt lat="45.55552" lon="5.74282">
        <ele>574</ele>
        <time>2019-10-27T15:15:00.000Z</time>
      </trkpt>
      <trkpt lat="45.55551" lon="5.74283">
        <ele>574</ele>
        <time>2019-10-27T15:15:01.000Z</time>
      </trkpt>
      <trkpt lat="45.55551" lon="5.74284">
        <ele>574</ele>
        <time>2019-10-27T15:15:02.000Z</time>
      </trkpt>
      <trkpt lat="45.5555" lon="5.74286">
        <ele>574</ele>
        <time>2019-10-27T15:15:03.000Z</time>
      </trkpt>
      <trkpt lat="45.5555" lon="5.74287">
        <ele>573.7</ele>
        <time>2019-10-27T15:15:04.000Z</time>
      </trkpt>
      <trkpt lat="45.55549" lon="5.74288">
        <ele>573.3</ele>
        <time>2019-10-27T15:15:05.000Z</time>
      </trkpt>
      <trkpt lat="45.55549" lon="5.74289">
        <ele>573</ele>
        <time>2019-10-27T15:15:06.000Z</time>
      </trkpt>
      <trkpt lat="45.55548" lon="5.74291">
        <ele>573</ele>
        <time>2019-10-27T15:15:07.000Z</time>
      </trkpt>
      <trkpt lat="45.55548" lon="5.74292">
        <ele>573</ele>
        <time>2019-10-27T15:15:08.000Z</time>
      </trkpt>
      <trkpt lat="45.55547" lon="5.74293">
        <ele>573</ele>
        <time>2019-10-27T15:15:09.000Z</time>
      </trkpt>
      <trkpt lat="45.55546" lon="5.74295">
        <ele>573</ele>
        <time>2019-10-27T15:15:10.000Z</time>
      </trkpt>
      <trkpt lat="45.55546" lon="5.74296">
        <ele>573</ele>
        <time>2019-10-27T15:15:11.000Z</time>
      </trkpt>
      <trkpt lat="45.55545" lon="5.74298">
        <ele>573</ele>
        <time>2019-10-27T15:15:12.000Z</time>
      </trkpt>
      <trkpt lat="45.55545" lon="5.74299">
        <ele>573</ele>
        <time>2019-10-27T15:15:13.000Z</time>
      </trkpt>
      <trkpt lat="45.55544" lon="5.74301">
        <ele>573</ele>
        <time>2019-10-27T15:15:14.000Z</time>
      </trkpt>
      <trkpt lat="45.55544" lon="5.74302">
        <ele>573</ele>
        <time>2019-10-27T15:15:15.000Z</time>
      </trkpt>
      <trkpt lat="45.55543" lon="5.74304">
        <ele>573</ele>
        <time>2019-10-27T15:15:16.000Z</time>
      </trkpt>
      <trkpt lat="45.55542" lon="5.74305">
        <ele>573</ele>
        <time>2019-10-27T15:15:17.000Z</time>
      </trkpt>
      <trkpt lat="45.55542" lon="5.74307">
        <ele>573</ele>
        <time>2019-10-27T15:15:18.000Z</time>
      </trkpt>
      <trkpt lat="45.55541" lon="5.74309">
        <ele>573</ele>
        <time>2019-10-27T15:15:19.000Z</time>
      </trkpt>
      <trkpt lat="45.5554" lon="5.74311">
        <ele>573</ele>
        <time>2019-10-27T15:15:20.000Z</time>
      </trkpt>
      <trkpt lat="45.55539" lon="5.74313">
        <ele>572</ele>
        <time>2019-10-27T15:15:21.000Z</time>
      </trkpt>
      <trkpt lat="45.55539" lon="5.74315">
        <ele>572</ele>
        <time>2019-10-27T15:15:22.000Z</time>
      </trkpt>
      <trkpt lat="45.55538" lon="5.74317">
        <ele>572</ele>
        <time>2019-10-27T15:15:23.000Z</time>
      </trkpt>
      <trkpt lat="45.55537" lon="5.74319">
        <ele>572</ele>
        <time>2019-10-27T15:15:24.000Z</time>
      </trkpt>
      <trkpt lat="45.55536" lon="5.74321">
        <ele>572</ele>
        <time>2019-10-27T15:15:25.000Z</time>
      </trkpt>
      <trkpt lat="45.55536" lon="5.74323">
        <ele>572</ele>
        <time>2019-10-27T15:15:26.000Z</time>
      </trkpt>
      <trkpt lat="45.55535" lon="5.74325">
        <ele>572</ele>
        <time>2019-10-27T15:15:27.000Z</time>
      </trkpt>
      <trkpt lat="45.55535" lon="5.74326">
        <ele>572</ele>
        <time>2019-10-27T15:15:28.000Z</time>
      </trkpt>
      <trkpt lat="45.55535" lon="5.74328">
        <ele>572</ele>
        <time>2019-10-27T15:15:29.000Z</time>
      </trkpt>
      <trkpt lat="45.55534" lon="5.7433">
        <ele>572</ele>
        <time>2019-10-27T15:15:30.000Z</time>
      </trkpt>
      <trkpt lat="45.55534" lon="5.74331">
        <ele>572</ele>
        <time>2019-10-27T15:15:31.000Z</time>
      </trkpt>
      <trkpt lat="45.55534" lon="5.74333">
        <ele>571.7</ele>
        <time>2019-10-27T15:15:32.000Z</time>
      </trkpt>
      <trkpt lat="45.55534" lon="5.74335">
        <ele>571.3</ele>
        <time>2019-10-27T15:15:33.000Z</time>
      </trkpt>
      <trkpt lat="45.55534" lon="5.74336">
        <ele>571</ele>
        <time>2019-10-27T15:15:34.000Z</time>
      </trkpt>
      <trkpt lat="45.55534" lon="5.74338">
        <ele>571</ele>
        <time>2019-10-27T15:15:35.000Z</time>
      </trkpt>
      <trkpt lat="45.55535" lon="5.74339">
        <ele>571</ele>
        <time>2019-10-27T15:15:36.000Z</time>
      </trkpt>
      <trkpt lat="45.55535" lon="5.7434">
        <ele>571</ele>
        <time>2019-10-27T15:15:37.000Z</time>
      </trkpt>
      <trkpt lat="45.55535" lon="5.74342">
        <ele>571</ele>
        <time>2019-10-27T15:15:38.000Z</time>
      </trkpt>
      <trkpt lat="45.55535" lon="5.74343">
        <ele>570</ele>
        <time>2019-10-27T15:15:39.000Z</time>
      </trkpt>
      <trkpt lat="45.55535" lon="5.74345">
        <ele>570</ele>
        <time>2019-10-27T15:15:40.000Z</time>
      </trkpt>
      <trkpt lat="45.55535" lon="5.74346">
        <ele>570</ele>
        <time>2019-10-27T15:15:41.000Z</time>
      </trkpt>
      <trkpt lat="45.55535" lon="5.74348">
        <ele>570</ele>
        <time>2019-10-27T15:15:42.000Z</time>
      </trkpt>
      <trkpt lat="45.55536" lon="5.74349">
        <ele>570</ele>
        <time>2019-10-27T15:15:43.000Z</time>
      </trkpt>
      <trkpt lat="45.55536" lon="5.74351">
        <ele>570</ele>
        <time>2019-10-27T15:15:44.000Z</time>
      </trkpt>
      <trkpt lat="45.55536" lon="5.74353">
        <ele>570</ele>
        <time>2019-10-27T15:15:45.000Z</time>
      </trkpt>
      <trkpt lat="45.55536" lon="5.74354">
        <ele>570</ele>
        <time>2019-10-27T15:15:46.000Z</time>
      </trkpt>
      <trkpt lat="45.55536" lon="5.74356">
        <ele>570</ele>
        <time>2019-10-27T15:15:47.000Z</time>
      </trkpt>
      <trkpt lat="45.55535" lon="5.74358">
        <ele>570</ele>
        <time>2019-10-27T15:15:48.000Z</time>
      </trkpt>
      <trkpt lat="45.55535" lon="5.7436">
        <ele>569</ele>
        <time>2019-10-27T15:15:49.000Z</time>
      </trkpt>
      <trkpt lat="45.55535" lon="5.74362">
        <ele>569</ele>
        <time>2019-10-27T15:15:50.000Z</time>
      </trkpt>
      <trkpt lat="45.55535" lon="5.74363">
        <ele>569</ele>
        <time>2019-10-27T15:15:51.000Z</time>
      </trkpt>
      <trkpt lat="45.55535" lon="5.74365">
        <ele>569</ele>
        <time>2019-10-27T15:15:52.000Z</time>
      </trkpt>
      <trkpt lat="45.55534" lon="5.74367">
        <ele>569</ele>
        <time>2019-10-27T15:15:53.000Z</time>
      </trkpt>
      <trkpt lat="45.55534" lon="5.74369">
        <ele>568.7</ele>
        <time>2019-10-27T15:15:54.000Z</time>
      </trkpt>
      <trkpt lat="45.55534" lon="5.74371">
        <ele>568.3</ele>
        <time>2019-10-27T15:15:55.000Z</time>
      </trkpt>
      <trkpt lat="45.55533" lon="5.74373">
        <ele>568</ele>
        <time>2019-10-27T15:15:56.000Z</time>
      </trkpt>
      <trkpt lat="45.55533" lon="5.74374">
        <ele>568</ele>
        <time>2019-10-27T15:15:57.000Z</time>
      </trkpt>
      <trkpt lat="45.55532" lon="5.74376">
        <ele>568</ele>
        <time>2019-10-27T15:15:58.000Z</time>
      </trkpt>
      <trkpt lat="45.55532" lon="5.74378">
        <ele>568</ele>
        <time>2019-10-27T15:15:59.000Z</time>
      </trkpt>
      <trkpt lat="45.55532" lon="5.7438">
        <ele>568</ele>
        <time>2019-10-27T15:16:00.000Z</time>
      </trkpt>
      <trkpt lat="45.55531" lon="5.74381">
        <ele>568</ele>
        <time>2019-10-27T15:16:01.000Z</time>
      </trkpt>
      <trkpt lat="45.55531" lon="5.74383">
        <ele>568</ele>
        <time>2019-10-27T15:16:02.000Z</time>
      </trkpt>
      <trkpt lat="45.5553" lon="5.74384">
        <ele>567</ele>
        <time>2019-10-27T15:16:03.000Z</time>
      </trkpt>
      <trkpt lat="45.5553" lon="5.74386">
        <ele>567</ele>
        <time>2019-10-27T15:16:04.000Z</time>
      </trkpt>
      <trkpt lat="45.55529" lon="5.74387">
        <ele>567</ele>
        <time>2019-10-27T15:16:05.000Z</time>
      </trkpt>
      <trkpt lat="45.55529" lon="5.74389">
        <ele>567</ele>
        <time>2019-10-27T15:16:06.000Z</time>
      </trkpt>
      <trkpt lat="45.55529" lon="5.7439">
        <ele>567</ele>
        <time>2019-10-27T15:16:07.000Z</time>
      </trkpt>
      <trkpt lat="45.55528" lon="5.74391">
        <ele>567</ele>
        <time>2019-10-27T15:16:08.000Z</time>
      </trkpt>
      <trkpt lat="45.55528" lon="5.74393">
        <ele>567</ele>
        <time>2019-10-27T15:16:09.000Z</time>
      </trkpt>
      <trkpt lat="45.55527" lon="5.74394">
        <ele>567</ele>
        <time>2019-10-27T15:16:10.000Z</time>
      </trkpt>
      <trkpt lat="45.55527" lon="5.74395">
        <ele>567</ele>
        <time>2019-10-27T15:16:11.000Z</time>
      </trkpt>
      <trkpt lat="45.55526" lon="5.74397">
        <ele>566.7</ele>
        <time>2019-10-27T15:16:12.000Z</time>
      </trkpt>
      <trkpt lat="45.55526" lon="5.74398">
        <ele>566.3</ele>
        <time>2019-10-27T15:16:13.000Z</time>
      </trkpt>
      <trkpt lat="45.55526" lon="5.74399">
        <ele>566</ele>
        <time>2019-10-27T15:16:14.000Z</time>
      </trkpt>
      <trkpt lat="45.55525" lon="5.74401">
        <ele>566</ele>
        <time>2019-10-27T15:16:15.000Z</time>
      </trkpt>
      <trkpt lat="45.55525" lon="5.74402">
        <ele>566</ele>
        <time>2019-10-27T15:16:16.000Z</time>
      </trkpt>
      <trkpt lat="45.55525" lon="5.74403">
        <ele>566</ele>
        <time>2019-10-27T15:16:17.000Z</time>
      </trkpt>
      <trkpt lat="45.55524" lon="5.74404">
        <ele>566</ele>
        <time>2019-10-27T15:16:18.000Z</time>
      </trkpt>
      <trkpt lat="45.55524" lon="5.74406">
        <ele>566</ele>
        <time>2019-10-27T15:16:19.000Z</time>
      </trkpt>
      <trkpt lat="45.55524" lon="5.74407">
        <ele>566</ele>
        <time>2019-10-27T15:16:20.000Z</time>
      </trkpt>
      <trkpt lat="45.55523" lon="5.74409">
        <ele>566</ele>
        <time>2019-10-27T15:16:21.000Z</time>
      </trkpt>
      <trkpt lat="45.55523" lon="5.7441">
        <ele>566</ele>
        <time>2019-10-27T15:16:22.000Z</time>
      </trkpt>
      <trkpt lat="45.55523" lon="5.74411">
        <ele>565</ele>
        <time>2019-10-27T15:16:23.000Z</time>
      </trkpt>
      <trkpt lat="45.55522" lon="5.74413">
        <ele>565</ele>
        <time>2019-10-27T15:16:24.000Z</time>
      </trkpt>
      <trkpt lat="45.55522" lon="5.74415">
        <ele>565</ele>
        <time>2019-10-27T15:16:25.000Z</time>
      </trkpt>
      <trkpt lat="45.55521" lon="5.74416">
        <ele>565</ele>
        <time>2019-10-27T15:16:26.000Z</time>
      </trkpt>
      <trkpt lat="45.5552" lon="5.74418">
        <ele>565</ele>
        <time>2019-10-27T15:16:27.000Z</time>
      </trkpt>
      <trkpt lat="45.55519" lon="5.7442">
        <ele>565</ele>
        <time>2019-10-27T15:16:28.000Z</time>
      </trkpt>
      <trkpt lat="45.55518" lon="5.74421">
        <ele>565</ele>
        <time>2019-10-27T15:16:29.000Z</time>
      </trkpt>
      <trkpt lat="45.55517" lon="5.74423">
        <ele>565</ele>
        <time>2019-10-27T15:16:30.000Z</time>
      </trkpt>
      <trkpt lat="45.55516" lon="5.74425">
        <ele>564</ele>
        <time>2019-10-27T15:16:31.000Z</time>
      </trkpt>
      <trkpt lat="45.55515" lon="5.74427">
        <ele>564</ele>
        <time>2019-10-27T15:16:32.000Z</time>
      </trkpt>
      <trkpt lat="45.55515" lon="5.74428">
        <ele>564</ele>
        <time>2019-10-27T15:16:33.000Z</time>
      </trkpt>
      <trkpt lat="45.55514" lon="5.7443">
        <ele>564</ele>
        <time>2019-10-27T15:16:34.000Z</time>
      </trkpt>
      <trkpt lat="45.55511" lon="5.74433">
        <ele>564</ele>
        <time>2019-10-27T15:16:35.000Z</time>
      </trkpt>
      <trkpt lat="45.55509" lon="5.74435">
        <ele>564</ele>
        <time>2019-10-27T15:16:36.000Z</time>
      </trkpt>
      <trkpt lat="45.55507" lon="5.74436">
        <ele>564</ele>
        <time>2019-10-27T15:16:37.000Z</time>
      </trkpt>
      <trkpt lat="45.55505" lon="5.74436">
        <ele>564</ele>
        <time>2019-10-27T15:16:38.000Z</time>
      </trkpt>
      <trkpt lat="45.55504" lon="5.74435">
        <ele>564</ele>
        <time>2019-10-27T15:16:39.000Z</time>
      </trkpt>
      <trkpt lat="45.55504" lon="5.74434">
        <ele>564</ele>
        <time>2019-10-27T15:16:40.000Z</time>
      </trkpt>
      <trkpt lat="45.55504" lon="5.74432">
        <ele>564</ele>
        <time>2019-10-27T15:16:41.000Z</time>
      </trkpt>
      <trkpt lat="45.55504" lon="5.74432">
        <ele>564</ele>
        <time>2019-10-27T15:16:42.000Z</time>
      </trkpt>
      <trkpt lat="45.55504" lon="5.74431">
        <ele>564</ele>
        <time>2019-10-27T15:16:43.000Z</time>
      </trkpt>
      <trkpt lat="45.55504" lon="5.74431">
        <ele>564</ele>
        <time>2019-10-27T15:16:44.000Z</time>
      </trkpt>
      <trkpt lat="45.55504" lon="5.74431">
        <ele>563</ele>
        <time>2019-10-27T15:16:45.000Z</time>
      </trkpt>
      <trkpt lat="45.55504" lon="5.74431">
        <ele>563</ele>
        <time>2019-10-27T15:16:46.000Z</time>
      </trkpt>
      <trkpt lat="45.55504" lon="5.74431">
        <ele>563</ele>
        <time>2019-10-27T15:16:47.000Z</time>
      </trkpt>
      <trkpt lat="45.55504" lon="5.74431">
        <ele>563</ele>
        <time>2019-10-27T15:16:48.000Z</time>
      </trkpt>
      <trkpt lat="45.55504" lon="5.74431">
        <ele>564</ele>
        <time>2019-10-27T15:16:49.000Z</time>
      </trkpt>
      <trkpt lat="45.55504" lon="5.74431">
        <ele>564</ele>
        <time>2019-10-27T15:16:50.000Z</time>
      </trkpt>
      <trkpt lat="45.55504" lon="5.7443">
        <ele>564</ele>
        <time>2019-10-27T15:16:51.000Z</time>
      </trkpt>
      <trkpt lat="45.55504" lon="5.7443">
        <ele>564</ele>
        <time>2019-10-27T15:16:52.000Z</time>
      </trkpt>
      <trkpt lat="45.55504" lon="5.7443">
        <ele>564</ele>
        <time>2019-10-27T15:16:53.000Z</time>
      </trkpt>
      <trkpt lat="45.55504" lon="5.74429">
        <ele>564</ele>
        <time>2019-10-27T15:16:54.000Z</time>
      </trkpt>
      <trkpt lat="45.55504" lon="5.74429">
        <ele>564</ele>
        <time>2019-10-27T15:16:55.000Z</time>
      </trkpt>
      <trkpt lat="45.55504" lon="5.74428">
        <ele>564</ele>
        <time>2019-10-27T15:16:56.000Z</time>
      </trkpt>
      <trkpt lat="45.55503" lon="5.74428">
        <ele>564</ele>
        <time>2019-10-27T15:16:57.000Z</time>
      </trkpt>
      <trkpt lat="45.55503" lon="5.74427">
        <ele>564</ele>
        <time>2019-10-27T15:16:58.000Z</time>
      </trkpt>
      <trkpt lat="45.55503" lon="5.74427">
        <ele>564</ele>
        <time>2019-10-27T15:16:59.000Z</time>
      </trkpt>
      <trkpt lat="45.55502" lon="5.74427">
        <ele>564</ele>
        <time>2019-10-27T15:17:00.000Z</time>
      </trkpt>
      <trkpt lat="45.55501" lon="5.74427">
        <ele>564</ele>
        <time>2019-10-27T15:17:01.000Z</time>
      </trkpt>
      <trkpt lat="45.555" lon="5.74427">
        <ele>564</ele>
        <time>2019-10-27T15:17:02.000Z</time>
      </trkpt>
      <trkpt lat="45.55499" lon="5.74428">
        <ele>563.5</ele>
        <time>2019-10-27T15:17:03.000Z</time>
      </trkpt>
      <trkpt lat="45.55497" lon="5.74429">
        <ele>563</ele>
        <time>2019-10-27T15:17:04.000Z</time>
      </trkpt>
      <trkpt lat="45.55496" lon="5.7443">
        <ele>563</ele>
        <time>2019-10-27T15:17:05.000Z</time>
      </trkpt>
      <trkpt lat="45.55494" lon="5.74431">
        <ele>563</ele>
        <time>2019-10-27T15:17:06.000Z</time>
      </trkpt>
      <trkpt lat="45.55492" lon="5.74433">
        <ele>563</ele>
        <time>2019-10-27T15:17:07.000Z</time>
      </trkpt>
      <trkpt lat="45.5549" lon="5.74434">
        <ele>563</ele>
        <time>2019-10-27T15:17:08.000Z</time>
      </trkpt>
      <trkpt lat="45.55488" lon="5.74435">
        <ele>563</ele>
        <time>2019-10-27T15:17:09.000Z</time>
      </trkpt>
      <trkpt lat="45.55486" lon="5.74437">
        <ele>563</ele>
        <time>2019-10-27T15:17:10.000Z</time>
      </trkpt>
      <trkpt lat="45.55484" lon="5.74438">
        <ele>563</ele>
        <time>2019-10-27T15:17:11.000Z</time>
      </trkpt>
      <trkpt lat="45.55482" lon="5.74438">
        <ele>563</ele>
        <time>2019-10-27T15:17:12.000Z</time>
      </trkpt>
      <trkpt lat="45.5548" lon="5.74439">
        <ele>563</ele>
        <time>2019-10-27T15:17:13.000Z</time>
      </trkpt>
      <trkpt lat="45.55479" lon="5.7444">
        <ele>563</ele>
        <time>2019-10-27T15:17:14.000Z</time>
      </trkpt>
      <trkpt lat="45.55478" lon="5.7444">
        <ele>563</ele>
        <time>2019-10-27T15:17:15.000Z</time>
      </trkpt>
      <trkpt lat="45.55476" lon="5.74441">
        <ele>563</ele>
        <time>2019-10-27T15:17:16.000Z</time>
      </trkpt>
      <trkpt lat="45.55475" lon="5.74441">
        <ele>563</ele>
        <time>2019-10-27T15:17:17.000Z</time>
      </trkpt>
      <trkpt lat="45.55474" lon="5.74441">
        <ele>563</ele>
        <time>2019-10-27T15:17:18.000Z</time>
      </trkpt>
      <trkpt lat="45.55472" lon="5.74441">
        <ele>563</ele>
        <time>2019-10-27T15:17:19.000Z</time>
      </trkpt>
      <trkpt lat="45.55471" lon="5.74441">
        <ele>563</ele>
        <time>2019-10-27T15:17:20.000Z</time>
      </trkpt>
      <trkpt lat="45.5547" lon="5.74441">
        <ele>563</ele>
        <time>2019-10-27T15:17:21.000Z</time>
      </trkpt>
      <trkpt lat="45.55469" lon="5.74441">
        <ele>563</ele>
        <time>2019-10-27T15:17:22.000Z</time>
      </trkpt>
      <trkpt lat="45.55468" lon="5.74441">
        <ele>563</ele>
        <time>2019-10-27T15:17:23.000Z</time>
      </trkpt>
      <trkpt lat="45.55467" lon="5.74441">
        <ele>563</ele>
        <time>2019-10-27T15:17:24.000Z</time>
      </trkpt>
      <trkpt lat="45.55466" lon="5.74441">
        <ele>563</ele>
        <time>2019-10-27T15:17:25.000Z</time>
      </trkpt>
      <trkpt lat="45.55465" lon="5.7444">
        <ele>563</ele>
        <time>2019-10-27T15:17:26.000Z</time>
      </trkpt>
      <trkpt lat="45.55463" lon="5.7444">
        <ele>563</ele>
        <time>2019-10-27T15:17:27.000Z</time>
      </trkpt>
      <trkpt lat="45.55462" lon="5.7444">
        <ele>563</ele>
        <time>2019-10-27T15:17:28.000Z</time>
      </trkpt>
      <trkpt lat="45.55461" lon="5.7444">
        <ele>563</ele>
        <time>2019-10-27T15:17:29.000Z</time>
      </trkpt>
      <trkpt lat="45.5546" lon="5.7444">
        <ele>563</ele>
        <time>2019-10-27T15:17:30.000Z</time>
      </trkpt>
      <trkpt lat="45.55458" lon="5.7444">
        <ele>563</ele>
        <time>2019-10-27T15:17:31.000Z</time>
      </trkpt>
      <trkpt lat="45.55457" lon="5.74439">
        <ele>563</ele>
        <time>2019-10-27T15:17:32.000Z</time>
      </trkpt>
      <trkpt lat="45.55456" lon="5.74439">
        <ele>563</ele>
        <time>2019-10-27T15:17:33.000Z</time>
      </trkpt>
      <trkpt lat="45.55454" lon="5.74439">
        <ele>563</ele>
        <time>2019-10-27T15:17:34.000Z</time>
      </trkpt>
      <trkpt lat="45.55453" lon="5.74439">
        <ele>563</ele>
        <time>2019-10-27T15:17:35.000Z</time>
      </trkpt>
      <trkpt lat="45.55451" lon="5.74439">
        <ele>563</ele>
        <time>2019-10-27T15:17:36.000Z</time>
      </trkpt>
      <trkpt lat="45.5545" lon="5.7444">
        <ele>563</ele>
        <time>2019-10-27T15:17:37.000Z</time>
      </trkpt>
      <trkpt lat="45.55448" lon="5.7444">
        <ele>563</ele>
        <time>2019-10-27T15:17:38.000Z</time>
      </trkpt>
      <trkpt lat="45.55447" lon="5.7444">
        <ele>563</ele>
        <time>2019-10-27T15:17:39.000Z</time>
      </trkpt>
      <trkpt lat="45.55445" lon="5.7444">
        <ele>563</ele>
        <time>2019-10-27T15:17:40.000Z</time>
      </trkpt>
      <trkpt lat="45.55444" lon="5.7444">
        <ele>563</ele>
        <time>2019-10-27T15:17:41.000Z</time>
      </trkpt>
      <trkpt lat="45.55443" lon="5.7444">
        <ele>563</ele>
        <time>2019-10-27T15:17:42.000Z</time>
      </trkpt>
      <trkpt lat="45.55441" lon="5.7444">
        <ele>563</ele>
        <time>2019-10-27T15:17:43.000Z</time>
      </trkpt>
      <trkpt lat="45.5544" lon="5.7444">
        <ele>563</ele>
        <time>2019-10-27T15:17:44.000Z</time>
      </trkpt>
      <trkpt lat="45.55439" lon="5.7444">
        <ele>563</ele>
        <time>2019-10-27T15:17:45.000Z</time>
      </trkpt>
      <trkpt lat="45.55439" lon="5.74439">
        <ele>563</ele>
        <time>2019-10-27T15:17:46.000Z</time>
      </trkpt>
      <trkpt lat="45.55438" lon="5.74438">
        <ele>563</ele>
        <time>2019-10-27T15:17:47.000Z</time>
      </trkpt>
      <trkpt lat="45.55437" lon="5.74437">
        <ele>563</ele>
        <time>2019-10-27T15:17:48.000Z</time>
      </trkpt>
      <trkpt lat="45.55437" lon="5.74436">
        <ele>563</ele>
        <time>2019-10-27T15:17:49.000Z</time>
      </trkpt>
      <trkpt lat="45.55437" lon="5.74435">
        <ele>563</ele>
        <time>2019-10-27T15:17:50.000Z</time>
      </trkpt>
      <trkpt lat="45.55436" lon="5.74433">
        <ele>563</ele>
        <time>2019-10-27T15:17:51.000Z</time>
      </trkpt>
      <trkpt lat="45.55436" lon="5.74432">
        <ele>563</ele>
        <time>2019-10-27T15:17:52.000Z</time>
      </trkpt>
      <trkpt lat="45.55436" lon="5.7443">
        <ele>563</ele>
        <time>2019-10-27T15:17:53.000Z</time>
      </trkpt>
      <trkpt lat="45.55436" lon="5.74429">
        <ele>563</ele>
        <time>2019-10-27T15:17:54.000Z</time>
      </trkpt>
      <trkpt lat="45.55436" lon="5.74427">
        <ele>563</ele>
        <time>2019-10-27T15:17:55.000Z</time>
      </trkpt>
      <trkpt lat="45.55435" lon="5.74426">
        <ele>563</ele>
        <time>2019-10-27T15:17:56.000Z</time>
      </trkpt>
      <trkpt lat="45.55435" lon="5.74425">
        <ele>562</ele>
        <time>2019-10-27T15:17:57.000Z</time>
      </trkpt>
      <trkpt lat="45.55435" lon="5.74423">
        <ele>562</ele>
        <time>2019-10-27T15:17:58.000Z</time>
      </trkpt>
      <trkpt lat="45.55435" lon="5.74422">
        <ele>562</ele>
        <time>2019-10-27T15:17:59.000Z</time>
      </trkpt>
      <trkpt lat="45.55434" lon="5.74421">
        <ele>562</ele>
        <time>2019-10-27T15:18:00.000Z</time>
      </trkpt>
      <trkpt lat="45.55434" lon="5.7442">
        <ele>562</ele>
        <time>2019-10-27T15:18:01.000Z</time>
      </trkpt>
      <trkpt lat="45.55433" lon="5.74419">
        <ele>562</ele>
        <time>2019-10-27T15:18:02.000Z</time>
      </trkpt>
      <trkpt lat="45.55433" lon="5.74418">
        <ele>562</ele>
        <time>2019-10-27T15:18:03.000Z</time>
      </trkpt>
      <trkpt lat="45.55432" lon="5.74418">
        <ele>562</ele>
        <time>2019-10-27T15:18:04.000Z</time>
      </trkpt>
      <trkpt lat="45.55431" lon="5.74418">
        <ele>562</ele>
        <time>2019-10-27T15:18:05.000Z</time>
      </trkpt>
      <trkpt lat="45.5543" lon="5.74417">
        <ele>562</ele>
        <time>2019-10-27T15:18:06.000Z</time>
      </trkpt>
      <trkpt lat="45.55429" lon="5.74417">
        <ele>562</ele>
        <time>2019-10-27T15:18:07.000Z</time>
      </trkpt>
      <trkpt lat="45.55427" lon="5.74417">
        <ele>562</ele>
        <time>2019-10-27T15:18:08.000Z</time>
      </trkpt>
      <trkpt lat="45.55426" lon="5.74417">
        <ele>562</ele>
        <time>2019-10-27T15:18:09.000Z</time>
      </trkpt>
      <trkpt lat="45.55425" lon="5.74416">
        <ele>562</ele>
        <time>2019-10-27T15:18:10.000Z</time>
      </trkpt>
      <trkpt lat="45.55424" lon="5.74416">
        <ele>562</ele>
        <time>2019-10-27T15:18:11.000Z</time>
      </trkpt>
      <trkpt lat="45.55423" lon="5.74415">
        <ele>562</ele>
        <time>2019-10-27T15:18:12.000Z</time>
      </trkpt>
      <trkpt lat="45.55421" lon="5.74414">
        <ele>562</ele>
        <time>2019-10-27T15:18:13.000Z</time>
      </trkpt>
      <trkpt lat="45.5542" lon="5.74414">
        <ele>562</ele>
        <time>2019-10-27T15:18:14.000Z</time>
      </trkpt>
      <trkpt lat="45.55419" lon="5.74413">
        <ele>562</ele>
        <time>2019-10-27T15:18:15.000Z</time>
      </trkpt>
      <trkpt lat="45.55417" lon="5.74413">
        <ele>562</ele>
        <time>2019-10-27T15:18:16.000Z</time>
      </trkpt>
      <trkpt lat="45.55416" lon="5.74412">
        <ele>562</ele>
        <time>2019-10-27T15:18:17.000Z</time>
      </trkpt>
      <trkpt lat="45.55414" lon="5.74412">
        <ele>562</ele>
        <time>2019-10-27T15:18:18.000Z</time>
      </trkpt>
      <trkpt lat="45.55413" lon="5.74413">
        <ele>562</ele>
        <time>2019-10-27T15:18:19.000Z</time>
      </trkpt>
      <trkpt lat="45.55411" lon="5.74413">
        <ele>562</ele>
        <time>2019-10-27T15:18:20.000Z</time>
      </trkpt>
      <trkpt lat="45.55409" lon="5.74414">
        <ele>562</ele>
        <time>2019-10-27T15:18:21.000Z</time>
      </trkpt>
      <trkpt lat="45.55407" lon="5.74415">
        <ele>562</ele>
        <time>2019-10-27T15:18:22.000Z</time>
      </trkpt>
      <trkpt lat="45.55405" lon="5.74417">
        <ele>562</ele>
        <time>2019-10-27T15:18:23.000Z</time>
      </trkpt>
      <trkpt lat="45.55403" lon="5.74418">
        <ele>562</ele>
        <time>2019-10-27T15:18:24.000Z</time>
      </trkpt>
      <trkpt lat="45.55401" lon="5.74418">
        <ele>562</ele>
        <time>2019-10-27T15:18:25.000Z</time>
      </trkpt>
      <trkpt lat="45.554" lon="5.74419">
        <ele>562</ele>
        <time>2019-10-27T15:18:26.000Z</time>
      </trkpt>
      <trkpt lat="45.55398" lon="5.74419">
        <ele>562</ele>
        <time>2019-10-27T15:18:27.000Z</time>
      </trkpt>
      <trkpt lat="45.55397" lon="5.74418">
        <ele>562</ele>
        <time>2019-10-27T15:18:28.000Z</time>
      </trkpt>
      <trkpt lat="45.55397" lon="5.74417">
        <ele>563</ele>
        <time>2019-10-27T15:18:29.000Z</time>
      </trkpt>
      <trkpt lat="45.55396" lon="5.74415">
        <ele>563</ele>
        <time>2019-10-27T15:18:30.000Z</time>
      </trkpt>
      <trkpt lat="45.55396" lon="5.74412">
        <ele>563</ele>
        <time>2019-10-27T15:18:31.000Z</time>
      </trkpt>
      <trkpt lat="45.55396" lon="5.74409">
        <ele>563</ele>
        <time>2019-10-27T15:18:32.000Z</time>
      </trkpt>
      <trkpt lat="45.55397" lon="5.74406">
        <ele>563</ele>
        <time>2019-10-27T15:18:33.000Z</time>
      </trkpt>
      <trkpt lat="45.55397" lon="5.74402">
        <ele>563</ele>
        <time>2019-10-27T15:18:34.000Z</time>
      </trkpt>
      <trkpt lat="45.55398" lon="5.74398">
        <ele>563</ele>
        <time>2019-10-27T15:18:35.000Z</time>
      </trkpt>
      <trkpt lat="45.55399" lon="5.74395">
        <ele>563</ele>
        <time>2019-10-27T15:18:36.000Z</time>
      </trkpt>
      <trkpt lat="45.55399" lon="5.74391">
        <ele>563</ele>
        <time>2019-10-27T15:18:37.000Z</time>
      </trkpt>
      <trkpt lat="45.554" lon="5.74388">
        <ele>563</ele>
        <time>2019-10-27T15:18:38.000Z</time>
      </trkpt>
      <trkpt lat="45.55401" lon="5.74385">
        <ele>562</ele>
        <time>2019-10-27T15:18:39.000Z</time>
      </trkpt>
      <trkpt lat="45.55401" lon="5.74382">
        <ele>562</ele>
        <time>2019-10-27T15:18:40.000Z</time>
      </trkpt>
      <trkpt lat="45.55402" lon="5.74379">
        <ele>562</ele>
        <time>2019-10-27T15:18:41.000Z</time>
      </trkpt>
      <trkpt lat="45.55403" lon="5.74376">
        <ele>562</ele>
        <time>2019-10-27T15:18:42.000Z</time>
      </trkpt>
      <trkpt lat="45.55403" lon="5.74374">
        <ele>562</ele>
        <time>2019-10-27T15:18:43.000Z</time>
      </trkpt>
      <trkpt lat="45.55404" lon="5.74372">
        <ele>562</ele>
        <time>2019-10-27T15:18:44.000Z</time>
      </trkpt>
      <trkpt lat="45.55404" lon="5.7437">
        <ele>562</ele>
        <time>2019-10-27T15:18:45.000Z</time>
      </trkpt>
      <trkpt lat="45.55404" lon="5.74368">
        <ele>562</ele>
        <time>2019-10-27T15:18:46.000Z</time>
      </trkpt>
      <trkpt lat="45.55405" lon="5.74366">
        <ele>562</ele>
        <time>2019-10-27T15:18:47.000Z</time>
      </trkpt>
      <trkpt lat="45.55405" lon="5.74364">
        <ele>562</ele>
        <time>2019-10-27T15:18:48.000Z</time>
      </trkpt>
      <trkpt lat="45.55405" lon="5.74363">
        <ele>562</ele>
        <time>2019-10-27T15:18:49.000Z</time>
      </trkpt>
      <trkpt lat="45.55405" lon="5.74362">
        <ele>562</ele>
        <time>2019-10-27T15:18:50.000Z</time>
      </trkpt>
      <trkpt lat="45.55405" lon="5.74361">
        <ele>562</ele>
        <time>2019-10-27T15:18:51.000Z</time>
      </trkpt>
      <trkpt lat="45.55405" lon="5.74359">
        <ele>562</ele>
        <time>2019-10-27T15:18:52.000Z</time>
      </trkpt>
      <trkpt lat="45.55405" lon="5.74359">
        <ele>562</ele>
        <time>2019-10-27T15:18:53.000Z</time>
      </trkpt>
      <trkpt lat="45.55405" lon="5.74358">
        <ele>562</ele>
        <time>2019-10-27T15:18:54.000Z</time>
      </trkpt>
      <trkpt lat="45.55404" lon="5.74357">
        <ele>561</ele>
        <time>2019-10-27T15:18:55.000Z</time>
      </trkpt>
      <trkpt lat="45.55404" lon="5.74356">
        <ele>561</ele>
        <time>2019-10-27T15:18:56.000Z</time>
      </trkpt>
      <trkpt lat="45.55403" lon="5.74356">
        <ele>561</ele>
        <time>2019-10-27T15:18:57.000Z</time>
      </trkpt>
      <trkpt lat="45.55403" lon="5.74355">
        <ele>561</ele>
        <time>2019-10-27T15:18:58.000Z</time>
      </trkpt>
      <trkpt lat="45.55402" lon="5.74355">
        <ele>561</ele>
        <time>2019-10-27T15:18:59.000Z</time>
      </trkpt>
      <trkpt lat="45.55401" lon="5.74355">
        <ele>561</ele>
        <time>2019-10-27T15:19:00.000Z</time>
      </trkpt>
      <trkpt lat="45.554" lon="5.74355">
        <ele>561</ele>
        <time>2019-10-27T15:19:01.000Z</time>
      </trkpt>
      <trkpt lat="45.554" lon="5.74355">
        <ele>560</ele>
        <time>2019-10-27T15:19:02.000Z</time>
      </trkpt>
      <trkpt lat="45.55399" lon="5.74355">
        <ele>560</ele>
        <time>2019-10-27T15:19:03.000Z</time>
      </trkpt>
      <trkpt lat="45.55398" lon="5.74356">
        <ele>560</ele>
        <time>2019-10-27T15:19:04.000Z</time>
      </trkpt>
      <trkpt lat="45.55397" lon="5.74356">
        <ele>560</ele>
        <time>2019-10-27T15:19:05.000Z</time>
      </trkpt>
      <trkpt lat="45.55396" lon="5.74357">
        <ele>560</ele>
        <time>2019-10-27T15:19:06.000Z</time>
      </trkpt>
      <trkpt lat="45.55395" lon="5.74358">
        <ele>559.7</ele>
        <time>2019-10-27T15:19:07.000Z</time>
      </trkpt>
      <trkpt lat="45.55394" lon="5.74359">
        <ele>559.3</ele>
        <time>2019-10-27T15:19:08.000Z</time>
      </trkpt>
      <trkpt lat="45.55394" lon="5.7436">
        <ele>559</ele>
        <time>2019-10-27T15:19:09.000Z</time>
      </trkpt>
      <trkpt lat="45.55393" lon="5.74361">
        <ele>559</ele>
        <time>2019-10-27T15:19:10.000Z</time>
      </trkpt>
      <trkpt lat="45.55392" lon="5.74362">
        <ele>559</ele>
        <time>2019-10-27T15:19:11.000Z</time>
      </trkpt>
      <trkpt lat="45.55391" lon="5.74363">
        <ele>559</ele>
        <time>2019-10-27T15:19:12.000Z</time>
      </trkpt>
      <trkpt lat="45.5539" lon="5.74365">
        <ele>559</ele>
        <time>2019-10-27T15:19:13.000Z</time>
      </trkpt>
      <trkpt lat="45.55389" lon="5.74366">
        <ele>558.5</ele>
        <time>2019-10-27T15:19:14.000Z</time>
      </trkpt>
      <trkpt lat="45.55388" lon="5.74367">
        <ele>558</ele>
        <time>2019-10-27T15:19:15.000Z</time>
      </trkpt>
      <trkpt lat="45.55387" lon="5.74369">
        <ele>558</ele>
        <time>2019-10-27T15:19:16.000Z</time>
      </trkpt>
      <trkpt lat="45.55387" lon="5.7437">
        <ele>558</ele>
        <time>2019-10-27T15:19:17.000Z</time>
      </trkpt>
      <trkpt lat="45.55386" lon="5.74372">
        <ele>558</ele>
        <time>2019-10-27T15:19:18.000Z</time>
      </trkpt>
      <trkpt lat="45.55385" lon="5.74373">
        <ele>558</ele>
        <time>2019-10-27T15:19:19.000Z</time>
      </trkpt>
      <trkpt lat="45.55384" lon="5.74375">
        <ele>558</ele>
        <time>2019-10-27T15:19:20.000Z</time>
      </trkpt>
      <trkpt lat="45.55383" lon="5.74376">
        <ele>558</ele>
        <time>2019-10-27T15:19:21.000Z</time>
      </trkpt>
      <trkpt lat="45.55383" lon="5.74378">
        <ele>558</ele>
        <time>2019-10-27T15:19:22.000Z</time>
      </trkpt>
      <trkpt lat="45.55382" lon="5.74379">
        <ele>558</ele>
        <time>2019-10-27T15:19:23.000Z</time>
      </trkpt>
      <trkpt lat="45.55381" lon="5.74381">
        <ele>558</ele>
        <time>2019-10-27T15:19:24.000Z</time>
      </trkpt>
      <trkpt lat="45.5538" lon="5.74382">
        <ele>558</ele>
        <time>2019-10-27T15:19:25.000Z</time>
      </trkpt>
      <trkpt lat="45.5538" lon="5.74384">
        <ele>557</ele>
        <time>2019-10-27T15:19:26.000Z</time>
      </trkpt>
      <trkpt lat="45.55379" lon="5.74385">
        <ele>557</ele>
        <time>2019-10-27T15:19:27.000Z</time>
      </trkpt>
      <trkpt lat="45.55378" lon="5.74387">
        <ele>557</ele>
        <time>2019-10-27T15:19:28.000Z</time>
      </trkpt>
      <trkpt lat="45.55377" lon="5.74389">
        <ele>557</ele>
        <time>2019-10-27T15:19:29.000Z</time>
      </trkpt>
      <trkpt lat="45.55377" lon="5.7439">
        <ele>557</ele>
        <time>2019-10-27T15:19:30.000Z</time>
      </trkpt>
      <trkpt lat="45.55376" lon="5.74392">
        <ele>557</ele>
        <time>2019-10-27T15:19:31.000Z</time>
      </trkpt>
      <trkpt lat="45.55375" lon="5.74394">
        <ele>557</ele>
        <time>2019-10-27T15:19:32.000Z</time>
      </trkpt>
      <trkpt lat="45.55373" lon="5.74396">
        <ele>557</ele>
        <time>2019-10-27T15:19:33.000Z</time>
      </trkpt>
      <trkpt lat="45.55372" lon="5.74399">
        <ele>557</ele>
        <time>2019-10-27T15:19:34.000Z</time>
      </trkpt>
      <trkpt lat="45.5537" lon="5.74402">
        <ele>557</ele>
        <time>2019-10-27T15:19:35.000Z</time>
      </trkpt>
      <trkpt lat="45.55368" lon="5.74406">
        <ele>557</ele>
        <time>2019-10-27T15:19:36.000Z</time>
      </trkpt>
      <trkpt lat="45.55367" lon="5.74409">
        <ele>557</ele>
        <time>2019-10-27T15:19:37.000Z</time>
      </trkpt>
      <trkpt lat="45.55366" lon="5.74411">
        <ele>556</ele>
        <time>2019-10-27T15:19:38.000Z</time>
      </trkpt>
      <trkpt lat="45.55364" lon="5.74413">
        <ele>556</ele>
        <time>2019-10-27T15:19:39.000Z</time>
      </trkpt>
      <trkpt lat="45.55363" lon="5.74415">
        <ele>556</ele>
        <time>2019-10-27T15:19:40.000Z</time>
      </trkpt>
      <trkpt lat="45.55363" lon="5.74417">
        <ele>556</ele>
        <time>2019-10-27T15:19:41.000Z</time>
      </trkpt>
      <trkpt lat="45.55362" lon="5.74418">
        <ele>556</ele>
        <time>2019-10-27T15:19:42.000Z</time>
      </trkpt>
      <trkpt lat="45.55361" lon="5.7442">
        <ele>556</ele>
        <time>2019-10-27T15:19:43.000Z</time>
      </trkpt>
      <trkpt lat="45.55361" lon="5.74421">
        <ele>556</ele>
        <time>2019-10-27T15:19:44.000Z</time>
      </trkpt>
      <trkpt lat="45.5536" lon="5.74422">
        <ele>556</ele>
        <time>2019-10-27T15:19:45.000Z</time>
      </trkpt>
      <trkpt lat="45.55359" lon="5.74424">
        <ele>556</ele>
        <time>2019-10-27T15:19:46.000Z</time>
      </trkpt>
      <trkpt lat="45.55359" lon="5.74425">
        <ele>556</ele>
        <time>2019-10-27T15:19:47.000Z</time>
      </trkpt>
      <trkpt lat="45.55358" lon="5.74426">
        <ele>555</ele>
        <time>2019-10-27T15:19:48.000Z</time>
      </trkpt>
      <trkpt lat="45.55357" lon="5.74428">
        <ele>555</ele>
        <time>2019-10-27T15:19:49.000Z</time>
      </trkpt>
      <trkpt lat="45.55357" lon="5.74429">
        <ele>555</ele>
        <time>2019-10-27T15:19:50.000Z</time>
      </trkpt>
      <trkpt lat="45.55356" lon="5.74431">
        <ele>555</ele>
        <time>2019-10-27T15:19:51.000Z</time>
      </trkpt>
      <trkpt lat="45.55355" lon="5.74432">
        <ele>555</ele>
        <time>2019-10-27T15:19:52.000Z</time>
      </trkpt>
      <trkpt lat="45.55355" lon="5.74434">
        <ele>555</ele>
        <time>2019-10-27T15:19:53.000Z</time>
      </trkpt>
      <trkpt lat="45.55354" lon="5.74435">
        <ele>555</ele>
        <time>2019-10-27T15:19:54.000Z</time>
      </trkpt>
      <trkpt lat="45.55354" lon="5.74436">
        <ele>555</ele>
        <time>2019-10-27T15:19:55.000Z</time>
      </trkpt>
      <trkpt lat="45.55353" lon="5.74437">
        <ele>555</ele>
        <time>2019-10-27T15:19:56.000Z</time>
      </trkpt>
      <trkpt lat="45.55353" lon="5.74438">
        <ele>555</ele>
        <time>2019-10-27T15:19:57.000Z</time>
      </trkpt>
      <trkpt lat="45.55352" lon="5.74439">
        <ele>555</ele>
        <time>2019-10-27T15:19:58.000Z</time>
      </trkpt>
      <trkpt lat="45.55352" lon="5.7444">
        <ele>555</ele>
        <time>2019-10-27T15:19:59.000Z</time>
      </trkpt>
      <trkpt lat="45.55351" lon="5.74441">
        <ele>555</ele>
        <time>2019-10-27T15:20:00.000Z</time>
      </trkpt>
      <trkpt lat="45.55351" lon="5.74442">
        <ele>555</ele>
        <time>2019-10-27T15:20:01.000Z</time>
      </trkpt>
      <trkpt lat="45.5535" lon="5.74443">
        <ele>555</ele>
        <time>2019-10-27T15:20:02.000Z</time>
      </trkpt>
      <trkpt lat="45.5535" lon="5.74443">
        <ele>555</ele>
        <time>2019-10-27T15:20:03.000Z</time>
      </trkpt>
      <trkpt lat="45.55349" lon="5.74444">
        <ele>555</ele>
        <time>2019-10-27T15:20:04.000Z</time>
      </trkpt>
      <trkpt lat="45.55348" lon="5.74444">
        <ele>555</ele>
        <time>2019-10-27T15:20:05.000Z</time>
      </trkpt>
      <trkpt lat="45.55347" lon="5.74445">
        <ele>555</ele>
        <time>2019-10-27T15:20:06.000Z</time>
      </trkpt>
      <trkpt lat="45.55346" lon="5.74445">
        <ele>555</ele>
        <time>2019-10-27T15:20:07.000Z</time>
      </trkpt>
      <trkpt lat="45.55346" lon="5.74445">
        <ele>555</ele>
        <time>2019-10-27T15:20:08.000Z</time>
      </trkpt>
      <trkpt lat="45.55345" lon="5.74446">
        <ele>555</ele>
        <time>2019-10-27T15:20:09.000Z</time>
      </trkpt>
      <trkpt lat="45.55344" lon="5.74446">
        <ele>555</ele>
        <time>2019-10-27T15:20:10.000Z</time>
      </trkpt>
      <trkpt lat="45.55344" lon="5.74447">
        <ele>555</ele>
        <time>2019-10-27T15:20:11.000Z</time>
      </trkpt>
      <trkpt lat="45.55343" lon="5.74447">
        <ele>555</ele>
        <time>2019-10-27T15:20:12.000Z</time>
      </trkpt>
      <trkpt lat="45.55343" lon="5.74447">
        <ele>555</ele>
        <time>2019-10-27T15:20:13.000Z</time>
      </trkpt>
      <trkpt lat="45.55343" lon="5.74448">
        <ele>555</ele>
        <time>2019-10-27T15:20:14.000Z</time>
      </trkpt>
      <trkpt lat="45.55343" lon="5.74448">
        <ele>555</ele>
        <time>2019-10-27T15:20:15.000Z</time>
      </trkpt>
      <trkpt lat="45.55343" lon="5.74448">
        <ele>555</ele>
        <time>2019-10-27T15:20:16.000Z</time>
      </trkpt>
      <trkpt lat="45.55343" lon="5.74449">
        <ele>555</ele>
        <time>2019-10-27T15:20:17.000Z</time>
      </trkpt>
      <trkpt lat="45.55343" lon="5.74449">
        <ele>555</ele>
        <time>2019-10-27T15:20:18.000Z</time>
      </trkpt>
      <trkpt lat="45.55342" lon="5.74449">
        <ele>555</ele>
        <time>2019-10-27T15:20:19.000Z</time>
      </trkpt>
      <trkpt lat="45.55342" lon="5.74449">
        <ele>555</ele>
        <time>2019-10-27T15:20:20.000Z</time>
      </trkpt>
      <trkpt lat="45.55342" lon="5.74449">
        <ele>555</ele>
        <time>2019-10-27T15:20:21.000Z</time>
      </trkpt>
      <trkpt lat="45.55342" lon="5.74449">
        <ele>555</ele>
        <time>2019-10-27T15:20:22.000Z</time>
      </trkpt>
      <trkpt lat="45.55341" lon="5.74449">
        <ele>555</ele>
        <time>2019-10-27T15:20:23.000Z</time>
      </trkpt>
      <trkpt lat="45.55341" lon="5.74449">
        <ele>555</ele>
        <time>2019-10-27T15:20:24.000Z</time>
      </trkpt>
      <trkpt lat="45.5534" lon="5.74449">
        <ele>555</ele>
        <time>2019-10-27T15:20:25.000Z</time>
      </trkpt>
      <trkpt lat="45.55339" lon="5.74449">
        <ele>555</ele>
        <time>2019-10-27T15:20:26.000Z</time>
      </trkpt>
      <trkpt lat="45.55339" lon="5.74449">
        <ele>555</ele>
        <time>2019-10-27T15:20:27.000Z</time>
      </trkpt>
      <trkpt lat="45.55338" lon="5.74449">
        <ele>554</ele>
        <time>2019-10-27T15:20:28.000Z</time>
      </trkpt>
      <trkpt lat="45.55337" lon="5.74449">
        <ele>554</ele>
        <time>2019-10-27T15:20:29.000Z</time>
      </trkpt>
      <trkpt lat="45.55336" lon="5.74449">
        <ele>554</ele>
        <time>2019-10-27T15:20:30.000Z</time>
      </trkpt>
      <trkpt lat="45.55335" lon="5.74449">
        <ele>554</ele>
        <time>2019-10-27T15:20:31.000Z</time>
      </trkpt>
      <trkpt lat="45.55334" lon="5.74449">
        <ele>554</ele>
        <time>2019-10-27T15:20:32.000Z</time>
      </trkpt>
      <trkpt lat="45.55333" lon="5.7445">
        <ele>554</ele>
        <time>2019-10-27T15:20:33.000Z</time>
      </trkpt>
      <trkpt lat="45.55332" lon="5.7445">
        <ele>554</ele>
        <time>2019-10-27T15:20:34.000Z</time>
      </trkpt>
      <trkpt lat="45.55331" lon="5.74451">
        <ele>554</ele>
        <time>2019-10-27T15:20:35.000Z</time>
      </trkpt>
      <trkpt lat="45.55329" lon="5.74451">
        <ele>554</ele>
        <time>2019-10-27T15:20:36.000Z</time>
      </trkpt>
      <trkpt lat="45.55328" lon="5.74452">
        <ele>554</ele>
        <time>2019-10-27T15:20:37.000Z</time>
      </trkpt>
      <trkpt lat="45.55327" lon="5.74454">
        <ele>554</ele>
        <time>2019-10-27T15:20:38.000Z</time>
      </trkpt>
      <trkpt lat="45.55326" lon="5.74455">
        <ele>554</ele>
        <time>2019-10-27T15:20:39.000Z</time>
      </trkpt>
      <trkpt lat="45.55324" lon="5.74456">
        <ele>554</ele>
        <time>2019-10-27T15:20:40.000Z</time>
      </trkpt>
      <trkpt lat="45.55323" lon="5.74458">
        <ele>554</ele>
        <time>2019-10-27T15:20:41.000Z</time>
      </trkpt>
      <trkpt lat="45.55322" lon="5.74459">
        <ele>554</ele>
        <time>2019-10-27T15:20:42.000Z</time>
      </trkpt>
      <trkpt lat="45.55321" lon="5.7446">
        <ele>554</ele>
        <time>2019-10-27T15:20:43.000Z</time>
      </trkpt>
      <trkpt lat="45.5532" lon="5.74462">
        <ele>554</ele>
        <time>2019-10-27T15:20:44.000Z</time>
      </trkpt>
      <trkpt lat="45.55319" lon="5.74463">
        <ele>554</ele>
        <time>2019-10-27T15:20:45.000Z</time>
      </trkpt>
      <trkpt lat="45.55318" lon="5.74464">
        <ele>554</ele>
        <time>2019-10-27T15:20:46.000Z</time>
      </trkpt>
      <trkpt lat="45.55317" lon="5.74465">
        <ele>554</ele>
        <time>2019-10-27T15:20:47.000Z</time>
      </trkpt>
      <trkpt lat="45.55316" lon="5.74467">
        <ele>554</ele>
        <time>2019-10-27T15:20:48.000Z</time>
      </trkpt>
      <trkpt lat="45.55316" lon="5.74468">
        <ele>554</ele>
        <time>2019-10-27T15:20:49.000Z</time>
      </trkpt>
      <trkpt lat="45.55315" lon="5.74469">
        <ele>554</ele>
        <time>2019-10-27T15:20:50.000Z</time>
      </trkpt>
      <trkpt lat="45.55315" lon="5.7447">
        <ele>554</ele>
        <time>2019-10-27T15:20:51.000Z</time>
      </trkpt>
      <trkpt lat="45.55314" lon="5.74471">
        <ele>554</ele>
        <time>2019-10-27T15:20:52.000Z</time>
      </trkpt>
      <trkpt lat="45.55313" lon="5.74472">
        <ele>554</ele>
        <time>2019-10-27T15:20:53.000Z</time>
      </trkpt>
      <trkpt lat="45.55312" lon="5.74472">
        <ele>554</ele>
        <time>2019-10-27T15:20:54.000Z</time>
      </trkpt>
      <trkpt lat="45.55311" lon="5.74473">
        <ele>554</ele>
        <time>2019-10-27T15:20:55.000Z</time>
      </trkpt>
      <trkpt lat="45.5531" lon="5.74474">
        <ele>554</ele>
        <time>2019-10-27T15:20:56.000Z</time>
      </trkpt>
      <trkpt lat="45.55309" lon="5.74475">
        <ele>554</ele>
        <time>2019-10-27T15:20:57.000Z</time>
      </trkpt>
      <trkpt lat="45.55308" lon="5.74476">
        <ele>554</ele>
        <time>2019-10-27T15:20:58.000Z</time>
      </trkpt>
      <trkpt lat="45.55306" lon="5.74477">
        <ele>554</ele>
        <time>2019-10-27T15:20:59.000Z</time>
      </trkpt>
      <trkpt lat="45.55305" lon="5.74478">
        <ele>554</ele>
        <time>2019-10-27T15:21:00.000Z</time>
      </trkpt>
      <trkpt lat="45.55304" lon="5.74479">
        <ele>554</ele>
        <time>2019-10-27T15:21:01.000Z</time>
      </trkpt>
      <trkpt lat="45.55303" lon="5.7448">
        <ele>554</ele>
        <time>2019-10-27T15:21:02.000Z</time>
      </trkpt>
      <trkpt lat="45.55301" lon="5.74481">
        <ele>554</ele>
        <time>2019-10-27T15:21:03.000Z</time>
      </trkpt>
      <trkpt lat="45.553" lon="5.74482">
        <ele>554</ele>
        <time>2019-10-27T15:21:04.000Z</time>
      </trkpt>
      <trkpt lat="45.55299" lon="5.74484">
        <ele>554</ele>
        <time>2019-10-27T15:21:05.000Z</time>
      </trkpt>
      <trkpt lat="45.55298" lon="5.74485">
        <ele>554</ele>
        <time>2019-10-27T15:21:06.000Z</time>
      </trkpt>
      <trkpt lat="45.55297" lon="5.74486">
        <ele>553.7</ele>
        <time>2019-10-27T15:21:07.000Z</time>
      </trkpt>
      <trkpt lat="45.55296" lon="5.74487">
        <ele>553.3</ele>
        <time>2019-10-27T15:21:08.000Z</time>
      </trkpt>
      <trkpt lat="45.55295" lon="5.74489">
        <ele>553</ele>
        <time>2019-10-27T15:21:09.000Z</time>
      </trkpt>
      <trkpt lat="45.55295" lon="5.7449">
        <ele>553</ele>
        <time>2019-10-27T15:21:10.000Z</time>
      </trkpt>
      <trkpt lat="45.55295" lon="5.74492">
        <ele>553</ele>
        <time>2019-10-27T15:21:11.000Z</time>
      </trkpt>
      <trkpt lat="45.55294" lon="5.74493">
        <ele>553</ele>
        <time>2019-10-27T15:21:12.000Z</time>
      </trkpt>
      <trkpt lat="45.55294" lon="5.74495">
        <ele>553</ele>
        <time>2019-10-27T15:21:13.000Z</time>
      </trkpt>
      <trkpt lat="45.55295" lon="5.74497">
        <ele>553</ele>
        <time>2019-10-27T15:21:14.000Z</time>
      </trkpt>
      <trkpt lat="45.55295" lon="5.74498">
        <ele>553</ele>
        <time>2019-10-27T15:21:15.000Z</time>
      </trkpt>
      <trkpt lat="45.55295" lon="5.745">
        <ele>553</ele>
        <time>2019-10-27T15:21:16.000Z</time>
      </trkpt>
      <trkpt lat="45.55296" lon="5.74501">
        <ele>553</ele>
        <time>2019-10-27T15:21:17.000Z</time>
      </trkpt>
      <trkpt lat="45.55296" lon="5.74503">
        <ele>553</ele>
        <time>2019-10-27T15:21:18.000Z</time>
      </trkpt>
      <trkpt lat="45.55297" lon="5.74504">
        <ele>553</ele>
        <time>2019-10-27T15:21:19.000Z</time>
      </trkpt>
      <trkpt lat="45.55298" lon="5.74505">
        <ele>553</ele>
        <time>2019-10-27T15:21:20.000Z</time>
      </trkpt>
      <trkpt lat="45.55298" lon="5.74506">
        <ele>553</ele>
        <time>2019-10-27T15:21:21.000Z</time>
      </trkpt>
      <trkpt lat="45.55299" lon="5.74506">
        <ele>553</ele>
        <time>2019-10-27T15:21:22.000Z</time>
      </trkpt>
      <trkpt lat="45.553" lon="5.74507">
        <ele>553</ele>
        <time>2019-10-27T15:21:23.000Z</time>
      </trkpt>
      <trkpt lat="45.553" lon="5.74508">
        <ele>553</ele>
        <time>2019-10-27T15:21:24.000Z</time>
      </trkpt>
      <trkpt lat="45.55301" lon="5.74509">
        <ele>552.7</ele>
        <time>2019-10-27T15:21:25.000Z</time>
      </trkpt>
      <trkpt lat="45.55302" lon="5.74511">
        <ele>552.3</ele>
        <time>2019-10-27T15:21:26.000Z</time>
      </trkpt>
      <trkpt lat="45.55303" lon="5.74512">
        <ele>552</ele>
        <time>2019-10-27T15:21:27.000Z</time>
      </trkpt>
      <trkpt lat="45.55304" lon="5.74514">
        <ele>552</ele>
        <time>2019-10-27T15:21:28.000Z</time>
      </trkpt>
      <trkpt lat="45.55304" lon="5.74515">
        <ele>552</ele>
        <time>2019-10-27T15:21:29.000Z</time>
      </trkpt>
      <trkpt lat="45.55304" lon="5.74517">
        <ele>552</ele>
        <time>2019-10-27T15:21:30.000Z</time>
      </trkpt>
      <trkpt lat="45.55305" lon="5.74519">
        <ele>552</ele>
        <time>2019-10-27T15:21:31.000Z</time>
      </trkpt>
      <trkpt lat="45.55305" lon="5.7452">
        <ele>552</ele>
        <time>2019-10-27T15:21:32.000Z</time>
      </trkpt>
      <trkpt lat="45.55304" lon="5.74522">
        <ele>552</ele>
        <time>2019-10-27T15:21:33.000Z</time>
      </trkpt>
      <trkpt lat="45.55304" lon="5.74524">
        <ele>552</ele>
        <time>2019-10-27T15:21:34.000Z</time>
      </trkpt>
      <trkpt lat="45.55304" lon="5.74526">
        <ele>551.5</ele>
        <time>2019-10-27T15:21:35.000Z</time>
      </trkpt>
      <trkpt lat="45.55303" lon="5.74528">
        <ele>551</ele>
        <time>2019-10-27T15:21:36.000Z</time>
      </trkpt>
      <trkpt lat="45.55303" lon="5.7453">
        <ele>551</ele>
        <time>2019-10-27T15:21:37.000Z</time>
      </trkpt>
      <trkpt lat="45.55302" lon="5.74532">
        <ele>551</ele>
        <time>2019-10-27T15:21:38.000Z</time>
      </trkpt>
      <trkpt lat="45.55301" lon="5.74534">
        <ele>551</ele>
        <time>2019-10-27T15:21:39.000Z</time>
      </trkpt>
      <trkpt lat="45.553" lon="5.74536">
        <ele>551</ele>
        <time>2019-10-27T15:21:40.000Z</time>
      </trkpt>
      <trkpt lat="45.553" lon="5.74538">
        <ele>551</ele>
        <time>2019-10-27T15:21:41.000Z</time>
      </trkpt>
      <trkpt lat="45.55299" lon="5.7454">
        <ele>551</ele>
        <time>2019-10-27T15:21:42.000Z</time>
      </trkpt>
      <trkpt lat="45.55298" lon="5.74543">
        <ele>551</ele>
        <time>2019-10-27T15:21:43.000Z</time>
      </trkpt>
      <trkpt lat="45.55297" lon="5.74545">
        <ele>550</ele>
        <time>2019-10-27T15:21:44.000Z</time>
      </trkpt>
      <trkpt lat="45.55297" lon="5.74547">
        <ele>550</ele>
        <time>2019-10-27T15:21:45.000Z</time>
      </trkpt>
      <trkpt lat="45.55296" lon="5.74549">
        <ele>550</ele>
        <time>2019-10-27T15:21:46.000Z</time>
      </trkpt>
      <trkpt lat="45.55296" lon="5.74551">
        <ele>550</ele>
        <time>2019-10-27T15:21:47.000Z</time>
      </trkpt>
      <trkpt lat="45.55295" lon="5.74553">
        <ele>550</ele>
        <time>2019-10-27T15:21:48.000Z</time>
      </trkpt>
      <trkpt lat="45.55295" lon="5.74555">
        <ele>550</ele>
        <time>2019-10-27T15:21:49.000Z</time>
      </trkpt>
      <trkpt lat="45.55295" lon="5.74556">
        <ele>550</ele>
        <time>2019-10-27T15:21:50.000Z</time>
      </trkpt>
      <trkpt lat="45.55295" lon="5.74558">
        <ele>550</ele>
        <time>2019-10-27T15:21:51.000Z</time>
      </trkpt>
      <trkpt lat="45.55294" lon="5.7456">
        <ele>549</ele>
        <time>2019-10-27T15:21:52.000Z</time>
      </trkpt>
      <trkpt lat="45.55294" lon="5.74561">
        <ele>549</ele>
        <time>2019-10-27T15:21:53.000Z</time>
      </trkpt>
      <trkpt lat="45.55294" lon="5.74563">
        <ele>549</ele>
        <time>2019-10-27T15:21:54.000Z</time>
      </trkpt>
      <trkpt lat="45.55294" lon="5.74564">
        <ele>549</ele>
        <time>2019-10-27T15:21:55.000Z</time>
      </trkpt>
      <trkpt lat="45.55294" lon="5.74566">
        <ele>549</ele>
        <time>2019-10-27T15:21:56.000Z</time>
      </trkpt>
      <trkpt lat="45.55294" lon="5.74567">
        <ele>549</ele>
        <time>2019-10-27T15:21:57.000Z</time>
      </trkpt>
      <trkpt lat="45.55294" lon="5.74568">
        <ele>548</ele>
        <time>2019-10-27T15:21:58.000Z</time>
      </trkpt>
      <trkpt lat="45.55294" lon="5.7457">
        <ele>548</ele>
        <time>2019-10-27T15:21:59.000Z</time>
      </trkpt>
      <trkpt lat="45.55294" lon="5.74571">
        <ele>548</ele>
        <time>2019-10-27T15:22:00.000Z</time>
      </trkpt>
      <trkpt lat="45.55295" lon="5.74572">
        <ele>548</ele>
        <time>2019-10-27T15:22:01.000Z</time>
      </trkpt>
      <trkpt lat="45.55295" lon="5.74574">
        <ele>548</ele>
        <time>2019-10-27T15:22:02.000Z</time>
      </trkpt>
      <trkpt lat="45.55295" lon="5.74575">
        <ele>548</ele>
        <time>2019-10-27T15:22:03.000Z</time>
      </trkpt>
      <trkpt lat="45.55295" lon="5.74576">
        <ele>548</ele>
        <time>2019-10-27T15:22:04.000Z</time>
      </trkpt>
      <trkpt lat="45.55295" lon="5.74577">
        <ele>547.5</ele>
        <time>2019-10-27T15:22:05.000Z</time>
      </trkpt>
      <trkpt lat="45.55295" lon="5.74578">
        <ele>547</ele>
        <time>2019-10-27T15:22:06.000Z</time>
      </trkpt>
      <trkpt lat="45.55295" lon="5.74579">
        <ele>547</ele>
        <time>2019-10-27T15:22:07.000Z</time>
      </trkpt>
      <trkpt lat="45.55296" lon="5.74581">
        <ele>547</ele>
        <time>2019-10-27T15:22:08.000Z</time>
      </trkpt>
      <trkpt lat="45.55296" lon="5.74582">
        <ele>547</ele>
        <time>2019-10-27T15:22:09.000Z</time>
      </trkpt>
      <trkpt lat="45.55297" lon="5.74585">
        <ele>547</ele>
        <time>2019-10-27T15:22:10.000Z</time>
      </trkpt>
      <trkpt lat="45.55296" lon="5.74587">
        <ele>547</ele>
        <time>2019-10-27T15:22:11.000Z</time>
      </trkpt>
      <trkpt lat="45.55296" lon="5.74589">
        <ele>547</ele>
        <time>2019-10-27T15:22:12.000Z</time>
      </trkpt>
      <trkpt lat="45.55296" lon="5.74591">
        <ele>547</ele>
        <time>2019-10-27T15:22:13.000Z</time>
      </trkpt>
      <trkpt lat="45.55295" lon="5.74592">
        <ele>546.5</ele>
        <time>2019-10-27T15:22:14.000Z</time>
      </trkpt>
      <trkpt lat="45.55295" lon="5.74593">
        <ele>546</ele>
        <time>2019-10-27T15:22:15.000Z</time>
      </trkpt>
      <trkpt lat="45.55296" lon="5.74594">
        <ele>546</ele>
        <time>2019-10-27T15:22:16.000Z</time>
      </trkpt>
      <trkpt lat="45.55297" lon="5.74595">
        <ele>546</ele>
        <time>2019-10-27T15:22:17.000Z</time>
      </trkpt>
      <trkpt lat="45.55298" lon="5.74597">
        <ele>546</ele>
        <time>2019-10-27T15:22:18.000Z</time>
      </trkpt>
      <trkpt lat="45.55299" lon="5.74598">
        <ele>546</ele>
        <time>2019-10-27T15:22:19.000Z</time>
      </trkpt>
      <trkpt lat="45.553" lon="5.74599">
        <ele>546</ele>
        <time>2019-10-27T15:22:20.000Z</time>
      </trkpt>
      <trkpt lat="45.553" lon="5.746">
        <ele>545.5</ele>
        <time>2019-10-27T15:22:21.000Z</time>
      </trkpt>
      <trkpt lat="45.553" lon="5.74602">
        <ele>545</ele>
        <time>2019-10-27T15:22:22.000Z</time>
      </trkpt>
      <trkpt lat="45.553" lon="5.74603">
        <ele>545</ele>
        <time>2019-10-27T15:22:23.000Z</time>
      </trkpt>
      <trkpt lat="45.553" lon="5.74605">
        <ele>545</ele>
        <time>2019-10-27T15:22:24.000Z</time>
      </trkpt>
      <trkpt lat="45.55299" lon="5.74606">
        <ele>545</ele>
        <time>2019-10-27T15:22:25.000Z</time>
      </trkpt>
      <trkpt lat="45.55298" lon="5.74608">
        <ele>545</ele>
        <time>2019-10-27T15:22:26.000Z</time>
      </trkpt>
      <trkpt lat="45.55297" lon="5.7461">
        <ele>545</ele>
        <time>2019-10-27T15:22:27.000Z</time>
      </trkpt>
      <trkpt lat="45.55296" lon="5.74611">
        <ele>545</ele>
        <time>2019-10-27T15:22:28.000Z</time>
      </trkpt>
      <trkpt lat="45.55295" lon="5.74613">
        <ele>545</ele>
        <time>2019-10-27T15:22:29.000Z</time>
      </trkpt>
      <trkpt lat="45.55294" lon="5.74615">
        <ele>545</ele>
        <time>2019-10-27T15:22:30.000Z</time>
      </trkpt>
      <trkpt lat="45.55293" lon="5.74616">
        <ele>545</ele>
        <time>2019-10-27T15:22:31.000Z</time>
      </trkpt>
      <trkpt lat="45.55291" lon="5.74618">
        <ele>544.5</ele>
        <time>2019-10-27T15:22:32.000Z</time>
      </trkpt>
      <trkpt lat="45.5529" lon="5.74619">
        <ele>544</ele>
        <time>2019-10-27T15:22:33.000Z</time>
      </trkpt>
      <trkpt lat="45.55288" lon="5.74621">
        <ele>544</ele>
        <time>2019-10-27T15:22:34.000Z</time>
      </trkpt>
      <trkpt lat="45.55287" lon="5.74622">
        <ele>544</ele>
        <time>2019-10-27T15:22:35.000Z</time>
      </trkpt>
      <trkpt lat="45.55285" lon="5.74623">
        <ele>544</ele>
        <time>2019-10-27T15:22:36.000Z</time>
      </trkpt>
      <trkpt lat="45.55284" lon="5.74624">
        <ele>544</ele>
        <time>2019-10-27T15:22:37.000Z</time>
      </trkpt>
      <trkpt lat="45.55283" lon="5.74625">
        <ele>543.5</ele>
        <time>2019-10-27T15:22:38.000Z</time>
      </trkpt>
      <trkpt lat="45.55281" lon="5.74626">
        <ele>543</ele>
        <time>2019-10-27T15:22:39.000Z</time>
      </trkpt>
      <trkpt lat="45.5528" lon="5.74627">
        <ele>543</ele>
        <time>2019-10-27T15:22:40.000Z</time>
      </trkpt>
      <trkpt lat="45.55279" lon="5.74627">
        <ele>543</ele>
        <time>2019-10-27T15:22:41.000Z</time>
      </trkpt>
      <trkpt lat="45.55278" lon="5.74628">
        <ele>543</ele>
        <time>2019-10-27T15:22:42.000Z</time>
      </trkpt>
      <trkpt lat="45.55277" lon="5.74628">
        <ele>543</ele>
        <time>2019-10-27T15:22:43.000Z</time>
      </trkpt>
      <trkpt lat="45.55276" lon="5.74629">
        <ele>543</ele>
        <time>2019-10-27T15:22:44.000Z</time>
      </trkpt>
      <trkpt lat="45.55275" lon="5.74629">
        <ele>543</ele>
        <time>2019-10-27T15:22:45.000Z</time>
      </trkpt>
      <trkpt lat="45.55274" lon="5.74629">
        <ele>543</ele>
        <time>2019-10-27T15:22:46.000Z</time>
      </trkpt>
      <trkpt lat="45.55273" lon="5.74629">
        <ele>543</ele>
        <time>2019-10-27T15:22:47.000Z</time>
      </trkpt>
      <trkpt lat="45.55272" lon="5.7463">
        <ele>543</ele>
        <time>2019-10-27T15:22:48.000Z</time>
      </trkpt>
      <trkpt lat="45.55271" lon="5.7463">
        <ele>543</ele>
        <time>2019-10-27T15:22:49.000Z</time>
      </trkpt>
      <trkpt lat="45.55271" lon="5.7463">
        <ele>543</ele>
        <time>2019-10-27T15:22:50.000Z</time>
      </trkpt>
      <trkpt lat="45.5527" lon="5.7463">
        <ele>543</ele>
        <time>2019-10-27T15:22:51.000Z</time>
      </trkpt>
      <trkpt lat="45.55269" lon="5.7463">
        <ele>543</ele>
        <time>2019-10-27T15:22:52.000Z</time>
      </trkpt>
      <trkpt lat="45.55268" lon="5.74631">
        <ele>543</ele>
        <time>2019-10-27T15:22:53.000Z</time>
      </trkpt>
      <trkpt lat="45.55268" lon="5.74631">
        <ele>543</ele>
        <time>2019-10-27T15:22:54.000Z</time>
      </trkpt>
      <trkpt lat="45.55267" lon="5.74631">
        <ele>543</ele>
        <time>2019-10-27T15:22:55.000Z</time>
      </trkpt>
      <trkpt lat="45.55267" lon="5.74632">
        <ele>543</ele>
        <time>2019-10-27T15:22:56.000Z</time>
      </trkpt>
      <trkpt lat="45.55266" lon="5.74632">
        <ele>543</ele>
        <time>2019-10-27T15:22:57.000Z</time>
      </trkpt>
      <trkpt lat="45.55265" lon="5.74632">
        <ele>543</ele>
        <time>2019-10-27T15:22:58.000Z</time>
      </trkpt>
      <trkpt lat="45.55265" lon="5.74633">
        <ele>543</ele>
        <time>2019-10-27T15:22:59.000Z</time>
      </trkpt>
      <trkpt lat="45.55264" lon="5.74633">
        <ele>543</ele>
        <time>2019-10-27T15:23:00.000Z</time>
      </trkpt>
      <trkpt lat="45.55264" lon="5.74634">
        <ele>543</ele>
        <time>2019-10-27T15:23:01.000Z</time>
      </trkpt>
      <trkpt lat="45.55263" lon="5.74634">
        <ele>543</ele>
        <time>2019-10-27T15:23:02.000Z</time>
      </trkpt>
      <trkpt lat="45.55263" lon="5.74635">
        <ele>543</ele>
        <time>2019-10-27T15:23:03.000Z</time>
      </trkpt>
      <trkpt lat="45.55262" lon="5.74635">
        <ele>543</ele>
        <time>2019-10-27T15:23:04.000Z</time>
      </trkpt>
      <trkpt lat="45.55262" lon="5.74636">
        <ele>543</ele>
        <time>2019-10-27T15:23:05.000Z</time>
      </trkpt>
      <trkpt lat="45.55261" lon="5.74636">
        <ele>543</ele>
        <time>2019-10-27T15:23:06.000Z</time>
      </trkpt>
      <trkpt lat="45.55261" lon="5.74636">
        <ele>543</ele>
        <time>2019-10-27T15:23:07.000Z</time>
      </trkpt>
      <trkpt lat="45.5526" lon="5.74637">
        <ele>543</ele>
        <time>2019-10-27T15:23:08.000Z</time>
      </trkpt>
      <trkpt lat="45.5526" lon="5.74637">
        <ele>543</ele>
        <time>2019-10-27T15:23:09.000Z</time>
      </trkpt>
      <trkpt lat="45.55259" lon="5.74638">
        <ele>543</ele>
        <time>2019-10-27T15:23:10.000Z</time>
      </trkpt>
      <trkpt lat="45.55259" lon="5.74638">
        <ele>543</ele>
        <time>2019-10-27T15:23:11.000Z</time>
      </trkpt>
      <trkpt lat="45.55258" lon="5.74638">
        <ele>543</ele>
        <time>2019-10-27T15:23:12.000Z</time>
      </trkpt>
      <trkpt lat="45.55258" lon="5.74638">
        <ele>543</ele>
        <time>2019-10-27T15:23:13.000Z</time>
      </trkpt>
      <trkpt lat="45.55257" lon="5.74639">
        <ele>543</ele>
        <time>2019-10-27T15:23:14.000Z</time>
      </trkpt>
      <trkpt lat="45.55257" lon="5.74639">
        <ele>543</ele>
        <time>2019-10-27T15:23:15.000Z</time>
      </trkpt>
      <trkpt lat="45.55256" lon="5.74639">
        <ele>543</ele>
        <time>2019-10-27T15:23:16.000Z</time>
      </trkpt>
      <trkpt lat="45.55256" lon="5.7464">
        <ele>543</ele>
        <time>2019-10-27T15:23:17.000Z</time>
      </trkpt>
      <trkpt lat="45.55255" lon="5.7464">
        <ele>543</ele>
        <time>2019-10-27T15:23:18.000Z</time>
      </trkpt>
      <trkpt lat="45.55255" lon="5.7464">
        <ele>543</ele>
        <time>2019-10-27T15:23:19.000Z</time>
      </trkpt>
      <trkpt lat="45.55254" lon="5.74641">
        <ele>543</ele>
        <time>2019-10-27T15:23:20.000Z</time>
      </trkpt>
      <trkpt lat="45.55254" lon="5.74642">
        <ele>543</ele>
        <time>2019-10-27T15:23:21.000Z</time>
      </trkpt>
      <trkpt lat="45.55254" lon="5.74643">
        <ele>543</ele>
        <time>2019-10-27T15:23:22.000Z</time>
      </trkpt>
      <trkpt lat="45.55253" lon="5.74644">
        <ele>543</ele>
        <time>2019-10-27T15:23:23.000Z</time>
      </trkpt>
      <trkpt lat="45.55253" lon="5.74645">
        <ele>543</ele>
        <time>2019-10-27T15:23:24.000Z</time>
      </trkpt>
      <trkpt lat="45.55253" lon="5.74646">
        <ele>542.7</ele>
        <time>2019-10-27T15:23:25.000Z</time>
      </trkpt>
      <trkpt lat="45.55252" lon="5.74648">
        <ele>542.3</ele>
        <time>2019-10-27T15:23:26.000Z</time>
      </trkpt>
      <trkpt lat="45.55251" lon="5.7465">
        <ele>542</ele>
        <time>2019-10-27T15:23:27.000Z</time>
      </trkpt>
      <trkpt lat="45.5525" lon="5.74652">
        <ele>542</ele>
        <time>2019-10-27T15:23:28.000Z</time>
      </trkpt>
      <trkpt lat="45.55249" lon="5.74654">
        <ele>542</ele>
        <time>2019-10-27T15:23:29.000Z</time>
      </trkpt>
      <trkpt lat="45.55248" lon="5.74656">
        <ele>542</ele>
        <time>2019-10-27T15:23:30.000Z</time>
      </trkpt>
      <trkpt lat="45.55247" lon="5.74659">
        <ele>542</ele>
        <time>2019-10-27T15:23:31.000Z</time>
      </trkpt>
      <trkpt lat="45.55246" lon="5.7466">
        <ele>542</ele>
        <time>2019-10-27T15:23:32.000Z</time>
      </trkpt>
      <trkpt lat="45.55247" lon="5.74661">
        <ele>541.7</ele>
        <time>2019-10-27T15:23:33.000Z</time>
      </trkpt>
      <trkpt lat="45.55248" lon="5.74661">
        <ele>541.3</ele>
        <time>2019-10-27T15:23:34.000Z</time>
      </trkpt>
      <trkpt lat="45.5525" lon="5.74659">
        <ele>541</ele>
        <time>2019-10-27T15:23:35.000Z</time>
      </trkpt>
      <trkpt lat="45.55253" lon="5.74658">
        <ele>541</ele>
        <time>2019-10-27T15:23:36.000Z</time>
      </trkpt>
      <trkpt lat="45.55255" lon="5.74656">
        <ele>541.5</ele>
        <time>2019-10-27T15:23:37.000Z</time>
      </trkpt>
      <trkpt lat="45.55257" lon="5.74654">
        <ele>542</ele>
        <time>2019-10-27T15:23:38.000Z</time>
      </trkpt>
      <trkpt lat="45.55259" lon="5.74653">
        <ele>542</ele>
        <time>2019-10-27T15:23:39.000Z</time>
      </trkpt>
      <trkpt lat="45.5526" lon="5.74652">
        <ele>542</ele>
        <time>2019-10-27T15:23:40.000Z</time>
      </trkpt>
      <trkpt lat="45.55262" lon="5.74651">
        <ele>542</ele>
        <time>2019-10-27T15:23:41.000Z</time>
      </trkpt>
      <trkpt lat="45.55263" lon="5.7465">
        <ele>542</ele>
        <time>2019-10-27T15:23:42.000Z</time>
      </trkpt>
      <trkpt lat="45.55263" lon="5.74649">
        <ele>541.7</ele>
        <time>2019-10-27T15:23:43.000Z</time>
      </trkpt>
      <trkpt lat="45.55264" lon="5.74649">
        <ele>541.3</ele>
        <time>2019-10-27T15:23:44.000Z</time>
      </trkpt>
      <trkpt lat="45.55265" lon="5.74649">
        <ele>541</ele>
        <time>2019-10-27T15:23:45.000Z</time>
      </trkpt>
      <trkpt lat="45.55266" lon="5.74649">
        <ele>541</ele>
        <time>2019-10-27T15:23:46.000Z</time>
      </trkpt>
      <trkpt lat="45.55266" lon="5.74649">
        <ele>541</ele>
        <time>2019-10-27T15:23:47.000Z</time>
      </trkpt>
      <trkpt lat="45.55267" lon="5.7465">
        <ele>541</ele>
        <time>2019-10-27T15:23:48.000Z</time>
      </trkpt>
      <trkpt lat="45.55268" lon="5.74651">
        <ele>541</ele>
        <time>2019-10-27T15:23:49.000Z</time>
      </trkpt>
      <trkpt lat="45.55269" lon="5.74651">
        <ele>541</ele>
        <time>2019-10-27T15:23:50.000Z</time>
      </trkpt>
      <trkpt lat="45.5527" lon="5.74652">
        <ele>541</ele>
        <time>2019-10-27T15:23:51.000Z</time>
      </trkpt>
      <trkpt lat="45.5527" lon="5.74653">
        <ele>541</ele>
        <time>2019-10-27T15:23:52.000Z</time>
      </trkpt>
      <trkpt lat="45.55271" lon="5.74655">
        <ele>541</ele>
        <time>2019-10-27T15:23:53.000Z</time>
      </trkpt>
      <trkpt lat="45.55271" lon="5.74656">
        <ele>541</ele>
        <time>2019-10-27T15:23:54.000Z</time>
      </trkpt>
      <trkpt lat="45.55272" lon="5.74656">
        <ele>541</ele>
        <time>2019-10-27T15:23:55.000Z</time>
      </trkpt>
      <trkpt lat="45.55272" lon="5.74657">
        <ele>541</ele>
        <time>2019-10-27T15:23:56.000Z</time>
      </trkpt>
      <trkpt lat="45.55273" lon="5.74658">
        <ele>541</ele>
        <time>2019-10-27T15:23:57.000Z</time>
      </trkpt>
      <trkpt lat="45.55273" lon="5.74658">
        <ele>541</ele>
        <time>2019-10-27T15:23:58.000Z</time>
      </trkpt>
      <trkpt lat="45.55273" lon="5.74659">
        <ele>541</ele>
        <time>2019-10-27T15:23:59.000Z</time>
      </trkpt>
      <trkpt lat="45.55273" lon="5.74658">
        <ele>541</ele>
        <time>2019-10-27T15:24:00.000Z</time>
      </trkpt>
      <trkpt lat="45.55274" lon="5.74658">
        <ele>541</ele>
        <time>2019-10-27T15:24:01.000Z</time>
      </trkpt>
      <trkpt lat="45.55274" lon="5.74658">
        <ele>541</ele>
        <time>2019-10-27T15:24:02.000Z</time>
      </trkpt>
      <trkpt lat="45.55274" lon="5.74658">
        <ele>541</ele>
        <time>2019-10-27T15:24:03.000Z</time>
      </trkpt>
      <trkpt lat="45.55274" lon="5.74659">
        <ele>541</ele>
        <time>2019-10-27T15:24:04.000Z</time>
      </trkpt>
      <trkpt lat="45.55274" lon="5.74659">
        <ele>541</ele>
        <time>2019-10-27T15:24:05.000Z</time>
      </trkpt>
      <trkpt lat="45.55273" lon="5.74659">
        <ele>541</ele>
        <time>2019-10-27T15:24:06.000Z</time>
      </trkpt>
      <trkpt lat="45.55273" lon="5.7466">
        <ele>541</ele>
        <time>2019-10-27T15:24:07.000Z</time>
      </trkpt>
      <trkpt lat="45.55273" lon="5.74661">
        <ele>541</ele>
        <time>2019-10-27T15:24:08.000Z</time>
      </trkpt>
      <trkpt lat="45.55273" lon="5.74661">
        <ele>541</ele>
        <time>2019-10-27T15:24:09.000Z</time>
      </trkpt>
      <trkpt lat="45.55272" lon="5.74662">
        <ele>541</ele>
        <time>2019-10-27T15:24:10.000Z</time>
      </trkpt>
      <trkpt lat="45.55272" lon="5.74663">
        <ele>541</ele>
        <time>2019-10-27T15:24:11.000Z</time>
      </trkpt>
      <trkpt lat="45.55271" lon="5.74664">
        <ele>541</ele>
        <time>2019-10-27T15:24:12.000Z</time>
      </trkpt>
      <trkpt lat="45.55271" lon="5.74665">
        <ele>541</ele>
        <time>2019-10-27T15:24:13.000Z</time>
      </trkpt>
      <trkpt lat="45.55271" lon="5.74665">
        <ele>541</ele>
        <time>2019-10-27T15:24:14.000Z</time>
      </trkpt>
      <trkpt lat="45.5527" lon="5.74666">
        <ele>541.3</ele>
        <time>2019-10-27T15:24:15.000Z</time>
      </trkpt>
      <trkpt lat="45.5527" lon="5.74667">
        <ele>541.7</ele>
        <time>2019-10-27T15:24:16.000Z</time>
      </trkpt>
      <trkpt lat="45.55269" lon="5.74667">
        <ele>542</ele>
        <time>2019-10-27T15:24:17.000Z</time>
      </trkpt>
      <trkpt lat="45.55269" lon="5.74668">
        <ele>541.5</ele>
        <time>2019-10-27T15:24:18.000Z</time>
      </trkpt>
      <trkpt lat="45.55269" lon="5.74668">
        <ele>541</ele>
        <time>2019-10-27T15:24:19.000Z</time>
      </trkpt>
      <trkpt lat="45.55268" lon="5.74669">
        <ele>541</ele>
        <time>2019-10-27T15:24:20.000Z</time>
      </trkpt>
      <trkpt lat="45.55268" lon="5.74669">
        <ele>541</ele>
        <time>2019-10-27T15:24:21.000Z</time>
      </trkpt>
      <trkpt lat="45.55268" lon="5.74669">
        <ele>541</ele>
        <time>2019-10-27T15:24:22.000Z</time>
      </trkpt>
      <trkpt lat="45.55268" lon="5.74669">
        <ele>541</ele>
        <time>2019-10-27T15:24:23.000Z</time>
      </trkpt>
      <trkpt lat="45.55267" lon="5.74669">
        <ele>541</ele>
        <time>2019-10-27T15:24:24.000Z</time>
      </trkpt>
      <trkpt lat="45.55267" lon="5.74669">
        <ele>541</ele>
        <time>2019-10-27T15:24:25.000Z</time>
      </trkpt>
      <trkpt lat="45.55266" lon="5.74669">
        <ele>541</ele>
        <time>2019-10-27T15:24:26.000Z</time>
      </trkpt>
      <trkpt lat="45.55266" lon="5.74669">
        <ele>541</ele>
        <time>2019-10-27T15:24:27.000Z</time>
      </trkpt>
      <trkpt lat="45.55266" lon="5.74668">
        <ele>541</ele>
        <time>2019-10-27T15:24:28.000Z</time>
      </trkpt>
      <trkpt lat="45.55266" lon="5.74668">
        <ele>541</ele>
        <time>2019-10-27T15:24:29.000Z</time>
      </trkpt>
      <trkpt lat="45.55266" lon="5.74668">
        <ele>541</ele>
        <time>2019-10-27T15:24:30.000Z</time>
      </trkpt>
      <trkpt lat="45.55267" lon="5.74667">
        <ele>541</ele>
        <time>2019-10-27T15:24:31.000Z</time>
      </trkpt>
      <trkpt lat="45.55267" lon="5.74667">
        <ele>541</ele>
        <time>2019-10-27T15:24:32.000Z</time>
      </trkpt>
      <trkpt lat="45.55268" lon="5.74666">
        <ele>541</ele>
        <time>2019-10-27T15:24:33.000Z</time>
      </trkpt>
      <trkpt lat="45.55268" lon="5.74666">
        <ele>541</ele>
        <time>2019-10-27T15:24:34.000Z</time>
      </trkpt>
      <trkpt lat="45.55269" lon="5.74665">
        <ele>541</ele>
        <time>2019-10-27T15:24:35.000Z</time>
      </trkpt>
      <trkpt lat="45.55269" lon="5.74665">
        <ele>541</ele>
        <time>2019-10-27T15:24:36.000Z</time>
      </trkpt>
      <trkpt lat="45.55269" lon="5.74664">
        <ele>541</ele>
        <time>2019-10-27T15:24:37.000Z</time>
      </trkpt>
      <trkpt lat="45.5527" lon="5.74664">
        <ele>541</ele>
        <time>2019-10-27T15:24:38.000Z</time>
      </trkpt>
      <trkpt lat="45.5527" lon="5.74664">
        <ele>541</ele>
        <time>2019-10-27T15:24:39.000Z</time>
      </trkpt>
      <trkpt lat="45.5527" lon="5.74664">
        <ele>541</ele>
        <time>2019-10-27T15:24:40.000Z</time>
      </trkpt>
      <trkpt lat="45.5527" lon="5.74664">
        <ele>541</ele>
        <time>2019-10-27T15:24:41.000Z</time>
      </trkpt>
      <trkpt lat="45.5527" lon="5.74664">
        <ele>541</ele>
        <time>2019-10-27T15:24:42.000Z</time>
      </trkpt>
      <trkpt lat="45.5527" lon="5.74665">
        <ele>541</ele>
        <time>2019-10-27T15:24:43.000Z</time>
      </trkpt>
      <trkpt lat="45.5527" lon="5.74665">
        <ele>541</ele>
        <time>2019-10-27T15:24:44.000Z</time>
      </trkpt>
      <trkpt lat="45.55269" lon="5.74665">
        <ele>541</ele>
        <time>2019-10-27T15:24:45.000Z</time>
      </trkpt>
      <trkpt lat="45.55269" lon="5.74666">
        <ele>541</ele>
        <time>2019-10-27T15:24:46.000Z</time>
      </trkpt>
      <trkpt lat="45.55269" lon="5.74666">
        <ele>541</ele>
        <time>2019-10-27T15:24:47.000Z</time>
      </trkpt>
      <trkpt lat="45.55268" lon="5.74666">
        <ele>541</ele>
        <time>2019-10-27T15:24:48.000Z</time>
      </trkpt>
      <trkpt lat="45.55268" lon="5.74667">
        <ele>541</ele>
        <time>2019-10-27T15:24:49.000Z</time>
      </trkpt>
      <trkpt lat="45.55267" lon="5.74667">
        <ele>541</ele>
        <time>2019-10-27T15:24:50.000Z</time>
      </trkpt>
      <trkpt lat="45.55267" lon="5.74668">
        <ele>541</ele>
        <time>2019-10-27T15:24:51.000Z</time>
      </trkpt>
      <trkpt lat="45.55266" lon="5.74669">
        <ele>541</ele>
        <time>2019-10-27T15:24:52.000Z</time>
      </trkpt>
      <trkpt lat="45.55266" lon="5.74669">
        <ele>541</ele>
        <time>2019-10-27T15:24:53.000Z</time>
      </trkpt>
      <trkpt lat="45.55265" lon="5.7467">
        <ele>541</ele>
        <time>2019-10-27T15:24:54.000Z</time>
      </trkpt>
      <trkpt lat="45.55265" lon="5.7467">
        <ele>541</ele>
        <time>2019-10-27T15:24:55.000Z</time>
      </trkpt>
      <trkpt lat="45.55264" lon="5.74671">
        <ele>541</ele>
        <time>2019-10-27T15:24:56.000Z</time>
      </trkpt>
      <trkpt lat="45.55263" lon="5.74672">
        <ele>541</ele>
        <time>2019-10-27T15:24:57.000Z</time>
      </trkpt>
      <trkpt lat="45.55263" lon="5.74672">
        <ele>541</ele>
        <time>2019-10-27T15:24:58.000Z</time>
      </trkpt>
      <trkpt lat="45.55262" lon="5.74673">
        <ele>541</ele>
        <time>2019-10-27T15:24:59.000Z</time>
      </trkpt>
      <trkpt lat="45.55262" lon="5.74674">
        <ele>541</ele>
        <time>2019-10-27T15:25:00.000Z</time>
      </trkpt>
      <trkpt lat="45.55261" lon="5.74674">
        <ele>541</ele>
        <time>2019-10-27T15:25:01.000Z</time>
      </trkpt>
      <trkpt lat="45.5526" lon="5.74675">
        <ele>541</ele>
        <time>2019-10-27T15:25:02.000Z</time>
      </trkpt>
      <trkpt lat="45.5526" lon="5.74675">
        <ele>541</ele>
        <time>2019-10-27T15:25:03.000Z</time>
      </trkpt>
      <trkpt lat="45.55259" lon="5.74676">
        <ele>541</ele>
        <time>2019-10-27T15:25:04.000Z</time>
      </trkpt>
      <trkpt lat="45.55259" lon="5.74676">
        <ele>541</ele>
        <time>2019-10-27T15:25:05.000Z</time>
      </trkpt>
      <trkpt lat="45.55259" lon="5.74677">
        <ele>541</ele>
        <time>2019-10-27T15:25:06.000Z</time>
      </trkpt>
      <trkpt lat="45.55258" lon="5.74677">
        <ele>541</ele>
        <time>2019-10-27T15:25:07.000Z</time>
      </trkpt>
      <trkpt lat="45.55258" lon="5.74677">
        <ele>541</ele>
        <time>2019-10-27T15:25:08.000Z</time>
      </trkpt>
      <trkpt lat="45.55258" lon="5.74678">
        <ele>541</ele>
        <time>2019-10-27T15:25:09.000Z</time>
      </trkpt>
      <trkpt lat="45.55258" lon="5.74678">
        <ele>541</ele>
        <time>2019-10-27T15:25:10.000Z</time>
      </trkpt>
    </trkseg>
  </trk>
</gpx>